<?xml version="1.0" encoding="UTF-8" standalone="no" ?>
<gpx xmlns="http://www.topografix.com/GPX/1/1" xmlns:xsi="http://www.w3.org/2001/XMLSchema-instance" xsi:schemaLocation="http://www.topografix.com/GPX/1/1 http://www.topografix.com/GPX/1/1/gpx.xsd" version="1.1" creator="VisuGPX - https://www.visugpx.com">
  <metadata>
    <name>Pissy </name>
  </metadata>
  <trk>
    <name><![CDATA[Pissy _1]]></name>
    <trkseg>
      <trkpt lat="49.86211" lon="2.12937">
        <ele>118.6</ele>
        <time>2022-03-23T13:02:41Z</time>
      </trkpt>
      <trkpt lat="49.8621" lon="2.12936">
        <ele>118.6</ele>
        <time>2022-03-23T13:02:42Z</time>
      </trkpt>
      <trkpt lat="49.86209" lon="2.12935">
        <ele>118.6</ele>
        <time>2022-03-23T13:02:43Z</time>
      </trkpt>
      <trkpt lat="49.86208" lon="2.12935">
        <ele>118.7</ele>
        <time>2022-03-23T13:02:44Z</time>
      </trkpt>
      <trkpt lat="49.86207" lon="2.12934">
        <ele>118.7</ele>
        <time>2022-03-23T13:02:46Z</time>
      </trkpt>
      <trkpt lat="49.86206" lon="2.12933">
        <ele>118.7</ele>
        <time>2022-03-23T13:02:47Z</time>
      </trkpt>
      <trkpt lat="49.86205" lon="2.12933">
        <ele>118.7</ele>
        <time>2022-03-23T13:02:48Z</time>
      </trkpt>
      <trkpt lat="49.86203" lon="2.12932">
        <ele>118.7</ele>
        <time>2022-03-23T13:02:49Z</time>
      </trkpt>
      <trkpt lat="49.86202" lon="2.12931">
        <ele>118.7</ele>
        <time>2022-03-23T13:02:50Z</time>
      </trkpt>
      <trkpt lat="49.86201" lon="2.12931">
        <ele>118.7</ele>
        <time>2022-03-23T13:02:51Z</time>
      </trkpt>
      <trkpt lat="49.862" lon="2.1293">
        <ele>118.7</ele>
        <time>2022-03-23T13:02:52Z</time>
      </trkpt>
      <trkpt lat="49.86199" lon="2.1293">
        <ele>118.7</ele>
        <time>2022-03-23T13:02:53Z</time>
      </trkpt>
      <trkpt lat="49.86197" lon="2.12928">
        <ele>118.7</ele>
        <time>2022-03-23T13:02:55Z</time>
      </trkpt>
      <trkpt lat="49.86196" lon="2.12927">
        <ele>118.7</ele>
        <time>2022-03-23T13:02:56Z</time>
      </trkpt>
      <trkpt lat="49.86196" lon="2.12927">
        <ele>118.7</ele>
        <time>2022-03-23T13:02:57Z</time>
      </trkpt>
      <trkpt lat="49.86194" lon="2.12926">
        <ele>118.7</ele>
        <time>2022-03-23T13:02:58Z</time>
      </trkpt>
      <trkpt lat="49.86193" lon="2.12925">
        <ele>118.7</ele>
        <time>2022-03-23T13:03:00Z</time>
      </trkpt>
      <trkpt lat="49.86192" lon="2.12924">
        <ele>118.7</ele>
        <time>2022-03-23T13:03:01Z</time>
      </trkpt>
      <trkpt lat="49.86191" lon="2.12924">
        <ele>118.8</ele>
        <time>2022-03-23T13:03:02Z</time>
      </trkpt>
      <trkpt lat="49.8619" lon="2.12923">
        <ele>118.8</ele>
        <time>2022-03-23T13:03:03Z</time>
      </trkpt>
      <trkpt lat="49.86188" lon="2.12922">
        <ele>118.8</ele>
        <time>2022-03-23T13:03:04Z</time>
      </trkpt>
      <trkpt lat="49.86187" lon="2.12921">
        <ele>118.8</ele>
        <time>2022-03-23T13:03:05Z</time>
      </trkpt>
      <trkpt lat="49.86186" lon="2.12921">
        <ele>118.8</ele>
        <time>2022-03-23T13:03:06Z</time>
      </trkpt>
      <trkpt lat="49.86184" lon="2.12919">
        <ele>118.9</ele>
        <time>2022-03-23T13:03:08Z</time>
      </trkpt>
      <trkpt lat="49.86184" lon="2.12918">
        <ele>118.9</ele>
        <time>2022-03-23T13:03:09Z</time>
      </trkpt>
      <trkpt lat="49.86183" lon="2.12917">
        <ele>118.9</ele>
        <time>2022-03-23T13:03:10Z</time>
      </trkpt>
      <trkpt lat="49.86181" lon="2.12915">
        <ele>118.9</ele>
        <time>2022-03-23T13:03:11Z</time>
      </trkpt>
      <trkpt lat="49.8618" lon="2.12915">
        <ele>118.9</ele>
        <time>2022-03-23T13:03:12Z</time>
      </trkpt>
      <trkpt lat="49.86179" lon="2.12914">
        <ele>118.9</ele>
        <time>2022-03-23T13:03:13Z</time>
      </trkpt>
      <trkpt lat="49.86177" lon="2.12912">
        <ele>119</ele>
        <time>2022-03-23T13:03:14Z</time>
      </trkpt>
      <trkpt lat="49.86177" lon="2.12912">
        <ele>119</ele>
        <time>2022-03-23T13:03:16Z</time>
      </trkpt>
      <trkpt lat="49.86176" lon="2.12911">
        <ele>119</ele>
        <time>2022-03-23T13:03:17Z</time>
      </trkpt>
      <trkpt lat="49.86175" lon="2.1291">
        <ele>119</ele>
        <time>2022-03-23T13:03:18Z</time>
      </trkpt>
      <trkpt lat="49.86174" lon="2.12908">
        <ele>119.1</ele>
        <time>2022-03-23T13:03:19Z</time>
      </trkpt>
      <trkpt lat="49.86173" lon="2.12907">
        <ele>119.1</ele>
        <time>2022-03-23T13:03:20Z</time>
      </trkpt>
      <trkpt lat="49.86172" lon="2.12905">
        <ele>119.1</ele>
        <time>2022-03-23T13:03:21Z</time>
      </trkpt>
      <trkpt lat="49.86171" lon="2.12904">
        <ele>119.2</ele>
        <time>2022-03-23T13:03:23Z</time>
      </trkpt>
      <trkpt lat="49.8617" lon="2.12903">
        <ele>119.2</ele>
        <time>2022-03-23T13:03:24Z</time>
      </trkpt>
      <trkpt lat="49.86169" lon="2.12903">
        <ele>119.2</ele>
        <time>2022-03-23T13:03:25Z</time>
      </trkpt>
      <trkpt lat="49.86168" lon="2.12902">
        <ele>119.2</ele>
        <time>2022-03-23T13:03:26Z</time>
      </trkpt>
      <trkpt lat="49.86167" lon="2.12901">
        <ele>119.2</ele>
        <time>2022-03-23T13:03:27Z</time>
      </trkpt>
      <trkpt lat="49.86167" lon="2.129">
        <ele>119.3</ele>
        <time>2022-03-23T13:03:28Z</time>
      </trkpt>
      <trkpt lat="49.86167" lon="2.12899">
        <ele>119.3</ele>
        <time>2022-03-23T13:03:29Z</time>
      </trkpt>
      <trkpt lat="49.86166" lon="2.12897">
        <ele>119.3</ele>
        <time>2022-03-23T13:03:30Z</time>
      </trkpt>
      <trkpt lat="49.86165" lon="2.12897">
        <ele>119.3</ele>
        <time>2022-03-23T13:03:31Z</time>
      </trkpt>
      <trkpt lat="49.86165" lon="2.12896">
        <ele>119.3</ele>
        <time>2022-03-23T13:03:32Z</time>
      </trkpt>
      <trkpt lat="49.86163" lon="2.12894">
        <ele>119.4</ele>
        <time>2022-03-23T13:03:33Z</time>
      </trkpt>
      <trkpt lat="49.86162" lon="2.12894">
        <ele>119.4</ele>
        <time>2022-03-23T13:03:34Z</time>
      </trkpt>
      <trkpt lat="49.86161" lon="2.12894">
        <ele>119.4</ele>
        <time>2022-03-23T13:03:36Z</time>
      </trkpt>
      <trkpt lat="49.8616" lon="2.12894">
        <ele>119.5</ele>
        <time>2022-03-23T13:03:37Z</time>
      </trkpt>
      <trkpt lat="49.86159" lon="2.12895">
        <ele>119.4</ele>
        <time>2022-03-23T13:03:38Z</time>
      </trkpt>
      <trkpt lat="49.86158" lon="2.12897">
        <ele>119.4</ele>
        <time>2022-03-23T13:03:39Z</time>
      </trkpt>
      <trkpt lat="49.86157" lon="2.12897">
        <ele>119.4</ele>
        <time>2022-03-23T13:03:40Z</time>
      </trkpt>
      <trkpt lat="49.86156" lon="2.12897">
        <ele>119.4</ele>
        <time>2022-03-23T13:03:41Z</time>
      </trkpt>
      <trkpt lat="49.86154" lon="2.12897">
        <ele>119.4</ele>
        <time>2022-03-23T13:03:42Z</time>
      </trkpt>
      <trkpt lat="49.86153" lon="2.12896">
        <ele>119.4</ele>
        <time>2022-03-23T13:03:43Z</time>
      </trkpt>
      <trkpt lat="49.86152" lon="2.12896">
        <ele>119.4</ele>
        <time>2022-03-23T13:03:44Z</time>
      </trkpt>
      <trkpt lat="49.86151" lon="2.12895">
        <ele>119.4</ele>
        <time>2022-03-23T13:03:45Z</time>
      </trkpt>
      <trkpt lat="49.8615" lon="2.12894">
        <ele>119.4</ele>
        <time>2022-03-23T13:03:46Z</time>
      </trkpt>
      <trkpt lat="49.86149" lon="2.12893">
        <ele>119.4</ele>
        <time>2022-03-23T13:03:47Z</time>
      </trkpt>
      <trkpt lat="49.86148" lon="2.12892">
        <ele>119.4</ele>
        <time>2022-03-23T13:03:49Z</time>
      </trkpt>
      <trkpt lat="49.86147" lon="2.12891">
        <ele>119.4</ele>
        <time>2022-03-23T13:03:50Z</time>
      </trkpt>
      <trkpt lat="49.86145" lon="2.12889">
        <ele>119.4</ele>
        <time>2022-03-23T13:03:51Z</time>
      </trkpt>
      <trkpt lat="49.86144" lon="2.12888">
        <ele>119.4</ele>
        <time>2022-03-23T13:03:52Z</time>
      </trkpt>
      <trkpt lat="49.86143" lon="2.12886">
        <ele>119.4</ele>
        <time>2022-03-23T13:03:53Z</time>
      </trkpt>
      <trkpt lat="49.86142" lon="2.12885">
        <ele>119.4</ele>
        <time>2022-03-23T13:03:54Z</time>
      </trkpt>
      <trkpt lat="49.8614" lon="2.12884">
        <ele>119.4</ele>
        <time>2022-03-23T13:03:55Z</time>
      </trkpt>
      <trkpt lat="49.86139" lon="2.12882">
        <ele>119.4</ele>
        <time>2022-03-23T13:03:57Z</time>
      </trkpt>
      <trkpt lat="49.86138" lon="2.12881">
        <ele>119.4</ele>
        <time>2022-03-23T13:03:58Z</time>
      </trkpt>
      <trkpt lat="49.86137" lon="2.1288">
        <ele>119.4</ele>
        <time>2022-03-23T13:03:59Z</time>
      </trkpt>
      <trkpt lat="49.86136" lon="2.12878">
        <ele>119.4</ele>
        <time>2022-03-23T13:04:00Z</time>
      </trkpt>
      <trkpt lat="49.86135" lon="2.12876">
        <ele>119.4</ele>
        <time>2022-03-23T13:04:01Z</time>
      </trkpt>
      <trkpt lat="49.86134" lon="2.12874">
        <ele>119.4</ele>
        <time>2022-03-23T13:04:02Z</time>
      </trkpt>
      <trkpt lat="49.86133" lon="2.12872">
        <ele>119.4</ele>
        <time>2022-03-23T13:04:03Z</time>
      </trkpt>
      <trkpt lat="49.86132" lon="2.1287">
        <ele>119.4</ele>
        <time>2022-03-23T13:04:05Z</time>
      </trkpt>
      <trkpt lat="49.86131" lon="2.12868">
        <ele>119.4</ele>
        <time>2022-03-23T13:04:06Z</time>
      </trkpt>
      <trkpt lat="49.8613" lon="2.12866">
        <ele>119.4</ele>
        <time>2022-03-23T13:04:07Z</time>
      </trkpt>
      <trkpt lat="49.86129" lon="2.12864">
        <ele>119.4</ele>
        <time>2022-03-23T13:04:08Z</time>
      </trkpt>
      <trkpt lat="49.86129" lon="2.12862">
        <ele>119.4</ele>
        <time>2022-03-23T13:04:09Z</time>
      </trkpt>
      <trkpt lat="49.86128" lon="2.1286">
        <ele>119.4</ele>
        <time>2022-03-23T13:04:10Z</time>
      </trkpt>
      <trkpt lat="49.86127" lon="2.12857">
        <ele>119.4</ele>
        <time>2022-03-23T13:04:11Z</time>
      </trkpt>
      <trkpt lat="49.86127" lon="2.12855">
        <ele>119.4</ele>
        <time>2022-03-23T13:04:12Z</time>
      </trkpt>
      <trkpt lat="49.86126" lon="2.12853">
        <ele>119.4</ele>
        <time>2022-03-23T13:04:13Z</time>
      </trkpt>
      <trkpt lat="49.86125" lon="2.1285">
        <ele>119.4</ele>
        <time>2022-03-23T13:04:15Z</time>
      </trkpt>
      <trkpt lat="49.86124" lon="2.12849">
        <ele>119.4</ele>
        <time>2022-03-23T13:04:16Z</time>
      </trkpt>
      <trkpt lat="49.86123" lon="2.12848">
        <ele>119.4</ele>
        <time>2022-03-23T13:04:17Z</time>
      </trkpt>
      <trkpt lat="49.86122" lon="2.12846">
        <ele>119.4</ele>
        <time>2022-03-23T13:04:18Z</time>
      </trkpt>
      <trkpt lat="49.86121" lon="2.12845">
        <ele>119.4</ele>
        <time>2022-03-23T13:04:19Z</time>
      </trkpt>
      <trkpt lat="49.86121" lon="2.12844">
        <ele>119.4</ele>
        <time>2022-03-23T13:04:20Z</time>
      </trkpt>
      <trkpt lat="49.86119" lon="2.12842">
        <ele>119.4</ele>
        <time>2022-03-23T13:04:21Z</time>
      </trkpt>
      <trkpt lat="49.86118" lon="2.12842">
        <ele>119.4</ele>
        <time>2022-03-23T13:04:22Z</time>
      </trkpt>
      <trkpt lat="49.86118" lon="2.12841">
        <ele>119.4</ele>
        <time>2022-03-23T13:04:23Z</time>
      </trkpt>
      <trkpt lat="49.86117" lon="2.1284">
        <ele>119.4</ele>
        <time>2022-03-23T13:04:24Z</time>
      </trkpt>
      <trkpt lat="49.86116" lon="2.12838">
        <ele>119.3</ele>
        <time>2022-03-23T13:04:25Z</time>
      </trkpt>
      <trkpt lat="49.86115" lon="2.12837">
        <ele>119.3</ele>
        <time>2022-03-23T13:04:27Z</time>
      </trkpt>
      <trkpt lat="49.86114" lon="2.12836">
        <ele>119.3</ele>
        <time>2022-03-23T13:04:28Z</time>
      </trkpt>
      <trkpt lat="49.86113" lon="2.12835">
        <ele>119.3</ele>
        <time>2022-03-23T13:04:29Z</time>
      </trkpt>
      <trkpt lat="49.86112" lon="2.12833">
        <ele>119.3</ele>
        <time>2022-03-23T13:04:30Z</time>
      </trkpt>
      <trkpt lat="49.86111" lon="2.12832">
        <ele>119.3</ele>
        <time>2022-03-23T13:04:31Z</time>
      </trkpt>
      <trkpt lat="49.8611" lon="2.12831">
        <ele>119.3</ele>
        <time>2022-03-23T13:04:32Z</time>
      </trkpt>
      <trkpt lat="49.86109" lon="2.1283">
        <ele>119.3</ele>
        <time>2022-03-23T13:04:33Z</time>
      </trkpt>
      <trkpt lat="49.86108" lon="2.12828">
        <ele>119.3</ele>
        <time>2022-03-23T13:04:34Z</time>
      </trkpt>
      <trkpt lat="49.86107" lon="2.12827">
        <ele>119.3</ele>
        <time>2022-03-23T13:04:35Z</time>
      </trkpt>
      <trkpt lat="49.86106" lon="2.12826">
        <ele>119.3</ele>
        <time>2022-03-23T13:04:36Z</time>
      </trkpt>
      <trkpt lat="49.86105" lon="2.12825">
        <ele>119.3</ele>
        <time>2022-03-23T13:04:37Z</time>
      </trkpt>
      <trkpt lat="49.86104" lon="2.12824">
        <ele>119.2</ele>
        <time>2022-03-23T13:04:39Z</time>
      </trkpt>
      <trkpt lat="49.86102" lon="2.12822">
        <ele>119.2</ele>
        <time>2022-03-23T13:04:40Z</time>
      </trkpt>
      <trkpt lat="49.86101" lon="2.12821">
        <ele>119.2</ele>
        <time>2022-03-23T13:04:41Z</time>
      </trkpt>
      <trkpt lat="49.86099" lon="2.12819">
        <ele>119.2</ele>
        <time>2022-03-23T13:04:42Z</time>
      </trkpt>
      <trkpt lat="49.86098" lon="2.12819">
        <ele>119.2</ele>
        <time>2022-03-23T13:04:43Z</time>
      </trkpt>
      <trkpt lat="49.86098" lon="2.12818">
        <ele>119.2</ele>
        <time>2022-03-23T13:04:44Z</time>
      </trkpt>
      <trkpt lat="49.86097" lon="2.12816">
        <ele>119.2</ele>
        <time>2022-03-23T13:04:45Z</time>
      </trkpt>
      <trkpt lat="49.86096" lon="2.12815">
        <ele>119.2</ele>
        <time>2022-03-23T13:04:46Z</time>
      </trkpt>
      <trkpt lat="49.86094" lon="2.12812">
        <ele>119.2</ele>
        <time>2022-03-23T13:04:47Z</time>
      </trkpt>
      <trkpt lat="49.86094" lon="2.12811">
        <ele>119.2</ele>
        <time>2022-03-23T13:04:48Z</time>
      </trkpt>
      <trkpt lat="49.86093" lon="2.1281">
        <ele>119.2</ele>
        <time>2022-03-23T13:04:49Z</time>
      </trkpt>
      <trkpt lat="49.86093" lon="2.12808">
        <ele>119.2</ele>
        <time>2022-03-23T13:04:51Z</time>
      </trkpt>
      <trkpt lat="49.86092" lon="2.12806">
        <ele>119.2</ele>
        <time>2022-03-23T13:04:52Z</time>
      </trkpt>
      <trkpt lat="49.86091" lon="2.12804">
        <ele>119.1</ele>
        <time>2022-03-23T13:04:53Z</time>
      </trkpt>
      <trkpt lat="49.8609" lon="2.12803">
        <ele>119.1</ele>
        <time>2022-03-23T13:04:54Z</time>
      </trkpt>
      <trkpt lat="49.8609" lon="2.12802">
        <ele>119.1</ele>
        <time>2022-03-23T13:04:55Z</time>
      </trkpt>
      <trkpt lat="49.86088" lon="2.12799">
        <ele>119.1</ele>
        <time>2022-03-23T13:04:56Z</time>
      </trkpt>
      <trkpt lat="49.86088" lon="2.12798">
        <ele>119.1</ele>
        <time>2022-03-23T13:04:57Z</time>
      </trkpt>
      <trkpt lat="49.86087" lon="2.12797">
        <ele>119.1</ele>
        <time>2022-03-23T13:04:58Z</time>
      </trkpt>
      <trkpt lat="49.86086" lon="2.12795">
        <ele>119.1</ele>
        <time>2022-03-23T13:04:59Z</time>
      </trkpt>
      <trkpt lat="49.86084" lon="2.12795">
        <ele>119.1</ele>
        <time>2022-03-23T13:05:00Z</time>
      </trkpt>
      <trkpt lat="49.86082" lon="2.12794">
        <ele>119.1</ele>
        <time>2022-03-23T13:05:01Z</time>
      </trkpt>
      <trkpt lat="49.86082" lon="2.12794">
        <ele>119.1</ele>
        <time>2022-03-23T13:05:02Z</time>
      </trkpt>
      <trkpt lat="49.86081" lon="2.12793">
        <ele>119.1</ele>
        <time>2022-03-23T13:05:03Z</time>
      </trkpt>
      <trkpt lat="49.8608" lon="2.12792">
        <ele>119.1</ele>
        <time>2022-03-23T13:05:05Z</time>
      </trkpt>
      <trkpt lat="49.86078" lon="2.12791">
        <ele>119.1</ele>
        <time>2022-03-23T13:05:06Z</time>
      </trkpt>
      <trkpt lat="49.86077" lon="2.1279">
        <ele>119.1</ele>
        <time>2022-03-23T13:05:07Z</time>
      </trkpt>
      <trkpt lat="49.86076" lon="2.12789">
        <ele>119.1</ele>
        <time>2022-03-23T13:05:08Z</time>
      </trkpt>
      <trkpt lat="49.86075" lon="2.12787">
        <ele>119.1</ele>
        <time>2022-03-23T13:05:09Z</time>
      </trkpt>
      <trkpt lat="49.86074" lon="2.12786">
        <ele>119.1</ele>
        <time>2022-03-23T13:05:10Z</time>
      </trkpt>
      <trkpt lat="49.86073" lon="2.12785">
        <ele>119.1</ele>
        <time>2022-03-23T13:05:11Z</time>
      </trkpt>
      <trkpt lat="49.86072" lon="2.12784">
        <ele>119.1</ele>
        <time>2022-03-23T13:05:12Z</time>
      </trkpt>
      <trkpt lat="49.86071" lon="2.12783">
        <ele>119.1</ele>
        <time>2022-03-23T13:05:13Z</time>
      </trkpt>
      <trkpt lat="49.86069" lon="2.12782">
        <ele>119.1</ele>
        <time>2022-03-23T13:05:14Z</time>
      </trkpt>
      <trkpt lat="49.86068" lon="2.12781">
        <ele>119.1</ele>
        <time>2022-03-23T13:05:16Z</time>
      </trkpt>
      <trkpt lat="49.86067" lon="2.12781">
        <ele>119.1</ele>
        <time>2022-03-23T13:05:17Z</time>
      </trkpt>
      <trkpt lat="49.86065" lon="2.12779">
        <ele>119.1</ele>
        <time>2022-03-23T13:05:18Z</time>
      </trkpt>
      <trkpt lat="49.86065" lon="2.12779">
        <ele>119.1</ele>
        <time>2022-03-23T13:05:19Z</time>
      </trkpt>
      <trkpt lat="49.86064" lon="2.12778">
        <ele>119.1</ele>
        <time>2022-03-23T13:05:20Z</time>
      </trkpt>
      <trkpt lat="49.86063" lon="2.12778">
        <ele>119.1</ele>
        <time>2022-03-23T13:05:21Z</time>
      </trkpt>
      <trkpt lat="49.86062" lon="2.12777">
        <ele>119.1</ele>
        <time>2022-03-23T13:05:22Z</time>
      </trkpt>
      <trkpt lat="49.86061" lon="2.12776">
        <ele>119.1</ele>
        <time>2022-03-23T13:05:23Z</time>
      </trkpt>
      <trkpt lat="49.8606" lon="2.12776">
        <ele>119.1</ele>
        <time>2022-03-23T13:05:24Z</time>
      </trkpt>
      <trkpt lat="49.86059" lon="2.12775">
        <ele>119.1</ele>
        <time>2022-03-23T13:05:26Z</time>
      </trkpt>
      <trkpt lat="49.86058" lon="2.12774">
        <ele>119.1</ele>
        <time>2022-03-23T13:05:27Z</time>
      </trkpt>
      <trkpt lat="49.86057" lon="2.12772">
        <ele>119.1</ele>
        <time>2022-03-23T13:05:28Z</time>
      </trkpt>
      <trkpt lat="49.86056" lon="2.12771">
        <ele>119.1</ele>
        <time>2022-03-23T13:05:29Z</time>
      </trkpt>
      <trkpt lat="49.86055" lon="2.1277">
        <ele>119.1</ele>
        <time>2022-03-23T13:05:30Z</time>
      </trkpt>
      <trkpt lat="49.86054" lon="2.12769">
        <ele>119.1</ele>
        <time>2022-03-23T13:05:31Z</time>
      </trkpt>
      <trkpt lat="49.86053" lon="2.12767">
        <ele>119.2</ele>
        <time>2022-03-23T13:05:32Z</time>
      </trkpt>
      <trkpt lat="49.86053" lon="2.12766">
        <ele>119.2</ele>
        <time>2022-03-23T13:05:34Z</time>
      </trkpt>
      <trkpt lat="49.86052" lon="2.12764">
        <ele>119.2</ele>
        <time>2022-03-23T13:05:35Z</time>
      </trkpt>
      <trkpt lat="49.86052" lon="2.12763">
        <ele>119.2</ele>
        <time>2022-03-23T13:05:36Z</time>
      </trkpt>
      <trkpt lat="49.8605" lon="2.12761">
        <ele>119.2</ele>
        <time>2022-03-23T13:05:37Z</time>
      </trkpt>
      <trkpt lat="49.86049" lon="2.1276">
        <ele>119.2</ele>
        <time>2022-03-23T13:05:38Z</time>
      </trkpt>
      <trkpt lat="49.86049" lon="2.12759">
        <ele>119.2</ele>
        <time>2022-03-23T13:05:39Z</time>
      </trkpt>
      <trkpt lat="49.86046" lon="2.12758">
        <ele>119.2</ele>
        <time>2022-03-23T13:05:40Z</time>
      </trkpt>
      <trkpt lat="49.86045" lon="2.12757">
        <ele>119.2</ele>
        <time>2022-03-23T13:05:42Z</time>
      </trkpt>
      <trkpt lat="49.86044" lon="2.12756">
        <ele>119.2</ele>
        <time>2022-03-23T13:05:43Z</time>
      </trkpt>
      <trkpt lat="49.86043" lon="2.12755">
        <ele>119.2</ele>
        <time>2022-03-23T13:05:44Z</time>
      </trkpt>
      <trkpt lat="49.86042" lon="2.12754">
        <ele>119.2</ele>
        <time>2022-03-23T13:05:45Z</time>
      </trkpt>
      <trkpt lat="49.86041" lon="2.12753">
        <ele>119.2</ele>
        <time>2022-03-23T13:05:46Z</time>
      </trkpt>
      <trkpt lat="49.86039" lon="2.12752">
        <ele>119.2</ele>
        <time>2022-03-23T13:05:47Z</time>
      </trkpt>
      <trkpt lat="49.86038" lon="2.12751">
        <ele>119.2</ele>
        <time>2022-03-23T13:05:48Z</time>
      </trkpt>
      <trkpt lat="49.86037" lon="2.1275">
        <ele>119.2</ele>
        <time>2022-03-23T13:05:49Z</time>
      </trkpt>
      <trkpt lat="49.86035" lon="2.1275">
        <ele>119.2</ele>
        <time>2022-03-23T13:05:51Z</time>
      </trkpt>
      <trkpt lat="49.86034" lon="2.12749">
        <ele>119.2</ele>
        <time>2022-03-23T13:05:52Z</time>
      </trkpt>
      <trkpt lat="49.86033" lon="2.12748">
        <ele>119.2</ele>
        <time>2022-03-23T13:05:53Z</time>
      </trkpt>
      <trkpt lat="49.86032" lon="2.12748">
        <ele>119.3</ele>
        <time>2022-03-23T13:05:54Z</time>
      </trkpt>
      <trkpt lat="49.86031" lon="2.12748">
        <ele>119.3</ele>
        <time>2022-03-23T13:05:55Z</time>
      </trkpt>
      <trkpt lat="49.8603" lon="2.12749">
        <ele>119.3</ele>
        <time>2022-03-23T13:05:56Z</time>
      </trkpt>
      <trkpt lat="49.86029" lon="2.12749">
        <ele>119.3</ele>
        <time>2022-03-23T13:05:57Z</time>
      </trkpt>
      <trkpt lat="49.86028" lon="2.1275">
        <ele>119.2</ele>
        <time>2022-03-23T13:05:58Z</time>
      </trkpt>
      <trkpt lat="49.86027" lon="2.1275">
        <ele>119.2</ele>
        <time>2022-03-23T13:06:00Z</time>
      </trkpt>
      <trkpt lat="49.86026" lon="2.12751">
        <ele>119.2</ele>
        <time>2022-03-23T13:06:01Z</time>
      </trkpt>
      <trkpt lat="49.86025" lon="2.12752">
        <ele>119.2</ele>
        <time>2022-03-23T13:06:02Z</time>
      </trkpt>
      <trkpt lat="49.86024" lon="2.12753">
        <ele>119.2</ele>
        <time>2022-03-23T13:06:03Z</time>
      </trkpt>
      <trkpt lat="49.86023" lon="2.12754">
        <ele>119.2</ele>
        <time>2022-03-23T13:06:04Z</time>
      </trkpt>
      <trkpt lat="49.86023" lon="2.12755">
        <ele>119.2</ele>
        <time>2022-03-23T13:06:05Z</time>
      </trkpt>
      <trkpt lat="49.86022" lon="2.12757">
        <ele>119.2</ele>
        <time>2022-03-23T13:06:07Z</time>
      </trkpt>
      <trkpt lat="49.86022" lon="2.12758">
        <ele>119.2</ele>
        <time>2022-03-23T13:06:08Z</time>
      </trkpt>
      <trkpt lat="49.86022" lon="2.1276">
        <ele>119.2</ele>
        <time>2022-03-23T13:06:09Z</time>
      </trkpt>
      <trkpt lat="49.86022" lon="2.12762">
        <ele>119.2</ele>
        <time>2022-03-23T13:06:10Z</time>
      </trkpt>
      <trkpt lat="49.86021" lon="2.12764">
        <ele>119.2</ele>
        <time>2022-03-23T13:06:11Z</time>
      </trkpt>
      <trkpt lat="49.86021" lon="2.12765">
        <ele>119.2</ele>
        <time>2022-03-23T13:06:12Z</time>
      </trkpt>
      <trkpt lat="49.8602" lon="2.12767">
        <ele>119.2</ele>
        <time>2022-03-23T13:06:13Z</time>
      </trkpt>
      <trkpt lat="49.8602" lon="2.12768">
        <ele>119.2</ele>
        <time>2022-03-23T13:06:14Z</time>
      </trkpt>
      <trkpt lat="49.8602" lon="2.1277">
        <ele>119.1</ele>
        <time>2022-03-23T13:06:15Z</time>
      </trkpt>
      <trkpt lat="49.86019" lon="2.12772">
        <ele>119.1</ele>
        <time>2022-03-23T13:06:17Z</time>
      </trkpt>
      <trkpt lat="49.86019" lon="2.12773">
        <ele>119.1</ele>
        <time>2022-03-23T13:06:18Z</time>
      </trkpt>
      <trkpt lat="49.86019" lon="2.12775">
        <ele>119.1</ele>
        <time>2022-03-23T13:06:19Z</time>
      </trkpt>
      <trkpt lat="49.86019" lon="2.12777">
        <ele>119.1</ele>
        <time>2022-03-23T13:06:20Z</time>
      </trkpt>
      <trkpt lat="49.86018" lon="2.1278">
        <ele>119.1</ele>
        <time>2022-03-23T13:06:21Z</time>
      </trkpt>
      <trkpt lat="49.86017" lon="2.12781">
        <ele>119.1</ele>
        <time>2022-03-23T13:06:22Z</time>
      </trkpt>
      <trkpt lat="49.86017" lon="2.12782">
        <ele>119.1</ele>
        <time>2022-03-23T13:06:23Z</time>
      </trkpt>
      <trkpt lat="49.86017" lon="2.12784">
        <ele>119.1</ele>
        <time>2022-03-23T13:06:25Z</time>
      </trkpt>
      <trkpt lat="49.86016" lon="2.12786">
        <ele>119.1</ele>
        <time>2022-03-23T13:06:26Z</time>
      </trkpt>
      <trkpt lat="49.86016" lon="2.12787">
        <ele>119.1</ele>
        <time>2022-03-23T13:06:27Z</time>
      </trkpt>
      <trkpt lat="49.86015" lon="2.1279">
        <ele>119.1</ele>
        <time>2022-03-23T13:06:28Z</time>
      </trkpt>
      <trkpt lat="49.86015" lon="2.12791">
        <ele>119.1</ele>
        <time>2022-03-23T13:06:29Z</time>
      </trkpt>
      <trkpt lat="49.86015" lon="2.12793">
        <ele>119.1</ele>
        <time>2022-03-23T13:06:30Z</time>
      </trkpt>
      <trkpt lat="49.86014" lon="2.12796">
        <ele>119.1</ele>
        <time>2022-03-23T13:06:31Z</time>
      </trkpt>
      <trkpt lat="49.86013" lon="2.12797">
        <ele>119.1</ele>
        <time>2022-03-23T13:06:32Z</time>
      </trkpt>
      <trkpt lat="49.86013" lon="2.12798">
        <ele>119.1</ele>
        <time>2022-03-23T13:06:33Z</time>
      </trkpt>
      <trkpt lat="49.86011" lon="2.128">
        <ele>119.1</ele>
        <time>2022-03-23T13:06:34Z</time>
      </trkpt>
      <trkpt lat="49.86011" lon="2.12801">
        <ele>119.1</ele>
        <time>2022-03-23T13:06:36Z</time>
      </trkpt>
      <trkpt lat="49.8601" lon="2.12802">
        <ele>119.1</ele>
        <time>2022-03-23T13:06:37Z</time>
      </trkpt>
      <trkpt lat="49.86009" lon="2.12804">
        <ele>119.1</ele>
        <time>2022-03-23T13:06:38Z</time>
      </trkpt>
      <trkpt lat="49.86008" lon="2.12805">
        <ele>119.1</ele>
        <time>2022-03-23T13:06:39Z</time>
      </trkpt>
      <trkpt lat="49.86008" lon="2.12806">
        <ele>119.1</ele>
        <time>2022-03-23T13:06:40Z</time>
      </trkpt>
      <trkpt lat="49.86007" lon="2.12808">
        <ele>119.1</ele>
        <time>2022-03-23T13:06:41Z</time>
      </trkpt>
      <trkpt lat="49.86006" lon="2.12809">
        <ele>119.1</ele>
        <time>2022-03-23T13:06:42Z</time>
      </trkpt>
      <trkpt lat="49.86005" lon="2.12811">
        <ele>119.1</ele>
        <time>2022-03-23T13:06:44Z</time>
      </trkpt>
      <trkpt lat="49.86004" lon="2.12813">
        <ele>119.1</ele>
        <time>2022-03-23T13:06:45Z</time>
      </trkpt>
      <trkpt lat="49.86003" lon="2.12814">
        <ele>119.1</ele>
        <time>2022-03-23T13:06:46Z</time>
      </trkpt>
      <trkpt lat="49.86003" lon="2.12816">
        <ele>119.1</ele>
        <time>2022-03-23T13:06:47Z</time>
      </trkpt>
      <trkpt lat="49.86002" lon="2.12818">
        <ele>119.1</ele>
        <time>2022-03-23T13:06:48Z</time>
      </trkpt>
      <trkpt lat="49.86001" lon="2.12819">
        <ele>119.1</ele>
        <time>2022-03-23T13:06:49Z</time>
      </trkpt>
      <trkpt lat="49.86001" lon="2.1282">
        <ele>119.1</ele>
        <time>2022-03-23T13:06:50Z</time>
      </trkpt>
      <trkpt lat="49.85999" lon="2.12823">
        <ele>119</ele>
        <time>2022-03-23T13:06:51Z</time>
      </trkpt>
      <trkpt lat="49.85999" lon="2.12824">
        <ele>119</ele>
        <time>2022-03-23T13:06:53Z</time>
      </trkpt>
      <trkpt lat="49.85998" lon="2.12825">
        <ele>119</ele>
        <time>2022-03-23T13:06:54Z</time>
      </trkpt>
      <trkpt lat="49.85997" lon="2.12828">
        <ele>119</ele>
        <time>2022-03-23T13:06:55Z</time>
      </trkpt>
      <trkpt lat="49.85997" lon="2.12829">
        <ele>119</ele>
        <time>2022-03-23T13:06:56Z</time>
      </trkpt>
      <trkpt lat="49.85996" lon="2.1283">
        <ele>119</ele>
        <time>2022-03-23T13:06:57Z</time>
      </trkpt>
      <trkpt lat="49.85995" lon="2.12834">
        <ele>119</ele>
        <time>2022-03-23T13:06:58Z</time>
      </trkpt>
      <trkpt lat="49.85995" lon="2.12835">
        <ele>119</ele>
        <time>2022-03-23T13:06:59Z</time>
      </trkpt>
      <trkpt lat="49.85995" lon="2.12836">
        <ele>119</ele>
        <time>2022-03-23T13:07:00Z</time>
      </trkpt>
      <trkpt lat="49.85994" lon="2.12838">
        <ele>119</ele>
        <time>2022-03-23T13:07:01Z</time>
      </trkpt>
      <trkpt lat="49.85994" lon="2.1284">
        <ele>119</ele>
        <time>2022-03-23T13:07:03Z</time>
      </trkpt>
      <trkpt lat="49.85993" lon="2.12841">
        <ele>119</ele>
        <time>2022-03-23T13:07:04Z</time>
      </trkpt>
      <trkpt lat="49.85992" lon="2.12843">
        <ele>119</ele>
        <time>2022-03-23T13:07:05Z</time>
      </trkpt>
      <trkpt lat="49.85991" lon="2.12845">
        <ele>119</ele>
        <time>2022-03-23T13:07:06Z</time>
      </trkpt>
      <trkpt lat="49.8599" lon="2.12847">
        <ele>119</ele>
        <time>2022-03-23T13:07:07Z</time>
      </trkpt>
      <trkpt lat="49.85989" lon="2.12849">
        <ele>118.9</ele>
        <time>2022-03-23T13:07:08Z</time>
      </trkpt>
      <trkpt lat="49.85989" lon="2.1285">
        <ele>118.9</ele>
        <time>2022-03-23T13:07:09Z</time>
      </trkpt>
      <trkpt lat="49.85988" lon="2.12852">
        <ele>118.9</ele>
        <time>2022-03-23T13:07:10Z</time>
      </trkpt>
      <trkpt lat="49.85987" lon="2.12853">
        <ele>118.9</ele>
        <time>2022-03-23T13:07:12Z</time>
      </trkpt>
      <trkpt lat="49.85986" lon="2.12855">
        <ele>118.9</ele>
        <time>2022-03-23T13:07:13Z</time>
      </trkpt>
      <trkpt lat="49.85985" lon="2.12857">
        <ele>118.9</ele>
        <time>2022-03-23T13:07:14Z</time>
      </trkpt>
      <trkpt lat="49.85985" lon="2.12858">
        <ele>118.9</ele>
        <time>2022-03-23T13:07:15Z</time>
      </trkpt>
      <trkpt lat="49.85984" lon="2.12859">
        <ele>118.9</ele>
        <time>2022-03-23T13:07:16Z</time>
      </trkpt>
      <trkpt lat="49.85983" lon="2.12862">
        <ele>118.9</ele>
        <time>2022-03-23T13:07:17Z</time>
      </trkpt>
      <trkpt lat="49.85982" lon="2.12863">
        <ele>118.8</ele>
        <time>2022-03-23T13:07:18Z</time>
      </trkpt>
      <trkpt lat="49.85981" lon="2.12864">
        <ele>118.8</ele>
        <time>2022-03-23T13:07:20Z</time>
      </trkpt>
      <trkpt lat="49.85981" lon="2.12865">
        <ele>118.8</ele>
        <time>2022-03-23T13:07:21Z</time>
      </trkpt>
      <trkpt lat="49.8598" lon="2.12866">
        <ele>118.8</ele>
        <time>2022-03-23T13:07:22Z</time>
      </trkpt>
      <trkpt lat="49.8598" lon="2.12867">
        <ele>118.8</ele>
        <time>2022-03-23T13:07:23Z</time>
      </trkpt>
      <trkpt lat="49.85979" lon="2.12869">
        <ele>118.8</ele>
        <time>2022-03-23T13:07:24Z</time>
      </trkpt>
      <trkpt lat="49.85978" lon="2.12871">
        <ele>118.8</ele>
        <time>2022-03-23T13:07:25Z</time>
      </trkpt>
      <trkpt lat="49.85977" lon="2.12872">
        <ele>118.8</ele>
        <time>2022-03-23T13:07:26Z</time>
      </trkpt>
      <trkpt lat="49.85976" lon="2.12873">
        <ele>118.8</ele>
        <time>2022-03-23T13:07:28Z</time>
      </trkpt>
      <trkpt lat="49.85976" lon="2.12875">
        <ele>118.8</ele>
        <time>2022-03-23T13:07:29Z</time>
      </trkpt>
      <trkpt lat="49.85975" lon="2.12876">
        <ele>118.8</ele>
        <time>2022-03-23T13:07:30Z</time>
      </trkpt>
      <trkpt lat="49.85974" lon="2.12876">
        <ele>118.8</ele>
        <time>2022-03-23T13:07:31Z</time>
      </trkpt>
      <trkpt lat="49.85973" lon="2.12877">
        <ele>118.8</ele>
        <time>2022-03-23T13:07:32Z</time>
      </trkpt>
      <trkpt lat="49.85971" lon="2.12879">
        <ele>118.7</ele>
        <time>2022-03-23T13:07:33Z</time>
      </trkpt>
      <trkpt lat="49.8597" lon="2.1288">
        <ele>118.7</ele>
        <time>2022-03-23T13:07:34Z</time>
      </trkpt>
      <trkpt lat="49.8597" lon="2.1288">
        <ele>118.7</ele>
        <time>2022-03-23T13:07:35Z</time>
      </trkpt>
      <trkpt lat="49.85969" lon="2.12881">
        <ele>118.7</ele>
        <time>2022-03-23T13:07:36Z</time>
      </trkpt>
      <trkpt lat="49.85967" lon="2.12882">
        <ele>118.7</ele>
        <time>2022-03-23T13:07:37Z</time>
      </trkpt>
      <trkpt lat="49.85966" lon="2.12883">
        <ele>118.7</ele>
        <time>2022-03-23T13:07:39Z</time>
      </trkpt>
      <trkpt lat="49.85965" lon="2.12885">
        <ele>118.7</ele>
        <time>2022-03-23T13:07:40Z</time>
      </trkpt>
      <trkpt lat="49.85965" lon="2.12887">
        <ele>118.7</ele>
        <time>2022-03-23T13:07:41Z</time>
      </trkpt>
      <trkpt lat="49.85964" lon="2.12889">
        <ele>118.7</ele>
        <time>2022-03-23T13:07:42Z</time>
      </trkpt>
      <trkpt lat="49.85963" lon="2.1289">
        <ele>118.7</ele>
        <time>2022-03-23T13:07:43Z</time>
      </trkpt>
      <trkpt lat="49.85962" lon="2.12892">
        <ele>118.7</ele>
        <time>2022-03-23T13:07:44Z</time>
      </trkpt>
      <trkpt lat="49.85962" lon="2.12894">
        <ele>118.7</ele>
        <time>2022-03-23T13:07:45Z</time>
      </trkpt>
      <trkpt lat="49.85961" lon="2.12895">
        <ele>118.7</ele>
        <time>2022-03-23T13:07:47Z</time>
      </trkpt>
      <trkpt lat="49.8596" lon="2.12897">
        <ele>118.6</ele>
        <time>2022-03-23T13:07:48Z</time>
      </trkpt>
      <trkpt lat="49.85959" lon="2.12898">
        <ele>118.6</ele>
        <time>2022-03-23T13:07:49Z</time>
      </trkpt>
      <trkpt lat="49.85958" lon="2.12899">
        <ele>118.6</ele>
        <time>2022-03-23T13:07:50Z</time>
      </trkpt>
      <trkpt lat="49.85958" lon="2.12901">
        <ele>118.6</ele>
        <time>2022-03-23T13:07:51Z</time>
      </trkpt>
      <trkpt lat="49.85957" lon="2.12903">
        <ele>118.6</ele>
        <time>2022-03-23T13:07:52Z</time>
      </trkpt>
      <trkpt lat="49.85955" lon="2.12905">
        <ele>118.6</ele>
        <time>2022-03-23T13:07:53Z</time>
      </trkpt>
      <trkpt lat="49.85955" lon="2.12906">
        <ele>118.6</ele>
        <time>2022-03-23T13:07:54Z</time>
      </trkpt>
      <trkpt lat="49.85954" lon="2.12907">
        <ele>118.6</ele>
        <time>2022-03-23T13:07:55Z</time>
      </trkpt>
      <trkpt lat="49.85953" lon="2.1291">
        <ele>118.6</ele>
        <time>2022-03-23T13:07:57Z</time>
      </trkpt>
      <trkpt lat="49.85952" lon="2.1291">
        <ele>118.6</ele>
        <time>2022-03-23T13:07:58Z</time>
      </trkpt>
      <trkpt lat="49.85952" lon="2.12911">
        <ele>118.6</ele>
        <time>2022-03-23T13:07:59Z</time>
      </trkpt>
      <trkpt lat="49.8595" lon="2.12913">
        <ele>118.5</ele>
        <time>2022-03-23T13:08:00Z</time>
      </trkpt>
      <trkpt lat="49.85949" lon="2.12914">
        <ele>118.5</ele>
        <time>2022-03-23T13:08:01Z</time>
      </trkpt>
      <trkpt lat="49.85949" lon="2.12915">
        <ele>118.5</ele>
        <time>2022-03-23T13:08:02Z</time>
      </trkpt>
      <trkpt lat="49.85947" lon="2.12918">
        <ele>118.5</ele>
        <time>2022-03-23T13:08:03Z</time>
      </trkpt>
      <trkpt lat="49.85947" lon="2.12919">
        <ele>118.5</ele>
        <time>2022-03-23T13:08:04Z</time>
      </trkpt>
      <trkpt lat="49.85946" lon="2.12919">
        <ele>118.5</ele>
        <time>2022-03-23T13:08:05Z</time>
      </trkpt>
      <trkpt lat="49.85945" lon="2.1292">
        <ele>118.5</ele>
        <time>2022-03-23T13:08:06Z</time>
      </trkpt>
      <trkpt lat="49.85944" lon="2.12922">
        <ele>118.4</ele>
        <time>2022-03-23T13:08:07Z</time>
      </trkpt>
      <trkpt lat="49.85944" lon="2.12923">
        <ele>118.3</ele>
        <time>2022-03-23T13:08:09Z</time>
      </trkpt>
      <trkpt lat="49.85943" lon="2.12925">
        <ele>118.3</ele>
        <time>2022-03-23T13:08:10Z</time>
      </trkpt>
      <trkpt lat="49.85942" lon="2.12927">
        <ele>118.3</ele>
        <time>2022-03-23T13:08:11Z</time>
      </trkpt>
      <trkpt lat="49.85941" lon="2.12929">
        <ele>118.2</ele>
        <time>2022-03-23T13:08:12Z</time>
      </trkpt>
      <trkpt lat="49.85941" lon="2.12931">
        <ele>118.2</ele>
        <time>2022-03-23T13:08:13Z</time>
      </trkpt>
      <trkpt lat="49.85939" lon="2.12934">
        <ele>118.1</ele>
        <time>2022-03-23T13:08:14Z</time>
      </trkpt>
      <trkpt lat="49.85939" lon="2.12935">
        <ele>118.1</ele>
        <time>2022-03-23T13:08:15Z</time>
      </trkpt>
      <trkpt lat="49.85939" lon="2.12936">
        <ele>118</ele>
        <time>2022-03-23T13:08:16Z</time>
      </trkpt>
      <trkpt lat="49.85938" lon="2.12939">
        <ele>118</ele>
        <time>2022-03-23T13:08:17Z</time>
      </trkpt>
      <trkpt lat="49.85937" lon="2.1294">
        <ele>117.9</ele>
        <time>2022-03-23T13:08:19Z</time>
      </trkpt>
      <trkpt lat="49.85937" lon="2.12941">
        <ele>117.9</ele>
        <time>2022-03-23T13:08:20Z</time>
      </trkpt>
      <trkpt lat="49.85937" lon="2.12943">
        <ele>117.9</ele>
        <time>2022-03-23T13:08:21Z</time>
      </trkpt>
      <trkpt lat="49.85936" lon="2.12945">
        <ele>117.9</ele>
        <time>2022-03-23T13:08:22Z</time>
      </trkpt>
      <trkpt lat="49.85936" lon="2.12946">
        <ele>117.8</ele>
        <time>2022-03-23T13:08:23Z</time>
      </trkpt>
      <trkpt lat="49.85935" lon="2.12949">
        <ele>117.8</ele>
        <time>2022-03-23T13:08:25Z</time>
      </trkpt>
      <trkpt lat="49.85934" lon="2.1295">
        <ele>117.7</ele>
        <time>2022-03-23T13:08:26Z</time>
      </trkpt>
      <trkpt lat="49.85934" lon="2.12951">
        <ele>117.7</ele>
        <time>2022-03-23T13:08:27Z</time>
      </trkpt>
      <trkpt lat="49.85933" lon="2.12954">
        <ele>117.7</ele>
        <time>2022-03-23T13:08:28Z</time>
      </trkpt>
      <trkpt lat="49.85933" lon="2.12955">
        <ele>117.7</ele>
        <time>2022-03-23T13:08:29Z</time>
      </trkpt>
      <trkpt lat="49.85932" lon="2.12956">
        <ele>117.6</ele>
        <time>2022-03-23T13:08:30Z</time>
      </trkpt>
      <trkpt lat="49.85932" lon="2.12958">
        <ele>117.6</ele>
        <time>2022-03-23T13:08:31Z</time>
      </trkpt>
      <trkpt lat="49.85931" lon="2.12959">
        <ele>117.6</ele>
        <time>2022-03-23T13:08:32Z</time>
      </trkpt>
      <trkpt lat="49.8593" lon="2.12961">
        <ele>117.6</ele>
        <time>2022-03-23T13:08:33Z</time>
      </trkpt>
      <trkpt lat="49.8593" lon="2.12962">
        <ele>117.5</ele>
        <time>2022-03-23T13:08:34Z</time>
      </trkpt>
      <trkpt lat="49.85929" lon="2.12964">
        <ele>117.5</ele>
        <time>2022-03-23T13:08:36Z</time>
      </trkpt>
      <trkpt lat="49.85929" lon="2.12966">
        <ele>117.5</ele>
        <time>2022-03-23T13:08:37Z</time>
      </trkpt>
      <trkpt lat="49.85929" lon="2.12967">
        <ele>117.5</ele>
        <time>2022-03-23T13:08:38Z</time>
      </trkpt>
      <trkpt lat="49.85928" lon="2.12969">
        <ele>117.5</ele>
        <time>2022-03-23T13:08:39Z</time>
      </trkpt>
      <trkpt lat="49.85928" lon="2.1297">
        <ele>117.4</ele>
        <time>2022-03-23T13:08:40Z</time>
      </trkpt>
      <trkpt lat="49.85927" lon="2.12973">
        <ele>117.4</ele>
        <time>2022-03-23T13:08:41Z</time>
      </trkpt>
      <trkpt lat="49.85927" lon="2.12975">
        <ele>117.4</ele>
        <time>2022-03-23T13:08:42Z</time>
      </trkpt>
      <trkpt lat="49.85927" lon="2.12976">
        <ele>117.4</ele>
        <time>2022-03-23T13:08:43Z</time>
      </trkpt>
      <trkpt lat="49.85926" lon="2.12978">
        <ele>117.4</ele>
        <time>2022-03-23T13:08:44Z</time>
      </trkpt>
      <trkpt lat="49.85926" lon="2.1298">
        <ele>117.4</ele>
        <time>2022-03-23T13:08:45Z</time>
      </trkpt>
      <trkpt lat="49.85925" lon="2.12982">
        <ele>117.3</ele>
        <time>2022-03-23T13:08:47Z</time>
      </trkpt>
      <trkpt lat="49.85924" lon="2.12985">
        <ele>117.3</ele>
        <time>2022-03-23T13:08:48Z</time>
      </trkpt>
      <trkpt lat="49.85924" lon="2.12986">
        <ele>117.3</ele>
        <time>2022-03-23T13:08:49Z</time>
      </trkpt>
      <trkpt lat="49.85923" lon="2.12987">
        <ele>117.3</ele>
        <time>2022-03-23T13:08:50Z</time>
      </trkpt>
      <trkpt lat="49.85923" lon="2.12989">
        <ele>117.3</ele>
        <time>2022-03-23T13:08:51Z</time>
      </trkpt>
      <trkpt lat="49.85922" lon="2.12991">
        <ele>117.3</ele>
        <time>2022-03-23T13:08:52Z</time>
      </trkpt>
      <trkpt lat="49.85922" lon="2.12993">
        <ele>117.3</ele>
        <time>2022-03-23T13:08:53Z</time>
      </trkpt>
      <trkpt lat="49.85922" lon="2.12995">
        <ele>117.3</ele>
        <time>2022-03-23T13:08:54Z</time>
      </trkpt>
      <trkpt lat="49.85921" lon="2.12997">
        <ele>117.2</ele>
        <time>2022-03-23T13:08:56Z</time>
      </trkpt>
      <trkpt lat="49.85921" lon="2.13">
        <ele>117.2</ele>
        <time>2022-03-23T13:08:57Z</time>
      </trkpt>
      <trkpt lat="49.85921" lon="2.13001">
        <ele>117.2</ele>
        <time>2022-03-23T13:08:58Z</time>
      </trkpt>
      <trkpt lat="49.85921" lon="2.13003">
        <ele>117.2</ele>
        <time>2022-03-23T13:08:59Z</time>
      </trkpt>
      <trkpt lat="49.8592" lon="2.13005">
        <ele>117.2</ele>
        <time>2022-03-23T13:09:00Z</time>
      </trkpt>
      <trkpt lat="49.8592" lon="2.13007">
        <ele>117.2</ele>
        <time>2022-03-23T13:09:01Z</time>
      </trkpt>
      <trkpt lat="49.85919" lon="2.1301">
        <ele>117.2</ele>
        <time>2022-03-23T13:09:03Z</time>
      </trkpt>
      <trkpt lat="49.85919" lon="2.13012">
        <ele>117.2</ele>
        <time>2022-03-23T13:09:04Z</time>
      </trkpt>
      <trkpt lat="49.85918" lon="2.13013">
        <ele>117.2</ele>
        <time>2022-03-23T13:09:05Z</time>
      </trkpt>
      <trkpt lat="49.85918" lon="2.13015">
        <ele>117.2</ele>
        <time>2022-03-23T13:09:06Z</time>
      </trkpt>
      <trkpt lat="49.85917" lon="2.13017">
        <ele>117.2</ele>
        <time>2022-03-23T13:09:07Z</time>
      </trkpt>
      <trkpt lat="49.85917" lon="2.13019">
        <ele>117.2</ele>
        <time>2022-03-23T13:09:08Z</time>
      </trkpt>
      <trkpt lat="49.85916" lon="2.13021">
        <ele>117.2</ele>
        <time>2022-03-23T13:09:09Z</time>
      </trkpt>
      <trkpt lat="49.85916" lon="2.13023">
        <ele>117.2</ele>
        <time>2022-03-23T13:09:10Z</time>
      </trkpt>
      <trkpt lat="49.85915" lon="2.13025">
        <ele>117.2</ele>
        <time>2022-03-23T13:09:11Z</time>
      </trkpt>
      <trkpt lat="49.85915" lon="2.13027">
        <ele>117.2</ele>
        <time>2022-03-23T13:09:13Z</time>
      </trkpt>
      <trkpt lat="49.85914" lon="2.13029">
        <ele>117.2</ele>
        <time>2022-03-23T13:09:14Z</time>
      </trkpt>
      <trkpt lat="49.85913" lon="2.13032">
        <ele>117.2</ele>
        <time>2022-03-23T13:09:15Z</time>
      </trkpt>
      <trkpt lat="49.85913" lon="2.13033">
        <ele>117.2</ele>
        <time>2022-03-23T13:09:16Z</time>
      </trkpt>
      <trkpt lat="49.85913" lon="2.13034">
        <ele>117.2</ele>
        <time>2022-03-23T13:09:17Z</time>
      </trkpt>
      <trkpt lat="49.85912" lon="2.13036">
        <ele>117.2</ele>
        <time>2022-03-23T13:09:18Z</time>
      </trkpt>
      <trkpt lat="49.85912" lon="2.13038">
        <ele>117.1</ele>
        <time>2022-03-23T13:09:19Z</time>
      </trkpt>
      <trkpt lat="49.85911" lon="2.1304">
        <ele>117.1</ele>
        <time>2022-03-23T13:09:20Z</time>
      </trkpt>
      <trkpt lat="49.8591" lon="2.13042">
        <ele>117.1</ele>
        <time>2022-03-23T13:09:21Z</time>
      </trkpt>
      <trkpt lat="49.85909" lon="2.13045">
        <ele>117.1</ele>
        <time>2022-03-23T13:09:22Z</time>
      </trkpt>
      <trkpt lat="49.85909" lon="2.13046">
        <ele>117.1</ele>
        <time>2022-03-23T13:09:24Z</time>
      </trkpt>
      <trkpt lat="49.85909" lon="2.13048">
        <ele>117.1</ele>
        <time>2022-03-23T13:09:25Z</time>
      </trkpt>
      <trkpt lat="49.85907" lon="2.1305">
        <ele>117.1</ele>
        <time>2022-03-23T13:09:26Z</time>
      </trkpt>
      <trkpt lat="49.85907" lon="2.13051">
        <ele>117.1</ele>
        <time>2022-03-23T13:09:27Z</time>
      </trkpt>
      <trkpt lat="49.85906" lon="2.13052">
        <ele>117.1</ele>
        <time>2022-03-23T13:09:28Z</time>
      </trkpt>
      <trkpt lat="49.85906" lon="2.13054">
        <ele>117.1</ele>
        <time>2022-03-23T13:09:29Z</time>
      </trkpt>
      <trkpt lat="49.85905" lon="2.13056">
        <ele>117.1</ele>
        <time>2022-03-23T13:09:30Z</time>
      </trkpt>
      <trkpt lat="49.85904" lon="2.13059">
        <ele>117.1</ele>
        <time>2022-03-23T13:09:31Z</time>
      </trkpt>
      <trkpt lat="49.85904" lon="2.1306">
        <ele>117.1</ele>
        <time>2022-03-23T13:09:33Z</time>
      </trkpt>
      <trkpt lat="49.85903" lon="2.13061">
        <ele>117.1</ele>
        <time>2022-03-23T13:09:34Z</time>
      </trkpt>
      <trkpt lat="49.85903" lon="2.13063">
        <ele>117.1</ele>
        <time>2022-03-23T13:09:35Z</time>
      </trkpt>
      <trkpt lat="49.85902" lon="2.13064">
        <ele>117.1</ele>
        <time>2022-03-23T13:09:36Z</time>
      </trkpt>
      <trkpt lat="49.85902" lon="2.13066">
        <ele>117.1</ele>
        <time>2022-03-23T13:09:37Z</time>
      </trkpt>
      <trkpt lat="49.85901" lon="2.13067">
        <ele>117.1</ele>
        <time>2022-03-23T13:09:38Z</time>
      </trkpt>
      <trkpt lat="49.859" lon="2.13069">
        <ele>117.1</ele>
        <time>2022-03-23T13:09:39Z</time>
      </trkpt>
      <trkpt lat="49.859" lon="2.1307">
        <ele>117.1</ele>
        <time>2022-03-23T13:09:40Z</time>
      </trkpt>
      <trkpt lat="49.85898" lon="2.13073">
        <ele>117.1</ele>
        <time>2022-03-23T13:09:42Z</time>
      </trkpt>
      <trkpt lat="49.85898" lon="2.13074">
        <ele>117.1</ele>
        <time>2022-03-23T13:09:43Z</time>
      </trkpt>
      <trkpt lat="49.85897" lon="2.13075">
        <ele>117.1</ele>
        <time>2022-03-23T13:09:44Z</time>
      </trkpt>
      <trkpt lat="49.85897" lon="2.13077">
        <ele>117.1</ele>
        <time>2022-03-23T13:09:45Z</time>
      </trkpt>
      <trkpt lat="49.85896" lon="2.13079">
        <ele>117.1</ele>
        <time>2022-03-23T13:09:46Z</time>
      </trkpt>
      <trkpt lat="49.85896" lon="2.13081">
        <ele>117.1</ele>
        <time>2022-03-23T13:09:47Z</time>
      </trkpt>
      <trkpt lat="49.85896" lon="2.13083">
        <ele>117.1</ele>
        <time>2022-03-23T13:09:49Z</time>
      </trkpt>
      <trkpt lat="49.85895" lon="2.13084">
        <ele>117.1</ele>
        <time>2022-03-23T13:09:50Z</time>
      </trkpt>
      <trkpt lat="49.85895" lon="2.13086">
        <ele>117.1</ele>
        <time>2022-03-23T13:09:51Z</time>
      </trkpt>
      <trkpt lat="49.85894" lon="2.13088">
        <ele>117.1</ele>
        <time>2022-03-23T13:09:52Z</time>
      </trkpt>
      <trkpt lat="49.85893" lon="2.13089">
        <ele>117.2</ele>
        <time>2022-03-23T13:09:53Z</time>
      </trkpt>
      <trkpt lat="49.85893" lon="2.13091">
        <ele>117.2</ele>
        <time>2022-03-23T13:09:54Z</time>
      </trkpt>
      <trkpt lat="49.85892" lon="2.13092">
        <ele>117.2</ele>
        <time>2022-03-23T13:09:55Z</time>
      </trkpt>
      <trkpt lat="49.85891" lon="2.13094">
        <ele>117.2</ele>
        <time>2022-03-23T13:09:57Z</time>
      </trkpt>
      <trkpt lat="49.85891" lon="2.13096">
        <ele>117.2</ele>
        <time>2022-03-23T13:09:58Z</time>
      </trkpt>
      <trkpt lat="49.8589" lon="2.13097">
        <ele>117.2</ele>
        <time>2022-03-23T13:09:59Z</time>
      </trkpt>
      <trkpt lat="49.85889" lon="2.13098">
        <ele>117.2</ele>
        <time>2022-03-23T13:10:00Z</time>
      </trkpt>
      <trkpt lat="49.85888" lon="2.131">
        <ele>117.2</ele>
        <time>2022-03-23T13:10:01Z</time>
      </trkpt>
      <trkpt lat="49.85887" lon="2.13101">
        <ele>117.2</ele>
        <time>2022-03-23T13:10:02Z</time>
      </trkpt>
      <trkpt lat="49.85886" lon="2.13102">
        <ele>117.2</ele>
        <time>2022-03-23T13:10:03Z</time>
      </trkpt>
      <trkpt lat="49.85886" lon="2.13104">
        <ele>117.2</ele>
        <time>2022-03-23T13:10:05Z</time>
      </trkpt>
      <trkpt lat="49.85885" lon="2.13106">
        <ele>117.3</ele>
        <time>2022-03-23T13:10:06Z</time>
      </trkpt>
      <trkpt lat="49.85884" lon="2.13108">
        <ele>117.3</ele>
        <time>2022-03-23T13:10:07Z</time>
      </trkpt>
      <trkpt lat="49.85884" lon="2.1311">
        <ele>117.3</ele>
        <time>2022-03-23T13:10:08Z</time>
      </trkpt>
      <trkpt lat="49.85883" lon="2.13112">
        <ele>117.3</ele>
        <time>2022-03-23T13:10:09Z</time>
      </trkpt>
      <trkpt lat="49.85883" lon="2.13114">
        <ele>117.3</ele>
        <time>2022-03-23T13:10:10Z</time>
      </trkpt>
      <trkpt lat="49.85882" lon="2.13116">
        <ele>117.3</ele>
        <time>2022-03-23T13:10:11Z</time>
      </trkpt>
      <trkpt lat="49.85882" lon="2.13118">
        <ele>117.3</ele>
        <time>2022-03-23T13:10:13Z</time>
      </trkpt>
      <trkpt lat="49.85881" lon="2.1312">
        <ele>117.3</ele>
        <time>2022-03-23T13:10:14Z</time>
      </trkpt>
      <trkpt lat="49.85881" lon="2.13122">
        <ele>117.3</ele>
        <time>2022-03-23T13:10:15Z</time>
      </trkpt>
      <trkpt lat="49.8588" lon="2.13124">
        <ele>117.3</ele>
        <time>2022-03-23T13:10:16Z</time>
      </trkpt>
      <trkpt lat="49.8588" lon="2.13126">
        <ele>117.3</ele>
        <time>2022-03-23T13:10:17Z</time>
      </trkpt>
      <trkpt lat="49.85879" lon="2.13128">
        <ele>117.3</ele>
        <time>2022-03-23T13:10:18Z</time>
      </trkpt>
      <trkpt lat="49.85879" lon="2.1313">
        <ele>117.3</ele>
        <time>2022-03-23T13:10:19Z</time>
      </trkpt>
      <trkpt lat="49.85879" lon="2.13133">
        <ele>117.3</ele>
        <time>2022-03-23T13:10:20Z</time>
      </trkpt>
      <trkpt lat="49.85879" lon="2.13135">
        <ele>117.3</ele>
        <time>2022-03-23T13:10:22Z</time>
      </trkpt>
      <trkpt lat="49.85879" lon="2.13136">
        <ele>117.3</ele>
        <time>2022-03-23T13:10:23Z</time>
      </trkpt>
      <trkpt lat="49.85878" lon="2.1314">
        <ele>117.4</ele>
        <time>2022-03-23T13:10:24Z</time>
      </trkpt>
      <trkpt lat="49.85878" lon="2.13141">
        <ele>117.4</ele>
        <time>2022-03-23T13:10:25Z</time>
      </trkpt>
      <trkpt lat="49.85878" lon="2.13142">
        <ele>117.4</ele>
        <time>2022-03-23T13:10:26Z</time>
      </trkpt>
      <trkpt lat="49.85877" lon="2.13144">
        <ele>117.4</ele>
        <time>2022-03-23T13:10:27Z</time>
      </trkpt>
      <trkpt lat="49.85877" lon="2.13146">
        <ele>117.4</ele>
        <time>2022-03-23T13:10:28Z</time>
      </trkpt>
      <trkpt lat="49.85876" lon="2.13148">
        <ele>117.4</ele>
        <time>2022-03-23T13:10:30Z</time>
      </trkpt>
      <trkpt lat="49.85876" lon="2.13151">
        <ele>117.4</ele>
        <time>2022-03-23T13:10:31Z</time>
      </trkpt>
      <trkpt lat="49.85875" lon="2.13152">
        <ele>117.4</ele>
        <time>2022-03-23T13:10:32Z</time>
      </trkpt>
      <trkpt lat="49.85875" lon="2.13154">
        <ele>117.4</ele>
        <time>2022-03-23T13:10:33Z</time>
      </trkpt>
      <trkpt lat="49.85875" lon="2.13156">
        <ele>117.4</ele>
        <time>2022-03-23T13:10:34Z</time>
      </trkpt>
      <trkpt lat="49.85874" lon="2.13158">
        <ele>117.4</ele>
        <time>2022-03-23T13:10:35Z</time>
      </trkpt>
      <trkpt lat="49.85874" lon="2.13159">
        <ele>117.5</ele>
        <time>2022-03-23T13:10:36Z</time>
      </trkpt>
      <trkpt lat="49.85874" lon="2.13161">
        <ele>117.5</ele>
        <time>2022-03-23T13:10:38Z</time>
      </trkpt>
      <trkpt lat="49.85874" lon="2.13163">
        <ele>117.5</ele>
        <time>2022-03-23T13:10:39Z</time>
      </trkpt>
      <trkpt lat="49.85873" lon="2.13165">
        <ele>117.5</ele>
        <time>2022-03-23T13:10:40Z</time>
      </trkpt>
      <trkpt lat="49.85873" lon="2.13167">
        <ele>117.5</ele>
        <time>2022-03-23T13:10:41Z</time>
      </trkpt>
      <trkpt lat="49.85872" lon="2.13168">
        <ele>117.5</ele>
        <time>2022-03-23T13:10:42Z</time>
      </trkpt>
      <trkpt lat="49.85872" lon="2.1317">
        <ele>117.5</ele>
        <time>2022-03-23T13:10:43Z</time>
      </trkpt>
      <trkpt lat="49.85871" lon="2.13172">
        <ele>117.6</ele>
        <time>2022-03-23T13:10:45Z</time>
      </trkpt>
      <trkpt lat="49.85871" lon="2.13173">
        <ele>117.6</ele>
        <time>2022-03-23T13:10:46Z</time>
      </trkpt>
      <trkpt lat="49.85871" lon="2.13174">
        <ele>117.6</ele>
        <time>2022-03-23T13:10:47Z</time>
      </trkpt>
      <trkpt lat="49.8587" lon="2.13176">
        <ele>117.6</ele>
        <time>2022-03-23T13:10:48Z</time>
      </trkpt>
      <trkpt lat="49.8587" lon="2.13177">
        <ele>117.6</ele>
        <time>2022-03-23T13:10:49Z</time>
      </trkpt>
      <trkpt lat="49.85869" lon="2.13178">
        <ele>117.6</ele>
        <time>2022-03-23T13:10:51Z</time>
      </trkpt>
      <trkpt lat="49.85869" lon="2.1318">
        <ele>117.6</ele>
        <time>2022-03-23T13:10:52Z</time>
      </trkpt>
      <trkpt lat="49.85868" lon="2.13181">
        <ele>117.6</ele>
        <time>2022-03-23T13:10:53Z</time>
      </trkpt>
      <trkpt lat="49.85867" lon="2.13184">
        <ele>117.7</ele>
        <time>2022-03-23T13:10:54Z</time>
      </trkpt>
      <trkpt lat="49.85867" lon="2.13186">
        <ele>117.7</ele>
        <time>2022-03-23T13:10:55Z</time>
      </trkpt>
      <trkpt lat="49.85867" lon="2.13187">
        <ele>117.7</ele>
        <time>2022-03-23T13:10:56Z</time>
      </trkpt>
      <trkpt lat="49.85866" lon="2.1319">
        <ele>117.7</ele>
        <time>2022-03-23T13:10:57Z</time>
      </trkpt>
      <trkpt lat="49.85865" lon="2.13191">
        <ele>117.7</ele>
        <time>2022-03-23T13:10:59Z</time>
      </trkpt>
      <trkpt lat="49.85865" lon="2.13192">
        <ele>117.7</ele>
        <time>2022-03-23T13:11:00Z</time>
      </trkpt>
      <trkpt lat="49.85864" lon="2.13195">
        <ele>117.8</ele>
        <time>2022-03-23T13:11:01Z</time>
      </trkpt>
      <trkpt lat="49.85864" lon="2.13196">
        <ele>117.8</ele>
        <time>2022-03-23T13:11:02Z</time>
      </trkpt>
      <trkpt lat="49.85864" lon="2.13198">
        <ele>117.8</ele>
        <time>2022-03-23T13:11:03Z</time>
      </trkpt>
      <trkpt lat="49.85863" lon="2.13201">
        <ele>117.8</ele>
        <time>2022-03-23T13:11:04Z</time>
      </trkpt>
      <trkpt lat="49.85862" lon="2.13202">
        <ele>117.8</ele>
        <time>2022-03-23T13:11:05Z</time>
      </trkpt>
      <trkpt lat="49.85862" lon="2.13204">
        <ele>117.8</ele>
        <time>2022-03-23T13:11:07Z</time>
      </trkpt>
      <trkpt lat="49.85862" lon="2.13205">
        <ele>117.9</ele>
        <time>2022-03-23T13:11:08Z</time>
      </trkpt>
      <trkpt lat="49.85861" lon="2.13207">
        <ele>117.9</ele>
        <time>2022-03-23T13:11:09Z</time>
      </trkpt>
      <trkpt lat="49.85861" lon="2.13208">
        <ele>117.9</ele>
        <time>2022-03-23T13:11:10Z</time>
      </trkpt>
      <trkpt lat="49.8586" lon="2.1321">
        <ele>117.9</ele>
        <time>2022-03-23T13:11:11Z</time>
      </trkpt>
      <trkpt lat="49.8586" lon="2.13212">
        <ele>117.9</ele>
        <time>2022-03-23T13:11:12Z</time>
      </trkpt>
      <trkpt lat="49.85859" lon="2.13215">
        <ele>118</ele>
        <time>2022-03-23T13:11:13Z</time>
      </trkpt>
      <trkpt lat="49.85858" lon="2.13216">
        <ele>118</ele>
        <time>2022-03-23T13:11:15Z</time>
      </trkpt>
      <trkpt lat="49.85858" lon="2.13218">
        <ele>118</ele>
        <time>2022-03-23T13:11:16Z</time>
      </trkpt>
      <trkpt lat="49.85857" lon="2.13221">
        <ele>118</ele>
        <time>2022-03-23T13:11:17Z</time>
      </trkpt>
      <trkpt lat="49.85856" lon="2.13222">
        <ele>118.1</ele>
        <time>2022-03-23T13:11:18Z</time>
      </trkpt>
      <trkpt lat="49.85856" lon="2.13223">
        <ele>118.1</ele>
        <time>2022-03-23T13:11:19Z</time>
      </trkpt>
      <trkpt lat="49.85855" lon="2.13225">
        <ele>118.1</ele>
        <time>2022-03-23T13:11:20Z</time>
      </trkpt>
      <trkpt lat="49.85854" lon="2.13226">
        <ele>118.1</ele>
        <time>2022-03-23T13:11:21Z</time>
      </trkpt>
      <trkpt lat="49.85854" lon="2.13228">
        <ele>118.2</ele>
        <time>2022-03-23T13:11:23Z</time>
      </trkpt>
      <trkpt lat="49.85853" lon="2.13229">
        <ele>118.2</ele>
        <time>2022-03-23T13:11:24Z</time>
      </trkpt>
      <trkpt lat="49.85853" lon="2.13231">
        <ele>118.2</ele>
        <time>2022-03-23T13:11:25Z</time>
      </trkpt>
      <trkpt lat="49.85852" lon="2.13233">
        <ele>118.2</ele>
        <time>2022-03-23T13:11:26Z</time>
      </trkpt>
      <trkpt lat="49.85851" lon="2.13236">
        <ele>118.3</ele>
        <time>2022-03-23T13:11:27Z</time>
      </trkpt>
      <trkpt lat="49.85851" lon="2.13237">
        <ele>118.3</ele>
        <time>2022-03-23T13:11:28Z</time>
      </trkpt>
      <trkpt lat="49.85851" lon="2.13238">
        <ele>118.3</ele>
        <time>2022-03-23T13:11:29Z</time>
      </trkpt>
      <trkpt lat="49.8585" lon="2.13241">
        <ele>118.4</ele>
        <time>2022-03-23T13:11:31Z</time>
      </trkpt>
      <trkpt lat="49.8585" lon="2.13243">
        <ele>118.4</ele>
        <time>2022-03-23T13:11:32Z</time>
      </trkpt>
      <trkpt lat="49.85849" lon="2.13244">
        <ele>118.4</ele>
        <time>2022-03-23T13:11:33Z</time>
      </trkpt>
      <trkpt lat="49.85848" lon="2.13247">
        <ele>118.4</ele>
        <time>2022-03-23T13:11:34Z</time>
      </trkpt>
      <trkpt lat="49.85848" lon="2.13248">
        <ele>118.5</ele>
        <time>2022-03-23T13:11:35Z</time>
      </trkpt>
      <trkpt lat="49.85848" lon="2.1325">
        <ele>118.5</ele>
        <time>2022-03-23T13:11:36Z</time>
      </trkpt>
      <trkpt lat="49.85847" lon="2.13253">
        <ele>118.5</ele>
        <time>2022-03-23T13:11:37Z</time>
      </trkpt>
      <trkpt lat="49.85847" lon="2.13254">
        <ele>118.6</ele>
        <time>2022-03-23T13:11:39Z</time>
      </trkpt>
      <trkpt lat="49.85846" lon="2.13255">
        <ele>118.6</ele>
        <time>2022-03-23T13:11:40Z</time>
      </trkpt>
      <trkpt lat="49.85846" lon="2.13259">
        <ele>118.6</ele>
        <time>2022-03-23T13:11:41Z</time>
      </trkpt>
      <trkpt lat="49.85846" lon="2.1326">
        <ele>118.6</ele>
        <time>2022-03-23T13:11:42Z</time>
      </trkpt>
      <trkpt lat="49.85846" lon="2.13261">
        <ele>118.7</ele>
        <time>2022-03-23T13:11:43Z</time>
      </trkpt>
      <trkpt lat="49.85845" lon="2.13263">
        <ele>118.7</ele>
        <time>2022-03-23T13:11:44Z</time>
      </trkpt>
      <trkpt lat="49.85845" lon="2.13266">
        <ele>118.7</ele>
        <time>2022-03-23T13:11:46Z</time>
      </trkpt>
      <trkpt lat="49.85845" lon="2.13268">
        <ele>118.8</ele>
        <time>2022-03-23T13:11:47Z</time>
      </trkpt>
      <trkpt lat="49.85845" lon="2.1327">
        <ele>118.8</ele>
        <time>2022-03-23T13:11:48Z</time>
      </trkpt>
      <trkpt lat="49.85845" lon="2.13274">
        <ele>118.8</ele>
        <time>2022-03-23T13:11:49Z</time>
      </trkpt>
      <trkpt lat="49.85845" lon="2.13275">
        <ele>118.9</ele>
        <time>2022-03-23T13:11:50Z</time>
      </trkpt>
      <trkpt lat="49.85845" lon="2.13276">
        <ele>118.9</ele>
        <time>2022-03-23T13:11:51Z</time>
      </trkpt>
      <trkpt lat="49.85845" lon="2.1328">
        <ele>118.9</ele>
        <time>2022-03-23T13:11:52Z</time>
      </trkpt>
      <trkpt lat="49.85845" lon="2.13281">
        <ele>119</ele>
        <time>2022-03-23T13:11:53Z</time>
      </trkpt>
      <trkpt lat="49.85845" lon="2.13283">
        <ele>119</ele>
        <time>2022-03-23T13:11:55Z</time>
      </trkpt>
      <trkpt lat="49.85844" lon="2.13285">
        <ele>119</ele>
        <time>2022-03-23T13:11:56Z</time>
      </trkpt>
      <trkpt lat="49.85844" lon="2.13286">
        <ele>119</ele>
        <time>2022-03-23T13:11:57Z</time>
      </trkpt>
      <trkpt lat="49.85844" lon="2.13288">
        <ele>119.1</ele>
        <time>2022-03-23T13:11:58Z</time>
      </trkpt>
      <trkpt lat="49.85844" lon="2.1329">
        <ele>119.1</ele>
        <time>2022-03-23T13:11:59Z</time>
      </trkpt>
      <trkpt lat="49.85844" lon="2.13292">
        <ele>119.1</ele>
        <time>2022-03-23T13:12:00Z</time>
      </trkpt>
      <trkpt lat="49.85844" lon="2.13295">
        <ele>119.2</ele>
        <time>2022-03-23T13:12:01Z</time>
      </trkpt>
      <trkpt lat="49.85844" lon="2.13297">
        <ele>119.2</ele>
        <time>2022-03-23T13:12:03Z</time>
      </trkpt>
      <trkpt lat="49.85844" lon="2.13298">
        <ele>119.2</ele>
        <time>2022-03-23T13:12:04Z</time>
      </trkpt>
      <trkpt lat="49.85844" lon="2.133">
        <ele>119.3</ele>
        <time>2022-03-23T13:12:05Z</time>
      </trkpt>
      <trkpt lat="49.85844" lon="2.13302">
        <ele>119.3</ele>
        <time>2022-03-23T13:12:06Z</time>
      </trkpt>
      <trkpt lat="49.85843" lon="2.13305">
        <ele>119.3</ele>
        <time>2022-03-23T13:12:07Z</time>
      </trkpt>
      <trkpt lat="49.85843" lon="2.13307">
        <ele>119.3</ele>
        <time>2022-03-23T13:12:08Z</time>
      </trkpt>
      <trkpt lat="49.85843" lon="2.13309">
        <ele>119.4</ele>
        <time>2022-03-23T13:12:10Z</time>
      </trkpt>
      <trkpt lat="49.85843" lon="2.13312">
        <ele>119.4</ele>
        <time>2022-03-23T13:12:11Z</time>
      </trkpt>
      <trkpt lat="49.85843" lon="2.13313">
        <ele>119.4</ele>
        <time>2022-03-23T13:12:12Z</time>
      </trkpt>
      <trkpt lat="49.85843" lon="2.13315">
        <ele>119.5</ele>
        <time>2022-03-23T13:12:13Z</time>
      </trkpt>
      <trkpt lat="49.85843" lon="2.13318">
        <ele>119.5</ele>
        <time>2022-03-23T13:12:14Z</time>
      </trkpt>
      <trkpt lat="49.85843" lon="2.13319">
        <ele>119.5</ele>
        <time>2022-03-23T13:12:15Z</time>
      </trkpt>
      <trkpt lat="49.85843" lon="2.1332">
        <ele>119.5</ele>
        <time>2022-03-23T13:12:16Z</time>
      </trkpt>
      <trkpt lat="49.85843" lon="2.13322">
        <ele>119.6</ele>
        <time>2022-03-23T13:12:18Z</time>
      </trkpt>
      <trkpt lat="49.85842" lon="2.13324">
        <ele>119.6</ele>
        <time>2022-03-23T13:12:19Z</time>
      </trkpt>
      <trkpt lat="49.85842" lon="2.13326">
        <ele>119.6</ele>
        <time>2022-03-23T13:12:20Z</time>
      </trkpt>
      <trkpt lat="49.85842" lon="2.13328">
        <ele>119.6</ele>
        <time>2022-03-23T13:12:21Z</time>
      </trkpt>
      <trkpt lat="49.85842" lon="2.1333">
        <ele>119.7</ele>
        <time>2022-03-23T13:12:22Z</time>
      </trkpt>
      <trkpt lat="49.85842" lon="2.13332">
        <ele>119.7</ele>
        <time>2022-03-23T13:12:24Z</time>
      </trkpt>
      <trkpt lat="49.85841" lon="2.13335">
        <ele>119.7</ele>
        <time>2022-03-23T13:12:25Z</time>
      </trkpt>
      <trkpt lat="49.85841" lon="2.13336">
        <ele>119.7</ele>
        <time>2022-03-23T13:12:26Z</time>
      </trkpt>
      <trkpt lat="49.85841" lon="2.13337">
        <ele>119.7</ele>
        <time>2022-03-23T13:12:27Z</time>
      </trkpt>
      <trkpt lat="49.8584" lon="2.13341">
        <ele>119.8</ele>
        <time>2022-03-23T13:12:28Z</time>
      </trkpt>
      <trkpt lat="49.8584" lon="2.13342">
        <ele>119.8</ele>
        <time>2022-03-23T13:12:29Z</time>
      </trkpt>
      <trkpt lat="49.8584" lon="2.13343">
        <ele>119.8</ele>
        <time>2022-03-23T13:12:30Z</time>
      </trkpt>
      <trkpt lat="49.8584" lon="2.13345">
        <ele>119.8</ele>
        <time>2022-03-23T13:12:32Z</time>
      </trkpt>
      <trkpt lat="49.85839" lon="2.13346">
        <ele>119.8</ele>
        <time>2022-03-23T13:12:33Z</time>
      </trkpt>
      <trkpt lat="49.85838" lon="2.13348">
        <ele>119.9</ele>
        <time>2022-03-23T13:12:34Z</time>
      </trkpt>
      <trkpt lat="49.85837" lon="2.13351">
        <ele>119.9</ele>
        <time>2022-03-23T13:12:35Z</time>
      </trkpt>
      <trkpt lat="49.85837" lon="2.13352">
        <ele>119.9</ele>
        <time>2022-03-23T13:12:36Z</time>
      </trkpt>
      <trkpt lat="49.85837" lon="2.13353">
        <ele>119.9</ele>
        <time>2022-03-23T13:12:37Z</time>
      </trkpt>
      <trkpt lat="49.85836" lon="2.13357">
        <ele>119.9</ele>
        <time>2022-03-23T13:12:38Z</time>
      </trkpt>
      <trkpt lat="49.85836" lon="2.13358">
        <ele>120</ele>
        <time>2022-03-23T13:12:40Z</time>
      </trkpt>
      <trkpt lat="49.85836" lon="2.13359">
        <ele>120</ele>
        <time>2022-03-23T13:12:41Z</time>
      </trkpt>
      <trkpt lat="49.85836" lon="2.13361">
        <ele>120</ele>
        <time>2022-03-23T13:12:42Z</time>
      </trkpt>
      <trkpt lat="49.85836" lon="2.13363">
        <ele>120</ele>
        <time>2022-03-23T13:12:43Z</time>
      </trkpt>
      <trkpt lat="49.85836" lon="2.13366">
        <ele>120</ele>
        <time>2022-03-23T13:12:44Z</time>
      </trkpt>
      <trkpt lat="49.85835" lon="2.13368">
        <ele>120</ele>
        <time>2022-03-23T13:12:45Z</time>
      </trkpt>
      <trkpt lat="49.85835" lon="2.1337">
        <ele>120.1</ele>
        <time>2022-03-23T13:12:46Z</time>
      </trkpt>
      <trkpt lat="49.85835" lon="2.13372">
        <ele>120.1</ele>
        <time>2022-03-23T13:12:47Z</time>
      </trkpt>
      <trkpt lat="49.85834" lon="2.13374">
        <ele>120.1</ele>
        <time>2022-03-23T13:12:49Z</time>
      </trkpt>
      <trkpt lat="49.85834" lon="2.13376">
        <ele>120.1</ele>
        <time>2022-03-23T13:12:50Z</time>
      </trkpt>
      <trkpt lat="49.85834" lon="2.13378">
        <ele>120.1</ele>
        <time>2022-03-23T13:12:51Z</time>
      </trkpt>
      <trkpt lat="49.85833" lon="2.1338">
        <ele>120.2</ele>
        <time>2022-03-23T13:12:52Z</time>
      </trkpt>
      <trkpt lat="49.85833" lon="2.13382">
        <ele>120.2</ele>
        <time>2022-03-23T13:12:53Z</time>
      </trkpt>
      <trkpt lat="49.85833" lon="2.13384">
        <ele>120.2</ele>
        <time>2022-03-23T13:12:54Z</time>
      </trkpt>
      <trkpt lat="49.85832" lon="2.13386">
        <ele>120.2</ele>
        <time>2022-03-23T13:12:55Z</time>
      </trkpt>
      <trkpt lat="49.85832" lon="2.13388">
        <ele>120.2</ele>
        <time>2022-03-23T13:12:57Z</time>
      </trkpt>
      <trkpt lat="49.85832" lon="2.1339">
        <ele>120.2</ele>
        <time>2022-03-23T13:12:58Z</time>
      </trkpt>
      <trkpt lat="49.85832" lon="2.13391">
        <ele>120.2</ele>
        <time>2022-03-23T13:12:59Z</time>
      </trkpt>
      <trkpt lat="49.85831" lon="2.13393">
        <ele>120.3</ele>
        <time>2022-03-23T13:13:00Z</time>
      </trkpt>
      <trkpt lat="49.85831" lon="2.13395">
        <ele>120.3</ele>
        <time>2022-03-23T13:13:01Z</time>
      </trkpt>
      <trkpt lat="49.85831" lon="2.13397">
        <ele>120.3</ele>
        <time>2022-03-23T13:13:02Z</time>
      </trkpt>
      <trkpt lat="49.8583" lon="2.13401">
        <ele>120.3</ele>
        <time>2022-03-23T13:13:03Z</time>
      </trkpt>
      <trkpt lat="49.8583" lon="2.13402">
        <ele>120.4</ele>
        <time>2022-03-23T13:13:05Z</time>
      </trkpt>
      <trkpt lat="49.8583" lon="2.13403">
        <ele>120.4</ele>
        <time>2022-03-23T13:13:06Z</time>
      </trkpt>
      <trkpt lat="49.85829" lon="2.13407">
        <ele>120.4</ele>
        <time>2022-03-23T13:13:07Z</time>
      </trkpt>
      <trkpt lat="49.85829" lon="2.13408">
        <ele>120.4</ele>
        <time>2022-03-23T13:13:08Z</time>
      </trkpt>
      <trkpt lat="49.85829" lon="2.13409">
        <ele>120.4</ele>
        <time>2022-03-23T13:13:09Z</time>
      </trkpt>
      <trkpt lat="49.85828" lon="2.13411">
        <ele>120.4</ele>
        <time>2022-03-23T13:13:10Z</time>
      </trkpt>
      <trkpt lat="49.85828" lon="2.13413">
        <ele>120.5</ele>
        <time>2022-03-23T13:13:11Z</time>
      </trkpt>
      <trkpt lat="49.85828" lon="2.13416">
        <ele>120.5</ele>
        <time>2022-03-23T13:13:12Z</time>
      </trkpt>
      <trkpt lat="49.85828" lon="2.13418">
        <ele>120.5</ele>
        <time>2022-03-23T13:13:14Z</time>
      </trkpt>
      <trkpt lat="49.85827" lon="2.13419">
        <ele>120.5</ele>
        <time>2022-03-23T13:13:15Z</time>
      </trkpt>
      <trkpt lat="49.85827" lon="2.13422">
        <ele>120.6</ele>
        <time>2022-03-23T13:13:16Z</time>
      </trkpt>
      <trkpt lat="49.85826" lon="2.13424">
        <ele>120.6</ele>
        <time>2022-03-23T13:13:17Z</time>
      </trkpt>
      <trkpt lat="49.85826" lon="2.13425">
        <ele>120.6</ele>
        <time>2022-03-23T13:13:18Z</time>
      </trkpt>
      <trkpt lat="49.85826" lon="2.13428">
        <ele>120.6</ele>
        <time>2022-03-23T13:13:19Z</time>
      </trkpt>
      <trkpt lat="49.85825" lon="2.13429">
        <ele>120.7</ele>
        <time>2022-03-23T13:13:20Z</time>
      </trkpt>
      <trkpt lat="49.85825" lon="2.13431">
        <ele>120.7</ele>
        <time>2022-03-23T13:13:21Z</time>
      </trkpt>
      <trkpt lat="49.85825" lon="2.13434">
        <ele>120.7</ele>
        <time>2022-03-23T13:13:22Z</time>
      </trkpt>
      <trkpt lat="49.85825" lon="2.13435">
        <ele>120.7</ele>
        <time>2022-03-23T13:13:24Z</time>
      </trkpt>
      <trkpt lat="49.85824" lon="2.13436">
        <ele>120.8</ele>
        <time>2022-03-23T13:13:25Z</time>
      </trkpt>
      <trkpt lat="49.85824" lon="2.13439">
        <ele>120.8</ele>
        <time>2022-03-23T13:13:26Z</time>
      </trkpt>
      <trkpt lat="49.85824" lon="2.13441">
        <ele>120.8</ele>
        <time>2022-03-23T13:13:27Z</time>
      </trkpt>
      <trkpt lat="49.85824" lon="2.13442">
        <ele>120.8</ele>
        <time>2022-03-23T13:13:28Z</time>
      </trkpt>
      <trkpt lat="49.85823" lon="2.13445">
        <ele>120.9</ele>
        <time>2022-03-23T13:13:29Z</time>
      </trkpt>
      <trkpt lat="49.85823" lon="2.13446">
        <ele>120.9</ele>
        <time>2022-03-23T13:13:30Z</time>
      </trkpt>
      <trkpt lat="49.85823" lon="2.13448">
        <ele>120.9</ele>
        <time>2022-03-23T13:13:31Z</time>
      </trkpt>
      <trkpt lat="49.85823" lon="2.13451">
        <ele>121</ele>
        <time>2022-03-23T13:13:32Z</time>
      </trkpt>
      <trkpt lat="49.85822" lon="2.13453">
        <ele>121</ele>
        <time>2022-03-23T13:13:34Z</time>
      </trkpt>
      <trkpt lat="49.85822" lon="2.13455">
        <ele>121</ele>
        <time>2022-03-23T13:13:35Z</time>
      </trkpt>
      <trkpt lat="49.85822" lon="2.13456">
        <ele>121</ele>
        <time>2022-03-23T13:13:36Z</time>
      </trkpt>
      <trkpt lat="49.85822" lon="2.13458">
        <ele>121</ele>
        <time>2022-03-23T13:13:37Z</time>
      </trkpt>
      <trkpt lat="49.85821" lon="2.13461">
        <ele>121.1</ele>
        <time>2022-03-23T13:13:38Z</time>
      </trkpt>
      <trkpt lat="49.85821" lon="2.13462">
        <ele>121.1</ele>
        <time>2022-03-23T13:13:39Z</time>
      </trkpt>
      <trkpt lat="49.85821" lon="2.13464">
        <ele>121.1</ele>
        <time>2022-03-23T13:13:40Z</time>
      </trkpt>
      <trkpt lat="49.8582" lon="2.13467">
        <ele>121.1</ele>
        <time>2022-03-23T13:13:41Z</time>
      </trkpt>
      <trkpt lat="49.8582" lon="2.13468">
        <ele>121.1</ele>
        <time>2022-03-23T13:13:43Z</time>
      </trkpt>
      <trkpt lat="49.8582" lon="2.1347">
        <ele>121.1</ele>
        <time>2022-03-23T13:13:44Z</time>
      </trkpt>
      <trkpt lat="49.8582" lon="2.13473">
        <ele>121.2</ele>
        <time>2022-03-23T13:13:45Z</time>
      </trkpt>
      <trkpt lat="49.85819" lon="2.13474">
        <ele>121.2</ele>
        <time>2022-03-23T13:13:46Z</time>
      </trkpt>
      <trkpt lat="49.85819" lon="2.13475">
        <ele>121.2</ele>
        <time>2022-03-23T13:13:47Z</time>
      </trkpt>
      <trkpt lat="49.85819" lon="2.13477">
        <ele>121.2</ele>
        <time>2022-03-23T13:13:48Z</time>
      </trkpt>
      <trkpt lat="49.85819" lon="2.13479">
        <ele>121.2</ele>
        <time>2022-03-23T13:13:49Z</time>
      </trkpt>
      <trkpt lat="49.85819" lon="2.1348">
        <ele>121.2</ele>
        <time>2022-03-23T13:13:50Z</time>
      </trkpt>
      <trkpt lat="49.85819" lon="2.13483">
        <ele>121.2</ele>
        <time>2022-03-23T13:13:52Z</time>
      </trkpt>
      <trkpt lat="49.85819" lon="2.13485">
        <ele>121.2</ele>
        <time>2022-03-23T13:13:53Z</time>
      </trkpt>
      <trkpt lat="49.85819" lon="2.13486">
        <ele>121.2</ele>
        <time>2022-03-23T13:13:54Z</time>
      </trkpt>
      <trkpt lat="49.85819" lon="2.13488">
        <ele>121.2</ele>
        <time>2022-03-23T13:13:55Z</time>
      </trkpt>
      <trkpt lat="49.85818" lon="2.1349">
        <ele>121.3</ele>
        <time>2022-03-23T13:13:56Z</time>
      </trkpt>
      <trkpt lat="49.85818" lon="2.13494">
        <ele>121.3</ele>
        <time>2022-03-23T13:13:57Z</time>
      </trkpt>
      <trkpt lat="49.85818" lon="2.13495">
        <ele>121.3</ele>
        <time>2022-03-23T13:13:58Z</time>
      </trkpt>
      <trkpt lat="49.85818" lon="2.13497">
        <ele>121.3</ele>
        <time>2022-03-23T13:14:00Z</time>
      </trkpt>
      <trkpt lat="49.85818" lon="2.13498">
        <ele>121.3</ele>
        <time>2022-03-23T13:14:01Z</time>
      </trkpt>
      <trkpt lat="49.85818" lon="2.135">
        <ele>121.3</ele>
        <time>2022-03-23T13:14:02Z</time>
      </trkpt>
      <trkpt lat="49.85818" lon="2.13502">
        <ele>121.3</ele>
        <time>2022-03-23T13:14:03Z</time>
      </trkpt>
      <trkpt lat="49.85817" lon="2.13505">
        <ele>121.3</ele>
        <time>2022-03-23T13:14:04Z</time>
      </trkpt>
      <trkpt lat="49.85817" lon="2.13506">
        <ele>121.3</ele>
        <time>2022-03-23T13:14:05Z</time>
      </trkpt>
      <trkpt lat="49.85817" lon="2.13507">
        <ele>121.3</ele>
        <time>2022-03-23T13:14:06Z</time>
      </trkpt>
      <trkpt lat="49.85817" lon="2.13509">
        <ele>121.3</ele>
        <time>2022-03-23T13:14:08Z</time>
      </trkpt>
      <trkpt lat="49.85816" lon="2.13511">
        <ele>121.4</ele>
        <time>2022-03-23T13:14:09Z</time>
      </trkpt>
      <trkpt lat="49.85816" lon="2.13515">
        <ele>121.4</ele>
        <time>2022-03-23T13:14:10Z</time>
      </trkpt>
      <trkpt lat="49.85816" lon="2.13516">
        <ele>121.4</ele>
        <time>2022-03-23T13:14:11Z</time>
      </trkpt>
      <trkpt lat="49.85816" lon="2.13517">
        <ele>121.4</ele>
        <time>2022-03-23T13:14:12Z</time>
      </trkpt>
      <trkpt lat="49.85815" lon="2.1352">
        <ele>121.4</ele>
        <time>2022-03-23T13:14:13Z</time>
      </trkpt>
      <trkpt lat="49.85815" lon="2.13522">
        <ele>121.4</ele>
        <time>2022-03-23T13:14:14Z</time>
      </trkpt>
      <trkpt lat="49.85815" lon="2.13523">
        <ele>121.4</ele>
        <time>2022-03-23T13:14:15Z</time>
      </trkpt>
      <trkpt lat="49.85814" lon="2.13526">
        <ele>121.4</ele>
        <time>2022-03-23T13:14:17Z</time>
      </trkpt>
      <trkpt lat="49.85814" lon="2.13528">
        <ele>121.5</ele>
        <time>2022-03-23T13:14:18Z</time>
      </trkpt>
      <trkpt lat="49.85814" lon="2.13529">
        <ele>121.5</ele>
        <time>2022-03-23T13:14:19Z</time>
      </trkpt>
      <trkpt lat="49.85814" lon="2.13531">
        <ele>121.5</ele>
        <time>2022-03-23T13:14:20Z</time>
      </trkpt>
      <trkpt lat="49.85813" lon="2.13533">
        <ele>121.5</ele>
        <time>2022-03-23T13:14:21Z</time>
      </trkpt>
      <trkpt lat="49.85813" lon="2.13536">
        <ele>121.5</ele>
        <time>2022-03-23T13:14:22Z</time>
      </trkpt>
      <trkpt lat="49.85813" lon="2.13538">
        <ele>121.5</ele>
        <time>2022-03-23T13:14:23Z</time>
      </trkpt>
      <trkpt lat="49.85812" lon="2.13539">
        <ele>121.5</ele>
        <time>2022-03-23T13:14:24Z</time>
      </trkpt>
      <trkpt lat="49.85812" lon="2.13541">
        <ele>121.5</ele>
        <time>2022-03-23T13:14:26Z</time>
      </trkpt>
      <trkpt lat="49.85812" lon="2.13543">
        <ele>121.5</ele>
        <time>2022-03-23T13:14:27Z</time>
      </trkpt>
      <trkpt lat="49.85812" lon="2.13546">
        <ele>121.6</ele>
        <time>2022-03-23T13:14:28Z</time>
      </trkpt>
      <trkpt lat="49.85812" lon="2.13548">
        <ele>121.6</ele>
        <time>2022-03-23T13:14:29Z</time>
      </trkpt>
      <trkpt lat="49.85812" lon="2.1355">
        <ele>121.6</ele>
        <time>2022-03-23T13:14:30Z</time>
      </trkpt>
      <trkpt lat="49.85813" lon="2.13552">
        <ele>121.6</ele>
        <time>2022-03-23T13:14:31Z</time>
      </trkpt>
      <trkpt lat="49.85813" lon="2.13555">
        <ele>121.6</ele>
        <time>2022-03-23T13:14:32Z</time>
      </trkpt>
      <trkpt lat="49.85813" lon="2.13557">
        <ele>121.6</ele>
        <time>2022-03-23T13:14:34Z</time>
      </trkpt>
      <trkpt lat="49.85813" lon="2.13558">
        <ele>121.6</ele>
        <time>2022-03-23T13:14:35Z</time>
      </trkpt>
      <trkpt lat="49.85812" lon="2.13562">
        <ele>121.6</ele>
        <time>2022-03-23T13:14:36Z</time>
      </trkpt>
      <trkpt lat="49.85812" lon="2.13563">
        <ele>121.6</ele>
        <time>2022-03-23T13:14:37Z</time>
      </trkpt>
      <trkpt lat="49.85812" lon="2.13564">
        <ele>121.6</ele>
        <time>2022-03-23T13:14:38Z</time>
      </trkpt>
      <trkpt lat="49.85811" lon="2.13567">
        <ele>121.7</ele>
        <time>2022-03-23T13:14:39Z</time>
      </trkpt>
      <trkpt lat="49.85811" lon="2.13568">
        <ele>121.7</ele>
        <time>2022-03-23T13:14:40Z</time>
      </trkpt>
      <trkpt lat="49.85811" lon="2.1357">
        <ele>121.7</ele>
        <time>2022-03-23T13:14:41Z</time>
      </trkpt>
      <trkpt lat="49.8581" lon="2.13573">
        <ele>121.7</ele>
        <time>2022-03-23T13:14:42Z</time>
      </trkpt>
      <trkpt lat="49.8581" lon="2.13574">
        <ele>121.7</ele>
        <time>2022-03-23T13:14:44Z</time>
      </trkpt>
      <trkpt lat="49.85809" lon="2.13576">
        <ele>121.7</ele>
        <time>2022-03-23T13:14:45Z</time>
      </trkpt>
      <trkpt lat="49.85809" lon="2.13578">
        <ele>121.7</ele>
        <time>2022-03-23T13:14:46Z</time>
      </trkpt>
      <trkpt lat="49.85809" lon="2.1358">
        <ele>121.7</ele>
        <time>2022-03-23T13:14:47Z</time>
      </trkpt>
      <trkpt lat="49.85809" lon="2.13582">
        <ele>121.7</ele>
        <time>2022-03-23T13:14:48Z</time>
      </trkpt>
      <trkpt lat="49.85809" lon="2.13584">
        <ele>121.7</ele>
        <time>2022-03-23T13:14:49Z</time>
      </trkpt>
      <trkpt lat="49.85808" lon="2.13586">
        <ele>121.7</ele>
        <time>2022-03-23T13:14:50Z</time>
      </trkpt>
      <trkpt lat="49.85808" lon="2.13588">
        <ele>121.7</ele>
        <time>2022-03-23T13:14:51Z</time>
      </trkpt>
      <trkpt lat="49.85808" lon="2.1359">
        <ele>121.8</ele>
        <time>2022-03-23T13:14:53Z</time>
      </trkpt>
      <trkpt lat="49.85807" lon="2.13592">
        <ele>121.8</ele>
        <time>2022-03-23T13:14:54Z</time>
      </trkpt>
      <trkpt lat="49.85807" lon="2.13594">
        <ele>121.8</ele>
        <time>2022-03-23T13:14:55Z</time>
      </trkpt>
      <trkpt lat="49.85807" lon="2.13596">
        <ele>121.8</ele>
        <time>2022-03-23T13:14:56Z</time>
      </trkpt>
      <trkpt lat="49.85806" lon="2.13598">
        <ele>121.8</ele>
        <time>2022-03-23T13:14:57Z</time>
      </trkpt>
      <trkpt lat="49.85806" lon="2.136">
        <ele>121.8</ele>
        <time>2022-03-23T13:14:58Z</time>
      </trkpt>
      <trkpt lat="49.85805" lon="2.13602">
        <ele>121.9</ele>
        <time>2022-03-23T13:14:59Z</time>
      </trkpt>
      <trkpt lat="49.85804" lon="2.13606">
        <ele>121.9</ele>
        <time>2022-03-23T13:15:00Z</time>
      </trkpt>
      <trkpt lat="49.85804" lon="2.13607">
        <ele>121.9</ele>
        <time>2022-03-23T13:15:01Z</time>
      </trkpt>
      <trkpt lat="49.85804" lon="2.13608">
        <ele>121.9</ele>
        <time>2022-03-23T13:15:02Z</time>
      </trkpt>
      <trkpt lat="49.85803" lon="2.1361">
        <ele>121.9</ele>
        <time>2022-03-23T13:15:04Z</time>
      </trkpt>
      <trkpt lat="49.85803" lon="2.13612">
        <ele>121.9</ele>
        <time>2022-03-23T13:15:05Z</time>
      </trkpt>
      <trkpt lat="49.85802" lon="2.13615">
        <ele>122</ele>
        <time>2022-03-23T13:15:06Z</time>
      </trkpt>
      <trkpt lat="49.85802" lon="2.13616">
        <ele>122</ele>
        <time>2022-03-23T13:15:07Z</time>
      </trkpt>
      <trkpt lat="49.85802" lon="2.13617">
        <ele>122</ele>
        <time>2022-03-23T13:15:08Z</time>
      </trkpt>
      <trkpt lat="49.85801" lon="2.13619">
        <ele>122</ele>
        <time>2022-03-23T13:15:09Z</time>
      </trkpt>
      <trkpt lat="49.85801" lon="2.13621">
        <ele>122</ele>
        <time>2022-03-23T13:15:10Z</time>
      </trkpt>
      <trkpt lat="49.85801" lon="2.13622">
        <ele>122</ele>
        <time>2022-03-23T13:15:11Z</time>
      </trkpt>
      <trkpt lat="49.858" lon="2.13625">
        <ele>122</ele>
        <time>2022-03-23T13:15:12Z</time>
      </trkpt>
      <trkpt lat="49.858" lon="2.13626">
        <ele>122</ele>
        <time>2022-03-23T13:15:14Z</time>
      </trkpt>
      <trkpt lat="49.858" lon="2.13628">
        <ele>122.1</ele>
        <time>2022-03-23T13:15:15Z</time>
      </trkpt>
      <trkpt lat="49.85799" lon="2.13631">
        <ele>122.1</ele>
        <time>2022-03-23T13:15:16Z</time>
      </trkpt>
      <trkpt lat="49.85798" lon="2.13632">
        <ele>122.1</ele>
        <time>2022-03-23T13:15:17Z</time>
      </trkpt>
      <trkpt lat="49.85798" lon="2.13633">
        <ele>122.1</ele>
        <time>2022-03-23T13:15:18Z</time>
      </trkpt>
      <trkpt lat="49.85797" lon="2.13635">
        <ele>122.1</ele>
        <time>2022-03-23T13:15:19Z</time>
      </trkpt>
      <trkpt lat="49.85797" lon="2.13637">
        <ele>122.1</ele>
        <time>2022-03-23T13:15:20Z</time>
      </trkpt>
      <trkpt lat="49.85796" lon="2.13638">
        <ele>122.1</ele>
        <time>2022-03-23T13:15:22Z</time>
      </trkpt>
      <trkpt lat="49.85795" lon="2.13642">
        <ele>122.2</ele>
        <time>2022-03-23T13:15:23Z</time>
      </trkpt>
      <trkpt lat="49.85795" lon="2.13643">
        <ele>122.2</ele>
        <time>2022-03-23T13:15:24Z</time>
      </trkpt>
      <trkpt lat="49.85795" lon="2.13644">
        <ele>122.2</ele>
        <time>2022-03-23T13:15:25Z</time>
      </trkpt>
      <trkpt lat="49.85794" lon="2.13647">
        <ele>122.2</ele>
        <time>2022-03-23T13:15:26Z</time>
      </trkpt>
      <trkpt lat="49.85793" lon="2.13648">
        <ele>122.2</ele>
        <time>2022-03-23T13:15:27Z</time>
      </trkpt>
      <trkpt lat="49.85793" lon="2.13649">
        <ele>122.2</ele>
        <time>2022-03-23T13:15:28Z</time>
      </trkpt>
      <trkpt lat="49.85792" lon="2.13652">
        <ele>122.2</ele>
        <time>2022-03-23T13:15:29Z</time>
      </trkpt>
      <trkpt lat="49.85791" lon="2.13654">
        <ele>122.2</ele>
        <time>2022-03-23T13:15:31Z</time>
      </trkpt>
      <trkpt lat="49.85791" lon="2.13655">
        <ele>122.2</ele>
        <time>2022-03-23T13:15:32Z</time>
      </trkpt>
      <trkpt lat="49.8579" lon="2.13657">
        <ele>122.2</ele>
        <time>2022-03-23T13:15:33Z</time>
      </trkpt>
      <trkpt lat="49.85789" lon="2.13659">
        <ele>122.3</ele>
        <time>2022-03-23T13:15:34Z</time>
      </trkpt>
      <trkpt lat="49.85789" lon="2.13661">
        <ele>122.3</ele>
        <time>2022-03-23T13:15:35Z</time>
      </trkpt>
      <trkpt lat="49.85788" lon="2.13663">
        <ele>122.3</ele>
        <time>2022-03-23T13:15:36Z</time>
      </trkpt>
      <trkpt lat="49.85787" lon="2.13665">
        <ele>122.3</ele>
        <time>2022-03-23T13:15:37Z</time>
      </trkpt>
      <trkpt lat="49.85787" lon="2.13666">
        <ele>122.3</ele>
        <time>2022-03-23T13:15:38Z</time>
      </trkpt>
      <trkpt lat="49.85786" lon="2.13668">
        <ele>122.3</ele>
        <time>2022-03-23T13:15:40Z</time>
      </trkpt>
      <trkpt lat="49.85785" lon="2.13671">
        <ele>122.3</ele>
        <time>2022-03-23T13:15:41Z</time>
      </trkpt>
      <trkpt lat="49.85785" lon="2.13672">
        <ele>122.3</ele>
        <time>2022-03-23T13:15:42Z</time>
      </trkpt>
      <trkpt lat="49.85784" lon="2.13673">
        <ele>122.3</ele>
        <time>2022-03-23T13:15:43Z</time>
      </trkpt>
      <trkpt lat="49.85783" lon="2.13676">
        <ele>122.3</ele>
        <time>2022-03-23T13:15:44Z</time>
      </trkpt>
      <trkpt lat="49.85783" lon="2.13677">
        <ele>122.3</ele>
        <time>2022-03-23T13:15:45Z</time>
      </trkpt>
      <trkpt lat="49.85782" lon="2.13678">
        <ele>122.3</ele>
        <time>2022-03-23T13:15:46Z</time>
      </trkpt>
      <trkpt lat="49.85781" lon="2.13681">
        <ele>122.3</ele>
        <time>2022-03-23T13:15:47Z</time>
      </trkpt>
      <trkpt lat="49.85781" lon="2.13682">
        <ele>122.3</ele>
        <time>2022-03-23T13:15:49Z</time>
      </trkpt>
      <trkpt lat="49.8578" lon="2.13683">
        <ele>122.3</ele>
        <time>2022-03-23T13:15:50Z</time>
      </trkpt>
      <trkpt lat="49.85779" lon="2.13686">
        <ele>122.3</ele>
        <time>2022-03-23T13:15:51Z</time>
      </trkpt>
      <trkpt lat="49.85778" lon="2.13687">
        <ele>122.3</ele>
        <time>2022-03-23T13:15:52Z</time>
      </trkpt>
      <trkpt lat="49.85778" lon="2.13688">
        <ele>122.3</ele>
        <time>2022-03-23T13:15:53Z</time>
      </trkpt>
      <trkpt lat="49.85777" lon="2.1369">
        <ele>122.3</ele>
        <time>2022-03-23T13:15:54Z</time>
      </trkpt>
      <trkpt lat="49.85776" lon="2.13691">
        <ele>122.3</ele>
        <time>2022-03-23T13:15:56Z</time>
      </trkpt>
      <trkpt lat="49.85776" lon="2.13692">
        <ele>122.3</ele>
        <time>2022-03-23T13:15:57Z</time>
      </trkpt>
      <trkpt lat="49.85775" lon="2.13695">
        <ele>122.3</ele>
        <time>2022-03-23T13:15:58Z</time>
      </trkpt>
      <trkpt lat="49.85774" lon="2.13696">
        <ele>122.3</ele>
        <time>2022-03-23T13:15:59Z</time>
      </trkpt>
      <trkpt lat="49.85774" lon="2.13697">
        <ele>122.3</ele>
        <time>2022-03-23T13:16:00Z</time>
      </trkpt>
      <trkpt lat="49.85773" lon="2.13699">
        <ele>122.3</ele>
        <time>2022-03-23T13:16:02Z</time>
      </trkpt>
      <trkpt lat="49.85773" lon="2.137">
        <ele>122.4</ele>
        <time>2022-03-23T13:16:03Z</time>
      </trkpt>
      <trkpt lat="49.85772" lon="2.13702">
        <ele>122.4</ele>
        <time>2022-03-23T13:16:04Z</time>
      </trkpt>
      <trkpt lat="49.85772" lon="2.13703">
        <ele>122.4</ele>
        <time>2022-03-23T13:16:05Z</time>
      </trkpt>
      <trkpt lat="49.85772" lon="2.13704">
        <ele>122.4</ele>
        <time>2022-03-23T13:16:06Z</time>
      </trkpt>
      <trkpt lat="49.85771" lon="2.13706">
        <ele>122.4</ele>
        <time>2022-03-23T13:16:07Z</time>
      </trkpt>
      <trkpt lat="49.85771" lon="2.13707">
        <ele>122.4</ele>
        <time>2022-03-23T13:16:08Z</time>
      </trkpt>
      <trkpt lat="49.8577" lon="2.13708">
        <ele>122.4</ele>
        <time>2022-03-23T13:16:09Z</time>
      </trkpt>
      <trkpt lat="49.8577" lon="2.1371">
        <ele>122.4</ele>
        <time>2022-03-23T13:16:10Z</time>
      </trkpt>
      <trkpt lat="49.85769" lon="2.13712">
        <ele>122.4</ele>
        <time>2022-03-23T13:16:12Z</time>
      </trkpt>
      <trkpt lat="49.85769" lon="2.13713">
        <ele>122.4</ele>
        <time>2022-03-23T13:16:13Z</time>
      </trkpt>
      <trkpt lat="49.85769" lon="2.13714">
        <ele>122.4</ele>
        <time>2022-03-23T13:16:14Z</time>
      </trkpt>
      <trkpt lat="49.85768" lon="2.13715">
        <ele>122.4</ele>
        <time>2022-03-23T13:16:15Z</time>
      </trkpt>
      <trkpt lat="49.85768" lon="2.13716">
        <ele>122.4</ele>
        <time>2022-03-23T13:16:16Z</time>
      </trkpt>
      <trkpt lat="49.85768" lon="2.13716">
        <ele>122.4</ele>
        <time>2022-03-23T13:16:17Z</time>
      </trkpt>
      <trkpt lat="49.85768" lon="2.13716">
        <ele>122.4</ele>
        <time>2022-03-23T13:16:18Z</time>
      </trkpt>
      <trkpt lat="49.85768" lon="2.13716">
        <ele>122.4</ele>
        <time>2022-03-23T13:16:19Z</time>
      </trkpt>
      <trkpt lat="49.85768" lon="2.13715">
        <ele>122.4</ele>
        <time>2022-03-23T13:16:20Z</time>
      </trkpt>
      <trkpt lat="49.85769" lon="2.13715">
        <ele>122.4</ele>
        <time>2022-03-23T13:16:21Z</time>
      </trkpt>
      <trkpt lat="49.85769" lon="2.13715">
        <ele>122.4</ele>
        <time>2022-03-23T13:16:22Z</time>
      </trkpt>
      <trkpt lat="49.85769" lon="2.13714">
        <ele>122.4</ele>
        <time>2022-03-23T13:16:23Z</time>
      </trkpt>
      <trkpt lat="49.85769" lon="2.13714">
        <ele>122.4</ele>
        <time>2022-03-23T13:16:24Z</time>
      </trkpt>
      <trkpt lat="49.85769" lon="2.13714">
        <ele>122.4</ele>
        <time>2022-03-23T13:16:25Z</time>
      </trkpt>
      <trkpt lat="49.85769" lon="2.13714">
        <ele>122.4</ele>
        <time>2022-03-23T13:16:26Z</time>
      </trkpt>
      <trkpt lat="49.85769" lon="2.13714">
        <ele>122.4</ele>
        <time>2022-03-23T13:16:27Z</time>
      </trkpt>
      <trkpt lat="49.85769" lon="2.13714">
        <ele>122.4</ele>
        <time>2022-03-23T13:16:28Z</time>
      </trkpt>
      <trkpt lat="49.85769" lon="2.13714">
        <ele>122.4</ele>
        <time>2022-03-23T13:16:29Z</time>
      </trkpt>
      <trkpt lat="49.85769" lon="2.13714">
        <ele>122.4</ele>
        <time>2022-03-23T13:16:30Z</time>
      </trkpt>
      <trkpt lat="49.85769" lon="2.13714">
        <ele>122.4</ele>
        <time>2022-03-23T13:16:31Z</time>
      </trkpt>
      <trkpt lat="49.85769" lon="2.13714">
        <ele>122.4</ele>
        <time>2022-03-23T13:16:32Z</time>
      </trkpt>
      <trkpt lat="49.85769" lon="2.13713">
        <ele>122.4</ele>
        <time>2022-03-23T13:16:33Z</time>
      </trkpt>
      <trkpt lat="49.85769" lon="2.13713">
        <ele>122.4</ele>
        <time>2022-03-23T13:16:34Z</time>
      </trkpt>
      <trkpt lat="49.85769" lon="2.13713">
        <ele>122.4</ele>
        <time>2022-03-23T13:16:35Z</time>
      </trkpt>
      <trkpt lat="49.85769" lon="2.13713">
        <ele>122.4</ele>
        <time>2022-03-23T13:16:36Z</time>
      </trkpt>
      <trkpt lat="49.8577" lon="2.13713">
        <ele>122.5</ele>
        <time>2022-03-23T13:16:37Z</time>
      </trkpt>
      <trkpt lat="49.8577" lon="2.13713">
        <ele>122.5</ele>
        <time>2022-03-23T13:16:38Z</time>
      </trkpt>
      <trkpt lat="49.8577" lon="2.13713">
        <ele>122.5</ele>
        <time>2022-03-23T13:16:39Z</time>
      </trkpt>
      <trkpt lat="49.8577" lon="2.13713">
        <ele>122.5</ele>
        <time>2022-03-23T13:16:40Z</time>
      </trkpt>
      <trkpt lat="49.8577" lon="2.13713">
        <ele>122.5</ele>
        <time>2022-03-23T13:16:41Z</time>
      </trkpt>
      <trkpt lat="49.8577" lon="2.13713">
        <ele>122.5</ele>
        <time>2022-03-23T13:16:42Z</time>
      </trkpt>
      <trkpt lat="49.8577" lon="2.13713">
        <ele>122.5</ele>
        <time>2022-03-23T13:16:43Z</time>
      </trkpt>
      <trkpt lat="49.8577" lon="2.13713">
        <ele>122.5</ele>
        <time>2022-03-23T13:16:44Z</time>
      </trkpt>
      <trkpt lat="49.8577" lon="2.13713">
        <ele>122.5</ele>
        <time>2022-03-23T13:16:45Z</time>
      </trkpt>
      <trkpt lat="49.8577" lon="2.13713">
        <ele>122.5</ele>
        <time>2022-03-23T13:16:46Z</time>
      </trkpt>
      <trkpt lat="49.8577" lon="2.13713">
        <ele>122.5</ele>
        <time>2022-03-23T13:16:48Z</time>
      </trkpt>
      <trkpt lat="49.8577" lon="2.13713">
        <ele>122.5</ele>
        <time>2022-03-23T13:16:49Z</time>
      </trkpt>
      <trkpt lat="49.8577" lon="2.13712">
        <ele>122.5</ele>
        <time>2022-03-23T13:16:50Z</time>
      </trkpt>
      <trkpt lat="49.85771" lon="2.13712">
        <ele>122.5</ele>
        <time>2022-03-23T13:16:51Z</time>
      </trkpt>
      <trkpt lat="49.85771" lon="2.13712">
        <ele>122.5</ele>
        <time>2022-03-23T13:16:52Z</time>
      </trkpt>
      <trkpt lat="49.85771" lon="2.13712">
        <ele>122.5</ele>
        <time>2022-03-23T13:16:53Z</time>
      </trkpt>
      <trkpt lat="49.85771" lon="2.13712">
        <ele>122.5</ele>
        <time>2022-03-23T13:16:54Z</time>
      </trkpt>
      <trkpt lat="49.85771" lon="2.13713">
        <ele>122.5</ele>
        <time>2022-03-23T13:16:55Z</time>
      </trkpt>
      <trkpt lat="49.85771" lon="2.13713">
        <ele>122.5</ele>
        <time>2022-03-23T13:16:56Z</time>
      </trkpt>
      <trkpt lat="49.85771" lon="2.13713">
        <ele>122.5</ele>
        <time>2022-03-23T13:16:57Z</time>
      </trkpt>
      <trkpt lat="49.85771" lon="2.13713">
        <ele>122.5</ele>
        <time>2022-03-23T13:16:58Z</time>
      </trkpt>
      <trkpt lat="49.85771" lon="2.13713">
        <ele>122.5</ele>
        <time>2022-03-23T13:16:59Z</time>
      </trkpt>
      <trkpt lat="49.85771" lon="2.13713">
        <ele>122.5</ele>
        <time>2022-03-23T13:17:00Z</time>
      </trkpt>
      <trkpt lat="49.85771" lon="2.13712">
        <ele>122.5</ele>
        <time>2022-03-23T13:17:01Z</time>
      </trkpt>
      <trkpt lat="49.85771" lon="2.13712">
        <ele>122.5</ele>
        <time>2022-03-23T13:17:02Z</time>
      </trkpt>
      <trkpt lat="49.85771" lon="2.13712">
        <ele>122.5</ele>
        <time>2022-03-23T13:17:04Z</time>
      </trkpt>
      <trkpt lat="49.85771" lon="2.13712">
        <ele>122.5</ele>
        <time>2022-03-23T13:17:05Z</time>
      </trkpt>
      <trkpt lat="49.85772" lon="2.13712">
        <ele>122.5</ele>
        <time>2022-03-23T13:17:06Z</time>
      </trkpt>
      <trkpt lat="49.85772" lon="2.13712">
        <ele>122.5</ele>
        <time>2022-03-23T13:17:07Z</time>
      </trkpt>
      <trkpt lat="49.85772" lon="2.13712">
        <ele>122.5</ele>
        <time>2022-03-23T13:17:08Z</time>
      </trkpt>
      <trkpt lat="49.85772" lon="2.13711">
        <ele>122.5</ele>
        <time>2022-03-23T13:17:09Z</time>
      </trkpt>
      <trkpt lat="49.85772" lon="2.13711">
        <ele>122.5</ele>
        <time>2022-03-23T13:17:10Z</time>
      </trkpt>
      <trkpt lat="49.85772" lon="2.13711">
        <ele>122.5</ele>
        <time>2022-03-23T13:17:11Z</time>
      </trkpt>
      <trkpt lat="49.85773" lon="2.13711">
        <ele>122.5</ele>
        <time>2022-03-23T13:17:12Z</time>
      </trkpt>
      <trkpt lat="49.85773" lon="2.13711">
        <ele>122.5</ele>
        <time>2022-03-23T13:17:13Z</time>
      </trkpt>
      <trkpt lat="49.85773" lon="2.13711">
        <ele>122.5</ele>
        <time>2022-03-23T13:17:14Z</time>
      </trkpt>
      <trkpt lat="49.85773" lon="2.13711">
        <ele>122.5</ele>
        <time>2022-03-23T13:17:15Z</time>
      </trkpt>
      <trkpt lat="49.85773" lon="2.13711">
        <ele>122.5</ele>
        <time>2022-03-23T13:17:16Z</time>
      </trkpt>
      <trkpt lat="49.85773" lon="2.13711">
        <ele>122.5</ele>
        <time>2022-03-23T13:17:17Z</time>
      </trkpt>
      <trkpt lat="49.85773" lon="2.13711">
        <ele>122.5</ele>
        <time>2022-03-23T13:17:18Z</time>
      </trkpt>
      <trkpt lat="49.85773" lon="2.13711">
        <ele>122.5</ele>
        <time>2022-03-23T13:17:19Z</time>
      </trkpt>
      <trkpt lat="49.85773" lon="2.13711">
        <ele>122.5</ele>
        <time>2022-03-23T13:17:20Z</time>
      </trkpt>
      <trkpt lat="49.85773" lon="2.13711">
        <ele>122.5</ele>
        <time>2022-03-23T13:17:21Z</time>
      </trkpt>
      <trkpt lat="49.85773" lon="2.13711">
        <ele>122.5</ele>
        <time>2022-03-23T13:17:22Z</time>
      </trkpt>
      <trkpt lat="49.85773" lon="2.13711">
        <ele>122.5</ele>
        <time>2022-03-23T13:17:23Z</time>
      </trkpt>
      <trkpt lat="49.85773" lon="2.13711">
        <ele>122.5</ele>
        <time>2022-03-23T13:17:24Z</time>
      </trkpt>
      <trkpt lat="49.85773" lon="2.13711">
        <ele>122.5</ele>
        <time>2022-03-23T13:17:25Z</time>
      </trkpt>
      <trkpt lat="49.85773" lon="2.13711">
        <ele>122.5</ele>
        <time>2022-03-23T13:17:26Z</time>
      </trkpt>
      <trkpt lat="49.85773" lon="2.13711">
        <ele>122.5</ele>
        <time>2022-03-23T13:17:27Z</time>
      </trkpt>
      <trkpt lat="49.85773" lon="2.13711">
        <ele>122.5</ele>
        <time>2022-03-23T13:17:28Z</time>
      </trkpt>
      <trkpt lat="49.85773" lon="2.13711">
        <ele>122.5</ele>
        <time>2022-03-23T13:17:29Z</time>
      </trkpt>
      <trkpt lat="49.85773" lon="2.13711">
        <ele>122.5</ele>
        <time>2022-03-23T13:17:30Z</time>
      </trkpt>
      <trkpt lat="49.85773" lon="2.13711">
        <ele>122.5</ele>
        <time>2022-03-23T13:17:31Z</time>
      </trkpt>
      <trkpt lat="49.85773" lon="2.13711">
        <ele>122.5</ele>
        <time>2022-03-23T13:17:32Z</time>
      </trkpt>
      <trkpt lat="49.85773" lon="2.13711">
        <ele>122.5</ele>
        <time>2022-03-23T13:17:33Z</time>
      </trkpt>
      <trkpt lat="49.85773" lon="2.13711">
        <ele>122.5</ele>
        <time>2022-03-23T13:17:34Z</time>
      </trkpt>
      <trkpt lat="49.85773" lon="2.13711">
        <ele>122.5</ele>
        <time>2022-03-23T13:17:35Z</time>
      </trkpt>
      <trkpt lat="49.85773" lon="2.13711">
        <ele>122.5</ele>
        <time>2022-03-23T13:17:36Z</time>
      </trkpt>
      <trkpt lat="49.85773" lon="2.13711">
        <ele>122.5</ele>
        <time>2022-03-23T13:17:37Z</time>
      </trkpt>
      <trkpt lat="49.85773" lon="2.13711">
        <ele>122.5</ele>
        <time>2022-03-23T13:17:38Z</time>
      </trkpt>
      <trkpt lat="49.85773" lon="2.13711">
        <ele>122.5</ele>
        <time>2022-03-23T13:17:39Z</time>
      </trkpt>
      <trkpt lat="49.85773" lon="2.13711">
        <ele>122.5</ele>
        <time>2022-03-23T13:17:40Z</time>
      </trkpt>
      <trkpt lat="49.85773" lon="2.13711">
        <ele>122.5</ele>
        <time>2022-03-23T13:17:41Z</time>
      </trkpt>
      <trkpt lat="49.85773" lon="2.13711">
        <ele>122.5</ele>
        <time>2022-03-23T13:17:42Z</time>
      </trkpt>
      <trkpt lat="49.85773" lon="2.13711">
        <ele>122.5</ele>
        <time>2022-03-23T13:17:43Z</time>
      </trkpt>
      <trkpt lat="49.85773" lon="2.13711">
        <ele>122.5</ele>
        <time>2022-03-23T13:17:44Z</time>
      </trkpt>
      <trkpt lat="49.85773" lon="2.13711">
        <ele>122.5</ele>
        <time>2022-03-23T13:17:45Z</time>
      </trkpt>
      <trkpt lat="49.85773" lon="2.13711">
        <ele>122.5</ele>
        <time>2022-03-23T13:17:46Z</time>
      </trkpt>
      <trkpt lat="49.85773" lon="2.13711">
        <ele>122.5</ele>
        <time>2022-03-23T13:17:47Z</time>
      </trkpt>
      <trkpt lat="49.85773" lon="2.13711">
        <ele>122.5</ele>
        <time>2022-03-23T13:17:48Z</time>
      </trkpt>
      <trkpt lat="49.85773" lon="2.13711">
        <ele>122.5</ele>
        <time>2022-03-23T13:17:49Z</time>
      </trkpt>
      <trkpt lat="49.85773" lon="2.13711">
        <ele>122.5</ele>
        <time>2022-03-23T13:17:50Z</time>
      </trkpt>
      <trkpt lat="49.85773" lon="2.13711">
        <ele>122.5</ele>
        <time>2022-03-23T13:17:51Z</time>
      </trkpt>
      <trkpt lat="49.85773" lon="2.13711">
        <ele>122.5</ele>
        <time>2022-03-23T13:17:52Z</time>
      </trkpt>
      <trkpt lat="49.85773" lon="2.13711">
        <ele>122.5</ele>
        <time>2022-03-23T13:17:53Z</time>
      </trkpt>
      <trkpt lat="49.85773" lon="2.13711">
        <ele>122.5</ele>
        <time>2022-03-23T13:17:54Z</time>
      </trkpt>
      <trkpt lat="49.85773" lon="2.13711">
        <ele>122.5</ele>
        <time>2022-03-23T13:17:55Z</time>
      </trkpt>
      <trkpt lat="49.85773" lon="2.13711">
        <ele>122.5</ele>
        <time>2022-03-23T13:17:56Z</time>
      </trkpt>
      <trkpt lat="49.85773" lon="2.13711">
        <ele>122.5</ele>
        <time>2022-03-23T13:17:57Z</time>
      </trkpt>
      <trkpt lat="49.85774" lon="2.13711">
        <ele>122.5</ele>
        <time>2022-03-23T13:17:58Z</time>
      </trkpt>
      <trkpt lat="49.85774" lon="2.13711">
        <ele>122.5</ele>
        <time>2022-03-23T13:17:59Z</time>
      </trkpt>
      <trkpt lat="49.85774" lon="2.1371">
        <ele>122.5</ele>
        <time>2022-03-23T13:18:00Z</time>
      </trkpt>
      <trkpt lat="49.85774" lon="2.1371">
        <ele>122.5</ele>
        <time>2022-03-23T13:18:01Z</time>
      </trkpt>
      <trkpt lat="49.85774" lon="2.1371">
        <ele>122.5</ele>
        <time>2022-03-23T13:18:02Z</time>
      </trkpt>
      <trkpt lat="49.85774" lon="2.1371">
        <ele>122.5</ele>
        <time>2022-03-23T13:18:03Z</time>
      </trkpt>
      <trkpt lat="49.85774" lon="2.1371">
        <ele>122.5</ele>
        <time>2022-03-23T13:18:04Z</time>
      </trkpt>
      <trkpt lat="49.85774" lon="2.1371">
        <ele>122.5</ele>
        <time>2022-03-23T13:18:05Z</time>
      </trkpt>
      <trkpt lat="49.85774" lon="2.1371">
        <ele>122.5</ele>
        <time>2022-03-23T13:18:06Z</time>
      </trkpt>
      <trkpt lat="49.85774" lon="2.1371">
        <ele>122.5</ele>
        <time>2022-03-23T13:18:07Z</time>
      </trkpt>
      <trkpt lat="49.85774" lon="2.1371">
        <ele>122.5</ele>
        <time>2022-03-23T13:18:08Z</time>
      </trkpt>
      <trkpt lat="49.85774" lon="2.1371">
        <ele>122.5</ele>
        <time>2022-03-23T13:18:09Z</time>
      </trkpt>
      <trkpt lat="49.85774" lon="2.1371">
        <ele>122.5</ele>
        <time>2022-03-23T13:18:10Z</time>
      </trkpt>
      <trkpt lat="49.85774" lon="2.13711">
        <ele>122.5</ele>
        <time>2022-03-23T13:18:11Z</time>
      </trkpt>
      <trkpt lat="49.85774" lon="2.13711">
        <ele>122.5</ele>
        <time>2022-03-23T13:18:13Z</time>
      </trkpt>
      <trkpt lat="49.85774" lon="2.1371">
        <ele>122.5</ele>
        <time>2022-03-23T13:18:14Z</time>
      </trkpt>
      <trkpt lat="49.85774" lon="2.1371">
        <ele>122.5</ele>
        <time>2022-03-23T13:18:15Z</time>
      </trkpt>
      <trkpt lat="49.85774" lon="2.1371">
        <ele>122.5</ele>
        <time>2022-03-23T13:18:16Z</time>
      </trkpt>
      <trkpt lat="49.85774" lon="2.1371">
        <ele>122.5</ele>
        <time>2022-03-23T13:18:17Z</time>
      </trkpt>
      <trkpt lat="49.85774" lon="2.1371">
        <ele>122.5</ele>
        <time>2022-03-23T13:18:18Z</time>
      </trkpt>
      <trkpt lat="49.85774" lon="2.1371">
        <ele>122.5</ele>
        <time>2022-03-23T13:18:19Z</time>
      </trkpt>
      <trkpt lat="49.85774" lon="2.1371">
        <ele>122.5</ele>
        <time>2022-03-23T13:18:20Z</time>
      </trkpt>
      <trkpt lat="49.85774" lon="2.1371">
        <ele>122.5</ele>
        <time>2022-03-23T13:18:21Z</time>
      </trkpt>
      <trkpt lat="49.85774" lon="2.1371">
        <ele>122.5</ele>
        <time>2022-03-23T13:18:22Z</time>
      </trkpt>
      <trkpt lat="49.85774" lon="2.1371">
        <ele>122.5</ele>
        <time>2022-03-23T13:18:23Z</time>
      </trkpt>
      <trkpt lat="49.85774" lon="2.1371">
        <ele>122.5</ele>
        <time>2022-03-23T13:18:24Z</time>
      </trkpt>
      <trkpt lat="49.85773" lon="2.13711">
        <ele>122.5</ele>
        <time>2022-03-23T13:18:25Z</time>
      </trkpt>
      <trkpt lat="49.85772" lon="2.13711">
        <ele>122.5</ele>
        <time>2022-03-23T13:18:27Z</time>
      </trkpt>
      <trkpt lat="49.85771" lon="2.13712">
        <ele>122.5</ele>
        <time>2022-03-23T13:18:28Z</time>
      </trkpt>
      <trkpt lat="49.8577" lon="2.13713">
        <ele>122.5</ele>
        <time>2022-03-23T13:18:30Z</time>
      </trkpt>
      <trkpt lat="49.8577" lon="2.13714">
        <ele>122.5</ele>
        <time>2022-03-23T13:18:31Z</time>
      </trkpt>
      <trkpt lat="49.85769" lon="2.13715">
        <ele>122.5</ele>
        <time>2022-03-23T13:18:33Z</time>
      </trkpt>
      <trkpt lat="49.85769" lon="2.13715">
        <ele>122.5</ele>
        <time>2022-03-23T13:18:34Z</time>
      </trkpt>
      <trkpt lat="49.85768" lon="2.13716">
        <ele>122.5</ele>
        <time>2022-03-23T13:18:35Z</time>
      </trkpt>
      <trkpt lat="49.85768" lon="2.13718">
        <ele>122.5</ele>
        <time>2022-03-23T13:18:36Z</time>
      </trkpt>
      <trkpt lat="49.85768" lon="2.13719">
        <ele>122.5</ele>
        <time>2022-03-23T13:18:37Z</time>
      </trkpt>
      <trkpt lat="49.85768" lon="2.13721">
        <ele>122.5</ele>
        <time>2022-03-23T13:18:38Z</time>
      </trkpt>
      <trkpt lat="49.85767" lon="2.13722">
        <ele>122.5</ele>
        <time>2022-03-23T13:18:40Z</time>
      </trkpt>
      <trkpt lat="49.85767" lon="2.13723">
        <ele>122.5</ele>
        <time>2022-03-23T13:18:41Z</time>
      </trkpt>
      <trkpt lat="49.85766" lon="2.13725">
        <ele>122.5</ele>
        <time>2022-03-23T13:18:42Z</time>
      </trkpt>
      <trkpt lat="49.85766" lon="2.13727">
        <ele>122.5</ele>
        <time>2022-03-23T13:18:43Z</time>
      </trkpt>
      <trkpt lat="49.85765" lon="2.13729">
        <ele>122.6</ele>
        <time>2022-03-23T13:18:44Z</time>
      </trkpt>
      <trkpt lat="49.85765" lon="2.13731">
        <ele>122.6</ele>
        <time>2022-03-23T13:18:46Z</time>
      </trkpt>
      <trkpt lat="49.85764" lon="2.13733">
        <ele>122.6</ele>
        <time>2022-03-23T13:18:47Z</time>
      </trkpt>
      <trkpt lat="49.85764" lon="2.13734">
        <ele>122.6</ele>
        <time>2022-03-23T13:18:48Z</time>
      </trkpt>
      <trkpt lat="49.85763" lon="2.13737">
        <ele>122.6</ele>
        <time>2022-03-23T13:18:49Z</time>
      </trkpt>
      <trkpt lat="49.85763" lon="2.13739">
        <ele>122.6</ele>
        <time>2022-03-23T13:18:50Z</time>
      </trkpt>
      <trkpt lat="49.85762" lon="2.1374">
        <ele>122.6</ele>
        <time>2022-03-23T13:18:51Z</time>
      </trkpt>
      <trkpt lat="49.85761" lon="2.13744">
        <ele>122.7</ele>
        <time>2022-03-23T13:18:52Z</time>
      </trkpt>
      <trkpt lat="49.85761" lon="2.13745">
        <ele>122.7</ele>
        <time>2022-03-23T13:18:54Z</time>
      </trkpt>
      <trkpt lat="49.8576" lon="2.13747">
        <ele>122.7</ele>
        <time>2022-03-23T13:18:55Z</time>
      </trkpt>
      <trkpt lat="49.8576" lon="2.13748">
        <ele>122.7</ele>
        <time>2022-03-23T13:18:56Z</time>
      </trkpt>
      <trkpt lat="49.8576" lon="2.1375">
        <ele>122.7</ele>
        <time>2022-03-23T13:18:57Z</time>
      </trkpt>
      <trkpt lat="49.85759" lon="2.13752">
        <ele>122.7</ele>
        <time>2022-03-23T13:18:58Z</time>
      </trkpt>
      <trkpt lat="49.85758" lon="2.13754">
        <ele>122.7</ele>
        <time>2022-03-23T13:18:59Z</time>
      </trkpt>
      <trkpt lat="49.85758" lon="2.13757">
        <ele>122.7</ele>
        <time>2022-03-23T13:19:00Z</time>
      </trkpt>
      <trkpt lat="49.85757" lon="2.13759">
        <ele>122.7</ele>
        <time>2022-03-23T13:19:01Z</time>
      </trkpt>
      <trkpt lat="49.85756" lon="2.13761">
        <ele>122.7</ele>
        <time>2022-03-23T13:19:03Z</time>
      </trkpt>
      <trkpt lat="49.85755" lon="2.13763">
        <ele>122.7</ele>
        <time>2022-03-23T13:19:04Z</time>
      </trkpt>
      <trkpt lat="49.85754" lon="2.13766">
        <ele>122.7</ele>
        <time>2022-03-23T13:19:05Z</time>
      </trkpt>
      <trkpt lat="49.85754" lon="2.13768">
        <ele>122.7</ele>
        <time>2022-03-23T13:19:06Z</time>
      </trkpt>
      <trkpt lat="49.85753" lon="2.1377">
        <ele>122.7</ele>
        <time>2022-03-23T13:19:07Z</time>
      </trkpt>
      <trkpt lat="49.85753" lon="2.13772">
        <ele>122.7</ele>
        <time>2022-03-23T13:19:08Z</time>
      </trkpt>
      <trkpt lat="49.85751" lon="2.13775">
        <ele>122.7</ele>
        <time>2022-03-23T13:19:09Z</time>
      </trkpt>
      <trkpt lat="49.85751" lon="2.13777">
        <ele>122.7</ele>
        <time>2022-03-23T13:19:11Z</time>
      </trkpt>
      <trkpt lat="49.8575" lon="2.13778">
        <ele>122.7</ele>
        <time>2022-03-23T13:19:12Z</time>
      </trkpt>
      <trkpt lat="49.8575" lon="2.13779">
        <ele>122.7</ele>
        <time>2022-03-23T13:19:13Z</time>
      </trkpt>
      <trkpt lat="49.85749" lon="2.13781">
        <ele>122.7</ele>
        <time>2022-03-23T13:19:14Z</time>
      </trkpt>
      <trkpt lat="49.85748" lon="2.13783">
        <ele>122.7</ele>
        <time>2022-03-23T13:19:15Z</time>
      </trkpt>
      <trkpt lat="49.85748" lon="2.13785">
        <ele>122.7</ele>
        <time>2022-03-23T13:19:16Z</time>
      </trkpt>
      <trkpt lat="49.85746" lon="2.13788">
        <ele>122.7</ele>
        <time>2022-03-23T13:19:17Z</time>
      </trkpt>
      <trkpt lat="49.85746" lon="2.13789">
        <ele>122.7</ele>
        <time>2022-03-23T13:19:19Z</time>
      </trkpt>
      <trkpt lat="49.85745" lon="2.13791">
        <ele>122.7</ele>
        <time>2022-03-23T13:19:20Z</time>
      </trkpt>
      <trkpt lat="49.85744" lon="2.13792">
        <ele>122.7</ele>
        <time>2022-03-23T13:19:21Z</time>
      </trkpt>
      <trkpt lat="49.85744" lon="2.13793">
        <ele>122.7</ele>
        <time>2022-03-23T13:19:22Z</time>
      </trkpt>
      <trkpt lat="49.85743" lon="2.13795">
        <ele>122.7</ele>
        <time>2022-03-23T13:19:23Z</time>
      </trkpt>
      <trkpt lat="49.85742" lon="2.13797">
        <ele>122.7</ele>
        <time>2022-03-23T13:19:24Z</time>
      </trkpt>
      <trkpt lat="49.85741" lon="2.138">
        <ele>122.7</ele>
        <time>2022-03-23T13:19:25Z</time>
      </trkpt>
      <trkpt lat="49.85741" lon="2.13801">
        <ele>122.7</ele>
        <time>2022-03-23T13:19:27Z</time>
      </trkpt>
      <trkpt lat="49.8574" lon="2.13802">
        <ele>122.7</ele>
        <time>2022-03-23T13:19:28Z</time>
      </trkpt>
      <trkpt lat="49.8574" lon="2.13803">
        <ele>122.7</ele>
        <time>2022-03-23T13:19:29Z</time>
      </trkpt>
      <trkpt lat="49.85739" lon="2.13805">
        <ele>122.7</ele>
        <time>2022-03-23T13:19:30Z</time>
      </trkpt>
      <trkpt lat="49.85739" lon="2.13806">
        <ele>122.7</ele>
        <time>2022-03-23T13:19:31Z</time>
      </trkpt>
      <trkpt lat="49.85738" lon="2.13808">
        <ele>122.7</ele>
        <time>2022-03-23T13:19:32Z</time>
      </trkpt>
      <trkpt lat="49.85738" lon="2.1381">
        <ele>122.7</ele>
        <time>2022-03-23T13:19:33Z</time>
      </trkpt>
      <trkpt lat="49.85737" lon="2.13812">
        <ele>122.7</ele>
        <time>2022-03-23T13:19:35Z</time>
      </trkpt>
      <trkpt lat="49.85736" lon="2.13814">
        <ele>122.7</ele>
        <time>2022-03-23T13:19:36Z</time>
      </trkpt>
      <trkpt lat="49.85736" lon="2.13816">
        <ele>122.7</ele>
        <time>2022-03-23T13:19:37Z</time>
      </trkpt>
      <trkpt lat="49.85736" lon="2.13818">
        <ele>122.7</ele>
        <time>2022-03-23T13:19:38Z</time>
      </trkpt>
      <trkpt lat="49.85735" lon="2.1382">
        <ele>122.7</ele>
        <time>2022-03-23T13:19:39Z</time>
      </trkpt>
      <trkpt lat="49.85735" lon="2.13822">
        <ele>122.7</ele>
        <time>2022-03-23T13:19:40Z</time>
      </trkpt>
      <trkpt lat="49.85735" lon="2.13823">
        <ele>122.7</ele>
        <time>2022-03-23T13:19:41Z</time>
      </trkpt>
      <trkpt lat="49.85734" lon="2.13826">
        <ele>122.7</ele>
        <time>2022-03-23T13:19:43Z</time>
      </trkpt>
      <trkpt lat="49.85734" lon="2.13827">
        <ele>122.7</ele>
        <time>2022-03-23T13:19:44Z</time>
      </trkpt>
      <trkpt lat="49.85734" lon="2.13829">
        <ele>122.8</ele>
        <time>2022-03-23T13:19:45Z</time>
      </trkpt>
      <trkpt lat="49.85733" lon="2.13831">
        <ele>122.8</ele>
        <time>2022-03-23T13:19:46Z</time>
      </trkpt>
      <trkpt lat="49.85733" lon="2.13834">
        <ele>122.8</ele>
        <time>2022-03-23T13:19:47Z</time>
      </trkpt>
      <trkpt lat="49.85733" lon="2.13835">
        <ele>122.8</ele>
        <time>2022-03-23T13:19:48Z</time>
      </trkpt>
      <trkpt lat="49.85732" lon="2.13837">
        <ele>122.8</ele>
        <time>2022-03-23T13:19:49Z</time>
      </trkpt>
      <trkpt lat="49.85732" lon="2.13838">
        <ele>122.8</ele>
        <time>2022-03-23T13:19:50Z</time>
      </trkpt>
      <trkpt lat="49.85731" lon="2.1384">
        <ele>122.8</ele>
        <time>2022-03-23T13:19:52Z</time>
      </trkpt>
      <trkpt lat="49.85731" lon="2.13842">
        <ele>122.8</ele>
        <time>2022-03-23T13:19:53Z</time>
      </trkpt>
      <trkpt lat="49.85731" lon="2.13843">
        <ele>122.8</ele>
        <time>2022-03-23T13:19:54Z</time>
      </trkpt>
      <trkpt lat="49.8573" lon="2.13845">
        <ele>122.8</ele>
        <time>2022-03-23T13:19:55Z</time>
      </trkpt>
      <trkpt lat="49.8573" lon="2.13847">
        <ele>122.8</ele>
        <time>2022-03-23T13:19:56Z</time>
      </trkpt>
      <trkpt lat="49.85729" lon="2.13848">
        <ele>122.8</ele>
        <time>2022-03-23T13:19:57Z</time>
      </trkpt>
      <trkpt lat="49.85728" lon="2.1385">
        <ele>122.8</ele>
        <time>2022-03-23T13:19:58Z</time>
      </trkpt>
      <trkpt lat="49.85728" lon="2.13852">
        <ele>122.8</ele>
        <time>2022-03-23T13:20:00Z</time>
      </trkpt>
      <trkpt lat="49.85727" lon="2.13853">
        <ele>122.8</ele>
        <time>2022-03-23T13:20:01Z</time>
      </trkpt>
      <trkpt lat="49.85726" lon="2.13854">
        <ele>122.8</ele>
        <time>2022-03-23T13:20:02Z</time>
      </trkpt>
      <trkpt lat="49.85725" lon="2.13855">
        <ele>122.8</ele>
        <time>2022-03-23T13:20:03Z</time>
      </trkpt>
      <trkpt lat="49.85724" lon="2.13858">
        <ele>122.8</ele>
        <time>2022-03-23T13:20:04Z</time>
      </trkpt>
      <trkpt lat="49.85724" lon="2.13859">
        <ele>122.8</ele>
        <time>2022-03-23T13:20:05Z</time>
      </trkpt>
      <trkpt lat="49.85723" lon="2.1386">
        <ele>122.8</ele>
        <time>2022-03-23T13:20:06Z</time>
      </trkpt>
      <trkpt lat="49.85722" lon="2.13863">
        <ele>122.8</ele>
        <time>2022-03-23T13:20:08Z</time>
      </trkpt>
      <trkpt lat="49.85722" lon="2.13864">
        <ele>122.8</ele>
        <time>2022-03-23T13:20:09Z</time>
      </trkpt>
      <trkpt lat="49.85721" lon="2.13865">
        <ele>122.8</ele>
        <time>2022-03-23T13:20:10Z</time>
      </trkpt>
      <trkpt lat="49.8572" lon="2.13868">
        <ele>122.8</ele>
        <time>2022-03-23T13:20:11Z</time>
      </trkpt>
      <trkpt lat="49.8572" lon="2.1387">
        <ele>122.8</ele>
        <time>2022-03-23T13:20:12Z</time>
      </trkpt>
      <trkpt lat="49.85719" lon="2.13871">
        <ele>122.8</ele>
        <time>2022-03-23T13:20:13Z</time>
      </trkpt>
      <trkpt lat="49.85719" lon="2.13873">
        <ele>122.8</ele>
        <time>2022-03-23T13:20:14Z</time>
      </trkpt>
      <trkpt lat="49.85718" lon="2.13875">
        <ele>122.8</ele>
        <time>2022-03-23T13:20:15Z</time>
      </trkpt>
      <trkpt lat="49.85718" lon="2.13877">
        <ele>122.8</ele>
        <time>2022-03-23T13:20:17Z</time>
      </trkpt>
      <trkpt lat="49.85717" lon="2.13879">
        <ele>122.8</ele>
        <time>2022-03-23T13:20:18Z</time>
      </trkpt>
      <trkpt lat="49.85716" lon="2.13882">
        <ele>122.8</ele>
        <time>2022-03-23T13:20:19Z</time>
      </trkpt>
      <trkpt lat="49.85715" lon="2.13883">
        <ele>122.8</ele>
        <time>2022-03-23T13:20:20Z</time>
      </trkpt>
      <trkpt lat="49.85715" lon="2.13884">
        <ele>122.8</ele>
        <time>2022-03-23T13:20:21Z</time>
      </trkpt>
      <trkpt lat="49.85714" lon="2.13886">
        <ele>122.8</ele>
        <time>2022-03-23T13:20:22Z</time>
      </trkpt>
      <trkpt lat="49.85714" lon="2.13888">
        <ele>122.8</ele>
        <time>2022-03-23T13:20:23Z</time>
      </trkpt>
      <trkpt lat="49.85713" lon="2.13891">
        <ele>122.8</ele>
        <time>2022-03-23T13:20:25Z</time>
      </trkpt>
      <trkpt lat="49.85713" lon="2.13893">
        <ele>122.8</ele>
        <time>2022-03-23T13:20:26Z</time>
      </trkpt>
      <trkpt lat="49.85712" lon="2.13894">
        <ele>122.8</ele>
        <time>2022-03-23T13:20:27Z</time>
      </trkpt>
      <trkpt lat="49.85712" lon="2.13897">
        <ele>122.8</ele>
        <time>2022-03-23T13:20:28Z</time>
      </trkpt>
      <trkpt lat="49.85711" lon="2.139">
        <ele>122.8</ele>
        <time>2022-03-23T13:20:29Z</time>
      </trkpt>
      <trkpt lat="49.8571" lon="2.13901">
        <ele>122.8</ele>
        <time>2022-03-23T13:20:31Z</time>
      </trkpt>
      <trkpt lat="49.8571" lon="2.13902">
        <ele>122.8</ele>
        <time>2022-03-23T13:20:32Z</time>
      </trkpt>
      <trkpt lat="49.85709" lon="2.13905">
        <ele>122.8</ele>
        <time>2022-03-23T13:20:33Z</time>
      </trkpt>
      <trkpt lat="49.85709" lon="2.13906">
        <ele>122.8</ele>
        <time>2022-03-23T13:20:34Z</time>
      </trkpt>
      <trkpt lat="49.85708" lon="2.13907">
        <ele>122.8</ele>
        <time>2022-03-23T13:20:35Z</time>
      </trkpt>
      <trkpt lat="49.85708" lon="2.13909">
        <ele>122.8</ele>
        <time>2022-03-23T13:20:36Z</time>
      </trkpt>
      <trkpt lat="49.85707" lon="2.13911">
        <ele>122.8</ele>
        <time>2022-03-23T13:20:37Z</time>
      </trkpt>
      <trkpt lat="49.85707" lon="2.13913">
        <ele>122.8</ele>
        <time>2022-03-23T13:20:39Z</time>
      </trkpt>
      <trkpt lat="49.85706" lon="2.13914">
        <ele>122.8</ele>
        <time>2022-03-23T13:20:40Z</time>
      </trkpt>
      <trkpt lat="49.85705" lon="2.13916">
        <ele>122.8</ele>
        <time>2022-03-23T13:20:41Z</time>
      </trkpt>
      <trkpt lat="49.85704" lon="2.13919">
        <ele>122.8</ele>
        <time>2022-03-23T13:20:42Z</time>
      </trkpt>
      <trkpt lat="49.85703" lon="2.1392">
        <ele>122.8</ele>
        <time>2022-03-23T13:20:43Z</time>
      </trkpt>
      <trkpt lat="49.85703" lon="2.13921">
        <ele>122.8</ele>
        <time>2022-03-23T13:20:44Z</time>
      </trkpt>
      <trkpt lat="49.85702" lon="2.13923">
        <ele>122.8</ele>
        <time>2022-03-23T13:20:45Z</time>
      </trkpt>
      <trkpt lat="49.85701" lon="2.13924">
        <ele>122.8</ele>
        <time>2022-03-23T13:20:46Z</time>
      </trkpt>
      <trkpt lat="49.85701" lon="2.13926">
        <ele>122.8</ele>
        <time>2022-03-23T13:20:48Z</time>
      </trkpt>
      <trkpt lat="49.857" lon="2.13929">
        <ele>122.8</ele>
        <time>2022-03-23T13:20:49Z</time>
      </trkpt>
      <trkpt lat="49.85699" lon="2.1393">
        <ele>122.8</ele>
        <time>2022-03-23T13:20:50Z</time>
      </trkpt>
      <trkpt lat="49.85699" lon="2.13931">
        <ele>122.8</ele>
        <time>2022-03-23T13:20:51Z</time>
      </trkpt>
      <trkpt lat="49.85698" lon="2.13933">
        <ele>122.8</ele>
        <time>2022-03-23T13:20:52Z</time>
      </trkpt>
      <trkpt lat="49.85698" lon="2.13936">
        <ele>122.8</ele>
        <time>2022-03-23T13:20:53Z</time>
      </trkpt>
      <trkpt lat="49.85697" lon="2.13938">
        <ele>122.8</ele>
        <time>2022-03-23T13:20:54Z</time>
      </trkpt>
      <trkpt lat="49.85697" lon="2.1394">
        <ele>122.8</ele>
        <time>2022-03-23T13:20:56Z</time>
      </trkpt>
      <trkpt lat="49.85696" lon="2.13941">
        <ele>122.8</ele>
        <time>2022-03-23T13:20:57Z</time>
      </trkpt>
      <trkpt lat="49.85695" lon="2.13943">
        <ele>122.8</ele>
        <time>2022-03-23T13:20:58Z</time>
      </trkpt>
      <trkpt lat="49.85695" lon="2.13945">
        <ele>122.8</ele>
        <time>2022-03-23T13:20:59Z</time>
      </trkpt>
      <trkpt lat="49.85694" lon="2.13946">
        <ele>122.8</ele>
        <time>2022-03-23T13:21:00Z</time>
      </trkpt>
      <trkpt lat="49.85694" lon="2.13948">
        <ele>122.8</ele>
        <time>2022-03-23T13:21:01Z</time>
      </trkpt>
      <trkpt lat="49.85693" lon="2.13949">
        <ele>122.8</ele>
        <time>2022-03-23T13:21:02Z</time>
      </trkpt>
      <trkpt lat="49.85693" lon="2.13951">
        <ele>122.8</ele>
        <time>2022-03-23T13:21:03Z</time>
      </trkpt>
      <trkpt lat="49.85692" lon="2.13952">
        <ele>122.8</ele>
        <time>2022-03-23T13:21:05Z</time>
      </trkpt>
      <trkpt lat="49.85691" lon="2.13954">
        <ele>122.8</ele>
        <time>2022-03-23T13:21:06Z</time>
      </trkpt>
      <trkpt lat="49.8569" lon="2.13957">
        <ele>122.8</ele>
        <time>2022-03-23T13:21:07Z</time>
      </trkpt>
      <trkpt lat="49.8569" lon="2.13958">
        <ele>122.8</ele>
        <time>2022-03-23T13:21:08Z</time>
      </trkpt>
      <trkpt lat="49.85689" lon="2.13959">
        <ele>122.8</ele>
        <time>2022-03-23T13:21:09Z</time>
      </trkpt>
      <trkpt lat="49.85688" lon="2.1396">
        <ele>122.8</ele>
        <time>2022-03-23T13:21:10Z</time>
      </trkpt>
      <trkpt lat="49.85688" lon="2.13962">
        <ele>122.8</ele>
        <time>2022-03-23T13:21:11Z</time>
      </trkpt>
      <trkpt lat="49.85688" lon="2.13964">
        <ele>122.8</ele>
        <time>2022-03-23T13:21:12Z</time>
      </trkpt>
      <trkpt lat="49.85687" lon="2.13967">
        <ele>122.8</ele>
        <time>2022-03-23T13:21:14Z</time>
      </trkpt>
      <trkpt lat="49.85686" lon="2.13968">
        <ele>122.8</ele>
        <time>2022-03-23T13:21:15Z</time>
      </trkpt>
      <trkpt lat="49.85686" lon="2.13969">
        <ele>122.8</ele>
        <time>2022-03-23T13:21:16Z</time>
      </trkpt>
      <trkpt lat="49.85685" lon="2.13972">
        <ele>122.8</ele>
        <time>2022-03-23T13:21:17Z</time>
      </trkpt>
      <trkpt lat="49.85685" lon="2.13973">
        <ele>122.8</ele>
        <time>2022-03-23T13:21:18Z</time>
      </trkpt>
      <trkpt lat="49.85684" lon="2.13975">
        <ele>122.8</ele>
        <time>2022-03-23T13:21:19Z</time>
      </trkpt>
      <trkpt lat="49.85683" lon="2.13978">
        <ele>122.8</ele>
        <time>2022-03-23T13:21:20Z</time>
      </trkpt>
      <trkpt lat="49.85683" lon="2.13979">
        <ele>122.8</ele>
        <time>2022-03-23T13:21:21Z</time>
      </trkpt>
      <trkpt lat="49.85683" lon="2.1398">
        <ele>122.8</ele>
        <time>2022-03-23T13:21:23Z</time>
      </trkpt>
      <trkpt lat="49.85682" lon="2.13982">
        <ele>122.8</ele>
        <time>2022-03-23T13:21:24Z</time>
      </trkpt>
      <trkpt lat="49.85682" lon="2.13983">
        <ele>122.8</ele>
        <time>2022-03-23T13:21:25Z</time>
      </trkpt>
      <trkpt lat="49.85681" lon="2.13985">
        <ele>122.8</ele>
        <time>2022-03-23T13:21:26Z</time>
      </trkpt>
      <trkpt lat="49.85681" lon="2.13987">
        <ele>122.8</ele>
        <time>2022-03-23T13:21:27Z</time>
      </trkpt>
      <trkpt lat="49.85681" lon="2.13989">
        <ele>122.8</ele>
        <time>2022-03-23T13:21:28Z</time>
      </trkpt>
      <trkpt lat="49.8568" lon="2.13992">
        <ele>122.8</ele>
        <time>2022-03-23T13:21:29Z</time>
      </trkpt>
      <trkpt lat="49.85679" lon="2.13994">
        <ele>122.8</ele>
        <time>2022-03-23T13:21:30Z</time>
      </trkpt>
      <trkpt lat="49.85679" lon="2.13995">
        <ele>122.8</ele>
        <time>2022-03-23T13:21:32Z</time>
      </trkpt>
      <trkpt lat="49.85679" lon="2.13997">
        <ele>122.8</ele>
        <time>2022-03-23T13:21:33Z</time>
      </trkpt>
      <trkpt lat="49.85678" lon="2.13998">
        <ele>122.8</ele>
        <time>2022-03-23T13:21:34Z</time>
      </trkpt>
      <trkpt lat="49.85678" lon="2.14">
        <ele>122.8</ele>
        <time>2022-03-23T13:21:35Z</time>
      </trkpt>
      <trkpt lat="49.85677" lon="2.14003">
        <ele>122.8</ele>
        <time>2022-03-23T13:21:36Z</time>
      </trkpt>
      <trkpt lat="49.85677" lon="2.14004">
        <ele>122.8</ele>
        <time>2022-03-23T13:21:37Z</time>
      </trkpt>
      <trkpt lat="49.85677" lon="2.14005">
        <ele>122.8</ele>
        <time>2022-03-23T13:21:38Z</time>
      </trkpt>
      <trkpt lat="49.85676" lon="2.14008">
        <ele>122.8</ele>
        <time>2022-03-23T13:21:40Z</time>
      </trkpt>
      <trkpt lat="49.85675" lon="2.14009">
        <ele>122.8</ele>
        <time>2022-03-23T13:21:41Z</time>
      </trkpt>
      <trkpt lat="49.85674" lon="2.1401">
        <ele>122.8</ele>
        <time>2022-03-23T13:21:42Z</time>
      </trkpt>
      <trkpt lat="49.85673" lon="2.14012">
        <ele>122.8</ele>
        <time>2022-03-23T13:21:43Z</time>
      </trkpt>
      <trkpt lat="49.85672" lon="2.14013">
        <ele>122.8</ele>
        <time>2022-03-23T13:21:44Z</time>
      </trkpt>
      <trkpt lat="49.85672" lon="2.14014">
        <ele>122.8</ele>
        <time>2022-03-23T13:21:45Z</time>
      </trkpt>
      <trkpt lat="49.8567" lon="2.14017">
        <ele>122.8</ele>
        <time>2022-03-23T13:21:46Z</time>
      </trkpt>
      <trkpt lat="49.8567" lon="2.14018">
        <ele>122.8</ele>
        <time>2022-03-23T13:21:48Z</time>
      </trkpt>
      <trkpt lat="49.85669" lon="2.14019">
        <ele>122.8</ele>
        <time>2022-03-23T13:21:49Z</time>
      </trkpt>
      <trkpt lat="49.85669" lon="2.14021">
        <ele>122.8</ele>
        <time>2022-03-23T13:21:50Z</time>
      </trkpt>
      <trkpt lat="49.85668" lon="2.14023">
        <ele>122.8</ele>
        <time>2022-03-23T13:21:51Z</time>
      </trkpt>
      <trkpt lat="49.85667" lon="2.14025">
        <ele>122.8</ele>
        <time>2022-03-23T13:21:52Z</time>
      </trkpt>
      <trkpt lat="49.85667" lon="2.14028">
        <ele>122.8</ele>
        <time>2022-03-23T13:21:53Z</time>
      </trkpt>
      <trkpt lat="49.85666" lon="2.14031">
        <ele>122.9</ele>
        <time>2022-03-23T13:21:54Z</time>
      </trkpt>
      <trkpt lat="49.85666" lon="2.14032">
        <ele>122.9</ele>
        <time>2022-03-23T13:21:56Z</time>
      </trkpt>
      <trkpt lat="49.85666" lon="2.14033">
        <ele>122.9</ele>
        <time>2022-03-23T13:21:57Z</time>
      </trkpt>
      <trkpt lat="49.85665" lon="2.14036">
        <ele>122.9</ele>
        <time>2022-03-23T13:21:58Z</time>
      </trkpt>
      <trkpt lat="49.85665" lon="2.14038">
        <ele>122.9</ele>
        <time>2022-03-23T13:21:59Z</time>
      </trkpt>
      <trkpt lat="49.85665" lon="2.14039">
        <ele>122.9</ele>
        <time>2022-03-23T13:22:00Z</time>
      </trkpt>
      <trkpt lat="49.85664" lon="2.14041">
        <ele>122.9</ele>
        <time>2022-03-23T13:22:01Z</time>
      </trkpt>
      <trkpt lat="49.85664" lon="2.14043">
        <ele>122.9</ele>
        <time>2022-03-23T13:22:02Z</time>
      </trkpt>
      <trkpt lat="49.85664" lon="2.14045">
        <ele>122.9</ele>
        <time>2022-03-23T13:22:04Z</time>
      </trkpt>
      <trkpt lat="49.85663" lon="2.14048">
        <ele>122.9</ele>
        <time>2022-03-23T13:22:05Z</time>
      </trkpt>
      <trkpt lat="49.85663" lon="2.14049">
        <ele>122.9</ele>
        <time>2022-03-23T13:22:06Z</time>
      </trkpt>
      <trkpt lat="49.85662" lon="2.14051">
        <ele>122.9</ele>
        <time>2022-03-23T13:22:07Z</time>
      </trkpt>
      <trkpt lat="49.85661" lon="2.14053">
        <ele>122.9</ele>
        <time>2022-03-23T13:22:08Z</time>
      </trkpt>
      <trkpt lat="49.85661" lon="2.14054">
        <ele>122.9</ele>
        <time>2022-03-23T13:22:09Z</time>
      </trkpt>
      <trkpt lat="49.8566" lon="2.14057">
        <ele>122.9</ele>
        <time>2022-03-23T13:22:10Z</time>
      </trkpt>
      <trkpt lat="49.8566" lon="2.14059">
        <ele>122.9</ele>
        <time>2022-03-23T13:22:12Z</time>
      </trkpt>
      <trkpt lat="49.85659" lon="2.1406">
        <ele>122.9</ele>
        <time>2022-03-23T13:22:13Z</time>
      </trkpt>
      <trkpt lat="49.85659" lon="2.14063">
        <ele>123</ele>
        <time>2022-03-23T13:22:14Z</time>
      </trkpt>
      <trkpt lat="49.85658" lon="2.14064">
        <ele>123</ele>
        <time>2022-03-23T13:22:15Z</time>
      </trkpt>
      <trkpt lat="49.85658" lon="2.14065">
        <ele>123</ele>
        <time>2022-03-23T13:22:16Z</time>
      </trkpt>
      <trkpt lat="49.85657" lon="2.14067">
        <ele>123</ele>
        <time>2022-03-23T13:22:17Z</time>
      </trkpt>
      <trkpt lat="49.85656" lon="2.14069">
        <ele>123</ele>
        <time>2022-03-23T13:22:18Z</time>
      </trkpt>
      <trkpt lat="49.85655" lon="2.1407">
        <ele>123</ele>
        <time>2022-03-23T13:22:20Z</time>
      </trkpt>
      <trkpt lat="49.85655" lon="2.14072">
        <ele>123</ele>
        <time>2022-03-23T13:22:21Z</time>
      </trkpt>
      <trkpt lat="49.85654" lon="2.14074">
        <ele>123</ele>
        <time>2022-03-23T13:22:22Z</time>
      </trkpt>
      <trkpt lat="49.85653" lon="2.14075">
        <ele>123</ele>
        <time>2022-03-23T13:22:23Z</time>
      </trkpt>
      <trkpt lat="49.85652" lon="2.14077">
        <ele>123</ele>
        <time>2022-03-23T13:22:24Z</time>
      </trkpt>
      <trkpt lat="49.85652" lon="2.14078">
        <ele>123</ele>
        <time>2022-03-23T13:22:25Z</time>
      </trkpt>
      <trkpt lat="49.85651" lon="2.14079">
        <ele>123</ele>
        <time>2022-03-23T13:22:27Z</time>
      </trkpt>
      <trkpt lat="49.8565" lon="2.14081">
        <ele>123</ele>
        <time>2022-03-23T13:22:28Z</time>
      </trkpt>
      <trkpt lat="49.8565" lon="2.14082">
        <ele>123</ele>
        <time>2022-03-23T13:22:29Z</time>
      </trkpt>
      <trkpt lat="49.85649" lon="2.14084">
        <ele>123</ele>
        <time>2022-03-23T13:22:30Z</time>
      </trkpt>
      <trkpt lat="49.85649" lon="2.14085">
        <ele>123</ele>
        <time>2022-03-23T13:22:31Z</time>
      </trkpt>
      <trkpt lat="49.85648" lon="2.14087">
        <ele>123</ele>
        <time>2022-03-23T13:22:32Z</time>
      </trkpt>
      <trkpt lat="49.85648" lon="2.14089">
        <ele>123</ele>
        <time>2022-03-23T13:22:33Z</time>
      </trkpt>
      <trkpt lat="49.85647" lon="2.1409">
        <ele>123</ele>
        <time>2022-03-23T13:22:34Z</time>
      </trkpt>
      <trkpt lat="49.85647" lon="2.14092">
        <ele>123</ele>
        <time>2022-03-23T13:22:36Z</time>
      </trkpt>
      <trkpt lat="49.85646" lon="2.14093">
        <ele>123</ele>
        <time>2022-03-23T13:22:37Z</time>
      </trkpt>
      <trkpt lat="49.85646" lon="2.14095">
        <ele>123</ele>
        <time>2022-03-23T13:22:38Z</time>
      </trkpt>
      <trkpt lat="49.85645" lon="2.14096">
        <ele>123</ele>
        <time>2022-03-23T13:22:39Z</time>
      </trkpt>
      <trkpt lat="49.85645" lon="2.14098">
        <ele>123</ele>
        <time>2022-03-23T13:22:40Z</time>
      </trkpt>
      <trkpt lat="49.85644" lon="2.141">
        <ele>123</ele>
        <time>2022-03-23T13:22:41Z</time>
      </trkpt>
      <trkpt lat="49.85644" lon="2.14101">
        <ele>123</ele>
        <time>2022-03-23T13:22:42Z</time>
      </trkpt>
      <trkpt lat="49.85643" lon="2.14104">
        <ele>123</ele>
        <time>2022-03-23T13:22:44Z</time>
      </trkpt>
      <trkpt lat="49.85642" lon="2.14105">
        <ele>123</ele>
        <time>2022-03-23T13:22:45Z</time>
      </trkpt>
      <trkpt lat="49.85642" lon="2.14106">
        <ele>123</ele>
        <time>2022-03-23T13:22:46Z</time>
      </trkpt>
      <trkpt lat="49.85642" lon="2.14108">
        <ele>123</ele>
        <time>2022-03-23T13:22:47Z</time>
      </trkpt>
      <trkpt lat="49.85641" lon="2.14111">
        <ele>123</ele>
        <time>2022-03-23T13:22:48Z</time>
      </trkpt>
      <trkpt lat="49.85641" lon="2.14113">
        <ele>123</ele>
        <time>2022-03-23T13:22:49Z</time>
      </trkpt>
      <trkpt lat="49.8564" lon="2.14114">
        <ele>122.9</ele>
        <time>2022-03-23T13:22:50Z</time>
      </trkpt>
      <trkpt lat="49.8564" lon="2.14116">
        <ele>122.9</ele>
        <time>2022-03-23T13:22:52Z</time>
      </trkpt>
      <trkpt lat="49.85639" lon="2.14119">
        <ele>122.9</ele>
        <time>2022-03-23T13:22:53Z</time>
      </trkpt>
      <trkpt lat="49.85639" lon="2.1412">
        <ele>122.9</ele>
        <time>2022-03-23T13:22:54Z</time>
      </trkpt>
      <trkpt lat="49.85638" lon="2.14121">
        <ele>122.9</ele>
        <time>2022-03-23T13:22:55Z</time>
      </trkpt>
      <trkpt lat="49.85638" lon="2.14125">
        <ele>122.9</ele>
        <time>2022-03-23T13:22:56Z</time>
      </trkpt>
      <trkpt lat="49.85637" lon="2.14126">
        <ele>122.9</ele>
        <time>2022-03-23T13:22:57Z</time>
      </trkpt>
      <trkpt lat="49.85637" lon="2.14127">
        <ele>122.9</ele>
        <time>2022-03-23T13:22:58Z</time>
      </trkpt>
      <trkpt lat="49.85637" lon="2.14129">
        <ele>122.9</ele>
        <time>2022-03-23T13:22:59Z</time>
      </trkpt>
      <trkpt lat="49.85636" lon="2.14131">
        <ele>122.9</ele>
        <time>2022-03-23T13:23:00Z</time>
      </trkpt>
      <trkpt lat="49.85636" lon="2.14133">
        <ele>122.9</ele>
        <time>2022-03-23T13:23:02Z</time>
      </trkpt>
      <trkpt lat="49.85636" lon="2.14135">
        <ele>122.9</ele>
        <time>2022-03-23T13:23:03Z</time>
      </trkpt>
      <trkpt lat="49.85636" lon="2.14136">
        <ele>122.9</ele>
        <time>2022-03-23T13:23:04Z</time>
      </trkpt>
      <trkpt lat="49.85637" lon="2.14136">
        <ele>122.9</ele>
        <time>2022-03-23T13:23:05Z</time>
      </trkpt>
      <trkpt lat="49.85638" lon="2.14137">
        <ele>122.9</ele>
        <time>2022-03-23T13:23:06Z</time>
      </trkpt>
      <trkpt lat="49.85638" lon="2.14138">
        <ele>122.9</ele>
        <time>2022-03-23T13:23:07Z</time>
      </trkpt>
      <trkpt lat="49.85639" lon="2.14139">
        <ele>122.9</ele>
        <time>2022-03-23T13:23:08Z</time>
      </trkpt>
      <trkpt lat="49.85639" lon="2.1414">
        <ele>122.9</ele>
        <time>2022-03-23T13:23:09Z</time>
      </trkpt>
      <trkpt lat="49.85639" lon="2.1414">
        <ele>122.9</ele>
        <time>2022-03-23T13:23:10Z</time>
      </trkpt>
      <trkpt lat="49.8564" lon="2.14141">
        <ele>122.9</ele>
        <time>2022-03-23T13:23:11Z</time>
      </trkpt>
      <trkpt lat="49.85641" lon="2.14143">
        <ele>122.9</ele>
        <time>2022-03-23T13:23:13Z</time>
      </trkpt>
      <trkpt lat="49.85642" lon="2.14143">
        <ele>122.9</ele>
        <time>2022-03-23T13:23:14Z</time>
      </trkpt>
      <trkpt lat="49.85642" lon="2.14143">
        <ele>122.9</ele>
        <time>2022-03-23T13:23:15Z</time>
      </trkpt>
      <trkpt lat="49.85643" lon="2.14143">
        <ele>122.9</ele>
        <time>2022-03-23T13:23:16Z</time>
      </trkpt>
      <trkpt lat="49.85643" lon="2.14143">
        <ele>122.9</ele>
        <time>2022-03-23T13:23:17Z</time>
      </trkpt>
      <trkpt lat="49.85642" lon="2.14144">
        <ele>122.9</ele>
        <time>2022-03-23T13:23:18Z</time>
      </trkpt>
      <trkpt lat="49.85642" lon="2.14144">
        <ele>122.9</ele>
        <time>2022-03-23T13:23:19Z</time>
      </trkpt>
      <trkpt lat="49.85641" lon="2.14145">
        <ele>122.9</ele>
        <time>2022-03-23T13:23:20Z</time>
      </trkpt>
      <trkpt lat="49.85641" lon="2.14145">
        <ele>122.9</ele>
        <time>2022-03-23T13:23:21Z</time>
      </trkpt>
      <trkpt lat="49.8564" lon="2.14145">
        <ele>122.9</ele>
        <time>2022-03-23T13:23:22Z</time>
      </trkpt>
      <trkpt lat="49.85638" lon="2.14145">
        <ele>122.9</ele>
        <time>2022-03-23T13:23:23Z</time>
      </trkpt>
      <trkpt lat="49.85637" lon="2.14145">
        <ele>122.9</ele>
        <time>2022-03-23T13:23:24Z</time>
      </trkpt>
      <trkpt lat="49.85635" lon="2.14145">
        <ele>122.9</ele>
        <time>2022-03-23T13:23:26Z</time>
      </trkpt>
      <trkpt lat="49.85634" lon="2.14145">
        <ele>122.9</ele>
        <time>2022-03-23T13:23:27Z</time>
      </trkpt>
      <trkpt lat="49.85632" lon="2.14146">
        <ele>122.8</ele>
        <time>2022-03-23T13:23:28Z</time>
      </trkpt>
      <trkpt lat="49.85631" lon="2.14148">
        <ele>122.8</ele>
        <time>2022-03-23T13:23:29Z</time>
      </trkpt>
      <trkpt lat="49.8563" lon="2.14149">
        <ele>122.8</ele>
        <time>2022-03-23T13:23:30Z</time>
      </trkpt>
      <trkpt lat="49.8563" lon="2.14151">
        <ele>122.8</ele>
        <time>2022-03-23T13:23:31Z</time>
      </trkpt>
      <trkpt lat="49.85629" lon="2.14153">
        <ele>122.8</ele>
        <time>2022-03-23T13:23:33Z</time>
      </trkpt>
      <trkpt lat="49.85629" lon="2.14154">
        <ele>122.8</ele>
        <time>2022-03-23T13:23:34Z</time>
      </trkpt>
      <trkpt lat="49.85628" lon="2.14157">
        <ele>122.8</ele>
        <time>2022-03-23T13:23:35Z</time>
      </trkpt>
      <trkpt lat="49.85627" lon="2.14158">
        <ele>122.8</ele>
        <time>2022-03-23T13:23:36Z</time>
      </trkpt>
      <trkpt lat="49.85627" lon="2.14159">
        <ele>122.8</ele>
        <time>2022-03-23T13:23:37Z</time>
      </trkpt>
      <trkpt lat="49.85627" lon="2.14161">
        <ele>122.8</ele>
        <time>2022-03-23T13:23:38Z</time>
      </trkpt>
      <trkpt lat="49.85626" lon="2.14163">
        <ele>122.8</ele>
        <time>2022-03-23T13:23:40Z</time>
      </trkpt>
      <trkpt lat="49.85626" lon="2.14165">
        <ele>122.8</ele>
        <time>2022-03-23T13:23:41Z</time>
      </trkpt>
      <trkpt lat="49.85626" lon="2.14168">
        <ele>122.8</ele>
        <time>2022-03-23T13:23:42Z</time>
      </trkpt>
      <trkpt lat="49.85626" lon="2.14169">
        <ele>122.8</ele>
        <time>2022-03-23T13:23:43Z</time>
      </trkpt>
      <trkpt lat="49.85626" lon="2.14171">
        <ele>122.8</ele>
        <time>2022-03-23T13:23:44Z</time>
      </trkpt>
      <trkpt lat="49.85625" lon="2.14174">
        <ele>122.8</ele>
        <time>2022-03-23T13:23:45Z</time>
      </trkpt>
      <trkpt lat="49.85624" lon="2.14176">
        <ele>122.8</ele>
        <time>2022-03-23T13:23:47Z</time>
      </trkpt>
      <trkpt lat="49.85623" lon="2.14178">
        <ele>122.8</ele>
        <time>2022-03-23T13:23:48Z</time>
      </trkpt>
      <trkpt lat="49.85623" lon="2.1418">
        <ele>122.8</ele>
        <time>2022-03-23T13:23:49Z</time>
      </trkpt>
      <trkpt lat="49.85622" lon="2.14183">
        <ele>122.8</ele>
        <time>2022-03-23T13:23:50Z</time>
      </trkpt>
      <trkpt lat="49.85622" lon="2.14185">
        <ele>122.8</ele>
        <time>2022-03-23T13:23:51Z</time>
      </trkpt>
      <trkpt lat="49.85621" lon="2.14189">
        <ele>122.8</ele>
        <time>2022-03-23T13:23:52Z</time>
      </trkpt>
      <trkpt lat="49.8562" lon="2.14191">
        <ele>122.8</ele>
        <time>2022-03-23T13:23:54Z</time>
      </trkpt>
      <trkpt lat="49.8562" lon="2.14192">
        <ele>122.8</ele>
        <time>2022-03-23T13:23:55Z</time>
      </trkpt>
      <trkpt lat="49.85619" lon="2.14194">
        <ele>122.8</ele>
        <time>2022-03-23T13:23:56Z</time>
      </trkpt>
      <trkpt lat="49.85619" lon="2.14195">
        <ele>122.8</ele>
        <time>2022-03-23T13:23:57Z</time>
      </trkpt>
      <trkpt lat="49.85618" lon="2.14197">
        <ele>122.8</ele>
        <time>2022-03-23T13:23:58Z</time>
      </trkpt>
      <trkpt lat="49.85618" lon="2.14199">
        <ele>122.8</ele>
        <time>2022-03-23T13:23:59Z</time>
      </trkpt>
      <trkpt lat="49.85617" lon="2.14201">
        <ele>122.8</ele>
        <time>2022-03-23T13:24:01Z</time>
      </trkpt>
      <trkpt lat="49.85617" lon="2.14202">
        <ele>122.8</ele>
        <time>2022-03-23T13:24:02Z</time>
      </trkpt>
      <trkpt lat="49.85617" lon="2.14204">
        <ele>122.7</ele>
        <time>2022-03-23T13:24:03Z</time>
      </trkpt>
      <trkpt lat="49.85616" lon="2.14206">
        <ele>122.7</ele>
        <time>2022-03-23T13:24:04Z</time>
      </trkpt>
      <trkpt lat="49.85615" lon="2.14209">
        <ele>122.7</ele>
        <time>2022-03-23T13:24:06Z</time>
      </trkpt>
      <trkpt lat="49.85615" lon="2.1421">
        <ele>122.7</ele>
        <time>2022-03-23T13:24:07Z</time>
      </trkpt>
      <trkpt lat="49.85615" lon="2.14211">
        <ele>122.7</ele>
        <time>2022-03-23T13:24:08Z</time>
      </trkpt>
      <trkpt lat="49.85615" lon="2.14214">
        <ele>122.7</ele>
        <time>2022-03-23T13:24:09Z</time>
      </trkpt>
      <trkpt lat="49.85614" lon="2.14216">
        <ele>122.7</ele>
        <time>2022-03-23T13:24:10Z</time>
      </trkpt>
      <trkpt lat="49.85614" lon="2.14219">
        <ele>122.7</ele>
        <time>2022-03-23T13:24:11Z</time>
      </trkpt>
      <trkpt lat="49.85613" lon="2.1422">
        <ele>122.7</ele>
        <time>2022-03-23T13:24:13Z</time>
      </trkpt>
      <trkpt lat="49.85613" lon="2.14221">
        <ele>122.6</ele>
        <time>2022-03-23T13:24:14Z</time>
      </trkpt>
      <trkpt lat="49.85612" lon="2.14224">
        <ele>122.6</ele>
        <time>2022-03-23T13:24:15Z</time>
      </trkpt>
      <trkpt lat="49.85612" lon="2.14226">
        <ele>122.6</ele>
        <time>2022-03-23T13:24:16Z</time>
      </trkpt>
      <trkpt lat="49.85611" lon="2.14227">
        <ele>122.6</ele>
        <time>2022-03-23T13:24:17Z</time>
      </trkpt>
      <trkpt lat="49.85611" lon="2.14229">
        <ele>122.6</ele>
        <time>2022-03-23T13:24:18Z</time>
      </trkpt>
      <trkpt lat="49.85611" lon="2.14231">
        <ele>122.6</ele>
        <time>2022-03-23T13:24:19Z</time>
      </trkpt>
      <trkpt lat="49.8561" lon="2.14233">
        <ele>122.6</ele>
        <time>2022-03-23T13:24:21Z</time>
      </trkpt>
      <trkpt lat="49.8561" lon="2.14236">
        <ele>122.6</ele>
        <time>2022-03-23T13:24:22Z</time>
      </trkpt>
      <trkpt lat="49.8561" lon="2.14238">
        <ele>122.6</ele>
        <time>2022-03-23T13:24:23Z</time>
      </trkpt>
      <trkpt lat="49.8561" lon="2.14239">
        <ele>122.6</ele>
        <time>2022-03-23T13:24:24Z</time>
      </trkpt>
      <trkpt lat="49.85609" lon="2.14241">
        <ele>122.5</ele>
        <time>2022-03-23T13:24:25Z</time>
      </trkpt>
      <trkpt lat="49.85609" lon="2.14243">
        <ele>122.5</ele>
        <time>2022-03-23T13:24:26Z</time>
      </trkpt>
      <trkpt lat="49.85609" lon="2.14246">
        <ele>122.5</ele>
        <time>2022-03-23T13:24:27Z</time>
      </trkpt>
      <trkpt lat="49.85609" lon="2.14248">
        <ele>122.5</ele>
        <time>2022-03-23T13:24:29Z</time>
      </trkpt>
      <trkpt lat="49.85609" lon="2.14249">
        <ele>122.5</ele>
        <time>2022-03-23T13:24:30Z</time>
      </trkpt>
      <trkpt lat="49.85608" lon="2.14252">
        <ele>122.5</ele>
        <time>2022-03-23T13:24:31Z</time>
      </trkpt>
      <trkpt lat="49.85608" lon="2.14253">
        <ele>122.5</ele>
        <time>2022-03-23T13:24:32Z</time>
      </trkpt>
      <trkpt lat="49.85608" lon="2.14255">
        <ele>122.5</ele>
        <time>2022-03-23T13:24:33Z</time>
      </trkpt>
      <trkpt lat="49.85608" lon="2.14258">
        <ele>122.5</ele>
        <time>2022-03-23T13:24:34Z</time>
      </trkpt>
      <trkpt lat="49.85607" lon="2.14259">
        <ele>122.5</ele>
        <time>2022-03-23T13:24:35Z</time>
      </trkpt>
      <trkpt lat="49.85607" lon="2.1426">
        <ele>122.5</ele>
        <time>2022-03-23T13:24:36Z</time>
      </trkpt>
      <trkpt lat="49.85607" lon="2.14262">
        <ele>122.5</ele>
        <time>2022-03-23T13:24:38Z</time>
      </trkpt>
      <trkpt lat="49.85606" lon="2.14264">
        <ele>122.5</ele>
        <time>2022-03-23T13:24:39Z</time>
      </trkpt>
      <trkpt lat="49.85606" lon="2.14265">
        <ele>122.5</ele>
        <time>2022-03-23T13:24:40Z</time>
      </trkpt>
      <trkpt lat="49.85605" lon="2.14268">
        <ele>122.5</ele>
        <time>2022-03-23T13:24:41Z</time>
      </trkpt>
      <trkpt lat="49.85605" lon="2.14269">
        <ele>122.5</ele>
        <time>2022-03-23T13:24:42Z</time>
      </trkpt>
      <trkpt lat="49.85604" lon="2.14271">
        <ele>122.5</ele>
        <time>2022-03-23T13:24:43Z</time>
      </trkpt>
      <trkpt lat="49.85604" lon="2.14272">
        <ele>122.5</ele>
        <time>2022-03-23T13:24:44Z</time>
      </trkpt>
      <trkpt lat="49.85604" lon="2.14274">
        <ele>122.5</ele>
        <time>2022-03-23T13:24:46Z</time>
      </trkpt>
      <trkpt lat="49.85603" lon="2.14275">
        <ele>122.5</ele>
        <time>2022-03-23T13:24:47Z</time>
      </trkpt>
      <trkpt lat="49.85603" lon="2.14279">
        <ele>122.5</ele>
        <time>2022-03-23T13:24:48Z</time>
      </trkpt>
      <trkpt lat="49.85603" lon="2.1428">
        <ele>122.5</ele>
        <time>2022-03-23T13:24:49Z</time>
      </trkpt>
      <trkpt lat="49.85602" lon="2.14281">
        <ele>122.5</ele>
        <time>2022-03-23T13:24:50Z</time>
      </trkpt>
      <trkpt lat="49.85602" lon="2.14285">
        <ele>122.5</ele>
        <time>2022-03-23T13:24:51Z</time>
      </trkpt>
      <trkpt lat="49.85602" lon="2.14286">
        <ele>122.5</ele>
        <time>2022-03-23T13:24:52Z</time>
      </trkpt>
      <trkpt lat="49.85602" lon="2.14287">
        <ele>122.5</ele>
        <time>2022-03-23T13:24:53Z</time>
      </trkpt>
      <trkpt lat="49.85601" lon="2.14291">
        <ele>122.5</ele>
        <time>2022-03-23T13:24:54Z</time>
      </trkpt>
      <trkpt lat="49.85601" lon="2.14292">
        <ele>122.5</ele>
        <time>2022-03-23T13:24:56Z</time>
      </trkpt>
      <trkpt lat="49.85601" lon="2.14294">
        <ele>122.4</ele>
        <time>2022-03-23T13:24:57Z</time>
      </trkpt>
      <trkpt lat="49.856" lon="2.14296">
        <ele>122.4</ele>
        <time>2022-03-23T13:24:58Z</time>
      </trkpt>
      <trkpt lat="49.856" lon="2.14297">
        <ele>122.4</ele>
        <time>2022-03-23T13:24:59Z</time>
      </trkpt>
      <trkpt lat="49.856" lon="2.143">
        <ele>122.4</ele>
        <time>2022-03-23T13:25:00Z</time>
      </trkpt>
      <trkpt lat="49.856" lon="2.14302">
        <ele>122.4</ele>
        <time>2022-03-23T13:25:01Z</time>
      </trkpt>
      <trkpt lat="49.85599" lon="2.14304">
        <ele>122.4</ele>
        <time>2022-03-23T13:25:02Z</time>
      </trkpt>
      <trkpt lat="49.85599" lon="2.14306">
        <ele>122.4</ele>
        <time>2022-03-23T13:25:04Z</time>
      </trkpt>
      <trkpt lat="49.85599" lon="2.14308">
        <ele>122.4</ele>
        <time>2022-03-23T13:25:05Z</time>
      </trkpt>
      <trkpt lat="49.85599" lon="2.1431">
        <ele>122.4</ele>
        <time>2022-03-23T13:25:06Z</time>
      </trkpt>
      <trkpt lat="49.85599" lon="2.14313">
        <ele>122.4</ele>
        <time>2022-03-23T13:25:07Z</time>
      </trkpt>
      <trkpt lat="49.85598" lon="2.14315">
        <ele>122.4</ele>
        <time>2022-03-23T13:25:08Z</time>
      </trkpt>
      <trkpt lat="49.85598" lon="2.14316">
        <ele>122.4</ele>
        <time>2022-03-23T13:25:09Z</time>
      </trkpt>
      <trkpt lat="49.85598" lon="2.14318">
        <ele>122.4</ele>
        <time>2022-03-23T13:25:11Z</time>
      </trkpt>
      <trkpt lat="49.85597" lon="2.1432">
        <ele>122.4</ele>
        <time>2022-03-23T13:25:12Z</time>
      </trkpt>
      <trkpt lat="49.85597" lon="2.14323">
        <ele>122.4</ele>
        <time>2022-03-23T13:25:13Z</time>
      </trkpt>
      <trkpt lat="49.85597" lon="2.14324">
        <ele>122.4</ele>
        <time>2022-03-23T13:25:14Z</time>
      </trkpt>
      <trkpt lat="49.85596" lon="2.14326">
        <ele>122.4</ele>
        <time>2022-03-23T13:25:15Z</time>
      </trkpt>
      <trkpt lat="49.85596" lon="2.14329">
        <ele>122.3</ele>
        <time>2022-03-23T13:25:16Z</time>
      </trkpt>
      <trkpt lat="49.85595" lon="2.1433">
        <ele>122.3</ele>
        <time>2022-03-23T13:25:17Z</time>
      </trkpt>
      <trkpt lat="49.85595" lon="2.14332">
        <ele>122.3</ele>
        <time>2022-03-23T13:25:19Z</time>
      </trkpt>
      <trkpt lat="49.85594" lon="2.14333">
        <ele>122.3</ele>
        <time>2022-03-23T13:25:20Z</time>
      </trkpt>
      <trkpt lat="49.85594" lon="2.14334">
        <ele>122.3</ele>
        <time>2022-03-23T13:25:21Z</time>
      </trkpt>
      <trkpt lat="49.85593" lon="2.14336">
        <ele>122.3</ele>
        <time>2022-03-23T13:25:22Z</time>
      </trkpt>
      <trkpt lat="49.85593" lon="2.14338">
        <ele>122.3</ele>
        <time>2022-03-23T13:25:23Z</time>
      </trkpt>
      <trkpt lat="49.85593" lon="2.1434">
        <ele>122.3</ele>
        <time>2022-03-23T13:25:24Z</time>
      </trkpt>
      <trkpt lat="49.85592" lon="2.14342">
        <ele>122.3</ele>
        <time>2022-03-23T13:25:25Z</time>
      </trkpt>
      <trkpt lat="49.85592" lon="2.14344">
        <ele>122.3</ele>
        <time>2022-03-23T13:25:26Z</time>
      </trkpt>
      <trkpt lat="49.85591" lon="2.14345">
        <ele>122.3</ele>
        <time>2022-03-23T13:25:28Z</time>
      </trkpt>
      <trkpt lat="49.85591" lon="2.14349">
        <ele>122.3</ele>
        <time>2022-03-23T13:25:29Z</time>
      </trkpt>
      <trkpt lat="49.8559" lon="2.1435">
        <ele>122.3</ele>
        <time>2022-03-23T13:25:30Z</time>
      </trkpt>
      <trkpt lat="49.8559" lon="2.14351">
        <ele>122.3</ele>
        <time>2022-03-23T13:25:31Z</time>
      </trkpt>
      <trkpt lat="49.8559" lon="2.14353">
        <ele>122.3</ele>
        <time>2022-03-23T13:25:32Z</time>
      </trkpt>
      <trkpt lat="49.8559" lon="2.14355">
        <ele>122.3</ele>
        <time>2022-03-23T13:25:33Z</time>
      </trkpt>
      <trkpt lat="49.85589" lon="2.14357">
        <ele>122.3</ele>
        <time>2022-03-23T13:25:34Z</time>
      </trkpt>
      <trkpt lat="49.85589" lon="2.14359">
        <ele>122.3</ele>
        <time>2022-03-23T13:25:35Z</time>
      </trkpt>
      <trkpt lat="49.85589" lon="2.14361">
        <ele>122.3</ele>
        <time>2022-03-23T13:25:37Z</time>
      </trkpt>
      <trkpt lat="49.85588" lon="2.14363">
        <ele>122.2</ele>
        <time>2022-03-23T13:25:38Z</time>
      </trkpt>
      <trkpt lat="49.85588" lon="2.14364">
        <ele>122.2</ele>
        <time>2022-03-23T13:25:39Z</time>
      </trkpt>
      <trkpt lat="49.85588" lon="2.14366">
        <ele>122.2</ele>
        <time>2022-03-23T13:25:40Z</time>
      </trkpt>
      <trkpt lat="49.85587" lon="2.14369">
        <ele>122.2</ele>
        <time>2022-03-23T13:25:41Z</time>
      </trkpt>
      <trkpt lat="49.85587" lon="2.1437">
        <ele>122.2</ele>
        <time>2022-03-23T13:25:42Z</time>
      </trkpt>
      <trkpt lat="49.85586" lon="2.14372">
        <ele>122.2</ele>
        <time>2022-03-23T13:25:43Z</time>
      </trkpt>
      <trkpt lat="49.85586" lon="2.14375">
        <ele>122.2</ele>
        <time>2022-03-23T13:25:44Z</time>
      </trkpt>
      <trkpt lat="49.85586" lon="2.14376">
        <ele>122.2</ele>
        <time>2022-03-23T13:25:46Z</time>
      </trkpt>
      <trkpt lat="49.85585" lon="2.14377">
        <ele>122.2</ele>
        <time>2022-03-23T13:25:47Z</time>
      </trkpt>
      <trkpt lat="49.85585" lon="2.14379">
        <ele>122.2</ele>
        <time>2022-03-23T13:25:48Z</time>
      </trkpt>
      <trkpt lat="49.85584" lon="2.14381">
        <ele>122.2</ele>
        <time>2022-03-23T13:25:49Z</time>
      </trkpt>
      <trkpt lat="49.85584" lon="2.14385">
        <ele>122.2</ele>
        <time>2022-03-23T13:25:50Z</time>
      </trkpt>
      <trkpt lat="49.85583" lon="2.14386">
        <ele>122.2</ele>
        <time>2022-03-23T13:25:51Z</time>
      </trkpt>
      <trkpt lat="49.85583" lon="2.14387">
        <ele>122.2</ele>
        <time>2022-03-23T13:25:52Z</time>
      </trkpt>
      <trkpt lat="49.85582" lon="2.1439">
        <ele>122.1</ele>
        <time>2022-03-23T13:25:54Z</time>
      </trkpt>
      <trkpt lat="49.85582" lon="2.14392">
        <ele>122.1</ele>
        <time>2022-03-23T13:25:55Z</time>
      </trkpt>
      <trkpt lat="49.85582" lon="2.14393">
        <ele>122.1</ele>
        <time>2022-03-23T13:25:56Z</time>
      </trkpt>
      <trkpt lat="49.85582" lon="2.14395">
        <ele>122.1</ele>
        <time>2022-03-23T13:25:57Z</time>
      </trkpt>
      <trkpt lat="49.85581" lon="2.14397">
        <ele>122.1</ele>
        <time>2022-03-23T13:25:58Z</time>
      </trkpt>
      <trkpt lat="49.85581" lon="2.144">
        <ele>122.1</ele>
        <time>2022-03-23T13:25:59Z</time>
      </trkpt>
      <trkpt lat="49.85581" lon="2.14402">
        <ele>122.1</ele>
        <time>2022-03-23T13:26:00Z</time>
      </trkpt>
      <trkpt lat="49.8558" lon="2.14403">
        <ele>122.1</ele>
        <time>2022-03-23T13:26:01Z</time>
      </trkpt>
      <trkpt lat="49.8558" lon="2.14406">
        <ele>122.1</ele>
        <time>2022-03-23T13:26:03Z</time>
      </trkpt>
      <trkpt lat="49.8558" lon="2.14407">
        <ele>122.1</ele>
        <time>2022-03-23T13:26:04Z</time>
      </trkpt>
      <trkpt lat="49.85579" lon="2.14408">
        <ele>122.1</ele>
        <time>2022-03-23T13:26:05Z</time>
      </trkpt>
      <trkpt lat="49.85579" lon="2.1441">
        <ele>122.1</ele>
        <time>2022-03-23T13:26:06Z</time>
      </trkpt>
      <trkpt lat="49.85579" lon="2.14413">
        <ele>122.1</ele>
        <time>2022-03-23T13:26:07Z</time>
      </trkpt>
      <trkpt lat="49.85578" lon="2.14414">
        <ele>122.1</ele>
        <time>2022-03-23T13:26:08Z</time>
      </trkpt>
      <trkpt lat="49.85578" lon="2.14416">
        <ele>122.1</ele>
        <time>2022-03-23T13:26:09Z</time>
      </trkpt>
      <trkpt lat="49.85578" lon="2.14417">
        <ele>122.1</ele>
        <time>2022-03-23T13:26:10Z</time>
      </trkpt>
      <trkpt lat="49.85577" lon="2.14421">
        <ele>122.1</ele>
        <time>2022-03-23T13:26:12Z</time>
      </trkpt>
      <trkpt lat="49.85577" lon="2.14422">
        <ele>122.1</ele>
        <time>2022-03-23T13:26:13Z</time>
      </trkpt>
      <trkpt lat="49.85577" lon="2.14423">
        <ele>122.1</ele>
        <time>2022-03-23T13:26:14Z</time>
      </trkpt>
      <trkpt lat="49.85576" lon="2.14425">
        <ele>122.1</ele>
        <time>2022-03-23T13:26:15Z</time>
      </trkpt>
      <trkpt lat="49.85576" lon="2.14427">
        <ele>122.1</ele>
        <time>2022-03-23T13:26:16Z</time>
      </trkpt>
      <trkpt lat="49.85576" lon="2.14429">
        <ele>122.1</ele>
        <time>2022-03-23T13:26:17Z</time>
      </trkpt>
      <trkpt lat="49.85576" lon="2.14432">
        <ele>122.1</ele>
        <time>2022-03-23T13:26:18Z</time>
      </trkpt>
      <trkpt lat="49.85576" lon="2.14433">
        <ele>122.1</ele>
        <time>2022-03-23T13:26:20Z</time>
      </trkpt>
      <trkpt lat="49.85576" lon="2.14434">
        <ele>122.1</ele>
        <time>2022-03-23T13:26:21Z</time>
      </trkpt>
      <trkpt lat="49.85575" lon="2.14438">
        <ele>122.1</ele>
        <time>2022-03-23T13:26:22Z</time>
      </trkpt>
      <trkpt lat="49.85575" lon="2.14439">
        <ele>122.1</ele>
        <time>2022-03-23T13:26:23Z</time>
      </trkpt>
      <trkpt lat="49.85575" lon="2.14441">
        <ele>122.1</ele>
        <time>2022-03-23T13:26:24Z</time>
      </trkpt>
      <trkpt lat="49.85574" lon="2.14443">
        <ele>122.1</ele>
        <time>2022-03-23T13:26:25Z</time>
      </trkpt>
      <trkpt lat="49.85574" lon="2.14444">
        <ele>122.1</ele>
        <time>2022-03-23T13:26:26Z</time>
      </trkpt>
      <trkpt lat="49.85574" lon="2.14446">
        <ele>122.1</ele>
        <time>2022-03-23T13:26:28Z</time>
      </trkpt>
      <trkpt lat="49.85573" lon="2.14449">
        <ele>122.1</ele>
        <time>2022-03-23T13:26:29Z</time>
      </trkpt>
      <trkpt lat="49.85573" lon="2.14451">
        <ele>122</ele>
        <time>2022-03-23T13:26:30Z</time>
      </trkpt>
      <trkpt lat="49.85573" lon="2.14452">
        <ele>122</ele>
        <time>2022-03-23T13:26:31Z</time>
      </trkpt>
      <trkpt lat="49.85573" lon="2.14454">
        <ele>122</ele>
        <time>2022-03-23T13:26:32Z</time>
      </trkpt>
      <trkpt lat="49.85573" lon="2.14456">
        <ele>122</ele>
        <time>2022-03-23T13:26:33Z</time>
      </trkpt>
      <trkpt lat="49.85572" lon="2.14457">
        <ele>122</ele>
        <time>2022-03-23T13:26:34Z</time>
      </trkpt>
      <trkpt lat="49.85572" lon="2.14461">
        <ele>122</ele>
        <time>2022-03-23T13:26:36Z</time>
      </trkpt>
      <trkpt lat="49.85572" lon="2.14462">
        <ele>122</ele>
        <time>2022-03-23T13:26:37Z</time>
      </trkpt>
      <trkpt lat="49.85571" lon="2.14463">
        <ele>122</ele>
        <time>2022-03-23T13:26:38Z</time>
      </trkpt>
      <trkpt lat="49.85571" lon="2.14466">
        <ele>122</ele>
        <time>2022-03-23T13:26:39Z</time>
      </trkpt>
      <trkpt lat="49.85571" lon="2.14468">
        <ele>122</ele>
        <time>2022-03-23T13:26:40Z</time>
      </trkpt>
      <trkpt lat="49.8557" lon="2.14469">
        <ele>122</ele>
        <time>2022-03-23T13:26:41Z</time>
      </trkpt>
      <trkpt lat="49.8557" lon="2.14471">
        <ele>121.9</ele>
        <time>2022-03-23T13:26:42Z</time>
      </trkpt>
      <trkpt lat="49.8557" lon="2.14473">
        <ele>121.9</ele>
        <time>2022-03-23T13:26:43Z</time>
      </trkpt>
      <trkpt lat="49.85569" lon="2.14475">
        <ele>121.9</ele>
        <time>2022-03-23T13:26:45Z</time>
      </trkpt>
      <trkpt lat="49.85569" lon="2.14478">
        <ele>121.9</ele>
        <time>2022-03-23T13:26:46Z</time>
      </trkpt>
      <trkpt lat="49.85569" lon="2.1448">
        <ele>121.9</ele>
        <time>2022-03-23T13:26:47Z</time>
      </trkpt>
      <trkpt lat="49.85569" lon="2.14481">
        <ele>121.9</ele>
        <time>2022-03-23T13:26:48Z</time>
      </trkpt>
      <trkpt lat="49.85568" lon="2.14483">
        <ele>121.9</ele>
        <time>2022-03-23T13:26:49Z</time>
      </trkpt>
      <trkpt lat="49.85568" lon="2.14485">
        <ele>121.9</ele>
        <time>2022-03-23T13:26:50Z</time>
      </trkpt>
      <trkpt lat="49.85568" lon="2.14489">
        <ele>121.8</ele>
        <time>2022-03-23T13:26:51Z</time>
      </trkpt>
      <trkpt lat="49.85567" lon="2.1449">
        <ele>121.8</ele>
        <time>2022-03-23T13:26:53Z</time>
      </trkpt>
      <trkpt lat="49.85567" lon="2.14491">
        <ele>121.8</ele>
        <time>2022-03-23T13:26:54Z</time>
      </trkpt>
      <trkpt lat="49.85567" lon="2.14494">
        <ele>121.8</ele>
        <time>2022-03-23T13:26:55Z</time>
      </trkpt>
      <trkpt lat="49.85567" lon="2.14496">
        <ele>121.8</ele>
        <time>2022-03-23T13:26:56Z</time>
      </trkpt>
      <trkpt lat="49.85567" lon="2.14497">
        <ele>121.8</ele>
        <time>2022-03-23T13:26:57Z</time>
      </trkpt>
      <trkpt lat="49.85566" lon="2.145">
        <ele>121.8</ele>
        <time>2022-03-23T13:26:58Z</time>
      </trkpt>
      <trkpt lat="49.85566" lon="2.14501">
        <ele>121.8</ele>
        <time>2022-03-23T13:26:59Z</time>
      </trkpt>
      <trkpt lat="49.85566" lon="2.14502">
        <ele>121.8</ele>
        <time>2022-03-23T13:27:00Z</time>
      </trkpt>
      <trkpt lat="49.85565" lon="2.14504">
        <ele>121.8</ele>
        <time>2022-03-23T13:27:02Z</time>
      </trkpt>
      <trkpt lat="49.85565" lon="2.14506">
        <ele>121.8</ele>
        <time>2022-03-23T13:27:03Z</time>
      </trkpt>
      <trkpt lat="49.85564" lon="2.1451">
        <ele>121.8</ele>
        <time>2022-03-23T13:27:04Z</time>
      </trkpt>
      <trkpt lat="49.85564" lon="2.14511">
        <ele>121.7</ele>
        <time>2022-03-23T13:27:05Z</time>
      </trkpt>
      <trkpt lat="49.85563" lon="2.14512">
        <ele>121.7</ele>
        <time>2022-03-23T13:27:06Z</time>
      </trkpt>
      <trkpt lat="49.85563" lon="2.14515">
        <ele>121.7</ele>
        <time>2022-03-23T13:27:07Z</time>
      </trkpt>
      <trkpt lat="49.85562" lon="2.14517">
        <ele>121.7</ele>
        <time>2022-03-23T13:27:09Z</time>
      </trkpt>
      <trkpt lat="49.85562" lon="2.14518">
        <ele>121.7</ele>
        <time>2022-03-23T13:27:10Z</time>
      </trkpt>
      <trkpt lat="49.85561" lon="2.14521">
        <ele>121.7</ele>
        <time>2022-03-23T13:27:11Z</time>
      </trkpt>
      <trkpt lat="49.85561" lon="2.14523">
        <ele>121.7</ele>
        <time>2022-03-23T13:27:12Z</time>
      </trkpt>
      <trkpt lat="49.85561" lon="2.14524">
        <ele>121.7</ele>
        <time>2022-03-23T13:27:13Z</time>
      </trkpt>
      <trkpt lat="49.8556" lon="2.14527">
        <ele>121.7</ele>
        <time>2022-03-23T13:27:14Z</time>
      </trkpt>
      <trkpt lat="49.8556" lon="2.14528">
        <ele>121.7</ele>
        <time>2022-03-23T13:27:15Z</time>
      </trkpt>
      <trkpt lat="49.8556" lon="2.1453">
        <ele>121.7</ele>
        <time>2022-03-23T13:27:16Z</time>
      </trkpt>
      <trkpt lat="49.8556" lon="2.14532">
        <ele>121.7</ele>
        <time>2022-03-23T13:27:18Z</time>
      </trkpt>
      <trkpt lat="49.8556" lon="2.14534">
        <ele>121.6</ele>
        <time>2022-03-23T13:27:19Z</time>
      </trkpt>
      <trkpt lat="49.85559" lon="2.14537">
        <ele>121.6</ele>
        <time>2022-03-23T13:27:20Z</time>
      </trkpt>
      <trkpt lat="49.85559" lon="2.14539">
        <ele>121.6</ele>
        <time>2022-03-23T13:27:21Z</time>
      </trkpt>
      <trkpt lat="49.85559" lon="2.1454">
        <ele>121.6</ele>
        <time>2022-03-23T13:27:22Z</time>
      </trkpt>
      <trkpt lat="49.85558" lon="2.14543">
        <ele>121.6</ele>
        <time>2022-03-23T13:27:23Z</time>
      </trkpt>
      <trkpt lat="49.85558" lon="2.14545">
        <ele>121.6</ele>
        <time>2022-03-23T13:27:25Z</time>
      </trkpt>
      <trkpt lat="49.85557" lon="2.14547">
        <ele>121.6</ele>
        <time>2022-03-23T13:27:26Z</time>
      </trkpt>
      <trkpt lat="49.85557" lon="2.14549">
        <ele>121.6</ele>
        <time>2022-03-23T13:27:27Z</time>
      </trkpt>
      <trkpt lat="49.85556" lon="2.14551">
        <ele>121.6</ele>
        <time>2022-03-23T13:27:28Z</time>
      </trkpt>
      <trkpt lat="49.85556" lon="2.14553">
        <ele>121.6</ele>
        <time>2022-03-23T13:27:30Z</time>
      </trkpt>
      <trkpt lat="49.85555" lon="2.14555">
        <ele>121.6</ele>
        <time>2022-03-23T13:27:31Z</time>
      </trkpt>
      <trkpt lat="49.85555" lon="2.14559">
        <ele>121.6</ele>
        <time>2022-03-23T13:27:32Z</time>
      </trkpt>
      <trkpt lat="49.85554" lon="2.1456">
        <ele>121.5</ele>
        <time>2022-03-23T13:27:33Z</time>
      </trkpt>
      <trkpt lat="49.85554" lon="2.14561">
        <ele>121.5</ele>
        <time>2022-03-23T13:27:34Z</time>
      </trkpt>
      <trkpt lat="49.85553" lon="2.14565">
        <ele>121.5</ele>
        <time>2022-03-23T13:27:35Z</time>
      </trkpt>
      <trkpt lat="49.85553" lon="2.14566">
        <ele>121.5</ele>
        <time>2022-03-23T13:27:37Z</time>
      </trkpt>
      <trkpt lat="49.85552" lon="2.14568">
        <ele>121.5</ele>
        <time>2022-03-23T13:27:38Z</time>
      </trkpt>
      <trkpt lat="49.85552" lon="2.14569">
        <ele>121.5</ele>
        <time>2022-03-23T13:27:39Z</time>
      </trkpt>
      <trkpt lat="49.85552" lon="2.14571">
        <ele>121.5</ele>
        <time>2022-03-23T13:27:40Z</time>
      </trkpt>
      <trkpt lat="49.85551" lon="2.14574">
        <ele>121.5</ele>
        <time>2022-03-23T13:27:41Z</time>
      </trkpt>
      <trkpt lat="49.85551" lon="2.14575">
        <ele>121.5</ele>
        <time>2022-03-23T13:27:42Z</time>
      </trkpt>
      <trkpt lat="49.8555" lon="2.14577">
        <ele>121.5</ele>
        <time>2022-03-23T13:27:43Z</time>
      </trkpt>
      <trkpt lat="49.8555" lon="2.14579">
        <ele>121.5</ele>
        <time>2022-03-23T13:27:44Z</time>
      </trkpt>
      <trkpt lat="49.85549" lon="2.14581">
        <ele>121.5</ele>
        <time>2022-03-23T13:27:46Z</time>
      </trkpt>
      <trkpt lat="49.85549" lon="2.14582">
        <ele>121.5</ele>
        <time>2022-03-23T13:27:47Z</time>
      </trkpt>
      <trkpt lat="49.85549" lon="2.14585">
        <ele>121.5</ele>
        <time>2022-03-23T13:27:48Z</time>
      </trkpt>
      <trkpt lat="49.85548" lon="2.14586">
        <ele>121.5</ele>
        <time>2022-03-23T13:27:49Z</time>
      </trkpt>
      <trkpt lat="49.85548" lon="2.14588">
        <ele>121.4</ele>
        <time>2022-03-23T13:27:50Z</time>
      </trkpt>
      <trkpt lat="49.85548" lon="2.1459">
        <ele>121.4</ele>
        <time>2022-03-23T13:27:51Z</time>
      </trkpt>
      <trkpt lat="49.85547" lon="2.14592">
        <ele>121.4</ele>
        <time>2022-03-23T13:27:52Z</time>
      </trkpt>
      <trkpt lat="49.85547" lon="2.14593">
        <ele>121.4</ele>
        <time>2022-03-23T13:27:53Z</time>
      </trkpt>
      <trkpt lat="49.85546" lon="2.14596">
        <ele>121.4</ele>
        <time>2022-03-23T13:27:55Z</time>
      </trkpt>
      <trkpt lat="49.85545" lon="2.14597">
        <ele>121.4</ele>
        <time>2022-03-23T13:27:56Z</time>
      </trkpt>
      <trkpt lat="49.85545" lon="2.14598">
        <ele>121.4</ele>
        <time>2022-03-23T13:27:57Z</time>
      </trkpt>
      <trkpt lat="49.85544" lon="2.146">
        <ele>121.4</ele>
        <time>2022-03-23T13:27:58Z</time>
      </trkpt>
      <trkpt lat="49.85544" lon="2.14602">
        <ele>121.4</ele>
        <time>2022-03-23T13:27:59Z</time>
      </trkpt>
      <trkpt lat="49.85543" lon="2.14605">
        <ele>121.4</ele>
        <time>2022-03-23T13:28:00Z</time>
      </trkpt>
      <trkpt lat="49.85543" lon="2.14606">
        <ele>121.4</ele>
        <time>2022-03-23T13:28:01Z</time>
      </trkpt>
      <trkpt lat="49.85542" lon="2.14607">
        <ele>121.4</ele>
        <time>2022-03-23T13:28:02Z</time>
      </trkpt>
      <trkpt lat="49.85542" lon="2.14611">
        <ele>121.4</ele>
        <time>2022-03-23T13:28:03Z</time>
      </trkpt>
      <trkpt lat="49.85541" lon="2.14612">
        <ele>121.4</ele>
        <time>2022-03-23T13:28:05Z</time>
      </trkpt>
      <trkpt lat="49.85541" lon="2.14614">
        <ele>121.3</ele>
        <time>2022-03-23T13:28:06Z</time>
      </trkpt>
      <trkpt lat="49.85541" lon="2.14616">
        <ele>121.3</ele>
        <time>2022-03-23T13:28:07Z</time>
      </trkpt>
      <trkpt lat="49.85541" lon="2.14617">
        <ele>121.3</ele>
        <time>2022-03-23T13:28:08Z</time>
      </trkpt>
      <trkpt lat="49.8554" lon="2.14621">
        <ele>121.3</ele>
        <time>2022-03-23T13:28:09Z</time>
      </trkpt>
      <trkpt lat="49.8554" lon="2.14622">
        <ele>121.3</ele>
        <time>2022-03-23T13:28:10Z</time>
      </trkpt>
      <trkpt lat="49.8554" lon="2.14623">
        <ele>121.3</ele>
        <time>2022-03-23T13:28:11Z</time>
      </trkpt>
      <trkpt lat="49.8554" lon="2.14626">
        <ele>121.3</ele>
        <time>2022-03-23T13:28:12Z</time>
      </trkpt>
      <trkpt lat="49.85539" lon="2.14627">
        <ele>121.3</ele>
        <time>2022-03-23T13:28:14Z</time>
      </trkpt>
      <trkpt lat="49.85539" lon="2.14629">
        <ele>121.3</ele>
        <time>2022-03-23T13:28:15Z</time>
      </trkpt>
      <trkpt lat="49.85539" lon="2.14632">
        <ele>121.2</ele>
        <time>2022-03-23T13:28:16Z</time>
      </trkpt>
      <trkpt lat="49.85539" lon="2.14633">
        <ele>121.2</ele>
        <time>2022-03-23T13:28:17Z</time>
      </trkpt>
      <trkpt lat="49.85538" lon="2.14635">
        <ele>121.2</ele>
        <time>2022-03-23T13:28:18Z</time>
      </trkpt>
      <trkpt lat="49.85538" lon="2.14638">
        <ele>121.2</ele>
        <time>2022-03-23T13:28:19Z</time>
      </trkpt>
      <trkpt lat="49.85538" lon="2.14639">
        <ele>121.2</ele>
        <time>2022-03-23T13:28:20Z</time>
      </trkpt>
      <trkpt lat="49.85538" lon="2.14641">
        <ele>121.2</ele>
        <time>2022-03-23T13:28:21Z</time>
      </trkpt>
      <trkpt lat="49.85538" lon="2.14643">
        <ele>121.2</ele>
        <time>2022-03-23T13:28:23Z</time>
      </trkpt>
      <trkpt lat="49.85538" lon="2.14645">
        <ele>121.1</ele>
        <time>2022-03-23T13:28:24Z</time>
      </trkpt>
      <trkpt lat="49.85537" lon="2.14647">
        <ele>121.1</ele>
        <time>2022-03-23T13:28:25Z</time>
      </trkpt>
      <trkpt lat="49.85537" lon="2.14649">
        <ele>121.1</ele>
        <time>2022-03-23T13:28:26Z</time>
      </trkpt>
      <trkpt lat="49.85537" lon="2.14651">
        <ele>121.1</ele>
        <time>2022-03-23T13:28:27Z</time>
      </trkpt>
      <trkpt lat="49.85537" lon="2.14653">
        <ele>121.1</ele>
        <time>2022-03-23T13:28:28Z</time>
      </trkpt>
      <trkpt lat="49.85537" lon="2.14655">
        <ele>121.1</ele>
        <time>2022-03-23T13:28:29Z</time>
      </trkpt>
      <trkpt lat="49.85536" lon="2.14657">
        <ele>121.1</ele>
        <time>2022-03-23T13:28:30Z</time>
      </trkpt>
      <trkpt lat="49.85536" lon="2.14659">
        <ele>121</ele>
        <time>2022-03-23T13:28:32Z</time>
      </trkpt>
      <trkpt lat="49.85536" lon="2.14663">
        <ele>121</ele>
        <time>2022-03-23T13:28:33Z</time>
      </trkpt>
      <trkpt lat="49.85536" lon="2.14664">
        <ele>121</ele>
        <time>2022-03-23T13:28:34Z</time>
      </trkpt>
      <trkpt lat="49.85536" lon="2.14665">
        <ele>121</ele>
        <time>2022-03-23T13:28:35Z</time>
      </trkpt>
      <trkpt lat="49.85536" lon="2.14667">
        <ele>121</ele>
        <time>2022-03-23T13:28:36Z</time>
      </trkpt>
      <trkpt lat="49.85536" lon="2.1467">
        <ele>121</ele>
        <time>2022-03-23T13:28:37Z</time>
      </trkpt>
      <trkpt lat="49.85535" lon="2.14672">
        <ele>121</ele>
        <time>2022-03-23T13:28:38Z</time>
      </trkpt>
      <trkpt lat="49.85535" lon="2.14674">
        <ele>121</ele>
        <time>2022-03-23T13:28:40Z</time>
      </trkpt>
      <trkpt lat="49.85535" lon="2.14676">
        <ele>121</ele>
        <time>2022-03-23T13:28:41Z</time>
      </trkpt>
      <trkpt lat="49.85534" lon="2.14678">
        <ele>121</ele>
        <time>2022-03-23T13:28:42Z</time>
      </trkpt>
      <trkpt lat="49.85534" lon="2.14681">
        <ele>121</ele>
        <time>2022-03-23T13:28:43Z</time>
      </trkpt>
      <trkpt lat="49.85533" lon="2.14682">
        <ele>121</ele>
        <time>2022-03-23T13:28:44Z</time>
      </trkpt>
      <trkpt lat="49.85533" lon="2.14683">
        <ele>121</ele>
        <time>2022-03-23T13:28:45Z</time>
      </trkpt>
      <trkpt lat="49.85532" lon="2.14685">
        <ele>121</ele>
        <time>2022-03-23T13:28:46Z</time>
      </trkpt>
      <trkpt lat="49.85531" lon="2.14687">
        <ele>121</ele>
        <time>2022-03-23T13:28:47Z</time>
      </trkpt>
      <trkpt lat="49.8553" lon="2.1469">
        <ele>121</ele>
        <time>2022-03-23T13:28:48Z</time>
      </trkpt>
      <trkpt lat="49.8553" lon="2.14692">
        <ele>121</ele>
        <time>2022-03-23T13:28:50Z</time>
      </trkpt>
      <trkpt lat="49.85529" lon="2.14693">
        <ele>120.9</ele>
        <time>2022-03-23T13:28:51Z</time>
      </trkpt>
      <trkpt lat="49.85529" lon="2.14695">
        <ele>120.9</ele>
        <time>2022-03-23T13:28:52Z</time>
      </trkpt>
      <trkpt lat="49.85528" lon="2.14697">
        <ele>120.9</ele>
        <time>2022-03-23T13:28:53Z</time>
      </trkpt>
      <trkpt lat="49.85528" lon="2.14698">
        <ele>120.9</ele>
        <time>2022-03-23T13:28:54Z</time>
      </trkpt>
      <trkpt lat="49.85527" lon="2.147">
        <ele>120.9</ele>
        <time>2022-03-23T13:28:55Z</time>
      </trkpt>
      <trkpt lat="49.85527" lon="2.14702">
        <ele>120.9</ele>
        <time>2022-03-23T13:28:56Z</time>
      </trkpt>
      <trkpt lat="49.85526" lon="2.14704">
        <ele>120.9</ele>
        <time>2022-03-23T13:28:57Z</time>
      </trkpt>
      <trkpt lat="49.85525" lon="2.14706">
        <ele>120.9</ele>
        <time>2022-03-23T13:28:59Z</time>
      </trkpt>
      <trkpt lat="49.85524" lon="2.14709">
        <ele>120.9</ele>
        <time>2022-03-23T13:29:00Z</time>
      </trkpt>
      <trkpt lat="49.85524" lon="2.1471">
        <ele>120.9</ele>
        <time>2022-03-23T13:29:01Z</time>
      </trkpt>
      <trkpt lat="49.85523" lon="2.14711">
        <ele>120.9</ele>
        <time>2022-03-23T13:29:02Z</time>
      </trkpt>
      <trkpt lat="49.85523" lon="2.14714">
        <ele>120.8</ele>
        <time>2022-03-23T13:29:03Z</time>
      </trkpt>
      <trkpt lat="49.85522" lon="2.14716">
        <ele>120.8</ele>
        <time>2022-03-23T13:29:04Z</time>
      </trkpt>
      <trkpt lat="49.85522" lon="2.14718">
        <ele>120.8</ele>
        <time>2022-03-23T13:29:05Z</time>
      </trkpt>
      <trkpt lat="49.85522" lon="2.1472">
        <ele>120.8</ele>
        <time>2022-03-23T13:29:06Z</time>
      </trkpt>
      <trkpt lat="49.85521" lon="2.14722">
        <ele>120.8</ele>
        <time>2022-03-23T13:29:08Z</time>
      </trkpt>
      <trkpt lat="49.85521" lon="2.14724">
        <ele>120.8</ele>
        <time>2022-03-23T13:29:09Z</time>
      </trkpt>
      <trkpt lat="49.85521" lon="2.14726">
        <ele>120.8</ele>
        <time>2022-03-23T13:29:10Z</time>
      </trkpt>
      <trkpt lat="49.85521" lon="2.14727">
        <ele>120.8</ele>
        <time>2022-03-23T13:29:11Z</time>
      </trkpt>
      <trkpt lat="49.8552" lon="2.14729">
        <ele>120.8</ele>
        <time>2022-03-23T13:29:12Z</time>
      </trkpt>
      <trkpt lat="49.8552" lon="2.14732">
        <ele>120.7</ele>
        <time>2022-03-23T13:29:13Z</time>
      </trkpt>
      <trkpt lat="49.8552" lon="2.14734">
        <ele>120.7</ele>
        <time>2022-03-23T13:29:14Z</time>
      </trkpt>
      <trkpt lat="49.8552" lon="2.14735">
        <ele>120.7</ele>
        <time>2022-03-23T13:29:15Z</time>
      </trkpt>
      <trkpt lat="49.8552" lon="2.14737">
        <ele>120.7</ele>
        <time>2022-03-23T13:29:17Z</time>
      </trkpt>
      <trkpt lat="49.85519" lon="2.14739">
        <ele>120.7</ele>
        <time>2022-03-23T13:29:18Z</time>
      </trkpt>
      <trkpt lat="49.8552" lon="2.14742">
        <ele>120.7</ele>
        <time>2022-03-23T13:29:19Z</time>
      </trkpt>
      <trkpt lat="49.85519" lon="2.14744">
        <ele>120.7</ele>
        <time>2022-03-23T13:29:20Z</time>
      </trkpt>
      <trkpt lat="49.85519" lon="2.14745">
        <ele>120.7</ele>
        <time>2022-03-23T13:29:21Z</time>
      </trkpt>
      <trkpt lat="49.85519" lon="2.14748">
        <ele>120.6</ele>
        <time>2022-03-23T13:29:22Z</time>
      </trkpt>
      <trkpt lat="49.85518" lon="2.14749">
        <ele>120.6</ele>
        <time>2022-03-23T13:29:23Z</time>
      </trkpt>
      <trkpt lat="49.85518" lon="2.14751">
        <ele>120.6</ele>
        <time>2022-03-23T13:29:24Z</time>
      </trkpt>
      <trkpt lat="49.85518" lon="2.14754">
        <ele>120.6</ele>
        <time>2022-03-23T13:29:26Z</time>
      </trkpt>
      <trkpt lat="49.85518" lon="2.14755">
        <ele>120.6</ele>
        <time>2022-03-23T13:29:27Z</time>
      </trkpt>
      <trkpt lat="49.85518" lon="2.14757">
        <ele>120.6</ele>
        <time>2022-03-23T13:29:28Z</time>
      </trkpt>
      <trkpt lat="49.85518" lon="2.14759">
        <ele>120.6</ele>
        <time>2022-03-23T13:29:29Z</time>
      </trkpt>
      <trkpt lat="49.85517" lon="2.14761">
        <ele>120.6</ele>
        <time>2022-03-23T13:29:30Z</time>
      </trkpt>
      <trkpt lat="49.85517" lon="2.14763">
        <ele>120.6</ele>
        <time>2022-03-23T13:29:31Z</time>
      </trkpt>
      <trkpt lat="49.85517" lon="2.14765">
        <ele>120.6</ele>
        <time>2022-03-23T13:29:32Z</time>
      </trkpt>
      <trkpt lat="49.85517" lon="2.14768">
        <ele>120.6</ele>
        <time>2022-03-23T13:29:33Z</time>
      </trkpt>
      <trkpt lat="49.85516" lon="2.1477">
        <ele>120.6</ele>
        <time>2022-03-23T13:29:35Z</time>
      </trkpt>
      <trkpt lat="49.85516" lon="2.14771">
        <ele>120.5</ele>
        <time>2022-03-23T13:29:36Z</time>
      </trkpt>
      <trkpt lat="49.85516" lon="2.14773">
        <ele>120.5</ele>
        <time>2022-03-23T13:29:37Z</time>
      </trkpt>
      <trkpt lat="49.85515" lon="2.14775">
        <ele>120.5</ele>
        <time>2022-03-23T13:29:38Z</time>
      </trkpt>
      <trkpt lat="49.85515" lon="2.14777">
        <ele>120.5</ele>
        <time>2022-03-23T13:29:39Z</time>
      </trkpt>
      <trkpt lat="49.85514" lon="2.14779">
        <ele>120.5</ele>
        <time>2022-03-23T13:29:40Z</time>
      </trkpt>
      <trkpt lat="49.85514" lon="2.14783">
        <ele>120.5</ele>
        <time>2022-03-23T13:29:41Z</time>
      </trkpt>
      <trkpt lat="49.85513" lon="2.14784">
        <ele>120.5</ele>
        <time>2022-03-23T13:29:42Z</time>
      </trkpt>
      <trkpt lat="49.85513" lon="2.14785">
        <ele>120.5</ele>
        <time>2022-03-23T13:29:43Z</time>
      </trkpt>
      <trkpt lat="49.85513" lon="2.14787">
        <ele>120.5</ele>
        <time>2022-03-23T13:29:45Z</time>
      </trkpt>
      <trkpt lat="49.85512" lon="2.1479">
        <ele>120.5</ele>
        <time>2022-03-23T13:29:46Z</time>
      </trkpt>
      <trkpt lat="49.85512" lon="2.14791">
        <ele>120.4</ele>
        <time>2022-03-23T13:29:47Z</time>
      </trkpt>
      <trkpt lat="49.85511" lon="2.14794">
        <ele>120.4</ele>
        <time>2022-03-23T13:29:48Z</time>
      </trkpt>
      <trkpt lat="49.8551" lon="2.14797">
        <ele>120.4</ele>
        <time>2022-03-23T13:29:49Z</time>
      </trkpt>
      <trkpt lat="49.8551" lon="2.14798">
        <ele>120.4</ele>
        <time>2022-03-23T13:29:50Z</time>
      </trkpt>
      <trkpt lat="49.8551" lon="2.14799">
        <ele>120.4</ele>
        <time>2022-03-23T13:29:51Z</time>
      </trkpt>
      <trkpt lat="49.85509" lon="2.148">
        <ele>120.4</ele>
        <time>2022-03-23T13:29:52Z</time>
      </trkpt>
      <trkpt lat="49.85509" lon="2.14802">
        <ele>120.4</ele>
        <time>2022-03-23T13:29:53Z</time>
      </trkpt>
      <trkpt lat="49.85509" lon="2.14804">
        <ele>120.3</ele>
        <time>2022-03-23T13:29:55Z</time>
      </trkpt>
      <trkpt lat="49.85508" lon="2.14805">
        <ele>120.3</ele>
        <time>2022-03-23T13:29:56Z</time>
      </trkpt>
      <trkpt lat="49.85507" lon="2.14807">
        <ele>120.3</ele>
        <time>2022-03-23T13:29:57Z</time>
      </trkpt>
      <trkpt lat="49.85507" lon="2.14808">
        <ele>120.3</ele>
        <time>2022-03-23T13:29:58Z</time>
      </trkpt>
      <trkpt lat="49.85506" lon="2.14811">
        <ele>120.3</ele>
        <time>2022-03-23T13:29:59Z</time>
      </trkpt>
      <trkpt lat="49.85506" lon="2.14812">
        <ele>120.3</ele>
        <time>2022-03-23T13:30:00Z</time>
      </trkpt>
      <trkpt lat="49.85506" lon="2.14813">
        <ele>120.2</ele>
        <time>2022-03-23T13:30:01Z</time>
      </trkpt>
      <trkpt lat="49.85505" lon="2.14815">
        <ele>120.2</ele>
        <time>2022-03-23T13:30:02Z</time>
      </trkpt>
      <trkpt lat="49.85505" lon="2.14817">
        <ele>120.2</ele>
        <time>2022-03-23T13:30:03Z</time>
      </trkpt>
      <trkpt lat="49.85504" lon="2.14819">
        <ele>120.2</ele>
        <time>2022-03-23T13:30:05Z</time>
      </trkpt>
      <trkpt lat="49.85504" lon="2.14822">
        <ele>120.2</ele>
        <time>2022-03-23T13:30:06Z</time>
      </trkpt>
      <trkpt lat="49.85504" lon="2.14823">
        <ele>120.2</ele>
        <time>2022-03-23T13:30:07Z</time>
      </trkpt>
      <trkpt lat="49.85504" lon="2.14824">
        <ele>120.1</ele>
        <time>2022-03-23T13:30:08Z</time>
      </trkpt>
      <trkpt lat="49.85503" lon="2.14827">
        <ele>120.1</ele>
        <time>2022-03-23T13:30:09Z</time>
      </trkpt>
      <trkpt lat="49.85503" lon="2.14829">
        <ele>120.1</ele>
        <time>2022-03-23T13:30:10Z</time>
      </trkpt>
      <trkpt lat="49.85503" lon="2.14831">
        <ele>120.1</ele>
        <time>2022-03-23T13:30:11Z</time>
      </trkpt>
      <trkpt lat="49.85503" lon="2.14833">
        <ele>120.1</ele>
        <time>2022-03-23T13:30:12Z</time>
      </trkpt>
      <trkpt lat="49.85502" lon="2.14835">
        <ele>120.1</ele>
        <time>2022-03-23T13:30:13Z</time>
      </trkpt>
      <trkpt lat="49.85502" lon="2.14837">
        <ele>120.1</ele>
        <time>2022-03-23T13:30:14Z</time>
      </trkpt>
      <trkpt lat="49.85501" lon="2.14839">
        <ele>120</ele>
        <time>2022-03-23T13:30:16Z</time>
      </trkpt>
      <trkpt lat="49.85501" lon="2.14841">
        <ele>120</ele>
        <time>2022-03-23T13:30:17Z</time>
      </trkpt>
      <trkpt lat="49.855" lon="2.14843">
        <ele>120</ele>
        <time>2022-03-23T13:30:18Z</time>
      </trkpt>
      <trkpt lat="49.855" lon="2.14844">
        <ele>120</ele>
        <time>2022-03-23T13:30:19Z</time>
      </trkpt>
      <trkpt lat="49.85499" lon="2.14846">
        <ele>120</ele>
        <time>2022-03-23T13:30:20Z</time>
      </trkpt>
      <trkpt lat="49.85498" lon="2.14849">
        <ele>120</ele>
        <time>2022-03-23T13:30:21Z</time>
      </trkpt>
      <trkpt lat="49.85498" lon="2.1485">
        <ele>120</ele>
        <time>2022-03-23T13:30:22Z</time>
      </trkpt>
      <trkpt lat="49.85498" lon="2.14851">
        <ele>120</ele>
        <time>2022-03-23T13:30:23Z</time>
      </trkpt>
      <trkpt lat="49.85497" lon="2.14853">
        <ele>120</ele>
        <time>2022-03-23T13:30:24Z</time>
      </trkpt>
      <trkpt lat="49.85497" lon="2.14855">
        <ele>120</ele>
        <time>2022-03-23T13:30:26Z</time>
      </trkpt>
      <trkpt lat="49.85497" lon="2.14857">
        <ele>120</ele>
        <time>2022-03-23T13:30:27Z</time>
      </trkpt>
      <trkpt lat="49.85496" lon="2.14859">
        <ele>119.9</ele>
        <time>2022-03-23T13:30:28Z</time>
      </trkpt>
      <trkpt lat="49.85496" lon="2.14861">
        <ele>119.9</ele>
        <time>2022-03-23T13:30:29Z</time>
      </trkpt>
      <trkpt lat="49.85495" lon="2.14864">
        <ele>119.9</ele>
        <time>2022-03-23T13:30:30Z</time>
      </trkpt>
      <trkpt lat="49.85495" lon="2.14865">
        <ele>119.9</ele>
        <time>2022-03-23T13:30:31Z</time>
      </trkpt>
      <trkpt lat="49.85495" lon="2.14867">
        <ele>119.9</ele>
        <time>2022-03-23T13:30:32Z</time>
      </trkpt>
      <trkpt lat="49.85495" lon="2.14869">
        <ele>119.9</ele>
        <time>2022-03-23T13:30:33Z</time>
      </trkpt>
      <trkpt lat="49.85494" lon="2.14871">
        <ele>119.8</ele>
        <time>2022-03-23T13:30:34Z</time>
      </trkpt>
      <trkpt lat="49.85494" lon="2.14873">
        <ele>119.8</ele>
        <time>2022-03-23T13:30:36Z</time>
      </trkpt>
      <trkpt lat="49.85493" lon="2.14876">
        <ele>119.8</ele>
        <time>2022-03-23T13:30:37Z</time>
      </trkpt>
      <trkpt lat="49.85493" lon="2.14877">
        <ele>119.8</ele>
        <time>2022-03-23T13:30:38Z</time>
      </trkpt>
      <trkpt lat="49.85492" lon="2.14878">
        <ele>119.8</ele>
        <time>2022-03-23T13:30:39Z</time>
      </trkpt>
      <trkpt lat="49.85492" lon="2.14881">
        <ele>119.7</ele>
        <time>2022-03-23T13:30:40Z</time>
      </trkpt>
      <trkpt lat="49.85491" lon="2.14883">
        <ele>119.7</ele>
        <time>2022-03-23T13:30:41Z</time>
      </trkpt>
      <trkpt lat="49.85491" lon="2.14884">
        <ele>119.7</ele>
        <time>2022-03-23T13:30:42Z</time>
      </trkpt>
      <trkpt lat="49.85491" lon="2.14886">
        <ele>119.7</ele>
        <time>2022-03-23T13:30:43Z</time>
      </trkpt>
      <trkpt lat="49.85491" lon="2.14888">
        <ele>119.7</ele>
        <time>2022-03-23T13:30:44Z</time>
      </trkpt>
      <trkpt lat="49.8549" lon="2.14891">
        <ele>119.7</ele>
        <time>2022-03-23T13:30:46Z</time>
      </trkpt>
      <trkpt lat="49.8549" lon="2.14893">
        <ele>119.7</ele>
        <time>2022-03-23T13:30:47Z</time>
      </trkpt>
      <trkpt lat="49.8549" lon="2.14895">
        <ele>119.7</ele>
        <time>2022-03-23T13:30:48Z</time>
      </trkpt>
      <trkpt lat="49.8549" lon="2.14896">
        <ele>119.6</ele>
        <time>2022-03-23T13:30:49Z</time>
      </trkpt>
      <trkpt lat="49.85489" lon="2.14898">
        <ele>119.6</ele>
        <time>2022-03-23T13:30:50Z</time>
      </trkpt>
      <trkpt lat="49.85489" lon="2.149">
        <ele>119.6</ele>
        <time>2022-03-23T13:30:51Z</time>
      </trkpt>
      <trkpt lat="49.85488" lon="2.14902">
        <ele>119.6</ele>
        <time>2022-03-23T13:30:52Z</time>
      </trkpt>
      <trkpt lat="49.85488" lon="2.14904">
        <ele>119.6</ele>
        <time>2022-03-23T13:30:53Z</time>
      </trkpt>
      <trkpt lat="49.85488" lon="2.14906">
        <ele>119.6</ele>
        <time>2022-03-23T13:30:54Z</time>
      </trkpt>
      <trkpt lat="49.85487" lon="2.14908">
        <ele>119.6</ele>
        <time>2022-03-23T13:30:55Z</time>
      </trkpt>
      <trkpt lat="49.85487" lon="2.1491">
        <ele>119.5</ele>
        <time>2022-03-23T13:30:57Z</time>
      </trkpt>
      <trkpt lat="49.85486" lon="2.14912">
        <ele>119.5</ele>
        <time>2022-03-23T13:30:58Z</time>
      </trkpt>
      <trkpt lat="49.85486" lon="2.14914">
        <ele>119.5</ele>
        <time>2022-03-23T13:30:59Z</time>
      </trkpt>
      <trkpt lat="49.85486" lon="2.14916">
        <ele>119.5</ele>
        <time>2022-03-23T13:31:00Z</time>
      </trkpt>
      <trkpt lat="49.85485" lon="2.14919">
        <ele>119.5</ele>
        <time>2022-03-23T13:31:01Z</time>
      </trkpt>
      <trkpt lat="49.85485" lon="2.1492">
        <ele>119.4</ele>
        <time>2022-03-23T13:31:02Z</time>
      </trkpt>
      <trkpt lat="49.85485" lon="2.14921">
        <ele>119.4</ele>
        <time>2022-03-23T13:31:03Z</time>
      </trkpt>
      <trkpt lat="49.85484" lon="2.14925">
        <ele>119.4</ele>
        <time>2022-03-23T13:31:04Z</time>
      </trkpt>
      <trkpt lat="49.85484" lon="2.14926">
        <ele>119.4</ele>
        <time>2022-03-23T13:31:05Z</time>
      </trkpt>
      <trkpt lat="49.85484" lon="2.14927">
        <ele>119.4</ele>
        <time>2022-03-23T13:31:06Z</time>
      </trkpt>
      <trkpt lat="49.85484" lon="2.1493">
        <ele>119.4</ele>
        <time>2022-03-23T13:31:08Z</time>
      </trkpt>
      <trkpt lat="49.85484" lon="2.14932">
        <ele>119.3</ele>
        <time>2022-03-23T13:31:09Z</time>
      </trkpt>
      <trkpt lat="49.85483" lon="2.14933">
        <ele>119.3</ele>
        <time>2022-03-23T13:31:10Z</time>
      </trkpt>
      <trkpt lat="49.85483" lon="2.14934">
        <ele>119.3</ele>
        <time>2022-03-23T13:31:11Z</time>
      </trkpt>
      <trkpt lat="49.85483" lon="2.14936">
        <ele>119.3</ele>
        <time>2022-03-23T13:31:12Z</time>
      </trkpt>
      <trkpt lat="49.85483" lon="2.14938">
        <ele>119.3</ele>
        <time>2022-03-23T13:31:13Z</time>
      </trkpt>
      <trkpt lat="49.85482" lon="2.1494">
        <ele>119.3</ele>
        <time>2022-03-23T13:31:14Z</time>
      </trkpt>
      <trkpt lat="49.85482" lon="2.14942">
        <ele>119.2</ele>
        <time>2022-03-23T13:31:15Z</time>
      </trkpt>
      <trkpt lat="49.85481" lon="2.14946">
        <ele>119.2</ele>
        <time>2022-03-23T13:31:16Z</time>
      </trkpt>
      <trkpt lat="49.85481" lon="2.14947">
        <ele>119.2</ele>
        <time>2022-03-23T13:31:18Z</time>
      </trkpt>
      <trkpt lat="49.85481" lon="2.14948">
        <ele>119.2</ele>
        <time>2022-03-23T13:31:19Z</time>
      </trkpt>
      <trkpt lat="49.8548" lon="2.1495">
        <ele>119.2</ele>
        <time>2022-03-23T13:31:20Z</time>
      </trkpt>
      <trkpt lat="49.8548" lon="2.14951">
        <ele>119.1</ele>
        <time>2022-03-23T13:31:21Z</time>
      </trkpt>
      <trkpt lat="49.8548" lon="2.14953">
        <ele>119.1</ele>
        <time>2022-03-23T13:31:22Z</time>
      </trkpt>
      <trkpt lat="49.85479" lon="2.14955">
        <ele>119.1</ele>
        <time>2022-03-23T13:31:23Z</time>
      </trkpt>
      <trkpt lat="49.85479" lon="2.14957">
        <ele>119.1</ele>
        <time>2022-03-23T13:31:24Z</time>
      </trkpt>
      <trkpt lat="49.85478" lon="2.14959">
        <ele>119.1</ele>
        <time>2022-03-23T13:31:25Z</time>
      </trkpt>
      <trkpt lat="49.85478" lon="2.14961">
        <ele>119</ele>
        <time>2022-03-23T13:31:26Z</time>
      </trkpt>
      <trkpt lat="49.85478" lon="2.14963">
        <ele>119</ele>
        <time>2022-03-23T13:31:28Z</time>
      </trkpt>
      <trkpt lat="49.85477" lon="2.14964">
        <ele>119</ele>
        <time>2022-03-23T13:31:29Z</time>
      </trkpt>
      <trkpt lat="49.85477" lon="2.14966">
        <ele>119</ele>
        <time>2022-03-23T13:31:30Z</time>
      </trkpt>
      <trkpt lat="49.85477" lon="2.14968">
        <ele>119</ele>
        <time>2022-03-23T13:31:31Z</time>
      </trkpt>
      <trkpt lat="49.85476" lon="2.14971">
        <ele>118.9</ele>
        <time>2022-03-23T13:31:32Z</time>
      </trkpt>
      <trkpt lat="49.85476" lon="2.14972">
        <ele>118.9</ele>
        <time>2022-03-23T13:31:33Z</time>
      </trkpt>
      <trkpt lat="49.85476" lon="2.14973">
        <ele>118.9</ele>
        <time>2022-03-23T13:31:34Z</time>
      </trkpt>
      <trkpt lat="49.85476" lon="2.14977">
        <ele>118.9</ele>
        <time>2022-03-23T13:31:35Z</time>
      </trkpt>
      <trkpt lat="49.85476" lon="2.14978">
        <ele>118.9</ele>
        <time>2022-03-23T13:31:37Z</time>
      </trkpt>
      <trkpt lat="49.85476" lon="2.14979">
        <ele>118.9</ele>
        <time>2022-03-23T13:31:38Z</time>
      </trkpt>
      <trkpt lat="49.85476" lon="2.14982">
        <ele>118.9</ele>
        <time>2022-03-23T13:31:39Z</time>
      </trkpt>
      <trkpt lat="49.85476" lon="2.14984">
        <ele>118.9</ele>
        <time>2022-03-23T13:31:40Z</time>
      </trkpt>
      <trkpt lat="49.85476" lon="2.14985">
        <ele>118.8</ele>
        <time>2022-03-23T13:31:41Z</time>
      </trkpt>
      <trkpt lat="49.85476" lon="2.14987">
        <ele>118.8</ele>
        <time>2022-03-23T13:31:42Z</time>
      </trkpt>
      <trkpt lat="49.85476" lon="2.1499">
        <ele>118.8</ele>
        <time>2022-03-23T13:31:43Z</time>
      </trkpt>
      <trkpt lat="49.85475" lon="2.14994">
        <ele>118.8</ele>
        <time>2022-03-23T13:31:44Z</time>
      </trkpt>
      <trkpt lat="49.85475" lon="2.14995">
        <ele>118.8</ele>
        <time>2022-03-23T13:31:46Z</time>
      </trkpt>
      <trkpt lat="49.85475" lon="2.14997">
        <ele>118.8</ele>
        <time>2022-03-23T13:31:47Z</time>
      </trkpt>
      <trkpt lat="49.85475" lon="2.14998">
        <ele>118.7</ele>
        <time>2022-03-23T13:31:48Z</time>
      </trkpt>
      <trkpt lat="49.85475" lon="2.15">
        <ele>118.7</ele>
        <time>2022-03-23T13:31:49Z</time>
      </trkpt>
      <trkpt lat="49.85475" lon="2.15003">
        <ele>118.7</ele>
        <time>2022-03-23T13:31:50Z</time>
      </trkpt>
      <trkpt lat="49.85475" lon="2.15005">
        <ele>118.7</ele>
        <time>2022-03-23T13:31:51Z</time>
      </trkpt>
      <trkpt lat="49.85475" lon="2.15006">
        <ele>118.7</ele>
        <time>2022-03-23T13:31:52Z</time>
      </trkpt>
      <trkpt lat="49.85475" lon="2.15008">
        <ele>118.7</ele>
        <time>2022-03-23T13:31:53Z</time>
      </trkpt>
      <trkpt lat="49.85474" lon="2.1501">
        <ele>118.6</ele>
        <time>2022-03-23T13:31:54Z</time>
      </trkpt>
      <trkpt lat="49.85474" lon="2.15013">
        <ele>118.6</ele>
        <time>2022-03-23T13:31:55Z</time>
      </trkpt>
      <trkpt lat="49.85474" lon="2.15015">
        <ele>118.6</ele>
        <time>2022-03-23T13:31:56Z</time>
      </trkpt>
      <trkpt lat="49.85473" lon="2.15018">
        <ele>118.6</ele>
        <time>2022-03-23T13:31:58Z</time>
      </trkpt>
      <trkpt lat="49.85473" lon="2.15019">
        <ele>118.6</ele>
        <time>2022-03-23T13:31:59Z</time>
      </trkpt>
      <trkpt lat="49.85473" lon="2.15021">
        <ele>118.6</ele>
        <time>2022-03-23T13:32:00Z</time>
      </trkpt>
      <trkpt lat="49.85473" lon="2.15023">
        <ele>118.6</ele>
        <time>2022-03-23T13:32:01Z</time>
      </trkpt>
      <trkpt lat="49.85473" lon="2.15025">
        <ele>118.5</ele>
        <time>2022-03-23T13:32:02Z</time>
      </trkpt>
      <trkpt lat="49.85472" lon="2.15027">
        <ele>118.5</ele>
        <time>2022-03-23T13:32:03Z</time>
      </trkpt>
      <trkpt lat="49.85472" lon="2.15029">
        <ele>118.5</ele>
        <time>2022-03-23T13:32:04Z</time>
      </trkpt>
      <trkpt lat="49.85471" lon="2.15033">
        <ele>118.5</ele>
        <time>2022-03-23T13:32:05Z</time>
      </trkpt>
      <trkpt lat="49.85471" lon="2.15034">
        <ele>118.5</ele>
        <time>2022-03-23T13:32:07Z</time>
      </trkpt>
      <trkpt lat="49.85471" lon="2.15036">
        <ele>118.5</ele>
        <time>2022-03-23T13:32:08Z</time>
      </trkpt>
      <trkpt lat="49.85471" lon="2.15037">
        <ele>118.5</ele>
        <time>2022-03-23T13:32:09Z</time>
      </trkpt>
      <trkpt lat="49.8547" lon="2.15039">
        <ele>118.5</ele>
        <time>2022-03-23T13:32:10Z</time>
      </trkpt>
      <trkpt lat="49.8547" lon="2.15041">
        <ele>118.4</ele>
        <time>2022-03-23T13:32:11Z</time>
      </trkpt>
      <trkpt lat="49.85469" lon="2.15043">
        <ele>118.4</ele>
        <time>2022-03-23T13:32:12Z</time>
      </trkpt>
      <trkpt lat="49.85469" lon="2.15045">
        <ele>118.4</ele>
        <time>2022-03-23T13:32:13Z</time>
      </trkpt>
      <trkpt lat="49.85468" lon="2.15047">
        <ele>118.4</ele>
        <time>2022-03-23T13:32:14Z</time>
      </trkpt>
      <trkpt lat="49.85468" lon="2.15049">
        <ele>118.4</ele>
        <time>2022-03-23T13:32:15Z</time>
      </trkpt>
      <trkpt lat="49.85467" lon="2.15051">
        <ele>118.4</ele>
        <time>2022-03-23T13:32:17Z</time>
      </trkpt>
      <trkpt lat="49.85467" lon="2.15053">
        <ele>118.4</ele>
        <time>2022-03-23T13:32:18Z</time>
      </trkpt>
      <trkpt lat="49.85467" lon="2.15054">
        <ele>118.3</ele>
        <time>2022-03-23T13:32:19Z</time>
      </trkpt>
      <trkpt lat="49.85466" lon="2.15056">
        <ele>118.3</ele>
        <time>2022-03-23T13:32:20Z</time>
      </trkpt>
      <trkpt lat="49.85466" lon="2.15059">
        <ele>118.3</ele>
        <time>2022-03-23T13:32:21Z</time>
      </trkpt>
      <trkpt lat="49.85465" lon="2.15061">
        <ele>118.3</ele>
        <time>2022-03-23T13:32:22Z</time>
      </trkpt>
      <trkpt lat="49.85465" lon="2.15062">
        <ele>118.3</ele>
        <time>2022-03-23T13:32:23Z</time>
      </trkpt>
      <trkpt lat="49.85465" lon="2.15065">
        <ele>118.2</ele>
        <time>2022-03-23T13:32:24Z</time>
      </trkpt>
      <trkpt lat="49.85465" lon="2.15067">
        <ele>118.2</ele>
        <time>2022-03-23T13:32:26Z</time>
      </trkpt>
      <trkpt lat="49.85464" lon="2.15068">
        <ele>118.2</ele>
        <time>2022-03-23T13:32:27Z</time>
      </trkpt>
      <trkpt lat="49.85464" lon="2.15071">
        <ele>118.2</ele>
        <time>2022-03-23T13:32:28Z</time>
      </trkpt>
      <trkpt lat="49.85464" lon="2.15072">
        <ele>118.2</ele>
        <time>2022-03-23T13:32:29Z</time>
      </trkpt>
      <trkpt lat="49.85464" lon="2.15074">
        <ele>118.2</ele>
        <time>2022-03-23T13:32:30Z</time>
      </trkpt>
      <trkpt lat="49.85463" lon="2.15076">
        <ele>118.1</ele>
        <time>2022-03-23T13:32:31Z</time>
      </trkpt>
      <trkpt lat="49.85463" lon="2.15078">
        <ele>118.1</ele>
        <time>2022-03-23T13:32:32Z</time>
      </trkpt>
      <trkpt lat="49.85462" lon="2.1508">
        <ele>118.1</ele>
        <time>2022-03-23T13:32:33Z</time>
      </trkpt>
      <trkpt lat="49.85462" lon="2.15083">
        <ele>118.1</ele>
        <time>2022-03-23T13:32:35Z</time>
      </trkpt>
      <trkpt lat="49.85462" lon="2.15085">
        <ele>118.1</ele>
        <time>2022-03-23T13:32:36Z</time>
      </trkpt>
      <trkpt lat="49.85462" lon="2.15086">
        <ele>118.1</ele>
        <time>2022-03-23T13:32:37Z</time>
      </trkpt>
      <trkpt lat="49.85462" lon="2.15088">
        <ele>118</ele>
        <time>2022-03-23T13:32:38Z</time>
      </trkpt>
      <trkpt lat="49.85461" lon="2.15091">
        <ele>118</ele>
        <time>2022-03-23T13:32:39Z</time>
      </trkpt>
      <trkpt lat="49.85461" lon="2.15093">
        <ele>118</ele>
        <time>2022-03-23T13:32:40Z</time>
      </trkpt>
      <trkpt lat="49.85461" lon="2.15094">
        <ele>118</ele>
        <time>2022-03-23T13:32:41Z</time>
      </trkpt>
      <trkpt lat="49.8546" lon="2.15096">
        <ele>118</ele>
        <time>2022-03-23T13:32:42Z</time>
      </trkpt>
      <trkpt lat="49.8546" lon="2.15098">
        <ele>118</ele>
        <time>2022-03-23T13:32:43Z</time>
      </trkpt>
      <trkpt lat="49.8546" lon="2.151">
        <ele>117.9</ele>
        <time>2022-03-23T13:32:45Z</time>
      </trkpt>
      <trkpt lat="49.85459" lon="2.15101">
        <ele>117.9</ele>
        <time>2022-03-23T13:32:46Z</time>
      </trkpt>
      <trkpt lat="49.85459" lon="2.15103">
        <ele>117.9</ele>
        <time>2022-03-23T13:32:47Z</time>
      </trkpt>
      <trkpt lat="49.85459" lon="2.15105">
        <ele>117.9</ele>
        <time>2022-03-23T13:32:48Z</time>
      </trkpt>
      <trkpt lat="49.85458" lon="2.15107">
        <ele>117.9</ele>
        <time>2022-03-23T13:32:49Z</time>
      </trkpt>
      <trkpt lat="49.85458" lon="2.15109">
        <ele>117.8</ele>
        <time>2022-03-23T13:32:50Z</time>
      </trkpt>
      <trkpt lat="49.85458" lon="2.15111">
        <ele>117.8</ele>
        <time>2022-03-23T13:32:51Z</time>
      </trkpt>
      <trkpt lat="49.85457" lon="2.15113">
        <ele>117.8</ele>
        <time>2022-03-23T13:32:52Z</time>
      </trkpt>
      <trkpt lat="49.85457" lon="2.15115">
        <ele>117.8</ele>
        <time>2022-03-23T13:32:54Z</time>
      </trkpt>
      <trkpt lat="49.85456" lon="2.15118">
        <ele>117.8</ele>
        <time>2022-03-23T13:32:55Z</time>
      </trkpt>
      <trkpt lat="49.85455" lon="2.15119">
        <ele>117.8</ele>
        <time>2022-03-23T13:32:56Z</time>
      </trkpt>
      <trkpt lat="49.85455" lon="2.1512">
        <ele>117.8</ele>
        <time>2022-03-23T13:32:57Z</time>
      </trkpt>
      <trkpt lat="49.85455" lon="2.15122">
        <ele>117.7</ele>
        <time>2022-03-23T13:32:58Z</time>
      </trkpt>
      <trkpt lat="49.85454" lon="2.15124">
        <ele>117.7</ele>
        <time>2022-03-23T13:32:59Z</time>
      </trkpt>
      <trkpt lat="49.85453" lon="2.15128">
        <ele>117.7</ele>
        <time>2022-03-23T13:33:00Z</time>
      </trkpt>
      <trkpt lat="49.85453" lon="2.1513">
        <ele>117.7</ele>
        <time>2022-03-23T13:33:02Z</time>
      </trkpt>
      <trkpt lat="49.85453" lon="2.15131">
        <ele>117.7</ele>
        <time>2022-03-23T13:33:03Z</time>
      </trkpt>
      <trkpt lat="49.85452" lon="2.15133">
        <ele>117.7</ele>
        <time>2022-03-23T13:33:04Z</time>
      </trkpt>
      <trkpt lat="49.85452" lon="2.15134">
        <ele>117.6</ele>
        <time>2022-03-23T13:33:05Z</time>
      </trkpt>
      <trkpt lat="49.85451" lon="2.15136">
        <ele>117.4</ele>
        <time>2022-03-23T13:33:06Z</time>
      </trkpt>
      <trkpt lat="49.8545" lon="2.15137">
        <ele>117.4</ele>
        <time>2022-03-23T13:33:08Z</time>
      </trkpt>
      <trkpt lat="49.8545" lon="2.15139">
        <ele>117.4</ele>
        <time>2022-03-23T13:33:09Z</time>
      </trkpt>
      <trkpt lat="49.85449" lon="2.15139">
        <ele>117.4</ele>
        <time>2022-03-23T13:33:10Z</time>
      </trkpt>
      <trkpt lat="49.85448" lon="2.1514">
        <ele>117.4</ele>
        <time>2022-03-23T13:33:11Z</time>
      </trkpt>
      <trkpt lat="49.85447" lon="2.15141">
        <ele>117.4</ele>
        <time>2022-03-23T13:33:13Z</time>
      </trkpt>
      <trkpt lat="49.85445" lon="2.1514">
        <ele>117.4</ele>
        <time>2022-03-23T13:33:14Z</time>
      </trkpt>
      <trkpt lat="49.85444" lon="2.1514">
        <ele>117.4</ele>
        <time>2022-03-23T13:33:15Z</time>
      </trkpt>
      <trkpt lat="49.85444" lon="2.1514">
        <ele>117.4</ele>
        <time>2022-03-23T13:33:16Z</time>
      </trkpt>
      <trkpt lat="49.85442" lon="2.15139">
        <ele>117.4</ele>
        <time>2022-03-23T13:33:17Z</time>
      </trkpt>
      <trkpt lat="49.85442" lon="2.15139">
        <ele>117.5</ele>
        <time>2022-03-23T13:33:18Z</time>
      </trkpt>
      <trkpt lat="49.85442" lon="2.15138">
        <ele>117.5</ele>
        <time>2022-03-23T13:33:19Z</time>
      </trkpt>
      <trkpt lat="49.85442" lon="2.15137">
        <ele>117.5</ele>
        <time>2022-03-23T13:33:21Z</time>
      </trkpt>
      <trkpt lat="49.85443" lon="2.15136">
        <ele>117.5</ele>
        <time>2022-03-23T13:33:22Z</time>
      </trkpt>
      <trkpt lat="49.85444" lon="2.15136">
        <ele>117.5</ele>
        <time>2022-03-23T13:33:23Z</time>
      </trkpt>
      <trkpt lat="49.85444" lon="2.15137">
        <ele>117.6</ele>
        <time>2022-03-23T13:33:24Z</time>
      </trkpt>
      <trkpt lat="49.85445" lon="2.15138">
        <ele>117.6</ele>
        <time>2022-03-23T13:33:25Z</time>
      </trkpt>
      <trkpt lat="49.85446" lon="2.15139">
        <ele>117.6</ele>
        <time>2022-03-23T13:33:26Z</time>
      </trkpt>
      <trkpt lat="49.85446" lon="2.15139">
        <ele>117.6</ele>
        <time>2022-03-23T13:33:27Z</time>
      </trkpt>
      <trkpt lat="49.85446" lon="2.15139">
        <ele>117.6</ele>
        <time>2022-03-23T13:33:28Z</time>
      </trkpt>
      <trkpt lat="49.85446" lon="2.1514">
        <ele>117.6</ele>
        <time>2022-03-23T13:33:29Z</time>
      </trkpt>
      <trkpt lat="49.85446" lon="2.1514">
        <ele>117.6</ele>
        <time>2022-03-23T13:33:30Z</time>
      </trkpt>
      <trkpt lat="49.85446" lon="2.1514">
        <ele>117.6</ele>
        <time>2022-03-23T13:33:31Z</time>
      </trkpt>
      <trkpt lat="49.85446" lon="2.1514">
        <ele>117.6</ele>
        <time>2022-03-23T13:33:32Z</time>
      </trkpt>
      <trkpt lat="49.85446" lon="2.1514">
        <ele>117.6</ele>
        <time>2022-03-23T13:33:34Z</time>
      </trkpt>
      <trkpt lat="49.85446" lon="2.15142">
        <ele>117.6</ele>
        <time>2022-03-23T13:33:37Z</time>
      </trkpt>
      <trkpt lat="49.85446" lon="2.15142">
        <ele>117.6</ele>
        <time>2022-03-23T13:33:38Z</time>
      </trkpt>
      <trkpt lat="49.85446" lon="2.15142">
        <ele>117.6</ele>
        <time>2022-03-23T13:33:39Z</time>
      </trkpt>
      <trkpt lat="49.85446" lon="2.15142">
        <ele>117.6</ele>
        <time>2022-03-23T13:33:40Z</time>
      </trkpt>
      <trkpt lat="49.85446" lon="2.15142">
        <ele>117.6</ele>
        <time>2022-03-23T13:33:41Z</time>
      </trkpt>
      <trkpt lat="49.85446" lon="2.15142">
        <ele>117.6</ele>
        <time>2022-03-23T13:33:43Z</time>
      </trkpt>
      <trkpt lat="49.85446" lon="2.15142">
        <ele>117.6</ele>
        <time>2022-03-23T13:33:44Z</time>
      </trkpt>
      <trkpt lat="49.85446" lon="2.15142">
        <ele>117.6</ele>
        <time>2022-03-23T13:33:45Z</time>
      </trkpt>
      <trkpt lat="49.85446" lon="2.15142">
        <ele>117.6</ele>
        <time>2022-03-23T13:33:47Z</time>
      </trkpt>
      <trkpt lat="49.85446" lon="2.15142">
        <ele>117.6</ele>
        <time>2022-03-23T13:33:48Z</time>
      </trkpt>
      <trkpt lat="49.85446" lon="2.15142">
        <ele>117.6</ele>
        <time>2022-03-23T13:33:49Z</time>
      </trkpt>
      <trkpt lat="49.85446" lon="2.15141">
        <ele>117.6</ele>
        <time>2022-03-23T13:33:50Z</time>
      </trkpt>
      <trkpt lat="49.85446" lon="2.15141">
        <ele>117.6</ele>
        <time>2022-03-23T13:33:51Z</time>
      </trkpt>
      <trkpt lat="49.85446" lon="2.15142">
        <ele>117.6</ele>
        <time>2022-03-23T13:33:53Z</time>
      </trkpt>
      <trkpt lat="49.85445" lon="2.15142">
        <ele>117.6</ele>
        <time>2022-03-23T13:33:54Z</time>
      </trkpt>
      <trkpt lat="49.85445" lon="2.15143">
        <ele>117.6</ele>
        <time>2022-03-23T13:33:55Z</time>
      </trkpt>
      <trkpt lat="49.85445" lon="2.15143">
        <ele>117.6</ele>
        <time>2022-03-23T13:33:56Z</time>
      </trkpt>
      <trkpt lat="49.85445" lon="2.15144">
        <ele>117.6</ele>
        <time>2022-03-23T13:33:58Z</time>
      </trkpt>
      <trkpt lat="49.85445" lon="2.15144">
        <ele>117.6</ele>
        <time>2022-03-23T13:33:59Z</time>
      </trkpt>
      <trkpt lat="49.85444" lon="2.15144">
        <ele>117.6</ele>
        <time>2022-03-23T13:34:00Z</time>
      </trkpt>
      <trkpt lat="49.85444" lon="2.15144">
        <ele>117.6</ele>
        <time>2022-03-23T13:34:01Z</time>
      </trkpt>
      <trkpt lat="49.85444" lon="2.15144">
        <ele>117.6</ele>
        <time>2022-03-23T13:34:02Z</time>
      </trkpt>
      <trkpt lat="49.85444" lon="2.15144">
        <ele>117.6</ele>
        <time>2022-03-23T13:34:03Z</time>
      </trkpt>
      <trkpt lat="49.85444" lon="2.15144">
        <ele>117.6</ele>
        <time>2022-03-23T13:34:04Z</time>
      </trkpt>
      <trkpt lat="49.85444" lon="2.15144">
        <ele>117.6</ele>
        <time>2022-03-23T13:34:05Z</time>
      </trkpt>
      <trkpt lat="49.85445" lon="2.15144">
        <ele>117.6</ele>
        <time>2022-03-23T13:34:06Z</time>
      </trkpt>
      <trkpt lat="49.85444" lon="2.15144">
        <ele>117.6</ele>
        <time>2022-03-23T13:34:07Z</time>
      </trkpt>
      <trkpt lat="49.85444" lon="2.15144">
        <ele>117.6</ele>
        <time>2022-03-23T13:34:08Z</time>
      </trkpt>
      <trkpt lat="49.85444" lon="2.15145">
        <ele>117.6</ele>
        <time>2022-03-23T13:34:09Z</time>
      </trkpt>
      <trkpt lat="49.85444" lon="2.15145">
        <ele>117.6</ele>
        <time>2022-03-23T13:34:10Z</time>
      </trkpt>
      <trkpt lat="49.85444" lon="2.15144">
        <ele>117.6</ele>
        <time>2022-03-23T13:34:11Z</time>
      </trkpt>
      <trkpt lat="49.85443" lon="2.15144">
        <ele>117.6</ele>
        <time>2022-03-23T13:34:12Z</time>
      </trkpt>
      <trkpt lat="49.85443" lon="2.15143">
        <ele>117.7</ele>
        <time>2022-03-23T13:34:13Z</time>
      </trkpt>
      <trkpt lat="49.85444" lon="2.15142">
        <ele>117.7</ele>
        <time>2022-03-23T13:34:14Z</time>
      </trkpt>
      <trkpt lat="49.85444" lon="2.15142">
        <ele>117.7</ele>
        <time>2022-03-23T13:34:15Z</time>
      </trkpt>
      <trkpt lat="49.85444" lon="2.15142">
        <ele>117.7</ele>
        <time>2022-03-23T13:34:16Z</time>
      </trkpt>
      <trkpt lat="49.85444" lon="2.15141">
        <ele>117.7</ele>
        <time>2022-03-23T13:34:17Z</time>
      </trkpt>
      <trkpt lat="49.85444" lon="2.15141">
        <ele>117.7</ele>
        <time>2022-03-23T13:34:18Z</time>
      </trkpt>
      <trkpt lat="49.85444" lon="2.15141">
        <ele>117.7</ele>
        <time>2022-03-23T13:34:19Z</time>
      </trkpt>
      <trkpt lat="49.85444" lon="2.15141">
        <ele>117.7</ele>
        <time>2022-03-23T13:34:20Z</time>
      </trkpt>
      <trkpt lat="49.85444" lon="2.15141">
        <ele>117.7</ele>
        <time>2022-03-23T13:34:21Z</time>
      </trkpt>
      <trkpt lat="49.85444" lon="2.1514">
        <ele>117.7</ele>
        <time>2022-03-23T13:34:22Z</time>
      </trkpt>
      <trkpt lat="49.85444" lon="2.1514">
        <ele>117.7</ele>
        <time>2022-03-23T13:34:23Z</time>
      </trkpt>
      <trkpt lat="49.85444" lon="2.15139">
        <ele>117.7</ele>
        <time>2022-03-23T13:34:24Z</time>
      </trkpt>
      <trkpt lat="49.85444" lon="2.15139">
        <ele>117.7</ele>
        <time>2022-03-23T13:34:25Z</time>
      </trkpt>
      <trkpt lat="49.85444" lon="2.15139">
        <ele>117.7</ele>
        <time>2022-03-23T13:34:26Z</time>
      </trkpt>
      <trkpt lat="49.85444" lon="2.15139">
        <ele>117.7</ele>
        <time>2022-03-23T13:34:27Z</time>
      </trkpt>
      <trkpt lat="49.85444" lon="2.15138">
        <ele>117.7</ele>
        <time>2022-03-23T13:34:28Z</time>
      </trkpt>
      <trkpt lat="49.85444" lon="2.15137">
        <ele>117.7</ele>
        <time>2022-03-23T13:34:29Z</time>
      </trkpt>
      <trkpt lat="49.85444" lon="2.15137">
        <ele>117.7</ele>
        <time>2022-03-23T13:34:30Z</time>
      </trkpt>
      <trkpt lat="49.85444" lon="2.15138">
        <ele>117.7</ele>
        <time>2022-03-23T13:34:31Z</time>
      </trkpt>
      <trkpt lat="49.85443" lon="2.15138">
        <ele>117.7</ele>
        <time>2022-03-23T13:34:32Z</time>
      </trkpt>
      <trkpt lat="49.85443" lon="2.15138">
        <ele>117.7</ele>
        <time>2022-03-23T13:34:33Z</time>
      </trkpt>
      <trkpt lat="49.85442" lon="2.15139">
        <ele>117.7</ele>
        <time>2022-03-23T13:34:34Z</time>
      </trkpt>
      <trkpt lat="49.85442" lon="2.15139">
        <ele>117.7</ele>
        <time>2022-03-23T13:34:35Z</time>
      </trkpt>
      <trkpt lat="49.85442" lon="2.15139">
        <ele>117.7</ele>
        <time>2022-03-23T13:34:36Z</time>
      </trkpt>
      <trkpt lat="49.85442" lon="2.1514">
        <ele>117.7</ele>
        <time>2022-03-23T13:34:38Z</time>
      </trkpt>
      <trkpt lat="49.85443" lon="2.15141">
        <ele>117.7</ele>
        <time>2022-03-23T13:34:39Z</time>
      </trkpt>
      <trkpt lat="49.85444" lon="2.15142">
        <ele>117.7</ele>
        <time>2022-03-23T13:34:40Z</time>
      </trkpt>
      <trkpt lat="49.85444" lon="2.15143">
        <ele>117.7</ele>
        <time>2022-03-23T13:34:41Z</time>
      </trkpt>
      <trkpt lat="49.85444" lon="2.15143">
        <ele>117.7</ele>
        <time>2022-03-23T13:34:42Z</time>
      </trkpt>
      <trkpt lat="49.85445" lon="2.15143">
        <ele>117.8</ele>
        <time>2022-03-23T13:34:43Z</time>
      </trkpt>
      <trkpt lat="49.85445" lon="2.15143">
        <ele>117.8</ele>
        <time>2022-03-23T13:34:44Z</time>
      </trkpt>
      <trkpt lat="49.85446" lon="2.15142">
        <ele>117.8</ele>
        <time>2022-03-23T13:34:45Z</time>
      </trkpt>
      <trkpt lat="49.85446" lon="2.15141">
        <ele>117.8</ele>
        <time>2022-03-23T13:34:46Z</time>
      </trkpt>
      <trkpt lat="49.85446" lon="2.15141">
        <ele>117.8</ele>
        <time>2022-03-23T13:34:47Z</time>
      </trkpt>
      <trkpt lat="49.85446" lon="2.1514">
        <ele>117.8</ele>
        <time>2022-03-23T13:34:48Z</time>
      </trkpt>
      <trkpt lat="49.85446" lon="2.1514">
        <ele>117.8</ele>
        <time>2022-03-23T13:34:49Z</time>
      </trkpt>
      <trkpt lat="49.85447" lon="2.1514">
        <ele>117.8</ele>
        <time>2022-03-23T13:34:50Z</time>
      </trkpt>
      <trkpt lat="49.85447" lon="2.15139">
        <ele>117.8</ele>
        <time>2022-03-23T13:34:51Z</time>
      </trkpt>
      <trkpt lat="49.85447" lon="2.15139">
        <ele>117.8</ele>
        <time>2022-03-23T13:34:52Z</time>
      </trkpt>
      <trkpt lat="49.85447" lon="2.15139">
        <ele>117.8</ele>
        <time>2022-03-23T13:34:53Z</time>
      </trkpt>
      <trkpt lat="49.85446" lon="2.15139">
        <ele>117.8</ele>
        <time>2022-03-23T13:34:54Z</time>
      </trkpt>
      <trkpt lat="49.85446" lon="2.15139">
        <ele>117.8</ele>
        <time>2022-03-23T13:34:55Z</time>
      </trkpt>
      <trkpt lat="49.85447" lon="2.15139">
        <ele>117.8</ele>
        <time>2022-03-23T13:34:56Z</time>
      </trkpt>
      <trkpt lat="49.85447" lon="2.15139">
        <ele>117.8</ele>
        <time>2022-03-23T13:34:57Z</time>
      </trkpt>
      <trkpt lat="49.85447" lon="2.15138">
        <ele>117.8</ele>
        <time>2022-03-23T13:34:58Z</time>
      </trkpt>
      <trkpt lat="49.85447" lon="2.15138">
        <ele>117.8</ele>
        <time>2022-03-23T13:34:59Z</time>
      </trkpt>
      <trkpt lat="49.85446" lon="2.15138">
        <ele>117.8</ele>
        <time>2022-03-23T13:35:00Z</time>
      </trkpt>
      <trkpt lat="49.85446" lon="2.15138">
        <ele>117.8</ele>
        <time>2022-03-23T13:35:01Z</time>
      </trkpt>
      <trkpt lat="49.85446" lon="2.15138">
        <ele>117.8</ele>
        <time>2022-03-23T13:35:02Z</time>
      </trkpt>
      <trkpt lat="49.85446" lon="2.15137">
        <ele>117.8</ele>
        <time>2022-03-23T13:35:03Z</time>
      </trkpt>
      <trkpt lat="49.85446" lon="2.15137">
        <ele>117.8</ele>
        <time>2022-03-23T13:35:04Z</time>
      </trkpt>
      <trkpt lat="49.85446" lon="2.15137">
        <ele>117.8</ele>
        <time>2022-03-23T13:35:05Z</time>
      </trkpt>
      <trkpt lat="49.85446" lon="2.15137">
        <ele>117.8</ele>
        <time>2022-03-23T13:35:06Z</time>
      </trkpt>
      <trkpt lat="49.85446" lon="2.15137">
        <ele>117.8</ele>
        <time>2022-03-23T13:35:07Z</time>
      </trkpt>
      <trkpt lat="49.85446" lon="2.15137">
        <ele>117.8</ele>
        <time>2022-03-23T13:35:08Z</time>
      </trkpt>
      <trkpt lat="49.85446" lon="2.15137">
        <ele>117.8</ele>
        <time>2022-03-23T13:35:09Z</time>
      </trkpt>
      <trkpt lat="49.85446" lon="2.15137">
        <ele>117.8</ele>
        <time>2022-03-23T13:35:10Z</time>
      </trkpt>
      <trkpt lat="49.85446" lon="2.15137">
        <ele>117.8</ele>
        <time>2022-03-23T13:35:11Z</time>
      </trkpt>
      <trkpt lat="49.85446" lon="2.15137">
        <ele>117.8</ele>
        <time>2022-03-23T13:35:12Z</time>
      </trkpt>
      <trkpt lat="49.85446" lon="2.15137">
        <ele>117.8</ele>
        <time>2022-03-23T13:35:13Z</time>
      </trkpt>
      <trkpt lat="49.85446" lon="2.15137">
        <ele>117.8</ele>
        <time>2022-03-23T13:35:14Z</time>
      </trkpt>
      <trkpt lat="49.85446" lon="2.15137">
        <ele>117.8</ele>
        <time>2022-03-23T13:35:15Z</time>
      </trkpt>
      <trkpt lat="49.85446" lon="2.15137">
        <ele>117.8</ele>
        <time>2022-03-23T13:35:16Z</time>
      </trkpt>
      <trkpt lat="49.85446" lon="2.15137">
        <ele>117.8</ele>
        <time>2022-03-23T13:35:17Z</time>
      </trkpt>
      <trkpt lat="49.85446" lon="2.15137">
        <ele>117.8</ele>
        <time>2022-03-23T13:35:18Z</time>
      </trkpt>
      <trkpt lat="49.85446" lon="2.15137">
        <ele>117.8</ele>
        <time>2022-03-23T13:35:19Z</time>
      </trkpt>
      <trkpt lat="49.85446" lon="2.15137">
        <ele>117.8</ele>
        <time>2022-03-23T13:35:20Z</time>
      </trkpt>
      <trkpt lat="49.85446" lon="2.15137">
        <ele>117.8</ele>
        <time>2022-03-23T13:35:21Z</time>
      </trkpt>
      <trkpt lat="49.85446" lon="2.15137">
        <ele>117.8</ele>
        <time>2022-03-23T13:35:22Z</time>
      </trkpt>
      <trkpt lat="49.85446" lon="2.15137">
        <ele>117.8</ele>
        <time>2022-03-23T13:35:23Z</time>
      </trkpt>
      <trkpt lat="49.85446" lon="2.15137">
        <ele>117.8</ele>
        <time>2022-03-23T13:35:24Z</time>
      </trkpt>
      <trkpt lat="49.85446" lon="2.15137">
        <ele>117.8</ele>
        <time>2022-03-23T13:35:25Z</time>
      </trkpt>
      <trkpt lat="49.85446" lon="2.15137">
        <ele>117.8</ele>
        <time>2022-03-23T13:35:26Z</time>
      </trkpt>
      <trkpt lat="49.85446" lon="2.15137">
        <ele>117.8</ele>
        <time>2022-03-23T13:35:27Z</time>
      </trkpt>
      <trkpt lat="49.85446" lon="2.15137">
        <ele>117.8</ele>
        <time>2022-03-23T13:35:28Z</time>
      </trkpt>
      <trkpt lat="49.85446" lon="2.15137">
        <ele>117.8</ele>
        <time>2022-03-23T13:35:29Z</time>
      </trkpt>
      <trkpt lat="49.85446" lon="2.15137">
        <ele>117.8</ele>
        <time>2022-03-23T13:35:30Z</time>
      </trkpt>
      <trkpt lat="49.85446" lon="2.15137">
        <ele>117.8</ele>
        <time>2022-03-23T13:35:31Z</time>
      </trkpt>
      <trkpt lat="49.85446" lon="2.15137">
        <ele>117.8</ele>
        <time>2022-03-23T13:35:32Z</time>
      </trkpt>
      <trkpt lat="49.85446" lon="2.15137">
        <ele>117.8</ele>
        <time>2022-03-23T13:35:33Z</time>
      </trkpt>
      <trkpt lat="49.85446" lon="2.15137">
        <ele>117.8</ele>
        <time>2022-03-23T13:35:34Z</time>
      </trkpt>
      <trkpt lat="49.85446" lon="2.15137">
        <ele>117.8</ele>
        <time>2022-03-23T13:35:35Z</time>
      </trkpt>
      <trkpt lat="49.85446" lon="2.15137">
        <ele>117.8</ele>
        <time>2022-03-23T13:35:36Z</time>
      </trkpt>
      <trkpt lat="49.85446" lon="2.15137">
        <ele>117.8</ele>
        <time>2022-03-23T13:35:37Z</time>
      </trkpt>
      <trkpt lat="49.85447" lon="2.15137">
        <ele>117.8</ele>
        <time>2022-03-23T13:35:38Z</time>
      </trkpt>
      <trkpt lat="49.85447" lon="2.15138">
        <ele>117.8</ele>
        <time>2022-03-23T13:35:39Z</time>
      </trkpt>
      <trkpt lat="49.85448" lon="2.15138">
        <ele>117.8</ele>
        <time>2022-03-23T13:35:40Z</time>
      </trkpt>
      <trkpt lat="49.85448" lon="2.15138">
        <ele>117.8</ele>
        <time>2022-03-23T13:35:41Z</time>
      </trkpt>
      <trkpt lat="49.85448" lon="2.15138">
        <ele>117.8</ele>
        <time>2022-03-23T13:35:42Z</time>
      </trkpt>
      <trkpt lat="49.85448" lon="2.15138">
        <ele>117.8</ele>
        <time>2022-03-23T13:35:43Z</time>
      </trkpt>
      <trkpt lat="49.85448" lon="2.15138">
        <ele>117.8</ele>
        <time>2022-03-23T13:35:44Z</time>
      </trkpt>
      <trkpt lat="49.85449" lon="2.15137">
        <ele>117.8</ele>
        <time>2022-03-23T13:35:45Z</time>
      </trkpt>
      <trkpt lat="49.85449" lon="2.15137">
        <ele>117.8</ele>
        <time>2022-03-23T13:35:46Z</time>
      </trkpt>
      <trkpt lat="49.85449" lon="2.15137">
        <ele>117.8</ele>
        <time>2022-03-23T13:35:47Z</time>
      </trkpt>
      <trkpt lat="49.85449" lon="2.15137">
        <ele>117.8</ele>
        <time>2022-03-23T13:35:48Z</time>
      </trkpt>
      <trkpt lat="49.85449" lon="2.15137">
        <ele>117.8</ele>
        <time>2022-03-23T13:35:49Z</time>
      </trkpt>
      <trkpt lat="49.85449" lon="2.15137">
        <ele>117.8</ele>
        <time>2022-03-23T13:35:50Z</time>
      </trkpt>
      <trkpt lat="49.85449" lon="2.15137">
        <ele>117.8</ele>
        <time>2022-03-23T13:35:51Z</time>
      </trkpt>
      <trkpt lat="49.85449" lon="2.15137">
        <ele>117.8</ele>
        <time>2022-03-23T13:35:52Z</time>
      </trkpt>
      <trkpt lat="49.85449" lon="2.15137">
        <ele>117.8</ele>
        <time>2022-03-23T13:35:53Z</time>
      </trkpt>
      <trkpt lat="49.85449" lon="2.15137">
        <ele>117.8</ele>
        <time>2022-03-23T13:35:54Z</time>
      </trkpt>
      <trkpt lat="49.85449" lon="2.15137">
        <ele>117.8</ele>
        <time>2022-03-23T13:35:55Z</time>
      </trkpt>
      <trkpt lat="49.85449" lon="2.15137">
        <ele>117.8</ele>
        <time>2022-03-23T13:35:56Z</time>
      </trkpt>
      <trkpt lat="49.85449" lon="2.15137">
        <ele>117.8</ele>
        <time>2022-03-23T13:35:57Z</time>
      </trkpt>
      <trkpt lat="49.85449" lon="2.15137">
        <ele>117.8</ele>
        <time>2022-03-23T13:35:58Z</time>
      </trkpt>
      <trkpt lat="49.85449" lon="2.15137">
        <ele>117.8</ele>
        <time>2022-03-23T13:35:59Z</time>
      </trkpt>
      <trkpt lat="49.85449" lon="2.15137">
        <ele>117.8</ele>
        <time>2022-03-23T13:36:00Z</time>
      </trkpt>
      <trkpt lat="49.85449" lon="2.15137">
        <ele>117.8</ele>
        <time>2022-03-23T13:36:01Z</time>
      </trkpt>
      <trkpt lat="49.85449" lon="2.15137">
        <ele>117.8</ele>
        <time>2022-03-23T13:36:02Z</time>
      </trkpt>
      <trkpt lat="49.85449" lon="2.15137">
        <ele>117.8</ele>
        <time>2022-03-23T13:36:03Z</time>
      </trkpt>
      <trkpt lat="49.85449" lon="2.15137">
        <ele>117.8</ele>
        <time>2022-03-23T13:36:04Z</time>
      </trkpt>
      <trkpt lat="49.85449" lon="2.15137">
        <ele>117.8</ele>
        <time>2022-03-23T13:36:05Z</time>
      </trkpt>
      <trkpt lat="49.85449" lon="2.15137">
        <ele>117.8</ele>
        <time>2022-03-23T13:36:06Z</time>
      </trkpt>
      <trkpt lat="49.85449" lon="2.15137">
        <ele>117.8</ele>
        <time>2022-03-23T13:36:07Z</time>
      </trkpt>
      <trkpt lat="49.85449" lon="2.15137">
        <ele>117.8</ele>
        <time>2022-03-23T13:36:08Z</time>
      </trkpt>
      <trkpt lat="49.85449" lon="2.15137">
        <ele>117.8</ele>
        <time>2022-03-23T13:36:09Z</time>
      </trkpt>
      <trkpt lat="49.85449" lon="2.15137">
        <ele>117.8</ele>
        <time>2022-03-23T13:36:10Z</time>
      </trkpt>
      <trkpt lat="49.85449" lon="2.15137">
        <ele>117.8</ele>
        <time>2022-03-23T13:36:11Z</time>
      </trkpt>
      <trkpt lat="49.85449" lon="2.15137">
        <ele>117.8</ele>
        <time>2022-03-23T13:36:12Z</time>
      </trkpt>
      <trkpt lat="49.85449" lon="2.15137">
        <ele>117.8</ele>
        <time>2022-03-23T13:36:13Z</time>
      </trkpt>
      <trkpt lat="49.85449" lon="2.15137">
        <ele>117.8</ele>
        <time>2022-03-23T13:36:14Z</time>
      </trkpt>
      <trkpt lat="49.85449" lon="2.15137">
        <ele>117.8</ele>
        <time>2022-03-23T13:36:15Z</time>
      </trkpt>
      <trkpt lat="49.85449" lon="2.15137">
        <ele>117.8</ele>
        <time>2022-03-23T13:36:16Z</time>
      </trkpt>
      <trkpt lat="49.85449" lon="2.15137">
        <ele>117.8</ele>
        <time>2022-03-23T13:36:17Z</time>
      </trkpt>
      <trkpt lat="49.85449" lon="2.15137">
        <ele>117.8</ele>
        <time>2022-03-23T13:36:18Z</time>
      </trkpt>
      <trkpt lat="49.85449" lon="2.15137">
        <ele>117.8</ele>
        <time>2022-03-23T13:36:19Z</time>
      </trkpt>
      <trkpt lat="49.85449" lon="2.15137">
        <ele>117.8</ele>
        <time>2022-03-23T13:36:20Z</time>
      </trkpt>
      <trkpt lat="49.85449" lon="2.15137">
        <ele>117.8</ele>
        <time>2022-03-23T13:36:21Z</time>
      </trkpt>
      <trkpt lat="49.85449" lon="2.15137">
        <ele>117.8</ele>
        <time>2022-03-23T13:36:22Z</time>
      </trkpt>
      <trkpt lat="49.85449" lon="2.15137">
        <ele>117.8</ele>
        <time>2022-03-23T13:36:23Z</time>
      </trkpt>
      <trkpt lat="49.85449" lon="2.15137">
        <ele>117.8</ele>
        <time>2022-03-23T13:36:24Z</time>
      </trkpt>
      <trkpt lat="49.85449" lon="2.15137">
        <ele>117.8</ele>
        <time>2022-03-23T13:36:25Z</time>
      </trkpt>
      <trkpt lat="49.85449" lon="2.15137">
        <ele>117.8</ele>
        <time>2022-03-23T13:36:26Z</time>
      </trkpt>
      <trkpt lat="49.85449" lon="2.15137">
        <ele>117.8</ele>
        <time>2022-03-23T13:36:27Z</time>
      </trkpt>
      <trkpt lat="49.85449" lon="2.15137">
        <ele>117.8</ele>
        <time>2022-03-23T13:36:28Z</time>
      </trkpt>
      <trkpt lat="49.85449" lon="2.15137">
        <ele>117.8</ele>
        <time>2022-03-23T13:36:29Z</time>
      </trkpt>
      <trkpt lat="49.85449" lon="2.15137">
        <ele>117.8</ele>
        <time>2022-03-23T13:36:30Z</time>
      </trkpt>
      <trkpt lat="49.85449" lon="2.15137">
        <ele>117.8</ele>
        <time>2022-03-23T13:36:31Z</time>
      </trkpt>
      <trkpt lat="49.85449" lon="2.15137">
        <ele>117.8</ele>
        <time>2022-03-23T13:36:32Z</time>
      </trkpt>
      <trkpt lat="49.85449" lon="2.15137">
        <ele>117.8</ele>
        <time>2022-03-23T13:36:33Z</time>
      </trkpt>
      <trkpt lat="49.85449" lon="2.15137">
        <ele>117.8</ele>
        <time>2022-03-23T13:36:34Z</time>
      </trkpt>
      <trkpt lat="49.85449" lon="2.15137">
        <ele>117.8</ele>
        <time>2022-03-23T13:36:35Z</time>
      </trkpt>
      <trkpt lat="49.85449" lon="2.15137">
        <ele>117.8</ele>
        <time>2022-03-23T13:36:36Z</time>
      </trkpt>
      <trkpt lat="49.85449" lon="2.15137">
        <ele>117.8</ele>
        <time>2022-03-23T13:36:37Z</time>
      </trkpt>
      <trkpt lat="49.85449" lon="2.15137">
        <ele>117.8</ele>
        <time>2022-03-23T13:36:38Z</time>
      </trkpt>
      <trkpt lat="49.85449" lon="2.15137">
        <ele>117.8</ele>
        <time>2022-03-23T13:36:39Z</time>
      </trkpt>
      <trkpt lat="49.85449" lon="2.15137">
        <ele>117.8</ele>
        <time>2022-03-23T13:36:40Z</time>
      </trkpt>
      <trkpt lat="49.85449" lon="2.15137">
        <ele>117.8</ele>
        <time>2022-03-23T13:36:41Z</time>
      </trkpt>
      <trkpt lat="49.85449" lon="2.15137">
        <ele>117.8</ele>
        <time>2022-03-23T13:36:42Z</time>
      </trkpt>
      <trkpt lat="49.85449" lon="2.15137">
        <ele>117.8</ele>
        <time>2022-03-23T13:36:43Z</time>
      </trkpt>
      <trkpt lat="49.85449" lon="2.15137">
        <ele>117.8</ele>
        <time>2022-03-23T13:36:44Z</time>
      </trkpt>
      <trkpt lat="49.85449" lon="2.15137">
        <ele>117.8</ele>
        <time>2022-03-23T13:36:45Z</time>
      </trkpt>
      <trkpt lat="49.85449" lon="2.15137">
        <ele>117.8</ele>
        <time>2022-03-23T13:36:46Z</time>
      </trkpt>
      <trkpt lat="49.85449" lon="2.15137">
        <ele>117.8</ele>
        <time>2022-03-23T13:36:47Z</time>
      </trkpt>
      <trkpt lat="49.85449" lon="2.15137">
        <ele>117.8</ele>
        <time>2022-03-23T13:36:48Z</time>
      </trkpt>
      <trkpt lat="49.85449" lon="2.15137">
        <ele>117.8</ele>
        <time>2022-03-23T13:36:49Z</time>
      </trkpt>
      <trkpt lat="49.85449" lon="2.15137">
        <ele>117.8</ele>
        <time>2022-03-23T13:36:50Z</time>
      </trkpt>
      <trkpt lat="49.85449" lon="2.15137">
        <ele>117.8</ele>
        <time>2022-03-23T13:36:51Z</time>
      </trkpt>
      <trkpt lat="49.85449" lon="2.15137">
        <ele>117.8</ele>
        <time>2022-03-23T13:36:52Z</time>
      </trkpt>
      <trkpt lat="49.85449" lon="2.15137">
        <ele>117.8</ele>
        <time>2022-03-23T13:36:53Z</time>
      </trkpt>
      <trkpt lat="49.85449" lon="2.15137">
        <ele>117.8</ele>
        <time>2022-03-23T13:36:54Z</time>
      </trkpt>
      <trkpt lat="49.85449" lon="2.15137">
        <ele>117.8</ele>
        <time>2022-03-23T13:36:55Z</time>
      </trkpt>
      <trkpt lat="49.85449" lon="2.15137">
        <ele>117.8</ele>
        <time>2022-03-23T13:36:56Z</time>
      </trkpt>
      <trkpt lat="49.85449" lon="2.15137">
        <ele>117.8</ele>
        <time>2022-03-23T13:36:57Z</time>
      </trkpt>
      <trkpt lat="49.85448" lon="2.15138">
        <ele>117.8</ele>
        <time>2022-03-23T13:36:58Z</time>
      </trkpt>
      <trkpt lat="49.85448" lon="2.15138">
        <ele>117.9</ele>
        <time>2022-03-23T13:36:59Z</time>
      </trkpt>
      <trkpt lat="49.85447" lon="2.15138">
        <ele>117.9</ele>
        <time>2022-03-23T13:37:00Z</time>
      </trkpt>
      <trkpt lat="49.85447" lon="2.15138">
        <ele>117.9</ele>
        <time>2022-03-23T13:37:01Z</time>
      </trkpt>
      <trkpt lat="49.85446" lon="2.15138">
        <ele>117.9</ele>
        <time>2022-03-23T13:37:03Z</time>
      </trkpt>
      <trkpt lat="49.85445" lon="2.15137">
        <ele>117.9</ele>
        <time>2022-03-23T13:37:04Z</time>
      </trkpt>
      <trkpt lat="49.85444" lon="2.15135">
        <ele>117.9</ele>
        <time>2022-03-23T13:37:05Z</time>
      </trkpt>
      <trkpt lat="49.85443" lon="2.15132">
        <ele>117.9</ele>
        <time>2022-03-23T13:37:06Z</time>
      </trkpt>
      <trkpt lat="49.85442" lon="2.1513">
        <ele>117.9</ele>
        <time>2022-03-23T13:37:08Z</time>
      </trkpt>
      <trkpt lat="49.85442" lon="2.15129">
        <ele>118</ele>
        <time>2022-03-23T13:37:09Z</time>
      </trkpt>
      <trkpt lat="49.85441" lon="2.15128">
        <ele>118</ele>
        <time>2022-03-23T13:37:10Z</time>
      </trkpt>
      <trkpt lat="49.8544" lon="2.15126">
        <ele>118</ele>
        <time>2022-03-23T13:37:11Z</time>
      </trkpt>
      <trkpt lat="49.8544" lon="2.15125">
        <ele>118</ele>
        <time>2022-03-23T13:37:13Z</time>
      </trkpt>
      <trkpt lat="49.85439" lon="2.15123">
        <ele>118</ele>
        <time>2022-03-23T13:37:14Z</time>
      </trkpt>
      <trkpt lat="49.85439" lon="2.15122">
        <ele>118</ele>
        <time>2022-03-23T13:37:15Z</time>
      </trkpt>
      <trkpt lat="49.85438" lon="2.1512">
        <ele>118</ele>
        <time>2022-03-23T13:37:16Z</time>
      </trkpt>
      <trkpt lat="49.85438" lon="2.15118">
        <ele>118</ele>
        <time>2022-03-23T13:37:17Z</time>
      </trkpt>
      <trkpt lat="49.85437" lon="2.15117">
        <ele>118</ele>
        <time>2022-03-23T13:37:18Z</time>
      </trkpt>
      <trkpt lat="49.85437" lon="2.15116">
        <ele>118.1</ele>
        <time>2022-03-23T13:37:20Z</time>
      </trkpt>
      <trkpt lat="49.85436" lon="2.15114">
        <ele>118.1</ele>
        <time>2022-03-23T13:37:21Z</time>
      </trkpt>
      <trkpt lat="49.85436" lon="2.15112">
        <ele>118.1</ele>
        <time>2022-03-23T13:37:22Z</time>
      </trkpt>
      <trkpt lat="49.85435" lon="2.15109">
        <ele>118.1</ele>
        <time>2022-03-23T13:37:23Z</time>
      </trkpt>
      <trkpt lat="49.85435" lon="2.15108">
        <ele>118.1</ele>
        <time>2022-03-23T13:37:24Z</time>
      </trkpt>
      <trkpt lat="49.85434" lon="2.15107">
        <ele>118.1</ele>
        <time>2022-03-23T13:37:25Z</time>
      </trkpt>
      <trkpt lat="49.85434" lon="2.15105">
        <ele>118.1</ele>
        <time>2022-03-23T13:37:27Z</time>
      </trkpt>
      <trkpt lat="49.85434" lon="2.15103">
        <ele>118.2</ele>
        <time>2022-03-23T13:37:28Z</time>
      </trkpt>
      <trkpt lat="49.85435" lon="2.15103">
        <ele>118.2</ele>
        <time>2022-03-23T13:37:29Z</time>
      </trkpt>
      <trkpt lat="49.85435" lon="2.151">
        <ele>118.2</ele>
        <time>2022-03-23T13:37:30Z</time>
      </trkpt>
      <trkpt lat="49.85435" lon="2.15099">
        <ele>118.2</ele>
        <time>2022-03-23T13:37:31Z</time>
      </trkpt>
      <trkpt lat="49.85435" lon="2.15097">
        <ele>118.2</ele>
        <time>2022-03-23T13:37:32Z</time>
      </trkpt>
      <trkpt lat="49.85434" lon="2.15093">
        <ele>118.2</ele>
        <time>2022-03-23T13:37:33Z</time>
      </trkpt>
      <trkpt lat="49.85434" lon="2.15091">
        <ele>118.2</ele>
        <time>2022-03-23T13:37:34Z</time>
      </trkpt>
      <trkpt lat="49.85433" lon="2.15089">
        <ele>118.2</ele>
        <time>2022-03-23T13:37:36Z</time>
      </trkpt>
      <trkpt lat="49.85433" lon="2.15087">
        <ele>118.3</ele>
        <time>2022-03-23T13:37:37Z</time>
      </trkpt>
      <trkpt lat="49.85433" lon="2.15085">
        <ele>118.3</ele>
        <time>2022-03-23T13:37:38Z</time>
      </trkpt>
      <trkpt lat="49.85432" lon="2.15082">
        <ele>118.3</ele>
        <time>2022-03-23T13:37:39Z</time>
      </trkpt>
      <trkpt lat="49.85432" lon="2.1508">
        <ele>118.3</ele>
        <time>2022-03-23T13:37:40Z</time>
      </trkpt>
      <trkpt lat="49.85431" lon="2.15078">
        <ele>118.3</ele>
        <time>2022-03-23T13:37:41Z</time>
      </trkpt>
      <trkpt lat="49.85431" lon="2.15074">
        <ele>118.3</ele>
        <time>2022-03-23T13:37:42Z</time>
      </trkpt>
      <trkpt lat="49.85431" lon="2.15072">
        <ele>118.3</ele>
        <time>2022-03-23T13:37:44Z</time>
      </trkpt>
      <trkpt lat="49.8543" lon="2.15071">
        <ele>118.3</ele>
        <time>2022-03-23T13:37:45Z</time>
      </trkpt>
      <trkpt lat="49.8543" lon="2.15069">
        <ele>118.3</ele>
        <time>2022-03-23T13:37:46Z</time>
      </trkpt>
      <trkpt lat="49.8543" lon="2.15067">
        <ele>118.3</ele>
        <time>2022-03-23T13:37:47Z</time>
      </trkpt>
      <trkpt lat="49.8543" lon="2.15065">
        <ele>118.4</ele>
        <time>2022-03-23T13:37:48Z</time>
      </trkpt>
      <trkpt lat="49.8543" lon="2.15063">
        <ele>118.4</ele>
        <time>2022-03-23T13:37:49Z</time>
      </trkpt>
      <trkpt lat="49.8543" lon="2.15061">
        <ele>118.4</ele>
        <time>2022-03-23T13:37:50Z</time>
      </trkpt>
      <trkpt lat="49.85429" lon="2.15059">
        <ele>118.4</ele>
        <time>2022-03-23T13:37:51Z</time>
      </trkpt>
      <trkpt lat="49.85429" lon="2.15057">
        <ele>118.4</ele>
        <time>2022-03-23T13:37:52Z</time>
      </trkpt>
      <trkpt lat="49.85428" lon="2.15054">
        <ele>118.4</ele>
        <time>2022-03-23T13:37:54Z</time>
      </trkpt>
      <trkpt lat="49.85427" lon="2.15052">
        <ele>118.4</ele>
        <time>2022-03-23T13:37:55Z</time>
      </trkpt>
      <trkpt lat="49.85427" lon="2.1505">
        <ele>118.4</ele>
        <time>2022-03-23T13:37:56Z</time>
      </trkpt>
      <trkpt lat="49.85426" lon="2.15048">
        <ele>118.4</ele>
        <time>2022-03-23T13:37:57Z</time>
      </trkpt>
      <trkpt lat="49.85426" lon="2.15046">
        <ele>118.4</ele>
        <time>2022-03-23T13:37:58Z</time>
      </trkpt>
      <trkpt lat="49.85426" lon="2.15044">
        <ele>118.5</ele>
        <time>2022-03-23T13:37:59Z</time>
      </trkpt>
      <trkpt lat="49.85425" lon="2.15041">
        <ele>118.5</ele>
        <time>2022-03-23T13:38:01Z</time>
      </trkpt>
      <trkpt lat="49.85425" lon="2.15039">
        <ele>118.5</ele>
        <time>2022-03-23T13:38:02Z</time>
      </trkpt>
      <trkpt lat="49.85425" lon="2.15037">
        <ele>118.5</ele>
        <time>2022-03-23T13:38:03Z</time>
      </trkpt>
      <trkpt lat="49.85425" lon="2.15035">
        <ele>118.5</ele>
        <time>2022-03-23T13:38:04Z</time>
      </trkpt>
      <trkpt lat="49.85425" lon="2.15033">
        <ele>118.5</ele>
        <time>2022-03-23T13:38:05Z</time>
      </trkpt>
      <trkpt lat="49.85425" lon="2.15031">
        <ele>118.5</ele>
        <time>2022-03-23T13:38:06Z</time>
      </trkpt>
      <trkpt lat="49.85424" lon="2.15028">
        <ele>118.6</ele>
        <time>2022-03-23T13:38:07Z</time>
      </trkpt>
      <trkpt lat="49.85424" lon="2.15027">
        <ele>118.6</ele>
        <time>2022-03-23T13:38:09Z</time>
      </trkpt>
      <trkpt lat="49.85424" lon="2.15026">
        <ele>118.6</ele>
        <time>2022-03-23T13:38:10Z</time>
      </trkpt>
      <trkpt lat="49.85424" lon="2.15023">
        <ele>118.6</ele>
        <time>2022-03-23T13:38:11Z</time>
      </trkpt>
      <trkpt lat="49.85424" lon="2.15021">
        <ele>118.6</ele>
        <time>2022-03-23T13:38:12Z</time>
      </trkpt>
      <trkpt lat="49.85424" lon="2.1502">
        <ele>118.6</ele>
        <time>2022-03-23T13:38:13Z</time>
      </trkpt>
      <trkpt lat="49.85424" lon="2.15018">
        <ele>118.6</ele>
        <time>2022-03-23T13:38:14Z</time>
      </trkpt>
      <trkpt lat="49.85423" lon="2.15016">
        <ele>118.6</ele>
        <time>2022-03-23T13:38:15Z</time>
      </trkpt>
      <trkpt lat="49.85423" lon="2.15015">
        <ele>118.6</ele>
        <time>2022-03-23T13:38:16Z</time>
      </trkpt>
      <trkpt lat="49.85423" lon="2.15012">
        <ele>118.7</ele>
        <time>2022-03-23T13:38:17Z</time>
      </trkpt>
      <trkpt lat="49.85423" lon="2.1501">
        <ele>118.7</ele>
        <time>2022-03-23T13:38:19Z</time>
      </trkpt>
      <trkpt lat="49.85422" lon="2.15009">
        <ele>118.7</ele>
        <time>2022-03-23T13:38:20Z</time>
      </trkpt>
      <trkpt lat="49.85422" lon="2.15006">
        <ele>118.7</ele>
        <time>2022-03-23T13:38:21Z</time>
      </trkpt>
      <trkpt lat="49.85421" lon="2.15005">
        <ele>118.7</ele>
        <time>2022-03-23T13:38:22Z</time>
      </trkpt>
      <trkpt lat="49.85421" lon="2.15004">
        <ele>118.7</ele>
        <time>2022-03-23T13:38:23Z</time>
      </trkpt>
      <trkpt lat="49.8542" lon="2.15001">
        <ele>118.7</ele>
        <time>2022-03-23T13:38:24Z</time>
      </trkpt>
      <trkpt lat="49.8542" lon="2.14999">
        <ele>118.7</ele>
        <time>2022-03-23T13:38:25Z</time>
      </trkpt>
      <trkpt lat="49.85419" lon="2.14998">
        <ele>118.7</ele>
        <time>2022-03-23T13:38:26Z</time>
      </trkpt>
      <trkpt lat="49.85419" lon="2.14995">
        <ele>118.8</ele>
        <time>2022-03-23T13:38:27Z</time>
      </trkpt>
      <trkpt lat="49.85419" lon="2.14994">
        <ele>118.8</ele>
        <time>2022-03-23T13:38:29Z</time>
      </trkpt>
      <trkpt lat="49.85418" lon="2.14993">
        <ele>118.8</ele>
        <time>2022-03-23T13:38:30Z</time>
      </trkpt>
      <trkpt lat="49.85418" lon="2.1499">
        <ele>118.8</ele>
        <time>2022-03-23T13:38:31Z</time>
      </trkpt>
      <trkpt lat="49.85418" lon="2.14988">
        <ele>118.8</ele>
        <time>2022-03-23T13:38:32Z</time>
      </trkpt>
      <trkpt lat="49.85417" lon="2.14987">
        <ele>118.8</ele>
        <time>2022-03-23T13:38:33Z</time>
      </trkpt>
      <trkpt lat="49.85417" lon="2.14985">
        <ele>118.8</ele>
        <time>2022-03-23T13:38:34Z</time>
      </trkpt>
      <trkpt lat="49.85416" lon="2.14983">
        <ele>118.8</ele>
        <time>2022-03-23T13:38:35Z</time>
      </trkpt>
      <trkpt lat="49.85416" lon="2.14981">
        <ele>118.8</ele>
        <time>2022-03-23T13:38:36Z</time>
      </trkpt>
      <trkpt lat="49.85416" lon="2.1498">
        <ele>118.9</ele>
        <time>2022-03-23T13:38:37Z</time>
      </trkpt>
      <trkpt lat="49.85415" lon="2.14978">
        <ele>118.9</ele>
        <time>2022-03-23T13:38:38Z</time>
      </trkpt>
      <trkpt lat="49.85415" lon="2.14975">
        <ele>118.9</ele>
        <time>2022-03-23T13:38:40Z</time>
      </trkpt>
      <trkpt lat="49.85415" lon="2.14973">
        <ele>118.9</ele>
        <time>2022-03-23T13:38:41Z</time>
      </trkpt>
      <trkpt lat="49.85414" lon="2.14972">
        <ele>118.9</ele>
        <time>2022-03-23T13:38:42Z</time>
      </trkpt>
      <trkpt lat="49.85414" lon="2.1497">
        <ele>118.9</ele>
        <time>2022-03-23T13:38:43Z</time>
      </trkpt>
      <trkpt lat="49.85414" lon="2.14968">
        <ele>118.9</ele>
        <time>2022-03-23T13:38:44Z</time>
      </trkpt>
      <trkpt lat="49.85414" lon="2.14966">
        <ele>118.9</ele>
        <time>2022-03-23T13:38:45Z</time>
      </trkpt>
      <trkpt lat="49.85413" lon="2.14965">
        <ele>118.9</ele>
        <time>2022-03-23T13:38:46Z</time>
      </trkpt>
      <trkpt lat="49.85413" lon="2.14963">
        <ele>118.9</ele>
        <time>2022-03-23T13:38:47Z</time>
      </trkpt>
      <trkpt lat="49.85413" lon="2.14961">
        <ele>118.9</ele>
        <time>2022-03-23T13:38:48Z</time>
      </trkpt>
      <trkpt lat="49.85413" lon="2.14959">
        <ele>119</ele>
        <time>2022-03-23T13:38:49Z</time>
      </trkpt>
      <trkpt lat="49.85413" lon="2.14957">
        <ele>119</ele>
        <time>2022-03-23T13:38:51Z</time>
      </trkpt>
      <trkpt lat="49.85412" lon="2.14955">
        <ele>119</ele>
        <time>2022-03-23T13:38:52Z</time>
      </trkpt>
      <trkpt lat="49.85412" lon="2.14953">
        <ele>119</ele>
        <time>2022-03-23T13:38:53Z</time>
      </trkpt>
      <trkpt lat="49.85411" lon="2.1495">
        <ele>119</ele>
        <time>2022-03-23T13:38:54Z</time>
      </trkpt>
      <trkpt lat="49.85411" lon="2.14948">
        <ele>119</ele>
        <time>2022-03-23T13:38:55Z</time>
      </trkpt>
      <trkpt lat="49.85411" lon="2.14947">
        <ele>119</ele>
        <time>2022-03-23T13:38:56Z</time>
      </trkpt>
      <trkpt lat="49.8541" lon="2.14945">
        <ele>119</ele>
        <time>2022-03-23T13:38:57Z</time>
      </trkpt>
      <trkpt lat="49.8541" lon="2.14944">
        <ele>119</ele>
        <time>2022-03-23T13:38:58Z</time>
      </trkpt>
      <trkpt lat="49.85409" lon="2.14942">
        <ele>119</ele>
        <time>2022-03-23T13:38:59Z</time>
      </trkpt>
      <trkpt lat="49.85408" lon="2.14939">
        <ele>119</ele>
        <time>2022-03-23T13:39:00Z</time>
      </trkpt>
      <trkpt lat="49.85408" lon="2.14938">
        <ele>119</ele>
        <time>2022-03-23T13:39:02Z</time>
      </trkpt>
      <trkpt lat="49.85407" lon="2.14937">
        <ele>119.1</ele>
        <time>2022-03-23T13:39:03Z</time>
      </trkpt>
      <trkpt lat="49.85407" lon="2.14934">
        <ele>119.1</ele>
        <time>2022-03-23T13:39:04Z</time>
      </trkpt>
      <trkpt lat="49.85406" lon="2.14933">
        <ele>119.1</ele>
        <time>2022-03-23T13:39:05Z</time>
      </trkpt>
      <trkpt lat="49.85406" lon="2.14932">
        <ele>119.1</ele>
        <time>2022-03-23T13:39:06Z</time>
      </trkpt>
      <trkpt lat="49.85405" lon="2.14929">
        <ele>119.1</ele>
        <time>2022-03-23T13:39:07Z</time>
      </trkpt>
      <trkpt lat="49.85405" lon="2.14927">
        <ele>119.1</ele>
        <time>2022-03-23T13:39:08Z</time>
      </trkpt>
      <trkpt lat="49.85405" lon="2.14926">
        <ele>119.1</ele>
        <time>2022-03-23T13:39:09Z</time>
      </trkpt>
      <trkpt lat="49.85404" lon="2.14923">
        <ele>119.1</ele>
        <time>2022-03-23T13:39:10Z</time>
      </trkpt>
      <trkpt lat="49.85404" lon="2.14922">
        <ele>119.1</ele>
        <time>2022-03-23T13:39:11Z</time>
      </trkpt>
      <trkpt lat="49.85404" lon="2.14921">
        <ele>119.1</ele>
        <time>2022-03-23T13:39:12Z</time>
      </trkpt>
      <trkpt lat="49.85403" lon="2.14919">
        <ele>119.2</ele>
        <time>2022-03-23T13:39:14Z</time>
      </trkpt>
      <trkpt lat="49.85403" lon="2.14916">
        <ele>119.2</ele>
        <time>2022-03-23T13:39:15Z</time>
      </trkpt>
      <trkpt lat="49.85402" lon="2.14914">
        <ele>119.2</ele>
        <time>2022-03-23T13:39:16Z</time>
      </trkpt>
      <trkpt lat="49.85402" lon="2.14912">
        <ele>119.2</ele>
        <time>2022-03-23T13:39:17Z</time>
      </trkpt>
      <trkpt lat="49.85402" lon="2.1491">
        <ele>119.2</ele>
        <time>2022-03-23T13:39:18Z</time>
      </trkpt>
      <trkpt lat="49.85401" lon="2.14908">
        <ele>119.2</ele>
        <time>2022-03-23T13:39:19Z</time>
      </trkpt>
      <trkpt lat="49.85401" lon="2.14905">
        <ele>119.2</ele>
        <time>2022-03-23T13:39:21Z</time>
      </trkpt>
      <trkpt lat="49.85401" lon="2.14903">
        <ele>119.2</ele>
        <time>2022-03-23T13:39:22Z</time>
      </trkpt>
      <trkpt lat="49.854" lon="2.149">
        <ele>119.2</ele>
        <time>2022-03-23T13:39:23Z</time>
      </trkpt>
      <trkpt lat="49.854" lon="2.14899">
        <ele>119.2</ele>
        <time>2022-03-23T13:39:24Z</time>
      </trkpt>
      <trkpt lat="49.854" lon="2.14897">
        <ele>119.2</ele>
        <time>2022-03-23T13:39:25Z</time>
      </trkpt>
      <trkpt lat="49.854" lon="2.14895">
        <ele>119.2</ele>
        <time>2022-03-23T13:39:26Z</time>
      </trkpt>
      <trkpt lat="49.854" lon="2.14893">
        <ele>119.2</ele>
        <time>2022-03-23T13:39:27Z</time>
      </trkpt>
      <trkpt lat="49.854" lon="2.14889">
        <ele>119.2</ele>
        <time>2022-03-23T13:39:29Z</time>
      </trkpt>
      <trkpt lat="49.85399" lon="2.14887">
        <ele>119.2</ele>
        <time>2022-03-23T13:39:30Z</time>
      </trkpt>
      <trkpt lat="49.85399" lon="2.14886">
        <ele>119.2</ele>
        <time>2022-03-23T13:39:31Z</time>
      </trkpt>
      <trkpt lat="49.85399" lon="2.14883">
        <ele>119.3</ele>
        <time>2022-03-23T13:39:32Z</time>
      </trkpt>
      <trkpt lat="49.85399" lon="2.14879">
        <ele>119.3</ele>
        <time>2022-03-23T13:39:33Z</time>
      </trkpt>
      <trkpt lat="49.85398" lon="2.14878">
        <ele>119.3</ele>
        <time>2022-03-23T13:39:34Z</time>
      </trkpt>
      <trkpt lat="49.85398" lon="2.14877">
        <ele>119.3</ele>
        <time>2022-03-23T13:39:35Z</time>
      </trkpt>
      <trkpt lat="49.85398" lon="2.14874">
        <ele>119.3</ele>
        <time>2022-03-23T13:39:36Z</time>
      </trkpt>
      <trkpt lat="49.85398" lon="2.14872">
        <ele>119.3</ele>
        <time>2022-03-23T13:39:37Z</time>
      </trkpt>
      <trkpt lat="49.85397" lon="2.14871">
        <ele>119.3</ele>
        <time>2022-03-23T13:39:39Z</time>
      </trkpt>
      <trkpt lat="49.85397" lon="2.14869">
        <ele>119.3</ele>
        <time>2022-03-23T13:39:40Z</time>
      </trkpt>
      <trkpt lat="49.85397" lon="2.14867">
        <ele>119.3</ele>
        <time>2022-03-23T13:39:41Z</time>
      </trkpt>
      <trkpt lat="49.85397" lon="2.14866">
        <ele>119.3</ele>
        <time>2022-03-23T13:39:42Z</time>
      </trkpt>
      <trkpt lat="49.85396" lon="2.14864">
        <ele>119.3</ele>
        <time>2022-03-23T13:39:43Z</time>
      </trkpt>
      <trkpt lat="49.85396" lon="2.14862">
        <ele>119.3</ele>
        <time>2022-03-23T13:39:44Z</time>
      </trkpt>
      <trkpt lat="49.85396" lon="2.1486">
        <ele>119.3</ele>
        <time>2022-03-23T13:39:45Z</time>
      </trkpt>
      <trkpt lat="49.85396" lon="2.14858">
        <ele>119.3</ele>
        <time>2022-03-23T13:39:46Z</time>
      </trkpt>
      <trkpt lat="49.85396" lon="2.14857">
        <ele>119.3</ele>
        <time>2022-03-23T13:39:47Z</time>
      </trkpt>
      <trkpt lat="49.85395" lon="2.14855">
        <ele>119.3</ele>
        <time>2022-03-23T13:39:48Z</time>
      </trkpt>
      <trkpt lat="49.85395" lon="2.14853">
        <ele>119.3</ele>
        <time>2022-03-23T13:39:49Z</time>
      </trkpt>
      <trkpt lat="49.85395" lon="2.14851">
        <ele>119.3</ele>
        <time>2022-03-23T13:39:51Z</time>
      </trkpt>
      <trkpt lat="49.85394" lon="2.14849">
        <ele>119.3</ele>
        <time>2022-03-23T13:39:52Z</time>
      </trkpt>
      <trkpt lat="49.85394" lon="2.14847">
        <ele>119.4</ele>
        <time>2022-03-23T13:39:53Z</time>
      </trkpt>
      <trkpt lat="49.85394" lon="2.14846">
        <ele>119.4</ele>
        <time>2022-03-23T13:39:54Z</time>
      </trkpt>
      <trkpt lat="49.85394" lon="2.14843">
        <ele>119.4</ele>
        <time>2022-03-23T13:39:55Z</time>
      </trkpt>
      <trkpt lat="49.85394" lon="2.14841">
        <ele>119.4</ele>
        <time>2022-03-23T13:39:56Z</time>
      </trkpt>
      <trkpt lat="49.85394" lon="2.1484">
        <ele>119.4</ele>
        <time>2022-03-23T13:39:57Z</time>
      </trkpt>
      <trkpt lat="49.85394" lon="2.14837">
        <ele>119.4</ele>
        <time>2022-03-23T13:39:58Z</time>
      </trkpt>
      <trkpt lat="49.85394" lon="2.14836">
        <ele>119.4</ele>
        <time>2022-03-23T13:39:59Z</time>
      </trkpt>
      <trkpt lat="49.85393" lon="2.14834">
        <ele>119.4</ele>
        <time>2022-03-23T13:40:00Z</time>
      </trkpt>
      <trkpt lat="49.85393" lon="2.14831">
        <ele>119.4</ele>
        <time>2022-03-23T13:40:01Z</time>
      </trkpt>
      <trkpt lat="49.85392" lon="2.1483">
        <ele>119.5</ele>
        <time>2022-03-23T13:40:03Z</time>
      </trkpt>
      <trkpt lat="49.85392" lon="2.14829">
        <ele>119.5</ele>
        <time>2022-03-23T13:40:04Z</time>
      </trkpt>
      <trkpt lat="49.85391" lon="2.14828">
        <ele>119.5</ele>
        <time>2022-03-23T13:40:05Z</time>
      </trkpt>
      <trkpt lat="49.8539" lon="2.14826">
        <ele>119.5</ele>
        <time>2022-03-23T13:40:06Z</time>
      </trkpt>
      <trkpt lat="49.85389" lon="2.14824">
        <ele>119.5</ele>
        <time>2022-03-23T13:40:07Z</time>
      </trkpt>
      <trkpt lat="49.85388" lon="2.14822">
        <ele>119.5</ele>
        <time>2022-03-23T13:40:08Z</time>
      </trkpt>
      <trkpt lat="49.85388" lon="2.14821">
        <ele>119.5</ele>
        <time>2022-03-23T13:40:09Z</time>
      </trkpt>
      <trkpt lat="49.85387" lon="2.14819">
        <ele>119.6</ele>
        <time>2022-03-23T13:40:10Z</time>
      </trkpt>
      <trkpt lat="49.85386" lon="2.14818">
        <ele>119.6</ele>
        <time>2022-03-23T13:40:11Z</time>
      </trkpt>
      <trkpt lat="49.85386" lon="2.14816">
        <ele>119.6</ele>
        <time>2022-03-23T13:40:13Z</time>
      </trkpt>
      <trkpt lat="49.85385" lon="2.14814">
        <ele>119.6</ele>
        <time>2022-03-23T13:40:14Z</time>
      </trkpt>
      <trkpt lat="49.85386" lon="2.14812">
        <ele>119.6</ele>
        <time>2022-03-23T13:40:15Z</time>
      </trkpt>
      <trkpt lat="49.85385" lon="2.14809">
        <ele>119.6</ele>
        <time>2022-03-23T13:40:16Z</time>
      </trkpt>
      <trkpt lat="49.85385" lon="2.14808">
        <ele>119.6</ele>
        <time>2022-03-23T13:40:17Z</time>
      </trkpt>
      <trkpt lat="49.85385" lon="2.14806">
        <ele>119.6</ele>
        <time>2022-03-23T13:40:18Z</time>
      </trkpt>
      <trkpt lat="49.85384" lon="2.14805">
        <ele>119.7</ele>
        <time>2022-03-23T13:40:19Z</time>
      </trkpt>
      <trkpt lat="49.85384" lon="2.14803">
        <ele>119.7</ele>
        <time>2022-03-23T13:40:20Z</time>
      </trkpt>
      <trkpt lat="49.85384" lon="2.14801">
        <ele>119.7</ele>
        <time>2022-03-23T13:40:21Z</time>
      </trkpt>
      <trkpt lat="49.85384" lon="2.14799">
        <ele>119.7</ele>
        <time>2022-03-23T13:40:23Z</time>
      </trkpt>
      <trkpt lat="49.85384" lon="2.14797">
        <ele>119.7</ele>
        <time>2022-03-23T13:40:24Z</time>
      </trkpt>
      <trkpt lat="49.85384" lon="2.14793">
        <ele>119.7</ele>
        <time>2022-03-23T13:40:25Z</time>
      </trkpt>
      <trkpt lat="49.85384" lon="2.14792">
        <ele>119.7</ele>
        <time>2022-03-23T13:40:26Z</time>
      </trkpt>
      <trkpt lat="49.85383" lon="2.1479">
        <ele>119.8</ele>
        <time>2022-03-23T13:40:27Z</time>
      </trkpt>
      <trkpt lat="49.85383" lon="2.14787">
        <ele>119.8</ele>
        <time>2022-03-23T13:40:28Z</time>
      </trkpt>
      <trkpt lat="49.85383" lon="2.14785">
        <ele>119.8</ele>
        <time>2022-03-23T13:40:29Z</time>
      </trkpt>
      <trkpt lat="49.85383" lon="2.14784">
        <ele>119.8</ele>
        <time>2022-03-23T13:40:30Z</time>
      </trkpt>
      <trkpt lat="49.85383" lon="2.14781">
        <ele>119.8</ele>
        <time>2022-03-23T13:40:31Z</time>
      </trkpt>
      <trkpt lat="49.85383" lon="2.1478">
        <ele>119.8</ele>
        <time>2022-03-23T13:40:33Z</time>
      </trkpt>
      <trkpt lat="49.85382" lon="2.14778">
        <ele>119.8</ele>
        <time>2022-03-23T13:40:34Z</time>
      </trkpt>
      <trkpt lat="49.85382" lon="2.14775">
        <ele>119.8</ele>
        <time>2022-03-23T13:40:35Z</time>
      </trkpt>
      <trkpt lat="49.85382" lon="2.14774">
        <ele>119.8</ele>
        <time>2022-03-23T13:40:36Z</time>
      </trkpt>
      <trkpt lat="49.85382" lon="2.14773">
        <ele>119.9</ele>
        <time>2022-03-23T13:40:37Z</time>
      </trkpt>
      <trkpt lat="49.85382" lon="2.14771">
        <ele>119.9</ele>
        <time>2022-03-23T13:40:38Z</time>
      </trkpt>
      <trkpt lat="49.85381" lon="2.14767">
        <ele>119.9</ele>
        <time>2022-03-23T13:40:40Z</time>
      </trkpt>
      <trkpt lat="49.85381" lon="2.14765">
        <ele>119.9</ele>
        <time>2022-03-23T13:40:41Z</time>
      </trkpt>
      <trkpt lat="49.85381" lon="2.14763">
        <ele>119.9</ele>
        <time>2022-03-23T13:40:42Z</time>
      </trkpt>
      <trkpt lat="49.8538" lon="2.14762">
        <ele>119.9</ele>
        <time>2022-03-23T13:40:43Z</time>
      </trkpt>
      <trkpt lat="49.8538" lon="2.14758">
        <ele>119.9</ele>
        <time>2022-03-23T13:40:45Z</time>
      </trkpt>
      <trkpt lat="49.8538" lon="2.14757">
        <ele>119.9</ele>
        <time>2022-03-23T13:40:46Z</time>
      </trkpt>
      <trkpt lat="49.85379" lon="2.14756">
        <ele>119.9</ele>
        <time>2022-03-23T13:40:47Z</time>
      </trkpt>
      <trkpt lat="49.85379" lon="2.14754">
        <ele>120</ele>
        <time>2022-03-23T13:40:48Z</time>
      </trkpt>
      <trkpt lat="49.85379" lon="2.14751">
        <ele>120</ele>
        <time>2022-03-23T13:40:49Z</time>
      </trkpt>
      <trkpt lat="49.85378" lon="2.14748">
        <ele>120</ele>
        <time>2022-03-23T13:40:51Z</time>
      </trkpt>
      <trkpt lat="49.85378" lon="2.14747">
        <ele>120</ele>
        <time>2022-03-23T13:40:52Z</time>
      </trkpt>
      <trkpt lat="49.85378" lon="2.14746">
        <ele>120</ele>
        <time>2022-03-23T13:40:53Z</time>
      </trkpt>
      <trkpt lat="49.85378" lon="2.14744">
        <ele>120</ele>
        <time>2022-03-23T13:40:54Z</time>
      </trkpt>
      <trkpt lat="49.85377" lon="2.14741">
        <ele>120</ele>
        <time>2022-03-23T13:40:55Z</time>
      </trkpt>
      <trkpt lat="49.85377" lon="2.14739">
        <ele>120.1</ele>
        <time>2022-03-23T13:40:56Z</time>
      </trkpt>
      <trkpt lat="49.85376" lon="2.14737">
        <ele>120.1</ele>
        <time>2022-03-23T13:40:57Z</time>
      </trkpt>
      <trkpt lat="49.85376" lon="2.14736">
        <ele>120.1</ele>
        <time>2022-03-23T13:40:58Z</time>
      </trkpt>
      <trkpt lat="49.85375" lon="2.14734">
        <ele>120.1</ele>
        <time>2022-03-23T13:40:59Z</time>
      </trkpt>
      <trkpt lat="49.85374" lon="2.14732">
        <ele>120.1</ele>
        <time>2022-03-23T13:41:01Z</time>
      </trkpt>
      <trkpt lat="49.85374" lon="2.1473">
        <ele>120.1</ele>
        <time>2022-03-23T13:41:02Z</time>
      </trkpt>
      <trkpt lat="49.85374" lon="2.14728">
        <ele>120.1</ele>
        <time>2022-03-23T13:41:03Z</time>
      </trkpt>
      <trkpt lat="49.85374" lon="2.14726">
        <ele>120.2</ele>
        <time>2022-03-23T13:41:04Z</time>
      </trkpt>
      <trkpt lat="49.85373" lon="2.14725">
        <ele>120.2</ele>
        <time>2022-03-23T13:41:05Z</time>
      </trkpt>
      <trkpt lat="49.85373" lon="2.14723">
        <ele>120.2</ele>
        <time>2022-03-23T13:41:06Z</time>
      </trkpt>
      <trkpt lat="49.85372" lon="2.14721">
        <ele>120.2</ele>
        <time>2022-03-23T13:41:07Z</time>
      </trkpt>
      <trkpt lat="49.85372" lon="2.14718">
        <ele>120.2</ele>
        <time>2022-03-23T13:41:08Z</time>
      </trkpt>
      <trkpt lat="49.85372" lon="2.14717">
        <ele>120.2</ele>
        <time>2022-03-23T13:41:09Z</time>
      </trkpt>
      <trkpt lat="49.85372" lon="2.14716">
        <ele>120.2</ele>
        <time>2022-03-23T13:41:10Z</time>
      </trkpt>
      <trkpt lat="49.85371" lon="2.14712">
        <ele>120.3</ele>
        <time>2022-03-23T13:41:12Z</time>
      </trkpt>
      <trkpt lat="49.85371" lon="2.14711">
        <ele>120.3</ele>
        <time>2022-03-23T13:41:13Z</time>
      </trkpt>
      <trkpt lat="49.85371" lon="2.1471">
        <ele>120.3</ele>
        <time>2022-03-23T13:41:14Z</time>
      </trkpt>
      <trkpt lat="49.85371" lon="2.14707">
        <ele>120.3</ele>
        <time>2022-03-23T13:41:15Z</time>
      </trkpt>
      <trkpt lat="49.8537" lon="2.14706">
        <ele>120.3</ele>
        <time>2022-03-23T13:41:16Z</time>
      </trkpt>
      <trkpt lat="49.8537" lon="2.14704">
        <ele>120.3</ele>
        <time>2022-03-23T13:41:17Z</time>
      </trkpt>
      <trkpt lat="49.8537" lon="2.14702">
        <ele>120.3</ele>
        <time>2022-03-23T13:41:18Z</time>
      </trkpt>
      <trkpt lat="49.8537" lon="2.147">
        <ele>120.3</ele>
        <time>2022-03-23T13:41:19Z</time>
      </trkpt>
      <trkpt lat="49.85369" lon="2.14698">
        <ele>120.3</ele>
        <time>2022-03-23T13:41:20Z</time>
      </trkpt>
      <trkpt lat="49.85369" lon="2.14696">
        <ele>120.3</ele>
        <time>2022-03-23T13:41:21Z</time>
      </trkpt>
      <trkpt lat="49.85368" lon="2.14692">
        <ele>120.4</ele>
        <time>2022-03-23T13:41:23Z</time>
      </trkpt>
      <trkpt lat="49.85368" lon="2.14691">
        <ele>120.4</ele>
        <time>2022-03-23T13:41:24Z</time>
      </trkpt>
      <trkpt lat="49.85368" lon="2.1469">
        <ele>120.4</ele>
        <time>2022-03-23T13:41:25Z</time>
      </trkpt>
      <trkpt lat="49.85367" lon="2.14687">
        <ele>120.4</ele>
        <time>2022-03-23T13:41:26Z</time>
      </trkpt>
      <trkpt lat="49.85367" lon="2.14685">
        <ele>120.4</ele>
        <time>2022-03-23T13:41:27Z</time>
      </trkpt>
      <trkpt lat="49.85367" lon="2.14684">
        <ele>120.4</ele>
        <time>2022-03-23T13:41:28Z</time>
      </trkpt>
      <trkpt lat="49.85367" lon="2.14682">
        <ele>120.4</ele>
        <time>2022-03-23T13:41:29Z</time>
      </trkpt>
      <trkpt lat="49.85366" lon="2.14679">
        <ele>120.4</ele>
        <time>2022-03-23T13:41:30Z</time>
      </trkpt>
      <trkpt lat="49.85366" lon="2.14677">
        <ele>120.5</ele>
        <time>2022-03-23T13:41:32Z</time>
      </trkpt>
      <trkpt lat="49.85365" lon="2.14674">
        <ele>120.5</ele>
        <time>2022-03-23T13:41:33Z</time>
      </trkpt>
      <trkpt lat="49.85365" lon="2.14671">
        <ele>120.5</ele>
        <time>2022-03-23T13:41:34Z</time>
      </trkpt>
      <trkpt lat="49.85365" lon="2.1467">
        <ele>120.5</ele>
        <time>2022-03-23T13:41:35Z</time>
      </trkpt>
      <trkpt lat="49.85364" lon="2.14669">
        <ele>120.5</ele>
        <time>2022-03-23T13:41:36Z</time>
      </trkpt>
      <trkpt lat="49.85364" lon="2.14667">
        <ele>120.5</ele>
        <time>2022-03-23T13:41:37Z</time>
      </trkpt>
      <trkpt lat="49.85363" lon="2.14665">
        <ele>120.5</ele>
        <time>2022-03-23T13:41:38Z</time>
      </trkpt>
      <trkpt lat="49.85363" lon="2.14663">
        <ele>120.5</ele>
        <time>2022-03-23T13:41:40Z</time>
      </trkpt>
      <trkpt lat="49.85363" lon="2.1466">
        <ele>120.6</ele>
        <time>2022-03-23T13:41:41Z</time>
      </trkpt>
      <trkpt lat="49.85363" lon="2.14659">
        <ele>120.6</ele>
        <time>2022-03-23T13:41:42Z</time>
      </trkpt>
      <trkpt lat="49.85363" lon="2.14657">
        <ele>120.6</ele>
        <time>2022-03-23T13:41:43Z</time>
      </trkpt>
      <trkpt lat="49.85362" lon="2.14654">
        <ele>120.6</ele>
        <time>2022-03-23T13:41:44Z</time>
      </trkpt>
      <trkpt lat="49.85362" lon="2.14653">
        <ele>120.6</ele>
        <time>2022-03-23T13:41:45Z</time>
      </trkpt>
      <trkpt lat="49.85362" lon="2.14652">
        <ele>120.6</ele>
        <time>2022-03-23T13:41:46Z</time>
      </trkpt>
      <trkpt lat="49.85362" lon="2.1465">
        <ele>120.6</ele>
        <time>2022-03-23T13:41:47Z</time>
      </trkpt>
      <trkpt lat="49.85362" lon="2.14648">
        <ele>120.6</ele>
        <time>2022-03-23T13:41:48Z</time>
      </trkpt>
      <trkpt lat="49.85361" lon="2.14647">
        <ele>120.6</ele>
        <time>2022-03-23T13:41:49Z</time>
      </trkpt>
      <trkpt lat="49.85361" lon="2.14644">
        <ele>120.7</ele>
        <time>2022-03-23T13:41:51Z</time>
      </trkpt>
      <trkpt lat="49.8536" lon="2.14642">
        <ele>120.7</ele>
        <time>2022-03-23T13:41:52Z</time>
      </trkpt>
      <trkpt lat="49.8536" lon="2.14641">
        <ele>120.7</ele>
        <time>2022-03-23T13:41:53Z</time>
      </trkpt>
      <trkpt lat="49.85359" lon="2.14639">
        <ele>120.7</ele>
        <time>2022-03-23T13:41:54Z</time>
      </trkpt>
      <trkpt lat="49.85359" lon="2.14637">
        <ele>120.7</ele>
        <time>2022-03-23T13:41:55Z</time>
      </trkpt>
      <trkpt lat="49.85358" lon="2.14634">
        <ele>120.7</ele>
        <time>2022-03-23T13:41:56Z</time>
      </trkpt>
      <trkpt lat="49.85358" lon="2.14633">
        <ele>120.7</ele>
        <time>2022-03-23T13:41:57Z</time>
      </trkpt>
      <trkpt lat="49.85358" lon="2.14632">
        <ele>120.7</ele>
        <time>2022-03-23T13:41:58Z</time>
      </trkpt>
      <trkpt lat="49.85357" lon="2.14628">
        <ele>120.7</ele>
        <time>2022-03-23T13:41:59Z</time>
      </trkpt>
      <trkpt lat="49.85357" lon="2.14627">
        <ele>120.7</ele>
        <time>2022-03-23T13:42:01Z</time>
      </trkpt>
      <trkpt lat="49.85357" lon="2.14625">
        <ele>120.7</ele>
        <time>2022-03-23T13:42:02Z</time>
      </trkpt>
      <trkpt lat="49.85357" lon="2.14623">
        <ele>120.7</ele>
        <time>2022-03-23T13:42:03Z</time>
      </trkpt>
      <trkpt lat="49.85357" lon="2.14622">
        <ele>120.7</ele>
        <time>2022-03-23T13:42:04Z</time>
      </trkpt>
      <trkpt lat="49.85357" lon="2.1462">
        <ele>120.7</ele>
        <time>2022-03-23T13:42:05Z</time>
      </trkpt>
      <trkpt lat="49.85356" lon="2.14618">
        <ele>120.7</ele>
        <time>2022-03-23T13:42:06Z</time>
      </trkpt>
      <trkpt lat="49.85356" lon="2.14616">
        <ele>120.7</ele>
        <time>2022-03-23T13:42:07Z</time>
      </trkpt>
      <trkpt lat="49.85355" lon="2.14615">
        <ele>120.7</ele>
        <time>2022-03-23T13:42:08Z</time>
      </trkpt>
      <trkpt lat="49.85355" lon="2.14613">
        <ele>120.7</ele>
        <time>2022-03-23T13:42:09Z</time>
      </trkpt>
      <trkpt lat="49.85354" lon="2.14611">
        <ele>120.7</ele>
        <time>2022-03-23T13:42:11Z</time>
      </trkpt>
      <trkpt lat="49.85354" lon="2.1461">
        <ele>120.7</ele>
        <time>2022-03-23T13:42:12Z</time>
      </trkpt>
      <trkpt lat="49.85354" lon="2.14608">
        <ele>120.7</ele>
        <time>2022-03-23T13:42:13Z</time>
      </trkpt>
      <trkpt lat="49.85354" lon="2.14606">
        <ele>120.7</ele>
        <time>2022-03-23T13:42:14Z</time>
      </trkpt>
      <trkpt lat="49.85353" lon="2.14604">
        <ele>120.7</ele>
        <time>2022-03-23T13:42:15Z</time>
      </trkpt>
      <trkpt lat="49.85353" lon="2.14602">
        <ele>120.7</ele>
        <time>2022-03-23T13:42:16Z</time>
      </trkpt>
      <trkpt lat="49.85352" lon="2.14598">
        <ele>120.7</ele>
        <time>2022-03-23T13:42:17Z</time>
      </trkpt>
      <trkpt lat="49.85352" lon="2.14597">
        <ele>120.7</ele>
        <time>2022-03-23T13:42:18Z</time>
      </trkpt>
      <trkpt lat="49.85352" lon="2.14596">
        <ele>120.7</ele>
        <time>2022-03-23T13:42:19Z</time>
      </trkpt>
      <trkpt lat="49.85352" lon="2.14592">
        <ele>120.7</ele>
        <time>2022-03-23T13:42:20Z</time>
      </trkpt>
      <trkpt lat="49.85351" lon="2.14591">
        <ele>120.7</ele>
        <time>2022-03-23T13:42:22Z</time>
      </trkpt>
      <trkpt lat="49.85351" lon="2.1459">
        <ele>120.7</ele>
        <time>2022-03-23T13:42:23Z</time>
      </trkpt>
      <trkpt lat="49.85351" lon="2.14586">
        <ele>120.7</ele>
        <time>2022-03-23T13:42:24Z</time>
      </trkpt>
      <trkpt lat="49.85351" lon="2.14585">
        <ele>120.7</ele>
        <time>2022-03-23T13:42:25Z</time>
      </trkpt>
      <trkpt lat="49.8535" lon="2.14584">
        <ele>120.7</ele>
        <time>2022-03-23T13:42:26Z</time>
      </trkpt>
      <trkpt lat="49.8535" lon="2.14582">
        <ele>120.7</ele>
        <time>2022-03-23T13:42:27Z</time>
      </trkpt>
      <trkpt lat="49.8535" lon="2.1458">
        <ele>120.7</ele>
        <time>2022-03-23T13:42:28Z</time>
      </trkpt>
      <trkpt lat="49.85349" lon="2.14578">
        <ele>120.7</ele>
        <time>2022-03-23T13:42:29Z</time>
      </trkpt>
      <trkpt lat="49.85349" lon="2.14576">
        <ele>120.7</ele>
        <time>2022-03-23T13:42:30Z</time>
      </trkpt>
      <trkpt lat="49.85349" lon="2.14575">
        <ele>120.7</ele>
        <time>2022-03-23T13:42:31Z</time>
      </trkpt>
      <trkpt lat="49.85348" lon="2.14571">
        <ele>120.7</ele>
        <time>2022-03-23T13:42:32Z</time>
      </trkpt>
      <trkpt lat="49.85348" lon="2.1457">
        <ele>120.7</ele>
        <time>2022-03-23T13:42:34Z</time>
      </trkpt>
      <trkpt lat="49.85347" lon="2.14568">
        <ele>120.7</ele>
        <time>2022-03-23T13:42:35Z</time>
      </trkpt>
      <trkpt lat="49.85347" lon="2.14567">
        <ele>120.7</ele>
        <time>2022-03-23T13:42:36Z</time>
      </trkpt>
      <trkpt lat="49.85347" lon="2.14565">
        <ele>120.7</ele>
        <time>2022-03-23T13:42:37Z</time>
      </trkpt>
      <trkpt lat="49.85347" lon="2.14563">
        <ele>120.7</ele>
        <time>2022-03-23T13:42:38Z</time>
      </trkpt>
      <trkpt lat="49.85346" lon="2.1456">
        <ele>120.7</ele>
        <time>2022-03-23T13:42:39Z</time>
      </trkpt>
      <trkpt lat="49.85346" lon="2.14557">
        <ele>120.6</ele>
        <time>2022-03-23T13:42:40Z</time>
      </trkpt>
      <trkpt lat="49.85346" lon="2.14556">
        <ele>120.6</ele>
        <time>2022-03-23T13:42:41Z</time>
      </trkpt>
      <trkpt lat="49.85346" lon="2.14555">
        <ele>120.6</ele>
        <time>2022-03-23T13:42:42Z</time>
      </trkpt>
      <trkpt lat="49.85346" lon="2.14553">
        <ele>120.6</ele>
        <time>2022-03-23T13:42:43Z</time>
      </trkpt>
      <trkpt lat="49.85346" lon="2.14551">
        <ele>120.6</ele>
        <time>2022-03-23T13:42:44Z</time>
      </trkpt>
      <trkpt lat="49.85346" lon="2.14549">
        <ele>120.6</ele>
        <time>2022-03-23T13:42:46Z</time>
      </trkpt>
      <trkpt lat="49.85346" lon="2.14546">
        <ele>120.6</ele>
        <time>2022-03-23T13:42:47Z</time>
      </trkpt>
      <trkpt lat="49.85346" lon="2.14544">
        <ele>120.6</ele>
        <time>2022-03-23T13:42:48Z</time>
      </trkpt>
      <trkpt lat="49.85346" lon="2.14543">
        <ele>120.6</ele>
        <time>2022-03-23T13:42:49Z</time>
      </trkpt>
      <trkpt lat="49.85345" lon="2.1454">
        <ele>120.6</ele>
        <time>2022-03-23T13:42:50Z</time>
      </trkpt>
      <trkpt lat="49.85345" lon="2.14539">
        <ele>120.6</ele>
        <time>2022-03-23T13:42:51Z</time>
      </trkpt>
      <trkpt lat="49.85344" lon="2.14537">
        <ele>120.6</ele>
        <time>2022-03-23T13:42:52Z</time>
      </trkpt>
      <trkpt lat="49.85344" lon="2.14536">
        <ele>120.6</ele>
        <time>2022-03-23T13:42:53Z</time>
      </trkpt>
      <trkpt lat="49.85344" lon="2.14534">
        <ele>120.6</ele>
        <time>2022-03-23T13:42:54Z</time>
      </trkpt>
      <trkpt lat="49.85344" lon="2.14532">
        <ele>120.6</ele>
        <time>2022-03-23T13:42:55Z</time>
      </trkpt>
      <trkpt lat="49.85343" lon="2.1453">
        <ele>120.5</ele>
        <time>2022-03-23T13:42:57Z</time>
      </trkpt>
      <trkpt lat="49.85343" lon="2.14528">
        <ele>120.5</ele>
        <time>2022-03-23T13:42:58Z</time>
      </trkpt>
      <trkpt lat="49.85342" lon="2.14525">
        <ele>120.5</ele>
        <time>2022-03-23T13:42:59Z</time>
      </trkpt>
      <trkpt lat="49.85341" lon="2.14524">
        <ele>120.5</ele>
        <time>2022-03-23T13:43:00Z</time>
      </trkpt>
      <trkpt lat="49.85341" lon="2.14523">
        <ele>120.5</ele>
        <time>2022-03-23T13:43:01Z</time>
      </trkpt>
      <trkpt lat="49.85341" lon="2.14521">
        <ele>120.5</ele>
        <time>2022-03-23T13:43:02Z</time>
      </trkpt>
      <trkpt lat="49.85341" lon="2.14519">
        <ele>120.5</ele>
        <time>2022-03-23T13:43:03Z</time>
      </trkpt>
      <trkpt lat="49.8534" lon="2.14518">
        <ele>120.5</ele>
        <time>2022-03-23T13:43:04Z</time>
      </trkpt>
      <trkpt lat="49.8534" lon="2.14516">
        <ele>120.4</ele>
        <time>2022-03-23T13:43:05Z</time>
      </trkpt>
      <trkpt lat="49.8534" lon="2.14514">
        <ele>120.4</ele>
        <time>2022-03-23T13:43:06Z</time>
      </trkpt>
      <trkpt lat="49.85339" lon="2.14512">
        <ele>120.4</ele>
        <time>2022-03-23T13:43:08Z</time>
      </trkpt>
      <trkpt lat="49.85339" lon="2.1451">
        <ele>120.4</ele>
        <time>2022-03-23T13:43:09Z</time>
      </trkpt>
      <trkpt lat="49.85339" lon="2.14509">
        <ele>120.4</ele>
        <time>2022-03-23T13:43:10Z</time>
      </trkpt>
      <trkpt lat="49.85339" lon="2.14507">
        <ele>120.4</ele>
        <time>2022-03-23T13:43:11Z</time>
      </trkpt>
      <trkpt lat="49.85338" lon="2.14504">
        <ele>120.4</ele>
        <time>2022-03-23T13:43:12Z</time>
      </trkpt>
      <trkpt lat="49.85338" lon="2.14502">
        <ele>120.4</ele>
        <time>2022-03-23T13:43:13Z</time>
      </trkpt>
      <trkpt lat="49.85338" lon="2.14501">
        <ele>120.4</ele>
        <time>2022-03-23T13:43:14Z</time>
      </trkpt>
      <trkpt lat="49.85337" lon="2.14499">
        <ele>120.3</ele>
        <time>2022-03-23T13:43:15Z</time>
      </trkpt>
      <trkpt lat="49.85336" lon="2.14498">
        <ele>120.3</ele>
        <time>2022-03-23T13:43:16Z</time>
      </trkpt>
      <trkpt lat="49.85336" lon="2.14497">
        <ele>120.3</ele>
        <time>2022-03-23T13:43:17Z</time>
      </trkpt>
      <trkpt lat="49.85335" lon="2.14495">
        <ele>120.3</ele>
        <time>2022-03-23T13:43:19Z</time>
      </trkpt>
      <trkpt lat="49.85334" lon="2.14493">
        <ele>120.3</ele>
        <time>2022-03-23T13:43:20Z</time>
      </trkpt>
      <trkpt lat="49.85334" lon="2.14491">
        <ele>120.3</ele>
        <time>2022-03-23T13:43:21Z</time>
      </trkpt>
      <trkpt lat="49.85333" lon="2.14489">
        <ele>120.3</ele>
        <time>2022-03-23T13:43:22Z</time>
      </trkpt>
      <trkpt lat="49.85332" lon="2.14487">
        <ele>120.3</ele>
        <time>2022-03-23T13:43:23Z</time>
      </trkpt>
      <trkpt lat="49.85332" lon="2.14485">
        <ele>120.2</ele>
        <time>2022-03-23T13:43:24Z</time>
      </trkpt>
      <trkpt lat="49.85331" lon="2.14481">
        <ele>120.2</ele>
        <time>2022-03-23T13:43:25Z</time>
      </trkpt>
      <trkpt lat="49.8533" lon="2.1448">
        <ele>120.2</ele>
        <time>2022-03-23T13:43:26Z</time>
      </trkpt>
      <trkpt lat="49.8533" lon="2.14479">
        <ele>120.2</ele>
        <time>2022-03-23T13:43:27Z</time>
      </trkpt>
      <trkpt lat="49.85329" lon="2.14476">
        <ele>120.2</ele>
        <time>2022-03-23T13:43:28Z</time>
      </trkpt>
      <trkpt lat="49.85329" lon="2.14475">
        <ele>120.2</ele>
        <time>2022-03-23T13:43:29Z</time>
      </trkpt>
      <trkpt lat="49.85328" lon="2.14473">
        <ele>120.2</ele>
        <time>2022-03-23T13:43:31Z</time>
      </trkpt>
      <trkpt lat="49.85328" lon="2.14472">
        <ele>120.2</ele>
        <time>2022-03-23T13:43:32Z</time>
      </trkpt>
      <trkpt lat="49.85327" lon="2.1447">
        <ele>120.2</ele>
        <time>2022-03-23T13:43:33Z</time>
      </trkpt>
      <trkpt lat="49.85327" lon="2.14469">
        <ele>120.1</ele>
        <time>2022-03-23T13:43:34Z</time>
      </trkpt>
      <trkpt lat="49.85326" lon="2.14466">
        <ele>120.1</ele>
        <time>2022-03-23T13:43:35Z</time>
      </trkpt>
      <trkpt lat="49.85326" lon="2.14464">
        <ele>120.1</ele>
        <time>2022-03-23T13:43:36Z</time>
      </trkpt>
      <trkpt lat="49.85325" lon="2.14461">
        <ele>120.1</ele>
        <time>2022-03-23T13:43:37Z</time>
      </trkpt>
      <trkpt lat="49.85325" lon="2.1446">
        <ele>120.1</ele>
        <time>2022-03-23T13:43:38Z</time>
      </trkpt>
      <trkpt lat="49.85324" lon="2.14459">
        <ele>120.1</ele>
        <time>2022-03-23T13:43:39Z</time>
      </trkpt>
      <trkpt lat="49.85323" lon="2.14456">
        <ele>120.1</ele>
        <time>2022-03-23T13:43:40Z</time>
      </trkpt>
      <trkpt lat="49.85323" lon="2.14455">
        <ele>120.1</ele>
        <time>2022-03-23T13:43:42Z</time>
      </trkpt>
      <trkpt lat="49.85322" lon="2.14454">
        <ele>120.1</ele>
        <time>2022-03-23T13:43:43Z</time>
      </trkpt>
      <trkpt lat="49.85322" lon="2.14452">
        <ele>120.1</ele>
        <time>2022-03-23T13:43:44Z</time>
      </trkpt>
      <trkpt lat="49.85321" lon="2.1445">
        <ele>120.1</ele>
        <time>2022-03-23T13:43:45Z</time>
      </trkpt>
      <trkpt lat="49.8532" lon="2.14447">
        <ele>120.1</ele>
        <time>2022-03-23T13:43:46Z</time>
      </trkpt>
      <trkpt lat="49.8532" lon="2.14445">
        <ele>120.1</ele>
        <time>2022-03-23T13:43:47Z</time>
      </trkpt>
      <trkpt lat="49.8532" lon="2.14444">
        <ele>120.1</ele>
        <time>2022-03-23T13:43:48Z</time>
      </trkpt>
      <trkpt lat="49.85319" lon="2.14442">
        <ele>120.1</ele>
        <time>2022-03-23T13:43:49Z</time>
      </trkpt>
      <trkpt lat="49.85318" lon="2.14441">
        <ele>120.1</ele>
        <time>2022-03-23T13:43:50Z</time>
      </trkpt>
      <trkpt lat="49.85317" lon="2.14438">
        <ele>120</ele>
        <time>2022-03-23T13:43:51Z</time>
      </trkpt>
      <trkpt lat="49.85316" lon="2.14437">
        <ele>120</ele>
        <time>2022-03-23T13:43:52Z</time>
      </trkpt>
      <trkpt lat="49.85316" lon="2.14436">
        <ele>120</ele>
        <time>2022-03-23T13:43:53Z</time>
      </trkpt>
      <trkpt lat="49.85315" lon="2.14434">
        <ele>120</ele>
        <time>2022-03-23T13:43:55Z</time>
      </trkpt>
      <trkpt lat="49.85314" lon="2.14432">
        <ele>120</ele>
        <time>2022-03-23T13:43:56Z</time>
      </trkpt>
      <trkpt lat="49.85313" lon="2.1443">
        <ele>120</ele>
        <time>2022-03-23T13:43:57Z</time>
      </trkpt>
      <trkpt lat="49.85313" lon="2.14428">
        <ele>120</ele>
        <time>2022-03-23T13:43:58Z</time>
      </trkpt>
      <trkpt lat="49.85313" lon="2.14427">
        <ele>120</ele>
        <time>2022-03-23T13:43:59Z</time>
      </trkpt>
      <trkpt lat="49.85312" lon="2.14425">
        <ele>120</ele>
        <time>2022-03-23T13:44:00Z</time>
      </trkpt>
      <trkpt lat="49.85311" lon="2.14423">
        <ele>120</ele>
        <time>2022-03-23T13:44:01Z</time>
      </trkpt>
      <trkpt lat="49.8531" lon="2.14422">
        <ele>120</ele>
        <time>2022-03-23T13:44:02Z</time>
      </trkpt>
      <trkpt lat="49.8531" lon="2.1442">
        <ele>120</ele>
        <time>2022-03-23T13:44:03Z</time>
      </trkpt>
      <trkpt lat="49.85309" lon="2.14419">
        <ele>120</ele>
        <time>2022-03-23T13:44:04Z</time>
      </trkpt>
      <trkpt lat="49.85308" lon="2.14418">
        <ele>120</ele>
        <time>2022-03-23T13:44:05Z</time>
      </trkpt>
      <trkpt lat="49.85308" lon="2.14416">
        <ele>119.9</ele>
        <time>2022-03-23T13:44:07Z</time>
      </trkpt>
      <trkpt lat="49.85307" lon="2.14415">
        <ele>119.9</ele>
        <time>2022-03-23T13:44:08Z</time>
      </trkpt>
      <trkpt lat="49.85306" lon="2.14412">
        <ele>119.9</ele>
        <time>2022-03-23T13:44:09Z</time>
      </trkpt>
      <trkpt lat="49.85305" lon="2.14411">
        <ele>119.9</ele>
        <time>2022-03-23T13:44:10Z</time>
      </trkpt>
      <trkpt lat="49.85305" lon="2.1441">
        <ele>119.9</ele>
        <time>2022-03-23T13:44:11Z</time>
      </trkpt>
      <trkpt lat="49.85304" lon="2.14408">
        <ele>119.9</ele>
        <time>2022-03-23T13:44:12Z</time>
      </trkpt>
      <trkpt lat="49.85303" lon="2.14407">
        <ele>119.9</ele>
        <time>2022-03-23T13:44:13Z</time>
      </trkpt>
      <trkpt lat="49.85303" lon="2.14405">
        <ele>119.9</ele>
        <time>2022-03-23T13:44:14Z</time>
      </trkpt>
      <trkpt lat="49.85302" lon="2.14404">
        <ele>119.9</ele>
        <time>2022-03-23T13:44:15Z</time>
      </trkpt>
      <trkpt lat="49.85301" lon="2.14402">
        <ele>119.8</ele>
        <time>2022-03-23T13:44:16Z</time>
      </trkpt>
      <trkpt lat="49.85301" lon="2.144">
        <ele>119.8</ele>
        <time>2022-03-23T13:44:18Z</time>
      </trkpt>
      <trkpt lat="49.853" lon="2.14397">
        <ele>119.8</ele>
        <time>2022-03-23T13:44:19Z</time>
      </trkpt>
      <trkpt lat="49.85299" lon="2.14396">
        <ele>119.8</ele>
        <time>2022-03-23T13:44:20Z</time>
      </trkpt>
      <trkpt lat="49.85299" lon="2.14395">
        <ele>119.8</ele>
        <time>2022-03-23T13:44:21Z</time>
      </trkpt>
      <trkpt lat="49.85297" lon="2.14392">
        <ele>119.7</ele>
        <time>2022-03-23T13:44:22Z</time>
      </trkpt>
      <trkpt lat="49.85297" lon="2.14391">
        <ele>119.7</ele>
        <time>2022-03-23T13:44:23Z</time>
      </trkpt>
      <trkpt lat="49.85296" lon="2.1439">
        <ele>119.7</ele>
        <time>2022-03-23T13:44:24Z</time>
      </trkpt>
      <trkpt lat="49.85296" lon="2.14389">
        <ele>119.7</ele>
        <time>2022-03-23T13:44:25Z</time>
      </trkpt>
      <trkpt lat="49.85295" lon="2.14388">
        <ele>119.7</ele>
        <time>2022-03-23T13:44:26Z</time>
      </trkpt>
      <trkpt lat="49.85294" lon="2.14386">
        <ele>119.6</ele>
        <time>2022-03-23T13:44:28Z</time>
      </trkpt>
      <trkpt lat="49.85292" lon="2.14384">
        <ele>119.6</ele>
        <time>2022-03-23T13:44:29Z</time>
      </trkpt>
      <trkpt lat="49.85292" lon="2.14383">
        <ele>119.6</ele>
        <time>2022-03-23T13:44:30Z</time>
      </trkpt>
      <trkpt lat="49.85291" lon="2.14382">
        <ele>119.6</ele>
        <time>2022-03-23T13:44:31Z</time>
      </trkpt>
      <trkpt lat="49.8529" lon="2.1438">
        <ele>119.5</ele>
        <time>2022-03-23T13:44:32Z</time>
      </trkpt>
      <trkpt lat="49.85289" lon="2.14379">
        <ele>119.5</ele>
        <time>2022-03-23T13:44:33Z</time>
      </trkpt>
      <trkpt lat="49.85287" lon="2.14377">
        <ele>119.5</ele>
        <time>2022-03-23T13:44:34Z</time>
      </trkpt>
      <trkpt lat="49.85287" lon="2.14376">
        <ele>119.4</ele>
        <time>2022-03-23T13:44:35Z</time>
      </trkpt>
      <trkpt lat="49.85286" lon="2.14376">
        <ele>119.4</ele>
        <time>2022-03-23T13:44:36Z</time>
      </trkpt>
      <trkpt lat="49.85285" lon="2.14374">
        <ele>119.4</ele>
        <time>2022-03-23T13:44:37Z</time>
      </trkpt>
      <trkpt lat="49.85284" lon="2.14373">
        <ele>119.4</ele>
        <time>2022-03-23T13:44:38Z</time>
      </trkpt>
      <trkpt lat="49.85283" lon="2.14372">
        <ele>119.3</ele>
        <time>2022-03-23T13:44:40Z</time>
      </trkpt>
      <trkpt lat="49.85282" lon="2.1437">
        <ele>119.3</ele>
        <time>2022-03-23T13:44:41Z</time>
      </trkpt>
      <trkpt lat="49.8528" lon="2.14368">
        <ele>119.2</ele>
        <time>2022-03-23T13:44:42Z</time>
      </trkpt>
      <trkpt lat="49.85279" lon="2.14367">
        <ele>119.2</ele>
        <time>2022-03-23T13:44:43Z</time>
      </trkpt>
      <trkpt lat="49.85279" lon="2.14366">
        <ele>119.2</ele>
        <time>2022-03-23T13:44:44Z</time>
      </trkpt>
      <trkpt lat="49.85277" lon="2.14364">
        <ele>119.2</ele>
        <time>2022-03-23T13:44:45Z</time>
      </trkpt>
      <trkpt lat="49.85276" lon="2.14363">
        <ele>119.1</ele>
        <time>2022-03-23T13:44:46Z</time>
      </trkpt>
      <trkpt lat="49.85276" lon="2.14362">
        <ele>119.1</ele>
        <time>2022-03-23T13:44:47Z</time>
      </trkpt>
      <trkpt lat="49.85275" lon="2.14361">
        <ele>119.1</ele>
        <time>2022-03-23T13:44:48Z</time>
      </trkpt>
      <trkpt lat="49.85274" lon="2.1436">
        <ele>119.1</ele>
        <time>2022-03-23T13:44:49Z</time>
      </trkpt>
      <trkpt lat="49.85273" lon="2.14359">
        <ele>119</ele>
        <time>2022-03-23T13:44:50Z</time>
      </trkpt>
      <trkpt lat="49.85272" lon="2.14358">
        <ele>119</ele>
        <time>2022-03-23T13:44:52Z</time>
      </trkpt>
      <trkpt lat="49.85271" lon="2.14357">
        <ele>119</ele>
        <time>2022-03-23T13:44:53Z</time>
      </trkpt>
      <trkpt lat="49.8527" lon="2.14356">
        <ele>118.9</ele>
        <time>2022-03-23T13:44:54Z</time>
      </trkpt>
      <trkpt lat="49.85269" lon="2.14355">
        <ele>118.9</ele>
        <time>2022-03-23T13:44:55Z</time>
      </trkpt>
      <trkpt lat="49.85268" lon="2.14354">
        <ele>118.9</ele>
        <time>2022-03-23T13:44:56Z</time>
      </trkpt>
      <trkpt lat="49.85267" lon="2.14353">
        <ele>118.8</ele>
        <time>2022-03-23T13:44:57Z</time>
      </trkpt>
      <trkpt lat="49.85266" lon="2.14351">
        <ele>118.8</ele>
        <time>2022-03-23T13:44:58Z</time>
      </trkpt>
      <trkpt lat="49.85264" lon="2.14349">
        <ele>118.8</ele>
        <time>2022-03-23T13:44:59Z</time>
      </trkpt>
      <trkpt lat="49.85263" lon="2.14348">
        <ele>118.7</ele>
        <time>2022-03-23T13:45:00Z</time>
      </trkpt>
      <trkpt lat="49.85263" lon="2.14347">
        <ele>118.7</ele>
        <time>2022-03-23T13:45:01Z</time>
      </trkpt>
      <trkpt lat="49.85262" lon="2.14346">
        <ele>118.7</ele>
        <time>2022-03-23T13:45:03Z</time>
      </trkpt>
      <trkpt lat="49.8526" lon="2.14344">
        <ele>118.6</ele>
        <time>2022-03-23T13:45:04Z</time>
      </trkpt>
      <trkpt lat="49.85259" lon="2.14343">
        <ele>118.6</ele>
        <time>2022-03-23T13:45:05Z</time>
      </trkpt>
      <trkpt lat="49.85258" lon="2.14341">
        <ele>118.6</ele>
        <time>2022-03-23T13:45:06Z</time>
      </trkpt>
      <trkpt lat="49.85257" lon="2.14339">
        <ele>118.5</ele>
        <time>2022-03-23T13:45:07Z</time>
      </trkpt>
      <trkpt lat="49.85257" lon="2.14338">
        <ele>118.5</ele>
        <time>2022-03-23T13:45:08Z</time>
      </trkpt>
      <trkpt lat="49.85256" lon="2.14336">
        <ele>118.5</ele>
        <time>2022-03-23T13:45:09Z</time>
      </trkpt>
      <trkpt lat="49.85255" lon="2.14335">
        <ele>118.4</ele>
        <time>2022-03-23T13:45:10Z</time>
      </trkpt>
      <trkpt lat="49.85254" lon="2.14334">
        <ele>118.4</ele>
        <time>2022-03-23T13:45:11Z</time>
      </trkpt>
      <trkpt lat="49.85252" lon="2.14332">
        <ele>118.3</ele>
        <time>2022-03-23T13:45:12Z</time>
      </trkpt>
      <trkpt lat="49.85252" lon="2.14331">
        <ele>118.3</ele>
        <time>2022-03-23T13:45:14Z</time>
      </trkpt>
      <trkpt lat="49.85251" lon="2.1433">
        <ele>118.3</ele>
        <time>2022-03-23T13:45:15Z</time>
      </trkpt>
      <trkpt lat="49.8525" lon="2.14329">
        <ele>118.2</ele>
        <time>2022-03-23T13:45:16Z</time>
      </trkpt>
      <trkpt lat="49.85248" lon="2.14329">
        <ele>118.2</ele>
        <time>2022-03-23T13:45:17Z</time>
      </trkpt>
      <trkpt lat="49.85247" lon="2.14327">
        <ele>118.1</ele>
        <time>2022-03-23T13:45:18Z</time>
      </trkpt>
      <trkpt lat="49.85246" lon="2.14326">
        <ele>118.1</ele>
        <time>2022-03-23T13:45:19Z</time>
      </trkpt>
      <trkpt lat="49.85244" lon="2.14325">
        <ele>118</ele>
        <time>2022-03-23T13:45:20Z</time>
      </trkpt>
      <trkpt lat="49.85243" lon="2.14324">
        <ele>118</ele>
        <time>2022-03-23T13:45:21Z</time>
      </trkpt>
      <trkpt lat="49.85242" lon="2.14324">
        <ele>118</ele>
        <time>2022-03-23T13:45:22Z</time>
      </trkpt>
      <trkpt lat="49.85241" lon="2.14323">
        <ele>117.9</ele>
        <time>2022-03-23T13:45:24Z</time>
      </trkpt>
      <trkpt lat="49.85239" lon="2.14322">
        <ele>117.8</ele>
        <time>2022-03-23T13:45:25Z</time>
      </trkpt>
      <trkpt lat="49.85238" lon="2.14321">
        <ele>117.8</ele>
        <time>2022-03-23T13:45:26Z</time>
      </trkpt>
      <trkpt lat="49.85237" lon="2.1432">
        <ele>117.7</ele>
        <time>2022-03-23T13:45:27Z</time>
      </trkpt>
      <trkpt lat="49.85235" lon="2.14318">
        <ele>117.6</ele>
        <time>2022-03-23T13:45:28Z</time>
      </trkpt>
      <trkpt lat="49.85234" lon="2.14317">
        <ele>117.6</ele>
        <time>2022-03-23T13:45:29Z</time>
      </trkpt>
      <trkpt lat="49.85233" lon="2.14316">
        <ele>117.5</ele>
        <time>2022-03-23T13:45:30Z</time>
      </trkpt>
      <trkpt lat="49.85232" lon="2.14315">
        <ele>117.5</ele>
        <time>2022-03-23T13:45:31Z</time>
      </trkpt>
      <trkpt lat="49.85231" lon="2.14315">
        <ele>117.4</ele>
        <time>2022-03-23T13:45:32Z</time>
      </trkpt>
      <trkpt lat="49.85229" lon="2.14314">
        <ele>117.4</ele>
        <time>2022-03-23T13:45:34Z</time>
      </trkpt>
      <trkpt lat="49.85228" lon="2.14314">
        <ele>117.3</ele>
        <time>2022-03-23T13:45:35Z</time>
      </trkpt>
      <trkpt lat="49.85228" lon="2.14314">
        <ele>117.3</ele>
        <time>2022-03-23T13:45:36Z</time>
      </trkpt>
      <trkpt lat="49.85227" lon="2.14314">
        <ele>117.2</ele>
        <time>2022-03-23T13:45:37Z</time>
      </trkpt>
      <trkpt lat="49.85226" lon="2.14314">
        <ele>117.2</ele>
        <time>2022-03-23T13:45:38Z</time>
      </trkpt>
      <trkpt lat="49.85224" lon="2.14313">
        <ele>117.1</ele>
        <time>2022-03-23T13:45:39Z</time>
      </trkpt>
      <trkpt lat="49.85222" lon="2.14312">
        <ele>117</ele>
        <time>2022-03-23T13:45:40Z</time>
      </trkpt>
      <trkpt lat="49.85222" lon="2.14312">
        <ele>117</ele>
        <time>2022-03-23T13:45:41Z</time>
      </trkpt>
      <trkpt lat="49.85221" lon="2.14312">
        <ele>116.9</ele>
        <time>2022-03-23T13:45:42Z</time>
      </trkpt>
      <trkpt lat="49.8522" lon="2.14311">
        <ele>116.9</ele>
        <time>2022-03-23T13:45:43Z</time>
      </trkpt>
      <trkpt lat="49.85219" lon="2.14311">
        <ele>116.8</ele>
        <time>2022-03-23T13:45:44Z</time>
      </trkpt>
      <trkpt lat="49.85217" lon="2.14311">
        <ele>116.8</ele>
        <time>2022-03-23T13:45:45Z</time>
      </trkpt>
      <trkpt lat="49.85215" lon="2.14311">
        <ele>116.7</ele>
        <time>2022-03-23T13:45:47Z</time>
      </trkpt>
      <trkpt lat="49.85214" lon="2.14311">
        <ele>116.7</ele>
        <time>2022-03-23T13:45:48Z</time>
      </trkpt>
      <trkpt lat="49.85214" lon="2.14311">
        <ele>116.6</ele>
        <time>2022-03-23T13:45:49Z</time>
      </trkpt>
      <trkpt lat="49.85212" lon="2.1431">
        <ele>116.5</ele>
        <time>2022-03-23T13:45:50Z</time>
      </trkpt>
      <trkpt lat="49.85211" lon="2.14309">
        <ele>116.5</ele>
        <time>2022-03-23T13:45:51Z</time>
      </trkpt>
      <trkpt lat="49.8521" lon="2.14309">
        <ele>116.4</ele>
        <time>2022-03-23T13:45:52Z</time>
      </trkpt>
      <trkpt lat="49.85208" lon="2.14307">
        <ele>116.3</ele>
        <time>2022-03-23T13:45:53Z</time>
      </trkpt>
      <trkpt lat="49.85207" lon="2.14307">
        <ele>116.3</ele>
        <time>2022-03-23T13:45:54Z</time>
      </trkpt>
      <trkpt lat="49.85207" lon="2.14306">
        <ele>116.3</ele>
        <time>2022-03-23T13:45:55Z</time>
      </trkpt>
      <trkpt lat="49.85205" lon="2.14305">
        <ele>116.2</ele>
        <time>2022-03-23T13:45:56Z</time>
      </trkpt>
      <trkpt lat="49.85204" lon="2.14303">
        <ele>116.1</ele>
        <time>2022-03-23T13:45:57Z</time>
      </trkpt>
      <trkpt lat="49.85203" lon="2.14302">
        <ele>116.1</ele>
        <time>2022-03-23T13:45:59Z</time>
      </trkpt>
      <trkpt lat="49.85202" lon="2.14301">
        <ele>116</ele>
        <time>2022-03-23T13:46:00Z</time>
      </trkpt>
      <trkpt lat="49.852" lon="2.143">
        <ele>115.9</ele>
        <time>2022-03-23T13:46:01Z</time>
      </trkpt>
      <trkpt lat="49.85199" lon="2.14299">
        <ele>115.9</ele>
        <time>2022-03-23T13:46:02Z</time>
      </trkpt>
      <trkpt lat="49.85199" lon="2.14298">
        <ele>115.9</ele>
        <time>2022-03-23T13:46:03Z</time>
      </trkpt>
      <trkpt lat="49.85197" lon="2.14297">
        <ele>115.8</ele>
        <time>2022-03-23T13:46:04Z</time>
      </trkpt>
      <trkpt lat="49.85196" lon="2.14297">
        <ele>115.7</ele>
        <time>2022-03-23T13:46:05Z</time>
      </trkpt>
      <trkpt lat="49.85195" lon="2.14297">
        <ele>115.7</ele>
        <time>2022-03-23T13:46:06Z</time>
      </trkpt>
      <trkpt lat="49.85193" lon="2.14295">
        <ele>115.6</ele>
        <time>2022-03-23T13:46:07Z</time>
      </trkpt>
      <trkpt lat="49.85192" lon="2.14295">
        <ele>115.6</ele>
        <time>2022-03-23T13:46:08Z</time>
      </trkpt>
      <trkpt lat="49.85192" lon="2.14294">
        <ele>115.5</ele>
        <time>2022-03-23T13:46:09Z</time>
      </trkpt>
      <trkpt lat="49.8519" lon="2.14293">
        <ele>115.5</ele>
        <time>2022-03-23T13:46:11Z</time>
      </trkpt>
      <trkpt lat="49.85189" lon="2.14293">
        <ele>115.4</ele>
        <time>2022-03-23T13:46:12Z</time>
      </trkpt>
      <trkpt lat="49.85188" lon="2.14292">
        <ele>115.4</ele>
        <time>2022-03-23T13:46:13Z</time>
      </trkpt>
      <trkpt lat="49.85186" lon="2.14291">
        <ele>115.3</ele>
        <time>2022-03-23T13:46:14Z</time>
      </trkpt>
      <trkpt lat="49.85185" lon="2.1429">
        <ele>115.2</ele>
        <time>2022-03-23T13:46:15Z</time>
      </trkpt>
      <trkpt lat="49.85184" lon="2.14288">
        <ele>115.2</ele>
        <time>2022-03-23T13:46:17Z</time>
      </trkpt>
      <trkpt lat="49.85183" lon="2.14287">
        <ele>115.1</ele>
        <time>2022-03-23T13:46:18Z</time>
      </trkpt>
      <trkpt lat="49.85182" lon="2.14285">
        <ele>115.1</ele>
        <time>2022-03-23T13:46:19Z</time>
      </trkpt>
      <trkpt lat="49.8518" lon="2.14283">
        <ele>115</ele>
        <time>2022-03-23T13:46:20Z</time>
      </trkpt>
      <trkpt lat="49.85179" lon="2.14282">
        <ele>114.9</ele>
        <time>2022-03-23T13:46:21Z</time>
      </trkpt>
      <trkpt lat="49.85179" lon="2.14282">
        <ele>114.9</ele>
        <time>2022-03-23T13:46:22Z</time>
      </trkpt>
      <trkpt lat="49.85176" lon="2.1428">
        <ele>114.8</ele>
        <time>2022-03-23T13:46:23Z</time>
      </trkpt>
      <trkpt lat="49.85175" lon="2.14279">
        <ele>114.7</ele>
        <time>2022-03-23T13:46:25Z</time>
      </trkpt>
      <trkpt lat="49.85174" lon="2.14278">
        <ele>114.7</ele>
        <time>2022-03-23T13:46:26Z</time>
      </trkpt>
      <trkpt lat="49.85173" lon="2.14277">
        <ele>114.7</ele>
        <time>2022-03-23T13:46:27Z</time>
      </trkpt>
      <trkpt lat="49.85172" lon="2.14276">
        <ele>114.6</ele>
        <time>2022-03-23T13:46:28Z</time>
      </trkpt>
      <trkpt lat="49.8517" lon="2.14275">
        <ele>114.6</ele>
        <time>2022-03-23T13:46:29Z</time>
      </trkpt>
      <trkpt lat="49.85169" lon="2.14274">
        <ele>114.5</ele>
        <time>2022-03-23T13:46:30Z</time>
      </trkpt>
      <trkpt lat="49.85167" lon="2.14272">
        <ele>114.5</ele>
        <time>2022-03-23T13:46:31Z</time>
      </trkpt>
      <trkpt lat="49.85167" lon="2.14272">
        <ele>114.4</ele>
        <time>2022-03-23T13:46:32Z</time>
      </trkpt>
      <trkpt lat="49.85166" lon="2.14271">
        <ele>114.4</ele>
        <time>2022-03-23T13:46:33Z</time>
      </trkpt>
      <trkpt lat="49.85164" lon="2.14269">
        <ele>114.3</ele>
        <time>2022-03-23T13:46:34Z</time>
      </trkpt>
      <trkpt lat="49.85163" lon="2.14268">
        <ele>114.3</ele>
        <time>2022-03-23T13:46:36Z</time>
      </trkpt>
      <trkpt lat="49.85162" lon="2.14267">
        <ele>114.3</ele>
        <time>2022-03-23T13:46:37Z</time>
      </trkpt>
      <trkpt lat="49.85161" lon="2.14266">
        <ele>114.2</ele>
        <time>2022-03-23T13:46:38Z</time>
      </trkpt>
      <trkpt lat="49.8516" lon="2.14265">
        <ele>114.2</ele>
        <time>2022-03-23T13:46:39Z</time>
      </trkpt>
      <trkpt lat="49.85159" lon="2.14264">
        <ele>114.1</ele>
        <time>2022-03-23T13:46:40Z</time>
      </trkpt>
      <trkpt lat="49.85158" lon="2.14263">
        <ele>114.1</ele>
        <time>2022-03-23T13:46:41Z</time>
      </trkpt>
      <trkpt lat="49.85157" lon="2.14262">
        <ele>114</ele>
        <time>2022-03-23T13:46:42Z</time>
      </trkpt>
      <trkpt lat="49.85156" lon="2.1426">
        <ele>114</ele>
        <time>2022-03-23T13:46:43Z</time>
      </trkpt>
      <trkpt lat="49.85155" lon="2.14259">
        <ele>114</ele>
        <time>2022-03-23T13:46:44Z</time>
      </trkpt>
      <trkpt lat="49.85154" lon="2.14258">
        <ele>113.9</ele>
        <time>2022-03-23T13:46:45Z</time>
      </trkpt>
      <trkpt lat="49.85153" lon="2.14257">
        <ele>113.9</ele>
        <time>2022-03-23T13:46:46Z</time>
      </trkpt>
      <trkpt lat="49.85151" lon="2.14256">
        <ele>113.9</ele>
        <time>2022-03-23T13:46:47Z</time>
      </trkpt>
      <trkpt lat="49.8515" lon="2.14256">
        <ele>113.8</ele>
        <time>2022-03-23T13:46:49Z</time>
      </trkpt>
      <trkpt lat="49.85149" lon="2.14255">
        <ele>113.8</ele>
        <time>2022-03-23T13:46:50Z</time>
      </trkpt>
      <trkpt lat="49.85148" lon="2.14255">
        <ele>113.8</ele>
        <time>2022-03-23T13:46:51Z</time>
      </trkpt>
      <trkpt lat="49.85147" lon="2.14255">
        <ele>113.7</ele>
        <time>2022-03-23T13:46:52Z</time>
      </trkpt>
      <trkpt lat="49.85146" lon="2.14254">
        <ele>113.7</ele>
        <time>2022-03-23T13:46:53Z</time>
      </trkpt>
      <trkpt lat="49.85144" lon="2.14252">
        <ele>113.7</ele>
        <time>2022-03-23T13:46:54Z</time>
      </trkpt>
      <trkpt lat="49.85143" lon="2.14252">
        <ele>113.6</ele>
        <time>2022-03-23T13:46:55Z</time>
      </trkpt>
      <trkpt lat="49.85143" lon="2.14251">
        <ele>113.6</ele>
        <time>2022-03-23T13:46:56Z</time>
      </trkpt>
      <trkpt lat="49.85142" lon="2.1425">
        <ele>113.6</ele>
        <time>2022-03-23T13:46:57Z</time>
      </trkpt>
      <trkpt lat="49.85141" lon="2.1425">
        <ele>113.6</ele>
        <time>2022-03-23T13:46:58Z</time>
      </trkpt>
      <trkpt lat="49.8514" lon="2.14249">
        <ele>113.5</ele>
        <time>2022-03-23T13:46:59Z</time>
      </trkpt>
      <trkpt lat="49.85138" lon="2.14247">
        <ele>113.5</ele>
        <time>2022-03-23T13:47:00Z</time>
      </trkpt>
      <trkpt lat="49.85138" lon="2.14247">
        <ele>113.5</ele>
        <time>2022-03-23T13:47:02Z</time>
      </trkpt>
      <trkpt lat="49.85137" lon="2.14246">
        <ele>113.5</ele>
        <time>2022-03-23T13:47:03Z</time>
      </trkpt>
      <trkpt lat="49.85136" lon="2.14245">
        <ele>113.4</ele>
        <time>2022-03-23T13:47:04Z</time>
      </trkpt>
      <trkpt lat="49.85135" lon="2.14245">
        <ele>113.4</ele>
        <time>2022-03-23T13:47:05Z</time>
      </trkpt>
      <trkpt lat="49.85134" lon="2.14244">
        <ele>113.4</ele>
        <time>2022-03-23T13:47:06Z</time>
      </trkpt>
      <trkpt lat="49.85133" lon="2.14243">
        <ele>113.4</ele>
        <time>2022-03-23T13:47:07Z</time>
      </trkpt>
      <trkpt lat="49.85131" lon="2.14242">
        <ele>113.3</ele>
        <time>2022-03-23T13:47:08Z</time>
      </trkpt>
      <trkpt lat="49.8513" lon="2.14241">
        <ele>113.3</ele>
        <time>2022-03-23T13:47:09Z</time>
      </trkpt>
      <trkpt lat="49.85128" lon="2.1424">
        <ele>113.3</ele>
        <time>2022-03-23T13:47:10Z</time>
      </trkpt>
      <trkpt lat="49.85127" lon="2.14239">
        <ele>113.2</ele>
        <time>2022-03-23T13:47:11Z</time>
      </trkpt>
      <trkpt lat="49.85126" lon="2.14238">
        <ele>113.2</ele>
        <time>2022-03-23T13:47:12Z</time>
      </trkpt>
      <trkpt lat="49.85125" lon="2.14237">
        <ele>113.2</ele>
        <time>2022-03-23T13:47:13Z</time>
      </trkpt>
      <trkpt lat="49.85123" lon="2.14236">
        <ele>113.2</ele>
        <time>2022-03-23T13:47:15Z</time>
      </trkpt>
      <trkpt lat="49.85122" lon="2.14235">
        <ele>113.1</ele>
        <time>2022-03-23T13:47:16Z</time>
      </trkpt>
      <trkpt lat="49.85121" lon="2.14234">
        <ele>113.1</ele>
        <time>2022-03-23T13:47:17Z</time>
      </trkpt>
      <trkpt lat="49.8512" lon="2.14233">
        <ele>113.1</ele>
        <time>2022-03-23T13:47:18Z</time>
      </trkpt>
      <trkpt lat="49.85118" lon="2.14231">
        <ele>113.1</ele>
        <time>2022-03-23T13:47:19Z</time>
      </trkpt>
      <trkpt lat="49.85117" lon="2.1423">
        <ele>113</ele>
        <time>2022-03-23T13:47:20Z</time>
      </trkpt>
      <trkpt lat="49.85116" lon="2.14229">
        <ele>113</ele>
        <time>2022-03-23T13:47:22Z</time>
      </trkpt>
      <trkpt lat="49.85115" lon="2.14228">
        <ele>113</ele>
        <time>2022-03-23T13:47:23Z</time>
      </trkpt>
      <trkpt lat="49.85113" lon="2.14227">
        <ele>113</ele>
        <time>2022-03-23T13:47:24Z</time>
      </trkpt>
      <trkpt lat="49.85112" lon="2.14225">
        <ele>112.9</ele>
        <time>2022-03-23T13:47:25Z</time>
      </trkpt>
      <trkpt lat="49.85111" lon="2.14224">
        <ele>112.9</ele>
        <time>2022-03-23T13:47:26Z</time>
      </trkpt>
      <trkpt lat="49.8511" lon="2.14223">
        <ele>112.9</ele>
        <time>2022-03-23T13:47:27Z</time>
      </trkpt>
      <trkpt lat="49.85109" lon="2.14222">
        <ele>112.9</ele>
        <time>2022-03-23T13:47:28Z</time>
      </trkpt>
      <trkpt lat="49.85108" lon="2.14221">
        <ele>112.8</ele>
        <time>2022-03-23T13:47:29Z</time>
      </trkpt>
      <trkpt lat="49.85106" lon="2.14218">
        <ele>112.8</ele>
        <time>2022-03-23T13:47:30Z</time>
      </trkpt>
      <trkpt lat="49.85106" lon="2.14217">
        <ele>112.8</ele>
        <time>2022-03-23T13:47:31Z</time>
      </trkpt>
      <trkpt lat="49.85105" lon="2.14216">
        <ele>112.8</ele>
        <time>2022-03-23T13:47:32Z</time>
      </trkpt>
      <trkpt lat="49.85104" lon="2.14215">
        <ele>112.8</ele>
        <time>2022-03-23T13:47:34Z</time>
      </trkpt>
      <trkpt lat="49.85103" lon="2.14214">
        <ele>112.7</ele>
        <time>2022-03-23T13:47:35Z</time>
      </trkpt>
      <trkpt lat="49.85102" lon="2.14211">
        <ele>112.7</ele>
        <time>2022-03-23T13:47:36Z</time>
      </trkpt>
      <trkpt lat="49.85101" lon="2.1421">
        <ele>112.7</ele>
        <time>2022-03-23T13:47:37Z</time>
      </trkpt>
      <trkpt lat="49.851" lon="2.14209">
        <ele>112.7</ele>
        <time>2022-03-23T13:47:38Z</time>
      </trkpt>
      <trkpt lat="49.85099" lon="2.14208">
        <ele>112.7</ele>
        <time>2022-03-23T13:47:39Z</time>
      </trkpt>
      <trkpt lat="49.85098" lon="2.14206">
        <ele>112.7</ele>
        <time>2022-03-23T13:47:40Z</time>
      </trkpt>
      <trkpt lat="49.85097" lon="2.14205">
        <ele>112.6</ele>
        <time>2022-03-23T13:47:42Z</time>
      </trkpt>
      <trkpt lat="49.85096" lon="2.14203">
        <ele>112.6</ele>
        <time>2022-03-23T13:47:43Z</time>
      </trkpt>
      <trkpt lat="49.85095" lon="2.142">
        <ele>112.6</ele>
        <time>2022-03-23T13:47:44Z</time>
      </trkpt>
      <trkpt lat="49.85094" lon="2.14199">
        <ele>112.6</ele>
        <time>2022-03-23T13:47:45Z</time>
      </trkpt>
      <trkpt lat="49.85094" lon="2.14198">
        <ele>112.6</ele>
        <time>2022-03-23T13:47:46Z</time>
      </trkpt>
      <trkpt lat="49.85093" lon="2.14196">
        <ele>112.6</ele>
        <time>2022-03-23T13:47:47Z</time>
      </trkpt>
      <trkpt lat="49.85092" lon="2.14195">
        <ele>112.5</ele>
        <time>2022-03-23T13:47:48Z</time>
      </trkpt>
      <trkpt lat="49.85092" lon="2.14194">
        <ele>112.5</ele>
        <time>2022-03-23T13:47:49Z</time>
      </trkpt>
      <trkpt lat="49.85091" lon="2.14192">
        <ele>112.5</ele>
        <time>2022-03-23T13:47:50Z</time>
      </trkpt>
      <trkpt lat="49.8509" lon="2.1419">
        <ele>112.5</ele>
        <time>2022-03-23T13:47:51Z</time>
      </trkpt>
      <trkpt lat="49.85089" lon="2.14189">
        <ele>112.5</ele>
        <time>2022-03-23T13:47:53Z</time>
      </trkpt>
      <trkpt lat="49.85088" lon="2.14187">
        <ele>112.5</ele>
        <time>2022-03-23T13:47:54Z</time>
      </trkpt>
      <trkpt lat="49.85088" lon="2.14186">
        <ele>112.5</ele>
        <time>2022-03-23T13:47:55Z</time>
      </trkpt>
      <trkpt lat="49.85087" lon="2.14184">
        <ele>112.5</ele>
        <time>2022-03-23T13:47:56Z</time>
      </trkpt>
      <trkpt lat="49.85087" lon="2.14183">
        <ele>112.5</ele>
        <time>2022-03-23T13:47:57Z</time>
      </trkpt>
      <trkpt lat="49.85086" lon="2.14181">
        <ele>112.5</ele>
        <time>2022-03-23T13:47:58Z</time>
      </trkpt>
      <trkpt lat="49.85086" lon="2.1418">
        <ele>112.5</ele>
        <time>2022-03-23T13:47:59Z</time>
      </trkpt>
      <trkpt lat="49.85085" lon="2.14178">
        <ele>112.5</ele>
        <time>2022-03-23T13:48:00Z</time>
      </trkpt>
      <trkpt lat="49.85085" lon="2.14177">
        <ele>112.5</ele>
        <time>2022-03-23T13:48:01Z</time>
      </trkpt>
      <trkpt lat="49.85085" lon="2.14175">
        <ele>112.5</ele>
        <time>2022-03-23T13:48:02Z</time>
      </trkpt>
      <trkpt lat="49.85083" lon="2.14173">
        <ele>112.5</ele>
        <time>2022-03-23T13:48:03Z</time>
      </trkpt>
      <trkpt lat="49.85082" lon="2.14172">
        <ele>112.5</ele>
        <time>2022-03-23T13:48:05Z</time>
      </trkpt>
      <trkpt lat="49.85082" lon="2.14171">
        <ele>112.5</ele>
        <time>2022-03-23T13:48:06Z</time>
      </trkpt>
      <trkpt lat="49.8508" lon="2.14169">
        <ele>112.5</ele>
        <time>2022-03-23T13:48:07Z</time>
      </trkpt>
      <trkpt lat="49.85079" lon="2.14168">
        <ele>112.5</ele>
        <time>2022-03-23T13:48:08Z</time>
      </trkpt>
      <trkpt lat="49.85079" lon="2.14168">
        <ele>112.5</ele>
        <time>2022-03-23T13:48:09Z</time>
      </trkpt>
      <trkpt lat="49.85078" lon="2.14166">
        <ele>112.5</ele>
        <time>2022-03-23T13:48:10Z</time>
      </trkpt>
      <trkpt lat="49.85077" lon="2.14164">
        <ele>112.5</ele>
        <time>2022-03-23T13:48:11Z</time>
      </trkpt>
      <trkpt lat="49.85075" lon="2.14162">
        <ele>112.5</ele>
        <time>2022-03-23T13:48:12Z</time>
      </trkpt>
      <trkpt lat="49.85075" lon="2.14161">
        <ele>112.5</ele>
        <time>2022-03-23T13:48:13Z</time>
      </trkpt>
      <trkpt lat="49.85074" lon="2.1416">
        <ele>112.5</ele>
        <time>2022-03-23T13:48:14Z</time>
      </trkpt>
      <trkpt lat="49.85073" lon="2.14157">
        <ele>112.5</ele>
        <time>2022-03-23T13:48:15Z</time>
      </trkpt>
      <trkpt lat="49.85073" lon="2.14156">
        <ele>112.5</ele>
        <time>2022-03-23T13:48:17Z</time>
      </trkpt>
      <trkpt lat="49.85072" lon="2.14155">
        <ele>112.5</ele>
        <time>2022-03-23T13:48:18Z</time>
      </trkpt>
      <trkpt lat="49.85071" lon="2.14153">
        <ele>112.5</ele>
        <time>2022-03-23T13:48:19Z</time>
      </trkpt>
      <trkpt lat="49.8507" lon="2.14152">
        <ele>112.5</ele>
        <time>2022-03-23T13:48:20Z</time>
      </trkpt>
      <trkpt lat="49.8507" lon="2.1415">
        <ele>112.5</ele>
        <time>2022-03-23T13:48:21Z</time>
      </trkpt>
      <trkpt lat="49.85068" lon="2.14148">
        <ele>112.5</ele>
        <time>2022-03-23T13:48:22Z</time>
      </trkpt>
      <trkpt lat="49.85068" lon="2.14147">
        <ele>112.5</ele>
        <time>2022-03-23T13:48:23Z</time>
      </trkpt>
      <trkpt lat="49.85067" lon="2.14146">
        <ele>112.5</ele>
        <time>2022-03-23T13:48:24Z</time>
      </trkpt>
      <trkpt lat="49.85067" lon="2.14145">
        <ele>112.5</ele>
        <time>2022-03-23T13:48:25Z</time>
      </trkpt>
      <trkpt lat="49.85066" lon="2.14143">
        <ele>112.5</ele>
        <time>2022-03-23T13:48:26Z</time>
      </trkpt>
      <trkpt lat="49.85065" lon="2.14141">
        <ele>112.5</ele>
        <time>2022-03-23T13:48:28Z</time>
      </trkpt>
      <trkpt lat="49.85065" lon="2.14139">
        <ele>112.5</ele>
        <time>2022-03-23T13:48:29Z</time>
      </trkpt>
      <trkpt lat="49.85064" lon="2.14138">
        <ele>112.5</ele>
        <time>2022-03-23T13:48:30Z</time>
      </trkpt>
      <trkpt lat="49.85064" lon="2.14136">
        <ele>112.5</ele>
        <time>2022-03-23T13:48:31Z</time>
      </trkpt>
      <trkpt lat="49.85063" lon="2.14134">
        <ele>112.5</ele>
        <time>2022-03-23T13:48:32Z</time>
      </trkpt>
      <trkpt lat="49.85063" lon="2.14132">
        <ele>112.5</ele>
        <time>2022-03-23T13:48:33Z</time>
      </trkpt>
      <trkpt lat="49.85062" lon="2.14128">
        <ele>112.6</ele>
        <time>2022-03-23T13:48:34Z</time>
      </trkpt>
      <trkpt lat="49.85062" lon="2.14127">
        <ele>112.6</ele>
        <time>2022-03-23T13:48:35Z</time>
      </trkpt>
      <trkpt lat="49.85062" lon="2.14126">
        <ele>112.6</ele>
        <time>2022-03-23T13:48:36Z</time>
      </trkpt>
      <trkpt lat="49.85061" lon="2.14123">
        <ele>112.6</ele>
        <time>2022-03-23T13:48:37Z</time>
      </trkpt>
      <trkpt lat="49.85061" lon="2.14121">
        <ele>112.6</ele>
        <time>2022-03-23T13:48:39Z</time>
      </trkpt>
      <trkpt lat="49.85061" lon="2.1412">
        <ele>112.6</ele>
        <time>2022-03-23T13:48:40Z</time>
      </trkpt>
      <trkpt lat="49.85061" lon="2.14118">
        <ele>112.6</ele>
        <time>2022-03-23T13:48:41Z</time>
      </trkpt>
      <trkpt lat="49.85061" lon="2.14117">
        <ele>112.7</ele>
        <time>2022-03-23T13:48:42Z</time>
      </trkpt>
      <trkpt lat="49.85061" lon="2.14115">
        <ele>112.7</ele>
        <time>2022-03-23T13:48:43Z</time>
      </trkpt>
      <trkpt lat="49.85061" lon="2.14113">
        <ele>112.7</ele>
        <time>2022-03-23T13:48:44Z</time>
      </trkpt>
      <trkpt lat="49.85061" lon="2.14111">
        <ele>112.7</ele>
        <time>2022-03-23T13:48:45Z</time>
      </trkpt>
      <trkpt lat="49.85061" lon="2.14109">
        <ele>112.7</ele>
        <time>2022-03-23T13:48:46Z</time>
      </trkpt>
      <trkpt lat="49.85061" lon="2.14108">
        <ele>112.7</ele>
        <time>2022-03-23T13:48:47Z</time>
      </trkpt>
      <trkpt lat="49.85061" lon="2.14106">
        <ele>112.7</ele>
        <time>2022-03-23T13:48:48Z</time>
      </trkpt>
      <trkpt lat="49.85061" lon="2.14104">
        <ele>112.7</ele>
        <time>2022-03-23T13:48:49Z</time>
      </trkpt>
      <trkpt lat="49.85062" lon="2.14102">
        <ele>112.7</ele>
        <time>2022-03-23T13:48:51Z</time>
      </trkpt>
      <trkpt lat="49.85063" lon="2.14101">
        <ele>112.7</ele>
        <time>2022-03-23T13:48:52Z</time>
      </trkpt>
      <trkpt lat="49.85063" lon="2.141">
        <ele>112.7</ele>
        <time>2022-03-23T13:48:53Z</time>
      </trkpt>
      <trkpt lat="49.85065" lon="2.14097">
        <ele>112.8</ele>
        <time>2022-03-23T13:48:54Z</time>
      </trkpt>
      <trkpt lat="49.85065" lon="2.14096">
        <ele>112.8</ele>
        <time>2022-03-23T13:48:55Z</time>
      </trkpt>
      <trkpt lat="49.85066" lon="2.14095">
        <ele>112.8</ele>
        <time>2022-03-23T13:48:56Z</time>
      </trkpt>
      <trkpt lat="49.85067" lon="2.14093">
        <ele>112.8</ele>
        <time>2022-03-23T13:48:57Z</time>
      </trkpt>
      <trkpt lat="49.85068" lon="2.14092">
        <ele>112.8</ele>
        <time>2022-03-23T13:48:59Z</time>
      </trkpt>
      <trkpt lat="49.85068" lon="2.14091">
        <ele>112.8</ele>
        <time>2022-03-23T13:49:00Z</time>
      </trkpt>
      <trkpt lat="49.85069" lon="2.14089">
        <ele>112.8</ele>
        <time>2022-03-23T13:49:01Z</time>
      </trkpt>
      <trkpt lat="49.85069" lon="2.14088">
        <ele>112.8</ele>
        <time>2022-03-23T13:49:02Z</time>
      </trkpt>
      <trkpt lat="49.85069" lon="2.14086">
        <ele>112.8</ele>
        <time>2022-03-23T13:49:03Z</time>
      </trkpt>
      <trkpt lat="49.8507" lon="2.14082">
        <ele>112.8</ele>
        <time>2022-03-23T13:49:04Z</time>
      </trkpt>
      <trkpt lat="49.8507" lon="2.14081">
        <ele>112.9</ele>
        <time>2022-03-23T13:49:06Z</time>
      </trkpt>
      <trkpt lat="49.85071" lon="2.14079">
        <ele>112.9</ele>
        <time>2022-03-23T13:49:07Z</time>
      </trkpt>
      <trkpt lat="49.85071" lon="2.14077">
        <ele>112.9</ele>
        <time>2022-03-23T13:49:08Z</time>
      </trkpt>
      <trkpt lat="49.85071" lon="2.14076">
        <ele>112.9</ele>
        <time>2022-03-23T13:49:09Z</time>
      </trkpt>
      <trkpt lat="49.85072" lon="2.14074">
        <ele>112.9</ele>
        <time>2022-03-23T13:49:10Z</time>
      </trkpt>
      <trkpt lat="49.85072" lon="2.14072">
        <ele>112.9</ele>
        <time>2022-03-23T13:49:11Z</time>
      </trkpt>
      <trkpt lat="49.85073" lon="2.14069">
        <ele>112.9</ele>
        <time>2022-03-23T13:49:12Z</time>
      </trkpt>
      <trkpt lat="49.85073" lon="2.14068">
        <ele>112.9</ele>
        <time>2022-03-23T13:49:13Z</time>
      </trkpt>
      <trkpt lat="49.85073" lon="2.14066">
        <ele>112.9</ele>
        <time>2022-03-23T13:49:14Z</time>
      </trkpt>
      <trkpt lat="49.85074" lon="2.14064">
        <ele>113</ele>
        <time>2022-03-23T13:49:15Z</time>
      </trkpt>
      <trkpt lat="49.85075" lon="2.14063">
        <ele>113</ele>
        <time>2022-03-23T13:49:17Z</time>
      </trkpt>
      <trkpt lat="49.85075" lon="2.14061">
        <ele>113</ele>
        <time>2022-03-23T13:49:18Z</time>
      </trkpt>
      <trkpt lat="49.85076" lon="2.14059">
        <ele>113</ele>
        <time>2022-03-23T13:49:19Z</time>
      </trkpt>
      <trkpt lat="49.85076" lon="2.14057">
        <ele>113</ele>
        <time>2022-03-23T13:49:20Z</time>
      </trkpt>
      <trkpt lat="49.85076" lon="2.14054">
        <ele>113</ele>
        <time>2022-03-23T13:49:22Z</time>
      </trkpt>
      <trkpt lat="49.85076" lon="2.14053">
        <ele>113</ele>
        <time>2022-03-23T13:49:23Z</time>
      </trkpt>
      <trkpt lat="49.85077" lon="2.14051">
        <ele>113.1</ele>
        <time>2022-03-23T13:49:24Z</time>
      </trkpt>
      <trkpt lat="49.85077" lon="2.14048">
        <ele>113.1</ele>
        <time>2022-03-23T13:49:25Z</time>
      </trkpt>
      <trkpt lat="49.85077" lon="2.14046">
        <ele>113.1</ele>
        <time>2022-03-23T13:49:26Z</time>
      </trkpt>
      <trkpt lat="49.85077" lon="2.14045">
        <ele>113.1</ele>
        <time>2022-03-23T13:49:27Z</time>
      </trkpt>
      <trkpt lat="49.85077" lon="2.14042">
        <ele>113.2</ele>
        <time>2022-03-23T13:49:28Z</time>
      </trkpt>
      <trkpt lat="49.85078" lon="2.14041">
        <ele>113.2</ele>
        <time>2022-03-23T13:49:29Z</time>
      </trkpt>
      <trkpt lat="49.85078" lon="2.14039">
        <ele>113.2</ele>
        <time>2022-03-23T13:49:30Z</time>
      </trkpt>
      <trkpt lat="49.85078" lon="2.14038">
        <ele>113.2</ele>
        <time>2022-03-23T13:49:31Z</time>
      </trkpt>
      <trkpt lat="49.85078" lon="2.14036">
        <ele>113.2</ele>
        <time>2022-03-23T13:49:32Z</time>
      </trkpt>
      <trkpt lat="49.85079" lon="2.14034">
        <ele>113.2</ele>
        <time>2022-03-23T13:49:34Z</time>
      </trkpt>
      <trkpt lat="49.85079" lon="2.1403">
        <ele>113.3</ele>
        <time>2022-03-23T13:49:35Z</time>
      </trkpt>
      <trkpt lat="49.85079" lon="2.14029">
        <ele>113.3</ele>
        <time>2022-03-23T13:49:36Z</time>
      </trkpt>
      <trkpt lat="49.85079" lon="2.14028">
        <ele>113.3</ele>
        <time>2022-03-23T13:49:37Z</time>
      </trkpt>
      <trkpt lat="49.85079" lon="2.14025">
        <ele>113.4</ele>
        <time>2022-03-23T13:49:38Z</time>
      </trkpt>
      <trkpt lat="49.85079" lon="2.14023">
        <ele>113.4</ele>
        <time>2022-03-23T13:49:39Z</time>
      </trkpt>
      <trkpt lat="49.8508" lon="2.14021">
        <ele>113.4</ele>
        <time>2022-03-23T13:49:40Z</time>
      </trkpt>
      <trkpt lat="49.8508" lon="2.14019">
        <ele>113.4</ele>
        <time>2022-03-23T13:49:41Z</time>
      </trkpt>
      <trkpt lat="49.85081" lon="2.14016">
        <ele>113.5</ele>
        <time>2022-03-23T13:49:42Z</time>
      </trkpt>
      <trkpt lat="49.85081" lon="2.14015">
        <ele>113.5</ele>
        <time>2022-03-23T13:49:43Z</time>
      </trkpt>
      <trkpt lat="49.85081" lon="2.14013">
        <ele>113.5</ele>
        <time>2022-03-23T13:49:44Z</time>
      </trkpt>
      <trkpt lat="49.85082" lon="2.1401">
        <ele>113.5</ele>
        <time>2022-03-23T13:49:46Z</time>
      </trkpt>
      <trkpt lat="49.85082" lon="2.14009">
        <ele>113.6</ele>
        <time>2022-03-23T13:49:47Z</time>
      </trkpt>
      <trkpt lat="49.85082" lon="2.14008">
        <ele>113.6</ele>
        <time>2022-03-23T13:49:48Z</time>
      </trkpt>
      <trkpt lat="49.85083" lon="2.14006">
        <ele>113.6</ele>
        <time>2022-03-23T13:49:49Z</time>
      </trkpt>
      <trkpt lat="49.85084" lon="2.14005">
        <ele>113.6</ele>
        <time>2022-03-23T13:49:50Z</time>
      </trkpt>
      <trkpt lat="49.85084" lon="2.14003">
        <ele>113.6</ele>
        <time>2022-03-23T13:49:51Z</time>
      </trkpt>
      <trkpt lat="49.85085" lon="2.14002">
        <ele>113.7</ele>
        <time>2022-03-23T13:49:52Z</time>
      </trkpt>
      <trkpt lat="49.85085" lon="2.14">
        <ele>113.7</ele>
        <time>2022-03-23T13:49:53Z</time>
      </trkpt>
      <trkpt lat="49.85085" lon="2.13998">
        <ele>113.7</ele>
        <time>2022-03-23T13:49:54Z</time>
      </trkpt>
      <trkpt lat="49.85086" lon="2.13997">
        <ele>113.7</ele>
        <time>2022-03-23T13:49:55Z</time>
      </trkpt>
      <trkpt lat="49.85086" lon="2.13996">
        <ele>113.7</ele>
        <time>2022-03-23T13:49:56Z</time>
      </trkpt>
      <trkpt lat="49.85086" lon="2.13994">
        <ele>113.8</ele>
        <time>2022-03-23T13:49:58Z</time>
      </trkpt>
      <trkpt lat="49.85087" lon="2.13993">
        <ele>113.8</ele>
        <time>2022-03-23T13:49:59Z</time>
      </trkpt>
      <trkpt lat="49.85087" lon="2.13991">
        <ele>113.8</ele>
        <time>2022-03-23T13:50:00Z</time>
      </trkpt>
      <trkpt lat="49.85088" lon="2.1399">
        <ele>113.8</ele>
        <time>2022-03-23T13:50:01Z</time>
      </trkpt>
      <trkpt lat="49.85088" lon="2.13987">
        <ele>113.9</ele>
        <time>2022-03-23T13:50:02Z</time>
      </trkpt>
      <trkpt lat="49.85088" lon="2.13985">
        <ele>113.9</ele>
        <time>2022-03-23T13:50:03Z</time>
      </trkpt>
      <trkpt lat="49.85089" lon="2.13984">
        <ele>113.9</ele>
        <time>2022-03-23T13:50:04Z</time>
      </trkpt>
      <trkpt lat="49.85089" lon="2.13982">
        <ele>113.9</ele>
        <time>2022-03-23T13:50:05Z</time>
      </trkpt>
      <trkpt lat="49.85089" lon="2.13981">
        <ele>113.9</ele>
        <time>2022-03-23T13:50:06Z</time>
      </trkpt>
      <trkpt lat="49.8509" lon="2.13979">
        <ele>114</ele>
        <time>2022-03-23T13:50:07Z</time>
      </trkpt>
      <trkpt lat="49.8509" lon="2.13978">
        <ele>114</ele>
        <time>2022-03-23T13:50:09Z</time>
      </trkpt>
      <trkpt lat="49.8509" lon="2.13976">
        <ele>114</ele>
        <time>2022-03-23T13:50:10Z</time>
      </trkpt>
      <trkpt lat="49.85091" lon="2.13974">
        <ele>114</ele>
        <time>2022-03-23T13:50:11Z</time>
      </trkpt>
      <trkpt lat="49.85091" lon="2.13971">
        <ele>114.1</ele>
        <time>2022-03-23T13:50:12Z</time>
      </trkpt>
      <trkpt lat="49.85092" lon="2.13969">
        <ele>114.1</ele>
        <time>2022-03-23T13:50:13Z</time>
      </trkpt>
      <trkpt lat="49.85092" lon="2.13968">
        <ele>114.1</ele>
        <time>2022-03-23T13:50:14Z</time>
      </trkpt>
      <trkpt lat="49.85092" lon="2.13966">
        <ele>114.1</ele>
        <time>2022-03-23T13:50:15Z</time>
      </trkpt>
      <trkpt lat="49.85092" lon="2.13963">
        <ele>114.2</ele>
        <time>2022-03-23T13:50:16Z</time>
      </trkpt>
      <trkpt lat="49.85092" lon="2.13961">
        <ele>114.2</ele>
        <time>2022-03-23T13:50:17Z</time>
      </trkpt>
      <trkpt lat="49.85092" lon="2.13959">
        <ele>114.2</ele>
        <time>2022-03-23T13:50:18Z</time>
      </trkpt>
      <trkpt lat="49.85092" lon="2.13957">
        <ele>114.3</ele>
        <time>2022-03-23T13:50:20Z</time>
      </trkpt>
      <trkpt lat="49.85092" lon="2.13954">
        <ele>114.3</ele>
        <time>2022-03-23T13:50:21Z</time>
      </trkpt>
      <trkpt lat="49.85092" lon="2.13952">
        <ele>114.3</ele>
        <time>2022-03-23T13:50:22Z</time>
      </trkpt>
      <trkpt lat="49.85092" lon="2.13951">
        <ele>114.4</ele>
        <time>2022-03-23T13:50:23Z</time>
      </trkpt>
      <trkpt lat="49.85092" lon="2.13948">
        <ele>114.4</ele>
        <time>2022-03-23T13:50:24Z</time>
      </trkpt>
      <trkpt lat="49.85091" lon="2.13946">
        <ele>114.4</ele>
        <time>2022-03-23T13:50:25Z</time>
      </trkpt>
      <trkpt lat="49.85091" lon="2.13945">
        <ele>114.5</ele>
        <time>2022-03-23T13:50:26Z</time>
      </trkpt>
      <trkpt lat="49.85091" lon="2.13943">
        <ele>114.5</ele>
        <time>2022-03-23T13:50:27Z</time>
      </trkpt>
      <trkpt lat="49.85091" lon="2.13941">
        <ele>114.5</ele>
        <time>2022-03-23T13:50:28Z</time>
      </trkpt>
      <trkpt lat="49.85091" lon="2.13939">
        <ele>114.6</ele>
        <time>2022-03-23T13:50:30Z</time>
      </trkpt>
      <trkpt lat="49.8509" lon="2.13938">
        <ele>114.6</ele>
        <time>2022-03-23T13:50:31Z</time>
      </trkpt>
      <trkpt lat="49.8509" lon="2.13936">
        <ele>114.7</ele>
        <time>2022-03-23T13:50:32Z</time>
      </trkpt>
      <trkpt lat="49.8509" lon="2.13934">
        <ele>114.7</ele>
        <time>2022-03-23T13:50:33Z</time>
      </trkpt>
      <trkpt lat="49.85089" lon="2.13932">
        <ele>114.7</ele>
        <time>2022-03-23T13:50:34Z</time>
      </trkpt>
      <trkpt lat="49.85089" lon="2.1393">
        <ele>114.8</ele>
        <time>2022-03-23T13:50:35Z</time>
      </trkpt>
      <trkpt lat="49.85088" lon="2.13928">
        <ele>114.8</ele>
        <time>2022-03-23T13:50:36Z</time>
      </trkpt>
      <trkpt lat="49.85088" lon="2.13926">
        <ele>114.8</ele>
        <time>2022-03-23T13:50:37Z</time>
      </trkpt>
      <trkpt lat="49.85088" lon="2.13924">
        <ele>114.9</ele>
        <time>2022-03-23T13:50:39Z</time>
      </trkpt>
      <trkpt lat="49.85088" lon="2.13922">
        <ele>114.9</ele>
        <time>2022-03-23T13:50:40Z</time>
      </trkpt>
      <trkpt lat="49.85087" lon="2.1392">
        <ele>115</ele>
        <time>2022-03-23T13:50:41Z</time>
      </trkpt>
      <trkpt lat="49.85087" lon="2.13918">
        <ele>115</ele>
        <time>2022-03-23T13:50:42Z</time>
      </trkpt>
      <trkpt lat="49.85087" lon="2.13916">
        <ele>115.1</ele>
        <time>2022-03-23T13:50:43Z</time>
      </trkpt>
      <trkpt lat="49.85086" lon="2.13914">
        <ele>115.1</ele>
        <time>2022-03-23T13:50:44Z</time>
      </trkpt>
      <trkpt lat="49.85086" lon="2.13912">
        <ele>115.2</ele>
        <time>2022-03-23T13:50:45Z</time>
      </trkpt>
      <trkpt lat="49.85086" lon="2.13908">
        <ele>115.2</ele>
        <time>2022-03-23T13:50:46Z</time>
      </trkpt>
      <trkpt lat="49.85085" lon="2.13907">
        <ele>115.3</ele>
        <time>2022-03-23T13:50:48Z</time>
      </trkpt>
      <trkpt lat="49.85085" lon="2.13905">
        <ele>115.3</ele>
        <time>2022-03-23T13:50:49Z</time>
      </trkpt>
      <trkpt lat="49.85085" lon="2.13904">
        <ele>115.3</ele>
        <time>2022-03-23T13:50:50Z</time>
      </trkpt>
      <trkpt lat="49.85085" lon="2.13902">
        <ele>115.4</ele>
        <time>2022-03-23T13:50:51Z</time>
      </trkpt>
      <trkpt lat="49.85084" lon="2.139">
        <ele>115.4</ele>
        <time>2022-03-23T13:50:52Z</time>
      </trkpt>
      <trkpt lat="49.85084" lon="2.13897">
        <ele>115.5</ele>
        <time>2022-03-23T13:50:53Z</time>
      </trkpt>
      <trkpt lat="49.85084" lon="2.13895">
        <ele>115.5</ele>
        <time>2022-03-23T13:50:54Z</time>
      </trkpt>
      <trkpt lat="49.85083" lon="2.13894">
        <ele>115.5</ele>
        <time>2022-03-23T13:50:55Z</time>
      </trkpt>
      <trkpt lat="49.85083" lon="2.13892">
        <ele>115.6</ele>
        <time>2022-03-23T13:50:57Z</time>
      </trkpt>
      <trkpt lat="49.85083" lon="2.1389">
        <ele>115.6</ele>
        <time>2022-03-23T13:50:58Z</time>
      </trkpt>
      <trkpt lat="49.85082" lon="2.13887">
        <ele>115.7</ele>
        <time>2022-03-23T13:50:59Z</time>
      </trkpt>
      <trkpt lat="49.85082" lon="2.13885">
        <ele>115.7</ele>
        <time>2022-03-23T13:51:00Z</time>
      </trkpt>
      <trkpt lat="49.85082" lon="2.13884">
        <ele>115.8</ele>
        <time>2022-03-23T13:51:01Z</time>
      </trkpt>
      <trkpt lat="49.85081" lon="2.13881">
        <ele>115.8</ele>
        <time>2022-03-23T13:51:02Z</time>
      </trkpt>
      <trkpt lat="49.85081" lon="2.1388">
        <ele>115.9</ele>
        <time>2022-03-23T13:51:03Z</time>
      </trkpt>
      <trkpt lat="49.85081" lon="2.13879">
        <ele>115.9</ele>
        <time>2022-03-23T13:51:04Z</time>
      </trkpt>
      <trkpt lat="49.8508" lon="2.13876">
        <ele>116</ele>
        <time>2022-03-23T13:51:05Z</time>
      </trkpt>
      <trkpt lat="49.8508" lon="2.13874">
        <ele>116</ele>
        <time>2022-03-23T13:51:07Z</time>
      </trkpt>
      <trkpt lat="49.8508" lon="2.13873">
        <ele>116</ele>
        <time>2022-03-23T13:51:08Z</time>
      </trkpt>
      <trkpt lat="49.8508" lon="2.1387">
        <ele>116.1</ele>
        <time>2022-03-23T13:51:09Z</time>
      </trkpt>
      <trkpt lat="49.8508" lon="2.13868">
        <ele>116.1</ele>
        <time>2022-03-23T13:51:10Z</time>
      </trkpt>
      <trkpt lat="49.85079" lon="2.13867">
        <ele>116.1</ele>
        <time>2022-03-23T13:51:11Z</time>
      </trkpt>
      <trkpt lat="49.85079" lon="2.13865">
        <ele>116.2</ele>
        <time>2022-03-23T13:51:12Z</time>
      </trkpt>
      <trkpt lat="49.85079" lon="2.13863">
        <ele>116.2</ele>
        <time>2022-03-23T13:51:13Z</time>
      </trkpt>
      <trkpt lat="49.85079" lon="2.13859">
        <ele>116.3</ele>
        <time>2022-03-23T13:51:14Z</time>
      </trkpt>
      <trkpt lat="49.85079" lon="2.13858">
        <ele>116.3</ele>
        <time>2022-03-23T13:51:15Z</time>
      </trkpt>
      <trkpt lat="49.85079" lon="2.13857">
        <ele>116.3</ele>
        <time>2022-03-23T13:51:16Z</time>
      </trkpt>
      <trkpt lat="49.85079" lon="2.13854">
        <ele>116.4</ele>
        <time>2022-03-23T13:51:18Z</time>
      </trkpt>
      <trkpt lat="49.85078" lon="2.13852">
        <ele>116.4</ele>
        <time>2022-03-23T13:51:19Z</time>
      </trkpt>
      <trkpt lat="49.85078" lon="2.13851">
        <ele>116.4</ele>
        <time>2022-03-23T13:51:20Z</time>
      </trkpt>
      <trkpt lat="49.85078" lon="2.13848">
        <ele>116.5</ele>
        <time>2022-03-23T13:51:21Z</time>
      </trkpt>
      <trkpt lat="49.85078" lon="2.13846">
        <ele>116.5</ele>
        <time>2022-03-23T13:51:22Z</time>
      </trkpt>
      <trkpt lat="49.85078" lon="2.13845">
        <ele>116.5</ele>
        <time>2022-03-23T13:51:23Z</time>
      </trkpt>
      <trkpt lat="49.85079" lon="2.13842">
        <ele>116.5</ele>
        <time>2022-03-23T13:51:24Z</time>
      </trkpt>
      <trkpt lat="49.85078" lon="2.13841">
        <ele>116.6</ele>
        <time>2022-03-23T13:51:25Z</time>
      </trkpt>
      <trkpt lat="49.85078" lon="2.13839">
        <ele>116.6</ele>
        <time>2022-03-23T13:51:26Z</time>
      </trkpt>
      <trkpt lat="49.85078" lon="2.13836">
        <ele>116.6</ele>
        <time>2022-03-23T13:51:28Z</time>
      </trkpt>
      <trkpt lat="49.85078" lon="2.13835">
        <ele>116.6</ele>
        <time>2022-03-23T13:51:29Z</time>
      </trkpt>
      <trkpt lat="49.85078" lon="2.13833">
        <ele>116.7</ele>
        <time>2022-03-23T13:51:30Z</time>
      </trkpt>
      <trkpt lat="49.85078" lon="2.1383">
        <ele>116.7</ele>
        <time>2022-03-23T13:51:31Z</time>
      </trkpt>
      <trkpt lat="49.85078" lon="2.13829">
        <ele>116.7</ele>
        <time>2022-03-23T13:51:32Z</time>
      </trkpt>
      <trkpt lat="49.85078" lon="2.13827">
        <ele>116.7</ele>
        <time>2022-03-23T13:51:33Z</time>
      </trkpt>
      <trkpt lat="49.85078" lon="2.13824">
        <ele>116.8</ele>
        <time>2022-03-23T13:51:34Z</time>
      </trkpt>
      <trkpt lat="49.85078" lon="2.13822">
        <ele>116.8</ele>
        <time>2022-03-23T13:51:35Z</time>
      </trkpt>
      <trkpt lat="49.85079" lon="2.13821">
        <ele>116.8</ele>
        <time>2022-03-23T13:51:36Z</time>
      </trkpt>
      <trkpt lat="49.85079" lon="2.13818">
        <ele>116.8</ele>
        <time>2022-03-23T13:51:37Z</time>
      </trkpt>
      <trkpt lat="49.85079" lon="2.13816">
        <ele>116.8</ele>
        <time>2022-03-23T13:51:38Z</time>
      </trkpt>
      <trkpt lat="49.85079" lon="2.13815">
        <ele>116.9</ele>
        <time>2022-03-23T13:51:40Z</time>
      </trkpt>
      <trkpt lat="49.85079" lon="2.13813">
        <ele>116.9</ele>
        <time>2022-03-23T13:51:41Z</time>
      </trkpt>
      <trkpt lat="49.85079" lon="2.13812">
        <ele>116.9</ele>
        <time>2022-03-23T13:51:42Z</time>
      </trkpt>
      <trkpt lat="49.85079" lon="2.1381">
        <ele>116.9</ele>
        <time>2022-03-23T13:51:43Z</time>
      </trkpt>
      <trkpt lat="49.85079" lon="2.13807">
        <ele>117</ele>
        <time>2022-03-23T13:51:44Z</time>
      </trkpt>
      <trkpt lat="49.85079" lon="2.13805">
        <ele>117</ele>
        <time>2022-03-23T13:51:45Z</time>
      </trkpt>
      <trkpt lat="49.8508" lon="2.13804">
        <ele>117</ele>
        <time>2022-03-23T13:51:46Z</time>
      </trkpt>
      <trkpt lat="49.8508" lon="2.13802">
        <ele>117</ele>
        <time>2022-03-23T13:51:47Z</time>
      </trkpt>
      <trkpt lat="49.8508" lon="2.13801">
        <ele>117</ele>
        <time>2022-03-23T13:51:48Z</time>
      </trkpt>
      <trkpt lat="49.85079" lon="2.13799">
        <ele>117</ele>
        <time>2022-03-23T13:51:50Z</time>
      </trkpt>
      <trkpt lat="49.85079" lon="2.13797">
        <ele>117</ele>
        <time>2022-03-23T13:51:51Z</time>
      </trkpt>
      <trkpt lat="49.85078" lon="2.13796">
        <ele>117.1</ele>
        <time>2022-03-23T13:51:52Z</time>
      </trkpt>
      <trkpt lat="49.85078" lon="2.13794">
        <ele>117.1</ele>
        <time>2022-03-23T13:51:53Z</time>
      </trkpt>
      <trkpt lat="49.85077" lon="2.13793">
        <ele>117.1</ele>
        <time>2022-03-23T13:51:54Z</time>
      </trkpt>
      <trkpt lat="49.85077" lon="2.13791">
        <ele>117.1</ele>
        <time>2022-03-23T13:51:55Z</time>
      </trkpt>
      <trkpt lat="49.85076" lon="2.1379">
        <ele>117.1</ele>
        <time>2022-03-23T13:51:56Z</time>
      </trkpt>
      <trkpt lat="49.85075" lon="2.13788">
        <ele>117.2</ele>
        <time>2022-03-23T13:51:58Z</time>
      </trkpt>
      <trkpt lat="49.85075" lon="2.13787">
        <ele>117.2</ele>
        <time>2022-03-23T13:51:59Z</time>
      </trkpt>
      <trkpt lat="49.85074" lon="2.13785">
        <ele>117.2</ele>
        <time>2022-03-23T13:52:00Z</time>
      </trkpt>
      <trkpt lat="49.85073" lon="2.13783">
        <ele>117.2</ele>
        <time>2022-03-23T13:52:01Z</time>
      </trkpt>
      <trkpt lat="49.85072" lon="2.13782">
        <ele>117.2</ele>
        <time>2022-03-23T13:52:02Z</time>
      </trkpt>
      <trkpt lat="49.85072" lon="2.13781">
        <ele>117.2</ele>
        <time>2022-03-23T13:52:03Z</time>
      </trkpt>
      <trkpt lat="49.85071" lon="2.13779">
        <ele>117.3</ele>
        <time>2022-03-23T13:52:04Z</time>
      </trkpt>
      <trkpt lat="49.8507" lon="2.13777">
        <ele>117.3</ele>
        <time>2022-03-23T13:52:06Z</time>
      </trkpt>
      <trkpt lat="49.8507" lon="2.13776">
        <ele>117.3</ele>
        <time>2022-03-23T13:52:07Z</time>
      </trkpt>
      <trkpt lat="49.8507" lon="2.13773">
        <ele>117.3</ele>
        <time>2022-03-23T13:52:08Z</time>
      </trkpt>
      <trkpt lat="49.85071" lon="2.13771">
        <ele>117.3</ele>
        <time>2022-03-23T13:52:09Z</time>
      </trkpt>
      <trkpt lat="49.85071" lon="2.1377">
        <ele>117.4</ele>
        <time>2022-03-23T13:52:10Z</time>
      </trkpt>
      <trkpt lat="49.85071" lon="2.13768">
        <ele>117.4</ele>
        <time>2022-03-23T13:52:11Z</time>
      </trkpt>
      <trkpt lat="49.85071" lon="2.13766">
        <ele>117.4</ele>
        <time>2022-03-23T13:52:13Z</time>
      </trkpt>
      <trkpt lat="49.85072" lon="2.13765">
        <ele>117.4</ele>
        <time>2022-03-23T13:52:14Z</time>
      </trkpt>
      <trkpt lat="49.85072" lon="2.13764">
        <ele>117.4</ele>
        <time>2022-03-23T13:52:15Z</time>
      </trkpt>
      <trkpt lat="49.85073" lon="2.13763">
        <ele>117.4</ele>
        <time>2022-03-23T13:52:16Z</time>
      </trkpt>
      <trkpt lat="49.85074" lon="2.13763">
        <ele>117.4</ele>
        <time>2022-03-23T13:52:18Z</time>
      </trkpt>
      <trkpt lat="49.85076" lon="2.13764">
        <ele>117.5</ele>
        <time>2022-03-23T13:52:19Z</time>
      </trkpt>
      <trkpt lat="49.85077" lon="2.13764">
        <ele>117.5</ele>
        <time>2022-03-23T13:52:20Z</time>
      </trkpt>
      <trkpt lat="49.85077" lon="2.13764">
        <ele>117.5</ele>
        <time>2022-03-23T13:52:21Z</time>
      </trkpt>
      <trkpt lat="49.85078" lon="2.13765">
        <ele>117.5</ele>
        <time>2022-03-23T13:52:22Z</time>
      </trkpt>
      <trkpt lat="49.85079" lon="2.13766">
        <ele>117.5</ele>
        <time>2022-03-23T13:52:23Z</time>
      </trkpt>
      <trkpt lat="49.85079" lon="2.13766">
        <ele>117.5</ele>
        <time>2022-03-23T13:52:24Z</time>
      </trkpt>
      <trkpt lat="49.85079" lon="2.13766">
        <ele>117.5</ele>
        <time>2022-03-23T13:52:25Z</time>
      </trkpt>
      <trkpt lat="49.85079" lon="2.13767">
        <ele>117.6</ele>
        <time>2022-03-23T13:52:26Z</time>
      </trkpt>
      <trkpt lat="49.85079" lon="2.13767">
        <ele>117.6</ele>
        <time>2022-03-23T13:52:27Z</time>
      </trkpt>
      <trkpt lat="49.85079" lon="2.13767">
        <ele>117.6</ele>
        <time>2022-03-23T13:52:28Z</time>
      </trkpt>
      <trkpt lat="49.85079" lon="2.13767">
        <ele>117.6</ele>
        <time>2022-03-23T13:52:29Z</time>
      </trkpt>
      <trkpt lat="49.85079" lon="2.13767">
        <ele>117.6</ele>
        <time>2022-03-23T13:52:30Z</time>
      </trkpt>
      <trkpt lat="49.85079" lon="2.13767">
        <ele>117.6</ele>
        <time>2022-03-23T13:52:31Z</time>
      </trkpt>
      <trkpt lat="49.85079" lon="2.13767">
        <ele>117.6</ele>
        <time>2022-03-23T13:52:32Z</time>
      </trkpt>
      <trkpt lat="49.85079" lon="2.13767">
        <ele>117.6</ele>
        <time>2022-03-23T13:52:33Z</time>
      </trkpt>
      <trkpt lat="49.85079" lon="2.13766">
        <ele>117.6</ele>
        <time>2022-03-23T13:52:34Z</time>
      </trkpt>
      <trkpt lat="49.85079" lon="2.13766">
        <ele>117.6</ele>
        <time>2022-03-23T13:52:35Z</time>
      </trkpt>
      <trkpt lat="49.85079" lon="2.13766">
        <ele>117.6</ele>
        <time>2022-03-23T13:52:36Z</time>
      </trkpt>
      <trkpt lat="49.85078" lon="2.13766">
        <ele>117.6</ele>
        <time>2022-03-23T13:52:37Z</time>
      </trkpt>
      <trkpt lat="49.85077" lon="2.13765">
        <ele>117.6</ele>
        <time>2022-03-23T13:52:38Z</time>
      </trkpt>
      <trkpt lat="49.85077" lon="2.13764">
        <ele>117.6</ele>
        <time>2022-03-23T13:52:40Z</time>
      </trkpt>
      <trkpt lat="49.85076" lon="2.13764">
        <ele>117.6</ele>
        <time>2022-03-23T13:52:41Z</time>
      </trkpt>
      <trkpt lat="49.85076" lon="2.13763">
        <ele>117.6</ele>
        <time>2022-03-23T13:52:42Z</time>
      </trkpt>
      <trkpt lat="49.85075" lon="2.13762">
        <ele>117.7</ele>
        <time>2022-03-23T13:52:43Z</time>
      </trkpt>
      <trkpt lat="49.85075" lon="2.13762">
        <ele>117.7</ele>
        <time>2022-03-23T13:52:44Z</time>
      </trkpt>
      <trkpt lat="49.85075" lon="2.13761">
        <ele>117.7</ele>
        <time>2022-03-23T13:52:45Z</time>
      </trkpt>
      <trkpt lat="49.85075" lon="2.13761">
        <ele>117.7</ele>
        <time>2022-03-23T13:52:46Z</time>
      </trkpt>
      <trkpt lat="49.85075" lon="2.13761">
        <ele>117.7</ele>
        <time>2022-03-23T13:52:47Z</time>
      </trkpt>
      <trkpt lat="49.85075" lon="2.13761">
        <ele>117.7</ele>
        <time>2022-03-23T13:52:48Z</time>
      </trkpt>
      <trkpt lat="49.85075" lon="2.13761">
        <ele>117.7</ele>
        <time>2022-03-23T13:52:49Z</time>
      </trkpt>
      <trkpt lat="49.85076" lon="2.13762">
        <ele>117.7</ele>
        <time>2022-03-23T13:52:51Z</time>
      </trkpt>
      <trkpt lat="49.85076" lon="2.13762">
        <ele>117.7</ele>
        <time>2022-03-23T13:52:52Z</time>
      </trkpt>
      <trkpt lat="49.85076" lon="2.13762">
        <ele>117.7</ele>
        <time>2022-03-23T13:52:53Z</time>
      </trkpt>
      <trkpt lat="49.85076" lon="2.13763">
        <ele>117.7</ele>
        <time>2022-03-23T13:52:54Z</time>
      </trkpt>
      <trkpt lat="49.85076" lon="2.13763">
        <ele>117.7</ele>
        <time>2022-03-23T13:52:55Z</time>
      </trkpt>
      <trkpt lat="49.85076" lon="2.13763">
        <ele>117.7</ele>
        <time>2022-03-23T13:52:56Z</time>
      </trkpt>
      <trkpt lat="49.85076" lon="2.13763">
        <ele>117.7</ele>
        <time>2022-03-23T13:52:57Z</time>
      </trkpt>
      <trkpt lat="49.85076" lon="2.13763">
        <ele>117.7</ele>
        <time>2022-03-23T13:52:58Z</time>
      </trkpt>
      <trkpt lat="49.85076" lon="2.13763">
        <ele>117.7</ele>
        <time>2022-03-23T13:52:59Z</time>
      </trkpt>
      <trkpt lat="49.85076" lon="2.13764">
        <ele>117.7</ele>
        <time>2022-03-23T13:53:00Z</time>
      </trkpt>
      <trkpt lat="49.85077" lon="2.13764">
        <ele>117.7</ele>
        <time>2022-03-23T13:53:01Z</time>
      </trkpt>
      <trkpt lat="49.85077" lon="2.13764">
        <ele>117.7</ele>
        <time>2022-03-23T13:53:02Z</time>
      </trkpt>
      <trkpt lat="49.85077" lon="2.13764">
        <ele>117.7</ele>
        <time>2022-03-23T13:53:03Z</time>
      </trkpt>
      <trkpt lat="49.85076" lon="2.13765">
        <ele>117.7</ele>
        <time>2022-03-23T13:53:04Z</time>
      </trkpt>
      <trkpt lat="49.85076" lon="2.13765">
        <ele>117.7</ele>
        <time>2022-03-23T13:53:05Z</time>
      </trkpt>
      <trkpt lat="49.85076" lon="2.13765">
        <ele>117.7</ele>
        <time>2022-03-23T13:53:06Z</time>
      </trkpt>
      <trkpt lat="49.85076" lon="2.13765">
        <ele>117.7</ele>
        <time>2022-03-23T13:53:07Z</time>
      </trkpt>
      <trkpt lat="49.85076" lon="2.13766">
        <ele>117.7</ele>
        <time>2022-03-23T13:53:08Z</time>
      </trkpt>
      <trkpt lat="49.85076" lon="2.13766">
        <ele>117.7</ele>
        <time>2022-03-23T13:53:09Z</time>
      </trkpt>
      <trkpt lat="49.85076" lon="2.13766">
        <ele>117.7</ele>
        <time>2022-03-23T13:53:10Z</time>
      </trkpt>
      <trkpt lat="49.85076" lon="2.13766">
        <ele>117.8</ele>
        <time>2022-03-23T13:53:11Z</time>
      </trkpt>
      <trkpt lat="49.85076" lon="2.13766">
        <ele>117.8</ele>
        <time>2022-03-23T13:53:12Z</time>
      </trkpt>
      <trkpt lat="49.85076" lon="2.13766">
        <ele>117.8</ele>
        <time>2022-03-23T13:53:13Z</time>
      </trkpt>
      <trkpt lat="49.85076" lon="2.13766">
        <ele>117.8</ele>
        <time>2022-03-23T13:53:14Z</time>
      </trkpt>
      <trkpt lat="49.85076" lon="2.13766">
        <ele>117.8</ele>
        <time>2022-03-23T13:53:15Z</time>
      </trkpt>
      <trkpt lat="49.85076" lon="2.13766">
        <ele>117.8</ele>
        <time>2022-03-23T13:53:16Z</time>
      </trkpt>
      <trkpt lat="49.85076" lon="2.13766">
        <ele>117.8</ele>
        <time>2022-03-23T13:53:17Z</time>
      </trkpt>
      <trkpt lat="49.85076" lon="2.13766">
        <ele>117.8</ele>
        <time>2022-03-23T13:53:18Z</time>
      </trkpt>
      <trkpt lat="49.85076" lon="2.13766">
        <ele>117.8</ele>
        <time>2022-03-23T13:53:19Z</time>
      </trkpt>
      <trkpt lat="49.85076" lon="2.13766">
        <ele>117.8</ele>
        <time>2022-03-23T13:53:20Z</time>
      </trkpt>
      <trkpt lat="49.85076" lon="2.13766">
        <ele>117.8</ele>
        <time>2022-03-23T13:53:21Z</time>
      </trkpt>
      <trkpt lat="49.85076" lon="2.13766">
        <ele>117.8</ele>
        <time>2022-03-23T13:53:22Z</time>
      </trkpt>
      <trkpt lat="49.85076" lon="2.13766">
        <ele>117.8</ele>
        <time>2022-03-23T13:53:23Z</time>
      </trkpt>
      <trkpt lat="49.85076" lon="2.13766">
        <ele>117.8</ele>
        <time>2022-03-23T13:53:24Z</time>
      </trkpt>
      <trkpt lat="49.85076" lon="2.13766">
        <ele>117.8</ele>
        <time>2022-03-23T13:53:25Z</time>
      </trkpt>
      <trkpt lat="49.85075" lon="2.13766">
        <ele>117.8</ele>
        <time>2022-03-23T13:53:26Z</time>
      </trkpt>
      <trkpt lat="49.85074" lon="2.13765">
        <ele>117.8</ele>
        <time>2022-03-23T13:53:27Z</time>
      </trkpt>
      <trkpt lat="49.85074" lon="2.13765">
        <ele>117.8</ele>
        <time>2022-03-23T13:53:28Z</time>
      </trkpt>
      <trkpt lat="49.85074" lon="2.13766">
        <ele>117.8</ele>
        <time>2022-03-23T13:53:29Z</time>
      </trkpt>
      <trkpt lat="49.85074" lon="2.13766">
        <ele>117.8</ele>
        <time>2022-03-23T13:53:30Z</time>
      </trkpt>
      <trkpt lat="49.85074" lon="2.13766">
        <ele>117.8</ele>
        <time>2022-03-23T13:53:31Z</time>
      </trkpt>
      <trkpt lat="49.85074" lon="2.13767">
        <ele>117.8</ele>
        <time>2022-03-23T13:53:32Z</time>
      </trkpt>
      <trkpt lat="49.85074" lon="2.13767">
        <ele>117.8</ele>
        <time>2022-03-23T13:53:33Z</time>
      </trkpt>
      <trkpt lat="49.85074" lon="2.13767">
        <ele>117.8</ele>
        <time>2022-03-23T13:53:34Z</time>
      </trkpt>
      <trkpt lat="49.85074" lon="2.13767">
        <ele>117.8</ele>
        <time>2022-03-23T13:53:35Z</time>
      </trkpt>
      <trkpt lat="49.85074" lon="2.13767">
        <ele>117.8</ele>
        <time>2022-03-23T13:53:36Z</time>
      </trkpt>
      <trkpt lat="49.85074" lon="2.13767">
        <ele>117.8</ele>
        <time>2022-03-23T13:53:37Z</time>
      </trkpt>
      <trkpt lat="49.85074" lon="2.13767">
        <ele>117.8</ele>
        <time>2022-03-23T13:53:38Z</time>
      </trkpt>
      <trkpt lat="49.85074" lon="2.13767">
        <ele>117.8</ele>
        <time>2022-03-23T13:53:39Z</time>
      </trkpt>
      <trkpt lat="49.85074" lon="2.13767">
        <ele>117.8</ele>
        <time>2022-03-23T13:53:40Z</time>
      </trkpt>
      <trkpt lat="49.85074" lon="2.13767">
        <ele>117.8</ele>
        <time>2022-03-23T13:53:41Z</time>
      </trkpt>
      <trkpt lat="49.85074" lon="2.13767">
        <ele>117.8</ele>
        <time>2022-03-23T13:53:42Z</time>
      </trkpt>
      <trkpt lat="49.85074" lon="2.13767">
        <ele>117.8</ele>
        <time>2022-03-23T13:53:43Z</time>
      </trkpt>
      <trkpt lat="49.85074" lon="2.13767">
        <ele>117.8</ele>
        <time>2022-03-23T13:53:44Z</time>
      </trkpt>
      <trkpt lat="49.85074" lon="2.13767">
        <ele>117.8</ele>
        <time>2022-03-23T13:53:45Z</time>
      </trkpt>
      <trkpt lat="49.85074" lon="2.13767">
        <ele>117.8</ele>
        <time>2022-03-23T13:53:46Z</time>
      </trkpt>
      <trkpt lat="49.85074" lon="2.13767">
        <ele>117.8</ele>
        <time>2022-03-23T13:53:47Z</time>
      </trkpt>
      <trkpt lat="49.85074" lon="2.13767">
        <ele>117.8</ele>
        <time>2022-03-23T13:53:48Z</time>
      </trkpt>
      <trkpt lat="49.85074" lon="2.13767">
        <ele>117.8</ele>
        <time>2022-03-23T13:53:49Z</time>
      </trkpt>
      <trkpt lat="49.85074" lon="2.13767">
        <ele>117.8</ele>
        <time>2022-03-23T13:53:50Z</time>
      </trkpt>
      <trkpt lat="49.85074" lon="2.13767">
        <ele>117.8</ele>
        <time>2022-03-23T13:53:51Z</time>
      </trkpt>
      <trkpt lat="49.85074" lon="2.13767">
        <ele>117.8</ele>
        <time>2022-03-23T13:53:52Z</time>
      </trkpt>
      <trkpt lat="49.85074" lon="2.13767">
        <ele>117.8</ele>
        <time>2022-03-23T13:53:53Z</time>
      </trkpt>
      <trkpt lat="49.85074" lon="2.13767">
        <ele>117.8</ele>
        <time>2022-03-23T13:53:54Z</time>
      </trkpt>
      <trkpt lat="49.85074" lon="2.13767">
        <ele>117.8</ele>
        <time>2022-03-23T13:53:55Z</time>
      </trkpt>
      <trkpt lat="49.85074" lon="2.13767">
        <ele>117.8</ele>
        <time>2022-03-23T13:53:56Z</time>
      </trkpt>
      <trkpt lat="49.85074" lon="2.13767">
        <ele>117.8</ele>
        <time>2022-03-23T13:53:57Z</time>
      </trkpt>
      <trkpt lat="49.85074" lon="2.13767">
        <ele>117.8</ele>
        <time>2022-03-23T13:53:58Z</time>
      </trkpt>
      <trkpt lat="49.85074" lon="2.13767">
        <ele>117.8</ele>
        <time>2022-03-23T13:53:59Z</time>
      </trkpt>
      <trkpt lat="49.85074" lon="2.13767">
        <ele>117.8</ele>
        <time>2022-03-23T13:54:00Z</time>
      </trkpt>
      <trkpt lat="49.85074" lon="2.13767">
        <ele>117.8</ele>
        <time>2022-03-23T13:54:01Z</time>
      </trkpt>
      <trkpt lat="49.85074" lon="2.13767">
        <ele>117.8</ele>
        <time>2022-03-23T13:54:02Z</time>
      </trkpt>
      <trkpt lat="49.85074" lon="2.13767">
        <ele>117.8</ele>
        <time>2022-03-23T13:54:03Z</time>
      </trkpt>
      <trkpt lat="49.85074" lon="2.13767">
        <ele>117.8</ele>
        <time>2022-03-23T13:54:04Z</time>
      </trkpt>
      <trkpt lat="49.85074" lon="2.13767">
        <ele>117.8</ele>
        <time>2022-03-23T13:54:05Z</time>
      </trkpt>
      <trkpt lat="49.85074" lon="2.13767">
        <ele>117.8</ele>
        <time>2022-03-23T13:54:06Z</time>
      </trkpt>
      <trkpt lat="49.85074" lon="2.13767">
        <ele>117.8</ele>
        <time>2022-03-23T13:54:07Z</time>
      </trkpt>
      <trkpt lat="49.85074" lon="2.13767">
        <ele>117.8</ele>
        <time>2022-03-23T13:54:08Z</time>
      </trkpt>
      <trkpt lat="49.85074" lon="2.13767">
        <ele>117.8</ele>
        <time>2022-03-23T13:54:09Z</time>
      </trkpt>
      <trkpt lat="49.85074" lon="2.13767">
        <ele>117.8</ele>
        <time>2022-03-23T13:54:10Z</time>
      </trkpt>
      <trkpt lat="49.85074" lon="2.13767">
        <ele>117.8</ele>
        <time>2022-03-23T13:54:11Z</time>
      </trkpt>
      <trkpt lat="49.85074" lon="2.13767">
        <ele>117.8</ele>
        <time>2022-03-23T13:54:12Z</time>
      </trkpt>
      <trkpt lat="49.85074" lon="2.13767">
        <ele>117.8</ele>
        <time>2022-03-23T13:54:13Z</time>
      </trkpt>
      <trkpt lat="49.85074" lon="2.13767">
        <ele>117.8</ele>
        <time>2022-03-23T13:54:14Z</time>
      </trkpt>
      <trkpt lat="49.85074" lon="2.13767">
        <ele>117.8</ele>
        <time>2022-03-23T13:54:15Z</time>
      </trkpt>
      <trkpt lat="49.85074" lon="2.13767">
        <ele>117.8</ele>
        <time>2022-03-23T13:54:16Z</time>
      </trkpt>
      <trkpt lat="49.85074" lon="2.13767">
        <ele>117.8</ele>
        <time>2022-03-23T13:54:17Z</time>
      </trkpt>
      <trkpt lat="49.85074" lon="2.13767">
        <ele>117.8</ele>
        <time>2022-03-23T13:54:18Z</time>
      </trkpt>
      <trkpt lat="49.85074" lon="2.13767">
        <ele>117.8</ele>
        <time>2022-03-23T13:54:19Z</time>
      </trkpt>
      <trkpt lat="49.85074" lon="2.13767">
        <ele>117.8</ele>
        <time>2022-03-23T13:54:20Z</time>
      </trkpt>
      <trkpt lat="49.85074" lon="2.13767">
        <ele>117.8</ele>
        <time>2022-03-23T13:54:21Z</time>
      </trkpt>
      <trkpt lat="49.85074" lon="2.13767">
        <ele>117.8</ele>
        <time>2022-03-23T13:54:22Z</time>
      </trkpt>
      <trkpt lat="49.85074" lon="2.13767">
        <ele>117.8</ele>
        <time>2022-03-23T13:54:23Z</time>
      </trkpt>
      <trkpt lat="49.85074" lon="2.13767">
        <ele>117.8</ele>
        <time>2022-03-23T13:54:24Z</time>
      </trkpt>
      <trkpt lat="49.85074" lon="2.13767">
        <ele>117.8</ele>
        <time>2022-03-23T13:54:25Z</time>
      </trkpt>
      <trkpt lat="49.85074" lon="2.13767">
        <ele>117.8</ele>
        <time>2022-03-23T13:54:26Z</time>
      </trkpt>
      <trkpt lat="49.85074" lon="2.13767">
        <ele>117.8</ele>
        <time>2022-03-23T13:54:27Z</time>
      </trkpt>
      <trkpt lat="49.85074" lon="2.13767">
        <ele>117.8</ele>
        <time>2022-03-23T13:54:28Z</time>
      </trkpt>
      <trkpt lat="49.85074" lon="2.13767">
        <ele>117.8</ele>
        <time>2022-03-23T13:54:29Z</time>
      </trkpt>
      <trkpt lat="49.85074" lon="2.13767">
        <ele>117.8</ele>
        <time>2022-03-23T13:54:30Z</time>
      </trkpt>
      <trkpt lat="49.85074" lon="2.13767">
        <ele>117.8</ele>
        <time>2022-03-23T13:54:31Z</time>
      </trkpt>
      <trkpt lat="49.85074" lon="2.13767">
        <ele>117.8</ele>
        <time>2022-03-23T13:54:32Z</time>
      </trkpt>
      <trkpt lat="49.85074" lon="2.13767">
        <ele>117.8</ele>
        <time>2022-03-23T13:54:33Z</time>
      </trkpt>
      <trkpt lat="49.85075" lon="2.13767">
        <ele>117.8</ele>
        <time>2022-03-23T13:54:34Z</time>
      </trkpt>
      <trkpt lat="49.85076" lon="2.13767">
        <ele>117.9</ele>
        <time>2022-03-23T13:54:35Z</time>
      </trkpt>
      <trkpt lat="49.85076" lon="2.13767">
        <ele>117.9</ele>
        <time>2022-03-23T13:54:36Z</time>
      </trkpt>
      <trkpt lat="49.85077" lon="2.13768">
        <ele>117.9</ele>
        <time>2022-03-23T13:54:37Z</time>
      </trkpt>
      <trkpt lat="49.85077" lon="2.13768">
        <ele>117.9</ele>
        <time>2022-03-23T13:54:38Z</time>
      </trkpt>
      <trkpt lat="49.85076" lon="2.13769">
        <ele>117.9</ele>
        <time>2022-03-23T13:54:39Z</time>
      </trkpt>
      <trkpt lat="49.85076" lon="2.1377">
        <ele>117.9</ele>
        <time>2022-03-23T13:54:40Z</time>
      </trkpt>
      <trkpt lat="49.85076" lon="2.1377">
        <ele>117.9</ele>
        <time>2022-03-23T13:54:41Z</time>
      </trkpt>
      <trkpt lat="49.85076" lon="2.1377">
        <ele>117.9</ele>
        <time>2022-03-23T13:54:42Z</time>
      </trkpt>
      <trkpt lat="49.85076" lon="2.1377">
        <ele>117.9</ele>
        <time>2022-03-23T13:54:43Z</time>
      </trkpt>
      <trkpt lat="49.85076" lon="2.1377">
        <ele>117.9</ele>
        <time>2022-03-23T13:54:44Z</time>
      </trkpt>
      <trkpt lat="49.85076" lon="2.1377">
        <ele>117.9</ele>
        <time>2022-03-23T13:54:45Z</time>
      </trkpt>
      <trkpt lat="49.85076" lon="2.1377">
        <ele>117.9</ele>
        <time>2022-03-23T13:54:46Z</time>
      </trkpt>
      <trkpt lat="49.85076" lon="2.1377">
        <ele>117.9</ele>
        <time>2022-03-23T13:54:47Z</time>
      </trkpt>
      <trkpt lat="49.85076" lon="2.1377">
        <ele>117.9</ele>
        <time>2022-03-23T13:54:48Z</time>
      </trkpt>
      <trkpt lat="49.85076" lon="2.1377">
        <ele>117.9</ele>
        <time>2022-03-23T13:54:49Z</time>
      </trkpt>
      <trkpt lat="49.85076" lon="2.1377">
        <ele>117.9</ele>
        <time>2022-03-23T13:54:50Z</time>
      </trkpt>
      <trkpt lat="49.85076" lon="2.1377">
        <ele>117.9</ele>
        <time>2022-03-23T13:54:51Z</time>
      </trkpt>
      <trkpt lat="49.85076" lon="2.1377">
        <ele>117.9</ele>
        <time>2022-03-23T13:54:52Z</time>
      </trkpt>
      <trkpt lat="49.85076" lon="2.1377">
        <ele>117.9</ele>
        <time>2022-03-23T13:54:53Z</time>
      </trkpt>
      <trkpt lat="49.85076" lon="2.1377">
        <ele>117.9</ele>
        <time>2022-03-23T13:54:54Z</time>
      </trkpt>
      <trkpt lat="49.85076" lon="2.1377">
        <ele>117.9</ele>
        <time>2022-03-23T13:54:55Z</time>
      </trkpt>
      <trkpt lat="49.85076" lon="2.1377">
        <ele>117.9</ele>
        <time>2022-03-23T13:54:56Z</time>
      </trkpt>
      <trkpt lat="49.85076" lon="2.1377">
        <ele>117.9</ele>
        <time>2022-03-23T13:54:57Z</time>
      </trkpt>
      <trkpt lat="49.85076" lon="2.1377">
        <ele>117.9</ele>
        <time>2022-03-23T13:54:58Z</time>
      </trkpt>
      <trkpt lat="49.85076" lon="2.1377">
        <ele>117.9</ele>
        <time>2022-03-23T13:54:59Z</time>
      </trkpt>
      <trkpt lat="49.85076" lon="2.1377">
        <ele>117.9</ele>
        <time>2022-03-23T13:55:00Z</time>
      </trkpt>
      <trkpt lat="49.85076" lon="2.1377">
        <ele>117.9</ele>
        <time>2022-03-23T13:55:01Z</time>
      </trkpt>
      <trkpt lat="49.85076" lon="2.1377">
        <ele>117.9</ele>
        <time>2022-03-23T13:55:02Z</time>
      </trkpt>
      <trkpt lat="49.85076" lon="2.1377">
        <ele>117.9</ele>
        <time>2022-03-23T13:55:03Z</time>
      </trkpt>
      <trkpt lat="49.85076" lon="2.1377">
        <ele>117.9</ele>
        <time>2022-03-23T13:55:04Z</time>
      </trkpt>
      <trkpt lat="49.85076" lon="2.1377">
        <ele>117.9</ele>
        <time>2022-03-23T13:55:05Z</time>
      </trkpt>
      <trkpt lat="49.85076" lon="2.1377">
        <ele>117.9</ele>
        <time>2022-03-23T13:55:06Z</time>
      </trkpt>
      <trkpt lat="49.85076" lon="2.1377">
        <ele>117.9</ele>
        <time>2022-03-23T13:55:07Z</time>
      </trkpt>
      <trkpt lat="49.85076" lon="2.1377">
        <ele>117.9</ele>
        <time>2022-03-23T13:55:08Z</time>
      </trkpt>
      <trkpt lat="49.85076" lon="2.1377">
        <ele>117.9</ele>
        <time>2022-03-23T13:55:09Z</time>
      </trkpt>
      <trkpt lat="49.85076" lon="2.1377">
        <ele>117.9</ele>
        <time>2022-03-23T13:55:10Z</time>
      </trkpt>
      <trkpt lat="49.85076" lon="2.1377">
        <ele>117.9</ele>
        <time>2022-03-23T13:55:12Z</time>
      </trkpt>
      <trkpt lat="49.85076" lon="2.1377">
        <ele>117.9</ele>
        <time>2022-03-23T13:55:14Z</time>
      </trkpt>
      <trkpt lat="49.85076" lon="2.1377">
        <ele>117.9</ele>
        <time>2022-03-23T13:55:15Z</time>
      </trkpt>
      <trkpt lat="49.85076" lon="2.1377">
        <ele>117.9</ele>
        <time>2022-03-23T13:55:16Z</time>
      </trkpt>
      <trkpt lat="49.85076" lon="2.1377">
        <ele>117.9</ele>
        <time>2022-03-23T13:55:17Z</time>
      </trkpt>
      <trkpt lat="49.85076" lon="2.1377">
        <ele>117.9</ele>
        <time>2022-03-23T13:55:18Z</time>
      </trkpt>
      <trkpt lat="49.85076" lon="2.1377">
        <ele>117.9</ele>
        <time>2022-03-23T13:55:19Z</time>
      </trkpt>
      <trkpt lat="49.85076" lon="2.1377">
        <ele>117.9</ele>
        <time>2022-03-23T13:55:21Z</time>
      </trkpt>
      <trkpt lat="49.85076" lon="2.1377">
        <ele>117.9</ele>
        <time>2022-03-23T13:55:22Z</time>
      </trkpt>
      <trkpt lat="49.85076" lon="2.1377">
        <ele>117.9</ele>
        <time>2022-03-23T13:55:23Z</time>
      </trkpt>
      <trkpt lat="49.85076" lon="2.1377">
        <ele>117.9</ele>
        <time>2022-03-23T13:55:24Z</time>
      </trkpt>
      <trkpt lat="49.85076" lon="2.1377">
        <ele>117.9</ele>
        <time>2022-03-23T13:55:25Z</time>
      </trkpt>
      <trkpt lat="49.85076" lon="2.1377">
        <ele>117.9</ele>
        <time>2022-03-23T13:55:26Z</time>
      </trkpt>
      <trkpt lat="49.85076" lon="2.1377">
        <ele>117.9</ele>
        <time>2022-03-23T13:55:27Z</time>
      </trkpt>
      <trkpt lat="49.85076" lon="2.13768">
        <ele>117.9</ele>
        <time>2022-03-23T13:55:28Z</time>
      </trkpt>
      <trkpt lat="49.85075" lon="2.13766">
        <ele>118</ele>
        <time>2022-03-23T13:55:29Z</time>
      </trkpt>
      <trkpt lat="49.85075" lon="2.13766">
        <ele>118</ele>
        <time>2022-03-23T13:55:30Z</time>
      </trkpt>
      <trkpt lat="49.85075" lon="2.13765">
        <ele>118</ele>
        <time>2022-03-23T13:55:31Z</time>
      </trkpt>
      <trkpt lat="49.85075" lon="2.13765">
        <ele>118</ele>
        <time>2022-03-23T13:55:32Z</time>
      </trkpt>
      <trkpt lat="49.85075" lon="2.13765">
        <ele>118</ele>
        <time>2022-03-23T13:55:33Z</time>
      </trkpt>
      <trkpt lat="49.85075" lon="2.13765">
        <ele>118</ele>
        <time>2022-03-23T13:55:35Z</time>
      </trkpt>
      <trkpt lat="49.85075" lon="2.13765">
        <ele>118</ele>
        <time>2022-03-23T13:55:36Z</time>
      </trkpt>
      <trkpt lat="49.85075" lon="2.13765">
        <ele>118</ele>
        <time>2022-03-23T13:55:37Z</time>
      </trkpt>
      <trkpt lat="49.85075" lon="2.13765">
        <ele>118</ele>
        <time>2022-03-23T13:55:38Z</time>
      </trkpt>
      <trkpt lat="49.85075" lon="2.13765">
        <ele>118</ele>
        <time>2022-03-23T13:55:39Z</time>
      </trkpt>
      <trkpt lat="49.85076" lon="2.13765">
        <ele>118</ele>
        <time>2022-03-23T13:55:40Z</time>
      </trkpt>
      <trkpt lat="49.85076" lon="2.13765">
        <ele>118</ele>
        <time>2022-03-23T13:55:41Z</time>
      </trkpt>
      <trkpt lat="49.85076" lon="2.13765">
        <ele>118</ele>
        <time>2022-03-23T13:55:42Z</time>
      </trkpt>
      <trkpt lat="49.85076" lon="2.13765">
        <ele>118</ele>
        <time>2022-03-23T13:55:43Z</time>
      </trkpt>
      <trkpt lat="49.85076" lon="2.13765">
        <ele>118</ele>
        <time>2022-03-23T13:55:44Z</time>
      </trkpt>
      <trkpt lat="49.85076" lon="2.13765">
        <ele>118</ele>
        <time>2022-03-23T13:55:45Z</time>
      </trkpt>
      <trkpt lat="49.85076" lon="2.13765">
        <ele>118</ele>
        <time>2022-03-23T13:55:46Z</time>
      </trkpt>
      <trkpt lat="49.85076" lon="2.13765">
        <ele>118</ele>
        <time>2022-03-23T13:55:47Z</time>
      </trkpt>
      <trkpt lat="49.85076" lon="2.13765">
        <ele>118</ele>
        <time>2022-03-23T13:55:48Z</time>
      </trkpt>
      <trkpt lat="49.85076" lon="2.13765">
        <ele>118</ele>
        <time>2022-03-23T13:55:49Z</time>
      </trkpt>
      <trkpt lat="49.85076" lon="2.13765">
        <ele>118</ele>
        <time>2022-03-23T13:55:50Z</time>
      </trkpt>
      <trkpt lat="49.85076" lon="2.13765">
        <ele>118</ele>
        <time>2022-03-23T13:55:51Z</time>
      </trkpt>
      <trkpt lat="49.85076" lon="2.13765">
        <ele>118</ele>
        <time>2022-03-23T13:55:52Z</time>
      </trkpt>
      <trkpt lat="49.85076" lon="2.13765">
        <ele>118</ele>
        <time>2022-03-23T13:55:53Z</time>
      </trkpt>
      <trkpt lat="49.85076" lon="2.13765">
        <ele>118</ele>
        <time>2022-03-23T13:55:54Z</time>
      </trkpt>
      <trkpt lat="49.85076" lon="2.13765">
        <ele>118</ele>
        <time>2022-03-23T13:55:55Z</time>
      </trkpt>
      <trkpt lat="49.85076" lon="2.13765">
        <ele>118</ele>
        <time>2022-03-23T13:55:56Z</time>
      </trkpt>
      <trkpt lat="49.85076" lon="2.13765">
        <ele>118</ele>
        <time>2022-03-23T13:55:57Z</time>
      </trkpt>
      <trkpt lat="49.85076" lon="2.13765">
        <ele>118</ele>
        <time>2022-03-23T13:55:58Z</time>
      </trkpt>
      <trkpt lat="49.85076" lon="2.13765">
        <ele>118</ele>
        <time>2022-03-23T13:56:00Z</time>
      </trkpt>
      <trkpt lat="49.85076" lon="2.13765">
        <ele>118</ele>
        <time>2022-03-23T13:56:01Z</time>
      </trkpt>
      <trkpt lat="49.85076" lon="2.13765">
        <ele>118</ele>
        <time>2022-03-23T13:56:02Z</time>
      </trkpt>
      <trkpt lat="49.85076" lon="2.13765">
        <ele>118</ele>
        <time>2022-03-23T13:56:03Z</time>
      </trkpt>
      <trkpt lat="49.85076" lon="2.13765">
        <ele>118</ele>
        <time>2022-03-23T13:56:04Z</time>
      </trkpt>
      <trkpt lat="49.85076" lon="2.13765">
        <ele>118</ele>
        <time>2022-03-23T13:56:05Z</time>
      </trkpt>
      <trkpt lat="49.85076" lon="2.13765">
        <ele>118</ele>
        <time>2022-03-23T13:56:06Z</time>
      </trkpt>
      <trkpt lat="49.85076" lon="2.13764">
        <ele>118</ele>
        <time>2022-03-23T13:56:07Z</time>
      </trkpt>
      <trkpt lat="49.85076" lon="2.13764">
        <ele>118</ele>
        <time>2022-03-23T13:56:08Z</time>
      </trkpt>
      <trkpt lat="49.85076" lon="2.13764">
        <ele>118</ele>
        <time>2022-03-23T13:56:09Z</time>
      </trkpt>
      <trkpt lat="49.85076" lon="2.13764">
        <ele>118</ele>
        <time>2022-03-23T13:56:10Z</time>
      </trkpt>
      <trkpt lat="49.85076" lon="2.13764">
        <ele>118</ele>
        <time>2022-03-23T13:56:11Z</time>
      </trkpt>
      <trkpt lat="49.85076" lon="2.13764">
        <ele>118</ele>
        <time>2022-03-23T13:56:12Z</time>
      </trkpt>
      <trkpt lat="49.85076" lon="2.13764">
        <ele>118</ele>
        <time>2022-03-23T13:56:13Z</time>
      </trkpt>
      <trkpt lat="49.85076" lon="2.13764">
        <ele>118</ele>
        <time>2022-03-23T13:56:14Z</time>
      </trkpt>
      <trkpt lat="49.85076" lon="2.13764">
        <ele>118</ele>
        <time>2022-03-23T13:56:15Z</time>
      </trkpt>
      <trkpt lat="49.85076" lon="2.13764">
        <ele>118</ele>
        <time>2022-03-23T13:56:16Z</time>
      </trkpt>
      <trkpt lat="49.85076" lon="2.13764">
        <ele>118</ele>
        <time>2022-03-23T13:56:17Z</time>
      </trkpt>
      <trkpt lat="49.85077" lon="2.13764">
        <ele>118</ele>
        <time>2022-03-23T13:56:18Z</time>
      </trkpt>
      <trkpt lat="49.85077" lon="2.13764">
        <ele>118</ele>
        <time>2022-03-23T13:56:19Z</time>
      </trkpt>
      <trkpt lat="49.85077" lon="2.13764">
        <ele>118</ele>
        <time>2022-03-23T13:56:20Z</time>
      </trkpt>
      <trkpt lat="49.85077" lon="2.13764">
        <ele>118</ele>
        <time>2022-03-23T13:56:21Z</time>
      </trkpt>
      <trkpt lat="49.85077" lon="2.13764">
        <ele>118</ele>
        <time>2022-03-23T13:56:22Z</time>
      </trkpt>
      <trkpt lat="49.85077" lon="2.13764">
        <ele>118</ele>
        <time>2022-03-23T13:56:23Z</time>
      </trkpt>
      <trkpt lat="49.85077" lon="2.13764">
        <ele>118</ele>
        <time>2022-03-23T13:56:24Z</time>
      </trkpt>
      <trkpt lat="49.85077" lon="2.13764">
        <ele>118</ele>
        <time>2022-03-23T13:56:25Z</time>
      </trkpt>
      <trkpt lat="49.85077" lon="2.13764">
        <ele>118</ele>
        <time>2022-03-23T13:56:26Z</time>
      </trkpt>
      <trkpt lat="49.85077" lon="2.13764">
        <ele>118</ele>
        <time>2022-03-23T13:56:27Z</time>
      </trkpt>
      <trkpt lat="49.85077" lon="2.13764">
        <ele>118</ele>
        <time>2022-03-23T13:56:28Z</time>
      </trkpt>
      <trkpt lat="49.85077" lon="2.13764">
        <ele>118</ele>
        <time>2022-03-23T13:56:29Z</time>
      </trkpt>
      <trkpt lat="49.85077" lon="2.13764">
        <ele>118</ele>
        <time>2022-03-23T13:56:30Z</time>
      </trkpt>
      <trkpt lat="49.85077" lon="2.13764">
        <ele>118</ele>
        <time>2022-03-23T13:56:31Z</time>
      </trkpt>
      <trkpt lat="49.85077" lon="2.13764">
        <ele>118</ele>
        <time>2022-03-23T13:56:32Z</time>
      </trkpt>
      <trkpt lat="49.85077" lon="2.13764">
        <ele>118</ele>
        <time>2022-03-23T13:56:33Z</time>
      </trkpt>
      <trkpt lat="49.85077" lon="2.13764">
        <ele>118</ele>
        <time>2022-03-23T13:56:34Z</time>
      </trkpt>
      <trkpt lat="49.85077" lon="2.13764">
        <ele>118</ele>
        <time>2022-03-23T13:56:35Z</time>
      </trkpt>
      <trkpt lat="49.85077" lon="2.13764">
        <ele>118</ele>
        <time>2022-03-23T13:56:36Z</time>
      </trkpt>
      <trkpt lat="49.85077" lon="2.13764">
        <ele>118</ele>
        <time>2022-03-23T13:56:37Z</time>
      </trkpt>
      <trkpt lat="49.85077" lon="2.13764">
        <ele>118</ele>
        <time>2022-03-23T13:56:38Z</time>
      </trkpt>
      <trkpt lat="49.85077" lon="2.13764">
        <ele>118</ele>
        <time>2022-03-23T13:56:39Z</time>
      </trkpt>
      <trkpt lat="49.85077" lon="2.13764">
        <ele>118</ele>
        <time>2022-03-23T13:56:41Z</time>
      </trkpt>
      <trkpt lat="49.85077" lon="2.13764">
        <ele>118</ele>
        <time>2022-03-23T13:56:43Z</time>
      </trkpt>
      <trkpt lat="49.85077" lon="2.13764">
        <ele>118</ele>
        <time>2022-03-23T13:56:44Z</time>
      </trkpt>
      <trkpt lat="49.85077" lon="2.13764">
        <ele>118</ele>
        <time>2022-03-23T13:56:45Z</time>
      </trkpt>
      <trkpt lat="49.85077" lon="2.13764">
        <ele>118</ele>
        <time>2022-03-23T13:56:46Z</time>
      </trkpt>
      <trkpt lat="49.85077" lon="2.13764">
        <ele>118</ele>
        <time>2022-03-23T13:56:47Z</time>
      </trkpt>
      <trkpt lat="49.85077" lon="2.13764">
        <ele>118</ele>
        <time>2022-03-23T13:56:48Z</time>
      </trkpt>
      <trkpt lat="49.85077" lon="2.13763">
        <ele>118</ele>
        <time>2022-03-23T13:56:49Z</time>
      </trkpt>
      <trkpt lat="49.85077" lon="2.13763">
        <ele>118</ele>
        <time>2022-03-23T13:56:50Z</time>
      </trkpt>
      <trkpt lat="49.85077" lon="2.13763">
        <ele>118</ele>
        <time>2022-03-23T13:56:51Z</time>
      </trkpt>
      <trkpt lat="49.85077" lon="2.13763">
        <ele>118</ele>
        <time>2022-03-23T13:56:52Z</time>
      </trkpt>
      <trkpt lat="49.85077" lon="2.13763">
        <ele>118</ele>
        <time>2022-03-23T13:56:53Z</time>
      </trkpt>
      <trkpt lat="49.85077" lon="2.13763">
        <ele>118</ele>
        <time>2022-03-23T13:56:54Z</time>
      </trkpt>
      <trkpt lat="49.85077" lon="2.13763">
        <ele>118</ele>
        <time>2022-03-23T13:56:55Z</time>
      </trkpt>
      <trkpt lat="49.85077" lon="2.13763">
        <ele>118</ele>
        <time>2022-03-23T13:56:56Z</time>
      </trkpt>
      <trkpt lat="49.85078" lon="2.13763">
        <ele>118</ele>
        <time>2022-03-23T13:56:57Z</time>
      </trkpt>
      <trkpt lat="49.85078" lon="2.13763">
        <ele>118</ele>
        <time>2022-03-23T13:56:58Z</time>
      </trkpt>
      <trkpt lat="49.85078" lon="2.13763">
        <ele>118</ele>
        <time>2022-03-23T13:56:59Z</time>
      </trkpt>
      <trkpt lat="49.85078" lon="2.13763">
        <ele>118</ele>
        <time>2022-03-23T13:57:00Z</time>
      </trkpt>
      <trkpt lat="49.85078" lon="2.13763">
        <ele>118</ele>
        <time>2022-03-23T13:57:01Z</time>
      </trkpt>
      <trkpt lat="49.85078" lon="2.13763">
        <ele>118</ele>
        <time>2022-03-23T13:57:02Z</time>
      </trkpt>
      <trkpt lat="49.85078" lon="2.13763">
        <ele>118</ele>
        <time>2022-03-23T13:57:03Z</time>
      </trkpt>
      <trkpt lat="49.85078" lon="2.13763">
        <ele>118</ele>
        <time>2022-03-23T13:57:04Z</time>
      </trkpt>
      <trkpt lat="49.85078" lon="2.13763">
        <ele>118</ele>
        <time>2022-03-23T13:57:05Z</time>
      </trkpt>
      <trkpt lat="49.85078" lon="2.13763">
        <ele>118</ele>
        <time>2022-03-23T13:57:06Z</time>
      </trkpt>
      <trkpt lat="49.85078" lon="2.13763">
        <ele>118</ele>
        <time>2022-03-23T13:57:07Z</time>
      </trkpt>
      <trkpt lat="49.85078" lon="2.13763">
        <ele>118</ele>
        <time>2022-03-23T13:57:08Z</time>
      </trkpt>
      <trkpt lat="49.85078" lon="2.13763">
        <ele>118</ele>
        <time>2022-03-23T13:57:09Z</time>
      </trkpt>
      <trkpt lat="49.85078" lon="2.13763">
        <ele>118</ele>
        <time>2022-03-23T13:57:10Z</time>
      </trkpt>
      <trkpt lat="49.85078" lon="2.13763">
        <ele>118</ele>
        <time>2022-03-23T13:57:11Z</time>
      </trkpt>
      <trkpt lat="49.85078" lon="2.13763">
        <ele>118</ele>
        <time>2022-03-23T13:57:12Z</time>
      </trkpt>
      <trkpt lat="49.85078" lon="2.13763">
        <ele>118</ele>
        <time>2022-03-23T13:57:13Z</time>
      </trkpt>
      <trkpt lat="49.85078" lon="2.13763">
        <ele>118.1</ele>
        <time>2022-03-23T13:57:14Z</time>
      </trkpt>
      <trkpt lat="49.85078" lon="2.13763">
        <ele>118.1</ele>
        <time>2022-03-23T13:57:15Z</time>
      </trkpt>
      <trkpt lat="49.85078" lon="2.13763">
        <ele>118.1</ele>
        <time>2022-03-23T13:57:16Z</time>
      </trkpt>
      <trkpt lat="49.85078" lon="2.13763">
        <ele>118.1</ele>
        <time>2022-03-23T13:57:17Z</time>
      </trkpt>
      <trkpt lat="49.85078" lon="2.13763">
        <ele>118.1</ele>
        <time>2022-03-23T13:57:18Z</time>
      </trkpt>
      <trkpt lat="49.85078" lon="2.13763">
        <ele>118.1</ele>
        <time>2022-03-23T13:57:19Z</time>
      </trkpt>
      <trkpt lat="49.85078" lon="2.13763">
        <ele>118.1</ele>
        <time>2022-03-23T13:57:21Z</time>
      </trkpt>
      <trkpt lat="49.85078" lon="2.13763">
        <ele>118.1</ele>
        <time>2022-03-23T13:57:22Z</time>
      </trkpt>
      <trkpt lat="49.85078" lon="2.13763">
        <ele>118.1</ele>
        <time>2022-03-23T13:57:23Z</time>
      </trkpt>
      <trkpt lat="49.85078" lon="2.13763">
        <ele>118.1</ele>
        <time>2022-03-23T13:57:24Z</time>
      </trkpt>
      <trkpt lat="49.85079" lon="2.13761">
        <ele>118.1</ele>
        <time>2022-03-23T13:57:25Z</time>
      </trkpt>
      <trkpt lat="49.8508" lon="2.13759">
        <ele>118.1</ele>
        <time>2022-03-23T13:57:26Z</time>
      </trkpt>
      <trkpt lat="49.85082" lon="2.13755">
        <ele>118.2</ele>
        <time>2022-03-23T13:57:28Z</time>
      </trkpt>
      <trkpt lat="49.85082" lon="2.13754">
        <ele>118.2</ele>
        <time>2022-03-23T13:57:29Z</time>
      </trkpt>
      <trkpt lat="49.85083" lon="2.13753">
        <ele>118.2</ele>
        <time>2022-03-23T13:57:30Z</time>
      </trkpt>
      <trkpt lat="49.85084" lon="2.1375">
        <ele>118.3</ele>
        <time>2022-03-23T13:57:31Z</time>
      </trkpt>
      <trkpt lat="49.85084" lon="2.13748">
        <ele>118.3</ele>
        <time>2022-03-23T13:57:32Z</time>
      </trkpt>
      <trkpt lat="49.85084" lon="2.13745">
        <ele>118.3</ele>
        <time>2022-03-23T13:57:33Z</time>
      </trkpt>
      <trkpt lat="49.85083" lon="2.13743">
        <ele>118.3</ele>
        <time>2022-03-23T13:57:34Z</time>
      </trkpt>
      <trkpt lat="49.85083" lon="2.1374">
        <ele>118.4</ele>
        <time>2022-03-23T13:57:36Z</time>
      </trkpt>
      <trkpt lat="49.85083" lon="2.13738">
        <ele>118.4</ele>
        <time>2022-03-23T13:57:37Z</time>
      </trkpt>
      <trkpt lat="49.85082" lon="2.13736">
        <ele>118.4</ele>
        <time>2022-03-23T13:57:38Z</time>
      </trkpt>
      <trkpt lat="49.85082" lon="2.13733">
        <ele>118.4</ele>
        <time>2022-03-23T13:57:39Z</time>
      </trkpt>
      <trkpt lat="49.85082" lon="2.13732">
        <ele>118.4</ele>
        <time>2022-03-23T13:57:40Z</time>
      </trkpt>
      <trkpt lat="49.85082" lon="2.1373">
        <ele>118.5</ele>
        <time>2022-03-23T13:57:41Z</time>
      </trkpt>
      <trkpt lat="49.85082" lon="2.13728">
        <ele>118.5</ele>
        <time>2022-03-23T13:57:42Z</time>
      </trkpt>
      <trkpt lat="49.85082" lon="2.13726">
        <ele>118.5</ele>
        <time>2022-03-23T13:57:43Z</time>
      </trkpt>
      <trkpt lat="49.85082" lon="2.13723">
        <ele>118.5</ele>
        <time>2022-03-23T13:57:44Z</time>
      </trkpt>
      <trkpt lat="49.85082" lon="2.13721">
        <ele>118.5</ele>
        <time>2022-03-23T13:57:45Z</time>
      </trkpt>
      <trkpt lat="49.85082" lon="2.1372">
        <ele>118.5</ele>
        <time>2022-03-23T13:57:46Z</time>
      </trkpt>
      <trkpt lat="49.85082" lon="2.13717">
        <ele>118.5</ele>
        <time>2022-03-23T13:57:47Z</time>
      </trkpt>
      <trkpt lat="49.85082" lon="2.13715">
        <ele>118.5</ele>
        <time>2022-03-23T13:57:48Z</time>
      </trkpt>
      <trkpt lat="49.85083" lon="2.13714">
        <ele>118.5</ele>
        <time>2022-03-23T13:57:49Z</time>
      </trkpt>
      <trkpt lat="49.85083" lon="2.13711">
        <ele>118.6</ele>
        <time>2022-03-23T13:57:51Z</time>
      </trkpt>
      <trkpt lat="49.85083" lon="2.1371">
        <ele>118.6</ele>
        <time>2022-03-23T13:57:52Z</time>
      </trkpt>
      <trkpt lat="49.85083" lon="2.13709">
        <ele>118.6</ele>
        <time>2022-03-23T13:57:53Z</time>
      </trkpt>
      <trkpt lat="49.85083" lon="2.13708">
        <ele>118.6</ele>
        <time>2022-03-23T13:57:54Z</time>
      </trkpt>
      <trkpt lat="49.85083" lon="2.13705">
        <ele>118.6</ele>
        <time>2022-03-23T13:57:55Z</time>
      </trkpt>
      <trkpt lat="49.85084" lon="2.13703">
        <ele>118.6</ele>
        <time>2022-03-23T13:57:56Z</time>
      </trkpt>
      <trkpt lat="49.85084" lon="2.137">
        <ele>118.6</ele>
        <time>2022-03-23T13:57:57Z</time>
      </trkpt>
      <trkpt lat="49.85085" lon="2.13697">
        <ele>118.6</ele>
        <time>2022-03-23T13:57:59Z</time>
      </trkpt>
      <trkpt lat="49.85085" lon="2.13695">
        <ele>118.6</ele>
        <time>2022-03-23T13:58:00Z</time>
      </trkpt>
      <trkpt lat="49.85086" lon="2.13693">
        <ele>118.6</ele>
        <time>2022-03-23T13:58:01Z</time>
      </trkpt>
      <trkpt lat="49.85086" lon="2.13691">
        <ele>118.7</ele>
        <time>2022-03-23T13:58:02Z</time>
      </trkpt>
      <trkpt lat="49.85087" lon="2.13689">
        <ele>118.7</ele>
        <time>2022-03-23T13:58:03Z</time>
      </trkpt>
      <trkpt lat="49.85087" lon="2.13687">
        <ele>118.7</ele>
        <time>2022-03-23T13:58:04Z</time>
      </trkpt>
      <trkpt lat="49.85088" lon="2.13685">
        <ele>118.7</ele>
        <time>2022-03-23T13:58:05Z</time>
      </trkpt>
      <trkpt lat="49.85088" lon="2.13683">
        <ele>118.7</ele>
        <time>2022-03-23T13:58:06Z</time>
      </trkpt>
      <trkpt lat="49.85089" lon="2.13681">
        <ele>118.7</ele>
        <time>2022-03-23T13:58:07Z</time>
      </trkpt>
      <trkpt lat="49.8509" lon="2.13679">
        <ele>118.7</ele>
        <time>2022-03-23T13:58:09Z</time>
      </trkpt>
      <trkpt lat="49.85091" lon="2.13675">
        <ele>118.7</ele>
        <time>2022-03-23T13:58:10Z</time>
      </trkpt>
      <trkpt lat="49.85091" lon="2.13673">
        <ele>118.7</ele>
        <time>2022-03-23T13:58:11Z</time>
      </trkpt>
      <trkpt lat="49.85092" lon="2.13671">
        <ele>118.7</ele>
        <time>2022-03-23T13:58:13Z</time>
      </trkpt>
      <trkpt lat="49.85093" lon="2.13669">
        <ele>118.8</ele>
        <time>2022-03-23T13:58:14Z</time>
      </trkpt>
      <trkpt lat="49.85093" lon="2.13667">
        <ele>118.8</ele>
        <time>2022-03-23T13:58:15Z</time>
      </trkpt>
      <trkpt lat="49.85094" lon="2.13664">
        <ele>118.8</ele>
        <time>2022-03-23T13:58:16Z</time>
      </trkpt>
      <trkpt lat="49.85094" lon="2.13662">
        <ele>118.8</ele>
        <time>2022-03-23T13:58:17Z</time>
      </trkpt>
      <trkpt lat="49.85094" lon="2.1366">
        <ele>118.8</ele>
        <time>2022-03-23T13:58:18Z</time>
      </trkpt>
      <trkpt lat="49.85095" lon="2.13658">
        <ele>118.8</ele>
        <time>2022-03-23T13:58:19Z</time>
      </trkpt>
      <trkpt lat="49.85095" lon="2.13656">
        <ele>118.8</ele>
        <time>2022-03-23T13:58:20Z</time>
      </trkpt>
      <trkpt lat="49.85095" lon="2.13653">
        <ele>118.8</ele>
        <time>2022-03-23T13:58:22Z</time>
      </trkpt>
      <trkpt lat="49.85095" lon="2.13651">
        <ele>118.8</ele>
        <time>2022-03-23T13:58:23Z</time>
      </trkpt>
      <trkpt lat="49.85095" lon="2.13648">
        <ele>118.8</ele>
        <time>2022-03-23T13:58:24Z</time>
      </trkpt>
      <trkpt lat="49.85095" lon="2.13646">
        <ele>118.9</ele>
        <time>2022-03-23T13:58:25Z</time>
      </trkpt>
      <trkpt lat="49.85095" lon="2.13643">
        <ele>118.9</ele>
        <time>2022-03-23T13:58:26Z</time>
      </trkpt>
      <trkpt lat="49.85095" lon="2.13641">
        <ele>118.9</ele>
        <time>2022-03-23T13:58:27Z</time>
      </trkpt>
      <trkpt lat="49.85095" lon="2.13639">
        <ele>118.9</ele>
        <time>2022-03-23T13:58:28Z</time>
      </trkpt>
      <trkpt lat="49.85095" lon="2.13636">
        <ele>118.9</ele>
        <time>2022-03-23T13:58:29Z</time>
      </trkpt>
      <trkpt lat="49.85095" lon="2.13634">
        <ele>118.9</ele>
        <time>2022-03-23T13:58:30Z</time>
      </trkpt>
      <trkpt lat="49.85096" lon="2.13632">
        <ele>119</ele>
        <time>2022-03-23T13:58:32Z</time>
      </trkpt>
      <trkpt lat="49.85096" lon="2.13629">
        <ele>119</ele>
        <time>2022-03-23T13:58:33Z</time>
      </trkpt>
      <trkpt lat="49.85095" lon="2.13628">
        <ele>119</ele>
        <time>2022-03-23T13:58:34Z</time>
      </trkpt>
      <trkpt lat="49.85095" lon="2.13626">
        <ele>119</ele>
        <time>2022-03-23T13:58:35Z</time>
      </trkpt>
      <trkpt lat="49.85095" lon="2.13623">
        <ele>119</ele>
        <time>2022-03-23T13:58:36Z</time>
      </trkpt>
      <trkpt lat="49.85095" lon="2.13621">
        <ele>119</ele>
        <time>2022-03-23T13:58:37Z</time>
      </trkpt>
      <trkpt lat="49.85095" lon="2.1362">
        <ele>119.1</ele>
        <time>2022-03-23T13:58:38Z</time>
      </trkpt>
      <trkpt lat="49.85095" lon="2.13617">
        <ele>119.1</ele>
        <time>2022-03-23T13:58:39Z</time>
      </trkpt>
      <trkpt lat="49.85095" lon="2.13615">
        <ele>119.1</ele>
        <time>2022-03-23T13:58:40Z</time>
      </trkpt>
      <trkpt lat="49.85095" lon="2.13614">
        <ele>119.1</ele>
        <time>2022-03-23T13:58:41Z</time>
      </trkpt>
      <trkpt lat="49.85095" lon="2.1361">
        <ele>119.1</ele>
        <time>2022-03-23T13:58:42Z</time>
      </trkpt>
      <trkpt lat="49.85094" lon="2.13609">
        <ele>119.2</ele>
        <time>2022-03-23T13:58:44Z</time>
      </trkpt>
      <trkpt lat="49.85094" lon="2.13607">
        <ele>119.2</ele>
        <time>2022-03-23T13:58:45Z</time>
      </trkpt>
      <trkpt lat="49.85094" lon="2.13605">
        <ele>119.2</ele>
        <time>2022-03-23T13:58:46Z</time>
      </trkpt>
      <trkpt lat="49.85094" lon="2.13604">
        <ele>119.2</ele>
        <time>2022-03-23T13:58:47Z</time>
      </trkpt>
      <trkpt lat="49.85094" lon="2.13602">
        <ele>119.2</ele>
        <time>2022-03-23T13:58:48Z</time>
      </trkpt>
      <trkpt lat="49.85094" lon="2.13599">
        <ele>119.2</ele>
        <time>2022-03-23T13:58:49Z</time>
      </trkpt>
      <trkpt lat="49.85095" lon="2.13597">
        <ele>119.3</ele>
        <time>2022-03-23T13:58:50Z</time>
      </trkpt>
      <trkpt lat="49.85095" lon="2.13595">
        <ele>119.3</ele>
        <time>2022-03-23T13:58:51Z</time>
      </trkpt>
      <trkpt lat="49.85095" lon="2.13592">
        <ele>119.3</ele>
        <time>2022-03-23T13:58:53Z</time>
      </trkpt>
      <trkpt lat="49.85095" lon="2.1359">
        <ele>119.3</ele>
        <time>2022-03-23T13:58:54Z</time>
      </trkpt>
      <trkpt lat="49.85095" lon="2.13587">
        <ele>119.3</ele>
        <time>2022-03-23T13:58:55Z</time>
      </trkpt>
      <trkpt lat="49.85095" lon="2.13585">
        <ele>119.3</ele>
        <time>2022-03-23T13:58:56Z</time>
      </trkpt>
      <trkpt lat="49.85094" lon="2.13584">
        <ele>119.4</ele>
        <time>2022-03-23T13:58:57Z</time>
      </trkpt>
      <trkpt lat="49.85094" lon="2.13582">
        <ele>119.4</ele>
        <time>2022-03-23T13:58:58Z</time>
      </trkpt>
      <trkpt lat="49.85094" lon="2.13579">
        <ele>119.4</ele>
        <time>2022-03-23T13:58:59Z</time>
      </trkpt>
      <trkpt lat="49.85094" lon="2.13577">
        <ele>119.4</ele>
        <time>2022-03-23T13:59:00Z</time>
      </trkpt>
      <trkpt lat="49.85094" lon="2.13575">
        <ele>119.4</ele>
        <time>2022-03-23T13:59:01Z</time>
      </trkpt>
      <trkpt lat="49.85094" lon="2.13572">
        <ele>119.4</ele>
        <time>2022-03-23T13:59:03Z</time>
      </trkpt>
      <trkpt lat="49.85094" lon="2.1357">
        <ele>119.4</ele>
        <time>2022-03-23T13:59:04Z</time>
      </trkpt>
      <trkpt lat="49.85094" lon="2.13567">
        <ele>119.4</ele>
        <time>2022-03-23T13:59:05Z</time>
      </trkpt>
      <trkpt lat="49.85094" lon="2.13565">
        <ele>119.4</ele>
        <time>2022-03-23T13:59:06Z</time>
      </trkpt>
      <trkpt lat="49.85094" lon="2.13563">
        <ele>119.5</ele>
        <time>2022-03-23T13:59:07Z</time>
      </trkpt>
      <trkpt lat="49.85093" lon="2.1356">
        <ele>119.5</ele>
        <time>2022-03-23T13:59:08Z</time>
      </trkpt>
      <trkpt lat="49.85094" lon="2.13556">
        <ele>119.5</ele>
        <time>2022-03-23T13:59:09Z</time>
      </trkpt>
      <trkpt lat="49.85094" lon="2.13554">
        <ele>119.5</ele>
        <time>2022-03-23T13:59:11Z</time>
      </trkpt>
      <trkpt lat="49.85094" lon="2.13552">
        <ele>119.5</ele>
        <time>2022-03-23T13:59:12Z</time>
      </trkpt>
      <trkpt lat="49.85094" lon="2.13551">
        <ele>119.5</ele>
        <time>2022-03-23T13:59:13Z</time>
      </trkpt>
      <trkpt lat="49.85094" lon="2.13549">
        <ele>119.5</ele>
        <time>2022-03-23T13:59:14Z</time>
      </trkpt>
      <trkpt lat="49.85094" lon="2.13546">
        <ele>119.5</ele>
        <time>2022-03-23T13:59:15Z</time>
      </trkpt>
      <trkpt lat="49.85095" lon="2.13545">
        <ele>119.5</ele>
        <time>2022-03-23T13:59:16Z</time>
      </trkpt>
      <trkpt lat="49.85095" lon="2.13543">
        <ele>119.5</ele>
        <time>2022-03-23T13:59:17Z</time>
      </trkpt>
      <trkpt lat="49.85095" lon="2.1354">
        <ele>119.5</ele>
        <time>2022-03-23T13:59:18Z</time>
      </trkpt>
      <trkpt lat="49.85095" lon="2.13539">
        <ele>119.5</ele>
        <time>2022-03-23T13:59:19Z</time>
      </trkpt>
      <trkpt lat="49.85095" lon="2.13537">
        <ele>119.5</ele>
        <time>2022-03-23T13:59:20Z</time>
      </trkpt>
      <trkpt lat="49.85095" lon="2.13535">
        <ele>119.5</ele>
        <time>2022-03-23T13:59:21Z</time>
      </trkpt>
      <trkpt lat="49.85095" lon="2.13533">
        <ele>119.5</ele>
        <time>2022-03-23T13:59:22Z</time>
      </trkpt>
      <trkpt lat="49.85096" lon="2.13529">
        <ele>119.5</ele>
        <time>2022-03-23T13:59:23Z</time>
      </trkpt>
      <trkpt lat="49.85096" lon="2.13528">
        <ele>119.5</ele>
        <time>2022-03-23T13:59:24Z</time>
      </trkpt>
      <trkpt lat="49.85096" lon="2.13527">
        <ele>119.5</ele>
        <time>2022-03-23T13:59:25Z</time>
      </trkpt>
      <trkpt lat="49.85096" lon="2.13524">
        <ele>119.5</ele>
        <time>2022-03-23T13:59:26Z</time>
      </trkpt>
      <trkpt lat="49.85097" lon="2.13523">
        <ele>119.5</ele>
        <time>2022-03-23T13:59:27Z</time>
      </trkpt>
      <trkpt lat="49.85097" lon="2.13521">
        <ele>119.5</ele>
        <time>2022-03-23T13:59:28Z</time>
      </trkpt>
      <trkpt lat="49.85097" lon="2.13519">
        <ele>119.6</ele>
        <time>2022-03-23T13:59:29Z</time>
      </trkpt>
      <trkpt lat="49.85097" lon="2.13517">
        <ele>119.6</ele>
        <time>2022-03-23T13:59:30Z</time>
      </trkpt>
      <trkpt lat="49.85098" lon="2.13515">
        <ele>119.6</ele>
        <time>2022-03-23T13:59:32Z</time>
      </trkpt>
      <trkpt lat="49.85098" lon="2.13512">
        <ele>119.6</ele>
        <time>2022-03-23T13:59:33Z</time>
      </trkpt>
      <trkpt lat="49.85098" lon="2.1351">
        <ele>119.6</ele>
        <time>2022-03-23T13:59:34Z</time>
      </trkpt>
      <trkpt lat="49.85098" lon="2.13509">
        <ele>119.6</ele>
        <time>2022-03-23T13:59:35Z</time>
      </trkpt>
      <trkpt lat="49.85098" lon="2.13506">
        <ele>119.6</ele>
        <time>2022-03-23T13:59:36Z</time>
      </trkpt>
      <trkpt lat="49.85098" lon="2.13504">
        <ele>119.6</ele>
        <time>2022-03-23T13:59:37Z</time>
      </trkpt>
      <trkpt lat="49.85098" lon="2.13503">
        <ele>119.6</ele>
        <time>2022-03-23T13:59:38Z</time>
      </trkpt>
      <trkpt lat="49.85098" lon="2.135">
        <ele>119.6</ele>
        <time>2022-03-23T13:59:39Z</time>
      </trkpt>
      <trkpt lat="49.85098" lon="2.13499">
        <ele>119.6</ele>
        <time>2022-03-23T13:59:40Z</time>
      </trkpt>
      <trkpt lat="49.85097" lon="2.13497">
        <ele>119.6</ele>
        <time>2022-03-23T13:59:41Z</time>
      </trkpt>
      <trkpt lat="49.85097" lon="2.13494">
        <ele>119.7</ele>
        <time>2022-03-23T13:59:43Z</time>
      </trkpt>
      <trkpt lat="49.85097" lon="2.13493">
        <ele>119.7</ele>
        <time>2022-03-23T13:59:44Z</time>
      </trkpt>
      <trkpt lat="49.85097" lon="2.13489">
        <ele>119.7</ele>
        <time>2022-03-23T13:59:45Z</time>
      </trkpt>
      <trkpt lat="49.85097" lon="2.13487">
        <ele>119.7</ele>
        <time>2022-03-23T13:59:46Z</time>
      </trkpt>
      <trkpt lat="49.85097" lon="2.13486">
        <ele>119.7</ele>
        <time>2022-03-23T13:59:47Z</time>
      </trkpt>
      <trkpt lat="49.85097" lon="2.13482">
        <ele>119.7</ele>
        <time>2022-03-23T13:59:48Z</time>
      </trkpt>
      <trkpt lat="49.85097" lon="2.13481">
        <ele>119.7</ele>
        <time>2022-03-23T13:59:50Z</time>
      </trkpt>
      <trkpt lat="49.85097" lon="2.1348">
        <ele>119.7</ele>
        <time>2022-03-23T13:59:51Z</time>
      </trkpt>
      <trkpt lat="49.85097" lon="2.13477">
        <ele>119.8</ele>
        <time>2022-03-23T13:59:52Z</time>
      </trkpt>
      <trkpt lat="49.85097" lon="2.13476">
        <ele>119.8</ele>
        <time>2022-03-23T13:59:53Z</time>
      </trkpt>
      <trkpt lat="49.85098" lon="2.13474">
        <ele>119.8</ele>
        <time>2022-03-23T13:59:54Z</time>
      </trkpt>
      <trkpt lat="49.85098" lon="2.13473">
        <ele>119.8</ele>
        <time>2022-03-23T13:59:55Z</time>
      </trkpt>
      <trkpt lat="49.85098" lon="2.13471">
        <ele>119.8</ele>
        <time>2022-03-23T13:59:56Z</time>
      </trkpt>
      <trkpt lat="49.85098" lon="2.1347">
        <ele>119.8</ele>
        <time>2022-03-23T13:59:57Z</time>
      </trkpt>
      <trkpt lat="49.85099" lon="2.13466">
        <ele>119.8</ele>
        <time>2022-03-23T13:59:58Z</time>
      </trkpt>
      <trkpt lat="49.85099" lon="2.13465">
        <ele>119.8</ele>
        <time>2022-03-23T13:59:59Z</time>
      </trkpt>
      <trkpt lat="49.85099" lon="2.13464">
        <ele>119.8</ele>
        <time>2022-03-23T14:00:00Z</time>
      </trkpt>
      <trkpt lat="49.851" lon="2.13462">
        <ele>119.8</ele>
        <time>2022-03-23T14:00:01Z</time>
      </trkpt>
      <trkpt lat="49.85101" lon="2.1346">
        <ele>119.8</ele>
        <time>2022-03-23T14:00:02Z</time>
      </trkpt>
      <trkpt lat="49.85102" lon="2.13458">
        <ele>119.9</ele>
        <time>2022-03-23T14:00:03Z</time>
      </trkpt>
      <trkpt lat="49.85103" lon="2.13457">
        <ele>120</ele>
        <time>2022-03-23T14:00:04Z</time>
      </trkpt>
      <trkpt lat="49.85104" lon="2.13456">
        <ele>120</ele>
        <time>2022-03-23T14:00:05Z</time>
      </trkpt>
      <trkpt lat="49.85106" lon="2.13455">
        <ele>120</ele>
        <time>2022-03-23T14:00:06Z</time>
      </trkpt>
      <trkpt lat="49.85107" lon="2.13455">
        <ele>120</ele>
        <time>2022-03-23T14:00:07Z</time>
      </trkpt>
      <trkpt lat="49.85109" lon="2.13456">
        <ele>120</ele>
        <time>2022-03-23T14:00:09Z</time>
      </trkpt>
      <trkpt lat="49.8511" lon="2.13456">
        <ele>120</ele>
        <time>2022-03-23T14:00:10Z</time>
      </trkpt>
      <trkpt lat="49.85112" lon="2.13457">
        <ele>120</ele>
        <time>2022-03-23T14:00:11Z</time>
      </trkpt>
      <trkpt lat="49.85113" lon="2.13458">
        <ele>120</ele>
        <time>2022-03-23T14:00:12Z</time>
      </trkpt>
      <trkpt lat="49.85114" lon="2.13459">
        <ele>120</ele>
        <time>2022-03-23T14:00:13Z</time>
      </trkpt>
      <trkpt lat="49.85115" lon="2.13461">
        <ele>120</ele>
        <time>2022-03-23T14:00:14Z</time>
      </trkpt>
      <trkpt lat="49.85116" lon="2.13462">
        <ele>120</ele>
        <time>2022-03-23T14:00:15Z</time>
      </trkpt>
      <trkpt lat="49.85119" lon="2.13464">
        <ele>120.1</ele>
        <time>2022-03-23T14:00:16Z</time>
      </trkpt>
      <trkpt lat="49.8512" lon="2.13464">
        <ele>120.1</ele>
        <time>2022-03-23T14:00:18Z</time>
      </trkpt>
      <trkpt lat="49.85121" lon="2.13465">
        <ele>120.1</ele>
        <time>2022-03-23T14:00:19Z</time>
      </trkpt>
      <trkpt lat="49.85122" lon="2.13466">
        <ele>120.1</ele>
        <time>2022-03-23T14:00:20Z</time>
      </trkpt>
      <trkpt lat="49.85123" lon="2.13467">
        <ele>120.1</ele>
        <time>2022-03-23T14:00:21Z</time>
      </trkpt>
      <trkpt lat="49.85124" lon="2.13468">
        <ele>120.1</ele>
        <time>2022-03-23T14:00:22Z</time>
      </trkpt>
      <trkpt lat="49.85125" lon="2.13469">
        <ele>120.1</ele>
        <time>2022-03-23T14:00:23Z</time>
      </trkpt>
      <trkpt lat="49.85127" lon="2.13469">
        <ele>120.1</ele>
        <time>2022-03-23T14:00:24Z</time>
      </trkpt>
      <trkpt lat="49.85128" lon="2.1347">
        <ele>120.1</ele>
        <time>2022-03-23T14:00:25Z</time>
      </trkpt>
      <trkpt lat="49.85129" lon="2.13471">
        <ele>120.1</ele>
        <time>2022-03-23T14:00:26Z</time>
      </trkpt>
      <trkpt lat="49.8513" lon="2.13472">
        <ele>120.1</ele>
        <time>2022-03-23T14:00:27Z</time>
      </trkpt>
      <trkpt lat="49.85132" lon="2.13472">
        <ele>120.1</ele>
        <time>2022-03-23T14:00:29Z</time>
      </trkpt>
      <trkpt lat="49.85133" lon="2.13473">
        <ele>120.1</ele>
        <time>2022-03-23T14:00:30Z</time>
      </trkpt>
      <trkpt lat="49.85134" lon="2.13474">
        <ele>120.1</ele>
        <time>2022-03-23T14:00:31Z</time>
      </trkpt>
      <trkpt lat="49.85136" lon="2.13475">
        <ele>120.1</ele>
        <time>2022-03-23T14:00:32Z</time>
      </trkpt>
      <trkpt lat="49.85137" lon="2.13475">
        <ele>120.1</ele>
        <time>2022-03-23T14:00:33Z</time>
      </trkpt>
      <trkpt lat="49.85138" lon="2.13476">
        <ele>120.2</ele>
        <time>2022-03-23T14:00:34Z</time>
      </trkpt>
      <trkpt lat="49.8514" lon="2.13476">
        <ele>120.2</ele>
        <time>2022-03-23T14:00:35Z</time>
      </trkpt>
      <trkpt lat="49.85142" lon="2.13477">
        <ele>120.2</ele>
        <time>2022-03-23T14:00:37Z</time>
      </trkpt>
      <trkpt lat="49.85143" lon="2.13477">
        <ele>120.2</ele>
        <time>2022-03-23T14:00:38Z</time>
      </trkpt>
      <trkpt lat="49.85145" lon="2.13477">
        <ele>120.2</ele>
        <time>2022-03-23T14:00:39Z</time>
      </trkpt>
      <trkpt lat="49.85146" lon="2.13478">
        <ele>120.2</ele>
        <time>2022-03-23T14:00:40Z</time>
      </trkpt>
      <trkpt lat="49.85147" lon="2.13478">
        <ele>120.2</ele>
        <time>2022-03-23T14:00:41Z</time>
      </trkpt>
      <trkpt lat="49.85149" lon="2.13479">
        <ele>120.2</ele>
        <time>2022-03-23T14:00:42Z</time>
      </trkpt>
      <trkpt lat="49.8515" lon="2.1348">
        <ele>120.3</ele>
        <time>2022-03-23T14:00:43Z</time>
      </trkpt>
      <trkpt lat="49.85152" lon="2.13481">
        <ele>120.3</ele>
        <time>2022-03-23T14:00:44Z</time>
      </trkpt>
      <trkpt lat="49.85154" lon="2.13482">
        <ele>120.3</ele>
        <time>2022-03-23T14:00:45Z</time>
      </trkpt>
      <trkpt lat="49.85154" lon="2.13483">
        <ele>120.3</ele>
        <time>2022-03-23T14:00:46Z</time>
      </trkpt>
      <trkpt lat="49.85155" lon="2.13483">
        <ele>120.3</ele>
        <time>2022-03-23T14:00:47Z</time>
      </trkpt>
      <trkpt lat="49.85157" lon="2.13484">
        <ele>120.3</ele>
        <time>2022-03-23T14:00:49Z</time>
      </trkpt>
      <trkpt lat="49.85158" lon="2.13484">
        <ele>120.3</ele>
        <time>2022-03-23T14:00:50Z</time>
      </trkpt>
      <trkpt lat="49.85159" lon="2.13485">
        <ele>120.3</ele>
        <time>2022-03-23T14:00:51Z</time>
      </trkpt>
      <trkpt lat="49.8516" lon="2.13486">
        <ele>120.3</ele>
        <time>2022-03-23T14:00:52Z</time>
      </trkpt>
      <trkpt lat="49.85161" lon="2.13487">
        <ele>120.3</ele>
        <time>2022-03-23T14:00:53Z</time>
      </trkpt>
      <trkpt lat="49.85163" lon="2.13488">
        <ele>120.4</ele>
        <time>2022-03-23T14:00:54Z</time>
      </trkpt>
      <trkpt lat="49.85164" lon="2.13489">
        <ele>120.4</ele>
        <time>2022-03-23T14:00:55Z</time>
      </trkpt>
      <trkpt lat="49.85164" lon="2.1349">
        <ele>120.4</ele>
        <time>2022-03-23T14:00:56Z</time>
      </trkpt>
      <trkpt lat="49.85165" lon="2.13491">
        <ele>120.4</ele>
        <time>2022-03-23T14:00:57Z</time>
      </trkpt>
      <trkpt lat="49.85166" lon="2.13492">
        <ele>120.4</ele>
        <time>2022-03-23T14:00:58Z</time>
      </trkpt>
      <trkpt lat="49.85168" lon="2.13493">
        <ele>120.4</ele>
        <time>2022-03-23T14:01:00Z</time>
      </trkpt>
      <trkpt lat="49.85169" lon="2.13494">
        <ele>120.4</ele>
        <time>2022-03-23T14:01:01Z</time>
      </trkpt>
      <trkpt lat="49.8517" lon="2.13495">
        <ele>120.4</ele>
        <time>2022-03-23T14:01:02Z</time>
      </trkpt>
      <trkpt lat="49.85171" lon="2.13496">
        <ele>120.4</ele>
        <time>2022-03-23T14:01:03Z</time>
      </trkpt>
      <trkpt lat="49.85171" lon="2.13497">
        <ele>120.4</ele>
        <time>2022-03-23T14:01:04Z</time>
      </trkpt>
      <trkpt lat="49.85172" lon="2.13498">
        <ele>120.4</ele>
        <time>2022-03-23T14:01:05Z</time>
      </trkpt>
      <trkpt lat="49.85173" lon="2.13499">
        <ele>120.4</ele>
        <time>2022-03-23T14:01:06Z</time>
      </trkpt>
      <trkpt lat="49.85174" lon="2.135">
        <ele>120.4</ele>
        <time>2022-03-23T14:01:07Z</time>
      </trkpt>
      <trkpt lat="49.85175" lon="2.13501">
        <ele>120.4</ele>
        <time>2022-03-23T14:01:08Z</time>
      </trkpt>
      <trkpt lat="49.85176" lon="2.13502">
        <ele>120.5</ele>
        <time>2022-03-23T14:01:09Z</time>
      </trkpt>
      <trkpt lat="49.85177" lon="2.13503">
        <ele>120.5</ele>
        <time>2022-03-23T14:01:11Z</time>
      </trkpt>
      <trkpt lat="49.85178" lon="2.13504">
        <ele>120.5</ele>
        <time>2022-03-23T14:01:12Z</time>
      </trkpt>
      <trkpt lat="49.8518" lon="2.13505">
        <ele>120.5</ele>
        <time>2022-03-23T14:01:13Z</time>
      </trkpt>
      <trkpt lat="49.85181" lon="2.13506">
        <ele>120.5</ele>
        <time>2022-03-23T14:01:14Z</time>
      </trkpt>
      <trkpt lat="49.85182" lon="2.13506">
        <ele>120.5</ele>
        <time>2022-03-23T14:01:15Z</time>
      </trkpt>
      <trkpt lat="49.85184" lon="2.13507">
        <ele>120.5</ele>
        <time>2022-03-23T14:01:16Z</time>
      </trkpt>
      <trkpt lat="49.85185" lon="2.13508">
        <ele>120.5</ele>
        <time>2022-03-23T14:01:17Z</time>
      </trkpt>
      <trkpt lat="49.85186" lon="2.13508">
        <ele>120.5</ele>
        <time>2022-03-23T14:01:18Z</time>
      </trkpt>
      <trkpt lat="49.85187" lon="2.13509">
        <ele>120.5</ele>
        <time>2022-03-23T14:01:19Z</time>
      </trkpt>
      <trkpt lat="49.85188" lon="2.1351">
        <ele>120.5</ele>
        <time>2022-03-23T14:01:20Z</time>
      </trkpt>
      <trkpt lat="49.8519" lon="2.13512">
        <ele>120.6</ele>
        <time>2022-03-23T14:01:21Z</time>
      </trkpt>
      <trkpt lat="49.85191" lon="2.13512">
        <ele>120.6</ele>
        <time>2022-03-23T14:01:23Z</time>
      </trkpt>
      <trkpt lat="49.85192" lon="2.13513">
        <ele>120.6</ele>
        <time>2022-03-23T14:01:24Z</time>
      </trkpt>
      <trkpt lat="49.85194" lon="2.13513">
        <ele>120.6</ele>
        <time>2022-03-23T14:01:25Z</time>
      </trkpt>
      <trkpt lat="49.85194" lon="2.13514">
        <ele>120.6</ele>
        <time>2022-03-23T14:01:26Z</time>
      </trkpt>
      <trkpt lat="49.85195" lon="2.13514">
        <ele>120.6</ele>
        <time>2022-03-23T14:01:27Z</time>
      </trkpt>
      <trkpt lat="49.85197" lon="2.13515">
        <ele>120.6</ele>
        <time>2022-03-23T14:01:28Z</time>
      </trkpt>
      <trkpt lat="49.85198" lon="2.13515">
        <ele>120.6</ele>
        <time>2022-03-23T14:01:29Z</time>
      </trkpt>
      <trkpt lat="49.85199" lon="2.13516">
        <ele>120.6</ele>
        <time>2022-03-23T14:01:30Z</time>
      </trkpt>
      <trkpt lat="49.85201" lon="2.13517">
        <ele>120.7</ele>
        <time>2022-03-23T14:01:31Z</time>
      </trkpt>
      <trkpt lat="49.85202" lon="2.13517">
        <ele>120.7</ele>
        <time>2022-03-23T14:01:32Z</time>
      </trkpt>
      <trkpt lat="49.85203" lon="2.13518">
        <ele>120.7</ele>
        <time>2022-03-23T14:01:33Z</time>
      </trkpt>
      <trkpt lat="49.85205" lon="2.13519">
        <ele>120.7</ele>
        <time>2022-03-23T14:01:35Z</time>
      </trkpt>
      <trkpt lat="49.85206" lon="2.1352">
        <ele>120.7</ele>
        <time>2022-03-23T14:01:36Z</time>
      </trkpt>
      <trkpt lat="49.85208" lon="2.13521">
        <ele>120.7</ele>
        <time>2022-03-23T14:01:37Z</time>
      </trkpt>
      <trkpt lat="49.85209" lon="2.13521">
        <ele>120.7</ele>
        <time>2022-03-23T14:01:38Z</time>
      </trkpt>
      <trkpt lat="49.8521" lon="2.13522">
        <ele>120.7</ele>
        <time>2022-03-23T14:01:39Z</time>
      </trkpt>
      <trkpt lat="49.85211" lon="2.13522">
        <ele>120.7</ele>
        <time>2022-03-23T14:01:40Z</time>
      </trkpt>
      <trkpt lat="49.85213" lon="2.13523">
        <ele>120.7</ele>
        <time>2022-03-23T14:01:41Z</time>
      </trkpt>
      <trkpt lat="49.85214" lon="2.13524">
        <ele>120.7</ele>
        <time>2022-03-23T14:01:43Z</time>
      </trkpt>
      <trkpt lat="49.85215" lon="2.13524">
        <ele>120.7</ele>
        <time>2022-03-23T14:01:44Z</time>
      </trkpt>
      <trkpt lat="49.85216" lon="2.13524">
        <ele>120.7</ele>
        <time>2022-03-23T14:01:45Z</time>
      </trkpt>
      <trkpt lat="49.85217" lon="2.13524">
        <ele>120.7</ele>
        <time>2022-03-23T14:01:46Z</time>
      </trkpt>
      <trkpt lat="49.85218" lon="2.13525">
        <ele>120.8</ele>
        <time>2022-03-23T14:01:47Z</time>
      </trkpt>
      <trkpt lat="49.85219" lon="2.13525">
        <ele>120.8</ele>
        <time>2022-03-23T14:01:48Z</time>
      </trkpt>
      <trkpt lat="49.8522" lon="2.13525">
        <ele>120.8</ele>
        <time>2022-03-23T14:01:49Z</time>
      </trkpt>
      <trkpt lat="49.85222" lon="2.13526">
        <ele>120.8</ele>
        <time>2022-03-23T14:01:50Z</time>
      </trkpt>
      <trkpt lat="49.85223" lon="2.13526">
        <ele>120.8</ele>
        <time>2022-03-23T14:01:52Z</time>
      </trkpt>
      <trkpt lat="49.85225" lon="2.13527">
        <ele>120.8</ele>
        <time>2022-03-23T14:01:53Z</time>
      </trkpt>
      <trkpt lat="49.85226" lon="2.13527">
        <ele>120.8</ele>
        <time>2022-03-23T14:01:54Z</time>
      </trkpt>
      <trkpt lat="49.85227" lon="2.13527">
        <ele>120.8</ele>
        <time>2022-03-23T14:01:55Z</time>
      </trkpt>
      <trkpt lat="49.85229" lon="2.13528">
        <ele>120.8</ele>
        <time>2022-03-23T14:01:56Z</time>
      </trkpt>
      <trkpt lat="49.8523" lon="2.13529">
        <ele>120.8</ele>
        <time>2022-03-23T14:01:57Z</time>
      </trkpt>
      <trkpt lat="49.8523" lon="2.13529">
        <ele>120.8</ele>
        <time>2022-03-23T14:01:58Z</time>
      </trkpt>
      <trkpt lat="49.85232" lon="2.1353">
        <ele>120.8</ele>
        <time>2022-03-23T14:01:59Z</time>
      </trkpt>
      <trkpt lat="49.85233" lon="2.1353">
        <ele>120.8</ele>
        <time>2022-03-23T14:02:00Z</time>
      </trkpt>
      <trkpt lat="49.85234" lon="2.13531">
        <ele>120.8</ele>
        <time>2022-03-23T14:02:02Z</time>
      </trkpt>
      <trkpt lat="49.85236" lon="2.13531">
        <ele>120.8</ele>
        <time>2022-03-23T14:02:03Z</time>
      </trkpt>
      <trkpt lat="49.85236" lon="2.13532">
        <ele>120.8</ele>
        <time>2022-03-23T14:02:04Z</time>
      </trkpt>
      <trkpt lat="49.85237" lon="2.13533">
        <ele>120.9</ele>
        <time>2022-03-23T14:02:05Z</time>
      </trkpt>
      <trkpt lat="49.85239" lon="2.13534">
        <ele>120.9</ele>
        <time>2022-03-23T14:02:06Z</time>
      </trkpt>
      <trkpt lat="49.8524" lon="2.13534">
        <ele>120.9</ele>
        <time>2022-03-23T14:02:07Z</time>
      </trkpt>
      <trkpt lat="49.85241" lon="2.13535">
        <ele>120.9</ele>
        <time>2022-03-23T14:02:08Z</time>
      </trkpt>
      <trkpt lat="49.85243" lon="2.13536">
        <ele>120.9</ele>
        <time>2022-03-23T14:02:09Z</time>
      </trkpt>
      <trkpt lat="49.85244" lon="2.13536">
        <ele>120.9</ele>
        <time>2022-03-23T14:02:10Z</time>
      </trkpt>
      <trkpt lat="49.85245" lon="2.13537">
        <ele>120.9</ele>
        <time>2022-03-23T14:02:11Z</time>
      </trkpt>
      <trkpt lat="49.85246" lon="2.13538">
        <ele>120.9</ele>
        <time>2022-03-23T14:02:13Z</time>
      </trkpt>
      <trkpt lat="49.85247" lon="2.13539">
        <ele>120.9</ele>
        <time>2022-03-23T14:02:14Z</time>
      </trkpt>
      <trkpt lat="49.85248" lon="2.13539">
        <ele>120.9</ele>
        <time>2022-03-23T14:02:15Z</time>
      </trkpt>
      <trkpt lat="49.85249" lon="2.1354">
        <ele>121</ele>
        <time>2022-03-23T14:02:16Z</time>
      </trkpt>
      <trkpt lat="49.8525" lon="2.13541">
        <ele>121</ele>
        <time>2022-03-23T14:02:17Z</time>
      </trkpt>
      <trkpt lat="49.85252" lon="2.13542">
        <ele>121</ele>
        <time>2022-03-23T14:02:18Z</time>
      </trkpt>
      <trkpt lat="49.85253" lon="2.13543">
        <ele>121</ele>
        <time>2022-03-23T14:02:19Z</time>
      </trkpt>
      <trkpt lat="49.85253" lon="2.13543">
        <ele>121</ele>
        <time>2022-03-23T14:02:20Z</time>
      </trkpt>
      <trkpt lat="49.85255" lon="2.13544">
        <ele>121</ele>
        <time>2022-03-23T14:02:21Z</time>
      </trkpt>
      <trkpt lat="49.85256" lon="2.13545">
        <ele>121</ele>
        <time>2022-03-23T14:02:22Z</time>
      </trkpt>
      <trkpt lat="49.85257" lon="2.13546">
        <ele>121</ele>
        <time>2022-03-23T14:02:23Z</time>
      </trkpt>
      <trkpt lat="49.85258" lon="2.13546">
        <ele>121</ele>
        <time>2022-03-23T14:02:24Z</time>
      </trkpt>
      <trkpt lat="49.8526" lon="2.13547">
        <ele>121</ele>
        <time>2022-03-23T14:02:26Z</time>
      </trkpt>
      <trkpt lat="49.85262" lon="2.13548">
        <ele>121.1</ele>
        <time>2022-03-23T14:02:27Z</time>
      </trkpt>
      <trkpt lat="49.85263" lon="2.13549">
        <ele>121.1</ele>
        <time>2022-03-23T14:02:28Z</time>
      </trkpt>
      <trkpt lat="49.85264" lon="2.13549">
        <ele>121.1</ele>
        <time>2022-03-23T14:02:29Z</time>
      </trkpt>
      <trkpt lat="49.85266" lon="2.1355">
        <ele>121.1</ele>
        <time>2022-03-23T14:02:30Z</time>
      </trkpt>
      <trkpt lat="49.85267" lon="2.1355">
        <ele>121.1</ele>
        <time>2022-03-23T14:02:31Z</time>
      </trkpt>
      <trkpt lat="49.85268" lon="2.1355">
        <ele>121.1</ele>
        <time>2022-03-23T14:02:32Z</time>
      </trkpt>
      <trkpt lat="49.85269" lon="2.13551">
        <ele>121.1</ele>
        <time>2022-03-23T14:02:33Z</time>
      </trkpt>
      <trkpt lat="49.85271" lon="2.13551">
        <ele>121.1</ele>
        <time>2022-03-23T14:02:34Z</time>
      </trkpt>
      <trkpt lat="49.85272" lon="2.13552">
        <ele>121.1</ele>
        <time>2022-03-23T14:02:35Z</time>
      </trkpt>
      <trkpt lat="49.85274" lon="2.13552">
        <ele>121.1</ele>
        <time>2022-03-23T14:02:36Z</time>
      </trkpt>
      <trkpt lat="49.85275" lon="2.13553">
        <ele>121.1</ele>
        <time>2022-03-23T14:02:37Z</time>
      </trkpt>
      <trkpt lat="49.85276" lon="2.13553">
        <ele>121.1</ele>
        <time>2022-03-23T14:02:38Z</time>
      </trkpt>
      <trkpt lat="49.85278" lon="2.13554">
        <ele>121.1</ele>
        <time>2022-03-23T14:02:40Z</time>
      </trkpt>
      <trkpt lat="49.85279" lon="2.13555">
        <ele>121.1</ele>
        <time>2022-03-23T14:02:41Z</time>
      </trkpt>
      <trkpt lat="49.8528" lon="2.13556">
        <ele>121.1</ele>
        <time>2022-03-23T14:02:42Z</time>
      </trkpt>
      <trkpt lat="49.85281" lon="2.13556">
        <ele>121.1</ele>
        <time>2022-03-23T14:02:43Z</time>
      </trkpt>
      <trkpt lat="49.85282" lon="2.13556">
        <ele>121.1</ele>
        <time>2022-03-23T14:02:44Z</time>
      </trkpt>
      <trkpt lat="49.85284" lon="2.13557">
        <ele>121.1</ele>
        <time>2022-03-23T14:02:45Z</time>
      </trkpt>
      <trkpt lat="49.85285" lon="2.13557">
        <ele>121.1</ele>
        <time>2022-03-23T14:02:46Z</time>
      </trkpt>
      <trkpt lat="49.85287" lon="2.13558">
        <ele>121.1</ele>
        <time>2022-03-23T14:02:47Z</time>
      </trkpt>
      <trkpt lat="49.85288" lon="2.13558">
        <ele>121.2</ele>
        <time>2022-03-23T14:02:49Z</time>
      </trkpt>
      <trkpt lat="49.85289" lon="2.13558">
        <ele>121.2</ele>
        <time>2022-03-23T14:02:50Z</time>
      </trkpt>
      <trkpt lat="49.8529" lon="2.13559">
        <ele>121.2</ele>
        <time>2022-03-23T14:02:51Z</time>
      </trkpt>
      <trkpt lat="49.85291" lon="2.13559">
        <ele>121.2</ele>
        <time>2022-03-23T14:02:52Z</time>
      </trkpt>
      <trkpt lat="49.85293" lon="2.13559">
        <ele>121.2</ele>
        <time>2022-03-23T14:02:53Z</time>
      </trkpt>
      <trkpt lat="49.85294" lon="2.13559">
        <ele>121.2</ele>
        <time>2022-03-23T14:02:54Z</time>
      </trkpt>
      <trkpt lat="49.85295" lon="2.13559">
        <ele>121.2</ele>
        <time>2022-03-23T14:02:55Z</time>
      </trkpt>
      <trkpt lat="49.85297" lon="2.13559">
        <ele>121.2</ele>
        <time>2022-03-23T14:02:56Z</time>
      </trkpt>
      <trkpt lat="49.85298" lon="2.13558">
        <ele>121.2</ele>
        <time>2022-03-23T14:02:57Z</time>
      </trkpt>
      <trkpt lat="49.85299" lon="2.13558">
        <ele>121.2</ele>
        <time>2022-03-23T14:02:59Z</time>
      </trkpt>
      <trkpt lat="49.853" lon="2.13558">
        <ele>121.2</ele>
        <time>2022-03-23T14:03:00Z</time>
      </trkpt>
      <trkpt lat="49.85301" lon="2.13557">
        <ele>121.2</ele>
        <time>2022-03-23T14:03:01Z</time>
      </trkpt>
      <trkpt lat="49.85302" lon="2.13557">
        <ele>121.2</ele>
        <time>2022-03-23T14:03:02Z</time>
      </trkpt>
      <trkpt lat="49.85303" lon="2.13555">
        <ele>121.2</ele>
        <time>2022-03-23T14:03:03Z</time>
      </trkpt>
      <trkpt lat="49.85304" lon="2.13554">
        <ele>121.2</ele>
        <time>2022-03-23T14:03:04Z</time>
      </trkpt>
      <trkpt lat="49.85305" lon="2.13552">
        <ele>121.2</ele>
        <time>2022-03-23T14:03:05Z</time>
      </trkpt>
      <trkpt lat="49.85306" lon="2.1355">
        <ele>121.2</ele>
        <time>2022-03-23T14:03:06Z</time>
      </trkpt>
      <trkpt lat="49.85307" lon="2.13547">
        <ele>121.2</ele>
        <time>2022-03-23T14:03:07Z</time>
      </trkpt>
      <trkpt lat="49.85308" lon="2.13546">
        <ele>121.2</ele>
        <time>2022-03-23T14:03:09Z</time>
      </trkpt>
      <trkpt lat="49.85309" lon="2.13545">
        <ele>121.2</ele>
        <time>2022-03-23T14:03:10Z</time>
      </trkpt>
      <trkpt lat="49.85309" lon="2.13542">
        <ele>121.2</ele>
        <time>2022-03-23T14:03:11Z</time>
      </trkpt>
      <trkpt lat="49.8531" lon="2.13541">
        <ele>121.2</ele>
        <time>2022-03-23T14:03:12Z</time>
      </trkpt>
      <trkpt lat="49.8531" lon="2.1354">
        <ele>121.2</ele>
        <time>2022-03-23T14:03:13Z</time>
      </trkpt>
      <trkpt lat="49.8531" lon="2.13536">
        <ele>121.2</ele>
        <time>2022-03-23T14:03:14Z</time>
      </trkpt>
      <trkpt lat="49.8531" lon="2.13535">
        <ele>121.2</ele>
        <time>2022-03-23T14:03:15Z</time>
      </trkpt>
      <trkpt lat="49.8531" lon="2.13534">
        <ele>121.2</ele>
        <time>2022-03-23T14:03:16Z</time>
      </trkpt>
      <trkpt lat="49.85311" lon="2.1353">
        <ele>121.2</ele>
        <time>2022-03-23T14:03:17Z</time>
      </trkpt>
      <trkpt lat="49.85311" lon="2.13528">
        <ele>121.2</ele>
        <time>2022-03-23T14:03:19Z</time>
      </trkpt>
      <trkpt lat="49.85311" lon="2.13527">
        <ele>121.2</ele>
        <time>2022-03-23T14:03:20Z</time>
      </trkpt>
      <trkpt lat="49.85311" lon="2.13525">
        <ele>121.2</ele>
        <time>2022-03-23T14:03:21Z</time>
      </trkpt>
      <trkpt lat="49.85311" lon="2.13524">
        <ele>121.2</ele>
        <time>2022-03-23T14:03:22Z</time>
      </trkpt>
      <trkpt lat="49.85312" lon="2.13522">
        <ele>121.2</ele>
        <time>2022-03-23T14:03:23Z</time>
      </trkpt>
      <trkpt lat="49.85312" lon="2.13519">
        <ele>121.2</ele>
        <time>2022-03-23T14:03:24Z</time>
      </trkpt>
      <trkpt lat="49.85312" lon="2.13517">
        <ele>121.2</ele>
        <time>2022-03-23T14:03:25Z</time>
      </trkpt>
      <trkpt lat="49.85313" lon="2.13515">
        <ele>121.3</ele>
        <time>2022-03-23T14:03:26Z</time>
      </trkpt>
      <trkpt lat="49.85313" lon="2.13513">
        <ele>121.3</ele>
        <time>2022-03-23T14:03:27Z</time>
      </trkpt>
      <trkpt lat="49.85313" lon="2.13511">
        <ele>121.3</ele>
        <time>2022-03-23T14:03:28Z</time>
      </trkpt>
      <trkpt lat="49.85313" lon="2.13509">
        <ele>121.3</ele>
        <time>2022-03-23T14:03:30Z</time>
      </trkpt>
      <trkpt lat="49.85314" lon="2.13506">
        <ele>121.3</ele>
        <time>2022-03-23T14:03:31Z</time>
      </trkpt>
      <trkpt lat="49.85314" lon="2.13505">
        <ele>121.3</ele>
        <time>2022-03-23T14:03:32Z</time>
      </trkpt>
      <trkpt lat="49.85315" lon="2.13504">
        <ele>121.3</ele>
        <time>2022-03-23T14:03:33Z</time>
      </trkpt>
      <trkpt lat="49.85315" lon="2.13501">
        <ele>121.3</ele>
        <time>2022-03-23T14:03:34Z</time>
      </trkpt>
      <trkpt lat="49.85316" lon="2.135">
        <ele>121.3</ele>
        <time>2022-03-23T14:03:35Z</time>
      </trkpt>
      <trkpt lat="49.85316" lon="2.13499">
        <ele>121.3</ele>
        <time>2022-03-23T14:03:36Z</time>
      </trkpt>
      <trkpt lat="49.85317" lon="2.13495">
        <ele>121.3</ele>
        <time>2022-03-23T14:03:37Z</time>
      </trkpt>
      <trkpt lat="49.85317" lon="2.13494">
        <ele>121.3</ele>
        <time>2022-03-23T14:03:38Z</time>
      </trkpt>
      <trkpt lat="49.85317" lon="2.13493">
        <ele>121.3</ele>
        <time>2022-03-23T14:03:39Z</time>
      </trkpt>
      <trkpt lat="49.85318" lon="2.1349">
        <ele>121.3</ele>
        <time>2022-03-23T14:03:40Z</time>
      </trkpt>
      <trkpt lat="49.85318" lon="2.13489">
        <ele>121.4</ele>
        <time>2022-03-23T14:03:42Z</time>
      </trkpt>
      <trkpt lat="49.85319" lon="2.13488">
        <ele>121.4</ele>
        <time>2022-03-23T14:03:43Z</time>
      </trkpt>
      <trkpt lat="49.85319" lon="2.13486">
        <ele>121.4</ele>
        <time>2022-03-23T14:03:44Z</time>
      </trkpt>
      <trkpt lat="49.8532" lon="2.13485">
        <ele>121.4</ele>
        <time>2022-03-23T14:03:45Z</time>
      </trkpt>
      <trkpt lat="49.8532" lon="2.13483">
        <ele>121.4</ele>
        <time>2022-03-23T14:03:46Z</time>
      </trkpt>
      <trkpt lat="49.85321" lon="2.13481">
        <ele>121.4</ele>
        <time>2022-03-23T14:03:47Z</time>
      </trkpt>
      <trkpt lat="49.85322" lon="2.13479">
        <ele>121.4</ele>
        <time>2022-03-23T14:03:48Z</time>
      </trkpt>
      <trkpt lat="49.85322" lon="2.13478">
        <ele>121.4</ele>
        <time>2022-03-23T14:03:49Z</time>
      </trkpt>
      <trkpt lat="49.85323" lon="2.13476">
        <ele>121.4</ele>
        <time>2022-03-23T14:03:50Z</time>
      </trkpt>
      <trkpt lat="49.85324" lon="2.13475">
        <ele>121.4</ele>
        <time>2022-03-23T14:03:51Z</time>
      </trkpt>
      <trkpt lat="49.85325" lon="2.13474">
        <ele>121.4</ele>
        <time>2022-03-23T14:03:52Z</time>
      </trkpt>
      <trkpt lat="49.85325" lon="2.13472">
        <ele>121.5</ele>
        <time>2022-03-23T14:03:53Z</time>
      </trkpt>
      <trkpt lat="49.85326" lon="2.13471">
        <ele>121.5</ele>
        <time>2022-03-23T14:03:55Z</time>
      </trkpt>
      <trkpt lat="49.85327" lon="2.1347">
        <ele>121.5</ele>
        <time>2022-03-23T14:03:56Z</time>
      </trkpt>
      <trkpt lat="49.85328" lon="2.13467">
        <ele>121.5</ele>
        <time>2022-03-23T14:03:57Z</time>
      </trkpt>
      <trkpt lat="49.85329" lon="2.13467">
        <ele>121.5</ele>
        <time>2022-03-23T14:03:58Z</time>
      </trkpt>
      <trkpt lat="49.85329" lon="2.13466">
        <ele>121.5</ele>
        <time>2022-03-23T14:03:59Z</time>
      </trkpt>
      <trkpt lat="49.85331" lon="2.13463">
        <ele>121.5</ele>
        <time>2022-03-23T14:04:00Z</time>
      </trkpt>
      <trkpt lat="49.85332" lon="2.13463">
        <ele>121.5</ele>
        <time>2022-03-23T14:04:01Z</time>
      </trkpt>
      <trkpt lat="49.85332" lon="2.13462">
        <ele>121.5</ele>
        <time>2022-03-23T14:04:02Z</time>
      </trkpt>
      <trkpt lat="49.85334" lon="2.13459">
        <ele>121.5</ele>
        <time>2022-03-23T14:04:03Z</time>
      </trkpt>
      <trkpt lat="49.85334" lon="2.13458">
        <ele>121.5</ele>
        <time>2022-03-23T14:04:04Z</time>
      </trkpt>
      <trkpt lat="49.85335" lon="2.13457">
        <ele>121.5</ele>
        <time>2022-03-23T14:04:05Z</time>
      </trkpt>
      <trkpt lat="49.85335" lon="2.13455">
        <ele>121.5</ele>
        <time>2022-03-23T14:04:06Z</time>
      </trkpt>
      <trkpt lat="49.85336" lon="2.13454">
        <ele>121.5</ele>
        <time>2022-03-23T14:04:07Z</time>
      </trkpt>
      <trkpt lat="49.85337" lon="2.13452">
        <ele>121.5</ele>
        <time>2022-03-23T14:04:09Z</time>
      </trkpt>
      <trkpt lat="49.85337" lon="2.13449">
        <ele>121.5</ele>
        <time>2022-03-23T14:04:10Z</time>
      </trkpt>
      <trkpt lat="49.85338" lon="2.13448">
        <ele>121.5</ele>
        <time>2022-03-23T14:04:11Z</time>
      </trkpt>
      <trkpt lat="49.85338" lon="2.13444">
        <ele>121.5</ele>
        <time>2022-03-23T14:04:12Z</time>
      </trkpt>
      <trkpt lat="49.85338" lon="2.13443">
        <ele>121.5</ele>
        <time>2022-03-23T14:04:13Z</time>
      </trkpt>
      <trkpt lat="49.85339" lon="2.13442">
        <ele>121.5</ele>
        <time>2022-03-23T14:04:14Z</time>
      </trkpt>
      <trkpt lat="49.85339" lon="2.1344">
        <ele>121.5</ele>
        <time>2022-03-23T14:04:15Z</time>
      </trkpt>
      <trkpt lat="49.85339" lon="2.13437">
        <ele>121.5</ele>
        <time>2022-03-23T14:04:16Z</time>
      </trkpt>
      <trkpt lat="49.8534" lon="2.13434">
        <ele>121.5</ele>
        <time>2022-03-23T14:04:17Z</time>
      </trkpt>
      <trkpt lat="49.8534" lon="2.13433">
        <ele>121.5</ele>
        <time>2022-03-23T14:04:18Z</time>
      </trkpt>
      <trkpt lat="49.8534" lon="2.13432">
        <ele>121.5</ele>
        <time>2022-03-23T14:04:19Z</time>
      </trkpt>
      <trkpt lat="49.85341" lon="2.13428">
        <ele>121.5</ele>
        <time>2022-03-23T14:04:21Z</time>
      </trkpt>
      <trkpt lat="49.85341" lon="2.13427">
        <ele>121.5</ele>
        <time>2022-03-23T14:04:22Z</time>
      </trkpt>
      <trkpt lat="49.85342" lon="2.13426">
        <ele>121.5</ele>
        <time>2022-03-23T14:04:23Z</time>
      </trkpt>
      <trkpt lat="49.85342" lon="2.13424">
        <ele>121.5</ele>
        <time>2022-03-23T14:04:24Z</time>
      </trkpt>
      <trkpt lat="49.85343" lon="2.13423">
        <ele>121.5</ele>
        <time>2022-03-23T14:04:25Z</time>
      </trkpt>
      <trkpt lat="49.85343" lon="2.13421">
        <ele>121.5</ele>
        <time>2022-03-23T14:04:26Z</time>
      </trkpt>
      <trkpt lat="49.85344" lon="2.13418">
        <ele>121.5</ele>
        <time>2022-03-23T14:04:27Z</time>
      </trkpt>
      <trkpt lat="49.85344" lon="2.13417">
        <ele>121.5</ele>
        <time>2022-03-23T14:04:28Z</time>
      </trkpt>
      <trkpt lat="49.85345" lon="2.13415">
        <ele>121.5</ele>
        <time>2022-03-23T14:04:29Z</time>
      </trkpt>
      <trkpt lat="49.85346" lon="2.13411">
        <ele>121.5</ele>
        <time>2022-03-23T14:04:30Z</time>
      </trkpt>
      <trkpt lat="49.85346" lon="2.1341">
        <ele>121.5</ele>
        <time>2022-03-23T14:04:32Z</time>
      </trkpt>
      <trkpt lat="49.85346" lon="2.13408">
        <ele>121.5</ele>
        <time>2022-03-23T14:04:33Z</time>
      </trkpt>
      <trkpt lat="49.85347" lon="2.13406">
        <ele>121.5</ele>
        <time>2022-03-23T14:04:34Z</time>
      </trkpt>
      <trkpt lat="49.85347" lon="2.13404">
        <ele>121.5</ele>
        <time>2022-03-23T14:04:35Z</time>
      </trkpt>
      <trkpt lat="49.85348" lon="2.13402">
        <ele>121.5</ele>
        <time>2022-03-23T14:04:36Z</time>
      </trkpt>
      <trkpt lat="49.85348" lon="2.134">
        <ele>121.5</ele>
        <time>2022-03-23T14:04:37Z</time>
      </trkpt>
      <trkpt lat="49.85349" lon="2.13397">
        <ele>121.5</ele>
        <time>2022-03-23T14:04:38Z</time>
      </trkpt>
      <trkpt lat="49.85349" lon="2.13396">
        <ele>121.5</ele>
        <time>2022-03-23T14:04:39Z</time>
      </trkpt>
      <trkpt lat="49.8535" lon="2.13395">
        <ele>121.5</ele>
        <time>2022-03-23T14:04:40Z</time>
      </trkpt>
      <trkpt lat="49.85351" lon="2.13392">
        <ele>121.5</ele>
        <time>2022-03-23T14:04:42Z</time>
      </trkpt>
      <trkpt lat="49.85351" lon="2.13391">
        <ele>121.5</ele>
        <time>2022-03-23T14:04:43Z</time>
      </trkpt>
      <trkpt lat="49.85352" lon="2.1339">
        <ele>121.5</ele>
        <time>2022-03-23T14:04:44Z</time>
      </trkpt>
      <trkpt lat="49.85353" lon="2.13388">
        <ele>121.5</ele>
        <time>2022-03-23T14:04:45Z</time>
      </trkpt>
      <trkpt lat="49.85354" lon="2.13386">
        <ele>121.5</ele>
        <time>2022-03-23T14:04:46Z</time>
      </trkpt>
      <trkpt lat="49.85354" lon="2.13385">
        <ele>121.5</ele>
        <time>2022-03-23T14:04:47Z</time>
      </trkpt>
      <trkpt lat="49.85355" lon="2.13383">
        <ele>121.5</ele>
        <time>2022-03-23T14:04:48Z</time>
      </trkpt>
      <trkpt lat="49.85355" lon="2.13381">
        <ele>121.5</ele>
        <time>2022-03-23T14:04:49Z</time>
      </trkpt>
      <trkpt lat="49.85355" lon="2.13379">
        <ele>121.5</ele>
        <time>2022-03-23T14:04:51Z</time>
      </trkpt>
      <trkpt lat="49.85356" lon="2.13376">
        <ele>121.5</ele>
        <time>2022-03-23T14:04:52Z</time>
      </trkpt>
      <trkpt lat="49.85356" lon="2.13375">
        <ele>121.5</ele>
        <time>2022-03-23T14:04:53Z</time>
      </trkpt>
      <trkpt lat="49.85357" lon="2.13374">
        <ele>121.5</ele>
        <time>2022-03-23T14:04:54Z</time>
      </trkpt>
      <trkpt lat="49.85357" lon="2.13372">
        <ele>121.5</ele>
        <time>2022-03-23T14:04:55Z</time>
      </trkpt>
      <trkpt lat="49.85358" lon="2.1337">
        <ele>121.5</ele>
        <time>2022-03-23T14:04:56Z</time>
      </trkpt>
      <trkpt lat="49.85359" lon="2.13368">
        <ele>121.5</ele>
        <time>2022-03-23T14:04:58Z</time>
      </trkpt>
      <trkpt lat="49.85359" lon="2.13366">
        <ele>121.5</ele>
        <time>2022-03-23T14:04:59Z</time>
      </trkpt>
      <trkpt lat="49.8536" lon="2.13362">
        <ele>121.5</ele>
        <time>2022-03-23T14:05:00Z</time>
      </trkpt>
      <trkpt lat="49.8536" lon="2.13361">
        <ele>121.5</ele>
        <time>2022-03-23T14:05:01Z</time>
      </trkpt>
      <trkpt lat="49.8536" lon="2.1336">
        <ele>121.5</ele>
        <time>2022-03-23T14:05:02Z</time>
      </trkpt>
      <trkpt lat="49.85361" lon="2.13357">
        <ele>121.5</ele>
        <time>2022-03-23T14:05:03Z</time>
      </trkpt>
      <trkpt lat="49.85361" lon="2.13355">
        <ele>121.5</ele>
        <time>2022-03-23T14:05:04Z</time>
      </trkpt>
      <trkpt lat="49.85361" lon="2.13354">
        <ele>121.5</ele>
        <time>2022-03-23T14:05:05Z</time>
      </trkpt>
      <trkpt lat="49.85362" lon="2.13351">
        <ele>121.5</ele>
        <time>2022-03-23T14:05:06Z</time>
      </trkpt>
      <trkpt lat="49.85362" lon="2.13349">
        <ele>121.5</ele>
        <time>2022-03-23T14:05:07Z</time>
      </trkpt>
      <trkpt lat="49.85362" lon="2.13348">
        <ele>121.5</ele>
        <time>2022-03-23T14:05:08Z</time>
      </trkpt>
      <trkpt lat="49.85363" lon="2.13346">
        <ele>121.5</ele>
        <time>2022-03-23T14:05:09Z</time>
      </trkpt>
      <trkpt lat="49.85363" lon="2.13344">
        <ele>121.5</ele>
        <time>2022-03-23T14:05:11Z</time>
      </trkpt>
      <trkpt lat="49.85364" lon="2.13342">
        <ele>121.5</ele>
        <time>2022-03-23T14:05:12Z</time>
      </trkpt>
      <trkpt lat="49.85364" lon="2.1334">
        <ele>121.5</ele>
        <time>2022-03-23T14:05:13Z</time>
      </trkpt>
      <trkpt lat="49.85365" lon="2.13337">
        <ele>121.4</ele>
        <time>2022-03-23T14:05:14Z</time>
      </trkpt>
      <trkpt lat="49.85365" lon="2.13336">
        <ele>121.4</ele>
        <time>2022-03-23T14:05:15Z</time>
      </trkpt>
      <trkpt lat="49.85365" lon="2.13334">
        <ele>121.4</ele>
        <time>2022-03-23T14:05:16Z</time>
      </trkpt>
      <trkpt lat="49.85366" lon="2.13332">
        <ele>121.4</ele>
        <time>2022-03-23T14:05:17Z</time>
      </trkpt>
      <trkpt lat="49.85366" lon="2.1333">
        <ele>121.4</ele>
        <time>2022-03-23T14:05:18Z</time>
      </trkpt>
      <trkpt lat="49.85367" lon="2.13328">
        <ele>121.4</ele>
        <time>2022-03-23T14:05:19Z</time>
      </trkpt>
      <trkpt lat="49.85367" lon="2.13326">
        <ele>121.4</ele>
        <time>2022-03-23T14:05:20Z</time>
      </trkpt>
      <trkpt lat="49.85367" lon="2.13324">
        <ele>121.5</ele>
        <time>2022-03-23T14:05:21Z</time>
      </trkpt>
      <trkpt lat="49.85368" lon="2.13322">
        <ele>121.5</ele>
        <time>2022-03-23T14:05:22Z</time>
      </trkpt>
      <trkpt lat="49.85368" lon="2.1332">
        <ele>121.5</ele>
        <time>2022-03-23T14:05:24Z</time>
      </trkpt>
      <trkpt lat="49.85369" lon="2.13317">
        <ele>121.5</ele>
        <time>2022-03-23T14:05:25Z</time>
      </trkpt>
      <trkpt lat="49.85369" lon="2.13316">
        <ele>121.5</ele>
        <time>2022-03-23T14:05:26Z</time>
      </trkpt>
      <trkpt lat="49.8537" lon="2.13315">
        <ele>121.5</ele>
        <time>2022-03-23T14:05:27Z</time>
      </trkpt>
      <trkpt lat="49.85371" lon="2.13312">
        <ele>121.5</ele>
        <time>2022-03-23T14:05:28Z</time>
      </trkpt>
      <trkpt lat="49.85371" lon="2.13311">
        <ele>121.5</ele>
        <time>2022-03-23T14:05:29Z</time>
      </trkpt>
      <trkpt lat="49.85371" lon="2.13309">
        <ele>121.5</ele>
        <time>2022-03-23T14:05:30Z</time>
      </trkpt>
      <trkpt lat="49.85372" lon="2.13307">
        <ele>121.5</ele>
        <time>2022-03-23T14:05:31Z</time>
      </trkpt>
      <trkpt lat="49.85372" lon="2.13306">
        <ele>121.5</ele>
        <time>2022-03-23T14:05:32Z</time>
      </trkpt>
      <trkpt lat="49.85373" lon="2.13303">
        <ele>121.5</ele>
        <time>2022-03-23T14:05:33Z</time>
      </trkpt>
      <trkpt lat="49.85374" lon="2.13302">
        <ele>121.5</ele>
        <time>2022-03-23T14:05:34Z</time>
      </trkpt>
      <trkpt lat="49.85374" lon="2.133">
        <ele>121.5</ele>
        <time>2022-03-23T14:05:35Z</time>
      </trkpt>
      <trkpt lat="49.85375" lon="2.13298">
        <ele>121.5</ele>
        <time>2022-03-23T14:05:37Z</time>
      </trkpt>
      <trkpt lat="49.85376" lon="2.13297">
        <ele>121.5</ele>
        <time>2022-03-23T14:05:38Z</time>
      </trkpt>
      <trkpt lat="49.85376" lon="2.13296">
        <ele>121.5</ele>
        <time>2022-03-23T14:05:39Z</time>
      </trkpt>
      <trkpt lat="49.85377" lon="2.13294">
        <ele>121.5</ele>
        <time>2022-03-23T14:05:40Z</time>
      </trkpt>
      <trkpt lat="49.85378" lon="2.13293">
        <ele>121.5</ele>
        <time>2022-03-23T14:05:41Z</time>
      </trkpt>
      <trkpt lat="49.85379" lon="2.13292">
        <ele>121.5</ele>
        <time>2022-03-23T14:05:42Z</time>
      </trkpt>
      <trkpt lat="49.85379" lon="2.13291">
        <ele>121.5</ele>
        <time>2022-03-23T14:05:43Z</time>
      </trkpt>
      <trkpt lat="49.8538" lon="2.13289">
        <ele>121.5</ele>
        <time>2022-03-23T14:05:44Z</time>
      </trkpt>
      <trkpt lat="49.85381" lon="2.13285">
        <ele>121.5</ele>
        <time>2022-03-23T14:05:45Z</time>
      </trkpt>
      <trkpt lat="49.85381" lon="2.13284">
        <ele>121.5</ele>
        <time>2022-03-23T14:05:46Z</time>
      </trkpt>
      <trkpt lat="49.85381" lon="2.13283">
        <ele>121.5</ele>
        <time>2022-03-23T14:05:47Z</time>
      </trkpt>
      <trkpt lat="49.85382" lon="2.13281">
        <ele>121.5</ele>
        <time>2022-03-23T14:05:48Z</time>
      </trkpt>
      <trkpt lat="49.85382" lon="2.13279">
        <ele>121.5</ele>
        <time>2022-03-23T14:05:49Z</time>
      </trkpt>
      <trkpt lat="49.85383" lon="2.13277">
        <ele>121.5</ele>
        <time>2022-03-23T14:05:51Z</time>
      </trkpt>
      <trkpt lat="49.85383" lon="2.13276">
        <ele>121.5</ele>
        <time>2022-03-23T14:05:52Z</time>
      </trkpt>
      <trkpt lat="49.85384" lon="2.13274">
        <ele>121.5</ele>
        <time>2022-03-23T14:05:53Z</time>
      </trkpt>
      <trkpt lat="49.85384" lon="2.13273">
        <ele>121.6</ele>
        <time>2022-03-23T14:05:54Z</time>
      </trkpt>
      <trkpt lat="49.85385" lon="2.1327">
        <ele>121.6</ele>
        <time>2022-03-23T14:05:55Z</time>
      </trkpt>
      <trkpt lat="49.85386" lon="2.13269">
        <ele>121.6</ele>
        <time>2022-03-23T14:05:56Z</time>
      </trkpt>
      <trkpt lat="49.85386" lon="2.13268">
        <ele>121.6</ele>
        <time>2022-03-23T14:05:57Z</time>
      </trkpt>
      <trkpt lat="49.85387" lon="2.13266">
        <ele>121.6</ele>
        <time>2022-03-23T14:05:58Z</time>
      </trkpt>
      <trkpt lat="49.85388" lon="2.13264">
        <ele>121.6</ele>
        <time>2022-03-23T14:05:59Z</time>
      </trkpt>
      <trkpt lat="49.85389" lon="2.13263">
        <ele>121.6</ele>
        <time>2022-03-23T14:06:00Z</time>
      </trkpt>
      <trkpt lat="49.8539" lon="2.13261">
        <ele>121.6</ele>
        <time>2022-03-23T14:06:01Z</time>
      </trkpt>
      <trkpt lat="49.8539" lon="2.1326">
        <ele>121.6</ele>
        <time>2022-03-23T14:06:03Z</time>
      </trkpt>
      <trkpt lat="49.85391" lon="2.13258">
        <ele>121.6</ele>
        <time>2022-03-23T14:06:04Z</time>
      </trkpt>
      <trkpt lat="49.85392" lon="2.13256">
        <ele>121.6</ele>
        <time>2022-03-23T14:06:05Z</time>
      </trkpt>
      <trkpt lat="49.85393" lon="2.13253">
        <ele>121.6</ele>
        <time>2022-03-23T14:06:06Z</time>
      </trkpt>
      <trkpt lat="49.85394" lon="2.13252">
        <ele>121.6</ele>
        <time>2022-03-23T14:06:07Z</time>
      </trkpt>
      <trkpt lat="49.85394" lon="2.13251">
        <ele>121.6</ele>
        <time>2022-03-23T14:06:08Z</time>
      </trkpt>
      <trkpt lat="49.85395" lon="2.13249">
        <ele>121.6</ele>
        <time>2022-03-23T14:06:09Z</time>
      </trkpt>
      <trkpt lat="49.85396" lon="2.13248">
        <ele>121.6</ele>
        <time>2022-03-23T14:06:10Z</time>
      </trkpt>
      <trkpt lat="49.85397" lon="2.13246">
        <ele>121.6</ele>
        <time>2022-03-23T14:06:11Z</time>
      </trkpt>
      <trkpt lat="49.85398" lon="2.13244">
        <ele>121.6</ele>
        <time>2022-03-23T14:06:12Z</time>
      </trkpt>
      <trkpt lat="49.85399" lon="2.13241">
        <ele>121.6</ele>
        <time>2022-03-23T14:06:13Z</time>
      </trkpt>
      <trkpt lat="49.85399" lon="2.13239">
        <ele>121.6</ele>
        <time>2022-03-23T14:06:15Z</time>
      </trkpt>
      <trkpt lat="49.85399" lon="2.13238">
        <ele>121.6</ele>
        <time>2022-03-23T14:06:16Z</time>
      </trkpt>
      <trkpt lat="49.854" lon="2.13236">
        <ele>121.6</ele>
        <time>2022-03-23T14:06:17Z</time>
      </trkpt>
      <trkpt lat="49.854" lon="2.13235">
        <ele>121.6</ele>
        <time>2022-03-23T14:06:18Z</time>
      </trkpt>
      <trkpt lat="49.85401" lon="2.13232">
        <ele>121.6</ele>
        <time>2022-03-23T14:06:19Z</time>
      </trkpt>
      <trkpt lat="49.85401" lon="2.13231">
        <ele>121.6</ele>
        <time>2022-03-23T14:06:20Z</time>
      </trkpt>
      <trkpt lat="49.85401" lon="2.13229">
        <ele>121.6</ele>
        <time>2022-03-23T14:06:21Z</time>
      </trkpt>
      <trkpt lat="49.85402" lon="2.13228">
        <ele>121.6</ele>
        <time>2022-03-23T14:06:22Z</time>
      </trkpt>
      <trkpt lat="49.85402" lon="2.13226">
        <ele>121.7</ele>
        <time>2022-03-23T14:06:23Z</time>
      </trkpt>
      <trkpt lat="49.85403" lon="2.13223">
        <ele>121.7</ele>
        <time>2022-03-23T14:06:25Z</time>
      </trkpt>
      <trkpt lat="49.85403" lon="2.13222">
        <ele>121.7</ele>
        <time>2022-03-23T14:06:26Z</time>
      </trkpt>
      <trkpt lat="49.85403" lon="2.1322">
        <ele>121.7</ele>
        <time>2022-03-23T14:06:27Z</time>
      </trkpt>
      <trkpt lat="49.85404" lon="2.13219">
        <ele>121.7</ele>
        <time>2022-03-23T14:06:28Z</time>
      </trkpt>
      <trkpt lat="49.85405" lon="2.13217">
        <ele>121.7</ele>
        <time>2022-03-23T14:06:29Z</time>
      </trkpt>
      <trkpt lat="49.85405" lon="2.13215">
        <ele>121.7</ele>
        <time>2022-03-23T14:06:30Z</time>
      </trkpt>
      <trkpt lat="49.85406" lon="2.13213">
        <ele>121.7</ele>
        <time>2022-03-23T14:06:31Z</time>
      </trkpt>
      <trkpt lat="49.85407" lon="2.13212">
        <ele>121.7</ele>
        <time>2022-03-23T14:06:32Z</time>
      </trkpt>
      <trkpt lat="49.85408" lon="2.1321">
        <ele>121.7</ele>
        <time>2022-03-23T14:06:34Z</time>
      </trkpt>
      <trkpt lat="49.85408" lon="2.13208">
        <ele>121.7</ele>
        <time>2022-03-23T14:06:35Z</time>
      </trkpt>
      <trkpt lat="49.85409" lon="2.13207">
        <ele>121.7</ele>
        <time>2022-03-23T14:06:36Z</time>
      </trkpt>
      <trkpt lat="49.85409" lon="2.13205">
        <ele>121.7</ele>
        <time>2022-03-23T14:06:37Z</time>
      </trkpt>
      <trkpt lat="49.8541" lon="2.13202">
        <ele>121.7</ele>
        <time>2022-03-23T14:06:38Z</time>
      </trkpt>
      <trkpt lat="49.85411" lon="2.13201">
        <ele>121.7</ele>
        <time>2022-03-23T14:06:39Z</time>
      </trkpt>
      <trkpt lat="49.85411" lon="2.132">
        <ele>121.7</ele>
        <time>2022-03-23T14:06:40Z</time>
      </trkpt>
      <trkpt lat="49.85412" lon="2.13198">
        <ele>121.7</ele>
        <time>2022-03-23T14:06:41Z</time>
      </trkpt>
      <trkpt lat="49.85412" lon="2.13196">
        <ele>121.7</ele>
        <time>2022-03-23T14:06:42Z</time>
      </trkpt>
      <trkpt lat="49.85413" lon="2.13193">
        <ele>121.7</ele>
        <time>2022-03-23T14:06:43Z</time>
      </trkpt>
      <trkpt lat="49.85413" lon="2.13191">
        <ele>121.7</ele>
        <time>2022-03-23T14:06:45Z</time>
      </trkpt>
      <trkpt lat="49.85413" lon="2.1319">
        <ele>121.7</ele>
        <time>2022-03-23T14:06:46Z</time>
      </trkpt>
      <trkpt lat="49.85414" lon="2.13189">
        <ele>121.7</ele>
        <time>2022-03-23T14:06:47Z</time>
      </trkpt>
      <trkpt lat="49.85414" lon="2.13187">
        <ele>121.7</ele>
        <time>2022-03-23T14:06:48Z</time>
      </trkpt>
      <trkpt lat="49.85415" lon="2.13185">
        <ele>121.7</ele>
        <time>2022-03-23T14:06:49Z</time>
      </trkpt>
      <trkpt lat="49.85415" lon="2.13182">
        <ele>121.7</ele>
        <time>2022-03-23T14:06:50Z</time>
      </trkpt>
      <trkpt lat="49.85416" lon="2.13181">
        <ele>121.7</ele>
        <time>2022-03-23T14:06:51Z</time>
      </trkpt>
      <trkpt lat="49.85416" lon="2.13179">
        <ele>121.7</ele>
        <time>2022-03-23T14:06:52Z</time>
      </trkpt>
      <trkpt lat="49.85417" lon="2.13176">
        <ele>121.7</ele>
        <time>2022-03-23T14:06:53Z</time>
      </trkpt>
      <trkpt lat="49.85417" lon="2.13175">
        <ele>121.7</ele>
        <time>2022-03-23T14:06:55Z</time>
      </trkpt>
      <trkpt lat="49.85418" lon="2.13174">
        <ele>121.7</ele>
        <time>2022-03-23T14:06:56Z</time>
      </trkpt>
      <trkpt lat="49.85418" lon="2.13172">
        <ele>121.7</ele>
        <time>2022-03-23T14:06:57Z</time>
      </trkpt>
      <trkpt lat="49.85419" lon="2.13171">
        <ele>121.7</ele>
        <time>2022-03-23T14:06:58Z</time>
      </trkpt>
      <trkpt lat="49.85419" lon="2.13169">
        <ele>121.7</ele>
        <time>2022-03-23T14:06:59Z</time>
      </trkpt>
      <trkpt lat="49.8542" lon="2.13166">
        <ele>121.7</ele>
        <time>2022-03-23T14:07:00Z</time>
      </trkpt>
      <trkpt lat="49.8542" lon="2.13165">
        <ele>121.7</ele>
        <time>2022-03-23T14:07:01Z</time>
      </trkpt>
      <trkpt lat="49.85421" lon="2.13164">
        <ele>121.7</ele>
        <time>2022-03-23T14:07:02Z</time>
      </trkpt>
      <trkpt lat="49.85422" lon="2.13161">
        <ele>121.7</ele>
        <time>2022-03-23T14:07:03Z</time>
      </trkpt>
      <trkpt lat="49.85423" lon="2.1316">
        <ele>121.7</ele>
        <time>2022-03-23T14:07:04Z</time>
      </trkpt>
      <trkpt lat="49.85423" lon="2.13158">
        <ele>121.7</ele>
        <time>2022-03-23T14:07:05Z</time>
      </trkpt>
      <trkpt lat="49.85424" lon="2.13156">
        <ele>121.7</ele>
        <time>2022-03-23T14:07:07Z</time>
      </trkpt>
      <trkpt lat="49.85425" lon="2.13155">
        <ele>121.7</ele>
        <time>2022-03-23T14:07:08Z</time>
      </trkpt>
      <trkpt lat="49.85425" lon="2.13154">
        <ele>121.7</ele>
        <time>2022-03-23T14:07:09Z</time>
      </trkpt>
      <trkpt lat="49.85427" lon="2.13151">
        <ele>121.6</ele>
        <time>2022-03-23T14:07:10Z</time>
      </trkpt>
      <trkpt lat="49.85427" lon="2.1315">
        <ele>121.6</ele>
        <time>2022-03-23T14:07:11Z</time>
      </trkpt>
      <trkpt lat="49.85427" lon="2.13148">
        <ele>121.6</ele>
        <time>2022-03-23T14:07:12Z</time>
      </trkpt>
      <trkpt lat="49.85428" lon="2.13147">
        <ele>121.6</ele>
        <time>2022-03-23T14:07:13Z</time>
      </trkpt>
      <trkpt lat="49.85429" lon="2.13145">
        <ele>121.6</ele>
        <time>2022-03-23T14:07:14Z</time>
      </trkpt>
      <trkpt lat="49.8543" lon="2.13143">
        <ele>121.6</ele>
        <time>2022-03-23T14:07:16Z</time>
      </trkpt>
      <trkpt lat="49.85431" lon="2.1314">
        <ele>121.6</ele>
        <time>2022-03-23T14:07:17Z</time>
      </trkpt>
      <trkpt lat="49.85432" lon="2.13139">
        <ele>121.6</ele>
        <time>2022-03-23T14:07:18Z</time>
      </trkpt>
      <trkpt lat="49.85432" lon="2.13138">
        <ele>121.6</ele>
        <time>2022-03-23T14:07:19Z</time>
      </trkpt>
      <trkpt lat="49.85433" lon="2.13136">
        <ele>121.6</ele>
        <time>2022-03-23T14:07:20Z</time>
      </trkpt>
      <trkpt lat="49.85434" lon="2.13134">
        <ele>121.6</ele>
        <time>2022-03-23T14:07:21Z</time>
      </trkpt>
      <trkpt lat="49.85434" lon="2.13132">
        <ele>121.6</ele>
        <time>2022-03-23T14:07:22Z</time>
      </trkpt>
      <trkpt lat="49.85435" lon="2.1313">
        <ele>121.6</ele>
        <time>2022-03-23T14:07:23Z</time>
      </trkpt>
      <trkpt lat="49.85435" lon="2.13127">
        <ele>121.6</ele>
        <time>2022-03-23T14:07:24Z</time>
      </trkpt>
      <trkpt lat="49.85436" lon="2.13126">
        <ele>121.6</ele>
        <time>2022-03-23T14:07:25Z</time>
      </trkpt>
      <trkpt lat="49.85436" lon="2.13124">
        <ele>121.6</ele>
        <time>2022-03-23T14:07:26Z</time>
      </trkpt>
      <trkpt lat="49.85436" lon="2.13122">
        <ele>121.6</ele>
        <time>2022-03-23T14:07:27Z</time>
      </trkpt>
      <trkpt lat="49.85437" lon="2.1312">
        <ele>121.5</ele>
        <time>2022-03-23T14:07:29Z</time>
      </trkpt>
      <trkpt lat="49.85437" lon="2.13118">
        <ele>121.5</ele>
        <time>2022-03-23T14:07:30Z</time>
      </trkpt>
      <trkpt lat="49.85437" lon="2.13116">
        <ele>121.5</ele>
        <time>2022-03-23T14:07:31Z</time>
      </trkpt>
      <trkpt lat="49.85437" lon="2.13112">
        <ele>121.5</ele>
        <time>2022-03-23T14:07:32Z</time>
      </trkpt>
      <trkpt lat="49.85438" lon="2.13111">
        <ele>121.5</ele>
        <time>2022-03-23T14:07:33Z</time>
      </trkpt>
      <trkpt lat="49.85438" lon="2.13109">
        <ele>121.5</ele>
        <time>2022-03-23T14:07:34Z</time>
      </trkpt>
      <trkpt lat="49.85439" lon="2.13106">
        <ele>121.5</ele>
        <time>2022-03-23T14:07:36Z</time>
      </trkpt>
      <trkpt lat="49.85439" lon="2.13105">
        <ele>121.5</ele>
        <time>2022-03-23T14:07:37Z</time>
      </trkpt>
      <trkpt lat="49.85439" lon="2.13104">
        <ele>121.5</ele>
        <time>2022-03-23T14:07:38Z</time>
      </trkpt>
      <trkpt lat="49.8544" lon="2.13102">
        <ele>121.5</ele>
        <time>2022-03-23T14:07:39Z</time>
      </trkpt>
      <trkpt lat="49.8544" lon="2.131">
        <ele>121.5</ele>
        <time>2022-03-23T14:07:40Z</time>
      </trkpt>
      <trkpt lat="49.85441" lon="2.13098">
        <ele>121.5</ele>
        <time>2022-03-23T14:07:41Z</time>
      </trkpt>
      <trkpt lat="49.85441" lon="2.13096">
        <ele>121.5</ele>
        <time>2022-03-23T14:07:42Z</time>
      </trkpt>
      <trkpt lat="49.85442" lon="2.13094">
        <ele>121.5</ele>
        <time>2022-03-23T14:07:43Z</time>
      </trkpt>
      <trkpt lat="49.85442" lon="2.13092">
        <ele>121.5</ele>
        <time>2022-03-23T14:07:44Z</time>
      </trkpt>
      <trkpt lat="49.85443" lon="2.13089">
        <ele>121.5</ele>
        <time>2022-03-23T14:07:46Z</time>
      </trkpt>
      <trkpt lat="49.85444" lon="2.13087">
        <ele>121.5</ele>
        <time>2022-03-23T14:07:47Z</time>
      </trkpt>
      <trkpt lat="49.85445" lon="2.13084">
        <ele>121.5</ele>
        <time>2022-03-23T14:07:48Z</time>
      </trkpt>
      <trkpt lat="49.85445" lon="2.13083">
        <ele>121.5</ele>
        <time>2022-03-23T14:07:49Z</time>
      </trkpt>
      <trkpt lat="49.85445" lon="2.13082">
        <ele>121.4</ele>
        <time>2022-03-23T14:07:50Z</time>
      </trkpt>
      <trkpt lat="49.85446" lon="2.13079">
        <ele>121.4</ele>
        <time>2022-03-23T14:07:51Z</time>
      </trkpt>
      <trkpt lat="49.85447" lon="2.13078">
        <ele>121.4</ele>
        <time>2022-03-23T14:07:52Z</time>
      </trkpt>
      <trkpt lat="49.85447" lon="2.13076">
        <ele>121.4</ele>
        <time>2022-03-23T14:07:53Z</time>
      </trkpt>
      <trkpt lat="49.85448" lon="2.13074">
        <ele>121.4</ele>
        <time>2022-03-23T14:07:54Z</time>
      </trkpt>
      <trkpt lat="49.85448" lon="2.13072">
        <ele>121.4</ele>
        <time>2022-03-23T14:07:55Z</time>
      </trkpt>
      <trkpt lat="49.85449" lon="2.13071">
        <ele>121.4</ele>
        <time>2022-03-23T14:07:56Z</time>
      </trkpt>
      <trkpt lat="49.85449" lon="2.13069">
        <ele>121.4</ele>
        <time>2022-03-23T14:07:57Z</time>
      </trkpt>
      <trkpt lat="49.8545" lon="2.13067">
        <ele>121.4</ele>
        <time>2022-03-23T14:07:58Z</time>
      </trkpt>
      <trkpt lat="49.85451" lon="2.13064">
        <ele>121.4</ele>
        <time>2022-03-23T14:07:59Z</time>
      </trkpt>
      <trkpt lat="49.85451" lon="2.13063">
        <ele>121.4</ele>
        <time>2022-03-23T14:08:00Z</time>
      </trkpt>
      <trkpt lat="49.85451" lon="2.13062">
        <ele>121.4</ele>
        <time>2022-03-23T14:08:01Z</time>
      </trkpt>
      <trkpt lat="49.85452" lon="2.1306">
        <ele>121.4</ele>
        <time>2022-03-23T14:08:03Z</time>
      </trkpt>
      <trkpt lat="49.85452" lon="2.13058">
        <ele>121.4</ele>
        <time>2022-03-23T14:08:04Z</time>
      </trkpt>
      <trkpt lat="49.85453" lon="2.13055">
        <ele>121.3</ele>
        <time>2022-03-23T14:08:05Z</time>
      </trkpt>
      <trkpt lat="49.85454" lon="2.13054">
        <ele>121.3</ele>
        <time>2022-03-23T14:08:06Z</time>
      </trkpt>
      <trkpt lat="49.85454" lon="2.13053">
        <ele>121.3</ele>
        <time>2022-03-23T14:08:07Z</time>
      </trkpt>
      <trkpt lat="49.85455" lon="2.13051">
        <ele>121.3</ele>
        <time>2022-03-23T14:08:08Z</time>
      </trkpt>
      <trkpt lat="49.85455" lon="2.1305">
        <ele>121.3</ele>
        <time>2022-03-23T14:08:10Z</time>
      </trkpt>
      <trkpt lat="49.85456" lon="2.1305">
        <ele>121.3</ele>
        <time>2022-03-23T14:08:11Z</time>
      </trkpt>
      <trkpt lat="49.85456" lon="2.13048">
        <ele>121.3</ele>
        <time>2022-03-23T14:08:12Z</time>
      </trkpt>
      <trkpt lat="49.85456" lon="2.13047">
        <ele>121.3</ele>
        <time>2022-03-23T14:08:13Z</time>
      </trkpt>
      <trkpt lat="49.85457" lon="2.13045">
        <ele>121.3</ele>
        <time>2022-03-23T14:08:14Z</time>
      </trkpt>
      <trkpt lat="49.85457" lon="2.13043">
        <ele>121.3</ele>
        <time>2022-03-23T14:08:15Z</time>
      </trkpt>
      <trkpt lat="49.85458" lon="2.13041">
        <ele>121.3</ele>
        <time>2022-03-23T14:08:16Z</time>
      </trkpt>
      <trkpt lat="49.85458" lon="2.13039">
        <ele>121.3</ele>
        <time>2022-03-23T14:08:17Z</time>
      </trkpt>
      <trkpt lat="49.85459" lon="2.13037">
        <ele>121.2</ele>
        <time>2022-03-23T14:08:18Z</time>
      </trkpt>
      <trkpt lat="49.8546" lon="2.13035">
        <ele>121.2</ele>
        <time>2022-03-23T14:08:19Z</time>
      </trkpt>
      <trkpt lat="49.8546" lon="2.13033">
        <ele>121.2</ele>
        <time>2022-03-23T14:08:20Z</time>
      </trkpt>
      <trkpt lat="49.85461" lon="2.13031">
        <ele>121.2</ele>
        <time>2022-03-23T14:08:21Z</time>
      </trkpt>
      <trkpt lat="49.85462" lon="2.13028">
        <ele>121.2</ele>
        <time>2022-03-23T14:08:23Z</time>
      </trkpt>
      <trkpt lat="49.85462" lon="2.13026">
        <ele>121.2</ele>
        <time>2022-03-23T14:08:24Z</time>
      </trkpt>
      <trkpt lat="49.85462" lon="2.13024">
        <ele>121.2</ele>
        <time>2022-03-23T14:08:25Z</time>
      </trkpt>
      <trkpt lat="49.85463" lon="2.13022">
        <ele>121.2</ele>
        <time>2022-03-23T14:08:26Z</time>
      </trkpt>
      <trkpt lat="49.85463" lon="2.13019">
        <ele>121.1</ele>
        <time>2022-03-23T14:08:27Z</time>
      </trkpt>
      <trkpt lat="49.85464" lon="2.13017">
        <ele>121.1</ele>
        <time>2022-03-23T14:08:28Z</time>
      </trkpt>
      <trkpt lat="49.85465" lon="2.13014">
        <ele>121.1</ele>
        <time>2022-03-23T14:08:29Z</time>
      </trkpt>
      <trkpt lat="49.85465" lon="2.13012">
        <ele>121.1</ele>
        <time>2022-03-23T14:08:31Z</time>
      </trkpt>
      <trkpt lat="49.85466" lon="2.13011">
        <ele>121.1</ele>
        <time>2022-03-23T14:08:32Z</time>
      </trkpt>
      <trkpt lat="49.85466" lon="2.13009">
        <ele>121.1</ele>
        <time>2022-03-23T14:08:33Z</time>
      </trkpt>
      <trkpt lat="49.85467" lon="2.13008">
        <ele>121.1</ele>
        <time>2022-03-23T14:08:34Z</time>
      </trkpt>
      <trkpt lat="49.85467" lon="2.13006">
        <ele>121.1</ele>
        <time>2022-03-23T14:08:35Z</time>
      </trkpt>
      <trkpt lat="49.85468" lon="2.13004">
        <ele>121.1</ele>
        <time>2022-03-23T14:08:36Z</time>
      </trkpt>
      <trkpt lat="49.85469" lon="2.13002">
        <ele>121.1</ele>
        <time>2022-03-23T14:08:37Z</time>
      </trkpt>
      <trkpt lat="49.85469" lon="2.13">
        <ele>121.1</ele>
        <time>2022-03-23T14:08:38Z</time>
      </trkpt>
      <trkpt lat="49.8547" lon="2.12997">
        <ele>121.1</ele>
        <time>2022-03-23T14:08:39Z</time>
      </trkpt>
      <trkpt lat="49.8547" lon="2.12996">
        <ele>121</ele>
        <time>2022-03-23T14:08:40Z</time>
      </trkpt>
      <trkpt lat="49.85471" lon="2.12994">
        <ele>121</ele>
        <time>2022-03-23T14:08:41Z</time>
      </trkpt>
      <trkpt lat="49.85471" lon="2.12993">
        <ele>121</ele>
        <time>2022-03-23T14:08:42Z</time>
      </trkpt>
      <trkpt lat="49.85472" lon="2.1299">
        <ele>121</ele>
        <time>2022-03-23T14:08:44Z</time>
      </trkpt>
      <trkpt lat="49.85472" lon="2.12989">
        <ele>121</ele>
        <time>2022-03-23T14:08:45Z</time>
      </trkpt>
      <trkpt lat="49.85473" lon="2.12987">
        <ele>121</ele>
        <time>2022-03-23T14:08:46Z</time>
      </trkpt>
      <trkpt lat="49.85473" lon="2.12986">
        <ele>121</ele>
        <time>2022-03-23T14:08:47Z</time>
      </trkpt>
      <trkpt lat="49.85474" lon="2.12984">
        <ele>121</ele>
        <time>2022-03-23T14:08:48Z</time>
      </trkpt>
      <trkpt lat="49.85474" lon="2.12983">
        <ele>121</ele>
        <time>2022-03-23T14:08:49Z</time>
      </trkpt>
      <trkpt lat="49.85475" lon="2.1298">
        <ele>121</ele>
        <time>2022-03-23T14:08:51Z</time>
      </trkpt>
      <trkpt lat="49.85476" lon="2.12977">
        <ele>121</ele>
        <time>2022-03-23T14:08:52Z</time>
      </trkpt>
      <trkpt lat="49.85476" lon="2.12976">
        <ele>121</ele>
        <time>2022-03-23T14:08:53Z</time>
      </trkpt>
      <trkpt lat="49.85476" lon="2.12975">
        <ele>121</ele>
        <time>2022-03-23T14:08:54Z</time>
      </trkpt>
      <trkpt lat="49.85477" lon="2.12973">
        <ele>121</ele>
        <time>2022-03-23T14:08:55Z</time>
      </trkpt>
      <trkpt lat="49.85478" lon="2.12971">
        <ele>121</ele>
        <time>2022-03-23T14:08:56Z</time>
      </trkpt>
      <trkpt lat="49.85479" lon="2.12968">
        <ele>121</ele>
        <time>2022-03-23T14:08:57Z</time>
      </trkpt>
      <trkpt lat="49.85479" lon="2.12967">
        <ele>121</ele>
        <time>2022-03-23T14:08:58Z</time>
      </trkpt>
      <trkpt lat="49.8548" lon="2.12966">
        <ele>121</ele>
        <time>2022-03-23T14:08:59Z</time>
      </trkpt>
      <trkpt lat="49.8548" lon="2.12965">
        <ele>121</ele>
        <time>2022-03-23T14:09:00Z</time>
      </trkpt>
      <trkpt lat="49.85481" lon="2.12963">
        <ele>121</ele>
        <time>2022-03-23T14:09:01Z</time>
      </trkpt>
      <trkpt lat="49.85482" lon="2.12962">
        <ele>121</ele>
        <time>2022-03-23T14:09:02Z</time>
      </trkpt>
      <trkpt lat="49.85482" lon="2.1296">
        <ele>121</ele>
        <time>2022-03-23T14:09:04Z</time>
      </trkpt>
      <trkpt lat="49.85483" lon="2.12958">
        <ele>120.9</ele>
        <time>2022-03-23T14:09:05Z</time>
      </trkpt>
      <trkpt lat="49.85484" lon="2.12957">
        <ele>120.9</ele>
        <time>2022-03-23T14:09:06Z</time>
      </trkpt>
      <trkpt lat="49.85485" lon="2.12955">
        <ele>120.9</ele>
        <time>2022-03-23T14:09:07Z</time>
      </trkpt>
      <trkpt lat="49.85486" lon="2.12952">
        <ele>120.9</ele>
        <time>2022-03-23T14:09:08Z</time>
      </trkpt>
      <trkpt lat="49.85486" lon="2.1295">
        <ele>120.9</ele>
        <time>2022-03-23T14:09:09Z</time>
      </trkpt>
      <trkpt lat="49.85487" lon="2.12948">
        <ele>120.9</ele>
        <time>2022-03-23T14:09:10Z</time>
      </trkpt>
      <trkpt lat="49.85488" lon="2.12946">
        <ele>120.8</ele>
        <time>2022-03-23T14:09:12Z</time>
      </trkpt>
      <trkpt lat="49.85489" lon="2.12944">
        <ele>120.8</ele>
        <time>2022-03-23T14:09:13Z</time>
      </trkpt>
      <trkpt lat="49.85489" lon="2.12942">
        <ele>120.8</ele>
        <time>2022-03-23T14:09:14Z</time>
      </trkpt>
      <trkpt lat="49.8549" lon="2.1294">
        <ele>120.8</ele>
        <time>2022-03-23T14:09:15Z</time>
      </trkpt>
      <trkpt lat="49.85491" lon="2.12937">
        <ele>120.8</ele>
        <time>2022-03-23T14:09:16Z</time>
      </trkpt>
      <trkpt lat="49.85492" lon="2.12935">
        <ele>120.8</ele>
        <time>2022-03-23T14:09:17Z</time>
      </trkpt>
      <trkpt lat="49.85493" lon="2.12933">
        <ele>120.8</ele>
        <time>2022-03-23T14:09:18Z</time>
      </trkpt>
      <trkpt lat="49.85493" lon="2.12931">
        <ele>120.7</ele>
        <time>2022-03-23T14:09:19Z</time>
      </trkpt>
      <trkpt lat="49.85494" lon="2.12929">
        <ele>120.7</ele>
        <time>2022-03-23T14:09:20Z</time>
      </trkpt>
      <trkpt lat="49.85495" lon="2.12927">
        <ele>120.7</ele>
        <time>2022-03-23T14:09:22Z</time>
      </trkpt>
      <trkpt lat="49.85495" lon="2.12926">
        <ele>120.7</ele>
        <time>2022-03-23T14:09:23Z</time>
      </trkpt>
      <trkpt lat="49.85496" lon="2.12923">
        <ele>120.7</ele>
        <time>2022-03-23T14:09:24Z</time>
      </trkpt>
      <trkpt lat="49.85497" lon="2.12922">
        <ele>120.7</ele>
        <time>2022-03-23T14:09:25Z</time>
      </trkpt>
      <trkpt lat="49.85497" lon="2.12921">
        <ele>120.7</ele>
        <time>2022-03-23T14:09:26Z</time>
      </trkpt>
      <trkpt lat="49.85498" lon="2.12918">
        <ele>120.7</ele>
        <time>2022-03-23T14:09:27Z</time>
      </trkpt>
      <trkpt lat="49.85498" lon="2.12917">
        <ele>120.7</ele>
        <time>2022-03-23T14:09:28Z</time>
      </trkpt>
      <trkpt lat="49.85499" lon="2.12915">
        <ele>120.7</ele>
        <time>2022-03-23T14:09:29Z</time>
      </trkpt>
      <trkpt lat="49.85499" lon="2.12914">
        <ele>120.7</ele>
        <time>2022-03-23T14:09:31Z</time>
      </trkpt>
      <trkpt lat="49.85499" lon="2.12912">
        <ele>120.7</ele>
        <time>2022-03-23T14:09:32Z</time>
      </trkpt>
      <trkpt lat="49.855" lon="2.12911">
        <ele>120.7</ele>
        <time>2022-03-23T14:09:33Z</time>
      </trkpt>
      <trkpt lat="49.85501" lon="2.12908">
        <ele>120.7</ele>
        <time>2022-03-23T14:09:34Z</time>
      </trkpt>
      <trkpt lat="49.85501" lon="2.12907">
        <ele>120.6</ele>
        <time>2022-03-23T14:09:35Z</time>
      </trkpt>
      <trkpt lat="49.85501" lon="2.12906">
        <ele>120.6</ele>
        <time>2022-03-23T14:09:36Z</time>
      </trkpt>
      <trkpt lat="49.85502" lon="2.12903">
        <ele>120.6</ele>
        <time>2022-03-23T14:09:37Z</time>
      </trkpt>
      <trkpt lat="49.85502" lon="2.12901">
        <ele>120.6</ele>
        <time>2022-03-23T14:09:38Z</time>
      </trkpt>
      <trkpt lat="49.85503" lon="2.129">
        <ele>120.6</ele>
        <time>2022-03-23T14:09:39Z</time>
      </trkpt>
      <trkpt lat="49.85503" lon="2.12897">
        <ele>120.6</ele>
        <time>2022-03-23T14:09:40Z</time>
      </trkpt>
      <trkpt lat="49.85504" lon="2.12896">
        <ele>120.6</ele>
        <time>2022-03-23T14:09:42Z</time>
      </trkpt>
      <trkpt lat="49.85504" lon="2.12895">
        <ele>120.6</ele>
        <time>2022-03-23T14:09:43Z</time>
      </trkpt>
      <trkpt lat="49.85505" lon="2.12892">
        <ele>120.6</ele>
        <time>2022-03-23T14:09:44Z</time>
      </trkpt>
      <trkpt lat="49.85505" lon="2.12891">
        <ele>120.6</ele>
        <time>2022-03-23T14:09:45Z</time>
      </trkpt>
      <trkpt lat="49.85506" lon="2.12889">
        <ele>120.6</ele>
        <time>2022-03-23T14:09:46Z</time>
      </trkpt>
      <trkpt lat="49.85506" lon="2.12887">
        <ele>120.5</ele>
        <time>2022-03-23T14:09:47Z</time>
      </trkpt>
      <trkpt lat="49.85507" lon="2.12884">
        <ele>120.5</ele>
        <time>2022-03-23T14:09:48Z</time>
      </trkpt>
      <trkpt lat="49.85507" lon="2.12882">
        <ele>120.5</ele>
        <time>2022-03-23T14:09:49Z</time>
      </trkpt>
      <trkpt lat="49.85508" lon="2.1288">
        <ele>120.5</ele>
        <time>2022-03-23T14:09:50Z</time>
      </trkpt>
      <trkpt lat="49.85508" lon="2.12879">
        <ele>120.5</ele>
        <time>2022-03-23T14:09:51Z</time>
      </trkpt>
      <trkpt lat="49.85508" lon="2.12877">
        <ele>120.5</ele>
        <time>2022-03-23T14:09:52Z</time>
      </trkpt>
      <trkpt lat="49.85509" lon="2.12874">
        <ele>120.5</ele>
        <time>2022-03-23T14:09:54Z</time>
      </trkpt>
      <trkpt lat="49.85509" lon="2.12871">
        <ele>120.5</ele>
        <time>2022-03-23T14:09:55Z</time>
      </trkpt>
      <trkpt lat="49.85509" lon="2.1287">
        <ele>120.5</ele>
        <time>2022-03-23T14:09:56Z</time>
      </trkpt>
      <trkpt lat="49.8551" lon="2.12869">
        <ele>120.5</ele>
        <time>2022-03-23T14:09:57Z</time>
      </trkpt>
      <trkpt lat="49.8551" lon="2.12866">
        <ele>120.4</ele>
        <time>2022-03-23T14:09:58Z</time>
      </trkpt>
      <trkpt lat="49.85511" lon="2.12865">
        <ele>120.4</ele>
        <time>2022-03-23T14:09:59Z</time>
      </trkpt>
      <trkpt lat="49.85511" lon="2.12863">
        <ele>120.4</ele>
        <time>2022-03-23T14:10:00Z</time>
      </trkpt>
      <trkpt lat="49.85512" lon="2.12861">
        <ele>120.4</ele>
        <time>2022-03-23T14:10:01Z</time>
      </trkpt>
      <trkpt lat="49.85513" lon="2.12859">
        <ele>120.4</ele>
        <time>2022-03-23T14:10:02Z</time>
      </trkpt>
      <trkpt lat="49.85513" lon="2.12858">
        <ele>120.4</ele>
        <time>2022-03-23T14:10:03Z</time>
      </trkpt>
      <trkpt lat="49.85514" lon="2.12856">
        <ele>120.4</ele>
        <time>2022-03-23T14:10:05Z</time>
      </trkpt>
      <trkpt lat="49.85514" lon="2.12854">
        <ele>120.4</ele>
        <time>2022-03-23T14:10:06Z</time>
      </trkpt>
      <trkpt lat="49.85515" lon="2.12853">
        <ele>120.4</ele>
        <time>2022-03-23T14:10:07Z</time>
      </trkpt>
      <trkpt lat="49.85515" lon="2.12851">
        <ele>120.4</ele>
        <time>2022-03-23T14:10:08Z</time>
      </trkpt>
      <trkpt lat="49.85515" lon="2.1285">
        <ele>120.4</ele>
        <time>2022-03-23T14:10:09Z</time>
      </trkpt>
      <trkpt lat="49.85516" lon="2.12848">
        <ele>120.4</ele>
        <time>2022-03-23T14:10:10Z</time>
      </trkpt>
      <trkpt lat="49.85517" lon="2.12845">
        <ele>120.4</ele>
        <time>2022-03-23T14:10:11Z</time>
      </trkpt>
      <trkpt lat="49.85517" lon="2.12844">
        <ele>120.4</ele>
        <time>2022-03-23T14:10:12Z</time>
      </trkpt>
      <trkpt lat="49.85517" lon="2.12843">
        <ele>120.4</ele>
        <time>2022-03-23T14:10:13Z</time>
      </trkpt>
      <trkpt lat="49.85518" lon="2.1284">
        <ele>120.3</ele>
        <time>2022-03-23T14:10:14Z</time>
      </trkpt>
      <trkpt lat="49.85519" lon="2.12839">
        <ele>120.3</ele>
        <time>2022-03-23T14:10:15Z</time>
      </trkpt>
      <trkpt lat="49.85519" lon="2.12838">
        <ele>120.3</ele>
        <time>2022-03-23T14:10:16Z</time>
      </trkpt>
      <trkpt lat="49.8552" lon="2.12836">
        <ele>120.3</ele>
        <time>2022-03-23T14:10:18Z</time>
      </trkpt>
      <trkpt lat="49.85521" lon="2.12834">
        <ele>120.3</ele>
        <time>2022-03-23T14:10:19Z</time>
      </trkpt>
      <trkpt lat="49.85522" lon="2.12831">
        <ele>120.3</ele>
        <time>2022-03-23T14:10:20Z</time>
      </trkpt>
      <trkpt lat="49.85522" lon="2.1283">
        <ele>120.3</ele>
        <time>2022-03-23T14:10:21Z</time>
      </trkpt>
      <trkpt lat="49.85523" lon="2.12829">
        <ele>120.3</ele>
        <time>2022-03-23T14:10:22Z</time>
      </trkpt>
      <trkpt lat="49.85524" lon="2.12826">
        <ele>120.3</ele>
        <time>2022-03-23T14:10:23Z</time>
      </trkpt>
      <trkpt lat="49.85524" lon="2.12824">
        <ele>120.3</ele>
        <time>2022-03-23T14:10:25Z</time>
      </trkpt>
      <trkpt lat="49.85525" lon="2.12822">
        <ele>120.2</ele>
        <time>2022-03-23T14:10:26Z</time>
      </trkpt>
      <trkpt lat="49.85525" lon="2.12821">
        <ele>120.2</ele>
        <time>2022-03-23T14:10:27Z</time>
      </trkpt>
      <trkpt lat="49.85526" lon="2.12819">
        <ele>120.2</ele>
        <time>2022-03-23T14:10:28Z</time>
      </trkpt>
      <trkpt lat="49.85527" lon="2.12817">
        <ele>120.2</ele>
        <time>2022-03-23T14:10:29Z</time>
      </trkpt>
      <trkpt lat="49.85527" lon="2.12815">
        <ele>120.2</ele>
        <time>2022-03-23T14:10:30Z</time>
      </trkpt>
      <trkpt lat="49.85528" lon="2.12813">
        <ele>120.2</ele>
        <time>2022-03-23T14:10:31Z</time>
      </trkpt>
      <trkpt lat="49.85529" lon="2.12811">
        <ele>120.2</ele>
        <time>2022-03-23T14:10:32Z</time>
      </trkpt>
      <trkpt lat="49.85529" lon="2.1281">
        <ele>120.2</ele>
        <time>2022-03-23T14:10:33Z</time>
      </trkpt>
      <trkpt lat="49.85529" lon="2.12808">
        <ele>120.2</ele>
        <time>2022-03-23T14:10:34Z</time>
      </trkpt>
      <trkpt lat="49.8553" lon="2.12806">
        <ele>120.1</ele>
        <time>2022-03-23T14:10:35Z</time>
      </trkpt>
      <trkpt lat="49.8553" lon="2.12805">
        <ele>120.1</ele>
        <time>2022-03-23T14:10:37Z</time>
      </trkpt>
      <trkpt lat="49.85531" lon="2.12803">
        <ele>120.1</ele>
        <time>2022-03-23T14:10:38Z</time>
      </trkpt>
      <trkpt lat="49.85531" lon="2.12801">
        <ele>120.1</ele>
        <time>2022-03-23T14:10:39Z</time>
      </trkpt>
      <trkpt lat="49.85533" lon="2.12799">
        <ele>120.1</ele>
        <time>2022-03-23T14:10:40Z</time>
      </trkpt>
      <trkpt lat="49.85533" lon="2.12798">
        <ele>120.1</ele>
        <time>2022-03-23T14:10:41Z</time>
      </trkpt>
      <trkpt lat="49.85533" lon="2.12796">
        <ele>120.1</ele>
        <time>2022-03-23T14:10:42Z</time>
      </trkpt>
      <trkpt lat="49.85534" lon="2.12795">
        <ele>120.1</ele>
        <time>2022-03-23T14:10:43Z</time>
      </trkpt>
      <trkpt lat="49.85535" lon="2.12793">
        <ele>120.1</ele>
        <time>2022-03-23T14:10:44Z</time>
      </trkpt>
      <trkpt lat="49.85535" lon="2.12791">
        <ele>120.1</ele>
        <time>2022-03-23T14:10:46Z</time>
      </trkpt>
      <trkpt lat="49.85536" lon="2.12789">
        <ele>120.1</ele>
        <time>2022-03-23T14:10:47Z</time>
      </trkpt>
      <trkpt lat="49.85537" lon="2.12786">
        <ele>120.1</ele>
        <time>2022-03-23T14:10:48Z</time>
      </trkpt>
      <trkpt lat="49.85537" lon="2.12785">
        <ele>120.1</ele>
        <time>2022-03-23T14:10:49Z</time>
      </trkpt>
      <trkpt lat="49.85537" lon="2.12784">
        <ele>120.1</ele>
        <time>2022-03-23T14:10:50Z</time>
      </trkpt>
      <trkpt lat="49.85538" lon="2.12781">
        <ele>120.1</ele>
        <time>2022-03-23T14:10:51Z</time>
      </trkpt>
      <trkpt lat="49.85539" lon="2.12779">
        <ele>120.1</ele>
        <time>2022-03-23T14:10:52Z</time>
      </trkpt>
      <trkpt lat="49.85539" lon="2.12778">
        <ele>120.1</ele>
        <time>2022-03-23T14:10:53Z</time>
      </trkpt>
      <trkpt lat="49.85539" lon="2.12776">
        <ele>120.1</ele>
        <time>2022-03-23T14:10:54Z</time>
      </trkpt>
      <trkpt lat="49.8554" lon="2.12774">
        <ele>120.1</ele>
        <time>2022-03-23T14:10:55Z</time>
      </trkpt>
      <trkpt lat="49.8554" lon="2.12771">
        <ele>120.1</ele>
        <time>2022-03-23T14:10:56Z</time>
      </trkpt>
      <trkpt lat="49.85541" lon="2.1277">
        <ele>120.1</ele>
        <time>2022-03-23T14:10:57Z</time>
      </trkpt>
      <trkpt lat="49.85541" lon="2.12768">
        <ele>120.1</ele>
        <time>2022-03-23T14:10:58Z</time>
      </trkpt>
      <trkpt lat="49.85541" lon="2.12766">
        <ele>120.1</ele>
        <time>2022-03-23T14:11:00Z</time>
      </trkpt>
      <trkpt lat="49.85542" lon="2.12764">
        <ele>120.1</ele>
        <time>2022-03-23T14:11:01Z</time>
      </trkpt>
      <trkpt lat="49.85543" lon="2.12761">
        <ele>120.1</ele>
        <time>2022-03-23T14:11:02Z</time>
      </trkpt>
      <trkpt lat="49.85543" lon="2.1276">
        <ele>120.1</ele>
        <time>2022-03-23T14:11:03Z</time>
      </trkpt>
      <trkpt lat="49.85543" lon="2.12759">
        <ele>120.1</ele>
        <time>2022-03-23T14:11:04Z</time>
      </trkpt>
      <trkpt lat="49.85544" lon="2.12757">
        <ele>120.1</ele>
        <time>2022-03-23T14:11:05Z</time>
      </trkpt>
      <trkpt lat="49.85544" lon="2.12755">
        <ele>120.1</ele>
        <time>2022-03-23T14:11:06Z</time>
      </trkpt>
      <trkpt lat="49.85545" lon="2.12753">
        <ele>120.1</ele>
        <time>2022-03-23T14:11:08Z</time>
      </trkpt>
      <trkpt lat="49.85546" lon="2.12751">
        <ele>120.1</ele>
        <time>2022-03-23T14:11:09Z</time>
      </trkpt>
      <trkpt lat="49.85546" lon="2.12749">
        <ele>120.1</ele>
        <time>2022-03-23T14:11:10Z</time>
      </trkpt>
      <trkpt lat="49.85547" lon="2.12747">
        <ele>120</ele>
        <time>2022-03-23T14:11:11Z</time>
      </trkpt>
      <trkpt lat="49.85548" lon="2.12745">
        <ele>120</ele>
        <time>2022-03-23T14:11:13Z</time>
      </trkpt>
      <trkpt lat="49.85549" lon="2.12743">
        <ele>120</ele>
        <time>2022-03-23T14:11:14Z</time>
      </trkpt>
      <trkpt lat="49.85549" lon="2.12742">
        <ele>120</ele>
        <time>2022-03-23T14:11:15Z</time>
      </trkpt>
      <trkpt lat="49.8555" lon="2.1274">
        <ele>120</ele>
        <time>2022-03-23T14:11:16Z</time>
      </trkpt>
      <trkpt lat="49.85551" lon="2.12738">
        <ele>120</ele>
        <time>2022-03-23T14:11:17Z</time>
      </trkpt>
      <trkpt lat="49.85551" lon="2.12736">
        <ele>120</ele>
        <time>2022-03-23T14:11:18Z</time>
      </trkpt>
      <trkpt lat="49.85552" lon="2.12735">
        <ele>120</ele>
        <time>2022-03-23T14:11:19Z</time>
      </trkpt>
      <trkpt lat="49.85553" lon="2.12732">
        <ele>120</ele>
        <time>2022-03-23T14:11:21Z</time>
      </trkpt>
      <trkpt lat="49.85553" lon="2.12731">
        <ele>120</ele>
        <time>2022-03-23T14:11:22Z</time>
      </trkpt>
      <trkpt lat="49.85553" lon="2.1273">
        <ele>120</ele>
        <time>2022-03-23T14:11:23Z</time>
      </trkpt>
      <trkpt lat="49.85554" lon="2.12727">
        <ele>120</ele>
        <time>2022-03-23T14:11:24Z</time>
      </trkpt>
      <trkpt lat="49.85555" lon="2.12726">
        <ele>120</ele>
        <time>2022-03-23T14:11:25Z</time>
      </trkpt>
      <trkpt lat="49.85555" lon="2.12725">
        <ele>120</ele>
        <time>2022-03-23T14:11:26Z</time>
      </trkpt>
      <trkpt lat="49.85556" lon="2.12723">
        <ele>120</ele>
        <time>2022-03-23T14:11:27Z</time>
      </trkpt>
      <trkpt lat="49.85556" lon="2.12721">
        <ele>120</ele>
        <time>2022-03-23T14:11:28Z</time>
      </trkpt>
      <trkpt lat="49.85557" lon="2.12719">
        <ele>120</ele>
        <time>2022-03-23T14:11:29Z</time>
      </trkpt>
      <trkpt lat="49.85558" lon="2.12717">
        <ele>119.9</ele>
        <time>2022-03-23T14:11:30Z</time>
      </trkpt>
      <trkpt lat="49.85558" lon="2.12715">
        <ele>119.9</ele>
        <time>2022-03-23T14:11:31Z</time>
      </trkpt>
      <trkpt lat="49.85559" lon="2.12713">
        <ele>119.9</ele>
        <time>2022-03-23T14:11:32Z</time>
      </trkpt>
      <trkpt lat="49.8556" lon="2.12711">
        <ele>119.9</ele>
        <time>2022-03-23T14:11:34Z</time>
      </trkpt>
      <trkpt lat="49.8556" lon="2.12709">
        <ele>119.9</ele>
        <time>2022-03-23T14:11:35Z</time>
      </trkpt>
      <trkpt lat="49.85561" lon="2.12706">
        <ele>119.8</ele>
        <time>2022-03-23T14:11:36Z</time>
      </trkpt>
      <trkpt lat="49.85561" lon="2.12705">
        <ele>119.8</ele>
        <time>2022-03-23T14:11:37Z</time>
      </trkpt>
      <trkpt lat="49.85562" lon="2.12703">
        <ele>119.8</ele>
        <time>2022-03-23T14:11:38Z</time>
      </trkpt>
      <trkpt lat="49.85562" lon="2.12702">
        <ele>119.8</ele>
        <time>2022-03-23T14:11:39Z</time>
      </trkpt>
      <trkpt lat="49.85563" lon="2.127">
        <ele>119.8</ele>
        <time>2022-03-23T14:11:40Z</time>
      </trkpt>
      <trkpt lat="49.85564" lon="2.12697">
        <ele>119.8</ele>
        <time>2022-03-23T14:11:42Z</time>
      </trkpt>
      <trkpt lat="49.85564" lon="2.12696">
        <ele>119.8</ele>
        <time>2022-03-23T14:11:43Z</time>
      </trkpt>
      <trkpt lat="49.85565" lon="2.12693">
        <ele>119.8</ele>
        <time>2022-03-23T14:11:44Z</time>
      </trkpt>
      <trkpt lat="49.85565" lon="2.12691">
        <ele>119.8</ele>
        <time>2022-03-23T14:11:45Z</time>
      </trkpt>
      <trkpt lat="49.85566" lon="2.12688">
        <ele>119.8</ele>
        <time>2022-03-23T14:11:46Z</time>
      </trkpt>
      <trkpt lat="49.85567" lon="2.12687">
        <ele>119.8</ele>
        <time>2022-03-23T14:11:47Z</time>
      </trkpt>
      <trkpt lat="49.85567" lon="2.12686">
        <ele>119.8</ele>
        <time>2022-03-23T14:11:48Z</time>
      </trkpt>
      <trkpt lat="49.85568" lon="2.12683">
        <ele>119.8</ele>
        <time>2022-03-23T14:11:50Z</time>
      </trkpt>
      <trkpt lat="49.85569" lon="2.12681">
        <ele>119.8</ele>
        <time>2022-03-23T14:11:52Z</time>
      </trkpt>
      <trkpt lat="49.8557" lon="2.12678">
        <ele>119.8</ele>
        <time>2022-03-23T14:11:53Z</time>
      </trkpt>
      <trkpt lat="49.8557" lon="2.12676">
        <ele>119.8</ele>
        <time>2022-03-23T14:11:54Z</time>
      </trkpt>
      <trkpt lat="49.85571" lon="2.12675">
        <ele>119.8</ele>
        <time>2022-03-23T14:11:55Z</time>
      </trkpt>
      <trkpt lat="49.85572" lon="2.12672">
        <ele>119.8</ele>
        <time>2022-03-23T14:11:56Z</time>
      </trkpt>
      <trkpt lat="49.85572" lon="2.12671">
        <ele>119.8</ele>
        <time>2022-03-23T14:11:57Z</time>
      </trkpt>
      <trkpt lat="49.85573" lon="2.1267">
        <ele>119.8</ele>
        <time>2022-03-23T14:11:58Z</time>
      </trkpt>
      <trkpt lat="49.85574" lon="2.12667">
        <ele>119.8</ele>
        <time>2022-03-23T14:11:59Z</time>
      </trkpt>
      <trkpt lat="49.85574" lon="2.12666">
        <ele>119.8</ele>
        <time>2022-03-23T14:12:00Z</time>
      </trkpt>
      <trkpt lat="49.85574" lon="2.12664">
        <ele>119.8</ele>
        <time>2022-03-23T14:12:01Z</time>
      </trkpt>
      <trkpt lat="49.85575" lon="2.12662">
        <ele>119.8</ele>
        <time>2022-03-23T14:12:02Z</time>
      </trkpt>
      <trkpt lat="49.85576" lon="2.1266">
        <ele>119.8</ele>
        <time>2022-03-23T14:12:04Z</time>
      </trkpt>
      <trkpt lat="49.85576" lon="2.12659">
        <ele>119.8</ele>
        <time>2022-03-23T14:12:05Z</time>
      </trkpt>
      <trkpt lat="49.85577" lon="2.12657">
        <ele>119.8</ele>
        <time>2022-03-23T14:12:06Z</time>
      </trkpt>
      <trkpt lat="49.85578" lon="2.12656">
        <ele>119.8</ele>
        <time>2022-03-23T14:12:07Z</time>
      </trkpt>
      <trkpt lat="49.85578" lon="2.12655">
        <ele>119.8</ele>
        <time>2022-03-23T14:12:08Z</time>
      </trkpt>
      <trkpt lat="49.85579" lon="2.12653">
        <ele>119.8</ele>
        <time>2022-03-23T14:12:09Z</time>
      </trkpt>
      <trkpt lat="49.8558" lon="2.12651">
        <ele>119.8</ele>
        <time>2022-03-23T14:12:10Z</time>
      </trkpt>
      <trkpt lat="49.85581" lon="2.12648">
        <ele>119.7</ele>
        <time>2022-03-23T14:12:11Z</time>
      </trkpt>
      <trkpt lat="49.85581" lon="2.12647">
        <ele>119.7</ele>
        <time>2022-03-23T14:12:12Z</time>
      </trkpt>
      <trkpt lat="49.85582" lon="2.12646">
        <ele>119.7</ele>
        <time>2022-03-23T14:12:13Z</time>
      </trkpt>
      <trkpt lat="49.85582" lon="2.12644">
        <ele>119.7</ele>
        <time>2022-03-23T14:12:14Z</time>
      </trkpt>
      <trkpt lat="49.85583" lon="2.12643">
        <ele>119.7</ele>
        <time>2022-03-23T14:12:15Z</time>
      </trkpt>
      <trkpt lat="49.85583" lon="2.1264">
        <ele>119.7</ele>
        <time>2022-03-23T14:12:17Z</time>
      </trkpt>
      <trkpt lat="49.85584" lon="2.12637">
        <ele>119.7</ele>
        <time>2022-03-23T14:12:18Z</time>
      </trkpt>
      <trkpt lat="49.85584" lon="2.12636">
        <ele>119.7</ele>
        <time>2022-03-23T14:12:19Z</time>
      </trkpt>
      <trkpt lat="49.85584" lon="2.12635">
        <ele>119.7</ele>
        <time>2022-03-23T14:12:20Z</time>
      </trkpt>
      <trkpt lat="49.85585" lon="2.12632">
        <ele>119.7</ele>
        <time>2022-03-23T14:12:22Z</time>
      </trkpt>
      <trkpt lat="49.85586" lon="2.1263">
        <ele>119.7</ele>
        <time>2022-03-23T14:12:23Z</time>
      </trkpt>
      <trkpt lat="49.85586" lon="2.12627">
        <ele>119.7</ele>
        <time>2022-03-23T14:12:24Z</time>
      </trkpt>
      <trkpt lat="49.85586" lon="2.12626">
        <ele>119.7</ele>
        <time>2022-03-23T14:12:25Z</time>
      </trkpt>
      <trkpt lat="49.85587" lon="2.12625">
        <ele>119.7</ele>
        <time>2022-03-23T14:12:26Z</time>
      </trkpt>
      <trkpt lat="49.85588" lon="2.12622">
        <ele>119.7</ele>
        <time>2022-03-23T14:12:27Z</time>
      </trkpt>
      <trkpt lat="49.85588" lon="2.1262">
        <ele>119.7</ele>
        <time>2022-03-23T14:12:28Z</time>
      </trkpt>
      <trkpt lat="49.85588" lon="2.12619">
        <ele>119.7</ele>
        <time>2022-03-23T14:12:29Z</time>
      </trkpt>
      <trkpt lat="49.85589" lon="2.12617">
        <ele>119.7</ele>
        <time>2022-03-23T14:12:30Z</time>
      </trkpt>
      <trkpt lat="49.8559" lon="2.12615">
        <ele>119.7</ele>
        <time>2022-03-23T14:12:31Z</time>
      </trkpt>
      <trkpt lat="49.8559" lon="2.12613">
        <ele>119.7</ele>
        <time>2022-03-23T14:12:33Z</time>
      </trkpt>
      <trkpt lat="49.85591" lon="2.12611">
        <ele>119.7</ele>
        <time>2022-03-23T14:12:34Z</time>
      </trkpt>
      <trkpt lat="49.85592" lon="2.12608">
        <ele>119.6</ele>
        <time>2022-03-23T14:12:35Z</time>
      </trkpt>
      <trkpt lat="49.85592" lon="2.12607">
        <ele>119.6</ele>
        <time>2022-03-23T14:12:36Z</time>
      </trkpt>
      <trkpt lat="49.85593" lon="2.12606">
        <ele>119.6</ele>
        <time>2022-03-23T14:12:37Z</time>
      </trkpt>
      <trkpt lat="49.85593" lon="2.12604">
        <ele>119.6</ele>
        <time>2022-03-23T14:12:38Z</time>
      </trkpt>
      <trkpt lat="49.85594" lon="2.12602">
        <ele>119.6</ele>
        <time>2022-03-23T14:12:40Z</time>
      </trkpt>
      <trkpt lat="49.85594" lon="2.12601">
        <ele>119.6</ele>
        <time>2022-03-23T14:12:41Z</time>
      </trkpt>
      <trkpt lat="49.85595" lon="2.12598">
        <ele>119.6</ele>
        <time>2022-03-23T14:12:42Z</time>
      </trkpt>
      <trkpt lat="49.85595" lon="2.12596">
        <ele>119.6</ele>
        <time>2022-03-23T14:12:43Z</time>
      </trkpt>
      <trkpt lat="49.85595" lon="2.12595">
        <ele>119.6</ele>
        <time>2022-03-23T14:12:44Z</time>
      </trkpt>
      <trkpt lat="49.85596" lon="2.12593">
        <ele>119.6</ele>
        <time>2022-03-23T14:12:45Z</time>
      </trkpt>
      <trkpt lat="49.85596" lon="2.12591">
        <ele>119.6</ele>
        <time>2022-03-23T14:12:46Z</time>
      </trkpt>
      <trkpt lat="49.85597" lon="2.12589">
        <ele>119.6</ele>
        <time>2022-03-23T14:12:47Z</time>
      </trkpt>
      <trkpt lat="49.85597" lon="2.12587">
        <ele>119.6</ele>
        <time>2022-03-23T14:12:48Z</time>
      </trkpt>
      <trkpt lat="49.85598" lon="2.12584">
        <ele>119.6</ele>
        <time>2022-03-23T14:12:49Z</time>
      </trkpt>
      <trkpt lat="49.85598" lon="2.12583">
        <ele>119.6</ele>
        <time>2022-03-23T14:12:50Z</time>
      </trkpt>
      <trkpt lat="49.85598" lon="2.12581">
        <ele>119.6</ele>
        <time>2022-03-23T14:12:51Z</time>
      </trkpt>
      <trkpt lat="49.85599" lon="2.12579">
        <ele>119.6</ele>
        <time>2022-03-23T14:12:53Z</time>
      </trkpt>
      <trkpt lat="49.856" lon="2.12577">
        <ele>119.6</ele>
        <time>2022-03-23T14:12:54Z</time>
      </trkpt>
      <trkpt lat="49.85601" lon="2.12574">
        <ele>119.6</ele>
        <time>2022-03-23T14:12:55Z</time>
      </trkpt>
      <trkpt lat="49.85601" lon="2.12573">
        <ele>119.6</ele>
        <time>2022-03-23T14:12:56Z</time>
      </trkpt>
      <trkpt lat="49.85602" lon="2.12573">
        <ele>119.6</ele>
        <time>2022-03-23T14:12:57Z</time>
      </trkpt>
      <trkpt lat="49.85602" lon="2.12571">
        <ele>119.6</ele>
        <time>2022-03-23T14:12:58Z</time>
      </trkpt>
      <trkpt lat="49.85603" lon="2.12569">
        <ele>119.5</ele>
        <time>2022-03-23T14:12:59Z</time>
      </trkpt>
      <trkpt lat="49.85604" lon="2.12567">
        <ele>119.5</ele>
        <time>2022-03-23T14:13:00Z</time>
      </trkpt>
      <trkpt lat="49.85604" lon="2.12565">
        <ele>119.5</ele>
        <time>2022-03-23T14:13:01Z</time>
      </trkpt>
      <trkpt lat="49.85605" lon="2.12563">
        <ele>119.5</ele>
        <time>2022-03-23T14:13:02Z</time>
      </trkpt>
      <trkpt lat="49.85606" lon="2.12562">
        <ele>119.5</ele>
        <time>2022-03-23T14:13:03Z</time>
      </trkpt>
      <trkpt lat="49.85606" lon="2.1256">
        <ele>119.5</ele>
        <time>2022-03-23T14:13:05Z</time>
      </trkpt>
      <trkpt lat="49.85607" lon="2.12557">
        <ele>119.5</ele>
        <time>2022-03-23T14:13:06Z</time>
      </trkpt>
      <trkpt lat="49.85608" lon="2.12556">
        <ele>119.5</ele>
        <time>2022-03-23T14:13:07Z</time>
      </trkpt>
      <trkpt lat="49.85608" lon="2.12555">
        <ele>119.5</ele>
        <time>2022-03-23T14:13:08Z</time>
      </trkpt>
      <trkpt lat="49.85609" lon="2.12552">
        <ele>119.5</ele>
        <time>2022-03-23T14:13:09Z</time>
      </trkpt>
      <trkpt lat="49.8561" lon="2.12551">
        <ele>119.5</ele>
        <time>2022-03-23T14:13:10Z</time>
      </trkpt>
      <trkpt lat="49.8561" lon="2.1255">
        <ele>119.5</ele>
        <time>2022-03-23T14:13:11Z</time>
      </trkpt>
      <trkpt lat="49.85611" lon="2.12548">
        <ele>119.4</ele>
        <time>2022-03-23T14:13:12Z</time>
      </trkpt>
      <trkpt lat="49.85612" lon="2.12546">
        <ele>119.4</ele>
        <time>2022-03-23T14:13:13Z</time>
      </trkpt>
      <trkpt lat="49.85612" lon="2.12543">
        <ele>119.4</ele>
        <time>2022-03-23T14:13:14Z</time>
      </trkpt>
      <trkpt lat="49.85613" lon="2.12542">
        <ele>119.4</ele>
        <time>2022-03-23T14:13:16Z</time>
      </trkpt>
      <trkpt lat="49.85613" lon="2.12541">
        <ele>119.4</ele>
        <time>2022-03-23T14:13:17Z</time>
      </trkpt>
      <trkpt lat="49.85614" lon="2.12538">
        <ele>119.4</ele>
        <time>2022-03-23T14:13:18Z</time>
      </trkpt>
      <trkpt lat="49.85614" lon="2.12536">
        <ele>119.4</ele>
        <time>2022-03-23T14:13:19Z</time>
      </trkpt>
      <trkpt lat="49.85614" lon="2.12535">
        <ele>119.4</ele>
        <time>2022-03-23T14:13:20Z</time>
      </trkpt>
      <trkpt lat="49.85615" lon="2.12533">
        <ele>119.4</ele>
        <time>2022-03-23T14:13:21Z</time>
      </trkpt>
      <trkpt lat="49.85615" lon="2.12531">
        <ele>119.4</ele>
        <time>2022-03-23T14:13:22Z</time>
      </trkpt>
      <trkpt lat="49.85616" lon="2.12528">
        <ele>119.3</ele>
        <time>2022-03-23T14:13:23Z</time>
      </trkpt>
      <trkpt lat="49.85616" lon="2.12526">
        <ele>119.3</ele>
        <time>2022-03-23T14:13:24Z</time>
      </trkpt>
      <trkpt lat="49.85616" lon="2.12525">
        <ele>119.3</ele>
        <time>2022-03-23T14:13:25Z</time>
      </trkpt>
      <trkpt lat="49.85617" lon="2.12523">
        <ele>119.3</ele>
        <time>2022-03-23T14:13:26Z</time>
      </trkpt>
      <trkpt lat="49.85617" lon="2.12521">
        <ele>119.3</ele>
        <time>2022-03-23T14:13:28Z</time>
      </trkpt>
      <trkpt lat="49.85618" lon="2.12517">
        <ele>119.3</ele>
        <time>2022-03-23T14:13:30Z</time>
      </trkpt>
      <trkpt lat="49.85619" lon="2.12515">
        <ele>119.3</ele>
        <time>2022-03-23T14:13:31Z</time>
      </trkpt>
      <trkpt lat="49.85619" lon="2.12513">
        <ele>119.3</ele>
        <time>2022-03-23T14:13:32Z</time>
      </trkpt>
      <trkpt lat="49.8562" lon="2.12511">
        <ele>119.3</ele>
        <time>2022-03-23T14:13:33Z</time>
      </trkpt>
      <trkpt lat="49.8562" lon="2.12509">
        <ele>119.3</ele>
        <time>2022-03-23T14:13:34Z</time>
      </trkpt>
      <trkpt lat="49.85621" lon="2.12507">
        <ele>119.3</ele>
        <time>2022-03-23T14:13:35Z</time>
      </trkpt>
      <trkpt lat="49.85622" lon="2.12505">
        <ele>119.3</ele>
        <time>2022-03-23T14:13:36Z</time>
      </trkpt>
      <trkpt lat="49.85622" lon="2.12503">
        <ele>119.3</ele>
        <time>2022-03-23T14:13:37Z</time>
      </trkpt>
      <trkpt lat="49.85623" lon="2.12502">
        <ele>119.3</ele>
        <time>2022-03-23T14:13:38Z</time>
      </trkpt>
      <trkpt lat="49.85624" lon="2.12499">
        <ele>119.3</ele>
        <time>2022-03-23T14:13:39Z</time>
      </trkpt>
      <trkpt lat="49.85624" lon="2.12497">
        <ele>119.3</ele>
        <time>2022-03-23T14:13:41Z</time>
      </trkpt>
      <trkpt lat="49.85625" lon="2.12496">
        <ele>119.3</ele>
        <time>2022-03-23T14:13:42Z</time>
      </trkpt>
      <trkpt lat="49.85625" lon="2.12494">
        <ele>119.3</ele>
        <time>2022-03-23T14:13:43Z</time>
      </trkpt>
      <trkpt lat="49.85625" lon="2.12493">
        <ele>119.3</ele>
        <time>2022-03-23T14:13:44Z</time>
      </trkpt>
      <trkpt lat="49.85626" lon="2.12491">
        <ele>119.3</ele>
        <time>2022-03-23T14:13:45Z</time>
      </trkpt>
      <trkpt lat="49.85626" lon="2.12489">
        <ele>119.3</ele>
        <time>2022-03-23T14:13:46Z</time>
      </trkpt>
      <trkpt lat="49.85627" lon="2.12486">
        <ele>119.3</ele>
        <time>2022-03-23T14:13:47Z</time>
      </trkpt>
      <trkpt lat="49.85628" lon="2.12485">
        <ele>119.3</ele>
        <time>2022-03-23T14:13:48Z</time>
      </trkpt>
      <trkpt lat="49.85628" lon="2.12484">
        <ele>119.3</ele>
        <time>2022-03-23T14:13:49Z</time>
      </trkpt>
      <trkpt lat="49.85628" lon="2.12482">
        <ele>119.3</ele>
        <time>2022-03-23T14:13:50Z</time>
      </trkpt>
      <trkpt lat="49.85629" lon="2.1248">
        <ele>119.3</ele>
        <time>2022-03-23T14:13:51Z</time>
      </trkpt>
      <trkpt lat="49.85629" lon="2.12478">
        <ele>119.3</ele>
        <time>2022-03-23T14:13:53Z</time>
      </trkpt>
      <trkpt lat="49.8563" lon="2.12475">
        <ele>119.3</ele>
        <time>2022-03-23T14:13:54Z</time>
      </trkpt>
      <trkpt lat="49.8563" lon="2.12474">
        <ele>119.3</ele>
        <time>2022-03-23T14:13:55Z</time>
      </trkpt>
      <trkpt lat="49.8563" lon="2.12473">
        <ele>119.3</ele>
        <time>2022-03-23T14:13:56Z</time>
      </trkpt>
      <trkpt lat="49.85631" lon="2.12471">
        <ele>119.3</ele>
        <time>2022-03-23T14:13:57Z</time>
      </trkpt>
      <trkpt lat="49.85631" lon="2.12469">
        <ele>119.3</ele>
        <time>2022-03-23T14:13:58Z</time>
      </trkpt>
      <trkpt lat="49.85632" lon="2.12466">
        <ele>119.3</ele>
        <time>2022-03-23T14:13:59Z</time>
      </trkpt>
      <trkpt lat="49.85632" lon="2.12464">
        <ele>119.3</ele>
        <time>2022-03-23T14:14:00Z</time>
      </trkpt>
      <trkpt lat="49.85633" lon="2.12462">
        <ele>119.3</ele>
        <time>2022-03-23T14:14:01Z</time>
      </trkpt>
      <trkpt lat="49.85633" lon="2.1246">
        <ele>119.3</ele>
        <time>2022-03-23T14:14:02Z</time>
      </trkpt>
      <trkpt lat="49.85633" lon="2.12458">
        <ele>119.3</ele>
        <time>2022-03-23T14:14:03Z</time>
      </trkpt>
      <trkpt lat="49.85634" lon="2.12456">
        <ele>119.3</ele>
        <time>2022-03-23T14:14:05Z</time>
      </trkpt>
      <trkpt lat="49.85635" lon="2.12454">
        <ele>119.3</ele>
        <time>2022-03-23T14:14:06Z</time>
      </trkpt>
      <trkpt lat="49.85635" lon="2.12452">
        <ele>119.3</ele>
        <time>2022-03-23T14:14:07Z</time>
      </trkpt>
      <trkpt lat="49.85636" lon="2.1245">
        <ele>119.3</ele>
        <time>2022-03-23T14:14:08Z</time>
      </trkpt>
      <trkpt lat="49.85637" lon="2.12448">
        <ele>119.3</ele>
        <time>2022-03-23T14:14:09Z</time>
      </trkpt>
      <trkpt lat="49.85637" lon="2.12446">
        <ele>119.3</ele>
        <time>2022-03-23T14:14:10Z</time>
      </trkpt>
      <trkpt lat="49.85638" lon="2.12444">
        <ele>119.4</ele>
        <time>2022-03-23T14:14:11Z</time>
      </trkpt>
      <trkpt lat="49.85639" lon="2.12441">
        <ele>119.4</ele>
        <time>2022-03-23T14:14:12Z</time>
      </trkpt>
      <trkpt lat="49.85639" lon="2.1244">
        <ele>119.4</ele>
        <time>2022-03-23T14:14:13Z</time>
      </trkpt>
      <trkpt lat="49.8564" lon="2.12439">
        <ele>119.4</ele>
        <time>2022-03-23T14:14:14Z</time>
      </trkpt>
      <trkpt lat="49.85641" lon="2.12436">
        <ele>119.4</ele>
        <time>2022-03-23T14:14:15Z</time>
      </trkpt>
      <trkpt lat="49.85641" lon="2.12434">
        <ele>119.4</ele>
        <time>2022-03-23T14:14:17Z</time>
      </trkpt>
      <trkpt lat="49.85642" lon="2.12433">
        <ele>119.4</ele>
        <time>2022-03-23T14:14:18Z</time>
      </trkpt>
      <trkpt lat="49.85642" lon="2.12431">
        <ele>119.4</ele>
        <time>2022-03-23T14:14:19Z</time>
      </trkpt>
      <trkpt lat="49.85642" lon="2.1243">
        <ele>119.4</ele>
        <time>2022-03-23T14:14:20Z</time>
      </trkpt>
      <trkpt lat="49.85643" lon="2.12427">
        <ele>119.4</ele>
        <time>2022-03-23T14:14:21Z</time>
      </trkpt>
      <trkpt lat="49.85644" lon="2.12426">
        <ele>119.4</ele>
        <time>2022-03-23T14:14:22Z</time>
      </trkpt>
      <trkpt lat="49.85644" lon="2.12425">
        <ele>119.4</ele>
        <time>2022-03-23T14:14:23Z</time>
      </trkpt>
      <trkpt lat="49.85645" lon="2.12422">
        <ele>119.4</ele>
        <time>2022-03-23T14:14:24Z</time>
      </trkpt>
      <trkpt lat="49.85645" lon="2.12421">
        <ele>119.4</ele>
        <time>2022-03-23T14:14:25Z</time>
      </trkpt>
      <trkpt lat="49.85646" lon="2.12419">
        <ele>119.4</ele>
        <time>2022-03-23T14:14:26Z</time>
      </trkpt>
      <trkpt lat="49.85646" lon="2.12418">
        <ele>119.4</ele>
        <time>2022-03-23T14:14:28Z</time>
      </trkpt>
      <trkpt lat="49.85646" lon="2.12416">
        <ele>119.4</ele>
        <time>2022-03-23T14:14:29Z</time>
      </trkpt>
      <trkpt lat="49.85647" lon="2.12415">
        <ele>119.4</ele>
        <time>2022-03-23T14:14:30Z</time>
      </trkpt>
      <trkpt lat="49.85647" lon="2.12413">
        <ele>119.4</ele>
        <time>2022-03-23T14:14:31Z</time>
      </trkpt>
      <trkpt lat="49.85648" lon="2.12412">
        <ele>119.4</ele>
        <time>2022-03-23T14:14:32Z</time>
      </trkpt>
      <trkpt lat="49.85649" lon="2.1241">
        <ele>119.4</ele>
        <time>2022-03-23T14:14:33Z</time>
      </trkpt>
      <trkpt lat="49.85649" lon="2.12408">
        <ele>119.4</ele>
        <time>2022-03-23T14:14:34Z</time>
      </trkpt>
      <trkpt lat="49.8565" lon="2.12407">
        <ele>119.4</ele>
        <time>2022-03-23T14:14:35Z</time>
      </trkpt>
      <trkpt lat="49.85651" lon="2.12404">
        <ele>119.4</ele>
        <time>2022-03-23T14:14:36Z</time>
      </trkpt>
      <trkpt lat="49.85652" lon="2.12403">
        <ele>119.4</ele>
        <time>2022-03-23T14:14:38Z</time>
      </trkpt>
      <trkpt lat="49.85652" lon="2.12401">
        <ele>119.4</ele>
        <time>2022-03-23T14:14:39Z</time>
      </trkpt>
      <trkpt lat="49.85653" lon="2.124">
        <ele>119.4</ele>
        <time>2022-03-23T14:14:40Z</time>
      </trkpt>
      <trkpt lat="49.85654" lon="2.12399">
        <ele>119.4</ele>
        <time>2022-03-23T14:14:41Z</time>
      </trkpt>
      <trkpt lat="49.85654" lon="2.12397">
        <ele>119.4</ele>
        <time>2022-03-23T14:14:42Z</time>
      </trkpt>
      <trkpt lat="49.85655" lon="2.12396">
        <ele>119.4</ele>
        <time>2022-03-23T14:14:43Z</time>
      </trkpt>
      <trkpt lat="49.85656" lon="2.12394">
        <ele>119.4</ele>
        <time>2022-03-23T14:14:44Z</time>
      </trkpt>
      <trkpt lat="49.85656" lon="2.12393">
        <ele>119.4</ele>
        <time>2022-03-23T14:14:46Z</time>
      </trkpt>
      <trkpt lat="49.85657" lon="2.12391">
        <ele>119.4</ele>
        <time>2022-03-23T14:14:47Z</time>
      </trkpt>
      <trkpt lat="49.85658" lon="2.1239">
        <ele>119.4</ele>
        <time>2022-03-23T14:14:48Z</time>
      </trkpt>
      <trkpt lat="49.85658" lon="2.12389">
        <ele>119.4</ele>
        <time>2022-03-23T14:14:49Z</time>
      </trkpt>
      <trkpt lat="49.85659" lon="2.12388">
        <ele>119.4</ele>
        <time>2022-03-23T14:14:50Z</time>
      </trkpt>
      <trkpt lat="49.8566" lon="2.12386">
        <ele>119.4</ele>
        <time>2022-03-23T14:14:51Z</time>
      </trkpt>
      <trkpt lat="49.85661" lon="2.12384">
        <ele>119.4</ele>
        <time>2022-03-23T14:14:53Z</time>
      </trkpt>
      <trkpt lat="49.85661" lon="2.12382">
        <ele>119.4</ele>
        <time>2022-03-23T14:14:55Z</time>
      </trkpt>
      <trkpt lat="49.85661" lon="2.12381">
        <ele>119.3</ele>
        <time>2022-03-23T14:14:56Z</time>
      </trkpt>
      <trkpt lat="49.85661" lon="2.1238">
        <ele>119.3</ele>
        <time>2022-03-23T14:14:57Z</time>
      </trkpt>
      <trkpt lat="49.85661" lon="2.12378">
        <ele>119.3</ele>
        <time>2022-03-23T14:14:58Z</time>
      </trkpt>
      <trkpt lat="49.85662" lon="2.12377">
        <ele>119.3</ele>
        <time>2022-03-23T14:15:00Z</time>
      </trkpt>
      <trkpt lat="49.85662" lon="2.12376">
        <ele>119.3</ele>
        <time>2022-03-23T14:15:01Z</time>
      </trkpt>
      <trkpt lat="49.85663" lon="2.12374">
        <ele>119.3</ele>
        <time>2022-03-23T14:15:02Z</time>
      </trkpt>
      <trkpt lat="49.85663" lon="2.12373">
        <ele>119.3</ele>
        <time>2022-03-23T14:15:03Z</time>
      </trkpt>
      <trkpt lat="49.85663" lon="2.12372">
        <ele>119.3</ele>
        <time>2022-03-23T14:15:04Z</time>
      </trkpt>
      <trkpt lat="49.85664" lon="2.12371">
        <ele>119.3</ele>
        <time>2022-03-23T14:15:05Z</time>
      </trkpt>
      <trkpt lat="49.85664" lon="2.12369">
        <ele>119.3</ele>
        <time>2022-03-23T14:15:07Z</time>
      </trkpt>
      <trkpt lat="49.85664" lon="2.12369">
        <ele>119.3</ele>
        <time>2022-03-23T14:15:08Z</time>
      </trkpt>
      <trkpt lat="49.85664" lon="2.12368">
        <ele>119.3</ele>
        <time>2022-03-23T14:15:09Z</time>
      </trkpt>
      <trkpt lat="49.85664" lon="2.12368">
        <ele>119.3</ele>
        <time>2022-03-23T14:15:10Z</time>
      </trkpt>
      <trkpt lat="49.85664" lon="2.12368">
        <ele>119.3</ele>
        <time>2022-03-23T14:15:11Z</time>
      </trkpt>
      <trkpt lat="49.85664" lon="2.12368">
        <ele>119.3</ele>
        <time>2022-03-23T14:15:12Z</time>
      </trkpt>
      <trkpt lat="49.85664" lon="2.12368">
        <ele>119.3</ele>
        <time>2022-03-23T14:15:13Z</time>
      </trkpt>
      <trkpt lat="49.85664" lon="2.12368">
        <ele>119.3</ele>
        <time>2022-03-23T14:15:14Z</time>
      </trkpt>
      <trkpt lat="49.85663" lon="2.12369">
        <ele>119.3</ele>
        <time>2022-03-23T14:15:15Z</time>
      </trkpt>
      <trkpt lat="49.85663" lon="2.12369">
        <ele>119.3</ele>
        <time>2022-03-23T14:15:17Z</time>
      </trkpt>
      <trkpt lat="49.85663" lon="2.12368">
        <ele>119.3</ele>
        <time>2022-03-23T14:15:18Z</time>
      </trkpt>
      <trkpt lat="49.85663" lon="2.12368">
        <ele>119.3</ele>
        <time>2022-03-23T14:15:19Z</time>
      </trkpt>
      <trkpt lat="49.85663" lon="2.12368">
        <ele>119.3</ele>
        <time>2022-03-23T14:15:20Z</time>
      </trkpt>
      <trkpt lat="49.85663" lon="2.12368">
        <ele>119.3</ele>
        <time>2022-03-23T14:15:21Z</time>
      </trkpt>
      <trkpt lat="49.85663" lon="2.12369">
        <ele>119.3</ele>
        <time>2022-03-23T14:15:22Z</time>
      </trkpt>
      <trkpt lat="49.85663" lon="2.12369">
        <ele>119.3</ele>
        <time>2022-03-23T14:15:23Z</time>
      </trkpt>
      <trkpt lat="49.85663" lon="2.12369">
        <ele>119.3</ele>
        <time>2022-03-23T14:15:24Z</time>
      </trkpt>
      <trkpt lat="49.85663" lon="2.1237">
        <ele>119.3</ele>
        <time>2022-03-23T14:15:25Z</time>
      </trkpt>
      <trkpt lat="49.85663" lon="2.1237">
        <ele>119.3</ele>
        <time>2022-03-23T14:15:26Z</time>
      </trkpt>
      <trkpt lat="49.85662" lon="2.1237">
        <ele>119.3</ele>
        <time>2022-03-23T14:15:27Z</time>
      </trkpt>
      <trkpt lat="49.85662" lon="2.1237">
        <ele>119.3</ele>
        <time>2022-03-23T14:15:28Z</time>
      </trkpt>
      <trkpt lat="49.85662" lon="2.1237">
        <ele>119.3</ele>
        <time>2022-03-23T14:15:29Z</time>
      </trkpt>
      <trkpt lat="49.85662" lon="2.1237">
        <ele>119.3</ele>
        <time>2022-03-23T14:15:30Z</time>
      </trkpt>
      <trkpt lat="49.85662" lon="2.1237">
        <ele>119.3</ele>
        <time>2022-03-23T14:15:31Z</time>
      </trkpt>
      <trkpt lat="49.85662" lon="2.1237">
        <ele>119.3</ele>
        <time>2022-03-23T14:15:32Z</time>
      </trkpt>
      <trkpt lat="49.85662" lon="2.12371">
        <ele>119.3</ele>
        <time>2022-03-23T14:15:34Z</time>
      </trkpt>
      <trkpt lat="49.85662" lon="2.12372">
        <ele>119.3</ele>
        <time>2022-03-23T14:15:35Z</time>
      </trkpt>
      <trkpt lat="49.85661" lon="2.12372">
        <ele>119.3</ele>
        <time>2022-03-23T14:15:36Z</time>
      </trkpt>
      <trkpt lat="49.85661" lon="2.12373">
        <ele>119.3</ele>
        <time>2022-03-23T14:15:37Z</time>
      </trkpt>
      <trkpt lat="49.85661" lon="2.12374">
        <ele>119.3</ele>
        <time>2022-03-23T14:15:38Z</time>
      </trkpt>
      <trkpt lat="49.8566" lon="2.12374">
        <ele>119.3</ele>
        <time>2022-03-23T14:15:39Z</time>
      </trkpt>
      <trkpt lat="49.8566" lon="2.12375">
        <ele>119.3</ele>
        <time>2022-03-23T14:15:40Z</time>
      </trkpt>
      <trkpt lat="49.8566" lon="2.12375">
        <ele>119.3</ele>
        <time>2022-03-23T14:15:41Z</time>
      </trkpt>
      <trkpt lat="49.8566" lon="2.12375">
        <ele>119.3</ele>
        <time>2022-03-23T14:15:42Z</time>
      </trkpt>
      <trkpt lat="49.8566" lon="2.12375">
        <ele>119.3</ele>
        <time>2022-03-23T14:15:43Z</time>
      </trkpt>
      <trkpt lat="49.8566" lon="2.12375">
        <ele>119.3</ele>
        <time>2022-03-23T14:15:44Z</time>
      </trkpt>
      <trkpt lat="49.8566" lon="2.12375">
        <ele>119.3</ele>
        <time>2022-03-23T14:15:45Z</time>
      </trkpt>
      <trkpt lat="49.8566" lon="2.12375">
        <ele>119.3</ele>
        <time>2022-03-23T14:15:46Z</time>
      </trkpt>
      <trkpt lat="49.8566" lon="2.12375">
        <ele>119.3</ele>
        <time>2022-03-23T14:15:47Z</time>
      </trkpt>
      <trkpt lat="49.8566" lon="2.12375">
        <ele>119.3</ele>
        <time>2022-03-23T14:15:48Z</time>
      </trkpt>
      <trkpt lat="49.8566" lon="2.12375">
        <ele>119.3</ele>
        <time>2022-03-23T14:15:49Z</time>
      </trkpt>
      <trkpt lat="49.8566" lon="2.12375">
        <ele>119.3</ele>
        <time>2022-03-23T14:15:50Z</time>
      </trkpt>
      <trkpt lat="49.8566" lon="2.12375">
        <ele>119.3</ele>
        <time>2022-03-23T14:15:51Z</time>
      </trkpt>
      <trkpt lat="49.8566" lon="2.12375">
        <ele>119.3</ele>
        <time>2022-03-23T14:15:52Z</time>
      </trkpt>
      <trkpt lat="49.8566" lon="2.12375">
        <ele>119.3</ele>
        <time>2022-03-23T14:15:53Z</time>
      </trkpt>
      <trkpt lat="49.8566" lon="2.12375">
        <ele>119.3</ele>
        <time>2022-03-23T14:15:54Z</time>
      </trkpt>
      <trkpt lat="49.8566" lon="2.12375">
        <ele>119.3</ele>
        <time>2022-03-23T14:15:55Z</time>
      </trkpt>
      <trkpt lat="49.8566" lon="2.12375">
        <ele>119.3</ele>
        <time>2022-03-23T14:15:56Z</time>
      </trkpt>
      <trkpt lat="49.8566" lon="2.12375">
        <ele>119.3</ele>
        <time>2022-03-23T14:15:57Z</time>
      </trkpt>
      <trkpt lat="49.8566" lon="2.12375">
        <ele>119.3</ele>
        <time>2022-03-23T14:15:58Z</time>
      </trkpt>
      <trkpt lat="49.8566" lon="2.12375">
        <ele>119.3</ele>
        <time>2022-03-23T14:15:59Z</time>
      </trkpt>
      <trkpt lat="49.8566" lon="2.12375">
        <ele>119.3</ele>
        <time>2022-03-23T14:16:00Z</time>
      </trkpt>
      <trkpt lat="49.8566" lon="2.12375">
        <ele>119.3</ele>
        <time>2022-03-23T14:16:01Z</time>
      </trkpt>
      <trkpt lat="49.8566" lon="2.12375">
        <ele>119.3</ele>
        <time>2022-03-23T14:16:02Z</time>
      </trkpt>
      <trkpt lat="49.8566" lon="2.12375">
        <ele>119.3</ele>
        <time>2022-03-23T14:16:03Z</time>
      </trkpt>
      <trkpt lat="49.8566" lon="2.12375">
        <ele>119.3</ele>
        <time>2022-03-23T14:16:04Z</time>
      </trkpt>
      <trkpt lat="49.8566" lon="2.12375">
        <ele>119.3</ele>
        <time>2022-03-23T14:16:05Z</time>
      </trkpt>
      <trkpt lat="49.8566" lon="2.12375">
        <ele>119.3</ele>
        <time>2022-03-23T14:16:06Z</time>
      </trkpt>
      <trkpt lat="49.8566" lon="2.12375">
        <ele>119.3</ele>
        <time>2022-03-23T14:16:07Z</time>
      </trkpt>
      <trkpt lat="49.8566" lon="2.12375">
        <ele>119.3</ele>
        <time>2022-03-23T14:16:08Z</time>
      </trkpt>
      <trkpt lat="49.8566" lon="2.12375">
        <ele>119.3</ele>
        <time>2022-03-23T14:16:09Z</time>
      </trkpt>
      <trkpt lat="49.8566" lon="2.12375">
        <ele>119.3</ele>
        <time>2022-03-23T14:16:10Z</time>
      </trkpt>
      <trkpt lat="49.8566" lon="2.12375">
        <ele>119.3</ele>
        <time>2022-03-23T14:16:11Z</time>
      </trkpt>
      <trkpt lat="49.8566" lon="2.12375">
        <ele>119.3</ele>
        <time>2022-03-23T14:16:12Z</time>
      </trkpt>
      <trkpt lat="49.8566" lon="2.12375">
        <ele>119.3</ele>
        <time>2022-03-23T14:16:13Z</time>
      </trkpt>
      <trkpt lat="49.8566" lon="2.12375">
        <ele>119.3</ele>
        <time>2022-03-23T14:16:14Z</time>
      </trkpt>
      <trkpt lat="49.8566" lon="2.12375">
        <ele>119.3</ele>
        <time>2022-03-23T14:16:15Z</time>
      </trkpt>
      <trkpt lat="49.8566" lon="2.12375">
        <ele>119.3</ele>
        <time>2022-03-23T14:16:16Z</time>
      </trkpt>
      <trkpt lat="49.8566" lon="2.12375">
        <ele>119.3</ele>
        <time>2022-03-23T14:16:17Z</time>
      </trkpt>
      <trkpt lat="49.8566" lon="2.12375">
        <ele>119.3</ele>
        <time>2022-03-23T14:16:18Z</time>
      </trkpt>
      <trkpt lat="49.8566" lon="2.12375">
        <ele>119.3</ele>
        <time>2022-03-23T14:16:19Z</time>
      </trkpt>
      <trkpt lat="49.8566" lon="2.12375">
        <ele>119.3</ele>
        <time>2022-03-23T14:16:20Z</time>
      </trkpt>
      <trkpt lat="49.8566" lon="2.12375">
        <ele>119.3</ele>
        <time>2022-03-23T14:16:21Z</time>
      </trkpt>
      <trkpt lat="49.8566" lon="2.12375">
        <ele>119.3</ele>
        <time>2022-03-23T14:16:22Z</time>
      </trkpt>
      <trkpt lat="49.8566" lon="2.12375">
        <ele>119.3</ele>
        <time>2022-03-23T14:16:23Z</time>
      </trkpt>
      <trkpt lat="49.8566" lon="2.12375">
        <ele>119.3</ele>
        <time>2022-03-23T14:16:24Z</time>
      </trkpt>
      <trkpt lat="49.8566" lon="2.12375">
        <ele>119.3</ele>
        <time>2022-03-23T14:16:25Z</time>
      </trkpt>
      <trkpt lat="49.8566" lon="2.12375">
        <ele>119.3</ele>
        <time>2022-03-23T14:16:26Z</time>
      </trkpt>
      <trkpt lat="49.8566" lon="2.12375">
        <ele>119.3</ele>
        <time>2022-03-23T14:16:27Z</time>
      </trkpt>
      <trkpt lat="49.8566" lon="2.12373">
        <ele>119.3</ele>
        <time>2022-03-23T14:16:28Z</time>
      </trkpt>
      <trkpt lat="49.8566" lon="2.12372">
        <ele>119.3</ele>
        <time>2022-03-23T14:16:29Z</time>
      </trkpt>
      <trkpt lat="49.8566" lon="2.12372">
        <ele>119.3</ele>
        <time>2022-03-23T14:16:30Z</time>
      </trkpt>
      <trkpt lat="49.8566" lon="2.12372">
        <ele>119.3</ele>
        <time>2022-03-23T14:16:31Z</time>
      </trkpt>
      <trkpt lat="49.8566" lon="2.12372">
        <ele>119.3</ele>
        <time>2022-03-23T14:16:32Z</time>
      </trkpt>
      <trkpt lat="49.8566" lon="2.12373">
        <ele>119.3</ele>
        <time>2022-03-23T14:16:33Z</time>
      </trkpt>
      <trkpt lat="49.8566" lon="2.12372">
        <ele>119.3</ele>
        <time>2022-03-23T14:16:34Z</time>
      </trkpt>
      <trkpt lat="49.8566" lon="2.12372">
        <ele>119.3</ele>
        <time>2022-03-23T14:16:35Z</time>
      </trkpt>
      <trkpt lat="49.8566" lon="2.12372">
        <ele>119.3</ele>
        <time>2022-03-23T14:16:36Z</time>
      </trkpt>
      <trkpt lat="49.8566" lon="2.12372">
        <ele>119.3</ele>
        <time>2022-03-23T14:16:37Z</time>
      </trkpt>
      <trkpt lat="49.8566" lon="2.12372">
        <ele>119.3</ele>
        <time>2022-03-23T14:16:38Z</time>
      </trkpt>
      <trkpt lat="49.8566" lon="2.12372">
        <ele>119.3</ele>
        <time>2022-03-23T14:16:39Z</time>
      </trkpt>
      <trkpt lat="49.85661" lon="2.12372">
        <ele>119.3</ele>
        <time>2022-03-23T14:16:40Z</time>
      </trkpt>
      <trkpt lat="49.8566" lon="2.12372">
        <ele>119.3</ele>
        <time>2022-03-23T14:16:41Z</time>
      </trkpt>
      <trkpt lat="49.8566" lon="2.12372">
        <ele>119.4</ele>
        <time>2022-03-23T14:16:42Z</time>
      </trkpt>
      <trkpt lat="49.8566" lon="2.12372">
        <ele>119.4</ele>
        <time>2022-03-23T14:16:43Z</time>
      </trkpt>
      <trkpt lat="49.8566" lon="2.12372">
        <ele>119.4</ele>
        <time>2022-03-23T14:16:44Z</time>
      </trkpt>
      <trkpt lat="49.8566" lon="2.12372">
        <ele>119.4</ele>
        <time>2022-03-23T14:16:45Z</time>
      </trkpt>
      <trkpt lat="49.8566" lon="2.12372">
        <ele>119.4</ele>
        <time>2022-03-23T14:16:46Z</time>
      </trkpt>
      <trkpt lat="49.8566" lon="2.12372">
        <ele>119.4</ele>
        <time>2022-03-23T14:16:47Z</time>
      </trkpt>
      <trkpt lat="49.8566" lon="2.12372">
        <ele>119.4</ele>
        <time>2022-03-23T14:16:48Z</time>
      </trkpt>
      <trkpt lat="49.8566" lon="2.12373">
        <ele>119.4</ele>
        <time>2022-03-23T14:16:49Z</time>
      </trkpt>
      <trkpt lat="49.85661" lon="2.12373">
        <ele>119.4</ele>
        <time>2022-03-23T14:16:50Z</time>
      </trkpt>
      <trkpt lat="49.85661" lon="2.12373">
        <ele>119.4</ele>
        <time>2022-03-23T14:16:51Z</time>
      </trkpt>
      <trkpt lat="49.85661" lon="2.12373">
        <ele>119.4</ele>
        <time>2022-03-23T14:16:52Z</time>
      </trkpt>
      <trkpt lat="49.85661" lon="2.12373">
        <ele>119.4</ele>
        <time>2022-03-23T14:16:53Z</time>
      </trkpt>
      <trkpt lat="49.85661" lon="2.12373">
        <ele>119.4</ele>
        <time>2022-03-23T14:16:54Z</time>
      </trkpt>
      <trkpt lat="49.85661" lon="2.12373">
        <ele>119.4</ele>
        <time>2022-03-23T14:16:55Z</time>
      </trkpt>
      <trkpt lat="49.85661" lon="2.12373">
        <ele>119.4</ele>
        <time>2022-03-23T14:16:56Z</time>
      </trkpt>
      <trkpt lat="49.85661" lon="2.12373">
        <ele>119.4</ele>
        <time>2022-03-23T14:16:57Z</time>
      </trkpt>
      <trkpt lat="49.85661" lon="2.12373">
        <ele>119.4</ele>
        <time>2022-03-23T14:16:58Z</time>
      </trkpt>
      <trkpt lat="49.85661" lon="2.12373">
        <ele>119.4</ele>
        <time>2022-03-23T14:16:59Z</time>
      </trkpt>
      <trkpt lat="49.85661" lon="2.12373">
        <ele>119.4</ele>
        <time>2022-03-23T14:17:00Z</time>
      </trkpt>
      <trkpt lat="49.85661" lon="2.12373">
        <ele>119.4</ele>
        <time>2022-03-23T14:17:01Z</time>
      </trkpt>
      <trkpt lat="49.85661" lon="2.12373">
        <ele>119.4</ele>
        <time>2022-03-23T14:17:02Z</time>
      </trkpt>
      <trkpt lat="49.85661" lon="2.12373">
        <ele>119.4</ele>
        <time>2022-03-23T14:17:03Z</time>
      </trkpt>
      <trkpt lat="49.85661" lon="2.12373">
        <ele>119.4</ele>
        <time>2022-03-23T14:17:04Z</time>
      </trkpt>
      <trkpt lat="49.85661" lon="2.12373">
        <ele>119.4</ele>
        <time>2022-03-23T14:17:05Z</time>
      </trkpt>
      <trkpt lat="49.85661" lon="2.12373">
        <ele>119.4</ele>
        <time>2022-03-23T14:17:06Z</time>
      </trkpt>
      <trkpt lat="49.85661" lon="2.12373">
        <ele>119.4</ele>
        <time>2022-03-23T14:17:07Z</time>
      </trkpt>
      <trkpt lat="49.85661" lon="2.12373">
        <ele>119.4</ele>
        <time>2022-03-23T14:17:08Z</time>
      </trkpt>
      <trkpt lat="49.85661" lon="2.12373">
        <ele>119.4</ele>
        <time>2022-03-23T14:17:09Z</time>
      </trkpt>
      <trkpt lat="49.85661" lon="2.12373">
        <ele>119.4</ele>
        <time>2022-03-23T14:17:10Z</time>
      </trkpt>
      <trkpt lat="49.85661" lon="2.12373">
        <ele>119.4</ele>
        <time>2022-03-23T14:17:11Z</time>
      </trkpt>
      <trkpt lat="49.85661" lon="2.12373">
        <ele>119.4</ele>
        <time>2022-03-23T14:17:12Z</time>
      </trkpt>
      <trkpt lat="49.85661" lon="2.12373">
        <ele>119.4</ele>
        <time>2022-03-23T14:17:13Z</time>
      </trkpt>
      <trkpt lat="49.85661" lon="2.12373">
        <ele>119.4</ele>
        <time>2022-03-23T14:17:14Z</time>
      </trkpt>
      <trkpt lat="49.85661" lon="2.12373">
        <ele>119.4</ele>
        <time>2022-03-23T14:17:15Z</time>
      </trkpt>
      <trkpt lat="49.85661" lon="2.12373">
        <ele>119.4</ele>
        <time>2022-03-23T14:17:16Z</time>
      </trkpt>
      <trkpt lat="49.85661" lon="2.12373">
        <ele>119.4</ele>
        <time>2022-03-23T14:17:17Z</time>
      </trkpt>
      <trkpt lat="49.85661" lon="2.12373">
        <ele>119.4</ele>
        <time>2022-03-23T14:17:18Z</time>
      </trkpt>
      <trkpt lat="49.85661" lon="2.12373">
        <ele>119.4</ele>
        <time>2022-03-23T14:17:19Z</time>
      </trkpt>
      <trkpt lat="49.85661" lon="2.12373">
        <ele>119.4</ele>
        <time>2022-03-23T14:17:20Z</time>
      </trkpt>
      <trkpt lat="49.85661" lon="2.12373">
        <ele>119.4</ele>
        <time>2022-03-23T14:17:21Z</time>
      </trkpt>
      <trkpt lat="49.85661" lon="2.12373">
        <ele>119.4</ele>
        <time>2022-03-23T14:17:22Z</time>
      </trkpt>
      <trkpt lat="49.85661" lon="2.12373">
        <ele>119.4</ele>
        <time>2022-03-23T14:17:23Z</time>
      </trkpt>
      <trkpt lat="49.85661" lon="2.12373">
        <ele>119.4</ele>
        <time>2022-03-23T14:17:24Z</time>
      </trkpt>
      <trkpt lat="49.85661" lon="2.12373">
        <ele>119.4</ele>
        <time>2022-03-23T14:17:25Z</time>
      </trkpt>
      <trkpt lat="49.85661" lon="2.12373">
        <ele>119.4</ele>
        <time>2022-03-23T14:17:26Z</time>
      </trkpt>
      <trkpt lat="49.85661" lon="2.12373">
        <ele>119.4</ele>
        <time>2022-03-23T14:17:27Z</time>
      </trkpt>
      <trkpt lat="49.85661" lon="2.12373">
        <ele>119.4</ele>
        <time>2022-03-23T14:17:28Z</time>
      </trkpt>
      <trkpt lat="49.85661" lon="2.12373">
        <ele>119.4</ele>
        <time>2022-03-23T14:17:29Z</time>
      </trkpt>
      <trkpt lat="49.85661" lon="2.12373">
        <ele>119.4</ele>
        <time>2022-03-23T14:17:30Z</time>
      </trkpt>
      <trkpt lat="49.85661" lon="2.12373">
        <ele>119.4</ele>
        <time>2022-03-23T14:17:31Z</time>
      </trkpt>
      <trkpt lat="49.85661" lon="2.12373">
        <ele>119.4</ele>
        <time>2022-03-23T14:17:32Z</time>
      </trkpt>
      <trkpt lat="49.85661" lon="2.12373">
        <ele>119.4</ele>
        <time>2022-03-23T14:17:33Z</time>
      </trkpt>
      <trkpt lat="49.85661" lon="2.12373">
        <ele>119.4</ele>
        <time>2022-03-23T14:17:34Z</time>
      </trkpt>
      <trkpt lat="49.85661" lon="2.12373">
        <ele>119.4</ele>
        <time>2022-03-23T14:17:35Z</time>
      </trkpt>
      <trkpt lat="49.85661" lon="2.12373">
        <ele>119.4</ele>
        <time>2022-03-23T14:17:36Z</time>
      </trkpt>
      <trkpt lat="49.85661" lon="2.12373">
        <ele>119.4</ele>
        <time>2022-03-23T14:17:37Z</time>
      </trkpt>
      <trkpt lat="49.85661" lon="2.12373">
        <ele>119.4</ele>
        <time>2022-03-23T14:17:38Z</time>
      </trkpt>
      <trkpt lat="49.85661" lon="2.12373">
        <ele>119.4</ele>
        <time>2022-03-23T14:17:39Z</time>
      </trkpt>
      <trkpt lat="49.85661" lon="2.12373">
        <ele>119.4</ele>
        <time>2022-03-23T14:17:40Z</time>
      </trkpt>
      <trkpt lat="49.85661" lon="2.12373">
        <ele>119.4</ele>
        <time>2022-03-23T14:17:41Z</time>
      </trkpt>
      <trkpt lat="49.85661" lon="2.12373">
        <ele>119.4</ele>
        <time>2022-03-23T14:17:42Z</time>
      </trkpt>
      <trkpt lat="49.85661" lon="2.12373">
        <ele>119.4</ele>
        <time>2022-03-23T14:17:43Z</time>
      </trkpt>
      <trkpt lat="49.85661" lon="2.12373">
        <ele>119.4</ele>
        <time>2022-03-23T14:17:44Z</time>
      </trkpt>
      <trkpt lat="49.85661" lon="2.12373">
        <ele>119.4</ele>
        <time>2022-03-23T14:17:45Z</time>
      </trkpt>
      <trkpt lat="49.85661" lon="2.12373">
        <ele>119.4</ele>
        <time>2022-03-23T14:17:46Z</time>
      </trkpt>
      <trkpt lat="49.85661" lon="2.12373">
        <ele>119.4</ele>
        <time>2022-03-23T14:17:47Z</time>
      </trkpt>
      <trkpt lat="49.85661" lon="2.12373">
        <ele>119.4</ele>
        <time>2022-03-23T14:17:48Z</time>
      </trkpt>
      <trkpt lat="49.85661" lon="2.12373">
        <ele>119.4</ele>
        <time>2022-03-23T14:17:49Z</time>
      </trkpt>
      <trkpt lat="49.85661" lon="2.12373">
        <ele>119.4</ele>
        <time>2022-03-23T14:17:50Z</time>
      </trkpt>
      <trkpt lat="49.85661" lon="2.12373">
        <ele>119.4</ele>
        <time>2022-03-23T14:17:51Z</time>
      </trkpt>
      <trkpt lat="49.85661" lon="2.12373">
        <ele>119.4</ele>
        <time>2022-03-23T14:17:52Z</time>
      </trkpt>
      <trkpt lat="49.85661" lon="2.12373">
        <ele>119.4</ele>
        <time>2022-03-23T14:17:53Z</time>
      </trkpt>
      <trkpt lat="49.85661" lon="2.12373">
        <ele>119.4</ele>
        <time>2022-03-23T14:17:54Z</time>
      </trkpt>
      <trkpt lat="49.85661" lon="2.12373">
        <ele>119.4</ele>
        <time>2022-03-23T14:17:55Z</time>
      </trkpt>
      <trkpt lat="49.85661" lon="2.12373">
        <ele>119.4</ele>
        <time>2022-03-23T14:17:56Z</time>
      </trkpt>
      <trkpt lat="49.85661" lon="2.12373">
        <ele>119.4</ele>
        <time>2022-03-23T14:17:57Z</time>
      </trkpt>
      <trkpt lat="49.85661" lon="2.12373">
        <ele>119.4</ele>
        <time>2022-03-23T14:17:58Z</time>
      </trkpt>
      <trkpt lat="49.85661" lon="2.12373">
        <ele>119.4</ele>
        <time>2022-03-23T14:17:59Z</time>
      </trkpt>
      <trkpt lat="49.85661" lon="2.12373">
        <ele>119.4</ele>
        <time>2022-03-23T14:18:00Z</time>
      </trkpt>
      <trkpt lat="49.85661" lon="2.12373">
        <ele>119.4</ele>
        <time>2022-03-23T14:18:01Z</time>
      </trkpt>
      <trkpt lat="49.85661" lon="2.12373">
        <ele>119.4</ele>
        <time>2022-03-23T14:18:02Z</time>
      </trkpt>
      <trkpt lat="49.85661" lon="2.12373">
        <ele>119.4</ele>
        <time>2022-03-23T14:18:03Z</time>
      </trkpt>
      <trkpt lat="49.85661" lon="2.12373">
        <ele>119.4</ele>
        <time>2022-03-23T14:18:04Z</time>
      </trkpt>
      <trkpt lat="49.85661" lon="2.12373">
        <ele>119.4</ele>
        <time>2022-03-23T14:18:05Z</time>
      </trkpt>
      <trkpt lat="49.85661" lon="2.12373">
        <ele>119.4</ele>
        <time>2022-03-23T14:18:06Z</time>
      </trkpt>
      <trkpt lat="49.85661" lon="2.12373">
        <ele>119.4</ele>
        <time>2022-03-23T14:18:07Z</time>
      </trkpt>
      <trkpt lat="49.85661" lon="2.12373">
        <ele>119.4</ele>
        <time>2022-03-23T14:18:08Z</time>
      </trkpt>
      <trkpt lat="49.85661" lon="2.12373">
        <ele>119.4</ele>
        <time>2022-03-23T14:18:09Z</time>
      </trkpt>
      <trkpt lat="49.85661" lon="2.12373">
        <ele>119.4</ele>
        <time>2022-03-23T14:18:10Z</time>
      </trkpt>
      <trkpt lat="49.85661" lon="2.12373">
        <ele>119.4</ele>
        <time>2022-03-23T14:18:11Z</time>
      </trkpt>
      <trkpt lat="49.85661" lon="2.12373">
        <ele>119.4</ele>
        <time>2022-03-23T14:18:12Z</time>
      </trkpt>
      <trkpt lat="49.85661" lon="2.12373">
        <ele>119.4</ele>
        <time>2022-03-23T14:18:13Z</time>
      </trkpt>
      <trkpt lat="49.85661" lon="2.12373">
        <ele>119.4</ele>
        <time>2022-03-23T14:18:14Z</time>
      </trkpt>
      <trkpt lat="49.85661" lon="2.12373">
        <ele>119.4</ele>
        <time>2022-03-23T14:18:15Z</time>
      </trkpt>
      <trkpt lat="49.85661" lon="2.12373">
        <ele>119.4</ele>
        <time>2022-03-23T14:18:16Z</time>
      </trkpt>
      <trkpt lat="49.85661" lon="2.12373">
        <ele>119.4</ele>
        <time>2022-03-23T14:18:17Z</time>
      </trkpt>
      <trkpt lat="49.85661" lon="2.12373">
        <ele>119.4</ele>
        <time>2022-03-23T14:18:18Z</time>
      </trkpt>
      <trkpt lat="49.85661" lon="2.12373">
        <ele>119.4</ele>
        <time>2022-03-23T14:18:19Z</time>
      </trkpt>
      <trkpt lat="49.85661" lon="2.12373">
        <ele>119.4</ele>
        <time>2022-03-23T14:18:20Z</time>
      </trkpt>
      <trkpt lat="49.85661" lon="2.12373">
        <ele>119.4</ele>
        <time>2022-03-23T14:18:21Z</time>
      </trkpt>
      <trkpt lat="49.85661" lon="2.12373">
        <ele>119.4</ele>
        <time>2022-03-23T14:18:22Z</time>
      </trkpt>
      <trkpt lat="49.85661" lon="2.12373">
        <ele>119.4</ele>
        <time>2022-03-23T14:18:23Z</time>
      </trkpt>
      <trkpt lat="49.85661" lon="2.12373">
        <ele>119.4</ele>
        <time>2022-03-23T14:18:24Z</time>
      </trkpt>
      <trkpt lat="49.85661" lon="2.12373">
        <ele>119.4</ele>
        <time>2022-03-23T14:18:25Z</time>
      </trkpt>
      <trkpt lat="49.85661" lon="2.12373">
        <ele>119.4</ele>
        <time>2022-03-23T14:18:26Z</time>
      </trkpt>
      <trkpt lat="49.85661" lon="2.12373">
        <ele>119.4</ele>
        <time>2022-03-23T14:18:27Z</time>
      </trkpt>
      <trkpt lat="49.85661" lon="2.12373">
        <ele>119.4</ele>
        <time>2022-03-23T14:18:28Z</time>
      </trkpt>
      <trkpt lat="49.85661" lon="2.12373">
        <ele>119.4</ele>
        <time>2022-03-23T14:18:29Z</time>
      </trkpt>
      <trkpt lat="49.85661" lon="2.12373">
        <ele>119.4</ele>
        <time>2022-03-23T14:18:30Z</time>
      </trkpt>
      <trkpt lat="49.85661" lon="2.12373">
        <ele>119.4</ele>
        <time>2022-03-23T14:18:31Z</time>
      </trkpt>
      <trkpt lat="49.85661" lon="2.12373">
        <ele>119.4</ele>
        <time>2022-03-23T14:18:32Z</time>
      </trkpt>
      <trkpt lat="49.85661" lon="2.12373">
        <ele>119.4</ele>
        <time>2022-03-23T14:18:33Z</time>
      </trkpt>
      <trkpt lat="49.8566" lon="2.1237">
        <ele>119.4</ele>
        <time>2022-03-23T14:18:34Z</time>
      </trkpt>
      <trkpt lat="49.8566" lon="2.12368">
        <ele>119.4</ele>
        <time>2022-03-23T14:18:35Z</time>
      </trkpt>
      <trkpt lat="49.8566" lon="2.12366">
        <ele>119.4</ele>
        <time>2022-03-23T14:18:36Z</time>
      </trkpt>
      <trkpt lat="49.8566" lon="2.12365">
        <ele>119.4</ele>
        <time>2022-03-23T14:18:37Z</time>
      </trkpt>
      <trkpt lat="49.8566" lon="2.12364">
        <ele>119.4</ele>
        <time>2022-03-23T14:18:38Z</time>
      </trkpt>
      <trkpt lat="49.8566" lon="2.12363">
        <ele>119.4</ele>
        <time>2022-03-23T14:18:39Z</time>
      </trkpt>
      <trkpt lat="49.8566" lon="2.12362">
        <ele>119.4</ele>
        <time>2022-03-23T14:18:40Z</time>
      </trkpt>
      <trkpt lat="49.8566" lon="2.12361">
        <ele>119.4</ele>
        <time>2022-03-23T14:18:41Z</time>
      </trkpt>
      <trkpt lat="49.8566" lon="2.1236">
        <ele>119.4</ele>
        <time>2022-03-23T14:18:43Z</time>
      </trkpt>
      <trkpt lat="49.8566" lon="2.12357">
        <ele>119.4</ele>
        <time>2022-03-23T14:18:44Z</time>
      </trkpt>
      <trkpt lat="49.8566" lon="2.12356">
        <ele>119.4</ele>
        <time>2022-03-23T14:18:45Z</time>
      </trkpt>
      <trkpt lat="49.8566" lon="2.12354">
        <ele>119.4</ele>
        <time>2022-03-23T14:18:47Z</time>
      </trkpt>
      <trkpt lat="49.8566" lon="2.12352">
        <ele>119.4</ele>
        <time>2022-03-23T14:18:48Z</time>
      </trkpt>
      <trkpt lat="49.85659" lon="2.12351">
        <ele>119.4</ele>
        <time>2022-03-23T14:18:49Z</time>
      </trkpt>
      <trkpt lat="49.85659" lon="2.1235">
        <ele>119.4</ele>
        <time>2022-03-23T14:18:50Z</time>
      </trkpt>
      <trkpt lat="49.85658" lon="2.12348">
        <ele>119.4</ele>
        <time>2022-03-23T14:18:51Z</time>
      </trkpt>
      <trkpt lat="49.85657" lon="2.12346">
        <ele>119.4</ele>
        <time>2022-03-23T14:18:52Z</time>
      </trkpt>
      <trkpt lat="49.85657" lon="2.12344">
        <ele>119.4</ele>
        <time>2022-03-23T14:18:53Z</time>
      </trkpt>
      <trkpt lat="49.85656" lon="2.12343">
        <ele>119.4</ele>
        <time>2022-03-23T14:18:54Z</time>
      </trkpt>
      <trkpt lat="49.85654" lon="2.12342">
        <ele>119.3</ele>
        <time>2022-03-23T14:18:56Z</time>
      </trkpt>
      <trkpt lat="49.85653" lon="2.12341">
        <ele>119.3</ele>
        <time>2022-03-23T14:18:57Z</time>
      </trkpt>
      <trkpt lat="49.85652" lon="2.1234">
        <ele>119.3</ele>
        <time>2022-03-23T14:18:58Z</time>
      </trkpt>
      <trkpt lat="49.85651" lon="2.12339">
        <ele>119.3</ele>
        <time>2022-03-23T14:18:59Z</time>
      </trkpt>
      <trkpt lat="49.85649" lon="2.12338">
        <ele>119.3</ele>
        <time>2022-03-23T14:19:00Z</time>
      </trkpt>
      <trkpt lat="49.85647" lon="2.12337">
        <ele>119.3</ele>
        <time>2022-03-23T14:19:01Z</time>
      </trkpt>
      <trkpt lat="49.85647" lon="2.12336">
        <ele>119.3</ele>
        <time>2022-03-23T14:19:02Z</time>
      </trkpt>
      <trkpt lat="49.85646" lon="2.12336">
        <ele>119.3</ele>
        <time>2022-03-23T14:19:03Z</time>
      </trkpt>
      <trkpt lat="49.85645" lon="2.12335">
        <ele>119.3</ele>
        <time>2022-03-23T14:19:04Z</time>
      </trkpt>
      <trkpt lat="49.85643" lon="2.12334">
        <ele>119.3</ele>
        <time>2022-03-23T14:19:06Z</time>
      </trkpt>
      <trkpt lat="49.85642" lon="2.12334">
        <ele>119.4</ele>
        <time>2022-03-23T14:19:07Z</time>
      </trkpt>
      <trkpt lat="49.85641" lon="2.12333">
        <ele>119.4</ele>
        <time>2022-03-23T14:19:08Z</time>
      </trkpt>
      <trkpt lat="49.85639" lon="2.12331">
        <ele>119.4</ele>
        <time>2022-03-23T14:19:09Z</time>
      </trkpt>
      <trkpt lat="49.85638" lon="2.1233">
        <ele>119.4</ele>
        <time>2022-03-23T14:19:10Z</time>
      </trkpt>
      <trkpt lat="49.85637" lon="2.1233">
        <ele>119.4</ele>
        <time>2022-03-23T14:19:11Z</time>
      </trkpt>
      <trkpt lat="49.85635" lon="2.12328">
        <ele>119.4</ele>
        <time>2022-03-23T14:19:12Z</time>
      </trkpt>
      <trkpt lat="49.85635" lon="2.12327">
        <ele>119.4</ele>
        <time>2022-03-23T14:19:13Z</time>
      </trkpt>
      <trkpt lat="49.85634" lon="2.12327">
        <ele>119.4</ele>
        <time>2022-03-23T14:19:14Z</time>
      </trkpt>
      <trkpt lat="49.85633" lon="2.12325">
        <ele>119.4</ele>
        <time>2022-03-23T14:19:15Z</time>
      </trkpt>
      <trkpt lat="49.85632" lon="2.12325">
        <ele>119.4</ele>
        <time>2022-03-23T14:19:16Z</time>
      </trkpt>
      <trkpt lat="49.85631" lon="2.12324">
        <ele>119.4</ele>
        <time>2022-03-23T14:19:17Z</time>
      </trkpt>
      <trkpt lat="49.85631" lon="2.12323">
        <ele>119.4</ele>
        <time>2022-03-23T14:19:19Z</time>
      </trkpt>
      <trkpt lat="49.8563" lon="2.12321">
        <ele>119.4</ele>
        <time>2022-03-23T14:19:20Z</time>
      </trkpt>
      <trkpt lat="49.85629" lon="2.1232">
        <ele>119.4</ele>
        <time>2022-03-23T14:19:21Z</time>
      </trkpt>
      <trkpt lat="49.85628" lon="2.12319">
        <ele>119.4</ele>
        <time>2022-03-23T14:19:22Z</time>
      </trkpt>
      <trkpt lat="49.85627" lon="2.12318">
        <ele>119.4</ele>
        <time>2022-03-23T14:19:23Z</time>
      </trkpt>
      <trkpt lat="49.85626" lon="2.12317">
        <ele>119.4</ele>
        <time>2022-03-23T14:19:24Z</time>
      </trkpt>
      <trkpt lat="49.85625" lon="2.12314">
        <ele>119.4</ele>
        <time>2022-03-23T14:19:25Z</time>
      </trkpt>
      <trkpt lat="49.85624" lon="2.12313">
        <ele>119.4</ele>
        <time>2022-03-23T14:19:26Z</time>
      </trkpt>
      <trkpt lat="49.85624" lon="2.12312">
        <ele>119.5</ele>
        <time>2022-03-23T14:19:27Z</time>
      </trkpt>
      <trkpt lat="49.85623" lon="2.12311">
        <ele>119.5</ele>
        <time>2022-03-23T14:19:28Z</time>
      </trkpt>
      <trkpt lat="49.85622" lon="2.1231">
        <ele>119.5</ele>
        <time>2022-03-23T14:19:29Z</time>
      </trkpt>
      <trkpt lat="49.85621" lon="2.12309">
        <ele>119.5</ele>
        <time>2022-03-23T14:19:30Z</time>
      </trkpt>
      <trkpt lat="49.85619" lon="2.12308">
        <ele>119.5</ele>
        <time>2022-03-23T14:19:32Z</time>
      </trkpt>
      <trkpt lat="49.85618" lon="2.12307">
        <ele>119.5</ele>
        <time>2022-03-23T14:19:33Z</time>
      </trkpt>
      <trkpt lat="49.85617" lon="2.12307">
        <ele>119.5</ele>
        <time>2022-03-23T14:19:34Z</time>
      </trkpt>
      <trkpt lat="49.85615" lon="2.12306">
        <ele>119.5</ele>
        <time>2022-03-23T14:19:35Z</time>
      </trkpt>
      <trkpt lat="49.85614" lon="2.12305">
        <ele>119.5</ele>
        <time>2022-03-23T14:19:36Z</time>
      </trkpt>
      <trkpt lat="49.85613" lon="2.12305">
        <ele>119.5</ele>
        <time>2022-03-23T14:19:37Z</time>
      </trkpt>
      <trkpt lat="49.85612" lon="2.12304">
        <ele>119.6</ele>
        <time>2022-03-23T14:19:38Z</time>
      </trkpt>
      <trkpt lat="49.85611" lon="2.12303">
        <ele>119.6</ele>
        <time>2022-03-23T14:19:39Z</time>
      </trkpt>
      <trkpt lat="49.8561" lon="2.12303">
        <ele>119.6</ele>
        <time>2022-03-23T14:19:40Z</time>
      </trkpt>
      <trkpt lat="49.85608" lon="2.12301">
        <ele>119.6</ele>
        <time>2022-03-23T14:19:42Z</time>
      </trkpt>
      <trkpt lat="49.85607" lon="2.12301">
        <ele>119.6</ele>
        <time>2022-03-23T14:19:43Z</time>
      </trkpt>
      <trkpt lat="49.85606" lon="2.123">
        <ele>119.6</ele>
        <time>2022-03-23T14:19:44Z</time>
      </trkpt>
      <trkpt lat="49.85604" lon="2.12299">
        <ele>119.6</ele>
        <time>2022-03-23T14:19:45Z</time>
      </trkpt>
      <trkpt lat="49.85604" lon="2.12299">
        <ele>119.6</ele>
        <time>2022-03-23T14:19:46Z</time>
      </trkpt>
      <trkpt lat="49.85603" lon="2.12298">
        <ele>119.7</ele>
        <time>2022-03-23T14:19:47Z</time>
      </trkpt>
      <trkpt lat="49.85601" lon="2.12297">
        <ele>119.7</ele>
        <time>2022-03-23T14:19:49Z</time>
      </trkpt>
      <trkpt lat="49.856" lon="2.12296">
        <ele>119.7</ele>
        <time>2022-03-23T14:19:50Z</time>
      </trkpt>
      <trkpt lat="49.85599" lon="2.12295">
        <ele>119.7</ele>
        <time>2022-03-23T14:19:51Z</time>
      </trkpt>
      <trkpt lat="49.85598" lon="2.12294">
        <ele>119.7</ele>
        <time>2022-03-23T14:19:52Z</time>
      </trkpt>
      <trkpt lat="49.85596" lon="2.12292">
        <ele>119.7</ele>
        <time>2022-03-23T14:19:53Z</time>
      </trkpt>
      <trkpt lat="49.85595" lon="2.12291">
        <ele>119.7</ele>
        <time>2022-03-23T14:19:54Z</time>
      </trkpt>
      <trkpt lat="49.85594" lon="2.12291">
        <ele>119.7</ele>
        <time>2022-03-23T14:19:55Z</time>
      </trkpt>
      <trkpt lat="49.85593" lon="2.1229">
        <ele>119.7</ele>
        <time>2022-03-23T14:19:56Z</time>
      </trkpt>
      <trkpt lat="49.85591" lon="2.12288">
        <ele>119.7</ele>
        <time>2022-03-23T14:19:58Z</time>
      </trkpt>
      <trkpt lat="49.85591" lon="2.12287">
        <ele>119.7</ele>
        <time>2022-03-23T14:19:59Z</time>
      </trkpt>
      <trkpt lat="49.8559" lon="2.12286">
        <ele>119.7</ele>
        <time>2022-03-23T14:20:00Z</time>
      </trkpt>
      <trkpt lat="49.85589" lon="2.12285">
        <ele>119.7</ele>
        <time>2022-03-23T14:20:01Z</time>
      </trkpt>
      <trkpt lat="49.85587" lon="2.12283">
        <ele>119.8</ele>
        <time>2022-03-23T14:20:02Z</time>
      </trkpt>
      <trkpt lat="49.85586" lon="2.12282">
        <ele>119.8</ele>
        <time>2022-03-23T14:20:03Z</time>
      </trkpt>
      <trkpt lat="49.85585" lon="2.12281">
        <ele>119.8</ele>
        <time>2022-03-23T14:20:04Z</time>
      </trkpt>
      <trkpt lat="49.85584" lon="2.1228">
        <ele>119.8</ele>
        <time>2022-03-23T14:20:05Z</time>
      </trkpt>
      <trkpt lat="49.85583" lon="2.12278">
        <ele>119.8</ele>
        <time>2022-03-23T14:20:06Z</time>
      </trkpt>
      <trkpt lat="49.85582" lon="2.12277">
        <ele>119.8</ele>
        <time>2022-03-23T14:20:07Z</time>
      </trkpt>
      <trkpt lat="49.85581" lon="2.12276">
        <ele>119.8</ele>
        <time>2022-03-23T14:20:08Z</time>
      </trkpt>
      <trkpt lat="49.85579" lon="2.12274">
        <ele>119.8</ele>
        <time>2022-03-23T14:20:09Z</time>
      </trkpt>
      <trkpt lat="49.85578" lon="2.12274">
        <ele>119.8</ele>
        <time>2022-03-23T14:20:10Z</time>
      </trkpt>
      <trkpt lat="49.85577" lon="2.12273">
        <ele>119.8</ele>
        <time>2022-03-23T14:20:11Z</time>
      </trkpt>
      <trkpt lat="49.85576" lon="2.12271">
        <ele>119.8</ele>
        <time>2022-03-23T14:20:12Z</time>
      </trkpt>
      <trkpt lat="49.85575" lon="2.12271">
        <ele>119.8</ele>
        <time>2022-03-23T14:20:14Z</time>
      </trkpt>
      <trkpt lat="49.85574" lon="2.1227">
        <ele>119.8</ele>
        <time>2022-03-23T14:20:15Z</time>
      </trkpt>
      <trkpt lat="49.85573" lon="2.12269">
        <ele>119.8</ele>
        <time>2022-03-23T14:20:16Z</time>
      </trkpt>
      <trkpt lat="49.85572" lon="2.12268">
        <ele>119.9</ele>
        <time>2022-03-23T14:20:17Z</time>
      </trkpt>
      <trkpt lat="49.8557" lon="2.12266">
        <ele>119.9</ele>
        <time>2022-03-23T14:20:18Z</time>
      </trkpt>
      <trkpt lat="49.85569" lon="2.12266">
        <ele>119.9</ele>
        <time>2022-03-23T14:20:19Z</time>
      </trkpt>
      <trkpt lat="49.85568" lon="2.12265">
        <ele>119.9</ele>
        <time>2022-03-23T14:20:20Z</time>
      </trkpt>
      <trkpt lat="49.85566" lon="2.12264">
        <ele>119.9</ele>
        <time>2022-03-23T14:20:21Z</time>
      </trkpt>
      <trkpt lat="49.85566" lon="2.12263">
        <ele>119.9</ele>
        <time>2022-03-23T14:20:22Z</time>
      </trkpt>
      <trkpt lat="49.85565" lon="2.12262">
        <ele>119.9</ele>
        <time>2022-03-23T14:20:23Z</time>
      </trkpt>
      <trkpt lat="49.85563" lon="2.1226">
        <ele>119.9</ele>
        <time>2022-03-23T14:20:24Z</time>
      </trkpt>
      <trkpt lat="49.85562" lon="2.1226">
        <ele>119.9</ele>
        <time>2022-03-23T14:20:25Z</time>
      </trkpt>
      <trkpt lat="49.85562" lon="2.12259">
        <ele>119.9</ele>
        <time>2022-03-23T14:20:26Z</time>
      </trkpt>
      <trkpt lat="49.85561" lon="2.12258">
        <ele>119.9</ele>
        <time>2022-03-23T14:20:27Z</time>
      </trkpt>
      <trkpt lat="49.8556" lon="2.12257">
        <ele>119.9</ele>
        <time>2022-03-23T14:20:28Z</time>
      </trkpt>
      <trkpt lat="49.85559" lon="2.12256">
        <ele>119.9</ele>
        <time>2022-03-23T14:20:29Z</time>
      </trkpt>
      <trkpt lat="49.85558" lon="2.12255">
        <ele>119.9</ele>
        <time>2022-03-23T14:20:30Z</time>
      </trkpt>
      <trkpt lat="49.85556" lon="2.12253">
        <ele>119.9</ele>
        <time>2022-03-23T14:20:32Z</time>
      </trkpt>
      <trkpt lat="49.85555" lon="2.12252">
        <ele>120</ele>
        <time>2022-03-23T14:20:33Z</time>
      </trkpt>
      <trkpt lat="49.85554" lon="2.12251">
        <ele>120</ele>
        <time>2022-03-23T14:20:34Z</time>
      </trkpt>
      <trkpt lat="49.85552" lon="2.12249">
        <ele>120</ele>
        <time>2022-03-23T14:20:35Z</time>
      </trkpt>
      <trkpt lat="49.85551" lon="2.12249">
        <ele>120</ele>
        <time>2022-03-23T14:20:36Z</time>
      </trkpt>
      <trkpt lat="49.8555" lon="2.12248">
        <ele>120</ele>
        <time>2022-03-23T14:20:37Z</time>
      </trkpt>
      <trkpt lat="49.85549" lon="2.12247">
        <ele>120</ele>
        <time>2022-03-23T14:20:38Z</time>
      </trkpt>
      <trkpt lat="49.85548" lon="2.12246">
        <ele>120</ele>
        <time>2022-03-23T14:20:40Z</time>
      </trkpt>
      <trkpt lat="49.85546" lon="2.12245">
        <ele>120</ele>
        <time>2022-03-23T14:20:41Z</time>
      </trkpt>
      <trkpt lat="49.85545" lon="2.12244">
        <ele>120</ele>
        <time>2022-03-23T14:20:42Z</time>
      </trkpt>
      <trkpt lat="49.85544" lon="2.12243">
        <ele>120</ele>
        <time>2022-03-23T14:20:43Z</time>
      </trkpt>
      <trkpt lat="49.85543" lon="2.12241">
        <ele>120</ele>
        <time>2022-03-23T14:20:44Z</time>
      </trkpt>
      <trkpt lat="49.85542" lon="2.1224">
        <ele>120</ele>
        <time>2022-03-23T14:20:45Z</time>
      </trkpt>
      <trkpt lat="49.85542" lon="2.12239">
        <ele>120.1</ele>
        <time>2022-03-23T14:20:46Z</time>
      </trkpt>
      <trkpt lat="49.85541" lon="2.12238">
        <ele>120.1</ele>
        <time>2022-03-23T14:20:47Z</time>
      </trkpt>
      <trkpt lat="49.85539" lon="2.12236">
        <ele>120.1</ele>
        <time>2022-03-23T14:20:48Z</time>
      </trkpt>
      <trkpt lat="49.85538" lon="2.12235">
        <ele>120.1</ele>
        <time>2022-03-23T14:20:49Z</time>
      </trkpt>
      <trkpt lat="49.85537" lon="2.12235">
        <ele>120.1</ele>
        <time>2022-03-23T14:20:50Z</time>
      </trkpt>
      <trkpt lat="49.85535" lon="2.12233">
        <ele>120.1</ele>
        <time>2022-03-23T14:20:52Z</time>
      </trkpt>
      <trkpt lat="49.85534" lon="2.12232">
        <ele>120.1</ele>
        <time>2022-03-23T14:20:53Z</time>
      </trkpt>
      <trkpt lat="49.85533" lon="2.12232">
        <ele>120.2</ele>
        <time>2022-03-23T14:20:54Z</time>
      </trkpt>
      <trkpt lat="49.85531" lon="2.12231">
        <ele>120.2</ele>
        <time>2022-03-23T14:20:55Z</time>
      </trkpt>
      <trkpt lat="49.85529" lon="2.1223">
        <ele>120.2</ele>
        <time>2022-03-23T14:20:56Z</time>
      </trkpt>
      <trkpt lat="49.85528" lon="2.1223">
        <ele>120.2</ele>
        <time>2022-03-23T14:20:57Z</time>
      </trkpt>
      <trkpt lat="49.85528" lon="2.1223">
        <ele>120.2</ele>
        <time>2022-03-23T14:20:58Z</time>
      </trkpt>
      <trkpt lat="49.85526" lon="2.12229">
        <ele>120.2</ele>
        <time>2022-03-23T14:20:59Z</time>
      </trkpt>
      <trkpt lat="49.85525" lon="2.12229">
        <ele>120.2</ele>
        <time>2022-03-23T14:21:00Z</time>
      </trkpt>
      <trkpt lat="49.85524" lon="2.12228">
        <ele>120.2</ele>
        <time>2022-03-23T14:21:01Z</time>
      </trkpt>
      <trkpt lat="49.85522" lon="2.12227">
        <ele>120.3</ele>
        <time>2022-03-23T14:21:02Z</time>
      </trkpt>
      <trkpt lat="49.85521" lon="2.12226">
        <ele>120.3</ele>
        <time>2022-03-23T14:21:03Z</time>
      </trkpt>
      <trkpt lat="49.8552" lon="2.12225">
        <ele>120.3</ele>
        <time>2022-03-23T14:21:04Z</time>
      </trkpt>
      <trkpt lat="49.85519" lon="2.12224">
        <ele>120.3</ele>
        <time>2022-03-23T14:21:05Z</time>
      </trkpt>
      <trkpt lat="49.85519" lon="2.12223">
        <ele>120.3</ele>
        <time>2022-03-23T14:21:06Z</time>
      </trkpt>
      <trkpt lat="49.85518" lon="2.12222">
        <ele>120.3</ele>
        <time>2022-03-23T14:21:07Z</time>
      </trkpt>
      <trkpt lat="49.85517" lon="2.12221">
        <ele>120.3</ele>
        <time>2022-03-23T14:21:08Z</time>
      </trkpt>
      <trkpt lat="49.85516" lon="2.1222">
        <ele>120.3</ele>
        <time>2022-03-23T14:21:09Z</time>
      </trkpt>
      <trkpt lat="49.85515" lon="2.12219">
        <ele>120.4</ele>
        <time>2022-03-23T14:21:10Z</time>
      </trkpt>
      <trkpt lat="49.85514" lon="2.12217">
        <ele>120.4</ele>
        <time>2022-03-23T14:21:12Z</time>
      </trkpt>
      <trkpt lat="49.85513" lon="2.12216">
        <ele>120.4</ele>
        <time>2022-03-23T14:21:13Z</time>
      </trkpt>
      <trkpt lat="49.85511" lon="2.12214">
        <ele>120.4</ele>
        <time>2022-03-23T14:21:14Z</time>
      </trkpt>
      <trkpt lat="49.8551" lon="2.12213">
        <ele>120.4</ele>
        <time>2022-03-23T14:21:15Z</time>
      </trkpt>
      <trkpt lat="49.8551" lon="2.12212">
        <ele>120.4</ele>
        <time>2022-03-23T14:21:16Z</time>
      </trkpt>
      <trkpt lat="49.85509" lon="2.12211">
        <ele>120.4</ele>
        <time>2022-03-23T14:21:17Z</time>
      </trkpt>
      <trkpt lat="49.85508" lon="2.1221">
        <ele>120.5</ele>
        <time>2022-03-23T14:21:18Z</time>
      </trkpt>
      <trkpt lat="49.85507" lon="2.12209">
        <ele>120.5</ele>
        <time>2022-03-23T14:21:19Z</time>
      </trkpt>
      <trkpt lat="49.85506" lon="2.12207">
        <ele>120.5</ele>
        <time>2022-03-23T14:21:20Z</time>
      </trkpt>
      <trkpt lat="49.85505" lon="2.12206">
        <ele>120.5</ele>
        <time>2022-03-23T14:21:21Z</time>
      </trkpt>
      <trkpt lat="49.85503" lon="2.12205">
        <ele>120.5</ele>
        <time>2022-03-23T14:21:22Z</time>
      </trkpt>
      <trkpt lat="49.85502" lon="2.12204">
        <ele>120.5</ele>
        <time>2022-03-23T14:21:23Z</time>
      </trkpt>
      <trkpt lat="49.85501" lon="2.12203">
        <ele>120.6</ele>
        <time>2022-03-23T14:21:25Z</time>
      </trkpt>
      <trkpt lat="49.855" lon="2.12202">
        <ele>120.6</ele>
        <time>2022-03-23T14:21:26Z</time>
      </trkpt>
      <trkpt lat="49.85498" lon="2.12201">
        <ele>120.6</ele>
        <time>2022-03-23T14:21:27Z</time>
      </trkpt>
      <trkpt lat="49.85497" lon="2.122">
        <ele>120.6</ele>
        <time>2022-03-23T14:21:28Z</time>
      </trkpt>
      <trkpt lat="49.85494" lon="2.12197">
        <ele>120.7</ele>
        <time>2022-03-23T14:21:29Z</time>
      </trkpt>
      <trkpt lat="49.85493" lon="2.12196">
        <ele>120.7</ele>
        <time>2022-03-23T14:21:31Z</time>
      </trkpt>
      <trkpt lat="49.85492" lon="2.12196">
        <ele>120.7</ele>
        <time>2022-03-23T14:21:32Z</time>
      </trkpt>
      <trkpt lat="49.85491" lon="2.12195">
        <ele>120.7</ele>
        <time>2022-03-23T14:21:33Z</time>
      </trkpt>
      <trkpt lat="49.8549" lon="2.12194">
        <ele>120.7</ele>
        <time>2022-03-23T14:21:34Z</time>
      </trkpt>
      <trkpt lat="49.8549" lon="2.12193">
        <ele>120.7</ele>
        <time>2022-03-23T14:21:35Z</time>
      </trkpt>
      <trkpt lat="49.85489" lon="2.12192">
        <ele>120.7</ele>
        <time>2022-03-23T14:21:36Z</time>
      </trkpt>
      <trkpt lat="49.85488" lon="2.12191">
        <ele>120.7</ele>
        <time>2022-03-23T14:21:37Z</time>
      </trkpt>
      <trkpt lat="49.85487" lon="2.1219">
        <ele>120.8</ele>
        <time>2022-03-23T14:21:38Z</time>
      </trkpt>
      <trkpt lat="49.85485" lon="2.12189">
        <ele>120.8</ele>
        <time>2022-03-23T14:21:39Z</time>
      </trkpt>
      <trkpt lat="49.85483" lon="2.12189">
        <ele>120.8</ele>
        <time>2022-03-23T14:21:40Z</time>
      </trkpt>
      <trkpt lat="49.85482" lon="2.12188">
        <ele>120.8</ele>
        <time>2022-03-23T14:21:41Z</time>
      </trkpt>
      <trkpt lat="49.8548" lon="2.12188">
        <ele>120.8</ele>
        <time>2022-03-23T14:21:43Z</time>
      </trkpt>
      <trkpt lat="49.85479" lon="2.12189">
        <ele>120.8</ele>
        <time>2022-03-23T14:21:44Z</time>
      </trkpt>
      <trkpt lat="49.85477" lon="2.12189">
        <ele>120.9</ele>
        <time>2022-03-23T14:21:45Z</time>
      </trkpt>
      <trkpt lat="49.85476" lon="2.12189">
        <ele>120.9</ele>
        <time>2022-03-23T14:21:46Z</time>
      </trkpt>
      <trkpt lat="49.85475" lon="2.12189">
        <ele>120.9</ele>
        <time>2022-03-23T14:21:47Z</time>
      </trkpt>
      <trkpt lat="49.85474" lon="2.12188">
        <ele>120.9</ele>
        <time>2022-03-23T14:21:48Z</time>
      </trkpt>
      <trkpt lat="49.85472" lon="2.12187">
        <ele>120.9</ele>
        <time>2022-03-23T14:21:49Z</time>
      </trkpt>
      <trkpt lat="49.85471" lon="2.12187">
        <ele>120.9</ele>
        <time>2022-03-23T14:21:50Z</time>
      </trkpt>
      <trkpt lat="49.85469" lon="2.12185">
        <ele>120.9</ele>
        <time>2022-03-23T14:21:51Z</time>
      </trkpt>
      <trkpt lat="49.85468" lon="2.12184">
        <ele>121</ele>
        <time>2022-03-23T14:21:52Z</time>
      </trkpt>
      <trkpt lat="49.85467" lon="2.12183">
        <ele>121</ele>
        <time>2022-03-23T14:21:53Z</time>
      </trkpt>
      <trkpt lat="49.85465" lon="2.12181">
        <ele>121</ele>
        <time>2022-03-23T14:21:54Z</time>
      </trkpt>
      <trkpt lat="49.85464" lon="2.12181">
        <ele>121</ele>
        <time>2022-03-23T14:21:55Z</time>
      </trkpt>
      <trkpt lat="49.85463" lon="2.1218">
        <ele>121</ele>
        <time>2022-03-23T14:21:56Z</time>
      </trkpt>
      <trkpt lat="49.85461" lon="2.12179">
        <ele>121.1</ele>
        <time>2022-03-23T14:21:58Z</time>
      </trkpt>
      <trkpt lat="49.85461" lon="2.12178">
        <ele>121.1</ele>
        <time>2022-03-23T14:21:59Z</time>
      </trkpt>
      <trkpt lat="49.8546" lon="2.12178">
        <ele>121.1</ele>
        <time>2022-03-23T14:22:00Z</time>
      </trkpt>
      <trkpt lat="49.85459" lon="2.12176">
        <ele>121.1</ele>
        <time>2022-03-23T14:22:01Z</time>
      </trkpt>
      <trkpt lat="49.85457" lon="2.12175">
        <ele>121.1</ele>
        <time>2022-03-23T14:22:02Z</time>
      </trkpt>
      <trkpt lat="49.85455" lon="2.12173">
        <ele>121.1</ele>
        <time>2022-03-23T14:22:03Z</time>
      </trkpt>
      <trkpt lat="49.85455" lon="2.12172">
        <ele>121.2</ele>
        <time>2022-03-23T14:22:05Z</time>
      </trkpt>
      <trkpt lat="49.85454" lon="2.12171">
        <ele>121.2</ele>
        <time>2022-03-23T14:22:06Z</time>
      </trkpt>
      <trkpt lat="49.85453" lon="2.1217">
        <ele>121.2</ele>
        <time>2022-03-23T14:22:07Z</time>
      </trkpt>
      <trkpt lat="49.85452" lon="2.12169">
        <ele>121.2</ele>
        <time>2022-03-23T14:22:08Z</time>
      </trkpt>
      <trkpt lat="49.85451" lon="2.12167">
        <ele>121.2</ele>
        <time>2022-03-23T14:22:09Z</time>
      </trkpt>
      <trkpt lat="49.8545" lon="2.12166">
        <ele>121.2</ele>
        <time>2022-03-23T14:22:10Z</time>
      </trkpt>
      <trkpt lat="49.85449" lon="2.12165">
        <ele>121.2</ele>
        <time>2022-03-23T14:22:11Z</time>
      </trkpt>
      <trkpt lat="49.85448" lon="2.12163">
        <ele>121.3</ele>
        <time>2022-03-23T14:22:12Z</time>
      </trkpt>
      <trkpt lat="49.85446" lon="2.12162">
        <ele>121.3</ele>
        <time>2022-03-23T14:22:13Z</time>
      </trkpt>
      <trkpt lat="49.85445" lon="2.12161">
        <ele>121.3</ele>
        <time>2022-03-23T14:22:14Z</time>
      </trkpt>
      <trkpt lat="49.85444" lon="2.1216">
        <ele>121.3</ele>
        <time>2022-03-23T14:22:15Z</time>
      </trkpt>
      <trkpt lat="49.85443" lon="2.1216">
        <ele>121.3</ele>
        <time>2022-03-23T14:22:16Z</time>
      </trkpt>
      <trkpt lat="49.85442" lon="2.12159">
        <ele>121.3</ele>
        <time>2022-03-23T14:22:17Z</time>
      </trkpt>
      <trkpt lat="49.85441" lon="2.12158">
        <ele>121.3</ele>
        <time>2022-03-23T14:22:18Z</time>
      </trkpt>
      <trkpt lat="49.85439" lon="2.12156">
        <ele>121.3</ele>
        <time>2022-03-23T14:22:20Z</time>
      </trkpt>
      <trkpt lat="49.85439" lon="2.12155">
        <ele>121.4</ele>
        <time>2022-03-23T14:22:21Z</time>
      </trkpt>
      <trkpt lat="49.85438" lon="2.12155">
        <ele>121.4</ele>
        <time>2022-03-23T14:22:22Z</time>
      </trkpt>
      <trkpt lat="49.85436" lon="2.12153">
        <ele>121.4</ele>
        <time>2022-03-23T14:22:23Z</time>
      </trkpt>
      <trkpt lat="49.85435" lon="2.12152">
        <ele>121.4</ele>
        <time>2022-03-23T14:22:24Z</time>
      </trkpt>
      <trkpt lat="49.85435" lon="2.12152">
        <ele>121.4</ele>
        <time>2022-03-23T14:22:25Z</time>
      </trkpt>
      <trkpt lat="49.85433" lon="2.1215">
        <ele>121.4</ele>
        <time>2022-03-23T14:22:26Z</time>
      </trkpt>
      <trkpt lat="49.85432" lon="2.12149">
        <ele>121.4</ele>
        <time>2022-03-23T14:22:27Z</time>
      </trkpt>
      <trkpt lat="49.85432" lon="2.12148">
        <ele>121.4</ele>
        <time>2022-03-23T14:22:28Z</time>
      </trkpt>
      <trkpt lat="49.85431" lon="2.12147">
        <ele>121.5</ele>
        <time>2022-03-23T14:22:29Z</time>
      </trkpt>
      <trkpt lat="49.8543" lon="2.12146">
        <ele>121.5</ele>
        <time>2022-03-23T14:22:30Z</time>
      </trkpt>
      <trkpt lat="49.85429" lon="2.12145">
        <ele>121.5</ele>
        <time>2022-03-23T14:22:32Z</time>
      </trkpt>
      <trkpt lat="49.85428" lon="2.12144">
        <ele>121.5</ele>
        <time>2022-03-23T14:22:33Z</time>
      </trkpt>
      <trkpt lat="49.85427" lon="2.12144">
        <ele>121.5</ele>
        <time>2022-03-23T14:22:34Z</time>
      </trkpt>
      <trkpt lat="49.85426" lon="2.12143">
        <ele>121.5</ele>
        <time>2022-03-23T14:22:35Z</time>
      </trkpt>
      <trkpt lat="49.85424" lon="2.12142">
        <ele>121.5</ele>
        <time>2022-03-23T14:22:36Z</time>
      </trkpt>
      <trkpt lat="49.85423" lon="2.12141">
        <ele>121.6</ele>
        <time>2022-03-23T14:22:37Z</time>
      </trkpt>
      <trkpt lat="49.85422" lon="2.12141">
        <ele>121.6</ele>
        <time>2022-03-23T14:22:38Z</time>
      </trkpt>
      <trkpt lat="49.85421" lon="2.1214">
        <ele>121.6</ele>
        <time>2022-03-23T14:22:39Z</time>
      </trkpt>
      <trkpt lat="49.8542" lon="2.12139">
        <ele>121.6</ele>
        <time>2022-03-23T14:22:40Z</time>
      </trkpt>
      <trkpt lat="49.85419" lon="2.12138">
        <ele>121.6</ele>
        <time>2022-03-23T14:22:42Z</time>
      </trkpt>
      <trkpt lat="49.85418" lon="2.12137">
        <ele>121.6</ele>
        <time>2022-03-23T14:22:43Z</time>
      </trkpt>
      <trkpt lat="49.85417" lon="2.12136">
        <ele>121.6</ele>
        <time>2022-03-23T14:22:44Z</time>
      </trkpt>
      <trkpt lat="49.85416" lon="2.12136">
        <ele>121.6</ele>
        <time>2022-03-23T14:22:45Z</time>
      </trkpt>
      <trkpt lat="49.85414" lon="2.12134">
        <ele>121.7</ele>
        <time>2022-03-23T14:22:46Z</time>
      </trkpt>
      <trkpt lat="49.85413" lon="2.12134">
        <ele>121.7</ele>
        <time>2022-03-23T14:22:47Z</time>
      </trkpt>
      <trkpt lat="49.85413" lon="2.12133">
        <ele>121.7</ele>
        <time>2022-03-23T14:22:48Z</time>
      </trkpt>
      <trkpt lat="49.85411" lon="2.12132">
        <ele>121.7</ele>
        <time>2022-03-23T14:22:49Z</time>
      </trkpt>
      <trkpt lat="49.8541" lon="2.12132">
        <ele>121.7</ele>
        <time>2022-03-23T14:22:50Z</time>
      </trkpt>
      <trkpt lat="49.85409" lon="2.12131">
        <ele>121.7</ele>
        <time>2022-03-23T14:22:51Z</time>
      </trkpt>
      <trkpt lat="49.85407" lon="2.1213">
        <ele>121.8</ele>
        <time>2022-03-23T14:22:52Z</time>
      </trkpt>
      <trkpt lat="49.85406" lon="2.12129">
        <ele>121.8</ele>
        <time>2022-03-23T14:22:54Z</time>
      </trkpt>
      <trkpt lat="49.85405" lon="2.12129">
        <ele>121.8</ele>
        <time>2022-03-23T14:22:55Z</time>
      </trkpt>
      <trkpt lat="49.85404" lon="2.12128">
        <ele>121.8</ele>
        <time>2022-03-23T14:22:56Z</time>
      </trkpt>
      <trkpt lat="49.85403" lon="2.12128">
        <ele>121.8</ele>
        <time>2022-03-23T14:22:57Z</time>
      </trkpt>
      <trkpt lat="49.85401" lon="2.12127">
        <ele>121.8</ele>
        <time>2022-03-23T14:22:58Z</time>
      </trkpt>
      <trkpt lat="49.854" lon="2.12126">
        <ele>121.8</ele>
        <time>2022-03-23T14:22:59Z</time>
      </trkpt>
      <trkpt lat="49.85399" lon="2.12125">
        <ele>121.8</ele>
        <time>2022-03-23T14:23:00Z</time>
      </trkpt>
      <trkpt lat="49.85398" lon="2.12124">
        <ele>121.9</ele>
        <time>2022-03-23T14:23:02Z</time>
      </trkpt>
      <trkpt lat="49.85396" lon="2.12123">
        <ele>121.9</ele>
        <time>2022-03-23T14:23:04Z</time>
      </trkpt>
      <trkpt lat="49.85394" lon="2.12122">
        <ele>121.9</ele>
        <time>2022-03-23T14:23:05Z</time>
      </trkpt>
      <trkpt lat="49.85393" lon="2.12121">
        <ele>121.9</ele>
        <time>2022-03-23T14:23:06Z</time>
      </trkpt>
      <trkpt lat="49.85392" lon="2.12121">
        <ele>121.9</ele>
        <time>2022-03-23T14:23:07Z</time>
      </trkpt>
      <trkpt lat="49.85391" lon="2.1212">
        <ele>121.9</ele>
        <time>2022-03-23T14:23:08Z</time>
      </trkpt>
      <trkpt lat="49.8539" lon="2.12119">
        <ele>121.9</ele>
        <time>2022-03-23T14:23:09Z</time>
      </trkpt>
      <trkpt lat="49.85389" lon="2.12118">
        <ele>122</ele>
        <time>2022-03-23T14:23:10Z</time>
      </trkpt>
      <trkpt lat="49.85387" lon="2.12117">
        <ele>122</ele>
        <time>2022-03-23T14:23:11Z</time>
      </trkpt>
      <trkpt lat="49.85385" lon="2.12115">
        <ele>122</ele>
        <time>2022-03-23T14:23:12Z</time>
      </trkpt>
      <trkpt lat="49.85384" lon="2.12115">
        <ele>122</ele>
        <time>2022-03-23T14:23:13Z</time>
      </trkpt>
      <trkpt lat="49.85384" lon="2.12114">
        <ele>122</ele>
        <time>2022-03-23T14:23:14Z</time>
      </trkpt>
      <trkpt lat="49.85382" lon="2.12113">
        <ele>122</ele>
        <time>2022-03-23T14:23:16Z</time>
      </trkpt>
      <trkpt lat="49.85381" lon="2.12113">
        <ele>122</ele>
        <time>2022-03-23T14:23:17Z</time>
      </trkpt>
      <trkpt lat="49.8538" lon="2.12112">
        <ele>122.1</ele>
        <time>2022-03-23T14:23:18Z</time>
      </trkpt>
      <trkpt lat="49.85378" lon="2.12111">
        <ele>122.1</ele>
        <time>2022-03-23T14:23:19Z</time>
      </trkpt>
      <trkpt lat="49.85377" lon="2.12109">
        <ele>122.1</ele>
        <time>2022-03-23T14:23:20Z</time>
      </trkpt>
      <trkpt lat="49.85376" lon="2.12108">
        <ele>122.1</ele>
        <time>2022-03-23T14:23:21Z</time>
      </trkpt>
      <trkpt lat="49.85375" lon="2.12107">
        <ele>122.1</ele>
        <time>2022-03-23T14:23:22Z</time>
      </trkpt>
      <trkpt lat="49.85374" lon="2.12105">
        <ele>122.1</ele>
        <time>2022-03-23T14:23:23Z</time>
      </trkpt>
      <trkpt lat="49.85373" lon="2.12103">
        <ele>122.2</ele>
        <time>2022-03-23T14:23:24Z</time>
      </trkpt>
      <trkpt lat="49.85373" lon="2.12101">
        <ele>122.2</ele>
        <time>2022-03-23T14:23:25Z</time>
      </trkpt>
      <trkpt lat="49.85372" lon="2.12098">
        <ele>122.2</ele>
        <time>2022-03-23T14:23:26Z</time>
      </trkpt>
      <trkpt lat="49.85372" lon="2.12096">
        <ele>122.2</ele>
        <time>2022-03-23T14:23:28Z</time>
      </trkpt>
      <trkpt lat="49.85373" lon="2.12093">
        <ele>122.2</ele>
        <time>2022-03-23T14:23:29Z</time>
      </trkpt>
      <trkpt lat="49.85373" lon="2.12091">
        <ele>122.2</ele>
        <time>2022-03-23T14:23:30Z</time>
      </trkpt>
      <trkpt lat="49.85374" lon="2.12089">
        <ele>122.3</ele>
        <time>2022-03-23T14:23:31Z</time>
      </trkpt>
      <trkpt lat="49.85374" lon="2.12088">
        <ele>122.3</ele>
        <time>2022-03-23T14:23:32Z</time>
      </trkpt>
      <trkpt lat="49.85375" lon="2.12086">
        <ele>122.3</ele>
        <time>2022-03-23T14:23:33Z</time>
      </trkpt>
      <trkpt lat="49.85376" lon="2.12084">
        <ele>122.3</ele>
        <time>2022-03-23T14:23:34Z</time>
      </trkpt>
      <trkpt lat="49.85377" lon="2.12082">
        <ele>122.3</ele>
        <time>2022-03-23T14:23:35Z</time>
      </trkpt>
      <trkpt lat="49.85378" lon="2.12081">
        <ele>122.4</ele>
        <time>2022-03-23T14:23:37Z</time>
      </trkpt>
      <trkpt lat="49.85378" lon="2.1208">
        <ele>122.4</ele>
        <time>2022-03-23T14:23:38Z</time>
      </trkpt>
      <trkpt lat="49.85379" lon="2.12079">
        <ele>122.4</ele>
        <time>2022-03-23T14:23:39Z</time>
      </trkpt>
      <trkpt lat="49.85379" lon="2.12077">
        <ele>122.4</ele>
        <time>2022-03-23T14:23:40Z</time>
      </trkpt>
      <trkpt lat="49.85379" lon="2.12074">
        <ele>122.4</ele>
        <time>2022-03-23T14:23:41Z</time>
      </trkpt>
      <trkpt lat="49.8538" lon="2.12073">
        <ele>122.5</ele>
        <time>2022-03-23T14:23:43Z</time>
      </trkpt>
      <trkpt lat="49.8538" lon="2.12071">
        <ele>122.5</ele>
        <time>2022-03-23T14:23:44Z</time>
      </trkpt>
      <trkpt lat="49.85381" lon="2.12071">
        <ele>122.5</ele>
        <time>2022-03-23T14:23:46Z</time>
      </trkpt>
      <trkpt lat="49.85381" lon="2.12069">
        <ele>122.5</ele>
        <time>2022-03-23T14:23:47Z</time>
      </trkpt>
      <trkpt lat="49.85382" lon="2.12069">
        <ele>122.5</ele>
        <time>2022-03-23T14:23:49Z</time>
      </trkpt>
      <trkpt lat="49.85382" lon="2.12068">
        <ele>122.5</ele>
        <time>2022-03-23T14:23:50Z</time>
      </trkpt>
      <trkpt lat="49.85383" lon="2.12068">
        <ele>122.5</ele>
        <time>2022-03-23T14:23:51Z</time>
      </trkpt>
      <trkpt lat="49.85383" lon="2.12069">
        <ele>122.5</ele>
        <time>2022-03-23T14:23:52Z</time>
      </trkpt>
      <trkpt lat="49.85383" lon="2.12069">
        <ele>122.6</ele>
        <time>2022-03-23T14:23:53Z</time>
      </trkpt>
      <trkpt lat="49.85384" lon="2.12069">
        <ele>122.6</ele>
        <time>2022-03-23T14:23:54Z</time>
      </trkpt>
      <trkpt lat="49.85384" lon="2.1207">
        <ele>122.6</ele>
        <time>2022-03-23T14:23:55Z</time>
      </trkpt>
      <trkpt lat="49.85384" lon="2.1207">
        <ele>122.6</ele>
        <time>2022-03-23T14:23:56Z</time>
      </trkpt>
      <trkpt lat="49.85384" lon="2.1207">
        <ele>122.6</ele>
        <time>2022-03-23T14:23:57Z</time>
      </trkpt>
      <trkpt lat="49.85384" lon="2.1207">
        <ele>122.6</ele>
        <time>2022-03-23T14:23:58Z</time>
      </trkpt>
      <trkpt lat="49.85384" lon="2.12071">
        <ele>122.6</ele>
        <time>2022-03-23T14:23:59Z</time>
      </trkpt>
      <trkpt lat="49.85384" lon="2.12071">
        <ele>122.6</ele>
        <time>2022-03-23T14:24:00Z</time>
      </trkpt>
      <trkpt lat="49.85384" lon="2.12071">
        <ele>122.6</ele>
        <time>2022-03-23T14:24:01Z</time>
      </trkpt>
      <trkpt lat="49.85384" lon="2.12071">
        <ele>122.6</ele>
        <time>2022-03-23T14:24:02Z</time>
      </trkpt>
      <trkpt lat="49.85384" lon="2.12071">
        <ele>122.6</ele>
        <time>2022-03-23T14:24:03Z</time>
      </trkpt>
      <trkpt lat="49.85384" lon="2.12071">
        <ele>122.6</ele>
        <time>2022-03-23T14:24:04Z</time>
      </trkpt>
      <trkpt lat="49.85384" lon="2.12071">
        <ele>122.6</ele>
        <time>2022-03-23T14:24:05Z</time>
      </trkpt>
      <trkpt lat="49.85384" lon="2.12071">
        <ele>122.6</ele>
        <time>2022-03-23T14:24:06Z</time>
      </trkpt>
      <trkpt lat="49.85383" lon="2.12071">
        <ele>122.6</ele>
        <time>2022-03-23T14:24:07Z</time>
      </trkpt>
      <trkpt lat="49.85383" lon="2.12071">
        <ele>122.6</ele>
        <time>2022-03-23T14:24:08Z</time>
      </trkpt>
      <trkpt lat="49.85383" lon="2.12071">
        <ele>122.6</ele>
        <time>2022-03-23T14:24:09Z</time>
      </trkpt>
      <trkpt lat="49.85383" lon="2.12071">
        <ele>122.6</ele>
        <time>2022-03-23T14:24:10Z</time>
      </trkpt>
      <trkpt lat="49.85383" lon="2.12071">
        <ele>122.6</ele>
        <time>2022-03-23T14:24:11Z</time>
      </trkpt>
      <trkpt lat="49.85383" lon="2.12071">
        <ele>122.6</ele>
        <time>2022-03-23T14:24:12Z</time>
      </trkpt>
      <trkpt lat="49.85383" lon="2.12071">
        <ele>122.6</ele>
        <time>2022-03-23T14:24:13Z</time>
      </trkpt>
      <trkpt lat="49.85383" lon="2.12071">
        <ele>122.6</ele>
        <time>2022-03-23T14:24:14Z</time>
      </trkpt>
      <trkpt lat="49.85383" lon="2.12071">
        <ele>122.6</ele>
        <time>2022-03-23T14:24:15Z</time>
      </trkpt>
      <trkpt lat="49.85383" lon="2.12071">
        <ele>122.6</ele>
        <time>2022-03-23T14:24:16Z</time>
      </trkpt>
      <trkpt lat="49.85383" lon="2.12071">
        <ele>122.6</ele>
        <time>2022-03-23T14:24:17Z</time>
      </trkpt>
      <trkpt lat="49.85383" lon="2.12071">
        <ele>122.6</ele>
        <time>2022-03-23T14:24:18Z</time>
      </trkpt>
      <trkpt lat="49.85383" lon="2.12071">
        <ele>122.6</ele>
        <time>2022-03-23T14:24:19Z</time>
      </trkpt>
      <trkpt lat="49.85383" lon="2.12071">
        <ele>122.6</ele>
        <time>2022-03-23T14:24:20Z</time>
      </trkpt>
      <trkpt lat="49.85383" lon="2.12071">
        <ele>122.6</ele>
        <time>2022-03-23T14:24:21Z</time>
      </trkpt>
      <trkpt lat="49.85383" lon="2.12071">
        <ele>122.6</ele>
        <time>2022-03-23T14:24:22Z</time>
      </trkpt>
      <trkpt lat="49.85383" lon="2.12071">
        <ele>122.6</ele>
        <time>2022-03-23T14:24:23Z</time>
      </trkpt>
      <trkpt lat="49.85383" lon="2.12071">
        <ele>122.6</ele>
        <time>2022-03-23T14:24:24Z</time>
      </trkpt>
      <trkpt lat="49.85383" lon="2.12071">
        <ele>122.6</ele>
        <time>2022-03-23T14:24:25Z</time>
      </trkpt>
      <trkpt lat="49.85383" lon="2.12071">
        <ele>122.6</ele>
        <time>2022-03-23T14:24:26Z</time>
      </trkpt>
      <trkpt lat="49.85383" lon="2.12071">
        <ele>122.6</ele>
        <time>2022-03-23T14:24:27Z</time>
      </trkpt>
      <trkpt lat="49.85383" lon="2.12071">
        <ele>122.6</ele>
        <time>2022-03-23T14:24:28Z</time>
      </trkpt>
      <trkpt lat="49.85383" lon="2.12071">
        <ele>122.6</ele>
        <time>2022-03-23T14:24:29Z</time>
      </trkpt>
      <trkpt lat="49.85383" lon="2.12071">
        <ele>122.6</ele>
        <time>2022-03-23T14:24:30Z</time>
      </trkpt>
      <trkpt lat="49.85383" lon="2.12071">
        <ele>122.6</ele>
        <time>2022-03-23T14:24:31Z</time>
      </trkpt>
      <trkpt lat="49.85383" lon="2.12071">
        <ele>122.6</ele>
        <time>2022-03-23T14:24:32Z</time>
      </trkpt>
      <trkpt lat="49.85383" lon="2.12071">
        <ele>122.6</ele>
        <time>2022-03-23T14:24:33Z</time>
      </trkpt>
      <trkpt lat="49.85383" lon="2.12071">
        <ele>122.6</ele>
        <time>2022-03-23T14:24:34Z</time>
      </trkpt>
      <trkpt lat="49.85383" lon="2.12071">
        <ele>122.6</ele>
        <time>2022-03-23T14:24:35Z</time>
      </trkpt>
      <trkpt lat="49.85383" lon="2.12071">
        <ele>122.6</ele>
        <time>2022-03-23T14:24:36Z</time>
      </trkpt>
      <trkpt lat="49.85383" lon="2.12071">
        <ele>122.6</ele>
        <time>2022-03-23T14:24:37Z</time>
      </trkpt>
      <trkpt lat="49.85383" lon="2.12071">
        <ele>122.6</ele>
        <time>2022-03-23T14:24:38Z</time>
      </trkpt>
      <trkpt lat="49.85383" lon="2.12071">
        <ele>122.6</ele>
        <time>2022-03-23T14:24:39Z</time>
      </trkpt>
      <trkpt lat="49.85383" lon="2.12071">
        <ele>122.6</ele>
        <time>2022-03-23T14:24:40Z</time>
      </trkpt>
      <trkpt lat="49.85383" lon="2.12071">
        <ele>122.6</ele>
        <time>2022-03-23T14:24:41Z</time>
      </trkpt>
      <trkpt lat="49.85383" lon="2.12071">
        <ele>122.6</ele>
        <time>2022-03-23T14:24:42Z</time>
      </trkpt>
      <trkpt lat="49.85383" lon="2.12071">
        <ele>122.6</ele>
        <time>2022-03-23T14:24:43Z</time>
      </trkpt>
      <trkpt lat="49.85383" lon="2.12071">
        <ele>122.6</ele>
        <time>2022-03-23T14:24:44Z</time>
      </trkpt>
      <trkpt lat="49.85383" lon="2.12071">
        <ele>122.6</ele>
        <time>2022-03-23T14:24:45Z</time>
      </trkpt>
      <trkpt lat="49.85383" lon="2.12071">
        <ele>122.6</ele>
        <time>2022-03-23T14:24:46Z</time>
      </trkpt>
      <trkpt lat="49.85383" lon="2.12071">
        <ele>122.6</ele>
        <time>2022-03-23T14:24:47Z</time>
      </trkpt>
      <trkpt lat="49.85383" lon="2.12071">
        <ele>122.6</ele>
        <time>2022-03-23T14:24:48Z</time>
      </trkpt>
      <trkpt lat="49.85383" lon="2.12071">
        <ele>122.6</ele>
        <time>2022-03-23T14:24:49Z</time>
      </trkpt>
      <trkpt lat="49.85383" lon="2.12071">
        <ele>122.6</ele>
        <time>2022-03-23T14:24:50Z</time>
      </trkpt>
      <trkpt lat="49.85383" lon="2.12071">
        <ele>122.6</ele>
        <time>2022-03-23T14:24:51Z</time>
      </trkpt>
      <trkpt lat="49.85383" lon="2.12071">
        <ele>122.6</ele>
        <time>2022-03-23T14:24:52Z</time>
      </trkpt>
      <trkpt lat="49.85383" lon="2.12071">
        <ele>122.6</ele>
        <time>2022-03-23T14:24:53Z</time>
      </trkpt>
      <trkpt lat="49.85383" lon="2.12071">
        <ele>122.6</ele>
        <time>2022-03-23T14:24:54Z</time>
      </trkpt>
      <trkpt lat="49.85383" lon="2.12071">
        <ele>122.6</ele>
        <time>2022-03-23T14:24:55Z</time>
      </trkpt>
      <trkpt lat="49.85383" lon="2.12071">
        <ele>122.6</ele>
        <time>2022-03-23T14:24:56Z</time>
      </trkpt>
      <trkpt lat="49.85383" lon="2.12071">
        <ele>122.6</ele>
        <time>2022-03-23T14:24:57Z</time>
      </trkpt>
      <trkpt lat="49.85383" lon="2.12071">
        <ele>122.6</ele>
        <time>2022-03-23T14:24:58Z</time>
      </trkpt>
      <trkpt lat="49.85383" lon="2.12071">
        <ele>122.6</ele>
        <time>2022-03-23T14:24:59Z</time>
      </trkpt>
      <trkpt lat="49.85383" lon="2.12071">
        <ele>122.6</ele>
        <time>2022-03-23T14:25:00Z</time>
      </trkpt>
      <trkpt lat="49.85383" lon="2.12071">
        <ele>122.6</ele>
        <time>2022-03-23T14:25:01Z</time>
      </trkpt>
      <trkpt lat="49.85383" lon="2.12071">
        <ele>122.6</ele>
        <time>2022-03-23T14:25:02Z</time>
      </trkpt>
      <trkpt lat="49.85383" lon="2.12071">
        <ele>122.6</ele>
        <time>2022-03-23T14:25:03Z</time>
      </trkpt>
      <trkpt lat="49.85383" lon="2.12071">
        <ele>122.6</ele>
        <time>2022-03-23T14:25:04Z</time>
      </trkpt>
      <trkpt lat="49.85383" lon="2.12071">
        <ele>122.6</ele>
        <time>2022-03-23T14:25:05Z</time>
      </trkpt>
      <trkpt lat="49.85383" lon="2.12071">
        <ele>122.6</ele>
        <time>2022-03-23T14:25:06Z</time>
      </trkpt>
      <trkpt lat="49.85383" lon="2.12071">
        <ele>122.6</ele>
        <time>2022-03-23T14:25:07Z</time>
      </trkpt>
      <trkpt lat="49.85383" lon="2.12071">
        <ele>122.6</ele>
        <time>2022-03-23T14:25:08Z</time>
      </trkpt>
      <trkpt lat="49.85382" lon="2.12071">
        <ele>122.6</ele>
        <time>2022-03-23T14:25:09Z</time>
      </trkpt>
      <trkpt lat="49.8538" lon="2.12071">
        <ele>122.7</ele>
        <time>2022-03-23T14:25:10Z</time>
      </trkpt>
      <trkpt lat="49.8538" lon="2.1207">
        <ele>122.7</ele>
        <time>2022-03-23T14:25:11Z</time>
      </trkpt>
      <trkpt lat="49.8538" lon="2.12068">
        <ele>122.7</ele>
        <time>2022-03-23T14:25:12Z</time>
      </trkpt>
      <trkpt lat="49.8538" lon="2.12067">
        <ele>122.7</ele>
        <time>2022-03-23T14:25:13Z</time>
      </trkpt>
      <trkpt lat="49.8538" lon="2.12066">
        <ele>122.7</ele>
        <time>2022-03-23T14:25:14Z</time>
      </trkpt>
      <trkpt lat="49.85381" lon="2.12065">
        <ele>122.8</ele>
        <time>2022-03-23T14:25:15Z</time>
      </trkpt>
      <trkpt lat="49.85381" lon="2.12064">
        <ele>122.8</ele>
        <time>2022-03-23T14:25:16Z</time>
      </trkpt>
      <trkpt lat="49.85381" lon="2.12063">
        <ele>122.8</ele>
        <time>2022-03-23T14:25:17Z</time>
      </trkpt>
      <trkpt lat="49.85381" lon="2.12061">
        <ele>122.8</ele>
        <time>2022-03-23T14:25:18Z</time>
      </trkpt>
      <trkpt lat="49.85381" lon="2.12059">
        <ele>122.8</ele>
        <time>2022-03-23T14:25:19Z</time>
      </trkpt>
      <trkpt lat="49.85382" lon="2.12056">
        <ele>122.9</ele>
        <time>2022-03-23T14:25:20Z</time>
      </trkpt>
      <trkpt lat="49.85383" lon="2.12054">
        <ele>122.9</ele>
        <time>2022-03-23T14:25:21Z</time>
      </trkpt>
      <trkpt lat="49.85384" lon="2.12051">
        <ele>122.9</ele>
        <time>2022-03-23T14:25:23Z</time>
      </trkpt>
      <trkpt lat="49.85385" lon="2.12049">
        <ele>122.9</ele>
        <time>2022-03-23T14:25:24Z</time>
      </trkpt>
      <trkpt lat="49.85386" lon="2.12048">
        <ele>123</ele>
        <time>2022-03-23T14:25:25Z</time>
      </trkpt>
      <trkpt lat="49.85386" lon="2.12046">
        <ele>123</ele>
        <time>2022-03-23T14:25:26Z</time>
      </trkpt>
      <trkpt lat="49.85387" lon="2.12045">
        <ele>123</ele>
        <time>2022-03-23T14:25:27Z</time>
      </trkpt>
      <trkpt lat="49.85388" lon="2.12044">
        <ele>123</ele>
        <time>2022-03-23T14:25:28Z</time>
      </trkpt>
      <trkpt lat="49.85388" lon="2.12042">
        <ele>123</ele>
        <time>2022-03-23T14:25:29Z</time>
      </trkpt>
      <trkpt lat="49.85389" lon="2.1204">
        <ele>123.1</ele>
        <time>2022-03-23T14:25:30Z</time>
      </trkpt>
      <trkpt lat="49.85389" lon="2.12037">
        <ele>123.1</ele>
        <time>2022-03-23T14:25:31Z</time>
      </trkpt>
      <trkpt lat="49.85389" lon="2.12035">
        <ele>123.1</ele>
        <time>2022-03-23T14:25:32Z</time>
      </trkpt>
      <trkpt lat="49.8539" lon="2.12034">
        <ele>123.1</ele>
        <time>2022-03-23T14:25:33Z</time>
      </trkpt>
      <trkpt lat="49.8539" lon="2.12032">
        <ele>123.1</ele>
        <time>2022-03-23T14:25:35Z</time>
      </trkpt>
      <trkpt lat="49.8539" lon="2.1203">
        <ele>123.2</ele>
        <time>2022-03-23T14:25:36Z</time>
      </trkpt>
      <trkpt lat="49.8539" lon="2.12027">
        <ele>123.2</ele>
        <time>2022-03-23T14:25:37Z</time>
      </trkpt>
      <trkpt lat="49.85391" lon="2.12025">
        <ele>123.2</ele>
        <time>2022-03-23T14:25:38Z</time>
      </trkpt>
      <trkpt lat="49.85391" lon="2.12024">
        <ele>123.2</ele>
        <time>2022-03-23T14:25:39Z</time>
      </trkpt>
      <trkpt lat="49.85391" lon="2.12021">
        <ele>123.2</ele>
        <time>2022-03-23T14:25:40Z</time>
      </trkpt>
      <trkpt lat="49.85391" lon="2.12019">
        <ele>123.2</ele>
        <time>2022-03-23T14:25:41Z</time>
      </trkpt>
      <trkpt lat="49.85392" lon="2.12017">
        <ele>123.2</ele>
        <time>2022-03-23T14:25:42Z</time>
      </trkpt>
      <trkpt lat="49.85392" lon="2.12015">
        <ele>123.2</ele>
        <time>2022-03-23T14:25:43Z</time>
      </trkpt>
      <trkpt lat="49.85392" lon="2.12012">
        <ele>123.2</ele>
        <time>2022-03-23T14:25:44Z</time>
      </trkpt>
      <trkpt lat="49.85393" lon="2.12011">
        <ele>123.2</ele>
        <time>2022-03-23T14:25:45Z</time>
      </trkpt>
      <trkpt lat="49.85393" lon="2.1201">
        <ele>123.2</ele>
        <time>2022-03-23T14:25:46Z</time>
      </trkpt>
      <trkpt lat="49.85393" lon="2.12008">
        <ele>123.2</ele>
        <time>2022-03-23T14:25:47Z</time>
      </trkpt>
      <trkpt lat="49.85394" lon="2.12006">
        <ele>123.2</ele>
        <time>2022-03-23T14:25:48Z</time>
      </trkpt>
      <trkpt lat="49.85394" lon="2.12004">
        <ele>123.2</ele>
        <time>2022-03-23T14:25:50Z</time>
      </trkpt>
      <trkpt lat="49.85395" lon="2.12">
        <ele>123.2</ele>
        <time>2022-03-23T14:25:51Z</time>
      </trkpt>
      <trkpt lat="49.85395" lon="2.11999">
        <ele>123.2</ele>
        <time>2022-03-23T14:25:52Z</time>
      </trkpt>
      <trkpt lat="49.85395" lon="2.11998">
        <ele>123.2</ele>
        <time>2022-03-23T14:25:53Z</time>
      </trkpt>
      <trkpt lat="49.85396" lon="2.11995">
        <ele>123.2</ele>
        <time>2022-03-23T14:25:54Z</time>
      </trkpt>
      <trkpt lat="49.85396" lon="2.11994">
        <ele>123.2</ele>
        <time>2022-03-23T14:25:55Z</time>
      </trkpt>
      <trkpt lat="49.85396" lon="2.11993">
        <ele>123.2</ele>
        <time>2022-03-23T14:25:56Z</time>
      </trkpt>
      <trkpt lat="49.85397" lon="2.11991">
        <ele>123.2</ele>
        <time>2022-03-23T14:25:57Z</time>
      </trkpt>
      <trkpt lat="49.85397" lon="2.11989">
        <ele>123.2</ele>
        <time>2022-03-23T14:25:58Z</time>
      </trkpt>
      <trkpt lat="49.85397" lon="2.11987">
        <ele>123.1</ele>
        <time>2022-03-23T14:25:59Z</time>
      </trkpt>
      <trkpt lat="49.85397" lon="2.11985">
        <ele>123.1</ele>
        <time>2022-03-23T14:26:01Z</time>
      </trkpt>
      <trkpt lat="49.85398" lon="2.11982">
        <ele>123.1</ele>
        <time>2022-03-23T14:26:02Z</time>
      </trkpt>
      <trkpt lat="49.85398" lon="2.1198">
        <ele>123.1</ele>
        <time>2022-03-23T14:26:03Z</time>
      </trkpt>
      <trkpt lat="49.85398" lon="2.11977">
        <ele>123.1</ele>
        <time>2022-03-23T14:26:04Z</time>
      </trkpt>
      <trkpt lat="49.85399" lon="2.11976">
        <ele>123.1</ele>
        <time>2022-03-23T14:26:05Z</time>
      </trkpt>
      <trkpt lat="49.85399" lon="2.11974">
        <ele>123.1</ele>
        <time>2022-03-23T14:26:06Z</time>
      </trkpt>
      <trkpt lat="49.85399" lon="2.11971">
        <ele>123</ele>
        <time>2022-03-23T14:26:08Z</time>
      </trkpt>
      <trkpt lat="49.854" lon="2.11969">
        <ele>123</ele>
        <time>2022-03-23T14:26:09Z</time>
      </trkpt>
      <trkpt lat="49.854" lon="2.11967">
        <ele>123</ele>
        <time>2022-03-23T14:26:10Z</time>
      </trkpt>
      <trkpt lat="49.854" lon="2.11965">
        <ele>123</ele>
        <time>2022-03-23T14:26:11Z</time>
      </trkpt>
      <trkpt lat="49.854" lon="2.11964">
        <ele>123</ele>
        <time>2022-03-23T14:26:12Z</time>
      </trkpt>
      <trkpt lat="49.854" lon="2.11962">
        <ele>123</ele>
        <time>2022-03-23T14:26:13Z</time>
      </trkpt>
      <trkpt lat="49.85401" lon="2.11959">
        <ele>123</ele>
        <time>2022-03-23T14:26:14Z</time>
      </trkpt>
      <trkpt lat="49.85401" lon="2.11957">
        <ele>123</ele>
        <time>2022-03-23T14:26:15Z</time>
      </trkpt>
      <trkpt lat="49.85402" lon="2.11956">
        <ele>122.9</ele>
        <time>2022-03-23T14:26:16Z</time>
      </trkpt>
      <trkpt lat="49.85402" lon="2.11954">
        <ele>122.9</ele>
        <time>2022-03-23T14:26:17Z</time>
      </trkpt>
      <trkpt lat="49.85403" lon="2.11952">
        <ele>122.9</ele>
        <time>2022-03-23T14:26:18Z</time>
      </trkpt>
      <trkpt lat="49.85404" lon="2.11949">
        <ele>122.9</ele>
        <time>2022-03-23T14:26:19Z</time>
      </trkpt>
      <trkpt lat="49.85404" lon="2.11948">
        <ele>122.9</ele>
        <time>2022-03-23T14:26:20Z</time>
      </trkpt>
      <trkpt lat="49.85404" lon="2.11947">
        <ele>122.9</ele>
        <time>2022-03-23T14:26:21Z</time>
      </trkpt>
      <trkpt lat="49.85405" lon="2.11944">
        <ele>122.9</ele>
        <time>2022-03-23T14:26:23Z</time>
      </trkpt>
      <trkpt lat="49.85405" lon="2.11942">
        <ele>122.9</ele>
        <time>2022-03-23T14:26:24Z</time>
      </trkpt>
      <trkpt lat="49.85405" lon="2.1194">
        <ele>122.9</ele>
        <time>2022-03-23T14:26:25Z</time>
      </trkpt>
      <trkpt lat="49.85406" lon="2.11939">
        <ele>122.9</ele>
        <time>2022-03-23T14:26:26Z</time>
      </trkpt>
      <trkpt lat="49.85406" lon="2.11937">
        <ele>122.9</ele>
        <time>2022-03-23T14:26:27Z</time>
      </trkpt>
      <trkpt lat="49.85406" lon="2.11935">
        <ele>122.9</ele>
        <time>2022-03-23T14:26:28Z</time>
      </trkpt>
      <trkpt lat="49.85407" lon="2.11933">
        <ele>122.9</ele>
        <time>2022-03-23T14:26:29Z</time>
      </trkpt>
      <trkpt lat="49.85408" lon="2.1193">
        <ele>122.9</ele>
        <time>2022-03-23T14:26:31Z</time>
      </trkpt>
      <trkpt lat="49.85408" lon="2.11929">
        <ele>122.9</ele>
        <time>2022-03-23T14:26:32Z</time>
      </trkpt>
      <trkpt lat="49.85408" lon="2.11928">
        <ele>122.9</ele>
        <time>2022-03-23T14:26:33Z</time>
      </trkpt>
      <trkpt lat="49.85409" lon="2.11925">
        <ele>122.9</ele>
        <time>2022-03-23T14:26:34Z</time>
      </trkpt>
      <trkpt lat="49.8541" lon="2.11924">
        <ele>122.9</ele>
        <time>2022-03-23T14:26:35Z</time>
      </trkpt>
      <trkpt lat="49.8541" lon="2.11922">
        <ele>122.9</ele>
        <time>2022-03-23T14:26:36Z</time>
      </trkpt>
      <trkpt lat="49.85411" lon="2.1192">
        <ele>122.9</ele>
        <time>2022-03-23T14:26:37Z</time>
      </trkpt>
      <trkpt lat="49.85411" lon="2.11918">
        <ele>122.8</ele>
        <time>2022-03-23T14:26:38Z</time>
      </trkpt>
      <trkpt lat="49.85412" lon="2.11914">
        <ele>122.8</ele>
        <time>2022-03-23T14:26:39Z</time>
      </trkpt>
      <trkpt lat="49.85412" lon="2.11913">
        <ele>122.8</ele>
        <time>2022-03-23T14:26:41Z</time>
      </trkpt>
      <trkpt lat="49.85413" lon="2.11911">
        <ele>122.8</ele>
        <time>2022-03-23T14:26:42Z</time>
      </trkpt>
      <trkpt lat="49.85413" lon="2.1191">
        <ele>122.8</ele>
        <time>2022-03-23T14:26:43Z</time>
      </trkpt>
      <trkpt lat="49.85413" lon="2.11908">
        <ele>122.8</ele>
        <time>2022-03-23T14:26:44Z</time>
      </trkpt>
      <trkpt lat="49.85414" lon="2.11907">
        <ele>122.8</ele>
        <time>2022-03-23T14:26:45Z</time>
      </trkpt>
      <trkpt lat="49.85414" lon="2.11905">
        <ele>122.8</ele>
        <time>2022-03-23T14:26:46Z</time>
      </trkpt>
      <trkpt lat="49.85415" lon="2.11903">
        <ele>122.8</ele>
        <time>2022-03-23T14:26:47Z</time>
      </trkpt>
      <trkpt lat="49.85415" lon="2.119">
        <ele>122.8</ele>
        <time>2022-03-23T14:26:49Z</time>
      </trkpt>
      <trkpt lat="49.85416" lon="2.11899">
        <ele>122.8</ele>
        <time>2022-03-23T14:26:50Z</time>
      </trkpt>
      <trkpt lat="49.85416" lon="2.11897">
        <ele>122.8</ele>
        <time>2022-03-23T14:26:51Z</time>
      </trkpt>
      <trkpt lat="49.85416" lon="2.11895">
        <ele>122.8</ele>
        <time>2022-03-23T14:26:52Z</time>
      </trkpt>
      <trkpt lat="49.85417" lon="2.11893">
        <ele>122.8</ele>
        <time>2022-03-23T14:26:53Z</time>
      </trkpt>
      <trkpt lat="49.85417" lon="2.11891">
        <ele>122.8</ele>
        <time>2022-03-23T14:26:54Z</time>
      </trkpt>
      <trkpt lat="49.85418" lon="2.11889">
        <ele>122.8</ele>
        <time>2022-03-23T14:26:55Z</time>
      </trkpt>
      <trkpt lat="49.85418" lon="2.11886">
        <ele>122.8</ele>
        <time>2022-03-23T14:26:57Z</time>
      </trkpt>
      <trkpt lat="49.85418" lon="2.11884">
        <ele>122.8</ele>
        <time>2022-03-23T14:26:58Z</time>
      </trkpt>
      <trkpt lat="49.85419" lon="2.11883">
        <ele>122.8</ele>
        <time>2022-03-23T14:26:59Z</time>
      </trkpt>
      <trkpt lat="49.85419" lon="2.11881">
        <ele>122.8</ele>
        <time>2022-03-23T14:27:00Z</time>
      </trkpt>
      <trkpt lat="49.85419" lon="2.11879">
        <ele>122.8</ele>
        <time>2022-03-23T14:27:01Z</time>
      </trkpt>
      <trkpt lat="49.85419" lon="2.11877">
        <ele>122.8</ele>
        <time>2022-03-23T14:27:02Z</time>
      </trkpt>
      <trkpt lat="49.8542" lon="2.11874">
        <ele>122.8</ele>
        <time>2022-03-23T14:27:03Z</time>
      </trkpt>
      <trkpt lat="49.8542" lon="2.11872">
        <ele>122.8</ele>
        <time>2022-03-23T14:27:04Z</time>
      </trkpt>
      <trkpt lat="49.8542" lon="2.1187">
        <ele>122.8</ele>
        <time>2022-03-23T14:27:05Z</time>
      </trkpt>
      <trkpt lat="49.85421" lon="2.11868">
        <ele>122.8</ele>
        <time>2022-03-23T14:27:06Z</time>
      </trkpt>
      <trkpt lat="49.85421" lon="2.11866">
        <ele>122.8</ele>
        <time>2022-03-23T14:27:07Z</time>
      </trkpt>
      <trkpt lat="49.85421" lon="2.11863">
        <ele>122.8</ele>
        <time>2022-03-23T14:27:08Z</time>
      </trkpt>
      <trkpt lat="49.85422" lon="2.11861">
        <ele>122.8</ele>
        <time>2022-03-23T14:27:09Z</time>
      </trkpt>
      <trkpt lat="49.85422" lon="2.11859">
        <ele>122.8</ele>
        <time>2022-03-23T14:27:11Z</time>
      </trkpt>
      <trkpt lat="49.85423" lon="2.11857">
        <ele>122.8</ele>
        <time>2022-03-23T14:27:12Z</time>
      </trkpt>
      <trkpt lat="49.85423" lon="2.11855">
        <ele>122.8</ele>
        <time>2022-03-23T14:27:13Z</time>
      </trkpt>
      <trkpt lat="49.85423" lon="2.11854">
        <ele>122.7</ele>
        <time>2022-03-23T14:27:14Z</time>
      </trkpt>
      <trkpt lat="49.85423" lon="2.11852">
        <ele>122.7</ele>
        <time>2022-03-23T14:27:15Z</time>
      </trkpt>
      <trkpt lat="49.85424" lon="2.1185">
        <ele>122.7</ele>
        <time>2022-03-23T14:27:16Z</time>
      </trkpt>
      <trkpt lat="49.85424" lon="2.11848">
        <ele>122.7</ele>
        <time>2022-03-23T14:27:17Z</time>
      </trkpt>
      <trkpt lat="49.85424" lon="2.11847">
        <ele>122.7</ele>
        <time>2022-03-23T14:27:18Z</time>
      </trkpt>
      <trkpt lat="49.85425" lon="2.11845">
        <ele>122.7</ele>
        <time>2022-03-23T14:27:19Z</time>
      </trkpt>
      <trkpt lat="49.85425" lon="2.11842">
        <ele>122.7</ele>
        <time>2022-03-23T14:27:20Z</time>
      </trkpt>
      <trkpt lat="49.85425" lon="2.1184">
        <ele>122.7</ele>
        <time>2022-03-23T14:27:21Z</time>
      </trkpt>
      <trkpt lat="49.85426" lon="2.11837">
        <ele>122.6</ele>
        <time>2022-03-23T14:27:23Z</time>
      </trkpt>
      <trkpt lat="49.85427" lon="2.11836">
        <ele>122.6</ele>
        <time>2022-03-23T14:27:24Z</time>
      </trkpt>
      <trkpt lat="49.85428" lon="2.11834">
        <ele>122.6</ele>
        <time>2022-03-23T14:27:25Z</time>
      </trkpt>
      <trkpt lat="49.85429" lon="2.11832">
        <ele>122.6</ele>
        <time>2022-03-23T14:27:26Z</time>
      </trkpt>
      <trkpt lat="49.8543" lon="2.1183">
        <ele>122.6</ele>
        <time>2022-03-23T14:27:27Z</time>
      </trkpt>
      <trkpt lat="49.8543" lon="2.11828">
        <ele>122.6</ele>
        <time>2022-03-23T14:27:28Z</time>
      </trkpt>
      <trkpt lat="49.85431" lon="2.11826">
        <ele>122.6</ele>
        <time>2022-03-23T14:27:29Z</time>
      </trkpt>
      <trkpt lat="49.85431" lon="2.11824">
        <ele>122.6</ele>
        <time>2022-03-23T14:27:30Z</time>
      </trkpt>
      <trkpt lat="49.85432" lon="2.11823">
        <ele>122.5</ele>
        <time>2022-03-23T14:27:31Z</time>
      </trkpt>
      <trkpt lat="49.85432" lon="2.1182">
        <ele>122.5</ele>
        <time>2022-03-23T14:27:33Z</time>
      </trkpt>
      <trkpt lat="49.85433" lon="2.11818">
        <ele>122.5</ele>
        <time>2022-03-23T14:27:34Z</time>
      </trkpt>
      <trkpt lat="49.85433" lon="2.11817">
        <ele>122.5</ele>
        <time>2022-03-23T14:27:35Z</time>
      </trkpt>
      <trkpt lat="49.85433" lon="2.11815">
        <ele>122.5</ele>
        <time>2022-03-23T14:27:36Z</time>
      </trkpt>
      <trkpt lat="49.85433" lon="2.11812">
        <ele>122.5</ele>
        <time>2022-03-23T14:27:37Z</time>
      </trkpt>
      <trkpt lat="49.85434" lon="2.1181">
        <ele>122.5</ele>
        <time>2022-03-23T14:27:38Z</time>
      </trkpt>
      <trkpt lat="49.85434" lon="2.11808">
        <ele>122.5</ele>
        <time>2022-03-23T14:27:40Z</time>
      </trkpt>
      <trkpt lat="49.85435" lon="2.11806">
        <ele>122.4</ele>
        <time>2022-03-23T14:27:41Z</time>
      </trkpt>
      <trkpt lat="49.85436" lon="2.11804">
        <ele>122.4</ele>
        <time>2022-03-23T14:27:42Z</time>
      </trkpt>
      <trkpt lat="49.85436" lon="2.11802">
        <ele>122.4</ele>
        <time>2022-03-23T14:27:43Z</time>
      </trkpt>
      <trkpt lat="49.85437" lon="2.118">
        <ele>122.4</ele>
        <time>2022-03-23T14:27:44Z</time>
      </trkpt>
      <trkpt lat="49.85437" lon="2.11798">
        <ele>122.4</ele>
        <time>2022-03-23T14:27:45Z</time>
      </trkpt>
      <trkpt lat="49.85438" lon="2.11796">
        <ele>122.4</ele>
        <time>2022-03-23T14:27:46Z</time>
      </trkpt>
      <trkpt lat="49.85438" lon="2.11793">
        <ele>122.3</ele>
        <time>2022-03-23T14:27:47Z</time>
      </trkpt>
      <trkpt lat="49.85439" lon="2.11789">
        <ele>122.3</ele>
        <time>2022-03-23T14:27:49Z</time>
      </trkpt>
      <trkpt lat="49.85439" lon="2.11788">
        <ele>122.3</ele>
        <time>2022-03-23T14:27:50Z</time>
      </trkpt>
      <trkpt lat="49.85439" lon="2.11787">
        <ele>122.3</ele>
        <time>2022-03-23T14:27:51Z</time>
      </trkpt>
      <trkpt lat="49.85439" lon="2.11784">
        <ele>122.3</ele>
        <time>2022-03-23T14:27:52Z</time>
      </trkpt>
      <trkpt lat="49.85439" lon="2.11783">
        <ele>122.2</ele>
        <time>2022-03-23T14:27:53Z</time>
      </trkpt>
      <trkpt lat="49.85439" lon="2.11781">
        <ele>122.2</ele>
        <time>2022-03-23T14:27:54Z</time>
      </trkpt>
      <trkpt lat="49.85439" lon="2.11779">
        <ele>122.2</ele>
        <time>2022-03-23T14:27:55Z</time>
      </trkpt>
      <trkpt lat="49.85439" lon="2.11777">
        <ele>122.2</ele>
        <time>2022-03-23T14:27:56Z</time>
      </trkpt>
      <trkpt lat="49.8544" lon="2.11775">
        <ele>122.2</ele>
        <time>2022-03-23T14:27:57Z</time>
      </trkpt>
      <trkpt lat="49.8544" lon="2.11772">
        <ele>122.2</ele>
        <time>2022-03-23T14:27:58Z</time>
      </trkpt>
      <trkpt lat="49.8544" lon="2.1177">
        <ele>122.2</ele>
        <time>2022-03-23T14:27:59Z</time>
      </trkpt>
      <trkpt lat="49.8544" lon="2.11768">
        <ele>122.2</ele>
        <time>2022-03-23T14:28:00Z</time>
      </trkpt>
      <trkpt lat="49.8544" lon="2.11766">
        <ele>122.2</ele>
        <time>2022-03-23T14:28:01Z</time>
      </trkpt>
      <trkpt lat="49.85441" lon="2.11763">
        <ele>122.3</ele>
        <time>2022-03-23T14:28:02Z</time>
      </trkpt>
      <trkpt lat="49.85441" lon="2.11761">
        <ele>122.3</ele>
        <time>2022-03-23T14:28:04Z</time>
      </trkpt>
      <trkpt lat="49.85441" lon="2.11759">
        <ele>122.3</ele>
        <time>2022-03-23T14:28:05Z</time>
      </trkpt>
      <trkpt lat="49.85441" lon="2.11757">
        <ele>122.3</ele>
        <time>2022-03-23T14:28:06Z</time>
      </trkpt>
      <trkpt lat="49.85441" lon="2.11755">
        <ele>122.4</ele>
        <time>2022-03-23T14:28:07Z</time>
      </trkpt>
      <trkpt lat="49.85442" lon="2.11754">
        <ele>122.4</ele>
        <time>2022-03-23T14:28:08Z</time>
      </trkpt>
      <trkpt lat="49.85442" lon="2.11753">
        <ele>122.4</ele>
        <time>2022-03-23T14:28:09Z</time>
      </trkpt>
      <trkpt lat="49.85442" lon="2.11751">
        <ele>122.4</ele>
        <time>2022-03-23T14:28:10Z</time>
      </trkpt>
      <trkpt lat="49.85443" lon="2.11749">
        <ele>122.4</ele>
        <time>2022-03-23T14:28:11Z</time>
      </trkpt>
      <trkpt lat="49.85443" lon="2.11747">
        <ele>122.5</ele>
        <time>2022-03-23T14:28:12Z</time>
      </trkpt>
      <trkpt lat="49.85444" lon="2.11745">
        <ele>122.5</ele>
        <time>2022-03-23T14:28:13Z</time>
      </trkpt>
      <trkpt lat="49.85445" lon="2.11743">
        <ele>122.5</ele>
        <time>2022-03-23T14:28:14Z</time>
      </trkpt>
      <trkpt lat="49.85445" lon="2.11741">
        <ele>122.6</ele>
        <time>2022-03-23T14:28:15Z</time>
      </trkpt>
      <trkpt lat="49.85446" lon="2.11737">
        <ele>122.6</ele>
        <time>2022-03-23T14:28:16Z</time>
      </trkpt>
      <trkpt lat="49.85446" lon="2.11736">
        <ele>122.6</ele>
        <time>2022-03-23T14:28:17Z</time>
      </trkpt>
      <trkpt lat="49.85446" lon="2.11735">
        <ele>122.6</ele>
        <time>2022-03-23T14:28:18Z</time>
      </trkpt>
      <trkpt lat="49.85447" lon="2.11732">
        <ele>122.7</ele>
        <time>2022-03-23T14:28:20Z</time>
      </trkpt>
      <trkpt lat="49.85447" lon="2.1173">
        <ele>122.7</ele>
        <time>2022-03-23T14:28:21Z</time>
      </trkpt>
      <trkpt lat="49.85448" lon="2.11729">
        <ele>122.7</ele>
        <time>2022-03-23T14:28:22Z</time>
      </trkpt>
      <trkpt lat="49.85448" lon="2.11726">
        <ele>122.7</ele>
        <time>2022-03-23T14:28:23Z</time>
      </trkpt>
      <trkpt lat="49.85448" lon="2.11725">
        <ele>122.7</ele>
        <time>2022-03-23T14:28:24Z</time>
      </trkpt>
      <trkpt lat="49.85449" lon="2.11723">
        <ele>122.7</ele>
        <time>2022-03-23T14:28:25Z</time>
      </trkpt>
      <trkpt lat="49.8545" lon="2.11719">
        <ele>122.7</ele>
        <time>2022-03-23T14:28:26Z</time>
      </trkpt>
      <trkpt lat="49.8545" lon="2.11718">
        <ele>122.7</ele>
        <time>2022-03-23T14:28:27Z</time>
      </trkpt>
      <trkpt lat="49.8545" lon="2.11716">
        <ele>122.7</ele>
        <time>2022-03-23T14:28:29Z</time>
      </trkpt>
      <trkpt lat="49.85451" lon="2.11713">
        <ele>122.7</ele>
        <time>2022-03-23T14:28:30Z</time>
      </trkpt>
      <trkpt lat="49.85451" lon="2.11711">
        <ele>122.7</ele>
        <time>2022-03-23T14:28:31Z</time>
      </trkpt>
      <trkpt lat="49.85452" lon="2.11709">
        <ele>122.8</ele>
        <time>2022-03-23T14:28:32Z</time>
      </trkpt>
      <trkpt lat="49.85452" lon="2.11707">
        <ele>122.8</ele>
        <time>2022-03-23T14:28:33Z</time>
      </trkpt>
      <trkpt lat="49.85453" lon="2.11705">
        <ele>122.8</ele>
        <time>2022-03-23T14:28:34Z</time>
      </trkpt>
      <trkpt lat="49.85453" lon="2.11703">
        <ele>122.8</ele>
        <time>2022-03-23T14:28:35Z</time>
      </trkpt>
      <trkpt lat="49.85453" lon="2.11701">
        <ele>122.8</ele>
        <time>2022-03-23T14:28:36Z</time>
      </trkpt>
      <trkpt lat="49.85454" lon="2.11698">
        <ele>122.9</ele>
        <time>2022-03-23T14:28:38Z</time>
      </trkpt>
      <trkpt lat="49.85454" lon="2.11696">
        <ele>122.9</ele>
        <time>2022-03-23T14:28:39Z</time>
      </trkpt>
      <trkpt lat="49.85454" lon="2.11694">
        <ele>122.9</ele>
        <time>2022-03-23T14:28:40Z</time>
      </trkpt>
      <trkpt lat="49.85454" lon="2.11692">
        <ele>122.9</ele>
        <time>2022-03-23T14:28:41Z</time>
      </trkpt>
      <trkpt lat="49.85455" lon="2.11691">
        <ele>122.9</ele>
        <time>2022-03-23T14:28:42Z</time>
      </trkpt>
      <trkpt lat="49.85455" lon="2.11688">
        <ele>123</ele>
        <time>2022-03-23T14:28:43Z</time>
      </trkpt>
      <trkpt lat="49.85455" lon="2.11686">
        <ele>123</ele>
        <time>2022-03-23T14:28:44Z</time>
      </trkpt>
      <trkpt lat="49.85455" lon="2.11684">
        <ele>123</ele>
        <time>2022-03-23T14:28:45Z</time>
      </trkpt>
      <trkpt lat="49.85455" lon="2.11681">
        <ele>123</ele>
        <time>2022-03-23T14:28:47Z</time>
      </trkpt>
      <trkpt lat="49.85455" lon="2.11678">
        <ele>123.1</ele>
        <time>2022-03-23T14:28:49Z</time>
      </trkpt>
      <trkpt lat="49.85456" lon="2.11677">
        <ele>123.1</ele>
        <time>2022-03-23T14:28:50Z</time>
      </trkpt>
      <trkpt lat="49.85456" lon="2.11676">
        <ele>123.1</ele>
        <time>2022-03-23T14:28:51Z</time>
      </trkpt>
      <trkpt lat="49.85456" lon="2.11676">
        <ele>123.1</ele>
        <time>2022-03-23T14:28:52Z</time>
      </trkpt>
      <trkpt lat="49.85456" lon="2.11675">
        <ele>123.1</ele>
        <time>2022-03-23T14:28:53Z</time>
      </trkpt>
      <trkpt lat="49.85456" lon="2.11675">
        <ele>123.1</ele>
        <time>2022-03-23T14:28:54Z</time>
      </trkpt>
      <trkpt lat="49.85456" lon="2.11675">
        <ele>123.1</ele>
        <time>2022-03-23T14:28:55Z</time>
      </trkpt>
      <trkpt lat="49.85456" lon="2.11674">
        <ele>123.1</ele>
        <time>2022-03-23T14:28:56Z</time>
      </trkpt>
      <trkpt lat="49.85456" lon="2.11674">
        <ele>123.1</ele>
        <time>2022-03-23T14:28:57Z</time>
      </trkpt>
      <trkpt lat="49.85456" lon="2.11674">
        <ele>123.1</ele>
        <time>2022-03-23T14:28:58Z</time>
      </trkpt>
      <trkpt lat="49.85456" lon="2.11673">
        <ele>123.1</ele>
        <time>2022-03-23T14:28:59Z</time>
      </trkpt>
      <trkpt lat="49.85456" lon="2.11673">
        <ele>123.1</ele>
        <time>2022-03-23T14:29:00Z</time>
      </trkpt>
      <trkpt lat="49.85456" lon="2.11673">
        <ele>123.1</ele>
        <time>2022-03-23T14:29:01Z</time>
      </trkpt>
      <trkpt lat="49.85456" lon="2.11672">
        <ele>123.1</ele>
        <time>2022-03-23T14:29:02Z</time>
      </trkpt>
      <trkpt lat="49.85456" lon="2.11672">
        <ele>123.1</ele>
        <time>2022-03-23T14:29:03Z</time>
      </trkpt>
      <trkpt lat="49.85456" lon="2.11672">
        <ele>123.1</ele>
        <time>2022-03-23T14:29:04Z</time>
      </trkpt>
      <trkpt lat="49.85456" lon="2.11671">
        <ele>123.1</ele>
        <time>2022-03-23T14:29:05Z</time>
      </trkpt>
      <trkpt lat="49.85456" lon="2.11671">
        <ele>123.1</ele>
        <time>2022-03-23T14:29:06Z</time>
      </trkpt>
      <trkpt lat="49.85456" lon="2.11671">
        <ele>123.1</ele>
        <time>2022-03-23T14:29:07Z</time>
      </trkpt>
      <trkpt lat="49.85456" lon="2.1167">
        <ele>123.1</ele>
        <time>2022-03-23T14:29:08Z</time>
      </trkpt>
      <trkpt lat="49.85456" lon="2.1167">
        <ele>123.1</ele>
        <time>2022-03-23T14:29:09Z</time>
      </trkpt>
      <trkpt lat="49.85456" lon="2.1167">
        <ele>123.1</ele>
        <time>2022-03-23T14:29:10Z</time>
      </trkpt>
      <trkpt lat="49.85456" lon="2.11669">
        <ele>123.1</ele>
        <time>2022-03-23T14:29:11Z</time>
      </trkpt>
      <trkpt lat="49.85456" lon="2.11669">
        <ele>123.1</ele>
        <time>2022-03-23T14:29:12Z</time>
      </trkpt>
      <trkpt lat="49.85456" lon="2.11669">
        <ele>123.1</ele>
        <time>2022-03-23T14:29:13Z</time>
      </trkpt>
      <trkpt lat="49.85456" lon="2.11669">
        <ele>123.1</ele>
        <time>2022-03-23T14:29:14Z</time>
      </trkpt>
      <trkpt lat="49.85456" lon="2.11668">
        <ele>123.1</ele>
        <time>2022-03-23T14:29:15Z</time>
      </trkpt>
      <trkpt lat="49.85456" lon="2.11668">
        <ele>123.1</ele>
        <time>2022-03-23T14:29:16Z</time>
      </trkpt>
      <trkpt lat="49.85456" lon="2.11668">
        <ele>123.1</ele>
        <time>2022-03-23T14:29:18Z</time>
      </trkpt>
      <trkpt lat="49.85456" lon="2.11667">
        <ele>123.1</ele>
        <time>2022-03-23T14:29:19Z</time>
      </trkpt>
      <trkpt lat="49.85456" lon="2.11667">
        <ele>123.1</ele>
        <time>2022-03-23T14:29:20Z</time>
      </trkpt>
      <trkpt lat="49.85456" lon="2.11667">
        <ele>123.1</ele>
        <time>2022-03-23T14:29:21Z</time>
      </trkpt>
      <trkpt lat="49.85456" lon="2.11665">
        <ele>123.1</ele>
        <time>2022-03-23T14:29:22Z</time>
      </trkpt>
      <trkpt lat="49.85456" lon="2.11663">
        <ele>123.1</ele>
        <time>2022-03-23T14:29:23Z</time>
      </trkpt>
      <trkpt lat="49.85456" lon="2.11662">
        <ele>123.1</ele>
        <time>2022-03-23T14:29:24Z</time>
      </trkpt>
      <trkpt lat="49.85457" lon="2.1166">
        <ele>123.1</ele>
        <time>2022-03-23T14:29:25Z</time>
      </trkpt>
      <trkpt lat="49.85457" lon="2.11659">
        <ele>123.1</ele>
        <time>2022-03-23T14:29:26Z</time>
      </trkpt>
      <trkpt lat="49.85458" lon="2.11657">
        <ele>123.1</ele>
        <time>2022-03-23T14:29:27Z</time>
      </trkpt>
      <trkpt lat="49.85458" lon="2.11656">
        <ele>123.1</ele>
        <time>2022-03-23T14:29:28Z</time>
      </trkpt>
      <trkpt lat="49.85459" lon="2.11655">
        <ele>123.1</ele>
        <time>2022-03-23T14:29:30Z</time>
      </trkpt>
      <trkpt lat="49.85459" lon="2.11655">
        <ele>123.1</ele>
        <time>2022-03-23T14:29:31Z</time>
      </trkpt>
      <trkpt lat="49.85461" lon="2.11654">
        <ele>123.1</ele>
        <time>2022-03-23T14:29:32Z</time>
      </trkpt>
      <trkpt lat="49.85462" lon="2.11652">
        <ele>123</ele>
        <time>2022-03-23T14:29:33Z</time>
      </trkpt>
      <trkpt lat="49.85462" lon="2.1165">
        <ele>123</ele>
        <time>2022-03-23T14:29:34Z</time>
      </trkpt>
      <trkpt lat="49.85463" lon="2.11648">
        <ele>123</ele>
        <time>2022-03-23T14:29:35Z</time>
      </trkpt>
      <trkpt lat="49.85465" lon="2.11642">
        <ele>123</ele>
        <time>2022-03-23T14:29:37Z</time>
      </trkpt>
      <trkpt lat="49.85466" lon="2.1164">
        <ele>123</ele>
        <time>2022-03-23T14:29:38Z</time>
      </trkpt>
      <trkpt lat="49.85466" lon="2.11639">
        <ele>123</ele>
        <time>2022-03-23T14:29:39Z</time>
      </trkpt>
      <trkpt lat="49.85467" lon="2.11636">
        <ele>123</ele>
        <time>2022-03-23T14:29:40Z</time>
      </trkpt>
      <trkpt lat="49.85468" lon="2.11634">
        <ele>123</ele>
        <time>2022-03-23T14:29:41Z</time>
      </trkpt>
      <trkpt lat="49.85469" lon="2.11631">
        <ele>123</ele>
        <time>2022-03-23T14:29:42Z</time>
      </trkpt>
      <trkpt lat="49.85469" lon="2.11629">
        <ele>123</ele>
        <time>2022-03-23T14:29:43Z</time>
      </trkpt>
      <trkpt lat="49.8547" lon="2.11627">
        <ele>123</ele>
        <time>2022-03-23T14:29:44Z</time>
      </trkpt>
      <trkpt lat="49.8547" lon="2.11625">
        <ele>123</ele>
        <time>2022-03-23T14:29:45Z</time>
      </trkpt>
      <trkpt lat="49.85471" lon="2.11623">
        <ele>123</ele>
        <time>2022-03-23T14:29:46Z</time>
      </trkpt>
      <trkpt lat="49.85471" lon="2.11621">
        <ele>123.1</ele>
        <time>2022-03-23T14:29:47Z</time>
      </trkpt>
      <trkpt lat="49.85471" lon="2.11619">
        <ele>123.1</ele>
        <time>2022-03-23T14:29:49Z</time>
      </trkpt>
      <trkpt lat="49.85471" lon="2.11616">
        <ele>123.1</ele>
        <time>2022-03-23T14:29:50Z</time>
      </trkpt>
      <trkpt lat="49.85472" lon="2.11613">
        <ele>123.1</ele>
        <time>2022-03-23T14:29:51Z</time>
      </trkpt>
      <trkpt lat="49.85472" lon="2.11611">
        <ele>123.2</ele>
        <time>2022-03-23T14:29:52Z</time>
      </trkpt>
      <trkpt lat="49.85472" lon="2.11609">
        <ele>123.2</ele>
        <time>2022-03-23T14:29:54Z</time>
      </trkpt>
      <trkpt lat="49.85472" lon="2.11607">
        <ele>123.2</ele>
        <time>2022-03-23T14:29:55Z</time>
      </trkpt>
      <trkpt lat="49.85473" lon="2.11605">
        <ele>123.2</ele>
        <time>2022-03-23T14:29:56Z</time>
      </trkpt>
      <trkpt lat="49.85473" lon="2.11603">
        <ele>123.2</ele>
        <time>2022-03-23T14:29:57Z</time>
      </trkpt>
      <trkpt lat="49.85473" lon="2.11601">
        <ele>123.2</ele>
        <time>2022-03-23T14:29:58Z</time>
      </trkpt>
      <trkpt lat="49.85474" lon="2.11599">
        <ele>123.3</ele>
        <time>2022-03-23T14:29:59Z</time>
      </trkpt>
      <trkpt lat="49.85474" lon="2.11597">
        <ele>123.3</ele>
        <time>2022-03-23T14:30:00Z</time>
      </trkpt>
      <trkpt lat="49.85474" lon="2.11595">
        <ele>123.3</ele>
        <time>2022-03-23T14:30:01Z</time>
      </trkpt>
      <trkpt lat="49.85475" lon="2.11594">
        <ele>123.3</ele>
        <time>2022-03-23T14:30:02Z</time>
      </trkpt>
      <trkpt lat="49.85475" lon="2.11592">
        <ele>123.3</ele>
        <time>2022-03-23T14:30:03Z</time>
      </trkpt>
      <trkpt lat="49.85476" lon="2.1159">
        <ele>123.3</ele>
        <time>2022-03-23T14:30:04Z</time>
      </trkpt>
      <trkpt lat="49.85476" lon="2.11588">
        <ele>123.3</ele>
        <time>2022-03-23T14:30:05Z</time>
      </trkpt>
      <trkpt lat="49.85477" lon="2.11585">
        <ele>123.4</ele>
        <time>2022-03-23T14:30:07Z</time>
      </trkpt>
      <trkpt lat="49.85477" lon="2.11584">
        <ele>123.4</ele>
        <time>2022-03-23T14:30:08Z</time>
      </trkpt>
      <trkpt lat="49.85478" lon="2.11582">
        <ele>123.4</ele>
        <time>2022-03-23T14:30:09Z</time>
      </trkpt>
      <trkpt lat="49.85479" lon="2.1158">
        <ele>123.4</ele>
        <time>2022-03-23T14:30:10Z</time>
      </trkpt>
      <trkpt lat="49.85479" lon="2.11578">
        <ele>123.4</ele>
        <time>2022-03-23T14:30:11Z</time>
      </trkpt>
      <trkpt lat="49.85479" lon="2.11577">
        <ele>123.4</ele>
        <time>2022-03-23T14:30:12Z</time>
      </trkpt>
      <trkpt lat="49.85479" lon="2.11575">
        <ele>123.4</ele>
        <time>2022-03-23T14:30:13Z</time>
      </trkpt>
      <trkpt lat="49.8548" lon="2.11573">
        <ele>123.4</ele>
        <time>2022-03-23T14:30:14Z</time>
      </trkpt>
      <trkpt lat="49.8548" lon="2.11571">
        <ele>123.5</ele>
        <time>2022-03-23T14:30:15Z</time>
      </trkpt>
      <trkpt lat="49.85481" lon="2.11569">
        <ele>123.5</ele>
        <time>2022-03-23T14:30:16Z</time>
      </trkpt>
      <trkpt lat="49.85481" lon="2.11567">
        <ele>123.5</ele>
        <time>2022-03-23T14:30:18Z</time>
      </trkpt>
      <trkpt lat="49.85481" lon="2.11565">
        <ele>123.5</ele>
        <time>2022-03-23T14:30:19Z</time>
      </trkpt>
      <trkpt lat="49.85482" lon="2.11564">
        <ele>123.5</ele>
        <time>2022-03-23T14:30:20Z</time>
      </trkpt>
      <trkpt lat="49.85482" lon="2.11562">
        <ele>123.5</ele>
        <time>2022-03-23T14:30:21Z</time>
      </trkpt>
      <trkpt lat="49.85482" lon="2.11559">
        <ele>123.5</ele>
        <time>2022-03-23T14:30:22Z</time>
      </trkpt>
      <trkpt lat="49.85482" lon="2.11558">
        <ele>123.6</ele>
        <time>2022-03-23T14:30:23Z</time>
      </trkpt>
      <trkpt lat="49.85482" lon="2.11556">
        <ele>123.6</ele>
        <time>2022-03-23T14:30:24Z</time>
      </trkpt>
      <trkpt lat="49.85483" lon="2.11555">
        <ele>123.6</ele>
        <time>2022-03-23T14:30:25Z</time>
      </trkpt>
      <trkpt lat="49.85483" lon="2.11553">
        <ele>123.6</ele>
        <time>2022-03-23T14:30:26Z</time>
      </trkpt>
      <trkpt lat="49.85484" lon="2.11551">
        <ele>123.6</ele>
        <time>2022-03-23T14:30:28Z</time>
      </trkpt>
      <trkpt lat="49.85484" lon="2.11549">
        <ele>123.6</ele>
        <time>2022-03-23T14:30:29Z</time>
      </trkpt>
      <trkpt lat="49.85484" lon="2.11547">
        <ele>123.6</ele>
        <time>2022-03-23T14:30:30Z</time>
      </trkpt>
      <trkpt lat="49.85485" lon="2.11546">
        <ele>123.7</ele>
        <time>2022-03-23T14:30:31Z</time>
      </trkpt>
      <trkpt lat="49.85485" lon="2.11544">
        <ele>123.7</ele>
        <time>2022-03-23T14:30:32Z</time>
      </trkpt>
      <trkpt lat="49.85485" lon="2.11543">
        <ele>123.7</ele>
        <time>2022-03-23T14:30:33Z</time>
      </trkpt>
      <trkpt lat="49.85486" lon="2.11541">
        <ele>123.7</ele>
        <time>2022-03-23T14:30:34Z</time>
      </trkpt>
      <trkpt lat="49.85486" lon="2.11539">
        <ele>123.7</ele>
        <time>2022-03-23T14:30:35Z</time>
      </trkpt>
      <trkpt lat="49.85487" lon="2.11537">
        <ele>123.8</ele>
        <time>2022-03-23T14:30:36Z</time>
      </trkpt>
      <trkpt lat="49.85487" lon="2.11533">
        <ele>123.8</ele>
        <time>2022-03-23T14:30:37Z</time>
      </trkpt>
      <trkpt lat="49.85488" lon="2.11532">
        <ele>123.8</ele>
        <time>2022-03-23T14:30:38Z</time>
      </trkpt>
      <trkpt lat="49.85488" lon="2.11531">
        <ele>123.8</ele>
        <time>2022-03-23T14:30:39Z</time>
      </trkpt>
      <trkpt lat="49.85488" lon="2.11528">
        <ele>123.9</ele>
        <time>2022-03-23T14:30:41Z</time>
      </trkpt>
      <trkpt lat="49.85489" lon="2.11526">
        <ele>123.9</ele>
        <time>2022-03-23T14:30:42Z</time>
      </trkpt>
      <trkpt lat="49.85489" lon="2.11525">
        <ele>123.9</ele>
        <time>2022-03-23T14:30:43Z</time>
      </trkpt>
      <trkpt lat="49.8549" lon="2.11523">
        <ele>123.9</ele>
        <time>2022-03-23T14:30:44Z</time>
      </trkpt>
      <trkpt lat="49.8549" lon="2.11521">
        <ele>123.9</ele>
        <time>2022-03-23T14:30:45Z</time>
      </trkpt>
      <trkpt lat="49.85491" lon="2.11518">
        <ele>124</ele>
        <time>2022-03-23T14:30:46Z</time>
      </trkpt>
      <trkpt lat="49.85491" lon="2.11517">
        <ele>124</ele>
        <time>2022-03-23T14:30:47Z</time>
      </trkpt>
      <trkpt lat="49.85491" lon="2.11516">
        <ele>124</ele>
        <time>2022-03-23T14:30:48Z</time>
      </trkpt>
      <trkpt lat="49.85491" lon="2.11514">
        <ele>124</ele>
        <time>2022-03-23T14:30:49Z</time>
      </trkpt>
      <trkpt lat="49.85492" lon="2.11512">
        <ele>124</ele>
        <time>2022-03-23T14:30:50Z</time>
      </trkpt>
      <trkpt lat="49.85492" lon="2.1151">
        <ele>124</ele>
        <time>2022-03-23T14:30:52Z</time>
      </trkpt>
      <trkpt lat="49.85493" lon="2.11508">
        <ele>124</ele>
        <time>2022-03-23T14:30:53Z</time>
      </trkpt>
      <trkpt lat="49.85493" lon="2.11506">
        <ele>124.1</ele>
        <time>2022-03-23T14:30:54Z</time>
      </trkpt>
      <trkpt lat="49.85493" lon="2.11505">
        <ele>124.1</ele>
        <time>2022-03-23T14:30:55Z</time>
      </trkpt>
      <trkpt lat="49.85494" lon="2.11503">
        <ele>124.1</ele>
        <time>2022-03-23T14:30:56Z</time>
      </trkpt>
      <trkpt lat="49.85494" lon="2.11501">
        <ele>124.1</ele>
        <time>2022-03-23T14:30:57Z</time>
      </trkpt>
      <trkpt lat="49.85494" lon="2.11498">
        <ele>124.1</ele>
        <time>2022-03-23T14:30:58Z</time>
      </trkpt>
      <trkpt lat="49.85495" lon="2.11496">
        <ele>124.1</ele>
        <time>2022-03-23T14:30:59Z</time>
      </trkpt>
      <trkpt lat="49.85495" lon="2.11494">
        <ele>124.1</ele>
        <time>2022-03-23T14:31:00Z</time>
      </trkpt>
      <trkpt lat="49.85496" lon="2.11493">
        <ele>124.1</ele>
        <time>2022-03-23T14:31:01Z</time>
      </trkpt>
      <trkpt lat="49.85496" lon="2.11491">
        <ele>124.1</ele>
        <time>2022-03-23T14:31:03Z</time>
      </trkpt>
      <trkpt lat="49.85496" lon="2.11489">
        <ele>124.2</ele>
        <time>2022-03-23T14:31:04Z</time>
      </trkpt>
      <trkpt lat="49.85497" lon="2.11487">
        <ele>124.2</ele>
        <time>2022-03-23T14:31:05Z</time>
      </trkpt>
      <trkpt lat="49.85497" lon="2.11485">
        <ele>124.2</ele>
        <time>2022-03-23T14:31:06Z</time>
      </trkpt>
      <trkpt lat="49.85497" lon="2.11483">
        <ele>124.2</ele>
        <time>2022-03-23T14:31:07Z</time>
      </trkpt>
      <trkpt lat="49.85498" lon="2.11481">
        <ele>124.2</ele>
        <time>2022-03-23T14:31:08Z</time>
      </trkpt>
      <trkpt lat="49.85498" lon="2.1148">
        <ele>124.2</ele>
        <time>2022-03-23T14:31:09Z</time>
      </trkpt>
      <trkpt lat="49.85499" lon="2.11478">
        <ele>124.2</ele>
        <time>2022-03-23T14:31:10Z</time>
      </trkpt>
      <trkpt lat="49.85499" lon="2.11476">
        <ele>124.2</ele>
        <time>2022-03-23T14:31:12Z</time>
      </trkpt>
      <trkpt lat="49.855" lon="2.11474">
        <ele>124.3</ele>
        <time>2022-03-23T14:31:13Z</time>
      </trkpt>
      <trkpt lat="49.855" lon="2.11473">
        <ele>124.3</ele>
        <time>2022-03-23T14:31:14Z</time>
      </trkpt>
      <trkpt lat="49.85501" lon="2.11471">
        <ele>124.3</ele>
        <time>2022-03-23T14:31:15Z</time>
      </trkpt>
      <trkpt lat="49.85501" lon="2.11469">
        <ele>124.3</ele>
        <time>2022-03-23T14:31:16Z</time>
      </trkpt>
      <trkpt lat="49.85501" lon="2.11467">
        <ele>124.3</ele>
        <time>2022-03-23T14:31:17Z</time>
      </trkpt>
      <trkpt lat="49.85502" lon="2.11465">
        <ele>124.4</ele>
        <time>2022-03-23T14:31:18Z</time>
      </trkpt>
      <trkpt lat="49.85502" lon="2.11463">
        <ele>124.4</ele>
        <time>2022-03-23T14:31:19Z</time>
      </trkpt>
      <trkpt lat="49.85502" lon="2.11459">
        <ele>124.4</ele>
        <time>2022-03-23T14:31:21Z</time>
      </trkpt>
      <trkpt lat="49.85503" lon="2.11458">
        <ele>124.4</ele>
        <time>2022-03-23T14:31:22Z</time>
      </trkpt>
      <trkpt lat="49.85503" lon="2.11457">
        <ele>124.4</ele>
        <time>2022-03-23T14:31:23Z</time>
      </trkpt>
      <trkpt lat="49.85503" lon="2.11455">
        <ele>124.5</ele>
        <time>2022-03-23T14:31:24Z</time>
      </trkpt>
      <trkpt lat="49.85504" lon="2.11453">
        <ele>124.5</ele>
        <time>2022-03-23T14:31:25Z</time>
      </trkpt>
      <trkpt lat="49.85504" lon="2.11451">
        <ele>124.5</ele>
        <time>2022-03-23T14:31:26Z</time>
      </trkpt>
      <trkpt lat="49.85505" lon="2.11449">
        <ele>124.5</ele>
        <time>2022-03-23T14:31:27Z</time>
      </trkpt>
      <trkpt lat="49.85505" lon="2.11447">
        <ele>124.6</ele>
        <time>2022-03-23T14:31:29Z</time>
      </trkpt>
      <trkpt lat="49.85506" lon="2.11445">
        <ele>124.6</ele>
        <time>2022-03-23T14:31:30Z</time>
      </trkpt>
      <trkpt lat="49.85506" lon="2.11443">
        <ele>124.6</ele>
        <time>2022-03-23T14:31:31Z</time>
      </trkpt>
      <trkpt lat="49.85506" lon="2.11441">
        <ele>124.6</ele>
        <time>2022-03-23T14:31:32Z</time>
      </trkpt>
      <trkpt lat="49.85507" lon="2.1144">
        <ele>124.6</ele>
        <time>2022-03-23T14:31:33Z</time>
      </trkpt>
      <trkpt lat="49.85508" lon="2.11437">
        <ele>124.6</ele>
        <time>2022-03-23T14:31:34Z</time>
      </trkpt>
      <trkpt lat="49.85508" lon="2.11435">
        <ele>124.6</ele>
        <time>2022-03-23T14:31:35Z</time>
      </trkpt>
      <trkpt lat="49.85508" lon="2.11434">
        <ele>124.6</ele>
        <time>2022-03-23T14:31:36Z</time>
      </trkpt>
      <trkpt lat="49.85508" lon="2.11432">
        <ele>124.6</ele>
        <time>2022-03-23T14:31:38Z</time>
      </trkpt>
      <trkpt lat="49.85509" lon="2.11431">
        <ele>124.6</ele>
        <time>2022-03-23T14:31:39Z</time>
      </trkpt>
      <trkpt lat="49.85509" lon="2.11429">
        <ele>124.6</ele>
        <time>2022-03-23T14:31:40Z</time>
      </trkpt>
      <trkpt lat="49.8551" lon="2.11427">
        <ele>124.6</ele>
        <time>2022-03-23T14:31:41Z</time>
      </trkpt>
      <trkpt lat="49.8551" lon="2.11425">
        <ele>124.6</ele>
        <time>2022-03-23T14:31:42Z</time>
      </trkpt>
      <trkpt lat="49.85511" lon="2.11423">
        <ele>124.6</ele>
        <time>2022-03-23T14:31:43Z</time>
      </trkpt>
      <trkpt lat="49.85511" lon="2.11421">
        <ele>124.6</ele>
        <time>2022-03-23T14:31:44Z</time>
      </trkpt>
      <trkpt lat="49.85512" lon="2.11418">
        <ele>124.6</ele>
        <time>2022-03-23T14:31:46Z</time>
      </trkpt>
      <trkpt lat="49.85513" lon="2.11417">
        <ele>124.6</ele>
        <time>2022-03-23T14:31:47Z</time>
      </trkpt>
      <trkpt lat="49.85513" lon="2.11416">
        <ele>124.6</ele>
        <time>2022-03-23T14:31:48Z</time>
      </trkpt>
      <trkpt lat="49.85514" lon="2.11413">
        <ele>124.6</ele>
        <time>2022-03-23T14:31:49Z</time>
      </trkpt>
      <trkpt lat="49.85514" lon="2.11412">
        <ele>124.6</ele>
        <time>2022-03-23T14:31:50Z</time>
      </trkpt>
      <trkpt lat="49.85514" lon="2.11411">
        <ele>124.6</ele>
        <time>2022-03-23T14:31:51Z</time>
      </trkpt>
      <trkpt lat="49.85515" lon="2.11409">
        <ele>124.6</ele>
        <time>2022-03-23T14:31:52Z</time>
      </trkpt>
      <trkpt lat="49.85515" lon="2.11407">
        <ele>124.6</ele>
        <time>2022-03-23T14:31:53Z</time>
      </trkpt>
      <trkpt lat="49.85515" lon="2.11405">
        <ele>124.6</ele>
        <time>2022-03-23T14:31:55Z</time>
      </trkpt>
      <trkpt lat="49.85515" lon="2.11404">
        <ele>124.6</ele>
        <time>2022-03-23T14:31:56Z</time>
      </trkpt>
      <trkpt lat="49.85516" lon="2.11402">
        <ele>124.6</ele>
        <time>2022-03-23T14:31:57Z</time>
      </trkpt>
      <trkpt lat="49.85516" lon="2.114">
        <ele>124.6</ele>
        <time>2022-03-23T14:31:58Z</time>
      </trkpt>
      <trkpt lat="49.85517" lon="2.11397">
        <ele>124.6</ele>
        <time>2022-03-23T14:31:59Z</time>
      </trkpt>
      <trkpt lat="49.85517" lon="2.11396">
        <ele>124.6</ele>
        <time>2022-03-23T14:32:00Z</time>
      </trkpt>
      <trkpt lat="49.85517" lon="2.11395">
        <ele>124.6</ele>
        <time>2022-03-23T14:32:01Z</time>
      </trkpt>
      <trkpt lat="49.85518" lon="2.11393">
        <ele>124.6</ele>
        <time>2022-03-23T14:32:03Z</time>
      </trkpt>
      <trkpt lat="49.85518" lon="2.11391">
        <ele>124.6</ele>
        <time>2022-03-23T14:32:04Z</time>
      </trkpt>
      <trkpt lat="49.85519" lon="2.1139">
        <ele>124.6</ele>
        <time>2022-03-23T14:32:05Z</time>
      </trkpt>
      <trkpt lat="49.8552" lon="2.11387">
        <ele>124.6</ele>
        <time>2022-03-23T14:32:06Z</time>
      </trkpt>
      <trkpt lat="49.8552" lon="2.11386">
        <ele>124.6</ele>
        <time>2022-03-23T14:32:07Z</time>
      </trkpt>
      <trkpt lat="49.8552" lon="2.11384">
        <ele>124.6</ele>
        <time>2022-03-23T14:32:08Z</time>
      </trkpt>
      <trkpt lat="49.85521" lon="2.11382">
        <ele>124.6</ele>
        <time>2022-03-23T14:32:09Z</time>
      </trkpt>
      <trkpt lat="49.85521" lon="2.1138">
        <ele>124.6</ele>
        <time>2022-03-23T14:32:11Z</time>
      </trkpt>
      <trkpt lat="49.85521" lon="2.11378">
        <ele>124.6</ele>
        <time>2022-03-23T14:32:12Z</time>
      </trkpt>
      <trkpt lat="49.85521" lon="2.11376">
        <ele>124.6</ele>
        <time>2022-03-23T14:32:13Z</time>
      </trkpt>
      <trkpt lat="49.85522" lon="2.11375">
        <ele>124.6</ele>
        <time>2022-03-23T14:32:14Z</time>
      </trkpt>
      <trkpt lat="49.85522" lon="2.11371">
        <ele>124.6</ele>
        <time>2022-03-23T14:32:15Z</time>
      </trkpt>
      <trkpt lat="49.85522" lon="2.1137">
        <ele>124.6</ele>
        <time>2022-03-23T14:32:16Z</time>
      </trkpt>
      <trkpt lat="49.85522" lon="2.11369">
        <ele>124.6</ele>
        <time>2022-03-23T14:32:17Z</time>
      </trkpt>
      <trkpt lat="49.85522" lon="2.11365">
        <ele>124.6</ele>
        <time>2022-03-23T14:32:18Z</time>
      </trkpt>
      <trkpt lat="49.85523" lon="2.11363">
        <ele>124.6</ele>
        <time>2022-03-23T14:32:20Z</time>
      </trkpt>
      <trkpt lat="49.85523" lon="2.11362">
        <ele>124.7</ele>
        <time>2022-03-23T14:32:21Z</time>
      </trkpt>
      <trkpt lat="49.85523" lon="2.1136">
        <ele>124.7</ele>
        <time>2022-03-23T14:32:22Z</time>
      </trkpt>
      <trkpt lat="49.85523" lon="2.11359">
        <ele>124.7</ele>
        <time>2022-03-23T14:32:23Z</time>
      </trkpt>
      <trkpt lat="49.85523" lon="2.11355">
        <ele>124.7</ele>
        <time>2022-03-23T14:32:24Z</time>
      </trkpt>
      <trkpt lat="49.85523" lon="2.11354">
        <ele>124.7</ele>
        <time>2022-03-23T14:32:25Z</time>
      </trkpt>
      <trkpt lat="49.85524" lon="2.11353">
        <ele>124.7</ele>
        <time>2022-03-23T14:32:26Z</time>
      </trkpt>
      <trkpt lat="49.85524" lon="2.11349">
        <ele>124.7</ele>
        <time>2022-03-23T14:32:27Z</time>
      </trkpt>
      <trkpt lat="49.85524" lon="2.11348">
        <ele>124.6</ele>
        <time>2022-03-23T14:32:29Z</time>
      </trkpt>
      <trkpt lat="49.85524" lon="2.11346">
        <ele>124.6</ele>
        <time>2022-03-23T14:32:30Z</time>
      </trkpt>
      <trkpt lat="49.85525" lon="2.11344">
        <ele>124.6</ele>
        <time>2022-03-23T14:32:31Z</time>
      </trkpt>
      <trkpt lat="49.85525" lon="2.11343">
        <ele>124.6</ele>
        <time>2022-03-23T14:32:32Z</time>
      </trkpt>
      <trkpt lat="49.85525" lon="2.11341">
        <ele>124.6</ele>
        <time>2022-03-23T14:32:33Z</time>
      </trkpt>
      <trkpt lat="49.85525" lon="2.11339">
        <ele>124.6</ele>
        <time>2022-03-23T14:32:34Z</time>
      </trkpt>
      <trkpt lat="49.85525" lon="2.11336">
        <ele>124.6</ele>
        <time>2022-03-23T14:32:35Z</time>
      </trkpt>
      <trkpt lat="49.85526" lon="2.11334">
        <ele>124.6</ele>
        <time>2022-03-23T14:32:36Z</time>
      </trkpt>
      <trkpt lat="49.85526" lon="2.11332">
        <ele>124.5</ele>
        <time>2022-03-23T14:32:38Z</time>
      </trkpt>
      <trkpt lat="49.85526" lon="2.1133">
        <ele>124.5</ele>
        <time>2022-03-23T14:32:39Z</time>
      </trkpt>
      <trkpt lat="49.85527" lon="2.11327">
        <ele>124.5</ele>
        <time>2022-03-23T14:32:40Z</time>
      </trkpt>
      <trkpt lat="49.85527" lon="2.11325">
        <ele>124.5</ele>
        <time>2022-03-23T14:32:41Z</time>
      </trkpt>
      <trkpt lat="49.85528" lon="2.11324">
        <ele>124.5</ele>
        <time>2022-03-23T14:32:42Z</time>
      </trkpt>
      <trkpt lat="49.85528" lon="2.11322">
        <ele>124.4</ele>
        <time>2022-03-23T14:32:43Z</time>
      </trkpt>
      <trkpt lat="49.85528" lon="2.1132">
        <ele>124.4</ele>
        <time>2022-03-23T14:32:44Z</time>
      </trkpt>
      <trkpt lat="49.85529" lon="2.11316">
        <ele>124.4</ele>
        <time>2022-03-23T14:32:45Z</time>
      </trkpt>
      <trkpt lat="49.8553" lon="2.11315">
        <ele>124.4</ele>
        <time>2022-03-23T14:32:47Z</time>
      </trkpt>
      <trkpt lat="49.8553" lon="2.11314">
        <ele>124.4</ele>
        <time>2022-03-23T14:32:48Z</time>
      </trkpt>
      <trkpt lat="49.8553" lon="2.11313">
        <ele>124.3</ele>
        <time>2022-03-23T14:32:49Z</time>
      </trkpt>
      <trkpt lat="49.85531" lon="2.11311">
        <ele>124.3</ele>
        <time>2022-03-23T14:32:50Z</time>
      </trkpt>
      <trkpt lat="49.85531" lon="2.11309">
        <ele>124.3</ele>
        <time>2022-03-23T14:32:51Z</time>
      </trkpt>
      <trkpt lat="49.85532" lon="2.11307">
        <ele>124.3</ele>
        <time>2022-03-23T14:32:52Z</time>
      </trkpt>
      <trkpt lat="49.85532" lon="2.11306">
        <ele>124.3</ele>
        <time>2022-03-23T14:32:53Z</time>
      </trkpt>
      <trkpt lat="49.85532" lon="2.11304">
        <ele>124.3</ele>
        <time>2022-03-23T14:32:55Z</time>
      </trkpt>
      <trkpt lat="49.85533" lon="2.11302">
        <ele>124.2</ele>
        <time>2022-03-23T14:32:56Z</time>
      </trkpt>
      <trkpt lat="49.85533" lon="2.113">
        <ele>124.2</ele>
        <time>2022-03-23T14:32:57Z</time>
      </trkpt>
      <trkpt lat="49.85534" lon="2.11298">
        <ele>124.2</ele>
        <time>2022-03-23T14:32:58Z</time>
      </trkpt>
      <trkpt lat="49.85535" lon="2.11296">
        <ele>124.2</ele>
        <time>2022-03-23T14:32:59Z</time>
      </trkpt>
      <trkpt lat="49.85535" lon="2.11294">
        <ele>124.2</ele>
        <time>2022-03-23T14:33:00Z</time>
      </trkpt>
      <trkpt lat="49.85535" lon="2.11293">
        <ele>124.2</ele>
        <time>2022-03-23T14:33:01Z</time>
      </trkpt>
      <trkpt lat="49.85536" lon="2.11291">
        <ele>124.1</ele>
        <time>2022-03-23T14:33:02Z</time>
      </trkpt>
      <trkpt lat="49.85537" lon="2.11289">
        <ele>124.1</ele>
        <time>2022-03-23T14:33:03Z</time>
      </trkpt>
      <trkpt lat="49.85537" lon="2.11287">
        <ele>124.1</ele>
        <time>2022-03-23T14:33:05Z</time>
      </trkpt>
      <trkpt lat="49.85538" lon="2.11285">
        <ele>124.1</ele>
        <time>2022-03-23T14:33:06Z</time>
      </trkpt>
      <trkpt lat="49.85538" lon="2.11283">
        <ele>124.1</ele>
        <time>2022-03-23T14:33:07Z</time>
      </trkpt>
      <trkpt lat="49.85539" lon="2.11281">
        <ele>124.1</ele>
        <time>2022-03-23T14:33:08Z</time>
      </trkpt>
      <trkpt lat="49.85539" lon="2.1128">
        <ele>124.1</ele>
        <time>2022-03-23T14:33:09Z</time>
      </trkpt>
      <trkpt lat="49.85539" lon="2.11278">
        <ele>124</ele>
        <time>2022-03-23T14:33:10Z</time>
      </trkpt>
      <trkpt lat="49.8554" lon="2.11276">
        <ele>124</ele>
        <time>2022-03-23T14:33:11Z</time>
      </trkpt>
      <trkpt lat="49.8554" lon="2.11274">
        <ele>124</ele>
        <time>2022-03-23T14:33:12Z</time>
      </trkpt>
      <trkpt lat="49.8554" lon="2.11271">
        <ele>124</ele>
        <time>2022-03-23T14:33:14Z</time>
      </trkpt>
      <trkpt lat="49.85541" lon="2.1127">
        <ele>124</ele>
        <time>2022-03-23T14:33:15Z</time>
      </trkpt>
      <trkpt lat="49.85541" lon="2.11268">
        <ele>124</ele>
        <time>2022-03-23T14:33:16Z</time>
      </trkpt>
      <trkpt lat="49.85541" lon="2.11266">
        <ele>123.9</ele>
        <time>2022-03-23T14:33:17Z</time>
      </trkpt>
      <trkpt lat="49.85541" lon="2.11263">
        <ele>123.9</ele>
        <time>2022-03-23T14:33:18Z</time>
      </trkpt>
      <trkpt lat="49.85541" lon="2.11261">
        <ele>123.9</ele>
        <time>2022-03-23T14:33:19Z</time>
      </trkpt>
      <trkpt lat="49.85541" lon="2.1126">
        <ele>123.9</ele>
        <time>2022-03-23T14:33:20Z</time>
      </trkpt>
      <trkpt lat="49.85541" lon="2.11258">
        <ele>123.9</ele>
        <time>2022-03-23T14:33:21Z</time>
      </trkpt>
      <trkpt lat="49.85541" lon="2.11256">
        <ele>123.9</ele>
        <time>2022-03-23T14:33:22Z</time>
      </trkpt>
      <trkpt lat="49.85541" lon="2.11254">
        <ele>123.9</ele>
        <time>2022-03-23T14:33:24Z</time>
      </trkpt>
      <trkpt lat="49.85541" lon="2.11252">
        <ele>123.9</ele>
        <time>2022-03-23T14:33:25Z</time>
      </trkpt>
      <trkpt lat="49.85541" lon="2.1125">
        <ele>124</ele>
        <time>2022-03-23T14:33:26Z</time>
      </trkpt>
      <trkpt lat="49.85541" lon="2.11248">
        <ele>124</ele>
        <time>2022-03-23T14:33:27Z</time>
      </trkpt>
      <trkpt lat="49.85542" lon="2.11246">
        <ele>124</ele>
        <time>2022-03-23T14:33:28Z</time>
      </trkpt>
      <trkpt lat="49.85542" lon="2.11244">
        <ele>124</ele>
        <time>2022-03-23T14:33:29Z</time>
      </trkpt>
      <trkpt lat="49.85543" lon="2.11241">
        <ele>124</ele>
        <time>2022-03-23T14:33:30Z</time>
      </trkpt>
      <trkpt lat="49.85543" lon="2.1124">
        <ele>124</ele>
        <time>2022-03-23T14:33:31Z</time>
      </trkpt>
      <trkpt lat="49.85543" lon="2.11238">
        <ele>124.1</ele>
        <time>2022-03-23T14:33:32Z</time>
      </trkpt>
      <trkpt lat="49.85544" lon="2.11236">
        <ele>124.1</ele>
        <time>2022-03-23T14:33:34Z</time>
      </trkpt>
      <trkpt lat="49.85545" lon="2.11235">
        <ele>124.1</ele>
        <time>2022-03-23T14:33:35Z</time>
      </trkpt>
      <trkpt lat="49.85545" lon="2.11233">
        <ele>124.1</ele>
        <time>2022-03-23T14:33:36Z</time>
      </trkpt>
      <trkpt lat="49.85546" lon="2.1123">
        <ele>124.1</ele>
        <time>2022-03-23T14:33:37Z</time>
      </trkpt>
      <trkpt lat="49.85546" lon="2.11229">
        <ele>124.2</ele>
        <time>2022-03-23T14:33:38Z</time>
      </trkpt>
      <trkpt lat="49.85547" lon="2.11228">
        <ele>124.2</ele>
        <time>2022-03-23T14:33:39Z</time>
      </trkpt>
      <trkpt lat="49.85547" lon="2.11226">
        <ele>124.2</ele>
        <time>2022-03-23T14:33:40Z</time>
      </trkpt>
      <trkpt lat="49.85548" lon="2.11224">
        <ele>124.2</ele>
        <time>2022-03-23T14:33:41Z</time>
      </trkpt>
      <trkpt lat="49.85549" lon="2.11223">
        <ele>124.2</ele>
        <time>2022-03-23T14:33:43Z</time>
      </trkpt>
      <trkpt lat="49.85549" lon="2.11221">
        <ele>124.3</ele>
        <time>2022-03-23T14:33:44Z</time>
      </trkpt>
      <trkpt lat="49.8555" lon="2.1122">
        <ele>124.3</ele>
        <time>2022-03-23T14:33:45Z</time>
      </trkpt>
      <trkpt lat="49.8555" lon="2.11217">
        <ele>124.3</ele>
        <time>2022-03-23T14:33:47Z</time>
      </trkpt>
      <trkpt lat="49.85551" lon="2.11216">
        <ele>124.3</ele>
        <time>2022-03-23T14:33:48Z</time>
      </trkpt>
      <trkpt lat="49.85552" lon="2.11214">
        <ele>124.3</ele>
        <time>2022-03-23T14:33:49Z</time>
      </trkpt>
      <trkpt lat="49.85552" lon="2.11212">
        <ele>124.3</ele>
        <time>2022-03-23T14:33:50Z</time>
      </trkpt>
      <trkpt lat="49.85553" lon="2.11209">
        <ele>124.3</ele>
        <time>2022-03-23T14:33:51Z</time>
      </trkpt>
      <trkpt lat="49.85553" lon="2.11207">
        <ele>124.3</ele>
        <time>2022-03-23T14:33:52Z</time>
      </trkpt>
      <trkpt lat="49.85554" lon="2.11206">
        <ele>124.3</ele>
        <time>2022-03-23T14:33:53Z</time>
      </trkpt>
      <trkpt lat="49.85554" lon="2.11204">
        <ele>124.3</ele>
        <time>2022-03-23T14:33:54Z</time>
      </trkpt>
      <trkpt lat="49.85554" lon="2.11202">
        <ele>124.3</ele>
        <time>2022-03-23T14:33:56Z</time>
      </trkpt>
      <trkpt lat="49.85554" lon="2.112">
        <ele>124.3</ele>
        <time>2022-03-23T14:33:57Z</time>
      </trkpt>
      <trkpt lat="49.85554" lon="2.11199">
        <ele>124.3</ele>
        <time>2022-03-23T14:33:58Z</time>
      </trkpt>
      <trkpt lat="49.85555" lon="2.11195">
        <ele>124.3</ele>
        <time>2022-03-23T14:33:59Z</time>
      </trkpt>
      <trkpt lat="49.85555" lon="2.11194">
        <ele>124.3</ele>
        <time>2022-03-23T14:34:00Z</time>
      </trkpt>
      <trkpt lat="49.85555" lon="2.11193">
        <ele>124.3</ele>
        <time>2022-03-23T14:34:01Z</time>
      </trkpt>
      <trkpt lat="49.85555" lon="2.11192">
        <ele>124.3</ele>
        <time>2022-03-23T14:34:02Z</time>
      </trkpt>
      <trkpt lat="49.85555" lon="2.1119">
        <ele>124.3</ele>
        <time>2022-03-23T14:34:04Z</time>
      </trkpt>
      <trkpt lat="49.85556" lon="2.11188">
        <ele>124.2</ele>
        <time>2022-03-23T14:34:05Z</time>
      </trkpt>
      <trkpt lat="49.85556" lon="2.11185">
        <ele>124.2</ele>
        <time>2022-03-23T14:34:06Z</time>
      </trkpt>
      <trkpt lat="49.85556" lon="2.11184">
        <ele>124.2</ele>
        <time>2022-03-23T14:34:07Z</time>
      </trkpt>
      <trkpt lat="49.85557" lon="2.11183">
        <ele>124.2</ele>
        <time>2022-03-23T14:34:08Z</time>
      </trkpt>
      <trkpt lat="49.85557" lon="2.11181">
        <ele>124.2</ele>
        <time>2022-03-23T14:34:09Z</time>
      </trkpt>
      <trkpt lat="49.85557" lon="2.11179">
        <ele>124.2</ele>
        <time>2022-03-23T14:34:10Z</time>
      </trkpt>
      <trkpt lat="49.85558" lon="2.11177">
        <ele>124.1</ele>
        <time>2022-03-23T14:34:12Z</time>
      </trkpt>
      <trkpt lat="49.85558" lon="2.11175">
        <ele>124.1</ele>
        <time>2022-03-23T14:34:13Z</time>
      </trkpt>
      <trkpt lat="49.85558" lon="2.11173">
        <ele>124.1</ele>
        <time>2022-03-23T14:34:14Z</time>
      </trkpt>
      <trkpt lat="49.85558" lon="2.1117">
        <ele>124.1</ele>
        <time>2022-03-23T14:34:15Z</time>
      </trkpt>
      <trkpt lat="49.85558" lon="2.11168">
        <ele>124.1</ele>
        <time>2022-03-23T14:34:16Z</time>
      </trkpt>
      <trkpt lat="49.85559" lon="2.11165">
        <ele>124.1</ele>
        <time>2022-03-23T14:34:17Z</time>
      </trkpt>
      <trkpt lat="49.85559" lon="2.11164">
        <ele>124.1</ele>
        <time>2022-03-23T14:34:18Z</time>
      </trkpt>
      <trkpt lat="49.8556" lon="2.11163">
        <ele>124.1</ele>
        <time>2022-03-23T14:34:19Z</time>
      </trkpt>
      <trkpt lat="49.8556" lon="2.11161">
        <ele>124.1</ele>
        <time>2022-03-23T14:34:21Z</time>
      </trkpt>
      <trkpt lat="49.85561" lon="2.11159">
        <ele>124.1</ele>
        <time>2022-03-23T14:34:22Z</time>
      </trkpt>
      <trkpt lat="49.85561" lon="2.11157">
        <ele>124.1</ele>
        <time>2022-03-23T14:34:23Z</time>
      </trkpt>
      <trkpt lat="49.85562" lon="2.11155">
        <ele>124.1</ele>
        <time>2022-03-23T14:34:24Z</time>
      </trkpt>
      <trkpt lat="49.85563" lon="2.11152">
        <ele>124.1</ele>
        <time>2022-03-23T14:34:25Z</time>
      </trkpt>
      <trkpt lat="49.85563" lon="2.1115">
        <ele>124.1</ele>
        <time>2022-03-23T14:34:26Z</time>
      </trkpt>
      <trkpt lat="49.85563" lon="2.11149">
        <ele>124.1</ele>
        <time>2022-03-23T14:34:27Z</time>
      </trkpt>
      <trkpt lat="49.85564" lon="2.11146">
        <ele>124.1</ele>
        <time>2022-03-23T14:34:29Z</time>
      </trkpt>
      <trkpt lat="49.85564" lon="2.11145">
        <ele>124.1</ele>
        <time>2022-03-23T14:34:30Z</time>
      </trkpt>
      <trkpt lat="49.85564" lon="2.11144">
        <ele>124.1</ele>
        <time>2022-03-23T14:34:31Z</time>
      </trkpt>
      <trkpt lat="49.85565" lon="2.11142">
        <ele>124.1</ele>
        <time>2022-03-23T14:34:32Z</time>
      </trkpt>
      <trkpt lat="49.85565" lon="2.1114">
        <ele>124.1</ele>
        <time>2022-03-23T14:34:33Z</time>
      </trkpt>
      <trkpt lat="49.85566" lon="2.11136">
        <ele>124.1</ele>
        <time>2022-03-23T14:34:34Z</time>
      </trkpt>
      <trkpt lat="49.85566" lon="2.11135">
        <ele>124.1</ele>
        <time>2022-03-23T14:34:35Z</time>
      </trkpt>
      <trkpt lat="49.85566" lon="2.11134">
        <ele>124.1</ele>
        <time>2022-03-23T14:34:36Z</time>
      </trkpt>
      <trkpt lat="49.85567" lon="2.11131">
        <ele>124.1</ele>
        <time>2022-03-23T14:34:38Z</time>
      </trkpt>
      <trkpt lat="49.85567" lon="2.1113">
        <ele>124.1</ele>
        <time>2022-03-23T14:34:39Z</time>
      </trkpt>
      <trkpt lat="49.85568" lon="2.11129">
        <ele>124.1</ele>
        <time>2022-03-23T14:34:40Z</time>
      </trkpt>
      <trkpt lat="49.85569" lon="2.11126">
        <ele>124.1</ele>
        <time>2022-03-23T14:34:41Z</time>
      </trkpt>
      <trkpt lat="49.85569" lon="2.11125">
        <ele>124.1</ele>
        <time>2022-03-23T14:34:42Z</time>
      </trkpt>
      <trkpt lat="49.85569" lon="2.11124">
        <ele>124.1</ele>
        <time>2022-03-23T14:34:43Z</time>
      </trkpt>
      <trkpt lat="49.8557" lon="2.11121">
        <ele>124.1</ele>
        <time>2022-03-23T14:34:44Z</time>
      </trkpt>
      <trkpt lat="49.85571" lon="2.11119">
        <ele>124.1</ele>
        <time>2022-03-23T14:34:45Z</time>
      </trkpt>
      <trkpt lat="49.85571" lon="2.11118">
        <ele>124.1</ele>
        <time>2022-03-23T14:34:47Z</time>
      </trkpt>
      <trkpt lat="49.85572" lon="2.11117">
        <ele>124.1</ele>
        <time>2022-03-23T14:34:48Z</time>
      </trkpt>
      <trkpt lat="49.85572" lon="2.11115">
        <ele>124.1</ele>
        <time>2022-03-23T14:34:49Z</time>
      </trkpt>
      <trkpt lat="49.85572" lon="2.11114">
        <ele>124.1</ele>
        <time>2022-03-23T14:34:50Z</time>
      </trkpt>
      <trkpt lat="49.85573" lon="2.11112">
        <ele>124.1</ele>
        <time>2022-03-23T14:34:51Z</time>
      </trkpt>
      <trkpt lat="49.85573" lon="2.1111">
        <ele>124.1</ele>
        <time>2022-03-23T14:34:52Z</time>
      </trkpt>
      <trkpt lat="49.85573" lon="2.11109">
        <ele>124.1</ele>
        <time>2022-03-23T14:34:53Z</time>
      </trkpt>
      <trkpt lat="49.85574" lon="2.11106">
        <ele>124.1</ele>
        <time>2022-03-23T14:34:54Z</time>
      </trkpt>
      <trkpt lat="49.85575" lon="2.11105">
        <ele>124.1</ele>
        <time>2022-03-23T14:34:56Z</time>
      </trkpt>
      <trkpt lat="49.85575" lon="2.11103">
        <ele>124.1</ele>
        <time>2022-03-23T14:34:57Z</time>
      </trkpt>
      <trkpt lat="49.85576" lon="2.11101">
        <ele>124.1</ele>
        <time>2022-03-23T14:34:58Z</time>
      </trkpt>
      <trkpt lat="49.85576" lon="2.11099">
        <ele>124.1</ele>
        <time>2022-03-23T14:34:59Z</time>
      </trkpt>
      <trkpt lat="49.85577" lon="2.11098">
        <ele>124.1</ele>
        <time>2022-03-23T14:35:00Z</time>
      </trkpt>
      <trkpt lat="49.85577" lon="2.11096">
        <ele>124.1</ele>
        <time>2022-03-23T14:35:01Z</time>
      </trkpt>
      <trkpt lat="49.85577" lon="2.11095">
        <ele>124.1</ele>
        <time>2022-03-23T14:35:02Z</time>
      </trkpt>
      <trkpt lat="49.85578" lon="2.11093">
        <ele>124.1</ele>
        <time>2022-03-23T14:35:04Z</time>
      </trkpt>
      <trkpt lat="49.85578" lon="2.11089">
        <ele>124.1</ele>
        <time>2022-03-23T14:35:05Z</time>
      </trkpt>
      <trkpt lat="49.85578" lon="2.11088">
        <ele>124.1</ele>
        <time>2022-03-23T14:35:06Z</time>
      </trkpt>
      <trkpt lat="49.85578" lon="2.11087">
        <ele>124.1</ele>
        <time>2022-03-23T14:35:07Z</time>
      </trkpt>
      <trkpt lat="49.85578" lon="2.11083">
        <ele>124.1</ele>
        <time>2022-03-23T14:35:08Z</time>
      </trkpt>
      <trkpt lat="49.85579" lon="2.11082">
        <ele>124.1</ele>
        <time>2022-03-23T14:35:09Z</time>
      </trkpt>
      <trkpt lat="49.85579" lon="2.11081">
        <ele>124.1</ele>
        <time>2022-03-23T14:35:10Z</time>
      </trkpt>
      <trkpt lat="49.85579" lon="2.11078">
        <ele>124.1</ele>
        <time>2022-03-23T14:35:11Z</time>
      </trkpt>
      <trkpt lat="49.85579" lon="2.11077">
        <ele>124.1</ele>
        <time>2022-03-23T14:35:13Z</time>
      </trkpt>
      <trkpt lat="49.8558" lon="2.11075">
        <ele>124.1</ele>
        <time>2022-03-23T14:35:14Z</time>
      </trkpt>
      <trkpt lat="49.8558" lon="2.11074">
        <ele>124.1</ele>
        <time>2022-03-23T14:35:15Z</time>
      </trkpt>
      <trkpt lat="49.8558" lon="2.11072">
        <ele>124.1</ele>
        <time>2022-03-23T14:35:16Z</time>
      </trkpt>
      <trkpt lat="49.85579" lon="2.1107">
        <ele>124.1</ele>
        <time>2022-03-23T14:35:17Z</time>
      </trkpt>
      <trkpt lat="49.85579" lon="2.11069">
        <ele>124</ele>
        <time>2022-03-23T14:35:18Z</time>
      </trkpt>
      <trkpt lat="49.85579" lon="2.11067">
        <ele>124</ele>
        <time>2022-03-23T14:35:19Z</time>
      </trkpt>
      <trkpt lat="49.85579" lon="2.11065">
        <ele>124</ele>
        <time>2022-03-23T14:35:21Z</time>
      </trkpt>
      <trkpt lat="49.8558" lon="2.11064">
        <ele>124</ele>
        <time>2022-03-23T14:35:22Z</time>
      </trkpt>
      <trkpt lat="49.8558" lon="2.11062">
        <ele>124</ele>
        <time>2022-03-23T14:35:23Z</time>
      </trkpt>
      <trkpt lat="49.85581" lon="2.11061">
        <ele>124</ele>
        <time>2022-03-23T14:35:24Z</time>
      </trkpt>
      <trkpt lat="49.85582" lon="2.11058">
        <ele>123.9</ele>
        <time>2022-03-23T14:35:25Z</time>
      </trkpt>
      <trkpt lat="49.85582" lon="2.11056">
        <ele>123.9</ele>
        <time>2022-03-23T14:35:26Z</time>
      </trkpt>
      <trkpt lat="49.85582" lon="2.11055">
        <ele>123.9</ele>
        <time>2022-03-23T14:35:27Z</time>
      </trkpt>
      <trkpt lat="49.85582" lon="2.11053">
        <ele>123.9</ele>
        <time>2022-03-23T14:35:29Z</time>
      </trkpt>
      <trkpt lat="49.85582" lon="2.11051">
        <ele>123.9</ele>
        <time>2022-03-23T14:35:30Z</time>
      </trkpt>
      <trkpt lat="49.85581" lon="2.11049">
        <ele>123.9</ele>
        <time>2022-03-23T14:35:31Z</time>
      </trkpt>
      <trkpt lat="49.85581" lon="2.11048">
        <ele>123.8</ele>
        <time>2022-03-23T14:35:32Z</time>
      </trkpt>
      <trkpt lat="49.8558" lon="2.11046">
        <ele>123.8</ele>
        <time>2022-03-23T14:35:33Z</time>
      </trkpt>
      <trkpt lat="49.85579" lon="2.11044">
        <ele>123.8</ele>
        <time>2022-03-23T14:35:34Z</time>
      </trkpt>
      <trkpt lat="49.85578" lon="2.11043">
        <ele>123.8</ele>
        <time>2022-03-23T14:35:35Z</time>
      </trkpt>
      <trkpt lat="49.85577" lon="2.11042">
        <ele>123.8</ele>
        <time>2022-03-23T14:35:36Z</time>
      </trkpt>
      <trkpt lat="49.85576" lon="2.11041">
        <ele>123.9</ele>
        <time>2022-03-23T14:35:37Z</time>
      </trkpt>
      <trkpt lat="49.85575" lon="2.1104">
        <ele>123.9</ele>
        <time>2022-03-23T14:35:39Z</time>
      </trkpt>
      <trkpt lat="49.85574" lon="2.11039">
        <ele>123.9</ele>
        <time>2022-03-23T14:35:40Z</time>
      </trkpt>
      <trkpt lat="49.85573" lon="2.11039">
        <ele>123.9</ele>
        <time>2022-03-23T14:35:41Z</time>
      </trkpt>
      <trkpt lat="49.85572" lon="2.11038">
        <ele>123.9</ele>
        <time>2022-03-23T14:35:42Z</time>
      </trkpt>
      <trkpt lat="49.85571" lon="2.11037">
        <ele>123.9</ele>
        <time>2022-03-23T14:35:43Z</time>
      </trkpt>
      <trkpt lat="49.8557" lon="2.11037">
        <ele>123.9</ele>
        <time>2022-03-23T14:35:44Z</time>
      </trkpt>
      <trkpt lat="49.85569" lon="2.11036">
        <ele>123.9</ele>
        <time>2022-03-23T14:35:45Z</time>
      </trkpt>
      <trkpt lat="49.85567" lon="2.11037">
        <ele>123.9</ele>
        <time>2022-03-23T14:35:47Z</time>
      </trkpt>
      <trkpt lat="49.85566" lon="2.11037">
        <ele>123.9</ele>
        <time>2022-03-23T14:35:48Z</time>
      </trkpt>
      <trkpt lat="49.85565" lon="2.11037">
        <ele>124</ele>
        <time>2022-03-23T14:35:49Z</time>
      </trkpt>
      <trkpt lat="49.85563" lon="2.11037">
        <ele>124</ele>
        <time>2022-03-23T14:35:50Z</time>
      </trkpt>
      <trkpt lat="49.85562" lon="2.11036">
        <ele>124</ele>
        <time>2022-03-23T14:35:51Z</time>
      </trkpt>
      <trkpt lat="49.8556" lon="2.11035">
        <ele>124</ele>
        <time>2022-03-23T14:35:53Z</time>
      </trkpt>
      <trkpt lat="49.85559" lon="2.11034">
        <ele>124</ele>
        <time>2022-03-23T14:35:54Z</time>
      </trkpt>
      <trkpt lat="49.85557" lon="2.11033">
        <ele>124</ele>
        <time>2022-03-23T14:35:55Z</time>
      </trkpt>
      <trkpt lat="49.85556" lon="2.11032">
        <ele>124.1</ele>
        <time>2022-03-23T14:35:56Z</time>
      </trkpt>
      <trkpt lat="49.85555" lon="2.11031">
        <ele>124.1</ele>
        <time>2022-03-23T14:35:57Z</time>
      </trkpt>
      <trkpt lat="49.85554" lon="2.1103">
        <ele>124.1</ele>
        <time>2022-03-23T14:35:58Z</time>
      </trkpt>
      <trkpt lat="49.85552" lon="2.11028">
        <ele>124.1</ele>
        <time>2022-03-23T14:35:59Z</time>
      </trkpt>
      <trkpt lat="49.85551" lon="2.11028">
        <ele>124.1</ele>
        <time>2022-03-23T14:36:01Z</time>
      </trkpt>
      <trkpt lat="49.8555" lon="2.11027">
        <ele>124.1</ele>
        <time>2022-03-23T14:36:02Z</time>
      </trkpt>
      <trkpt lat="49.85549" lon="2.11026">
        <ele>124.1</ele>
        <time>2022-03-23T14:36:03Z</time>
      </trkpt>
      <trkpt lat="49.85548" lon="2.11025">
        <ele>124.2</ele>
        <time>2022-03-23T14:36:04Z</time>
      </trkpt>
      <trkpt lat="49.85547" lon="2.11025">
        <ele>124.2</ele>
        <time>2022-03-23T14:36:05Z</time>
      </trkpt>
      <trkpt lat="49.85546" lon="2.11024">
        <ele>124.2</ele>
        <time>2022-03-23T14:36:06Z</time>
      </trkpt>
      <trkpt lat="49.85544" lon="2.11024">
        <ele>124.2</ele>
        <time>2022-03-23T14:36:07Z</time>
      </trkpt>
      <trkpt lat="49.85544" lon="2.11024">
        <ele>124.2</ele>
        <time>2022-03-23T14:36:08Z</time>
      </trkpt>
      <trkpt lat="49.85543" lon="2.11024">
        <ele>124.2</ele>
        <time>2022-03-23T14:36:10Z</time>
      </trkpt>
      <trkpt lat="49.85542" lon="2.11024">
        <ele>124.2</ele>
        <time>2022-03-23T14:36:11Z</time>
      </trkpt>
      <trkpt lat="49.85541" lon="2.11024">
        <ele>124.2</ele>
        <time>2022-03-23T14:36:12Z</time>
      </trkpt>
      <trkpt lat="49.8554" lon="2.11023">
        <ele>124.2</ele>
        <time>2022-03-23T14:36:13Z</time>
      </trkpt>
      <trkpt lat="49.85539" lon="2.11022">
        <ele>124.2</ele>
        <time>2022-03-23T14:36:14Z</time>
      </trkpt>
      <trkpt lat="49.85537" lon="2.11021">
        <ele>124.2</ele>
        <time>2022-03-23T14:36:15Z</time>
      </trkpt>
      <trkpt lat="49.85536" lon="2.1102">
        <ele>124.2</ele>
        <time>2022-03-23T14:36:16Z</time>
      </trkpt>
      <trkpt lat="49.85535" lon="2.11019">
        <ele>124.2</ele>
        <time>2022-03-23T14:36:17Z</time>
      </trkpt>
      <trkpt lat="49.85533" lon="2.11019">
        <ele>124.3</ele>
        <time>2022-03-23T14:36:19Z</time>
      </trkpt>
      <trkpt lat="49.85532" lon="2.11019">
        <ele>124.3</ele>
        <time>2022-03-23T14:36:20Z</time>
      </trkpt>
      <trkpt lat="49.85531" lon="2.11018">
        <ele>124.3</ele>
        <time>2022-03-23T14:36:21Z</time>
      </trkpt>
      <trkpt lat="49.8553" lon="2.11018">
        <ele>124.3</ele>
        <time>2022-03-23T14:36:22Z</time>
      </trkpt>
      <trkpt lat="49.85528" lon="2.11017">
        <ele>124.3</ele>
        <time>2022-03-23T14:36:23Z</time>
      </trkpt>
      <trkpt lat="49.85527" lon="2.11017">
        <ele>124.3</ele>
        <time>2022-03-23T14:36:24Z</time>
      </trkpt>
      <trkpt lat="49.85525" lon="2.11016">
        <ele>124.3</ele>
        <time>2022-03-23T14:36:25Z</time>
      </trkpt>
      <trkpt lat="49.85524" lon="2.11016">
        <ele>124.3</ele>
        <time>2022-03-23T14:36:26Z</time>
      </trkpt>
      <trkpt lat="49.85522" lon="2.11015">
        <ele>124.3</ele>
        <time>2022-03-23T14:36:28Z</time>
      </trkpt>
      <trkpt lat="49.85521" lon="2.11014">
        <ele>124.3</ele>
        <time>2022-03-23T14:36:29Z</time>
      </trkpt>
      <trkpt lat="49.85519" lon="2.11013">
        <ele>124.3</ele>
        <time>2022-03-23T14:36:30Z</time>
      </trkpt>
      <trkpt lat="49.85518" lon="2.11013">
        <ele>124.3</ele>
        <time>2022-03-23T14:36:31Z</time>
      </trkpt>
      <trkpt lat="49.85517" lon="2.11013">
        <ele>124.3</ele>
        <time>2022-03-23T14:36:32Z</time>
      </trkpt>
      <trkpt lat="49.85516" lon="2.11012">
        <ele>124.3</ele>
        <time>2022-03-23T14:36:33Z</time>
      </trkpt>
      <trkpt lat="49.85514" lon="2.11012">
        <ele>124.3</ele>
        <time>2022-03-23T14:36:34Z</time>
      </trkpt>
      <trkpt lat="49.85513" lon="2.11011">
        <ele>124.3</ele>
        <time>2022-03-23T14:36:35Z</time>
      </trkpt>
      <trkpt lat="49.85511" lon="2.1101">
        <ele>124.3</ele>
        <time>2022-03-23T14:36:37Z</time>
      </trkpt>
      <trkpt lat="49.8551" lon="2.1101">
        <ele>124.3</ele>
        <time>2022-03-23T14:36:38Z</time>
      </trkpt>
      <trkpt lat="49.85509" lon="2.11009">
        <ele>124.3</ele>
        <time>2022-03-23T14:36:39Z</time>
      </trkpt>
      <trkpt lat="49.85507" lon="2.11008">
        <ele>124.3</ele>
        <time>2022-03-23T14:36:41Z</time>
      </trkpt>
      <trkpt lat="49.85505" lon="2.11007">
        <ele>124.3</ele>
        <time>2022-03-23T14:36:42Z</time>
      </trkpt>
      <trkpt lat="49.85504" lon="2.11006">
        <ele>124.3</ele>
        <time>2022-03-23T14:36:43Z</time>
      </trkpt>
      <trkpt lat="49.85503" lon="2.11006">
        <ele>124.3</ele>
        <time>2022-03-23T14:36:44Z</time>
      </trkpt>
      <trkpt lat="49.85501" lon="2.11005">
        <ele>124.3</ele>
        <time>2022-03-23T14:36:45Z</time>
      </trkpt>
      <trkpt lat="49.855" lon="2.11004">
        <ele>124.3</ele>
        <time>2022-03-23T14:36:46Z</time>
      </trkpt>
      <trkpt lat="49.85499" lon="2.11003">
        <ele>124.3</ele>
        <time>2022-03-23T14:36:47Z</time>
      </trkpt>
      <trkpt lat="49.85498" lon="2.11002">
        <ele>124.3</ele>
        <time>2022-03-23T14:36:49Z</time>
      </trkpt>
      <trkpt lat="49.85496" lon="2.11">
        <ele>124.3</ele>
        <time>2022-03-23T14:36:50Z</time>
      </trkpt>
      <trkpt lat="49.85495" lon="2.11">
        <ele>124.3</ele>
        <time>2022-03-23T14:36:51Z</time>
      </trkpt>
      <trkpt lat="49.85494" lon="2.10999">
        <ele>124.3</ele>
        <time>2022-03-23T14:36:52Z</time>
      </trkpt>
      <trkpt lat="49.85493" lon="2.10998">
        <ele>124.3</ele>
        <time>2022-03-23T14:36:53Z</time>
      </trkpt>
      <trkpt lat="49.85492" lon="2.10997">
        <ele>124.4</ele>
        <time>2022-03-23T14:36:54Z</time>
      </trkpt>
      <trkpt lat="49.85491" lon="2.10997">
        <ele>124.4</ele>
        <time>2022-03-23T14:36:55Z</time>
      </trkpt>
      <trkpt lat="49.8549" lon="2.10996">
        <ele>124.4</ele>
        <time>2022-03-23T14:36:56Z</time>
      </trkpt>
      <trkpt lat="49.85488" lon="2.10995">
        <ele>124.4</ele>
        <time>2022-03-23T14:36:58Z</time>
      </trkpt>
      <trkpt lat="49.85486" lon="2.10994">
        <ele>124.4</ele>
        <time>2022-03-23T14:36:59Z</time>
      </trkpt>
      <trkpt lat="49.85486" lon="2.10994">
        <ele>124.4</ele>
        <time>2022-03-23T14:37:00Z</time>
      </trkpt>
      <trkpt lat="49.85485" lon="2.10993">
        <ele>124.4</ele>
        <time>2022-03-23T14:37:01Z</time>
      </trkpt>
      <trkpt lat="49.85483" lon="2.10992">
        <ele>124.5</ele>
        <time>2022-03-23T14:37:02Z</time>
      </trkpt>
      <trkpt lat="49.85482" lon="2.10991">
        <ele>124.5</ele>
        <time>2022-03-23T14:37:03Z</time>
      </trkpt>
      <trkpt lat="49.85481" lon="2.1099">
        <ele>124.5</ele>
        <time>2022-03-23T14:37:04Z</time>
      </trkpt>
      <trkpt lat="49.8548" lon="2.1099">
        <ele>124.5</ele>
        <time>2022-03-23T14:37:05Z</time>
      </trkpt>
      <trkpt lat="49.85479" lon="2.10989">
        <ele>124.5</ele>
        <time>2022-03-23T14:37:06Z</time>
      </trkpt>
      <trkpt lat="49.85478" lon="2.10988">
        <ele>124.5</ele>
        <time>2022-03-23T14:37:08Z</time>
      </trkpt>
      <trkpt lat="49.85477" lon="2.10987">
        <ele>124.6</ele>
        <time>2022-03-23T14:37:09Z</time>
      </trkpt>
      <trkpt lat="49.85476" lon="2.10987">
        <ele>124.6</ele>
        <time>2022-03-23T14:37:10Z</time>
      </trkpt>
      <trkpt lat="49.85474" lon="2.10985">
        <ele>124.6</ele>
        <time>2022-03-23T14:37:11Z</time>
      </trkpt>
      <trkpt lat="49.85473" lon="2.10985">
        <ele>124.6</ele>
        <time>2022-03-23T14:37:12Z</time>
      </trkpt>
      <trkpt lat="49.85472" lon="2.10984">
        <ele>124.6</ele>
        <time>2022-03-23T14:37:13Z</time>
      </trkpt>
      <trkpt lat="49.8547" lon="2.10983">
        <ele>124.6</ele>
        <time>2022-03-23T14:37:14Z</time>
      </trkpt>
      <trkpt lat="49.85469" lon="2.10982">
        <ele>124.6</ele>
        <time>2022-03-23T14:37:15Z</time>
      </trkpt>
      <trkpt lat="49.85469" lon="2.10982">
        <ele>124.6</ele>
        <time>2022-03-23T14:37:16Z</time>
      </trkpt>
      <trkpt lat="49.85467" lon="2.10981">
        <ele>124.7</ele>
        <time>2022-03-23T14:37:18Z</time>
      </trkpt>
      <trkpt lat="49.85466" lon="2.1098">
        <ele>124.7</ele>
        <time>2022-03-23T14:37:19Z</time>
      </trkpt>
      <trkpt lat="49.85464" lon="2.10979">
        <ele>124.7</ele>
        <time>2022-03-23T14:37:20Z</time>
      </trkpt>
      <trkpt lat="49.85463" lon="2.10979">
        <ele>124.7</ele>
        <time>2022-03-23T14:37:21Z</time>
      </trkpt>
      <trkpt lat="49.85462" lon="2.10978">
        <ele>124.7</ele>
        <time>2022-03-23T14:37:22Z</time>
      </trkpt>
      <trkpt lat="49.85461" lon="2.10977">
        <ele>124.7</ele>
        <time>2022-03-23T14:37:23Z</time>
      </trkpt>
      <trkpt lat="49.8546" lon="2.10976">
        <ele>124.7</ele>
        <time>2022-03-23T14:37:24Z</time>
      </trkpt>
      <trkpt lat="49.85459" lon="2.10976">
        <ele>124.7</ele>
        <time>2022-03-23T14:37:25Z</time>
      </trkpt>
      <trkpt lat="49.85457" lon="2.10974">
        <ele>124.7</ele>
        <time>2022-03-23T14:37:27Z</time>
      </trkpt>
      <trkpt lat="49.85457" lon="2.10973">
        <ele>124.7</ele>
        <time>2022-03-23T14:37:28Z</time>
      </trkpt>
      <trkpt lat="49.85456" lon="2.10973">
        <ele>124.7</ele>
        <time>2022-03-23T14:37:29Z</time>
      </trkpt>
      <trkpt lat="49.85455" lon="2.10972">
        <ele>124.7</ele>
        <time>2022-03-23T14:37:30Z</time>
      </trkpt>
      <trkpt lat="49.85454" lon="2.10971">
        <ele>124.7</ele>
        <time>2022-03-23T14:37:31Z</time>
      </trkpt>
      <trkpt lat="49.85453" lon="2.10971">
        <ele>124.7</ele>
        <time>2022-03-23T14:37:32Z</time>
      </trkpt>
      <trkpt lat="49.8545" lon="2.1097">
        <ele>124.7</ele>
        <time>2022-03-23T14:37:33Z</time>
      </trkpt>
      <trkpt lat="49.8545" lon="2.10969">
        <ele>124.7</ele>
        <time>2022-03-23T14:37:34Z</time>
      </trkpt>
      <trkpt lat="49.85449" lon="2.10969">
        <ele>124.7</ele>
        <time>2022-03-23T14:37:36Z</time>
      </trkpt>
      <trkpt lat="49.85448" lon="2.10969">
        <ele>124.7</ele>
        <time>2022-03-23T14:37:37Z</time>
      </trkpt>
      <trkpt lat="49.85447" lon="2.10968">
        <ele>124.7</ele>
        <time>2022-03-23T14:37:38Z</time>
      </trkpt>
      <trkpt lat="49.85446" lon="2.10968">
        <ele>124.7</ele>
        <time>2022-03-23T14:37:39Z</time>
      </trkpt>
      <trkpt lat="49.85443" lon="2.10967">
        <ele>124.7</ele>
        <time>2022-03-23T14:37:40Z</time>
      </trkpt>
      <trkpt lat="49.85443" lon="2.10967">
        <ele>124.7</ele>
        <time>2022-03-23T14:37:41Z</time>
      </trkpt>
      <trkpt lat="49.85442" lon="2.10966">
        <ele>124.7</ele>
        <time>2022-03-23T14:37:42Z</time>
      </trkpt>
      <trkpt lat="49.85441" lon="2.10966">
        <ele>124.7</ele>
        <time>2022-03-23T14:37:43Z</time>
      </trkpt>
      <trkpt lat="49.8544" lon="2.10966">
        <ele>124.7</ele>
        <time>2022-03-23T14:37:45Z</time>
      </trkpt>
      <trkpt lat="49.85439" lon="2.10965">
        <ele>124.7</ele>
        <time>2022-03-23T14:37:46Z</time>
      </trkpt>
      <trkpt lat="49.85436" lon="2.10964">
        <ele>124.7</ele>
        <time>2022-03-23T14:37:47Z</time>
      </trkpt>
      <trkpt lat="49.85436" lon="2.10963">
        <ele>124.7</ele>
        <time>2022-03-23T14:37:48Z</time>
      </trkpt>
      <trkpt lat="49.85435" lon="2.10963">
        <ele>124.7</ele>
        <time>2022-03-23T14:37:49Z</time>
      </trkpt>
      <trkpt lat="49.85433" lon="2.10961">
        <ele>124.7</ele>
        <time>2022-03-23T14:37:50Z</time>
      </trkpt>
      <trkpt lat="49.85432" lon="2.10961">
        <ele>124.7</ele>
        <time>2022-03-23T14:37:51Z</time>
      </trkpt>
      <trkpt lat="49.85431" lon="2.10961">
        <ele>124.7</ele>
        <time>2022-03-23T14:37:52Z</time>
      </trkpt>
      <trkpt lat="49.8543" lon="2.1096">
        <ele>124.7</ele>
        <time>2022-03-23T14:37:53Z</time>
      </trkpt>
      <trkpt lat="49.85429" lon="2.10959">
        <ele>124.8</ele>
        <time>2022-03-23T14:37:54Z</time>
      </trkpt>
      <trkpt lat="49.85428" lon="2.10958">
        <ele>124.8</ele>
        <time>2022-03-23T14:37:56Z</time>
      </trkpt>
      <trkpt lat="49.85426" lon="2.10957">
        <ele>124.8</ele>
        <time>2022-03-23T14:37:57Z</time>
      </trkpt>
      <trkpt lat="49.85425" lon="2.10956">
        <ele>124.8</ele>
        <time>2022-03-23T14:37:58Z</time>
      </trkpt>
      <trkpt lat="49.85424" lon="2.10956">
        <ele>124.8</ele>
        <time>2022-03-23T14:37:59Z</time>
      </trkpt>
      <trkpt lat="49.85423" lon="2.10955">
        <ele>124.8</ele>
        <time>2022-03-23T14:38:00Z</time>
      </trkpt>
      <trkpt lat="49.85422" lon="2.10954">
        <ele>124.8</ele>
        <time>2022-03-23T14:38:01Z</time>
      </trkpt>
      <trkpt lat="49.85421" lon="2.10954">
        <ele>124.8</ele>
        <time>2022-03-23T14:38:02Z</time>
      </trkpt>
      <trkpt lat="49.85419" lon="2.10953">
        <ele>124.8</ele>
        <time>2022-03-23T14:38:04Z</time>
      </trkpt>
      <trkpt lat="49.85418" lon="2.10952">
        <ele>124.8</ele>
        <time>2022-03-23T14:38:05Z</time>
      </trkpt>
      <trkpt lat="49.85418" lon="2.10952">
        <ele>124.8</ele>
        <time>2022-03-23T14:38:06Z</time>
      </trkpt>
      <trkpt lat="49.85417" lon="2.10951">
        <ele>124.8</ele>
        <time>2022-03-23T14:38:07Z</time>
      </trkpt>
      <trkpt lat="49.85415" lon="2.10951">
        <ele>124.8</ele>
        <time>2022-03-23T14:38:08Z</time>
      </trkpt>
      <trkpt lat="49.85413" lon="2.1095">
        <ele>124.8</ele>
        <time>2022-03-23T14:38:10Z</time>
      </trkpt>
      <trkpt lat="49.85412" lon="2.10949">
        <ele>124.8</ele>
        <time>2022-03-23T14:38:11Z</time>
      </trkpt>
      <trkpt lat="49.85411" lon="2.10949">
        <ele>124.9</ele>
        <time>2022-03-23T14:38:13Z</time>
      </trkpt>
      <trkpt lat="49.85409" lon="2.10948">
        <ele>124.9</ele>
        <time>2022-03-23T14:38:14Z</time>
      </trkpt>
      <trkpt lat="49.85408" lon="2.10947">
        <ele>124.9</ele>
        <time>2022-03-23T14:38:15Z</time>
      </trkpt>
      <trkpt lat="49.85407" lon="2.10946">
        <ele>124.9</ele>
        <time>2022-03-23T14:38:16Z</time>
      </trkpt>
      <trkpt lat="49.85405" lon="2.10945">
        <ele>124.9</ele>
        <time>2022-03-23T14:38:17Z</time>
      </trkpt>
      <trkpt lat="49.85404" lon="2.10944">
        <ele>124.9</ele>
        <time>2022-03-23T14:38:18Z</time>
      </trkpt>
      <trkpt lat="49.85403" lon="2.10944">
        <ele>124.9</ele>
        <time>2022-03-23T14:38:19Z</time>
      </trkpt>
      <trkpt lat="49.85402" lon="2.10943">
        <ele>124.9</ele>
        <time>2022-03-23T14:38:20Z</time>
      </trkpt>
      <trkpt lat="49.854" lon="2.10942">
        <ele>124.9</ele>
        <time>2022-03-23T14:38:21Z</time>
      </trkpt>
      <trkpt lat="49.85399" lon="2.10942">
        <ele>124.9</ele>
        <time>2022-03-23T14:38:23Z</time>
      </trkpt>
      <trkpt lat="49.85398" lon="2.10941">
        <ele>124.9</ele>
        <time>2022-03-23T14:38:24Z</time>
      </trkpt>
      <trkpt lat="49.85396" lon="2.10941">
        <ele>124.9</ele>
        <time>2022-03-23T14:38:25Z</time>
      </trkpt>
      <trkpt lat="49.85395" lon="2.1094">
        <ele>125</ele>
        <time>2022-03-23T14:38:26Z</time>
      </trkpt>
      <trkpt lat="49.85394" lon="2.10939">
        <ele>125</ele>
        <time>2022-03-23T14:38:27Z</time>
      </trkpt>
      <trkpt lat="49.85393" lon="2.10938">
        <ele>125</ele>
        <time>2022-03-23T14:38:28Z</time>
      </trkpt>
      <trkpt lat="49.85391" lon="2.10937">
        <ele>125</ele>
        <time>2022-03-23T14:38:29Z</time>
      </trkpt>
      <trkpt lat="49.8539" lon="2.10936">
        <ele>125</ele>
        <time>2022-03-23T14:38:31Z</time>
      </trkpt>
      <trkpt lat="49.85389" lon="2.10936">
        <ele>125</ele>
        <time>2022-03-23T14:38:32Z</time>
      </trkpt>
      <trkpt lat="49.85388" lon="2.10935">
        <ele>125</ele>
        <time>2022-03-23T14:38:33Z</time>
      </trkpt>
      <trkpt lat="49.85386" lon="2.10934">
        <ele>125</ele>
        <time>2022-03-23T14:38:34Z</time>
      </trkpt>
      <trkpt lat="49.85385" lon="2.10933">
        <ele>125</ele>
        <time>2022-03-23T14:38:35Z</time>
      </trkpt>
      <trkpt lat="49.85384" lon="2.10932">
        <ele>125.1</ele>
        <time>2022-03-23T14:38:36Z</time>
      </trkpt>
      <trkpt lat="49.85383" lon="2.10932">
        <ele>125.1</ele>
        <time>2022-03-23T14:38:37Z</time>
      </trkpt>
      <trkpt lat="49.85382" lon="2.10931">
        <ele>125.1</ele>
        <time>2022-03-23T14:38:39Z</time>
      </trkpt>
      <trkpt lat="49.85381" lon="2.10931">
        <ele>125.1</ele>
        <time>2022-03-23T14:38:40Z</time>
      </trkpt>
      <trkpt lat="49.8538" lon="2.10931">
        <ele>125.1</ele>
        <time>2022-03-23T14:38:41Z</time>
      </trkpt>
      <trkpt lat="49.85379" lon="2.1093">
        <ele>125.1</ele>
        <time>2022-03-23T14:38:42Z</time>
      </trkpt>
      <trkpt lat="49.85377" lon="2.10929">
        <ele>125.1</ele>
        <time>2022-03-23T14:38:43Z</time>
      </trkpt>
      <trkpt lat="49.85376" lon="2.10929">
        <ele>125.2</ele>
        <time>2022-03-23T14:38:44Z</time>
      </trkpt>
      <trkpt lat="49.85375" lon="2.10928">
        <ele>125.2</ele>
        <time>2022-03-23T14:38:45Z</time>
      </trkpt>
      <trkpt lat="49.85374" lon="2.10928">
        <ele>125.2</ele>
        <time>2022-03-23T14:38:47Z</time>
      </trkpt>
      <trkpt lat="49.85373" lon="2.10926">
        <ele>125.2</ele>
        <time>2022-03-23T14:38:48Z</time>
      </trkpt>
      <trkpt lat="49.85371" lon="2.10925">
        <ele>125.2</ele>
        <time>2022-03-23T14:38:49Z</time>
      </trkpt>
      <trkpt lat="49.8537" lon="2.10924">
        <ele>125.2</ele>
        <time>2022-03-23T14:38:50Z</time>
      </trkpt>
      <trkpt lat="49.85369" lon="2.10924">
        <ele>125.3</ele>
        <time>2022-03-23T14:38:51Z</time>
      </trkpt>
      <trkpt lat="49.85367" lon="2.10923">
        <ele>125.3</ele>
        <time>2022-03-23T14:38:52Z</time>
      </trkpt>
      <trkpt lat="49.85366" lon="2.10922">
        <ele>125.3</ele>
        <time>2022-03-23T14:38:53Z</time>
      </trkpt>
      <trkpt lat="49.85365" lon="2.10922">
        <ele>125.3</ele>
        <time>2022-03-23T14:38:55Z</time>
      </trkpt>
      <trkpt lat="49.85364" lon="2.10921">
        <ele>125.3</ele>
        <time>2022-03-23T14:38:56Z</time>
      </trkpt>
      <trkpt lat="49.85363" lon="2.10921">
        <ele>125.3</ele>
        <time>2022-03-23T14:38:57Z</time>
      </trkpt>
      <trkpt lat="49.85362" lon="2.1092">
        <ele>125.3</ele>
        <time>2022-03-23T14:38:58Z</time>
      </trkpt>
      <trkpt lat="49.8536" lon="2.10919">
        <ele>125.4</ele>
        <time>2022-03-23T14:38:59Z</time>
      </trkpt>
      <trkpt lat="49.8536" lon="2.10919">
        <ele>125.4</ele>
        <time>2022-03-23T14:39:00Z</time>
      </trkpt>
      <trkpt lat="49.85359" lon="2.10919">
        <ele>125.4</ele>
        <time>2022-03-23T14:39:01Z</time>
      </trkpt>
      <trkpt lat="49.85358" lon="2.10918">
        <ele>125.4</ele>
        <time>2022-03-23T14:39:02Z</time>
      </trkpt>
      <trkpt lat="49.85356" lon="2.10918">
        <ele>125.4</ele>
        <time>2022-03-23T14:39:04Z</time>
      </trkpt>
      <trkpt lat="49.85355" lon="2.10917">
        <ele>125.4</ele>
        <time>2022-03-23T14:39:05Z</time>
      </trkpt>
      <trkpt lat="49.85353" lon="2.10916">
        <ele>125.4</ele>
        <time>2022-03-23T14:39:06Z</time>
      </trkpt>
      <trkpt lat="49.85353" lon="2.10915">
        <ele>125.5</ele>
        <time>2022-03-23T14:39:07Z</time>
      </trkpt>
      <trkpt lat="49.85352" lon="2.10914">
        <ele>125.5</ele>
        <time>2022-03-23T14:39:08Z</time>
      </trkpt>
      <trkpt lat="49.85351" lon="2.10913">
        <ele>125.5</ele>
        <time>2022-03-23T14:39:09Z</time>
      </trkpt>
      <trkpt lat="49.8535" lon="2.10912">
        <ele>125.5</ele>
        <time>2022-03-23T14:39:10Z</time>
      </trkpt>
      <trkpt lat="49.85349" lon="2.10911">
        <ele>125.5</ele>
        <time>2022-03-23T14:39:11Z</time>
      </trkpt>
      <trkpt lat="49.85347" lon="2.1091">
        <ele>125.5</ele>
        <time>2022-03-23T14:39:13Z</time>
      </trkpt>
      <trkpt lat="49.85347" lon="2.10909">
        <ele>125.5</ele>
        <time>2022-03-23T14:39:14Z</time>
      </trkpt>
      <trkpt lat="49.85346" lon="2.10909">
        <ele>125.5</ele>
        <time>2022-03-23T14:39:15Z</time>
      </trkpt>
      <trkpt lat="49.85344" lon="2.10907">
        <ele>125.5</ele>
        <time>2022-03-23T14:39:16Z</time>
      </trkpt>
      <trkpt lat="49.85343" lon="2.10907">
        <ele>125.5</ele>
        <time>2022-03-23T14:39:17Z</time>
      </trkpt>
      <trkpt lat="49.85342" lon="2.10906">
        <ele>125.5</ele>
        <time>2022-03-23T14:39:18Z</time>
      </trkpt>
      <trkpt lat="49.85341" lon="2.10905">
        <ele>125.6</ele>
        <time>2022-03-23T14:39:19Z</time>
      </trkpt>
      <trkpt lat="49.8534" lon="2.10904">
        <ele>125.6</ele>
        <time>2022-03-23T14:39:21Z</time>
      </trkpt>
      <trkpt lat="49.85339" lon="2.10904">
        <ele>125.6</ele>
        <time>2022-03-23T14:39:22Z</time>
      </trkpt>
      <trkpt lat="49.85337" lon="2.10902">
        <ele>125.6</ele>
        <time>2022-03-23T14:39:23Z</time>
      </trkpt>
      <trkpt lat="49.85336" lon="2.10902">
        <ele>125.6</ele>
        <time>2022-03-23T14:39:24Z</time>
      </trkpt>
      <trkpt lat="49.85335" lon="2.10901">
        <ele>125.6</ele>
        <time>2022-03-23T14:39:25Z</time>
      </trkpt>
      <trkpt lat="49.85334" lon="2.10901">
        <ele>125.6</ele>
        <time>2022-03-23T14:39:26Z</time>
      </trkpt>
      <trkpt lat="49.85333" lon="2.109">
        <ele>125.6</ele>
        <time>2022-03-23T14:39:27Z</time>
      </trkpt>
      <trkpt lat="49.85332" lon="2.109">
        <ele>125.6</ele>
        <time>2022-03-23T14:39:29Z</time>
      </trkpt>
      <trkpt lat="49.8533" lon="2.10899">
        <ele>125.7</ele>
        <time>2022-03-23T14:39:30Z</time>
      </trkpt>
      <trkpt lat="49.8533" lon="2.10898">
        <ele>125.7</ele>
        <time>2022-03-23T14:39:31Z</time>
      </trkpt>
      <trkpt lat="49.85329" lon="2.10897">
        <ele>125.7</ele>
        <time>2022-03-23T14:39:32Z</time>
      </trkpt>
      <trkpt lat="49.85327" lon="2.10897">
        <ele>125.7</ele>
        <time>2022-03-23T14:39:33Z</time>
      </trkpt>
      <trkpt lat="49.85326" lon="2.10896">
        <ele>125.7</ele>
        <time>2022-03-23T14:39:34Z</time>
      </trkpt>
      <trkpt lat="49.85325" lon="2.10896">
        <ele>125.7</ele>
        <time>2022-03-23T14:39:36Z</time>
      </trkpt>
      <trkpt lat="49.85324" lon="2.10896">
        <ele>125.7</ele>
        <time>2022-03-23T14:39:37Z</time>
      </trkpt>
      <trkpt lat="49.85323" lon="2.10896">
        <ele>125.8</ele>
        <time>2022-03-23T14:39:38Z</time>
      </trkpt>
      <trkpt lat="49.85322" lon="2.10896">
        <ele>125.8</ele>
        <time>2022-03-23T14:39:39Z</time>
      </trkpt>
      <trkpt lat="49.85321" lon="2.10896">
        <ele>125.8</ele>
        <time>2022-03-23T14:39:40Z</time>
      </trkpt>
      <trkpt lat="49.85321" lon="2.10895">
        <ele>125.8</ele>
        <time>2022-03-23T14:39:41Z</time>
      </trkpt>
      <trkpt lat="49.8532" lon="2.10895">
        <ele>125.8</ele>
        <time>2022-03-23T14:39:42Z</time>
      </trkpt>
      <trkpt lat="49.85319" lon="2.10894">
        <ele>125.9</ele>
        <time>2022-03-23T14:39:43Z</time>
      </trkpt>
      <trkpt lat="49.85318" lon="2.10893">
        <ele>125.9</ele>
        <time>2022-03-23T14:39:44Z</time>
      </trkpt>
      <trkpt lat="49.85317" lon="2.10893">
        <ele>125.9</ele>
        <time>2022-03-23T14:39:46Z</time>
      </trkpt>
      <trkpt lat="49.85317" lon="2.10894">
        <ele>125.9</ele>
        <time>2022-03-23T14:39:47Z</time>
      </trkpt>
      <trkpt lat="49.85318" lon="2.10895">
        <ele>125.9</ele>
        <time>2022-03-23T14:39:48Z</time>
      </trkpt>
      <trkpt lat="49.85318" lon="2.10895">
        <ele>125.9</ele>
        <time>2022-03-23T14:39:49Z</time>
      </trkpt>
      <trkpt lat="49.85319" lon="2.10896">
        <ele>125.9</ele>
        <time>2022-03-23T14:39:50Z</time>
      </trkpt>
      <trkpt lat="49.85319" lon="2.10896">
        <ele>126</ele>
        <time>2022-03-23T14:39:51Z</time>
      </trkpt>
      <trkpt lat="49.85319" lon="2.10897">
        <ele>126</ele>
        <time>2022-03-23T14:39:52Z</time>
      </trkpt>
      <trkpt lat="49.85319" lon="2.10897">
        <ele>126</ele>
        <time>2022-03-23T14:39:53Z</time>
      </trkpt>
      <trkpt lat="49.85319" lon="2.10897">
        <ele>126</ele>
        <time>2022-03-23T14:39:54Z</time>
      </trkpt>
      <trkpt lat="49.8532" lon="2.10897">
        <ele>126</ele>
        <time>2022-03-23T14:39:55Z</time>
      </trkpt>
      <trkpt lat="49.8532" lon="2.10897">
        <ele>126</ele>
        <time>2022-03-23T14:39:56Z</time>
      </trkpt>
      <trkpt lat="49.8532" lon="2.10897">
        <ele>126</ele>
        <time>2022-03-23T14:39:57Z</time>
      </trkpt>
      <trkpt lat="49.8532" lon="2.10897">
        <ele>126</ele>
        <time>2022-03-23T14:39:58Z</time>
      </trkpt>
      <trkpt lat="49.8532" lon="2.10897">
        <ele>126</ele>
        <time>2022-03-23T14:39:59Z</time>
      </trkpt>
      <trkpt lat="49.8532" lon="2.10897">
        <ele>126</ele>
        <time>2022-03-23T14:40:00Z</time>
      </trkpt>
      <trkpt lat="49.8532" lon="2.10897">
        <ele>126</ele>
        <time>2022-03-23T14:40:01Z</time>
      </trkpt>
      <trkpt lat="49.8532" lon="2.10897">
        <ele>126</ele>
        <time>2022-03-23T14:40:02Z</time>
      </trkpt>
      <trkpt lat="49.8532" lon="2.10897">
        <ele>126</ele>
        <time>2022-03-23T14:40:03Z</time>
      </trkpt>
      <trkpt lat="49.8532" lon="2.10897">
        <ele>126</ele>
        <time>2022-03-23T14:40:04Z</time>
      </trkpt>
      <trkpt lat="49.8532" lon="2.10897">
        <ele>126</ele>
        <time>2022-03-23T14:40:05Z</time>
      </trkpt>
      <trkpt lat="49.8532" lon="2.10897">
        <ele>126</ele>
        <time>2022-03-23T14:40:06Z</time>
      </trkpt>
      <trkpt lat="49.8532" lon="2.10897">
        <ele>126</ele>
        <time>2022-03-23T14:40:07Z</time>
      </trkpt>
      <trkpt lat="49.8532" lon="2.10897">
        <ele>126</ele>
        <time>2022-03-23T14:40:08Z</time>
      </trkpt>
      <trkpt lat="49.8532" lon="2.10897">
        <ele>126</ele>
        <time>2022-03-23T14:40:09Z</time>
      </trkpt>
      <trkpt lat="49.8532" lon="2.10897">
        <ele>126</ele>
        <time>2022-03-23T14:40:10Z</time>
      </trkpt>
      <trkpt lat="49.8532" lon="2.10897">
        <ele>126</ele>
        <time>2022-03-23T14:40:11Z</time>
      </trkpt>
      <trkpt lat="49.8532" lon="2.10897">
        <ele>126</ele>
        <time>2022-03-23T14:40:12Z</time>
      </trkpt>
      <trkpt lat="49.8532" lon="2.10897">
        <ele>126</ele>
        <time>2022-03-23T14:40:13Z</time>
      </trkpt>
      <trkpt lat="49.8532" lon="2.10897">
        <ele>126</ele>
        <time>2022-03-23T14:40:14Z</time>
      </trkpt>
      <trkpt lat="49.8532" lon="2.10897">
        <ele>126</ele>
        <time>2022-03-23T14:40:15Z</time>
      </trkpt>
      <trkpt lat="49.8532" lon="2.10897">
        <ele>126</ele>
        <time>2022-03-23T14:40:16Z</time>
      </trkpt>
      <trkpt lat="49.8532" lon="2.10897">
        <ele>126</ele>
        <time>2022-03-23T14:40:17Z</time>
      </trkpt>
      <trkpt lat="49.8532" lon="2.10897">
        <ele>126</ele>
        <time>2022-03-23T14:40:18Z</time>
      </trkpt>
      <trkpt lat="49.8532" lon="2.10897">
        <ele>126</ele>
        <time>2022-03-23T14:40:19Z</time>
      </trkpt>
      <trkpt lat="49.8532" lon="2.10897">
        <ele>126</ele>
        <time>2022-03-23T14:40:20Z</time>
      </trkpt>
      <trkpt lat="49.8532" lon="2.10897">
        <ele>126</ele>
        <time>2022-03-23T14:40:21Z</time>
      </trkpt>
      <trkpt lat="49.8532" lon="2.10897">
        <ele>126</ele>
        <time>2022-03-23T14:40:22Z</time>
      </trkpt>
      <trkpt lat="49.8532" lon="2.10897">
        <ele>126</ele>
        <time>2022-03-23T14:40:23Z</time>
      </trkpt>
      <trkpt lat="49.8532" lon="2.10897">
        <ele>126</ele>
        <time>2022-03-23T14:40:24Z</time>
      </trkpt>
      <trkpt lat="49.8532" lon="2.10897">
        <ele>126</ele>
        <time>2022-03-23T14:40:25Z</time>
      </trkpt>
      <trkpt lat="49.8532" lon="2.10897">
        <ele>126</ele>
        <time>2022-03-23T14:40:26Z</time>
      </trkpt>
      <trkpt lat="49.8532" lon="2.10897">
        <ele>126</ele>
        <time>2022-03-23T14:40:27Z</time>
      </trkpt>
      <trkpt lat="49.8532" lon="2.10897">
        <ele>126</ele>
        <time>2022-03-23T14:40:28Z</time>
      </trkpt>
      <trkpt lat="49.8532" lon="2.10897">
        <ele>126</ele>
        <time>2022-03-23T14:40:29Z</time>
      </trkpt>
      <trkpt lat="49.8532" lon="2.10897">
        <ele>126</ele>
        <time>2022-03-23T14:40:30Z</time>
      </trkpt>
      <trkpt lat="49.8532" lon="2.10897">
        <ele>126</ele>
        <time>2022-03-23T14:40:31Z</time>
      </trkpt>
      <trkpt lat="49.8532" lon="2.10897">
        <ele>126</ele>
        <time>2022-03-23T14:40:32Z</time>
      </trkpt>
      <trkpt lat="49.8532" lon="2.10897">
        <ele>126</ele>
        <time>2022-03-23T14:40:33Z</time>
      </trkpt>
      <trkpt lat="49.8532" lon="2.10897">
        <ele>126</ele>
        <time>2022-03-23T14:40:34Z</time>
      </trkpt>
      <trkpt lat="49.8532" lon="2.10897">
        <ele>126</ele>
        <time>2022-03-23T14:40:35Z</time>
      </trkpt>
      <trkpt lat="49.8532" lon="2.10897">
        <ele>126</ele>
        <time>2022-03-23T14:40:36Z</time>
      </trkpt>
      <trkpt lat="49.8532" lon="2.10897">
        <ele>126</ele>
        <time>2022-03-23T14:40:37Z</time>
      </trkpt>
      <trkpt lat="49.8532" lon="2.10897">
        <ele>126</ele>
        <time>2022-03-23T14:40:38Z</time>
      </trkpt>
      <trkpt lat="49.8532" lon="2.10897">
        <ele>126</ele>
        <time>2022-03-23T14:40:39Z</time>
      </trkpt>
      <trkpt lat="49.8532" lon="2.10897">
        <ele>126</ele>
        <time>2022-03-23T14:40:40Z</time>
      </trkpt>
      <trkpt lat="49.8532" lon="2.10897">
        <ele>126</ele>
        <time>2022-03-23T14:40:41Z</time>
      </trkpt>
      <trkpt lat="49.8532" lon="2.10897">
        <ele>126</ele>
        <time>2022-03-23T14:40:42Z</time>
      </trkpt>
      <trkpt lat="49.8532" lon="2.10897">
        <ele>126</ele>
        <time>2022-03-23T14:40:43Z</time>
      </trkpt>
      <trkpt lat="49.8532" lon="2.10897">
        <ele>126</ele>
        <time>2022-03-23T14:40:44Z</time>
      </trkpt>
      <trkpt lat="49.8532" lon="2.10897">
        <ele>126</ele>
        <time>2022-03-23T14:40:45Z</time>
      </trkpt>
      <trkpt lat="49.8532" lon="2.10897">
        <ele>126</ele>
        <time>2022-03-23T14:40:46Z</time>
      </trkpt>
      <trkpt lat="49.8532" lon="2.10897">
        <ele>126</ele>
        <time>2022-03-23T14:40:47Z</time>
      </trkpt>
      <trkpt lat="49.8532" lon="2.10897">
        <ele>126</ele>
        <time>2022-03-23T14:40:48Z</time>
      </trkpt>
      <trkpt lat="49.8532" lon="2.10897">
        <ele>126</ele>
        <time>2022-03-23T14:40:49Z</time>
      </trkpt>
      <trkpt lat="49.8532" lon="2.10897">
        <ele>126</ele>
        <time>2022-03-23T14:40:50Z</time>
      </trkpt>
      <trkpt lat="49.8532" lon="2.10897">
        <ele>126</ele>
        <time>2022-03-23T14:40:51Z</time>
      </trkpt>
      <trkpt lat="49.8532" lon="2.10897">
        <ele>126</ele>
        <time>2022-03-23T14:40:52Z</time>
      </trkpt>
      <trkpt lat="49.8532" lon="2.10897">
        <ele>126</ele>
        <time>2022-03-23T14:40:53Z</time>
      </trkpt>
      <trkpt lat="49.8532" lon="2.10897">
        <ele>126</ele>
        <time>2022-03-23T14:40:54Z</time>
      </trkpt>
      <trkpt lat="49.8532" lon="2.10897">
        <ele>126</ele>
        <time>2022-03-23T14:40:55Z</time>
      </trkpt>
      <trkpt lat="49.8532" lon="2.10897">
        <ele>126</ele>
        <time>2022-03-23T14:40:56Z</time>
      </trkpt>
      <trkpt lat="49.8532" lon="2.10897">
        <ele>126</ele>
        <time>2022-03-23T14:40:57Z</time>
      </trkpt>
      <trkpt lat="49.8532" lon="2.10897">
        <ele>126</ele>
        <time>2022-03-23T14:40:58Z</time>
      </trkpt>
      <trkpt lat="49.8532" lon="2.10897">
        <ele>126</ele>
        <time>2022-03-23T14:40:59Z</time>
      </trkpt>
      <trkpt lat="49.8532" lon="2.10897">
        <ele>126</ele>
        <time>2022-03-23T14:41:00Z</time>
      </trkpt>
      <trkpt lat="49.8532" lon="2.10897">
        <ele>126</ele>
        <time>2022-03-23T14:41:01Z</time>
      </trkpt>
      <trkpt lat="49.8532" lon="2.10897">
        <ele>126</ele>
        <time>2022-03-23T14:41:02Z</time>
      </trkpt>
      <trkpt lat="49.8532" lon="2.10897">
        <ele>126</ele>
        <time>2022-03-23T14:41:03Z</time>
      </trkpt>
      <trkpt lat="49.8532" lon="2.10897">
        <ele>126</ele>
        <time>2022-03-23T14:41:04Z</time>
      </trkpt>
      <trkpt lat="49.8532" lon="2.10897">
        <ele>126</ele>
        <time>2022-03-23T14:41:05Z</time>
      </trkpt>
      <trkpt lat="49.8532" lon="2.10897">
        <ele>126</ele>
        <time>2022-03-23T14:41:06Z</time>
      </trkpt>
      <trkpt lat="49.8532" lon="2.10897">
        <ele>126</ele>
        <time>2022-03-23T14:41:07Z</time>
      </trkpt>
      <trkpt lat="49.8532" lon="2.10897">
        <ele>126</ele>
        <time>2022-03-23T14:41:08Z</time>
      </trkpt>
      <trkpt lat="49.8532" lon="2.10897">
        <ele>126</ele>
        <time>2022-03-23T14:41:09Z</time>
      </trkpt>
      <trkpt lat="49.8532" lon="2.10897">
        <ele>126</ele>
        <time>2022-03-23T14:41:10Z</time>
      </trkpt>
      <trkpt lat="49.8532" lon="2.10897">
        <ele>126</ele>
        <time>2022-03-23T14:41:11Z</time>
      </trkpt>
      <trkpt lat="49.8532" lon="2.10897">
        <ele>126</ele>
        <time>2022-03-23T14:41:12Z</time>
      </trkpt>
      <trkpt lat="49.8532" lon="2.10897">
        <ele>126</ele>
        <time>2022-03-23T14:41:13Z</time>
      </trkpt>
      <trkpt lat="49.8532" lon="2.10897">
        <ele>126</ele>
        <time>2022-03-23T14:41:14Z</time>
      </trkpt>
      <trkpt lat="49.8532" lon="2.10897">
        <ele>126</ele>
        <time>2022-03-23T14:41:15Z</time>
      </trkpt>
      <trkpt lat="49.8532" lon="2.10897">
        <ele>126</ele>
        <time>2022-03-23T14:41:16Z</time>
      </trkpt>
      <trkpt lat="49.8532" lon="2.10897">
        <ele>126</ele>
        <time>2022-03-23T14:41:17Z</time>
      </trkpt>
      <trkpt lat="49.8532" lon="2.10897">
        <ele>126</ele>
        <time>2022-03-23T14:41:18Z</time>
      </trkpt>
      <trkpt lat="49.8532" lon="2.10897">
        <ele>126</ele>
        <time>2022-03-23T14:41:19Z</time>
      </trkpt>
      <trkpt lat="49.8532" lon="2.10897">
        <ele>126</ele>
        <time>2022-03-23T14:41:20Z</time>
      </trkpt>
      <trkpt lat="49.8532" lon="2.10897">
        <ele>126</ele>
        <time>2022-03-23T14:41:21Z</time>
      </trkpt>
      <trkpt lat="49.8532" lon="2.10897">
        <ele>126</ele>
        <time>2022-03-23T14:41:22Z</time>
      </trkpt>
      <trkpt lat="49.8532" lon="2.10897">
        <ele>126</ele>
        <time>2022-03-23T14:41:23Z</time>
      </trkpt>
      <trkpt lat="49.8532" lon="2.10897">
        <ele>126</ele>
        <time>2022-03-23T14:41:24Z</time>
      </trkpt>
      <trkpt lat="49.8532" lon="2.10897">
        <ele>126</ele>
        <time>2022-03-23T14:41:25Z</time>
      </trkpt>
      <trkpt lat="49.8532" lon="2.10897">
        <ele>126</ele>
        <time>2022-03-23T14:41:26Z</time>
      </trkpt>
      <trkpt lat="49.8532" lon="2.10897">
        <ele>126</ele>
        <time>2022-03-23T14:41:27Z</time>
      </trkpt>
      <trkpt lat="49.8532" lon="2.10897">
        <ele>126</ele>
        <time>2022-03-23T14:41:28Z</time>
      </trkpt>
      <trkpt lat="49.8532" lon="2.10897">
        <ele>126</ele>
        <time>2022-03-23T14:41:29Z</time>
      </trkpt>
      <trkpt lat="49.8532" lon="2.10897">
        <ele>126</ele>
        <time>2022-03-23T14:41:30Z</time>
      </trkpt>
      <trkpt lat="49.8532" lon="2.10897">
        <ele>126</ele>
        <time>2022-03-23T14:41:31Z</time>
      </trkpt>
      <trkpt lat="49.8532" lon="2.10897">
        <ele>126</ele>
        <time>2022-03-23T14:41:32Z</time>
      </trkpt>
      <trkpt lat="49.8532" lon="2.10897">
        <ele>126</ele>
        <time>2022-03-23T14:41:33Z</time>
      </trkpt>
      <trkpt lat="49.8532" lon="2.10897">
        <ele>126</ele>
        <time>2022-03-23T14:41:34Z</time>
      </trkpt>
      <trkpt lat="49.8532" lon="2.10897">
        <ele>126</ele>
        <time>2022-03-23T14:41:35Z</time>
      </trkpt>
      <trkpt lat="49.8532" lon="2.10897">
        <ele>126</ele>
        <time>2022-03-23T14:41:36Z</time>
      </trkpt>
      <trkpt lat="49.8532" lon="2.10897">
        <ele>126</ele>
        <time>2022-03-23T14:41:37Z</time>
      </trkpt>
      <trkpt lat="49.8532" lon="2.10897">
        <ele>126</ele>
        <time>2022-03-23T14:41:38Z</time>
      </trkpt>
      <trkpt lat="49.8532" lon="2.10897">
        <ele>126</ele>
        <time>2022-03-23T14:41:39Z</time>
      </trkpt>
      <trkpt lat="49.8532" lon="2.10897">
        <ele>126</ele>
        <time>2022-03-23T14:41:40Z</time>
      </trkpt>
      <trkpt lat="49.8532" lon="2.10897">
        <ele>126</ele>
        <time>2022-03-23T14:41:41Z</time>
      </trkpt>
      <trkpt lat="49.8532" lon="2.10897">
        <ele>126</ele>
        <time>2022-03-23T14:41:42Z</time>
      </trkpt>
      <trkpt lat="49.8532" lon="2.10897">
        <ele>126</ele>
        <time>2022-03-23T14:41:43Z</time>
      </trkpt>
      <trkpt lat="49.8532" lon="2.10897">
        <ele>126</ele>
        <time>2022-03-23T14:41:44Z</time>
      </trkpt>
      <trkpt lat="49.8532" lon="2.10897">
        <ele>126</ele>
        <time>2022-03-23T14:41:45Z</time>
      </trkpt>
      <trkpt lat="49.8532" lon="2.10897">
        <ele>126</ele>
        <time>2022-03-23T14:41:46Z</time>
      </trkpt>
      <trkpt lat="49.8532" lon="2.10897">
        <ele>126</ele>
        <time>2022-03-23T14:41:47Z</time>
      </trkpt>
      <trkpt lat="49.8532" lon="2.10897">
        <ele>126</ele>
        <time>2022-03-23T14:41:48Z</time>
      </trkpt>
      <trkpt lat="49.8532" lon="2.10897">
        <ele>126</ele>
        <time>2022-03-23T14:41:49Z</time>
      </trkpt>
      <trkpt lat="49.8532" lon="2.10897">
        <ele>126.1</ele>
        <time>2022-03-23T14:41:50Z</time>
      </trkpt>
      <trkpt lat="49.8532" lon="2.10897">
        <ele>126.1</ele>
        <time>2022-03-23T14:41:51Z</time>
      </trkpt>
      <trkpt lat="49.8532" lon="2.10897">
        <ele>126.1</ele>
        <time>2022-03-23T14:41:52Z</time>
      </trkpt>
      <trkpt lat="49.8532" lon="2.10897">
        <ele>126.1</ele>
        <time>2022-03-23T14:41:53Z</time>
      </trkpt>
      <trkpt lat="49.8532" lon="2.10897">
        <ele>126.1</ele>
        <time>2022-03-23T14:41:54Z</time>
      </trkpt>
      <trkpt lat="49.8532" lon="2.10897">
        <ele>126.1</ele>
        <time>2022-03-23T14:41:55Z</time>
      </trkpt>
      <trkpt lat="49.8532" lon="2.10897">
        <ele>126.1</ele>
        <time>2022-03-23T14:41:56Z</time>
      </trkpt>
      <trkpt lat="49.8532" lon="2.10897">
        <ele>126.1</ele>
        <time>2022-03-23T14:41:57Z</time>
      </trkpt>
      <trkpt lat="49.8532" lon="2.10897">
        <ele>126.1</ele>
        <time>2022-03-23T14:41:58Z</time>
      </trkpt>
      <trkpt lat="49.8532" lon="2.10897">
        <ele>126.1</ele>
        <time>2022-03-23T14:41:59Z</time>
      </trkpt>
      <trkpt lat="49.8532" lon="2.10897">
        <ele>126.1</ele>
        <time>2022-03-23T14:42:00Z</time>
      </trkpt>
      <trkpt lat="49.8532" lon="2.10897">
        <ele>126.1</ele>
        <time>2022-03-23T14:42:01Z</time>
      </trkpt>
      <trkpt lat="49.8532" lon="2.10897">
        <ele>126.1</ele>
        <time>2022-03-23T14:42:02Z</time>
      </trkpt>
      <trkpt lat="49.8532" lon="2.10897">
        <ele>126.1</ele>
        <time>2022-03-23T14:42:03Z</time>
      </trkpt>
      <trkpt lat="49.8532" lon="2.10897">
        <ele>126.1</ele>
        <time>2022-03-23T14:42:04Z</time>
      </trkpt>
      <trkpt lat="49.8532" lon="2.10897">
        <ele>126.1</ele>
        <time>2022-03-23T14:42:05Z</time>
      </trkpt>
      <trkpt lat="49.8532" lon="2.10897">
        <ele>126.1</ele>
        <time>2022-03-23T14:42:06Z</time>
      </trkpt>
      <trkpt lat="49.8532" lon="2.10897">
        <ele>126.1</ele>
        <time>2022-03-23T14:42:07Z</time>
      </trkpt>
      <trkpt lat="49.8532" lon="2.10897">
        <ele>126.1</ele>
        <time>2022-03-23T14:42:08Z</time>
      </trkpt>
      <trkpt lat="49.8532" lon="2.10897">
        <ele>126.1</ele>
        <time>2022-03-23T14:42:09Z</time>
      </trkpt>
      <trkpt lat="49.8532" lon="2.10897">
        <ele>126.1</ele>
        <time>2022-03-23T14:42:10Z</time>
      </trkpt>
      <trkpt lat="49.8532" lon="2.10897">
        <ele>126.2</ele>
        <time>2022-03-23T14:42:11Z</time>
      </trkpt>
      <trkpt lat="49.8532" lon="2.10897">
        <ele>126.2</ele>
        <time>2022-03-23T14:42:12Z</time>
      </trkpt>
      <trkpt lat="49.8532" lon="2.10897">
        <ele>126.2</ele>
        <time>2022-03-23T14:42:13Z</time>
      </trkpt>
      <trkpt lat="49.8532" lon="2.10897">
        <ele>126.2</ele>
        <time>2022-03-23T14:42:14Z</time>
      </trkpt>
      <trkpt lat="49.8532" lon="2.10897">
        <ele>126.2</ele>
        <time>2022-03-23T14:42:15Z</time>
      </trkpt>
      <trkpt lat="49.8532" lon="2.10897">
        <ele>126.2</ele>
        <time>2022-03-23T14:42:16Z</time>
      </trkpt>
      <trkpt lat="49.8532" lon="2.10897">
        <ele>126.2</ele>
        <time>2022-03-23T14:42:17Z</time>
      </trkpt>
      <trkpt lat="49.8532" lon="2.10897">
        <ele>126.2</ele>
        <time>2022-03-23T14:42:18Z</time>
      </trkpt>
      <trkpt lat="49.8532" lon="2.10897">
        <ele>126.2</ele>
        <time>2022-03-23T14:42:19Z</time>
      </trkpt>
      <trkpt lat="49.8532" lon="2.10897">
        <ele>126.2</ele>
        <time>2022-03-23T14:42:20Z</time>
      </trkpt>
      <trkpt lat="49.8532" lon="2.10897">
        <ele>126.2</ele>
        <time>2022-03-23T14:42:21Z</time>
      </trkpt>
      <trkpt lat="49.8532" lon="2.10897">
        <ele>126.2</ele>
        <time>2022-03-23T14:42:22Z</time>
      </trkpt>
      <trkpt lat="49.8532" lon="2.10897">
        <ele>126.2</ele>
        <time>2022-03-23T14:42:23Z</time>
      </trkpt>
      <trkpt lat="49.8532" lon="2.10897">
        <ele>126.2</ele>
        <time>2022-03-23T14:42:24Z</time>
      </trkpt>
      <trkpt lat="49.8532" lon="2.10897">
        <ele>126.2</ele>
        <time>2022-03-23T14:42:25Z</time>
      </trkpt>
      <trkpt lat="49.8532" lon="2.10897">
        <ele>126.2</ele>
        <time>2022-03-23T14:42:26Z</time>
      </trkpt>
      <trkpt lat="49.8532" lon="2.10897">
        <ele>126.2</ele>
        <time>2022-03-23T14:42:27Z</time>
      </trkpt>
      <trkpt lat="49.8532" lon="2.10897">
        <ele>126.2</ele>
        <time>2022-03-23T14:42:28Z</time>
      </trkpt>
      <trkpt lat="49.8532" lon="2.10897">
        <ele>126.2</ele>
        <time>2022-03-23T14:42:29Z</time>
      </trkpt>
      <trkpt lat="49.8532" lon="2.10897">
        <ele>126.3</ele>
        <time>2022-03-23T14:42:30Z</time>
      </trkpt>
      <trkpt lat="49.8532" lon="2.10897">
        <ele>126.3</ele>
        <time>2022-03-23T14:42:31Z</time>
      </trkpt>
      <trkpt lat="49.8532" lon="2.10897">
        <ele>126.3</ele>
        <time>2022-03-23T14:42:32Z</time>
      </trkpt>
      <trkpt lat="49.8532" lon="2.10897">
        <ele>126.3</ele>
        <time>2022-03-23T14:42:33Z</time>
      </trkpt>
      <trkpt lat="49.8532" lon="2.10897">
        <ele>126.3</ele>
        <time>2022-03-23T14:42:34Z</time>
      </trkpt>
      <trkpt lat="49.8532" lon="2.10897">
        <ele>126.3</ele>
        <time>2022-03-23T14:42:35Z</time>
      </trkpt>
      <trkpt lat="49.8532" lon="2.10897">
        <ele>126.3</ele>
        <time>2022-03-23T14:42:36Z</time>
      </trkpt>
      <trkpt lat="49.8532" lon="2.10897">
        <ele>126.3</ele>
        <time>2022-03-23T14:42:37Z</time>
      </trkpt>
      <trkpt lat="49.8532" lon="2.10897">
        <ele>126.3</ele>
        <time>2022-03-23T14:42:38Z</time>
      </trkpt>
      <trkpt lat="49.8532" lon="2.10897">
        <ele>126.3</ele>
        <time>2022-03-23T14:42:39Z</time>
      </trkpt>
      <trkpt lat="49.8532" lon="2.10897">
        <ele>126.3</ele>
        <time>2022-03-23T14:42:40Z</time>
      </trkpt>
      <trkpt lat="49.8532" lon="2.10897">
        <ele>126.3</ele>
        <time>2022-03-23T14:42:41Z</time>
      </trkpt>
      <trkpt lat="49.8532" lon="2.10897">
        <ele>126.3</ele>
        <time>2022-03-23T14:42:42Z</time>
      </trkpt>
      <trkpt lat="49.8532" lon="2.10897">
        <ele>126.3</ele>
        <time>2022-03-23T14:42:43Z</time>
      </trkpt>
      <trkpt lat="49.8532" lon="2.10897">
        <ele>126.3</ele>
        <time>2022-03-23T14:42:44Z</time>
      </trkpt>
      <trkpt lat="49.8532" lon="2.10897">
        <ele>126.3</ele>
        <time>2022-03-23T14:42:45Z</time>
      </trkpt>
      <trkpt lat="49.8532" lon="2.10897">
        <ele>126.3</ele>
        <time>2022-03-23T14:42:46Z</time>
      </trkpt>
      <trkpt lat="49.8532" lon="2.10897">
        <ele>126.3</ele>
        <time>2022-03-23T14:42:47Z</time>
      </trkpt>
      <trkpt lat="49.8532" lon="2.10896">
        <ele>126.3</ele>
        <time>2022-03-23T14:42:48Z</time>
      </trkpt>
      <trkpt lat="49.85321" lon="2.10893">
        <ele>126.4</ele>
        <time>2022-03-23T14:42:49Z</time>
      </trkpt>
      <trkpt lat="49.8532" lon="2.10891">
        <ele>126.4</ele>
        <time>2022-03-23T14:42:50Z</time>
      </trkpt>
      <trkpt lat="49.8532" lon="2.1089">
        <ele>126.4</ele>
        <time>2022-03-23T14:42:51Z</time>
      </trkpt>
      <trkpt lat="49.8532" lon="2.10889">
        <ele>126.4</ele>
        <time>2022-03-23T14:42:52Z</time>
      </trkpt>
      <trkpt lat="49.85319" lon="2.10888">
        <ele>126.4</ele>
        <time>2022-03-23T14:42:53Z</time>
      </trkpt>
      <trkpt lat="49.85319" lon="2.10887">
        <ele>126.4</ele>
        <time>2022-03-23T14:42:54Z</time>
      </trkpt>
      <trkpt lat="49.85318" lon="2.10887">
        <ele>126.4</ele>
        <time>2022-03-23T14:42:55Z</time>
      </trkpt>
      <trkpt lat="49.85318" lon="2.10886">
        <ele>126.4</ele>
        <time>2022-03-23T14:42:56Z</time>
      </trkpt>
      <trkpt lat="49.85319" lon="2.10884">
        <ele>126.5</ele>
        <time>2022-03-23T14:42:58Z</time>
      </trkpt>
      <trkpt lat="49.85319" lon="2.10883">
        <ele>126.5</ele>
        <time>2022-03-23T14:42:59Z</time>
      </trkpt>
      <trkpt lat="49.85319" lon="2.10881">
        <ele>126.6</ele>
        <time>2022-03-23T14:43:00Z</time>
      </trkpt>
      <trkpt lat="49.8532" lon="2.1088">
        <ele>126.6</ele>
        <time>2022-03-23T14:43:01Z</time>
      </trkpt>
      <trkpt lat="49.8532" lon="2.10878">
        <ele>126.6</ele>
        <time>2022-03-23T14:43:02Z</time>
      </trkpt>
      <trkpt lat="49.85321" lon="2.10876">
        <ele>126.6</ele>
        <time>2022-03-23T14:43:03Z</time>
      </trkpt>
      <trkpt lat="49.85321" lon="2.10874">
        <ele>126.6</ele>
        <time>2022-03-23T14:43:05Z</time>
      </trkpt>
      <trkpt lat="49.85322" lon="2.10873">
        <ele>126.6</ele>
        <time>2022-03-23T14:43:06Z</time>
      </trkpt>
      <trkpt lat="49.85322" lon="2.10871">
        <ele>126.6</ele>
        <time>2022-03-23T14:43:07Z</time>
      </trkpt>
      <trkpt lat="49.85323" lon="2.1087">
        <ele>126.6</ele>
        <time>2022-03-23T14:43:08Z</time>
      </trkpt>
      <trkpt lat="49.85323" lon="2.10868">
        <ele>126.6</ele>
        <time>2022-03-23T14:43:09Z</time>
      </trkpt>
      <trkpt lat="49.85323" lon="2.10866">
        <ele>126.6</ele>
        <time>2022-03-23T14:43:10Z</time>
      </trkpt>
      <trkpt lat="49.85324" lon="2.10864">
        <ele>126.6</ele>
        <time>2022-03-23T14:43:11Z</time>
      </trkpt>
      <trkpt lat="49.85325" lon="2.10862">
        <ele>126.6</ele>
        <time>2022-03-23T14:43:12Z</time>
      </trkpt>
      <trkpt lat="49.85325" lon="2.10861">
        <ele>126.6</ele>
        <time>2022-03-23T14:43:14Z</time>
      </trkpt>
      <trkpt lat="49.85326" lon="2.10859">
        <ele>126.6</ele>
        <time>2022-03-23T14:43:15Z</time>
      </trkpt>
      <trkpt lat="49.85326" lon="2.10858">
        <ele>126.6</ele>
        <time>2022-03-23T14:43:16Z</time>
      </trkpt>
      <trkpt lat="49.85327" lon="2.10857">
        <ele>126.6</ele>
        <time>2022-03-23T14:43:17Z</time>
      </trkpt>
      <trkpt lat="49.85327" lon="2.10855">
        <ele>126.6</ele>
        <time>2022-03-23T14:43:18Z</time>
      </trkpt>
      <trkpt lat="49.85328" lon="2.10853">
        <ele>126.6</ele>
        <time>2022-03-23T14:43:19Z</time>
      </trkpt>
      <trkpt lat="49.85328" lon="2.10852">
        <ele>126.6</ele>
        <time>2022-03-23T14:43:21Z</time>
      </trkpt>
      <trkpt lat="49.85329" lon="2.1085">
        <ele>126.6</ele>
        <time>2022-03-23T14:43:22Z</time>
      </trkpt>
      <trkpt lat="49.85329" lon="2.10849">
        <ele>126.6</ele>
        <time>2022-03-23T14:43:23Z</time>
      </trkpt>
      <trkpt lat="49.8533" lon="2.10847">
        <ele>126.6</ele>
        <time>2022-03-23T14:43:24Z</time>
      </trkpt>
      <trkpt lat="49.85331" lon="2.10845">
        <ele>126.6</ele>
        <time>2022-03-23T14:43:25Z</time>
      </trkpt>
      <trkpt lat="49.85331" lon="2.10844">
        <ele>126.6</ele>
        <time>2022-03-23T14:43:26Z</time>
      </trkpt>
      <trkpt lat="49.85332" lon="2.10843">
        <ele>126.6</ele>
        <time>2022-03-23T14:43:27Z</time>
      </trkpt>
      <trkpt lat="49.85333" lon="2.1084">
        <ele>126.6</ele>
        <time>2022-03-23T14:43:29Z</time>
      </trkpt>
      <trkpt lat="49.85333" lon="2.10839">
        <ele>126.7</ele>
        <time>2022-03-23T14:43:30Z</time>
      </trkpt>
      <trkpt lat="49.85334" lon="2.10838">
        <ele>126.7</ele>
        <time>2022-03-23T14:43:31Z</time>
      </trkpt>
      <trkpt lat="49.85335" lon="2.10836">
        <ele>126.7</ele>
        <time>2022-03-23T14:43:32Z</time>
      </trkpt>
      <trkpt lat="49.85336" lon="2.10835">
        <ele>126.7</ele>
        <time>2022-03-23T14:43:33Z</time>
      </trkpt>
      <trkpt lat="49.85337" lon="2.10832">
        <ele>126.7</ele>
        <time>2022-03-23T14:43:35Z</time>
      </trkpt>
      <trkpt lat="49.85338" lon="2.10829">
        <ele>126.7</ele>
        <time>2022-03-23T14:43:36Z</time>
      </trkpt>
      <trkpt lat="49.85338" lon="2.10828">
        <ele>126.7</ele>
        <time>2022-03-23T14:43:37Z</time>
      </trkpt>
      <trkpt lat="49.85338" lon="2.10827">
        <ele>126.7</ele>
        <time>2022-03-23T14:43:38Z</time>
      </trkpt>
      <trkpt lat="49.85339" lon="2.10824">
        <ele>126.7</ele>
        <time>2022-03-23T14:43:39Z</time>
      </trkpt>
      <trkpt lat="49.85339" lon="2.10823">
        <ele>126.7</ele>
        <time>2022-03-23T14:43:40Z</time>
      </trkpt>
      <trkpt lat="49.8534" lon="2.10821">
        <ele>126.7</ele>
        <time>2022-03-23T14:43:41Z</time>
      </trkpt>
      <trkpt lat="49.85341" lon="2.10818">
        <ele>126.7</ele>
        <time>2022-03-23T14:43:42Z</time>
      </trkpt>
      <trkpt lat="49.85341" lon="2.10817">
        <ele>126.7</ele>
        <time>2022-03-23T14:43:43Z</time>
      </trkpt>
      <trkpt lat="49.85341" lon="2.10816">
        <ele>126.7</ele>
        <time>2022-03-23T14:43:44Z</time>
      </trkpt>
      <trkpt lat="49.85342" lon="2.10813">
        <ele>126.7</ele>
        <time>2022-03-23T14:43:45Z</time>
      </trkpt>
      <trkpt lat="49.85342" lon="2.10812">
        <ele>126.7</ele>
        <time>2022-03-23T14:43:47Z</time>
      </trkpt>
      <trkpt lat="49.85343" lon="2.10811">
        <ele>126.7</ele>
        <time>2022-03-23T14:43:48Z</time>
      </trkpt>
      <trkpt lat="49.85343" lon="2.10809">
        <ele>126.7</ele>
        <time>2022-03-23T14:43:49Z</time>
      </trkpt>
      <trkpt lat="49.85344" lon="2.10808">
        <ele>126.7</ele>
        <time>2022-03-23T14:43:50Z</time>
      </trkpt>
      <trkpt lat="49.85344" lon="2.10806">
        <ele>126.7</ele>
        <time>2022-03-23T14:43:51Z</time>
      </trkpt>
      <trkpt lat="49.85345" lon="2.10803">
        <ele>126.7</ele>
        <time>2022-03-23T14:43:52Z</time>
      </trkpt>
      <trkpt lat="49.85346" lon="2.10802">
        <ele>126.7</ele>
        <time>2022-03-23T14:43:53Z</time>
      </trkpt>
      <trkpt lat="49.85346" lon="2.108">
        <ele>126.7</ele>
        <time>2022-03-23T14:43:54Z</time>
      </trkpt>
      <trkpt lat="49.85347" lon="2.10799">
        <ele>126.7</ele>
        <time>2022-03-23T14:43:55Z</time>
      </trkpt>
      <trkpt lat="49.85347" lon="2.10797">
        <ele>126.7</ele>
        <time>2022-03-23T14:43:57Z</time>
      </trkpt>
      <trkpt lat="49.85348" lon="2.10795">
        <ele>126.7</ele>
        <time>2022-03-23T14:43:58Z</time>
      </trkpt>
      <trkpt lat="49.85348" lon="2.10793">
        <ele>126.7</ele>
        <time>2022-03-23T14:43:59Z</time>
      </trkpt>
      <trkpt lat="49.85349" lon="2.1079">
        <ele>126.7</ele>
        <time>2022-03-23T14:44:00Z</time>
      </trkpt>
      <trkpt lat="49.85349" lon="2.10788">
        <ele>126.7</ele>
        <time>2022-03-23T14:44:01Z</time>
      </trkpt>
      <trkpt lat="49.8535" lon="2.10786">
        <ele>126.7</ele>
        <time>2022-03-23T14:44:02Z</time>
      </trkpt>
      <trkpt lat="49.85351" lon="2.10784">
        <ele>126.7</ele>
        <time>2022-03-23T14:44:03Z</time>
      </trkpt>
      <trkpt lat="49.85352" lon="2.10782">
        <ele>126.7</ele>
        <time>2022-03-23T14:44:05Z</time>
      </trkpt>
      <trkpt lat="49.85352" lon="2.1078">
        <ele>126.7</ele>
        <time>2022-03-23T14:44:06Z</time>
      </trkpt>
      <trkpt lat="49.85353" lon="2.10777">
        <ele>126.7</ele>
        <time>2022-03-23T14:44:07Z</time>
      </trkpt>
      <trkpt lat="49.85354" lon="2.10776">
        <ele>126.7</ele>
        <time>2022-03-23T14:44:08Z</time>
      </trkpt>
      <trkpt lat="49.85354" lon="2.10775">
        <ele>126.7</ele>
        <time>2022-03-23T14:44:09Z</time>
      </trkpt>
      <trkpt lat="49.85355" lon="2.10772">
        <ele>126.7</ele>
        <time>2022-03-23T14:44:10Z</time>
      </trkpt>
      <trkpt lat="49.85355" lon="2.1077">
        <ele>126.7</ele>
        <time>2022-03-23T14:44:12Z</time>
      </trkpt>
      <trkpt lat="49.85355" lon="2.10768">
        <ele>126.7</ele>
        <time>2022-03-23T14:44:13Z</time>
      </trkpt>
      <trkpt lat="49.85356" lon="2.10766">
        <ele>126.7</ele>
        <time>2022-03-23T14:44:14Z</time>
      </trkpt>
      <trkpt lat="49.85356" lon="2.10765">
        <ele>126.7</ele>
        <time>2022-03-23T14:44:15Z</time>
      </trkpt>
      <trkpt lat="49.85357" lon="2.10762">
        <ele>126.7</ele>
        <time>2022-03-23T14:44:16Z</time>
      </trkpt>
      <trkpt lat="49.85358" lon="2.10761">
        <ele>126.7</ele>
        <time>2022-03-23T14:44:17Z</time>
      </trkpt>
      <trkpt lat="49.85358" lon="2.10759">
        <ele>126.7</ele>
        <time>2022-03-23T14:44:19Z</time>
      </trkpt>
      <trkpt lat="49.85358" lon="2.10757">
        <ele>126.7</ele>
        <time>2022-03-23T14:44:20Z</time>
      </trkpt>
      <trkpt lat="49.85359" lon="2.10756">
        <ele>126.7</ele>
        <time>2022-03-23T14:44:21Z</time>
      </trkpt>
      <trkpt lat="49.85359" lon="2.10755">
        <ele>126.7</ele>
        <time>2022-03-23T14:44:22Z</time>
      </trkpt>
      <trkpt lat="49.85359" lon="2.10754">
        <ele>126.7</ele>
        <time>2022-03-23T14:44:23Z</time>
      </trkpt>
      <trkpt lat="49.8536" lon="2.10752">
        <ele>126.7</ele>
        <time>2022-03-23T14:44:24Z</time>
      </trkpt>
      <trkpt lat="49.8536" lon="2.10749">
        <ele>126.7</ele>
        <time>2022-03-23T14:44:25Z</time>
      </trkpt>
      <trkpt lat="49.85361" lon="2.10748">
        <ele>126.7</ele>
        <time>2022-03-23T14:44:26Z</time>
      </trkpt>
      <trkpt lat="49.85361" lon="2.10747">
        <ele>126.7</ele>
        <time>2022-03-23T14:44:27Z</time>
      </trkpt>
      <trkpt lat="49.85362" lon="2.10745">
        <ele>126.7</ele>
        <time>2022-03-23T14:44:28Z</time>
      </trkpt>
      <trkpt lat="49.85363" lon="2.10743">
        <ele>126.7</ele>
        <time>2022-03-23T14:44:29Z</time>
      </trkpt>
      <trkpt lat="49.85363" lon="2.10741">
        <ele>126.7</ele>
        <time>2022-03-23T14:44:30Z</time>
      </trkpt>
      <trkpt lat="49.85364" lon="2.1074">
        <ele>126.7</ele>
        <time>2022-03-23T14:44:31Z</time>
      </trkpt>
      <trkpt lat="49.85364" lon="2.10739">
        <ele>126.7</ele>
        <time>2022-03-23T14:44:32Z</time>
      </trkpt>
      <trkpt lat="49.85365" lon="2.10737">
        <ele>126.7</ele>
        <time>2022-03-23T14:44:33Z</time>
      </trkpt>
      <trkpt lat="49.85365" lon="2.10735">
        <ele>126.7</ele>
        <time>2022-03-23T14:44:35Z</time>
      </trkpt>
      <trkpt lat="49.85365" lon="2.10733">
        <ele>126.7</ele>
        <time>2022-03-23T14:44:36Z</time>
      </trkpt>
      <trkpt lat="49.85366" lon="2.10732">
        <ele>126.7</ele>
        <time>2022-03-23T14:44:37Z</time>
      </trkpt>
      <trkpt lat="49.85366" lon="2.10731">
        <ele>126.7</ele>
        <time>2022-03-23T14:44:38Z</time>
      </trkpt>
      <trkpt lat="49.85367" lon="2.10729">
        <ele>126.7</ele>
        <time>2022-03-23T14:44:39Z</time>
      </trkpt>
      <trkpt lat="49.85367" lon="2.10726">
        <ele>126.7</ele>
        <time>2022-03-23T14:44:40Z</time>
      </trkpt>
      <trkpt lat="49.85367" lon="2.10725">
        <ele>126.7</ele>
        <time>2022-03-23T14:44:41Z</time>
      </trkpt>
      <trkpt lat="49.85367" lon="2.10723">
        <ele>126.7</ele>
        <time>2022-03-23T14:44:42Z</time>
      </trkpt>
      <trkpt lat="49.85367" lon="2.1072">
        <ele>126.7</ele>
        <time>2022-03-23T14:44:43Z</time>
      </trkpt>
      <trkpt lat="49.85368" lon="2.10719">
        <ele>126.7</ele>
        <time>2022-03-23T14:44:44Z</time>
      </trkpt>
      <trkpt lat="49.85368" lon="2.10717">
        <ele>126.7</ele>
        <time>2022-03-23T14:44:45Z</time>
      </trkpt>
      <trkpt lat="49.85368" lon="2.10714">
        <ele>126.7</ele>
        <time>2022-03-23T14:44:46Z</time>
      </trkpt>
      <trkpt lat="49.85368" lon="2.10713">
        <ele>126.7</ele>
        <time>2022-03-23T14:44:47Z</time>
      </trkpt>
      <trkpt lat="49.85368" lon="2.10712">
        <ele>126.7</ele>
        <time>2022-03-23T14:44:48Z</time>
      </trkpt>
      <trkpt lat="49.85368" lon="2.10709">
        <ele>126.7</ele>
        <time>2022-03-23T14:44:49Z</time>
      </trkpt>
      <trkpt lat="49.85368" lon="2.10707">
        <ele>126.6</ele>
        <time>2022-03-23T14:44:50Z</time>
      </trkpt>
      <trkpt lat="49.85369" lon="2.10705">
        <ele>126.6</ele>
        <time>2022-03-23T14:44:52Z</time>
      </trkpt>
      <trkpt lat="49.85369" lon="2.10703">
        <ele>126.6</ele>
        <time>2022-03-23T14:44:53Z</time>
      </trkpt>
      <trkpt lat="49.8537" lon="2.10702">
        <ele>126.6</ele>
        <time>2022-03-23T14:44:54Z</time>
      </trkpt>
      <trkpt lat="49.8537" lon="2.107">
        <ele>126.6</ele>
        <time>2022-03-23T14:44:55Z</time>
      </trkpt>
      <trkpt lat="49.8537" lon="2.10698">
        <ele>126.6</ele>
        <time>2022-03-23T14:44:56Z</time>
      </trkpt>
      <trkpt lat="49.8537" lon="2.10697">
        <ele>126.6</ele>
        <time>2022-03-23T14:44:57Z</time>
      </trkpt>
      <trkpt lat="49.8537" lon="2.10693">
        <ele>126.6</ele>
        <time>2022-03-23T14:44:58Z</time>
      </trkpt>
      <trkpt lat="49.8537" lon="2.10692">
        <ele>126.6</ele>
        <time>2022-03-23T14:44:59Z</time>
      </trkpt>
      <trkpt lat="49.8537" lon="2.10691">
        <ele>126.6</ele>
        <time>2022-03-23T14:45:00Z</time>
      </trkpt>
      <trkpt lat="49.85371" lon="2.10689">
        <ele>126.6</ele>
        <time>2022-03-23T14:45:01Z</time>
      </trkpt>
      <trkpt lat="49.85371" lon="2.10686">
        <ele>126.6</ele>
        <time>2022-03-23T14:45:03Z</time>
      </trkpt>
      <trkpt lat="49.85371" lon="2.10684">
        <ele>126.5</ele>
        <time>2022-03-23T14:45:04Z</time>
      </trkpt>
      <trkpt lat="49.85372" lon="2.10682">
        <ele>126.5</ele>
        <time>2022-03-23T14:45:05Z</time>
      </trkpt>
      <trkpt lat="49.85372" lon="2.10679">
        <ele>126.5</ele>
        <time>2022-03-23T14:45:06Z</time>
      </trkpt>
      <trkpt lat="49.85372" lon="2.10677">
        <ele>126.5</ele>
        <time>2022-03-23T14:45:07Z</time>
      </trkpt>
      <trkpt lat="49.85373" lon="2.10675">
        <ele>126.5</ele>
        <time>2022-03-23T14:45:08Z</time>
      </trkpt>
      <trkpt lat="49.85373" lon="2.10673">
        <ele>126.5</ele>
        <time>2022-03-23T14:45:09Z</time>
      </trkpt>
      <trkpt lat="49.85372" lon="2.10669">
        <ele>126.5</ele>
        <time>2022-03-23T14:45:10Z</time>
      </trkpt>
      <trkpt lat="49.85372" lon="2.10667">
        <ele>126.4</ele>
        <time>2022-03-23T14:45:12Z</time>
      </trkpt>
      <trkpt lat="49.85372" lon="2.10665">
        <ele>126.4</ele>
        <time>2022-03-23T14:45:13Z</time>
      </trkpt>
      <trkpt lat="49.85372" lon="2.10664">
        <ele>126.4</ele>
        <time>2022-03-23T14:45:14Z</time>
      </trkpt>
      <trkpt lat="49.85372" lon="2.10662">
        <ele>126.4</ele>
        <time>2022-03-23T14:45:15Z</time>
      </trkpt>
      <trkpt lat="49.85373" lon="2.1066">
        <ele>126.4</ele>
        <time>2022-03-23T14:45:16Z</time>
      </trkpt>
      <trkpt lat="49.85373" lon="2.10658">
        <ele>126.4</ele>
        <time>2022-03-23T14:45:17Z</time>
      </trkpt>
      <trkpt lat="49.85374" lon="2.10654">
        <ele>126.4</ele>
        <time>2022-03-23T14:45:19Z</time>
      </trkpt>
      <trkpt lat="49.85374" lon="2.10653">
        <ele>126.4</ele>
        <time>2022-03-23T14:45:20Z</time>
      </trkpt>
      <trkpt lat="49.85374" lon="2.10652">
        <ele>126.4</ele>
        <time>2022-03-23T14:45:21Z</time>
      </trkpt>
      <trkpt lat="49.85374" lon="2.10649">
        <ele>126.4</ele>
        <time>2022-03-23T14:45:22Z</time>
      </trkpt>
      <trkpt lat="49.85373" lon="2.10647">
        <ele>126.3</ele>
        <time>2022-03-23T14:45:23Z</time>
      </trkpt>
      <trkpt lat="49.85373" lon="2.10645">
        <ele>126.3</ele>
        <time>2022-03-23T14:45:24Z</time>
      </trkpt>
      <trkpt lat="49.85373" lon="2.10642">
        <ele>126.3</ele>
        <time>2022-03-23T14:45:26Z</time>
      </trkpt>
      <trkpt lat="49.85373" lon="2.1064">
        <ele>126.3</ele>
        <time>2022-03-23T14:45:27Z</time>
      </trkpt>
      <trkpt lat="49.85373" lon="2.10638">
        <ele>126.3</ele>
        <time>2022-03-23T14:45:28Z</time>
      </trkpt>
      <trkpt lat="49.85374" lon="2.10636">
        <ele>126.3</ele>
        <time>2022-03-23T14:45:29Z</time>
      </trkpt>
      <trkpt lat="49.85374" lon="2.10633">
        <ele>126.3</ele>
        <time>2022-03-23T14:45:30Z</time>
      </trkpt>
      <trkpt lat="49.85374" lon="2.1063">
        <ele>126.3</ele>
        <time>2022-03-23T14:45:31Z</time>
      </trkpt>
      <trkpt lat="49.85374" lon="2.10629">
        <ele>126.3</ele>
        <time>2022-03-23T14:45:32Z</time>
      </trkpt>
      <trkpt lat="49.85374" lon="2.10628">
        <ele>126.3</ele>
        <time>2022-03-23T14:45:33Z</time>
      </trkpt>
      <trkpt lat="49.85373" lon="2.10624">
        <ele>126.3</ele>
        <time>2022-03-23T14:45:34Z</time>
      </trkpt>
      <trkpt lat="49.85373" lon="2.10623">
        <ele>126.3</ele>
        <time>2022-03-23T14:45:35Z</time>
      </trkpt>
      <trkpt lat="49.85373" lon="2.10622">
        <ele>126.3</ele>
        <time>2022-03-23T14:45:36Z</time>
      </trkpt>
      <trkpt lat="49.85372" lon="2.10619">
        <ele>126.3</ele>
        <time>2022-03-23T14:45:38Z</time>
      </trkpt>
      <trkpt lat="49.85372" lon="2.10617">
        <ele>126.3</ele>
        <time>2022-03-23T14:45:39Z</time>
      </trkpt>
      <trkpt lat="49.85372" lon="2.10616">
        <ele>126.3</ele>
        <time>2022-03-23T14:45:40Z</time>
      </trkpt>
      <trkpt lat="49.85373" lon="2.10614">
        <ele>126.3</ele>
        <time>2022-03-23T14:45:41Z</time>
      </trkpt>
      <trkpt lat="49.85373" lon="2.10612">
        <ele>126.3</ele>
        <time>2022-03-23T14:45:42Z</time>
      </trkpt>
      <trkpt lat="49.85373" lon="2.1061">
        <ele>126.3</ele>
        <time>2022-03-23T14:45:43Z</time>
      </trkpt>
      <trkpt lat="49.85373" lon="2.10608">
        <ele>126.3</ele>
        <time>2022-03-23T14:45:44Z</time>
      </trkpt>
      <trkpt lat="49.85374" lon="2.10604">
        <ele>126.3</ele>
        <time>2022-03-23T14:45:45Z</time>
      </trkpt>
      <trkpt lat="49.85374" lon="2.10602">
        <ele>126.3</ele>
        <time>2022-03-23T14:45:47Z</time>
      </trkpt>
      <trkpt lat="49.85375" lon="2.10599">
        <ele>126.3</ele>
        <time>2022-03-23T14:45:48Z</time>
      </trkpt>
      <trkpt lat="49.85375" lon="2.10598">
        <ele>126.3</ele>
        <time>2022-03-23T14:45:49Z</time>
      </trkpt>
      <trkpt lat="49.85375" lon="2.10596">
        <ele>126.3</ele>
        <time>2022-03-23T14:45:50Z</time>
      </trkpt>
      <trkpt lat="49.85375" lon="2.10594">
        <ele>126.3</ele>
        <time>2022-03-23T14:45:51Z</time>
      </trkpt>
      <trkpt lat="49.85375" lon="2.10592">
        <ele>126.3</ele>
        <time>2022-03-23T14:45:52Z</time>
      </trkpt>
      <trkpt lat="49.85376" lon="2.1059">
        <ele>126.3</ele>
        <time>2022-03-23T14:45:53Z</time>
      </trkpt>
      <trkpt lat="49.85376" lon="2.10587">
        <ele>126.3</ele>
        <time>2022-03-23T14:45:54Z</time>
      </trkpt>
      <trkpt lat="49.85376" lon="2.10583">
        <ele>126.3</ele>
        <time>2022-03-23T14:45:55Z</time>
      </trkpt>
      <trkpt lat="49.85377" lon="2.10582">
        <ele>126.3</ele>
        <time>2022-03-23T14:45:57Z</time>
      </trkpt>
      <trkpt lat="49.85377" lon="2.1058">
        <ele>126.3</ele>
        <time>2022-03-23T14:45:58Z</time>
      </trkpt>
      <trkpt lat="49.85377" lon="2.10579">
        <ele>126.3</ele>
        <time>2022-03-23T14:45:59Z</time>
      </trkpt>
      <trkpt lat="49.85377" lon="2.10577">
        <ele>126.3</ele>
        <time>2022-03-23T14:46:00Z</time>
      </trkpt>
      <trkpt lat="49.85377" lon="2.10574">
        <ele>126.3</ele>
        <time>2022-03-23T14:46:01Z</time>
      </trkpt>
      <trkpt lat="49.85376" lon="2.10573">
        <ele>126.3</ele>
        <time>2022-03-23T14:46:02Z</time>
      </trkpt>
      <trkpt lat="49.85376" lon="2.10571">
        <ele>126.3</ele>
        <time>2022-03-23T14:46:03Z</time>
      </trkpt>
      <trkpt lat="49.85377" lon="2.10569">
        <ele>126.3</ele>
        <time>2022-03-23T14:46:04Z</time>
      </trkpt>
      <trkpt lat="49.85377" lon="2.10567">
        <ele>126.3</ele>
        <time>2022-03-23T14:46:05Z</time>
      </trkpt>
      <trkpt lat="49.85377" lon="2.10564">
        <ele>126.3</ele>
        <time>2022-03-23T14:46:06Z</time>
      </trkpt>
      <trkpt lat="49.85377" lon="2.10562">
        <ele>126.3</ele>
        <time>2022-03-23T14:46:08Z</time>
      </trkpt>
      <trkpt lat="49.85378" lon="2.1056">
        <ele>126.3</ele>
        <time>2022-03-23T14:46:09Z</time>
      </trkpt>
      <trkpt lat="49.85378" lon="2.10557">
        <ele>126.3</ele>
        <time>2022-03-23T14:46:10Z</time>
      </trkpt>
      <trkpt lat="49.85379" lon="2.10555">
        <ele>126.3</ele>
        <time>2022-03-23T14:46:11Z</time>
      </trkpt>
      <trkpt lat="49.85379" lon="2.10553">
        <ele>126.3</ele>
        <time>2022-03-23T14:46:12Z</time>
      </trkpt>
      <trkpt lat="49.85379" lon="2.10551">
        <ele>126.4</ele>
        <time>2022-03-23T14:46:13Z</time>
      </trkpt>
      <trkpt lat="49.8538" lon="2.10549">
        <ele>126.4</ele>
        <time>2022-03-23T14:46:14Z</time>
      </trkpt>
      <trkpt lat="49.8538" lon="2.10544">
        <ele>126.4</ele>
        <time>2022-03-23T14:46:15Z</time>
      </trkpt>
      <trkpt lat="49.8538" lon="2.10542">
        <ele>126.4</ele>
        <time>2022-03-23T14:46:17Z</time>
      </trkpt>
      <trkpt lat="49.85381" lon="2.10541">
        <ele>126.4</ele>
        <time>2022-03-23T14:46:18Z</time>
      </trkpt>
      <trkpt lat="49.85381" lon="2.10539">
        <ele>126.4</ele>
        <time>2022-03-23T14:46:19Z</time>
      </trkpt>
      <trkpt lat="49.85381" lon="2.10537">
        <ele>126.4</ele>
        <time>2022-03-23T14:46:20Z</time>
      </trkpt>
      <trkpt lat="49.85381" lon="2.10534">
        <ele>126.4</ele>
        <time>2022-03-23T14:46:21Z</time>
      </trkpt>
      <trkpt lat="49.85381" lon="2.10533">
        <ele>126.4</ele>
        <time>2022-03-23T14:46:22Z</time>
      </trkpt>
      <trkpt lat="49.85381" lon="2.10532">
        <ele>126.4</ele>
        <time>2022-03-23T14:46:23Z</time>
      </trkpt>
      <trkpt lat="49.85382" lon="2.1053">
        <ele>126.4</ele>
        <time>2022-03-23T14:46:24Z</time>
      </trkpt>
      <trkpt lat="49.85382" lon="2.10527">
        <ele>126.4</ele>
        <time>2022-03-23T14:46:25Z</time>
      </trkpt>
      <trkpt lat="49.85382" lon="2.10525">
        <ele>126.4</ele>
        <time>2022-03-23T14:46:26Z</time>
      </trkpt>
      <trkpt lat="49.85382" lon="2.10523">
        <ele>126.4</ele>
        <time>2022-03-23T14:46:27Z</time>
      </trkpt>
      <trkpt lat="49.85383" lon="2.1052">
        <ele>126.4</ele>
        <time>2022-03-23T14:46:28Z</time>
      </trkpt>
      <trkpt lat="49.85383" lon="2.10518">
        <ele>126.4</ele>
        <time>2022-03-23T14:46:29Z</time>
      </trkpt>
      <trkpt lat="49.85383" lon="2.10517">
        <ele>126.5</ele>
        <time>2022-03-23T14:46:30Z</time>
      </trkpt>
      <trkpt lat="49.85383" lon="2.10515">
        <ele>126.5</ele>
        <time>2022-03-23T14:46:31Z</time>
      </trkpt>
      <trkpt lat="49.85383" lon="2.10513">
        <ele>126.5</ele>
        <time>2022-03-23T14:46:32Z</time>
      </trkpt>
      <trkpt lat="49.85383" lon="2.10511">
        <ele>126.5</ele>
        <time>2022-03-23T14:46:33Z</time>
      </trkpt>
      <trkpt lat="49.85384" lon="2.10509">
        <ele>126.5</ele>
        <time>2022-03-23T14:46:34Z</time>
      </trkpt>
      <trkpt lat="49.85384" lon="2.10507">
        <ele>126.5</ele>
        <time>2022-03-23T14:46:35Z</time>
      </trkpt>
      <trkpt lat="49.85384" lon="2.10505">
        <ele>126.5</ele>
        <time>2022-03-23T14:46:36Z</time>
      </trkpt>
      <trkpt lat="49.85385" lon="2.10503">
        <ele>126.5</ele>
        <time>2022-03-23T14:46:38Z</time>
      </trkpt>
      <trkpt lat="49.85385" lon="2.10502">
        <ele>126.5</ele>
        <time>2022-03-23T14:46:39Z</time>
      </trkpt>
      <trkpt lat="49.85385" lon="2.105">
        <ele>126.5</ele>
        <time>2022-03-23T14:46:40Z</time>
      </trkpt>
      <trkpt lat="49.85385" lon="2.10499">
        <ele>126.5</ele>
        <time>2022-03-23T14:46:41Z</time>
      </trkpt>
      <trkpt lat="49.85386" lon="2.10497">
        <ele>126.5</ele>
        <time>2022-03-23T14:46:42Z</time>
      </trkpt>
      <trkpt lat="49.85386" lon="2.10496">
        <ele>126.5</ele>
        <time>2022-03-23T14:46:43Z</time>
      </trkpt>
      <trkpt lat="49.85387" lon="2.10495">
        <ele>126.5</ele>
        <time>2022-03-23T14:46:44Z</time>
      </trkpt>
      <trkpt lat="49.85387" lon="2.10493">
        <ele>126.5</ele>
        <time>2022-03-23T14:46:45Z</time>
      </trkpt>
      <trkpt lat="49.85388" lon="2.1049">
        <ele>126.5</ele>
        <time>2022-03-23T14:46:46Z</time>
      </trkpt>
      <trkpt lat="49.85389" lon="2.10488">
        <ele>126.5</ele>
        <time>2022-03-23T14:46:47Z</time>
      </trkpt>
      <trkpt lat="49.85389" lon="2.10487">
        <ele>126.5</ele>
        <time>2022-03-23T14:46:48Z</time>
      </trkpt>
      <trkpt lat="49.8539" lon="2.10485">
        <ele>126.5</ele>
        <time>2022-03-23T14:46:49Z</time>
      </trkpt>
      <trkpt lat="49.8539" lon="2.10483">
        <ele>126.6</ele>
        <time>2022-03-23T14:46:50Z</time>
      </trkpt>
      <trkpt lat="49.85391" lon="2.10481">
        <ele>126.6</ele>
        <time>2022-03-23T14:46:51Z</time>
      </trkpt>
      <trkpt lat="49.85392" lon="2.10479">
        <ele>126.6</ele>
        <time>2022-03-23T14:46:52Z</time>
      </trkpt>
      <trkpt lat="49.85393" lon="2.10476">
        <ele>126.6</ele>
        <time>2022-03-23T14:46:53Z</time>
      </trkpt>
      <trkpt lat="49.85393" lon="2.10475">
        <ele>126.6</ele>
        <time>2022-03-23T14:46:54Z</time>
      </trkpt>
      <trkpt lat="49.85394" lon="2.10474">
        <ele>126.6</ele>
        <time>2022-03-23T14:46:55Z</time>
      </trkpt>
      <trkpt lat="49.85394" lon="2.10472">
        <ele>126.6</ele>
        <time>2022-03-23T14:46:56Z</time>
      </trkpt>
      <trkpt lat="49.85395" lon="2.1047">
        <ele>126.6</ele>
        <time>2022-03-23T14:46:57Z</time>
      </trkpt>
      <trkpt lat="49.85395" lon="2.10468">
        <ele>126.6</ele>
        <time>2022-03-23T14:46:58Z</time>
      </trkpt>
      <trkpt lat="49.85396" lon="2.10466">
        <ele>126.6</ele>
        <time>2022-03-23T14:47:00Z</time>
      </trkpt>
      <trkpt lat="49.85396" lon="2.10464">
        <ele>126.6</ele>
        <time>2022-03-23T14:47:01Z</time>
      </trkpt>
      <trkpt lat="49.85397" lon="2.10463">
        <ele>126.6</ele>
        <time>2022-03-23T14:47:02Z</time>
      </trkpt>
      <trkpt lat="49.85397" lon="2.10461">
        <ele>126.6</ele>
        <time>2022-03-23T14:47:03Z</time>
      </trkpt>
      <trkpt lat="49.85397" lon="2.1046">
        <ele>126.6</ele>
        <time>2022-03-23T14:47:04Z</time>
      </trkpt>
      <trkpt lat="49.85398" lon="2.10458">
        <ele>126.6</ele>
        <time>2022-03-23T14:47:05Z</time>
      </trkpt>
      <trkpt lat="49.85398" lon="2.10456">
        <ele>126.7</ele>
        <time>2022-03-23T14:47:06Z</time>
      </trkpt>
      <trkpt lat="49.85399" lon="2.10454">
        <ele>126.7</ele>
        <time>2022-03-23T14:47:07Z</time>
      </trkpt>
      <trkpt lat="49.85399" lon="2.10452">
        <ele>126.7</ele>
        <time>2022-03-23T14:47:08Z</time>
      </trkpt>
      <trkpt lat="49.854" lon="2.10449">
        <ele>126.7</ele>
        <time>2022-03-23T14:47:09Z</time>
      </trkpt>
      <trkpt lat="49.85401" lon="2.10448">
        <ele>126.7</ele>
        <time>2022-03-23T14:47:10Z</time>
      </trkpt>
      <trkpt lat="49.85401" lon="2.10447">
        <ele>126.7</ele>
        <time>2022-03-23T14:47:11Z</time>
      </trkpt>
      <trkpt lat="49.85402" lon="2.10445">
        <ele>126.7</ele>
        <time>2022-03-23T14:47:12Z</time>
      </trkpt>
      <trkpt lat="49.85403" lon="2.10443">
        <ele>126.7</ele>
        <time>2022-03-23T14:47:13Z</time>
      </trkpt>
      <trkpt lat="49.85404" lon="2.10441">
        <ele>126.7</ele>
        <time>2022-03-23T14:47:15Z</time>
      </trkpt>
      <trkpt lat="49.85405" lon="2.1044">
        <ele>126.7</ele>
        <time>2022-03-23T14:47:16Z</time>
      </trkpt>
      <trkpt lat="49.85405" lon="2.10438">
        <ele>126.7</ele>
        <time>2022-03-23T14:47:17Z</time>
      </trkpt>
      <trkpt lat="49.85406" lon="2.10436">
        <ele>126.7</ele>
        <time>2022-03-23T14:47:18Z</time>
      </trkpt>
      <trkpt lat="49.85407" lon="2.10434">
        <ele>126.8</ele>
        <time>2022-03-23T14:47:19Z</time>
      </trkpt>
      <trkpt lat="49.85407" lon="2.10432">
        <ele>126.8</ele>
        <time>2022-03-23T14:47:20Z</time>
      </trkpt>
      <trkpt lat="49.85408" lon="2.1043">
        <ele>126.8</ele>
        <time>2022-03-23T14:47:22Z</time>
      </trkpt>
      <trkpt lat="49.85409" lon="2.10428">
        <ele>126.8</ele>
        <time>2022-03-23T14:47:23Z</time>
      </trkpt>
      <trkpt lat="49.8541" lon="2.10425">
        <ele>126.8</ele>
        <time>2022-03-23T14:47:24Z</time>
      </trkpt>
      <trkpt lat="49.8541" lon="2.10424">
        <ele>126.8</ele>
        <time>2022-03-23T14:47:25Z</time>
      </trkpt>
      <trkpt lat="49.8541" lon="2.10423">
        <ele>126.8</ele>
        <time>2022-03-23T14:47:26Z</time>
      </trkpt>
      <trkpt lat="49.85411" lon="2.10419">
        <ele>126.8</ele>
        <time>2022-03-23T14:47:27Z</time>
      </trkpt>
      <trkpt lat="49.85411" lon="2.10418">
        <ele>126.9</ele>
        <time>2022-03-23T14:47:28Z</time>
      </trkpt>
      <trkpt lat="49.85411" lon="2.10417">
        <ele>126.9</ele>
        <time>2022-03-23T14:47:29Z</time>
      </trkpt>
      <trkpt lat="49.85412" lon="2.10413">
        <ele>126.9</ele>
        <time>2022-03-23T14:47:30Z</time>
      </trkpt>
      <trkpt lat="49.85412" lon="2.10412">
        <ele>126.9</ele>
        <time>2022-03-23T14:47:31Z</time>
      </trkpt>
      <trkpt lat="49.85413" lon="2.10411">
        <ele>126.9</ele>
        <time>2022-03-23T14:47:32Z</time>
      </trkpt>
      <trkpt lat="49.85413" lon="2.10408">
        <ele>126.9</ele>
        <time>2022-03-23T14:47:33Z</time>
      </trkpt>
      <trkpt lat="49.85413" lon="2.10406">
        <ele>127</ele>
        <time>2022-03-23T14:47:35Z</time>
      </trkpt>
      <trkpt lat="49.85414" lon="2.10405">
        <ele>127</ele>
        <time>2022-03-23T14:47:36Z</time>
      </trkpt>
      <trkpt lat="49.85414" lon="2.10403">
        <ele>127</ele>
        <time>2022-03-23T14:47:37Z</time>
      </trkpt>
      <trkpt lat="49.85415" lon="2.10401">
        <ele>127</ele>
        <time>2022-03-23T14:47:38Z</time>
      </trkpt>
      <trkpt lat="49.85415" lon="2.10399">
        <ele>127</ele>
        <time>2022-03-23T14:47:39Z</time>
      </trkpt>
      <trkpt lat="49.85415" lon="2.10397">
        <ele>127</ele>
        <time>2022-03-23T14:47:40Z</time>
      </trkpt>
      <trkpt lat="49.85416" lon="2.10396">
        <ele>127</ele>
        <time>2022-03-23T14:47:41Z</time>
      </trkpt>
      <trkpt lat="49.85416" lon="2.10393">
        <ele>127.1</ele>
        <time>2022-03-23T14:47:43Z</time>
      </trkpt>
      <trkpt lat="49.85417" lon="2.10392">
        <ele>127.1</ele>
        <time>2022-03-23T14:47:44Z</time>
      </trkpt>
      <trkpt lat="49.85417" lon="2.1039">
        <ele>127.1</ele>
        <time>2022-03-23T14:47:45Z</time>
      </trkpt>
      <trkpt lat="49.85418" lon="2.10388">
        <ele>127.1</ele>
        <time>2022-03-23T14:47:46Z</time>
      </trkpt>
      <trkpt lat="49.85418" lon="2.10386">
        <ele>127.1</ele>
        <time>2022-03-23T14:47:47Z</time>
      </trkpt>
      <trkpt lat="49.85419" lon="2.10382">
        <ele>127.2</ele>
        <time>2022-03-23T14:47:48Z</time>
      </trkpt>
      <trkpt lat="49.85419" lon="2.10381">
        <ele>127.2</ele>
        <time>2022-03-23T14:47:49Z</time>
      </trkpt>
      <trkpt lat="49.8542" lon="2.1038">
        <ele>127.2</ele>
        <time>2022-03-23T14:47:50Z</time>
      </trkpt>
      <trkpt lat="49.8542" lon="2.10378">
        <ele>127.2</ele>
        <time>2022-03-23T14:47:51Z</time>
      </trkpt>
      <trkpt lat="49.85421" lon="2.10376">
        <ele>127.2</ele>
        <time>2022-03-23T14:47:53Z</time>
      </trkpt>
      <trkpt lat="49.85422" lon="2.10375">
        <ele>127.2</ele>
        <time>2022-03-23T14:47:54Z</time>
      </trkpt>
      <trkpt lat="49.85423" lon="2.10373">
        <ele>127.2</ele>
        <time>2022-03-23T14:47:55Z</time>
      </trkpt>
      <trkpt lat="49.85423" lon="2.10372">
        <ele>127.2</ele>
        <time>2022-03-23T14:47:56Z</time>
      </trkpt>
      <trkpt lat="49.85425" lon="2.1037">
        <ele>127.3</ele>
        <time>2022-03-23T14:47:57Z</time>
      </trkpt>
      <trkpt lat="49.85426" lon="2.10369">
        <ele>127.3</ele>
        <time>2022-03-23T14:47:58Z</time>
      </trkpt>
      <trkpt lat="49.85427" lon="2.10367">
        <ele>127.3</ele>
        <time>2022-03-23T14:48:00Z</time>
      </trkpt>
      <trkpt lat="49.85428" lon="2.10366">
        <ele>127.3</ele>
        <time>2022-03-23T14:48:01Z</time>
      </trkpt>
      <trkpt lat="49.85428" lon="2.10363">
        <ele>127.3</ele>
        <time>2022-03-23T14:48:02Z</time>
      </trkpt>
      <trkpt lat="49.85429" lon="2.10362">
        <ele>127.3</ele>
        <time>2022-03-23T14:48:03Z</time>
      </trkpt>
      <trkpt lat="49.85429" lon="2.1036">
        <ele>127.4</ele>
        <time>2022-03-23T14:48:04Z</time>
      </trkpt>
      <trkpt lat="49.8543" lon="2.10357">
        <ele>127.4</ele>
        <time>2022-03-23T14:48:05Z</time>
      </trkpt>
      <trkpt lat="49.8543" lon="2.10356">
        <ele>127.4</ele>
        <time>2022-03-23T14:48:06Z</time>
      </trkpt>
      <trkpt lat="49.85431" lon="2.10355">
        <ele>127.4</ele>
        <time>2022-03-23T14:48:07Z</time>
      </trkpt>
      <trkpt lat="49.85431" lon="2.10353">
        <ele>127.4</ele>
        <time>2022-03-23T14:48:08Z</time>
      </trkpt>
      <trkpt lat="49.85431" lon="2.10352">
        <ele>127.4</ele>
        <time>2022-03-23T14:48:09Z</time>
      </trkpt>
      <trkpt lat="49.85432" lon="2.1035">
        <ele>127.4</ele>
        <time>2022-03-23T14:48:10Z</time>
      </trkpt>
      <trkpt lat="49.85433" lon="2.10347">
        <ele>127.4</ele>
        <time>2022-03-23T14:48:11Z</time>
      </trkpt>
      <trkpt lat="49.85433" lon="2.10346">
        <ele>127.4</ele>
        <time>2022-03-23T14:48:12Z</time>
      </trkpt>
      <trkpt lat="49.85433" lon="2.10345">
        <ele>127.4</ele>
        <time>2022-03-23T14:48:13Z</time>
      </trkpt>
      <trkpt lat="49.85434" lon="2.10343">
        <ele>127.4</ele>
        <time>2022-03-23T14:48:15Z</time>
      </trkpt>
      <trkpt lat="49.85435" lon="2.10341">
        <ele>127.5</ele>
        <time>2022-03-23T14:48:16Z</time>
      </trkpt>
      <trkpt lat="49.85436" lon="2.10338">
        <ele>127.5</ele>
        <time>2022-03-23T14:48:17Z</time>
      </trkpt>
      <trkpt lat="49.85436" lon="2.10337">
        <ele>127.5</ele>
        <time>2022-03-23T14:48:18Z</time>
      </trkpt>
      <trkpt lat="49.85437" lon="2.10336">
        <ele>127.5</ele>
        <time>2022-03-23T14:48:19Z</time>
      </trkpt>
      <trkpt lat="49.85438" lon="2.10334">
        <ele>127.5</ele>
        <time>2022-03-23T14:48:20Z</time>
      </trkpt>
      <trkpt lat="49.85439" lon="2.10332">
        <ele>127.5</ele>
        <time>2022-03-23T14:48:21Z</time>
      </trkpt>
      <trkpt lat="49.8544" lon="2.10329">
        <ele>127.5</ele>
        <time>2022-03-23T14:48:22Z</time>
      </trkpt>
      <trkpt lat="49.85441" lon="2.10328">
        <ele>127.5</ele>
        <time>2022-03-23T14:48:24Z</time>
      </trkpt>
      <trkpt lat="49.85442" lon="2.10327">
        <ele>127.5</ele>
        <time>2022-03-23T14:48:25Z</time>
      </trkpt>
      <trkpt lat="49.85443" lon="2.10325">
        <ele>127.6</ele>
        <time>2022-03-23T14:48:26Z</time>
      </trkpt>
      <trkpt lat="49.85444" lon="2.10324">
        <ele>127.6</ele>
        <time>2022-03-23T14:48:27Z</time>
      </trkpt>
      <trkpt lat="49.85445" lon="2.10322">
        <ele>127.6</ele>
        <time>2022-03-23T14:48:28Z</time>
      </trkpt>
      <trkpt lat="49.85446" lon="2.10321">
        <ele>127.6</ele>
        <time>2022-03-23T14:48:29Z</time>
      </trkpt>
      <trkpt lat="49.85447" lon="2.10319">
        <ele>127.6</ele>
        <time>2022-03-23T14:48:30Z</time>
      </trkpt>
      <trkpt lat="49.85448" lon="2.10317">
        <ele>127.6</ele>
        <time>2022-03-23T14:48:31Z</time>
      </trkpt>
      <trkpt lat="49.8545" lon="2.10315">
        <ele>127.6</ele>
        <time>2022-03-23T14:48:32Z</time>
      </trkpt>
      <trkpt lat="49.85451" lon="2.10314">
        <ele>127.6</ele>
        <time>2022-03-23T14:48:33Z</time>
      </trkpt>
      <trkpt lat="49.85451" lon="2.10313">
        <ele>127.6</ele>
        <time>2022-03-23T14:48:34Z</time>
      </trkpt>
      <trkpt lat="49.85452" lon="2.10312">
        <ele>127.6</ele>
        <time>2022-03-23T14:48:36Z</time>
      </trkpt>
      <trkpt lat="49.85453" lon="2.10311">
        <ele>127.7</ele>
        <time>2022-03-23T14:48:37Z</time>
      </trkpt>
      <trkpt lat="49.85453" lon="2.1031">
        <ele>127.7</ele>
        <time>2022-03-23T14:48:38Z</time>
      </trkpt>
      <trkpt lat="49.85454" lon="2.10308">
        <ele>127.7</ele>
        <time>2022-03-23T14:48:39Z</time>
      </trkpt>
      <trkpt lat="49.85454" lon="2.10307">
        <ele>127.7</ele>
        <time>2022-03-23T14:48:40Z</time>
      </trkpt>
      <trkpt lat="49.85455" lon="2.10306">
        <ele>127.7</ele>
        <time>2022-03-23T14:48:41Z</time>
      </trkpt>
      <trkpt lat="49.85456" lon="2.10304">
        <ele>127.7</ele>
        <time>2022-03-23T14:48:42Z</time>
      </trkpt>
      <trkpt lat="49.85457" lon="2.10302">
        <ele>127.7</ele>
        <time>2022-03-23T14:48:43Z</time>
      </trkpt>
      <trkpt lat="49.85458" lon="2.10301">
        <ele>127.7</ele>
        <time>2022-03-23T14:48:44Z</time>
      </trkpt>
      <trkpt lat="49.85459" lon="2.103">
        <ele>127.7</ele>
        <time>2022-03-23T14:48:45Z</time>
      </trkpt>
      <trkpt lat="49.85461" lon="2.10299">
        <ele>127.7</ele>
        <time>2022-03-23T14:48:46Z</time>
      </trkpt>
      <trkpt lat="49.85461" lon="2.10298">
        <ele>127.7</ele>
        <time>2022-03-23T14:48:47Z</time>
      </trkpt>
      <trkpt lat="49.85462" lon="2.10297">
        <ele>127.7</ele>
        <time>2022-03-23T14:48:48Z</time>
      </trkpt>
      <trkpt lat="49.85463" lon="2.10296">
        <ele>127.7</ele>
        <time>2022-03-23T14:48:49Z</time>
      </trkpt>
      <trkpt lat="49.85464" lon="2.10294">
        <ele>127.8</ele>
        <time>2022-03-23T14:48:50Z</time>
      </trkpt>
      <trkpt lat="49.85465" lon="2.10292">
        <ele>127.8</ele>
        <time>2022-03-23T14:48:52Z</time>
      </trkpt>
      <trkpt lat="49.85465" lon="2.10291">
        <ele>127.8</ele>
        <time>2022-03-23T14:48:53Z</time>
      </trkpt>
      <trkpt lat="49.85465" lon="2.10289">
        <ele>127.8</ele>
        <time>2022-03-23T14:48:54Z</time>
      </trkpt>
      <trkpt lat="49.85465" lon="2.10288">
        <ele>127.8</ele>
        <time>2022-03-23T14:48:55Z</time>
      </trkpt>
      <trkpt lat="49.85465" lon="2.10285">
        <ele>127.8</ele>
        <time>2022-03-23T14:48:56Z</time>
      </trkpt>
      <trkpt lat="49.85465" lon="2.10283">
        <ele>127.8</ele>
        <time>2022-03-23T14:48:57Z</time>
      </trkpt>
      <trkpt lat="49.85465" lon="2.1028">
        <ele>127.8</ele>
        <time>2022-03-23T14:48:58Z</time>
      </trkpt>
      <trkpt lat="49.85466" lon="2.10279">
        <ele>127.8</ele>
        <time>2022-03-23T14:48:59Z</time>
      </trkpt>
      <trkpt lat="49.85466" lon="2.10278">
        <ele>127.8</ele>
        <time>2022-03-23T14:49:00Z</time>
      </trkpt>
      <trkpt lat="49.85467" lon="2.10276">
        <ele>127.8</ele>
        <time>2022-03-23T14:49:02Z</time>
      </trkpt>
      <trkpt lat="49.85468" lon="2.10275">
        <ele>127.8</ele>
        <time>2022-03-23T14:49:03Z</time>
      </trkpt>
      <trkpt lat="49.85469" lon="2.10274">
        <ele>127.8</ele>
        <time>2022-03-23T14:49:04Z</time>
      </trkpt>
      <trkpt lat="49.85469" lon="2.10273">
        <ele>127.8</ele>
        <time>2022-03-23T14:49:05Z</time>
      </trkpt>
      <trkpt lat="49.8547" lon="2.10271">
        <ele>127.8</ele>
        <time>2022-03-23T14:49:06Z</time>
      </trkpt>
      <trkpt lat="49.85471" lon="2.1027">
        <ele>127.8</ele>
        <time>2022-03-23T14:49:07Z</time>
      </trkpt>
      <trkpt lat="49.85472" lon="2.10268">
        <ele>127.8</ele>
        <time>2022-03-23T14:49:08Z</time>
      </trkpt>
      <trkpt lat="49.85473" lon="2.10266">
        <ele>127.8</ele>
        <time>2022-03-23T14:49:09Z</time>
      </trkpt>
      <trkpt lat="49.85473" lon="2.10264">
        <ele>127.9</ele>
        <time>2022-03-23T14:49:10Z</time>
      </trkpt>
      <trkpt lat="49.85474" lon="2.10262">
        <ele>127.9</ele>
        <time>2022-03-23T14:49:11Z</time>
      </trkpt>
      <trkpt lat="49.85475" lon="2.1026">
        <ele>127.9</ele>
        <time>2022-03-23T14:49:12Z</time>
      </trkpt>
      <trkpt lat="49.85476" lon="2.10259">
        <ele>127.9</ele>
        <time>2022-03-23T14:49:13Z</time>
      </trkpt>
      <trkpt lat="49.85476" lon="2.10257">
        <ele>127.9</ele>
        <time>2022-03-23T14:49:14Z</time>
      </trkpt>
      <trkpt lat="49.85477" lon="2.10255">
        <ele>127.9</ele>
        <time>2022-03-23T14:49:16Z</time>
      </trkpt>
      <trkpt lat="49.85478" lon="2.10254">
        <ele>127.9</ele>
        <time>2022-03-23T14:49:17Z</time>
      </trkpt>
      <trkpt lat="49.85478" lon="2.10252">
        <ele>127.9</ele>
        <time>2022-03-23T14:49:18Z</time>
      </trkpt>
      <trkpt lat="49.85479" lon="2.10251">
        <ele>127.9</ele>
        <time>2022-03-23T14:49:19Z</time>
      </trkpt>
      <trkpt lat="49.8548" lon="2.10248">
        <ele>127.9</ele>
        <time>2022-03-23T14:49:20Z</time>
      </trkpt>
      <trkpt lat="49.85481" lon="2.10247">
        <ele>127.9</ele>
        <time>2022-03-23T14:49:21Z</time>
      </trkpt>
      <trkpt lat="49.85481" lon="2.10246">
        <ele>127.9</ele>
        <time>2022-03-23T14:49:22Z</time>
      </trkpt>
      <trkpt lat="49.85482" lon="2.10245">
        <ele>127.9</ele>
        <time>2022-03-23T14:49:23Z</time>
      </trkpt>
      <trkpt lat="49.85483" lon="2.10243">
        <ele>127.9</ele>
        <time>2022-03-23T14:49:24Z</time>
      </trkpt>
      <trkpt lat="49.85485" lon="2.10241">
        <ele>127.9</ele>
        <time>2022-03-23T14:49:25Z</time>
      </trkpt>
      <trkpt lat="49.85485" lon="2.1024">
        <ele>127.9</ele>
        <time>2022-03-23T14:49:26Z</time>
      </trkpt>
      <trkpt lat="49.85486" lon="2.10239">
        <ele>127.9</ele>
        <time>2022-03-23T14:49:27Z</time>
      </trkpt>
      <trkpt lat="49.85487" lon="2.10238">
        <ele>128</ele>
        <time>2022-03-23T14:49:28Z</time>
      </trkpt>
      <trkpt lat="49.85488" lon="2.10236">
        <ele>128</ele>
        <time>2022-03-23T14:49:30Z</time>
      </trkpt>
      <trkpt lat="49.85489" lon="2.10235">
        <ele>128</ele>
        <time>2022-03-23T14:49:31Z</time>
      </trkpt>
      <trkpt lat="49.8549" lon="2.10233">
        <ele>128</ele>
        <time>2022-03-23T14:49:32Z</time>
      </trkpt>
      <trkpt lat="49.8549" lon="2.10232">
        <ele>128</ele>
        <time>2022-03-23T14:49:33Z</time>
      </trkpt>
      <trkpt lat="49.85491" lon="2.10231">
        <ele>128</ele>
        <time>2022-03-23T14:49:34Z</time>
      </trkpt>
      <trkpt lat="49.85492" lon="2.1023">
        <ele>128</ele>
        <time>2022-03-23T14:49:35Z</time>
      </trkpt>
      <trkpt lat="49.85493" lon="2.10228">
        <ele>128.1</ele>
        <time>2022-03-23T14:49:36Z</time>
      </trkpt>
      <trkpt lat="49.85494" lon="2.10226">
        <ele>128.1</ele>
        <time>2022-03-23T14:49:37Z</time>
      </trkpt>
      <trkpt lat="49.85494" lon="2.10225">
        <ele>128.1</ele>
        <time>2022-03-23T14:49:38Z</time>
      </trkpt>
      <trkpt lat="49.85495" lon="2.10222">
        <ele>128.1</ele>
        <time>2022-03-23T14:49:39Z</time>
      </trkpt>
      <trkpt lat="49.85495" lon="2.1022">
        <ele>128.1</ele>
        <time>2022-03-23T14:49:40Z</time>
      </trkpt>
      <trkpt lat="49.85495" lon="2.10218">
        <ele>128.1</ele>
        <time>2022-03-23T14:49:41Z</time>
      </trkpt>
      <trkpt lat="49.85495" lon="2.10217">
        <ele>128.1</ele>
        <time>2022-03-23T14:49:42Z</time>
      </trkpt>
      <trkpt lat="49.85496" lon="2.10215">
        <ele>128.2</ele>
        <time>2022-03-23T14:49:43Z</time>
      </trkpt>
      <trkpt lat="49.85496" lon="2.10213">
        <ele>128.2</ele>
        <time>2022-03-23T14:49:45Z</time>
      </trkpt>
      <trkpt lat="49.85497" lon="2.10212">
        <ele>128.2</ele>
        <time>2022-03-23T14:49:46Z</time>
      </trkpt>
      <trkpt lat="49.85497" lon="2.10211">
        <ele>128.2</ele>
        <time>2022-03-23T14:49:47Z</time>
      </trkpt>
      <trkpt lat="49.85498" lon="2.1021">
        <ele>128.2</ele>
        <time>2022-03-23T14:49:48Z</time>
      </trkpt>
      <trkpt lat="49.85499" lon="2.10209">
        <ele>128.2</ele>
        <time>2022-03-23T14:49:49Z</time>
      </trkpt>
      <trkpt lat="49.855" lon="2.10208">
        <ele>128.2</ele>
        <time>2022-03-23T14:49:50Z</time>
      </trkpt>
      <trkpt lat="49.85502" lon="2.10206">
        <ele>128.2</ele>
        <time>2022-03-23T14:49:51Z</time>
      </trkpt>
      <trkpt lat="49.85502" lon="2.10205">
        <ele>128.3</ele>
        <time>2022-03-23T14:49:52Z</time>
      </trkpt>
      <trkpt lat="49.85503" lon="2.10204">
        <ele>128.3</ele>
        <time>2022-03-23T14:49:53Z</time>
      </trkpt>
      <trkpt lat="49.85504" lon="2.10203">
        <ele>128.3</ele>
        <time>2022-03-23T14:49:54Z</time>
      </trkpt>
      <trkpt lat="49.85505" lon="2.10202">
        <ele>128.3</ele>
        <time>2022-03-23T14:49:55Z</time>
      </trkpt>
      <trkpt lat="49.85506" lon="2.10201">
        <ele>128.3</ele>
        <time>2022-03-23T14:49:57Z</time>
      </trkpt>
      <trkpt lat="49.85507" lon="2.102">
        <ele>128.3</ele>
        <time>2022-03-23T14:49:58Z</time>
      </trkpt>
      <trkpt lat="49.85508" lon="2.102">
        <ele>128.3</ele>
        <time>2022-03-23T14:49:59Z</time>
      </trkpt>
      <trkpt lat="49.85509" lon="2.102">
        <ele>128.3</ele>
        <time>2022-03-23T14:50:00Z</time>
      </trkpt>
      <trkpt lat="49.85511" lon="2.102">
        <ele>128.3</ele>
        <time>2022-03-23T14:50:01Z</time>
      </trkpt>
      <trkpt lat="49.85512" lon="2.102">
        <ele>128.3</ele>
        <time>2022-03-23T14:50:02Z</time>
      </trkpt>
      <trkpt lat="49.85513" lon="2.10201">
        <ele>128.3</ele>
        <time>2022-03-23T14:50:04Z</time>
      </trkpt>
      <trkpt lat="49.85514" lon="2.10202">
        <ele>128.3</ele>
        <time>2022-03-23T14:50:05Z</time>
      </trkpt>
      <trkpt lat="49.85515" lon="2.10203">
        <ele>128.3</ele>
        <time>2022-03-23T14:50:06Z</time>
      </trkpt>
      <trkpt lat="49.85516" lon="2.10204">
        <ele>128.3</ele>
        <time>2022-03-23T14:50:07Z</time>
      </trkpt>
      <trkpt lat="49.85517" lon="2.10204">
        <ele>128.2</ele>
        <time>2022-03-23T14:50:08Z</time>
      </trkpt>
      <trkpt lat="49.85518" lon="2.10204">
        <ele>128.2</ele>
        <time>2022-03-23T14:50:09Z</time>
      </trkpt>
      <trkpt lat="49.85519" lon="2.10204">
        <ele>128.2</ele>
        <time>2022-03-23T14:50:11Z</time>
      </trkpt>
      <trkpt lat="49.8552" lon="2.10204">
        <ele>128.2</ele>
        <time>2022-03-23T14:50:12Z</time>
      </trkpt>
      <trkpt lat="49.85521" lon="2.10205">
        <ele>128.2</ele>
        <time>2022-03-23T14:50:13Z</time>
      </trkpt>
      <trkpt lat="49.85522" lon="2.10205">
        <ele>128.2</ele>
        <time>2022-03-23T14:50:14Z</time>
      </trkpt>
      <trkpt lat="49.85523" lon="2.10205">
        <ele>128.2</ele>
        <time>2022-03-23T14:50:16Z</time>
      </trkpt>
      <trkpt lat="49.85524" lon="2.10205">
        <ele>128.2</ele>
        <time>2022-03-23T14:50:17Z</time>
      </trkpt>
      <trkpt lat="49.85525" lon="2.10206">
        <ele>128.2</ele>
        <time>2022-03-23T14:50:18Z</time>
      </trkpt>
      <trkpt lat="49.85525" lon="2.10206">
        <ele>128.2</ele>
        <time>2022-03-23T14:50:19Z</time>
      </trkpt>
      <trkpt lat="49.85526" lon="2.10207">
        <ele>128.2</ele>
        <time>2022-03-23T14:50:20Z</time>
      </trkpt>
      <trkpt lat="49.85528" lon="2.10208">
        <ele>128.1</ele>
        <time>2022-03-23T14:50:21Z</time>
      </trkpt>
      <trkpt lat="49.85528" lon="2.10209">
        <ele>128.1</ele>
        <time>2022-03-23T14:50:22Z</time>
      </trkpt>
      <trkpt lat="49.85529" lon="2.1021">
        <ele>128.1</ele>
        <time>2022-03-23T14:50:24Z</time>
      </trkpt>
      <trkpt lat="49.8553" lon="2.10211">
        <ele>128.1</ele>
        <time>2022-03-23T14:50:25Z</time>
      </trkpt>
      <trkpt lat="49.85531" lon="2.10211">
        <ele>128.1</ele>
        <time>2022-03-23T14:50:26Z</time>
      </trkpt>
      <trkpt lat="49.85532" lon="2.10212">
        <ele>128.1</ele>
        <time>2022-03-23T14:50:27Z</time>
      </trkpt>
      <trkpt lat="49.85533" lon="2.10213">
        <ele>128.1</ele>
        <time>2022-03-23T14:50:28Z</time>
      </trkpt>
      <trkpt lat="49.85534" lon="2.10212">
        <ele>128</ele>
        <time>2022-03-23T14:50:30Z</time>
      </trkpt>
      <trkpt lat="49.85534" lon="2.10212">
        <ele>128</ele>
        <time>2022-03-23T14:50:31Z</time>
      </trkpt>
      <trkpt lat="49.85535" lon="2.10212">
        <ele>128.1</ele>
        <time>2022-03-23T14:50:32Z</time>
      </trkpt>
      <trkpt lat="49.85535" lon="2.10212">
        <ele>128.1</ele>
        <time>2022-03-23T14:50:33Z</time>
      </trkpt>
      <trkpt lat="49.85536" lon="2.10212">
        <ele>128</ele>
        <time>2022-03-23T14:50:34Z</time>
      </trkpt>
      <trkpt lat="49.85536" lon="2.10212">
        <ele>128</ele>
        <time>2022-03-23T14:50:35Z</time>
      </trkpt>
      <trkpt lat="49.85536" lon="2.10212">
        <ele>128.1</ele>
        <time>2022-03-23T14:50:36Z</time>
      </trkpt>
      <trkpt lat="49.85536" lon="2.10212">
        <ele>128.1</ele>
        <time>2022-03-23T14:50:37Z</time>
      </trkpt>
      <trkpt lat="49.85536" lon="2.10212">
        <ele>128.1</ele>
        <time>2022-03-23T14:50:38Z</time>
      </trkpt>
      <trkpt lat="49.85536" lon="2.10212">
        <ele>128.1</ele>
        <time>2022-03-23T14:50:39Z</time>
      </trkpt>
      <trkpt lat="49.85536" lon="2.10212">
        <ele>128.1</ele>
        <time>2022-03-23T14:50:40Z</time>
      </trkpt>
      <trkpt lat="49.85535" lon="2.10212">
        <ele>128.1</ele>
        <time>2022-03-23T14:50:41Z</time>
      </trkpt>
      <trkpt lat="49.85535" lon="2.10212">
        <ele>128.1</ele>
        <time>2022-03-23T14:50:42Z</time>
      </trkpt>
      <trkpt lat="49.85535" lon="2.10212">
        <ele>128.1</ele>
        <time>2022-03-23T14:50:43Z</time>
      </trkpt>
      <trkpt lat="49.85535" lon="2.10211">
        <ele>128.1</ele>
        <time>2022-03-23T14:50:44Z</time>
      </trkpt>
      <trkpt lat="49.85535" lon="2.10211">
        <ele>128.1</ele>
        <time>2022-03-23T14:50:45Z</time>
      </trkpt>
      <trkpt lat="49.85535" lon="2.10211">
        <ele>128.1</ele>
        <time>2022-03-23T14:50:46Z</time>
      </trkpt>
      <trkpt lat="49.85535" lon="2.10211">
        <ele>128.1</ele>
        <time>2022-03-23T14:50:47Z</time>
      </trkpt>
      <trkpt lat="49.85535" lon="2.10211">
        <ele>128.1</ele>
        <time>2022-03-23T14:50:48Z</time>
      </trkpt>
      <trkpt lat="49.85535" lon="2.10211">
        <ele>128.1</ele>
        <time>2022-03-23T14:50:49Z</time>
      </trkpt>
      <trkpt lat="49.85535" lon="2.10211">
        <ele>128.1</ele>
        <time>2022-03-23T14:50:50Z</time>
      </trkpt>
      <trkpt lat="49.85535" lon="2.10211">
        <ele>128.1</ele>
        <time>2022-03-23T14:50:51Z</time>
      </trkpt>
      <trkpt lat="49.85535" lon="2.10211">
        <ele>128.1</ele>
        <time>2022-03-23T14:50:52Z</time>
      </trkpt>
      <trkpt lat="49.85535" lon="2.10211">
        <ele>128.1</ele>
        <time>2022-03-23T14:50:53Z</time>
      </trkpt>
      <trkpt lat="49.85535" lon="2.10211">
        <ele>128.1</ele>
        <time>2022-03-23T14:50:54Z</time>
      </trkpt>
      <trkpt lat="49.85535" lon="2.10211">
        <ele>128.1</ele>
        <time>2022-03-23T14:50:55Z</time>
      </trkpt>
      <trkpt lat="49.85535" lon="2.10211">
        <ele>128.1</ele>
        <time>2022-03-23T14:50:56Z</time>
      </trkpt>
      <trkpt lat="49.85535" lon="2.10211">
        <ele>128.1</ele>
        <time>2022-03-23T14:50:57Z</time>
      </trkpt>
      <trkpt lat="49.85535" lon="2.10211">
        <ele>128.1</ele>
        <time>2022-03-23T14:50:58Z</time>
      </trkpt>
      <trkpt lat="49.85535" lon="2.10211">
        <ele>128.1</ele>
        <time>2022-03-23T14:50:59Z</time>
      </trkpt>
      <trkpt lat="49.85535" lon="2.10211">
        <ele>128.1</ele>
        <time>2022-03-23T14:51:00Z</time>
      </trkpt>
      <trkpt lat="49.85535" lon="2.10211">
        <ele>128.1</ele>
        <time>2022-03-23T14:51:01Z</time>
      </trkpt>
      <trkpt lat="49.85535" lon="2.10211">
        <ele>128.1</ele>
        <time>2022-03-23T14:51:02Z</time>
      </trkpt>
      <trkpt lat="49.85535" lon="2.10211">
        <ele>128.1</ele>
        <time>2022-03-23T14:51:03Z</time>
      </trkpt>
      <trkpt lat="49.85535" lon="2.10211">
        <ele>128.1</ele>
        <time>2022-03-23T14:51:04Z</time>
      </trkpt>
      <trkpt lat="49.85535" lon="2.10211">
        <ele>128.1</ele>
        <time>2022-03-23T14:51:05Z</time>
      </trkpt>
      <trkpt lat="49.85535" lon="2.10211">
        <ele>128.1</ele>
        <time>2022-03-23T14:51:06Z</time>
      </trkpt>
      <trkpt lat="49.85535" lon="2.10211">
        <ele>128.1</ele>
        <time>2022-03-23T14:51:07Z</time>
      </trkpt>
      <trkpt lat="49.85535" lon="2.10211">
        <ele>128.1</ele>
        <time>2022-03-23T14:51:08Z</time>
      </trkpt>
      <trkpt lat="49.85535" lon="2.10211">
        <ele>128.1</ele>
        <time>2022-03-23T14:51:09Z</time>
      </trkpt>
      <trkpt lat="49.85535" lon="2.10211">
        <ele>128.1</ele>
        <time>2022-03-23T14:51:10Z</time>
      </trkpt>
      <trkpt lat="49.85535" lon="2.10211">
        <ele>128.1</ele>
        <time>2022-03-23T14:51:11Z</time>
      </trkpt>
      <trkpt lat="49.85535" lon="2.10211">
        <ele>128.1</ele>
        <time>2022-03-23T14:51:12Z</time>
      </trkpt>
      <trkpt lat="49.85535" lon="2.10211">
        <ele>128.1</ele>
        <time>2022-03-23T14:51:13Z</time>
      </trkpt>
      <trkpt lat="49.85535" lon="2.10211">
        <ele>128.1</ele>
        <time>2022-03-23T14:51:14Z</time>
      </trkpt>
      <trkpt lat="49.85535" lon="2.10211">
        <ele>128.1</ele>
        <time>2022-03-23T14:51:15Z</time>
      </trkpt>
      <trkpt lat="49.85535" lon="2.10211">
        <ele>128.1</ele>
        <time>2022-03-23T14:51:16Z</time>
      </trkpt>
      <trkpt lat="49.85535" lon="2.10211">
        <ele>128.1</ele>
        <time>2022-03-23T14:51:17Z</time>
      </trkpt>
      <trkpt lat="49.85535" lon="2.10211">
        <ele>128.1</ele>
        <time>2022-03-23T14:51:18Z</time>
      </trkpt>
      <trkpt lat="49.85535" lon="2.10211">
        <ele>128.1</ele>
        <time>2022-03-23T14:51:19Z</time>
      </trkpt>
      <trkpt lat="49.85535" lon="2.10211">
        <ele>128.1</ele>
        <time>2022-03-23T14:51:20Z</time>
      </trkpt>
      <trkpt lat="49.85535" lon="2.10211">
        <ele>128.1</ele>
        <time>2022-03-23T14:51:21Z</time>
      </trkpt>
      <trkpt lat="49.85535" lon="2.10211">
        <ele>128.1</ele>
        <time>2022-03-23T14:51:22Z</time>
      </trkpt>
      <trkpt lat="49.85535" lon="2.10211">
        <ele>128.1</ele>
        <time>2022-03-23T14:51:23Z</time>
      </trkpt>
      <trkpt lat="49.85535" lon="2.10211">
        <ele>128.1</ele>
        <time>2022-03-23T14:51:24Z</time>
      </trkpt>
      <trkpt lat="49.85535" lon="2.10211">
        <ele>128.1</ele>
        <time>2022-03-23T14:51:25Z</time>
      </trkpt>
      <trkpt lat="49.85535" lon="2.10211">
        <ele>128.1</ele>
        <time>2022-03-23T14:51:26Z</time>
      </trkpt>
      <trkpt lat="49.85535" lon="2.10211">
        <ele>128.1</ele>
        <time>2022-03-23T14:51:27Z</time>
      </trkpt>
      <trkpt lat="49.85535" lon="2.10211">
        <ele>128.1</ele>
        <time>2022-03-23T14:51:28Z</time>
      </trkpt>
      <trkpt lat="49.85535" lon="2.10211">
        <ele>128.1</ele>
        <time>2022-03-23T14:51:29Z</time>
      </trkpt>
      <trkpt lat="49.85535" lon="2.10211">
        <ele>128.1</ele>
        <time>2022-03-23T14:51:30Z</time>
      </trkpt>
      <trkpt lat="49.85535" lon="2.10211">
        <ele>128.1</ele>
        <time>2022-03-23T14:51:31Z</time>
      </trkpt>
      <trkpt lat="49.85535" lon="2.10211">
        <ele>128.1</ele>
        <time>2022-03-23T14:51:32Z</time>
      </trkpt>
      <trkpt lat="49.85535" lon="2.10211">
        <ele>128.1</ele>
        <time>2022-03-23T14:51:33Z</time>
      </trkpt>
      <trkpt lat="49.85535" lon="2.10211">
        <ele>128.1</ele>
        <time>2022-03-23T14:51:34Z</time>
      </trkpt>
      <trkpt lat="49.85535" lon="2.10211">
        <ele>128.1</ele>
        <time>2022-03-23T14:51:35Z</time>
      </trkpt>
      <trkpt lat="49.85535" lon="2.10211">
        <ele>128.1</ele>
        <time>2022-03-23T14:51:36Z</time>
      </trkpt>
      <trkpt lat="49.85535" lon="2.10211">
        <ele>128.1</ele>
        <time>2022-03-23T14:51:37Z</time>
      </trkpt>
      <trkpt lat="49.85535" lon="2.10211">
        <ele>128.1</ele>
        <time>2022-03-23T14:51:38Z</time>
      </trkpt>
      <trkpt lat="49.85535" lon="2.10211">
        <ele>128.1</ele>
        <time>2022-03-23T14:51:39Z</time>
      </trkpt>
      <trkpt lat="49.85535" lon="2.10211">
        <ele>128.1</ele>
        <time>2022-03-23T14:51:40Z</time>
      </trkpt>
      <trkpt lat="49.85535" lon="2.10211">
        <ele>128.1</ele>
        <time>2022-03-23T14:51:41Z</time>
      </trkpt>
      <trkpt lat="49.85535" lon="2.10211">
        <ele>128.1</ele>
        <time>2022-03-23T14:51:42Z</time>
      </trkpt>
      <trkpt lat="49.85535" lon="2.10211">
        <ele>128.1</ele>
        <time>2022-03-23T14:51:43Z</time>
      </trkpt>
      <trkpt lat="49.85535" lon="2.10211">
        <ele>128.1</ele>
        <time>2022-03-23T14:51:44Z</time>
      </trkpt>
      <trkpt lat="49.85535" lon="2.10211">
        <ele>128.1</ele>
        <time>2022-03-23T14:51:45Z</time>
      </trkpt>
      <trkpt lat="49.85535" lon="2.10211">
        <ele>128.1</ele>
        <time>2022-03-23T14:51:46Z</time>
      </trkpt>
      <trkpt lat="49.85535" lon="2.10211">
        <ele>128.1</ele>
        <time>2022-03-23T14:51:47Z</time>
      </trkpt>
      <trkpt lat="49.85535" lon="2.10211">
        <ele>128.1</ele>
        <time>2022-03-23T14:51:48Z</time>
      </trkpt>
      <trkpt lat="49.85535" lon="2.10211">
        <ele>128.1</ele>
        <time>2022-03-23T14:51:49Z</time>
      </trkpt>
      <trkpt lat="49.85535" lon="2.10211">
        <ele>128.1</ele>
        <time>2022-03-23T14:51:50Z</time>
      </trkpt>
      <trkpt lat="49.85535" lon="2.10211">
        <ele>128.1</ele>
        <time>2022-03-23T14:51:51Z</time>
      </trkpt>
      <trkpt lat="49.85535" lon="2.10211">
        <ele>128.1</ele>
        <time>2022-03-23T14:51:52Z</time>
      </trkpt>
      <trkpt lat="49.85535" lon="2.10211">
        <ele>128.1</ele>
        <time>2022-03-23T14:51:53Z</time>
      </trkpt>
      <trkpt lat="49.85535" lon="2.10211">
        <ele>128.1</ele>
        <time>2022-03-23T14:51:54Z</time>
      </trkpt>
      <trkpt lat="49.85535" lon="2.10211">
        <ele>128.1</ele>
        <time>2022-03-23T14:51:55Z</time>
      </trkpt>
      <trkpt lat="49.85535" lon="2.10211">
        <ele>128.1</ele>
        <time>2022-03-23T14:51:56Z</time>
      </trkpt>
      <trkpt lat="49.85535" lon="2.10211">
        <ele>128.1</ele>
        <time>2022-03-23T14:51:57Z</time>
      </trkpt>
      <trkpt lat="49.85535" lon="2.10211">
        <ele>128.1</ele>
        <time>2022-03-23T14:51:58Z</time>
      </trkpt>
      <trkpt lat="49.85535" lon="2.10211">
        <ele>128.1</ele>
        <time>2022-03-23T14:51:59Z</time>
      </trkpt>
      <trkpt lat="49.85535" lon="2.10211">
        <ele>128.1</ele>
        <time>2022-03-23T14:52:00Z</time>
      </trkpt>
      <trkpt lat="49.85535" lon="2.10211">
        <ele>128.1</ele>
        <time>2022-03-23T14:52:01Z</time>
      </trkpt>
      <trkpt lat="49.85535" lon="2.10211">
        <ele>128.1</ele>
        <time>2022-03-23T14:52:02Z</time>
      </trkpt>
      <trkpt lat="49.85535" lon="2.10211">
        <ele>128.1</ele>
        <time>2022-03-23T14:52:03Z</time>
      </trkpt>
      <trkpt lat="49.85535" lon="2.10211">
        <ele>128.1</ele>
        <time>2022-03-23T14:52:04Z</time>
      </trkpt>
      <trkpt lat="49.85535" lon="2.10211">
        <ele>128.1</ele>
        <time>2022-03-23T14:52:05Z</time>
      </trkpt>
      <trkpt lat="49.85535" lon="2.10211">
        <ele>128.1</ele>
        <time>2022-03-23T14:52:06Z</time>
      </trkpt>
      <trkpt lat="49.85535" lon="2.10211">
        <ele>128.1</ele>
        <time>2022-03-23T14:52:07Z</time>
      </trkpt>
      <trkpt lat="49.85535" lon="2.10211">
        <ele>128.1</ele>
        <time>2022-03-23T14:52:08Z</time>
      </trkpt>
      <trkpt lat="49.85535" lon="2.10211">
        <ele>128.1</ele>
        <time>2022-03-23T14:52:09Z</time>
      </trkpt>
      <trkpt lat="49.85535" lon="2.10211">
        <ele>128.1</ele>
        <time>2022-03-23T14:52:10Z</time>
      </trkpt>
      <trkpt lat="49.85535" lon="2.10211">
        <ele>128.1</ele>
        <time>2022-03-23T14:52:11Z</time>
      </trkpt>
      <trkpt lat="49.85535" lon="2.10211">
        <ele>128.1</ele>
        <time>2022-03-23T14:52:12Z</time>
      </trkpt>
      <trkpt lat="49.85535" lon="2.10211">
        <ele>128.1</ele>
        <time>2022-03-23T14:52:13Z</time>
      </trkpt>
      <trkpt lat="49.85535" lon="2.10211">
        <ele>128.1</ele>
        <time>2022-03-23T14:52:14Z</time>
      </trkpt>
      <trkpt lat="49.85535" lon="2.10211">
        <ele>128.1</ele>
        <time>2022-03-23T14:52:15Z</time>
      </trkpt>
      <trkpt lat="49.85535" lon="2.10211">
        <ele>128.1</ele>
        <time>2022-03-23T14:52:16Z</time>
      </trkpt>
      <trkpt lat="49.85535" lon="2.10211">
        <ele>128.1</ele>
        <time>2022-03-23T14:52:17Z</time>
      </trkpt>
      <trkpt lat="49.85535" lon="2.10211">
        <ele>128.1</ele>
        <time>2022-03-23T14:52:18Z</time>
      </trkpt>
      <trkpt lat="49.85535" lon="2.10211">
        <ele>128.1</ele>
        <time>2022-03-23T14:52:19Z</time>
      </trkpt>
      <trkpt lat="49.85535" lon="2.10211">
        <ele>128.1</ele>
        <time>2022-03-23T14:52:20Z</time>
      </trkpt>
      <trkpt lat="49.85535" lon="2.10211">
        <ele>128.1</ele>
        <time>2022-03-23T14:52:21Z</time>
      </trkpt>
      <trkpt lat="49.85535" lon="2.10211">
        <ele>128.1</ele>
        <time>2022-03-23T14:52:22Z</time>
      </trkpt>
      <trkpt lat="49.85535" lon="2.10211">
        <ele>128.1</ele>
        <time>2022-03-23T14:52:23Z</time>
      </trkpt>
      <trkpt lat="49.85535" lon="2.10211">
        <ele>128.1</ele>
        <time>2022-03-23T14:52:24Z</time>
      </trkpt>
      <trkpt lat="49.85535" lon="2.10211">
        <ele>128.1</ele>
        <time>2022-03-23T14:52:25Z</time>
      </trkpt>
      <trkpt lat="49.85535" lon="2.10211">
        <ele>128.1</ele>
        <time>2022-03-23T14:52:26Z</time>
      </trkpt>
      <trkpt lat="49.85535" lon="2.10211">
        <ele>128.1</ele>
        <time>2022-03-23T14:52:27Z</time>
      </trkpt>
      <trkpt lat="49.85535" lon="2.10211">
        <ele>128.1</ele>
        <time>2022-03-23T14:52:28Z</time>
      </trkpt>
      <trkpt lat="49.85535" lon="2.10211">
        <ele>128.1</ele>
        <time>2022-03-23T14:52:29Z</time>
      </trkpt>
      <trkpt lat="49.85535" lon="2.10211">
        <ele>128.1</ele>
        <time>2022-03-23T14:52:30Z</time>
      </trkpt>
      <trkpt lat="49.85535" lon="2.10211">
        <ele>128.1</ele>
        <time>2022-03-23T14:52:31Z</time>
      </trkpt>
      <trkpt lat="49.85535" lon="2.10211">
        <ele>128.1</ele>
        <time>2022-03-23T14:52:32Z</time>
      </trkpt>
      <trkpt lat="49.85535" lon="2.10211">
        <ele>128.1</ele>
        <time>2022-03-23T14:52:33Z</time>
      </trkpt>
      <trkpt lat="49.85535" lon="2.10211">
        <ele>128.1</ele>
        <time>2022-03-23T14:52:34Z</time>
      </trkpt>
      <trkpt lat="49.85535" lon="2.10211">
        <ele>128.1</ele>
        <time>2022-03-23T14:52:35Z</time>
      </trkpt>
      <trkpt lat="49.85535" lon="2.10211">
        <ele>128.1</ele>
        <time>2022-03-23T14:52:36Z</time>
      </trkpt>
      <trkpt lat="49.85535" lon="2.10211">
        <ele>128.1</ele>
        <time>2022-03-23T14:52:37Z</time>
      </trkpt>
      <trkpt lat="49.85535" lon="2.10211">
        <ele>128.1</ele>
        <time>2022-03-23T14:52:38Z</time>
      </trkpt>
      <trkpt lat="49.85535" lon="2.10211">
        <ele>128.1</ele>
        <time>2022-03-23T14:52:39Z</time>
      </trkpt>
      <trkpt lat="49.85535" lon="2.10211">
        <ele>128.1</ele>
        <time>2022-03-23T14:52:40Z</time>
      </trkpt>
      <trkpt lat="49.85535" lon="2.10211">
        <ele>128.1</ele>
        <time>2022-03-23T14:52:41Z</time>
      </trkpt>
      <trkpt lat="49.85535" lon="2.10211">
        <ele>128.1</ele>
        <time>2022-03-23T14:52:42Z</time>
      </trkpt>
      <trkpt lat="49.85535" lon="2.10211">
        <ele>128.1</ele>
        <time>2022-03-23T14:52:43Z</time>
      </trkpt>
      <trkpt lat="49.85535" lon="2.10211">
        <ele>128.1</ele>
        <time>2022-03-23T14:52:44Z</time>
      </trkpt>
      <trkpt lat="49.85535" lon="2.10211">
        <ele>128.1</ele>
        <time>2022-03-23T14:52:45Z</time>
      </trkpt>
      <trkpt lat="49.85535" lon="2.10211">
        <ele>128.1</ele>
        <time>2022-03-23T14:52:46Z</time>
      </trkpt>
      <trkpt lat="49.85535" lon="2.10211">
        <ele>128.1</ele>
        <time>2022-03-23T14:52:47Z</time>
      </trkpt>
      <trkpt lat="49.85535" lon="2.10211">
        <ele>128.1</ele>
        <time>2022-03-23T14:52:48Z</time>
      </trkpt>
      <trkpt lat="49.85535" lon="2.10211">
        <ele>128.1</ele>
        <time>2022-03-23T14:52:49Z</time>
      </trkpt>
      <trkpt lat="49.85535" lon="2.10211">
        <ele>128.1</ele>
        <time>2022-03-23T14:52:50Z</time>
      </trkpt>
      <trkpt lat="49.85535" lon="2.10211">
        <ele>128.1</ele>
        <time>2022-03-23T14:52:51Z</time>
      </trkpt>
      <trkpt lat="49.85535" lon="2.10211">
        <ele>128.1</ele>
        <time>2022-03-23T14:52:52Z</time>
      </trkpt>
      <trkpt lat="49.85535" lon="2.10211">
        <ele>128.1</ele>
        <time>2022-03-23T14:52:53Z</time>
      </trkpt>
      <trkpt lat="49.85535" lon="2.10211">
        <ele>128.1</ele>
        <time>2022-03-23T14:52:54Z</time>
      </trkpt>
      <trkpt lat="49.85535" lon="2.10211">
        <ele>128.1</ele>
        <time>2022-03-23T14:52:55Z</time>
      </trkpt>
      <trkpt lat="49.85535" lon="2.10211">
        <ele>128.1</ele>
        <time>2022-03-23T14:52:56Z</time>
      </trkpt>
      <trkpt lat="49.85535" lon="2.10211">
        <ele>128.1</ele>
        <time>2022-03-23T14:52:57Z</time>
      </trkpt>
      <trkpt lat="49.85535" lon="2.10211">
        <ele>128.1</ele>
        <time>2022-03-23T14:52:58Z</time>
      </trkpt>
      <trkpt lat="49.85535" lon="2.10211">
        <ele>128.1</ele>
        <time>2022-03-23T14:52:59Z</time>
      </trkpt>
      <trkpt lat="49.85535" lon="2.10211">
        <ele>128.1</ele>
        <time>2022-03-23T14:53:00Z</time>
      </trkpt>
      <trkpt lat="49.85535" lon="2.10211">
        <ele>128.1</ele>
        <time>2022-03-23T14:53:01Z</time>
      </trkpt>
      <trkpt lat="49.85535" lon="2.10211">
        <ele>128.1</ele>
        <time>2022-03-23T14:53:02Z</time>
      </trkpt>
      <trkpt lat="49.85535" lon="2.10211">
        <ele>128.1</ele>
        <time>2022-03-23T14:53:03Z</time>
      </trkpt>
      <trkpt lat="49.85535" lon="2.10211">
        <ele>128.1</ele>
        <time>2022-03-23T14:53:04Z</time>
      </trkpt>
      <trkpt lat="49.85535" lon="2.10211">
        <ele>128.1</ele>
        <time>2022-03-23T14:53:05Z</time>
      </trkpt>
      <trkpt lat="49.85535" lon="2.10211">
        <ele>128.1</ele>
        <time>2022-03-23T14:53:06Z</time>
      </trkpt>
      <trkpt lat="49.85535" lon="2.10211">
        <ele>128.1</ele>
        <time>2022-03-23T14:53:07Z</time>
      </trkpt>
      <trkpt lat="49.85535" lon="2.10211">
        <ele>128.1</ele>
        <time>2022-03-23T14:53:08Z</time>
      </trkpt>
      <trkpt lat="49.85535" lon="2.10211">
        <ele>128.1</ele>
        <time>2022-03-23T14:53:09Z</time>
      </trkpt>
      <trkpt lat="49.85535" lon="2.10211">
        <ele>128.1</ele>
        <time>2022-03-23T14:53:10Z</time>
      </trkpt>
      <trkpt lat="49.85535" lon="2.10211">
        <ele>128.1</ele>
        <time>2022-03-23T14:53:11Z</time>
      </trkpt>
      <trkpt lat="49.85535" lon="2.10211">
        <ele>128.1</ele>
        <time>2022-03-23T14:53:12Z</time>
      </trkpt>
      <trkpt lat="49.85535" lon="2.10211">
        <ele>128.1</ele>
        <time>2022-03-23T14:53:13Z</time>
      </trkpt>
      <trkpt lat="49.85535" lon="2.10211">
        <ele>128.1</ele>
        <time>2022-03-23T14:53:14Z</time>
      </trkpt>
      <trkpt lat="49.85535" lon="2.10211">
        <ele>128.1</ele>
        <time>2022-03-23T14:53:15Z</time>
      </trkpt>
      <trkpt lat="49.85535" lon="2.10211">
        <ele>128.1</ele>
        <time>2022-03-23T14:53:16Z</time>
      </trkpt>
      <trkpt lat="49.85535" lon="2.10211">
        <ele>128.1</ele>
        <time>2022-03-23T14:53:17Z</time>
      </trkpt>
      <trkpt lat="49.85535" lon="2.10211">
        <ele>128.1</ele>
        <time>2022-03-23T14:53:18Z</time>
      </trkpt>
      <trkpt lat="49.85535" lon="2.10211">
        <ele>128.1</ele>
        <time>2022-03-23T14:53:19Z</time>
      </trkpt>
      <trkpt lat="49.85535" lon="2.10211">
        <ele>128.1</ele>
        <time>2022-03-23T14:53:20Z</time>
      </trkpt>
      <trkpt lat="49.85535" lon="2.10211">
        <ele>128.1</ele>
        <time>2022-03-23T14:53:21Z</time>
      </trkpt>
      <trkpt lat="49.85535" lon="2.10211">
        <ele>128.1</ele>
        <time>2022-03-23T14:53:22Z</time>
      </trkpt>
      <trkpt lat="49.85535" lon="2.10211">
        <ele>128.1</ele>
        <time>2022-03-23T14:53:23Z</time>
      </trkpt>
      <trkpt lat="49.85535" lon="2.10211">
        <ele>128.1</ele>
        <time>2022-03-23T14:53:24Z</time>
      </trkpt>
      <trkpt lat="49.85535" lon="2.10211">
        <ele>128.1</ele>
        <time>2022-03-23T14:53:25Z</time>
      </trkpt>
      <trkpt lat="49.85535" lon="2.10211">
        <ele>128.1</ele>
        <time>2022-03-23T14:53:26Z</time>
      </trkpt>
      <trkpt lat="49.85535" lon="2.10211">
        <ele>128.1</ele>
        <time>2022-03-23T14:53:27Z</time>
      </trkpt>
      <trkpt lat="49.85535" lon="2.10211">
        <ele>128.1</ele>
        <time>2022-03-23T14:53:28Z</time>
      </trkpt>
      <trkpt lat="49.85535" lon="2.10211">
        <ele>128.1</ele>
        <time>2022-03-23T14:53:29Z</time>
      </trkpt>
      <trkpt lat="49.85535" lon="2.10211">
        <ele>128.1</ele>
        <time>2022-03-23T14:53:30Z</time>
      </trkpt>
      <trkpt lat="49.85535" lon="2.10211">
        <ele>128.1</ele>
        <time>2022-03-23T14:53:31Z</time>
      </trkpt>
      <trkpt lat="49.85535" lon="2.10211">
        <ele>128.1</ele>
        <time>2022-03-23T14:53:32Z</time>
      </trkpt>
      <trkpt lat="49.85535" lon="2.10211">
        <ele>128.1</ele>
        <time>2022-03-23T14:53:33Z</time>
      </trkpt>
      <trkpt lat="49.85535" lon="2.10211">
        <ele>128.1</ele>
        <time>2022-03-23T14:53:34Z</time>
      </trkpt>
      <trkpt lat="49.85535" lon="2.10211">
        <ele>128.1</ele>
        <time>2022-03-23T14:53:35Z</time>
      </trkpt>
      <trkpt lat="49.85535" lon="2.10211">
        <ele>128.1</ele>
        <time>2022-03-23T14:53:36Z</time>
      </trkpt>
      <trkpt lat="49.85535" lon="2.10211">
        <ele>128.1</ele>
        <time>2022-03-23T14:53:37Z</time>
      </trkpt>
      <trkpt lat="49.85535" lon="2.10211">
        <ele>128.1</ele>
        <time>2022-03-23T14:53:38Z</time>
      </trkpt>
      <trkpt lat="49.85535" lon="2.10211">
        <ele>128.1</ele>
        <time>2022-03-23T14:53:39Z</time>
      </trkpt>
      <trkpt lat="49.85535" lon="2.10211">
        <ele>128.1</ele>
        <time>2022-03-23T14:53:40Z</time>
      </trkpt>
      <trkpt lat="49.85535" lon="2.10211">
        <ele>128.1</ele>
        <time>2022-03-23T14:53:41Z</time>
      </trkpt>
      <trkpt lat="49.85535" lon="2.10211">
        <ele>128.1</ele>
        <time>2022-03-23T14:53:42Z</time>
      </trkpt>
      <trkpt lat="49.85535" lon="2.10211">
        <ele>128.1</ele>
        <time>2022-03-23T14:53:43Z</time>
      </trkpt>
      <trkpt lat="49.85535" lon="2.10211">
        <ele>128.1</ele>
        <time>2022-03-23T14:53:44Z</time>
      </trkpt>
      <trkpt lat="49.85535" lon="2.10211">
        <ele>128.1</ele>
        <time>2022-03-23T14:53:45Z</time>
      </trkpt>
      <trkpt lat="49.85535" lon="2.10211">
        <ele>128.1</ele>
        <time>2022-03-23T14:53:46Z</time>
      </trkpt>
      <trkpt lat="49.85535" lon="2.10211">
        <ele>128.1</ele>
        <time>2022-03-23T14:53:47Z</time>
      </trkpt>
      <trkpt lat="49.85535" lon="2.10211">
        <ele>128.1</ele>
        <time>2022-03-23T14:53:48Z</time>
      </trkpt>
      <trkpt lat="49.85535" lon="2.10211">
        <ele>128.1</ele>
        <time>2022-03-23T14:53:49Z</time>
      </trkpt>
      <trkpt lat="49.85535" lon="2.10211">
        <ele>128.1</ele>
        <time>2022-03-23T14:53:50Z</time>
      </trkpt>
      <trkpt lat="49.85535" lon="2.10211">
        <ele>128.1</ele>
        <time>2022-03-23T14:53:51Z</time>
      </trkpt>
      <trkpt lat="49.85535" lon="2.10211">
        <ele>128.1</ele>
        <time>2022-03-23T14:53:52Z</time>
      </trkpt>
      <trkpt lat="49.85535" lon="2.10211">
        <ele>128.1</ele>
        <time>2022-03-23T14:53:53Z</time>
      </trkpt>
      <trkpt lat="49.85535" lon="2.10211">
        <ele>128.1</ele>
        <time>2022-03-23T14:53:54Z</time>
      </trkpt>
      <trkpt lat="49.85535" lon="2.10211">
        <ele>128.1</ele>
        <time>2022-03-23T14:53:55Z</time>
      </trkpt>
      <trkpt lat="49.85535" lon="2.10211">
        <ele>128.1</ele>
        <time>2022-03-23T14:53:56Z</time>
      </trkpt>
      <trkpt lat="49.85535" lon="2.10211">
        <ele>128.1</ele>
        <time>2022-03-23T14:53:57Z</time>
      </trkpt>
      <trkpt lat="49.85535" lon="2.10211">
        <ele>128.1</ele>
        <time>2022-03-23T14:53:58Z</time>
      </trkpt>
      <trkpt lat="49.85535" lon="2.10211">
        <ele>128.1</ele>
        <time>2022-03-23T14:53:59Z</time>
      </trkpt>
      <trkpt lat="49.85535" lon="2.10211">
        <ele>128.1</ele>
        <time>2022-03-23T14:54:00Z</time>
      </trkpt>
      <trkpt lat="49.85535" lon="2.10211">
        <ele>128.1</ele>
        <time>2022-03-23T14:54:01Z</time>
      </trkpt>
      <trkpt lat="49.85535" lon="2.10211">
        <ele>128.1</ele>
        <time>2022-03-23T14:54:02Z</time>
      </trkpt>
      <trkpt lat="49.85535" lon="2.10211">
        <ele>128.1</ele>
        <time>2022-03-23T14:54:03Z</time>
      </trkpt>
      <trkpt lat="49.85535" lon="2.10211">
        <ele>128.1</ele>
        <time>2022-03-23T14:54:04Z</time>
      </trkpt>
      <trkpt lat="49.85535" lon="2.10211">
        <ele>128.1</ele>
        <time>2022-03-23T14:54:05Z</time>
      </trkpt>
      <trkpt lat="49.85534" lon="2.10211">
        <ele>128.1</ele>
        <time>2022-03-23T14:54:06Z</time>
      </trkpt>
      <trkpt lat="49.85534" lon="2.10213">
        <ele>128</ele>
        <time>2022-03-23T14:54:07Z</time>
      </trkpt>
      <trkpt lat="49.85534" lon="2.10213">
        <ele>128</ele>
        <time>2022-03-23T14:54:08Z</time>
      </trkpt>
      <trkpt lat="49.85534" lon="2.10214">
        <ele>128</ele>
        <time>2022-03-23T14:54:09Z</time>
      </trkpt>
      <trkpt lat="49.85534" lon="2.10214">
        <ele>128</ele>
        <time>2022-03-23T14:54:10Z</time>
      </trkpt>
      <trkpt lat="49.85534" lon="2.10214">
        <ele>128</ele>
        <time>2022-03-23T14:54:11Z</time>
      </trkpt>
      <trkpt lat="49.85534" lon="2.10214">
        <ele>128</ele>
        <time>2022-03-23T14:54:12Z</time>
      </trkpt>
      <trkpt lat="49.85534" lon="2.10214">
        <ele>128</ele>
        <time>2022-03-23T14:54:13Z</time>
      </trkpt>
      <trkpt lat="49.85533" lon="2.10213">
        <ele>128</ele>
        <time>2022-03-23T14:54:14Z</time>
      </trkpt>
      <trkpt lat="49.85534" lon="2.10212">
        <ele>128.1</ele>
        <time>2022-03-23T14:54:16Z</time>
      </trkpt>
      <trkpt lat="49.85534" lon="2.10212">
        <ele>128.1</ele>
        <time>2022-03-23T14:54:17Z</time>
      </trkpt>
      <trkpt lat="49.85535" lon="2.10211">
        <ele>128.1</ele>
        <time>2022-03-23T14:54:18Z</time>
      </trkpt>
      <trkpt lat="49.85536" lon="2.10211">
        <ele>128.1</ele>
        <time>2022-03-23T14:54:19Z</time>
      </trkpt>
      <trkpt lat="49.85537" lon="2.10211">
        <ele>128.1</ele>
        <time>2022-03-23T14:54:20Z</time>
      </trkpt>
      <trkpt lat="49.85538" lon="2.10212">
        <ele>128.1</ele>
        <time>2022-03-23T14:54:21Z</time>
      </trkpt>
      <trkpt lat="49.85538" lon="2.10212">
        <ele>128</ele>
        <time>2022-03-23T14:54:22Z</time>
      </trkpt>
      <trkpt lat="49.85539" lon="2.10213">
        <ele>128</ele>
        <time>2022-03-23T14:54:23Z</time>
      </trkpt>
      <trkpt lat="49.85539" lon="2.10213">
        <ele>128</ele>
        <time>2022-03-23T14:54:24Z</time>
      </trkpt>
      <trkpt lat="49.8554" lon="2.10213">
        <ele>128</ele>
        <time>2022-03-23T14:54:25Z</time>
      </trkpt>
      <trkpt lat="49.85541" lon="2.10214">
        <ele>128</ele>
        <time>2022-03-23T14:54:26Z</time>
      </trkpt>
      <trkpt lat="49.85541" lon="2.10214">
        <ele>128</ele>
        <time>2022-03-23T14:54:27Z</time>
      </trkpt>
      <trkpt lat="49.85542" lon="2.10215">
        <ele>128</ele>
        <time>2022-03-23T14:54:29Z</time>
      </trkpt>
      <trkpt lat="49.85542" lon="2.10215">
        <ele>128</ele>
        <time>2022-03-23T14:54:30Z</time>
      </trkpt>
      <trkpt lat="49.85543" lon="2.10215">
        <ele>128</ele>
        <time>2022-03-23T14:54:31Z</time>
      </trkpt>
      <trkpt lat="49.85543" lon="2.10215">
        <ele>128</ele>
        <time>2022-03-23T14:54:33Z</time>
      </trkpt>
      <trkpt lat="49.85544" lon="2.10215">
        <ele>128</ele>
        <time>2022-03-23T14:54:34Z</time>
      </trkpt>
      <trkpt lat="49.85544" lon="2.10215">
        <ele>128</ele>
        <time>2022-03-23T14:54:35Z</time>
      </trkpt>
      <trkpt lat="49.85544" lon="2.10215">
        <ele>128</ele>
        <time>2022-03-23T14:54:36Z</time>
      </trkpt>
      <trkpt lat="49.85545" lon="2.10215">
        <ele>128</ele>
        <time>2022-03-23T14:54:37Z</time>
      </trkpt>
      <trkpt lat="49.85545" lon="2.10215">
        <ele>128</ele>
        <time>2022-03-23T14:54:38Z</time>
      </trkpt>
      <trkpt lat="49.85545" lon="2.10215">
        <ele>128</ele>
        <time>2022-03-23T14:54:39Z</time>
      </trkpt>
      <trkpt lat="49.85546" lon="2.10215">
        <ele>128</ele>
        <time>2022-03-23T14:54:40Z</time>
      </trkpt>
      <trkpt lat="49.85546" lon="2.10216">
        <ele>128</ele>
        <time>2022-03-23T14:54:41Z</time>
      </trkpt>
      <trkpt lat="49.85546" lon="2.10216">
        <ele>128</ele>
        <time>2022-03-23T14:54:42Z</time>
      </trkpt>
      <trkpt lat="49.85547" lon="2.10217">
        <ele>128</ele>
        <time>2022-03-23T14:54:43Z</time>
      </trkpt>
      <trkpt lat="49.85548" lon="2.10217">
        <ele>127.9</ele>
        <time>2022-03-23T14:54:45Z</time>
      </trkpt>
      <trkpt lat="49.85548" lon="2.10218">
        <ele>127.9</ele>
        <time>2022-03-23T14:54:46Z</time>
      </trkpt>
      <trkpt lat="49.85549" lon="2.10219">
        <ele>127.9</ele>
        <time>2022-03-23T14:54:47Z</time>
      </trkpt>
      <trkpt lat="49.8555" lon="2.1022">
        <ele>127.9</ele>
        <time>2022-03-23T14:54:49Z</time>
      </trkpt>
      <trkpt lat="49.85551" lon="2.10221">
        <ele>127.9</ele>
        <time>2022-03-23T14:54:50Z</time>
      </trkpt>
      <trkpt lat="49.85552" lon="2.10221">
        <ele>127.9</ele>
        <time>2022-03-23T14:54:51Z</time>
      </trkpt>
      <trkpt lat="49.85553" lon="2.10221">
        <ele>127.9</ele>
        <time>2022-03-23T14:54:52Z</time>
      </trkpt>
      <trkpt lat="49.85553" lon="2.1022">
        <ele>127.9</ele>
        <time>2022-03-23T14:54:53Z</time>
      </trkpt>
      <trkpt lat="49.85553" lon="2.1022">
        <ele>127.9</ele>
        <time>2022-03-23T14:54:54Z</time>
      </trkpt>
      <trkpt lat="49.85553" lon="2.10219">
        <ele>127.9</ele>
        <time>2022-03-23T14:54:55Z</time>
      </trkpt>
      <trkpt lat="49.85553" lon="2.10218">
        <ele>127.9</ele>
        <time>2022-03-23T14:54:56Z</time>
      </trkpt>
      <trkpt lat="49.85553" lon="2.10218">
        <ele>127.9</ele>
        <time>2022-03-23T14:54:57Z</time>
      </trkpt>
      <trkpt lat="49.85553" lon="2.10218">
        <ele>127.9</ele>
        <time>2022-03-23T14:54:58Z</time>
      </trkpt>
      <trkpt lat="49.85553" lon="2.10218">
        <ele>127.9</ele>
        <time>2022-03-23T14:54:59Z</time>
      </trkpt>
      <trkpt lat="49.85553" lon="2.10219">
        <ele>127.9</ele>
        <time>2022-03-23T14:55:00Z</time>
      </trkpt>
      <trkpt lat="49.85554" lon="2.1022">
        <ele>127.9</ele>
        <time>2022-03-23T14:55:01Z</time>
      </trkpt>
      <trkpt lat="49.85554" lon="2.10221">
        <ele>127.9</ele>
        <time>2022-03-23T14:55:02Z</time>
      </trkpt>
      <trkpt lat="49.85555" lon="2.10221">
        <ele>127.9</ele>
        <time>2022-03-23T14:55:04Z</time>
      </trkpt>
      <trkpt lat="49.85556" lon="2.10222">
        <ele>127.9</ele>
        <time>2022-03-23T14:55:05Z</time>
      </trkpt>
      <trkpt lat="49.85556" lon="2.10224">
        <ele>127.9</ele>
        <time>2022-03-23T14:55:06Z</time>
      </trkpt>
      <trkpt lat="49.85557" lon="2.10225">
        <ele>127.9</ele>
        <time>2022-03-23T14:55:08Z</time>
      </trkpt>
      <trkpt lat="49.85557" lon="2.10227">
        <ele>127.9</ele>
        <time>2022-03-23T14:55:09Z</time>
      </trkpt>
      <trkpt lat="49.85558" lon="2.10228">
        <ele>127.9</ele>
        <time>2022-03-23T14:55:10Z</time>
      </trkpt>
      <trkpt lat="49.85559" lon="2.1023">
        <ele>127.8</ele>
        <time>2022-03-23T14:55:12Z</time>
      </trkpt>
      <trkpt lat="49.8556" lon="2.10231">
        <ele>127.8</ele>
        <time>2022-03-23T14:55:13Z</time>
      </trkpt>
      <trkpt lat="49.85561" lon="2.10232">
        <ele>127.8</ele>
        <time>2022-03-23T14:55:14Z</time>
      </trkpt>
      <trkpt lat="49.85561" lon="2.10233">
        <ele>127.8</ele>
        <time>2022-03-23T14:55:16Z</time>
      </trkpt>
      <trkpt lat="49.85562" lon="2.10234">
        <ele>127.8</ele>
        <time>2022-03-23T14:55:17Z</time>
      </trkpt>
      <trkpt lat="49.85562" lon="2.10235">
        <ele>127.8</ele>
        <time>2022-03-23T14:55:18Z</time>
      </trkpt>
      <trkpt lat="49.85563" lon="2.10235">
        <ele>127.8</ele>
        <time>2022-03-23T14:55:19Z</time>
      </trkpt>
      <trkpt lat="49.85564" lon="2.10236">
        <ele>127.8</ele>
        <time>2022-03-23T14:55:21Z</time>
      </trkpt>
      <trkpt lat="49.85565" lon="2.10236">
        <ele>127.8</ele>
        <time>2022-03-23T14:55:22Z</time>
      </trkpt>
      <trkpt lat="49.85566" lon="2.10236">
        <ele>127.8</ele>
        <time>2022-03-23T14:55:23Z</time>
      </trkpt>
      <trkpt lat="49.85567" lon="2.10236">
        <ele>127.8</ele>
        <time>2022-03-23T14:55:24Z</time>
      </trkpt>
      <trkpt lat="49.85568" lon="2.10237">
        <ele>127.8</ele>
        <time>2022-03-23T14:55:26Z</time>
      </trkpt>
      <trkpt lat="49.85569" lon="2.10237">
        <ele>127.8</ele>
        <time>2022-03-23T14:55:27Z</time>
      </trkpt>
      <trkpt lat="49.8557" lon="2.10237">
        <ele>127.8</ele>
        <time>2022-03-23T14:55:28Z</time>
      </trkpt>
      <trkpt lat="49.8557" lon="2.10237">
        <ele>127.8</ele>
        <time>2022-03-23T14:55:29Z</time>
      </trkpt>
      <trkpt lat="49.85571" lon="2.10237">
        <ele>127.8</ele>
        <time>2022-03-23T14:55:30Z</time>
      </trkpt>
      <trkpt lat="49.85571" lon="2.10237">
        <ele>127.8</ele>
        <time>2022-03-23T14:55:31Z</time>
      </trkpt>
      <trkpt lat="49.85572" lon="2.10237">
        <ele>127.8</ele>
        <time>2022-03-23T14:55:32Z</time>
      </trkpt>
      <trkpt lat="49.85572" lon="2.10237">
        <ele>127.8</ele>
        <time>2022-03-23T14:55:33Z</time>
      </trkpt>
      <trkpt lat="49.85572" lon="2.10237">
        <ele>127.8</ele>
        <time>2022-03-23T14:55:34Z</time>
      </trkpt>
      <trkpt lat="49.85572" lon="2.10237">
        <ele>127.8</ele>
        <time>2022-03-23T14:55:35Z</time>
      </trkpt>
      <trkpt lat="49.85572" lon="2.10237">
        <ele>127.8</ele>
        <time>2022-03-23T14:55:36Z</time>
      </trkpt>
      <trkpt lat="49.85572" lon="2.10238">
        <ele>127.8</ele>
        <time>2022-03-23T14:55:37Z</time>
      </trkpt>
      <trkpt lat="49.85572" lon="2.10238">
        <ele>127.8</ele>
        <time>2022-03-23T14:55:38Z</time>
      </trkpt>
      <trkpt lat="49.85572" lon="2.10238">
        <ele>127.8</ele>
        <time>2022-03-23T14:55:39Z</time>
      </trkpt>
      <trkpt lat="49.85573" lon="2.10239">
        <ele>127.8</ele>
        <time>2022-03-23T14:55:40Z</time>
      </trkpt>
      <trkpt lat="49.85573" lon="2.10239">
        <ele>127.8</ele>
        <time>2022-03-23T14:55:41Z</time>
      </trkpt>
      <trkpt lat="49.85574" lon="2.10238">
        <ele>127.8</ele>
        <time>2022-03-23T14:55:43Z</time>
      </trkpt>
      <trkpt lat="49.85575" lon="2.10238">
        <ele>127.8</ele>
        <time>2022-03-23T14:55:44Z</time>
      </trkpt>
      <trkpt lat="49.85575" lon="2.10237">
        <ele>127.8</ele>
        <time>2022-03-23T14:55:45Z</time>
      </trkpt>
      <trkpt lat="49.85575" lon="2.10237">
        <ele>127.8</ele>
        <time>2022-03-23T14:55:46Z</time>
      </trkpt>
      <trkpt lat="49.85575" lon="2.10237">
        <ele>127.8</ele>
        <time>2022-03-23T14:55:47Z</time>
      </trkpt>
      <trkpt lat="49.85575" lon="2.10237">
        <ele>127.8</ele>
        <time>2022-03-23T14:55:48Z</time>
      </trkpt>
      <trkpt lat="49.85575" lon="2.10237">
        <ele>127.8</ele>
        <time>2022-03-23T14:55:49Z</time>
      </trkpt>
      <trkpt lat="49.85575" lon="2.10237">
        <ele>127.8</ele>
        <time>2022-03-23T14:55:50Z</time>
      </trkpt>
      <trkpt lat="49.85575" lon="2.10237">
        <ele>127.8</ele>
        <time>2022-03-23T14:55:51Z</time>
      </trkpt>
      <trkpt lat="49.85575" lon="2.10237">
        <ele>127.8</ele>
        <time>2022-03-23T14:55:52Z</time>
      </trkpt>
      <trkpt lat="49.85575" lon="2.10237">
        <ele>127.8</ele>
        <time>2022-03-23T14:55:53Z</time>
      </trkpt>
      <trkpt lat="49.85575" lon="2.10237">
        <ele>127.8</ele>
        <time>2022-03-23T14:55:54Z</time>
      </trkpt>
      <trkpt lat="49.85575" lon="2.10237">
        <ele>127.8</ele>
        <time>2022-03-23T14:55:55Z</time>
      </trkpt>
      <trkpt lat="49.85575" lon="2.10237">
        <ele>127.8</ele>
        <time>2022-03-23T14:55:56Z</time>
      </trkpt>
      <trkpt lat="49.85575" lon="2.10237">
        <ele>127.8</ele>
        <time>2022-03-23T14:55:57Z</time>
      </trkpt>
      <trkpt lat="49.85575" lon="2.10237">
        <ele>127.8</ele>
        <time>2022-03-23T14:55:58Z</time>
      </trkpt>
      <trkpt lat="49.85575" lon="2.10237">
        <ele>127.8</ele>
        <time>2022-03-23T14:55:59Z</time>
      </trkpt>
      <trkpt lat="49.85575" lon="2.10237">
        <ele>127.8</ele>
        <time>2022-03-23T14:56:00Z</time>
      </trkpt>
      <trkpt lat="49.85576" lon="2.10237">
        <ele>127.8</ele>
        <time>2022-03-23T14:56:01Z</time>
      </trkpt>
      <trkpt lat="49.85576" lon="2.10238">
        <ele>127.8</ele>
        <time>2022-03-23T14:56:02Z</time>
      </trkpt>
      <trkpt lat="49.85576" lon="2.10238">
        <ele>127.8</ele>
        <time>2022-03-23T14:56:03Z</time>
      </trkpt>
      <trkpt lat="49.85575" lon="2.10239">
        <ele>127.8</ele>
        <time>2022-03-23T14:56:04Z</time>
      </trkpt>
      <trkpt lat="49.85575" lon="2.10239">
        <ele>127.8</ele>
        <time>2022-03-23T14:56:05Z</time>
      </trkpt>
      <trkpt lat="49.85575" lon="2.10239">
        <ele>127.8</ele>
        <time>2022-03-23T14:56:06Z</time>
      </trkpt>
      <trkpt lat="49.85575" lon="2.10239">
        <ele>127.8</ele>
        <time>2022-03-23T14:56:07Z</time>
      </trkpt>
      <trkpt lat="49.85574" lon="2.10238">
        <ele>127.8</ele>
        <time>2022-03-23T14:56:08Z</time>
      </trkpt>
      <trkpt lat="49.85574" lon="2.10238">
        <ele>127.8</ele>
        <time>2022-03-23T14:56:09Z</time>
      </trkpt>
      <trkpt lat="49.85574" lon="2.10238">
        <ele>127.8</ele>
        <time>2022-03-23T14:56:10Z</time>
      </trkpt>
      <trkpt lat="49.85574" lon="2.10239">
        <ele>127.8</ele>
        <time>2022-03-23T14:56:11Z</time>
      </trkpt>
      <trkpt lat="49.85574" lon="2.10239">
        <ele>127.8</ele>
        <time>2022-03-23T14:56:12Z</time>
      </trkpt>
      <trkpt lat="49.85574" lon="2.1024">
        <ele>127.8</ele>
        <time>2022-03-23T14:56:13Z</time>
      </trkpt>
      <trkpt lat="49.85574" lon="2.1024">
        <ele>127.8</ele>
        <time>2022-03-23T14:56:14Z</time>
      </trkpt>
      <trkpt lat="49.85574" lon="2.1024">
        <ele>127.8</ele>
        <time>2022-03-23T14:56:15Z</time>
      </trkpt>
      <trkpt lat="49.85574" lon="2.1024">
        <ele>127.8</ele>
        <time>2022-03-23T14:56:16Z</time>
      </trkpt>
      <trkpt lat="49.85574" lon="2.1024">
        <ele>127.8</ele>
        <time>2022-03-23T14:56:17Z</time>
      </trkpt>
      <trkpt lat="49.85574" lon="2.10241">
        <ele>127.8</ele>
        <time>2022-03-23T14:56:18Z</time>
      </trkpt>
      <trkpt lat="49.85574" lon="2.10241">
        <ele>127.8</ele>
        <time>2022-03-23T14:56:19Z</time>
      </trkpt>
      <trkpt lat="49.85575" lon="2.10242">
        <ele>127.8</ele>
        <time>2022-03-23T14:56:20Z</time>
      </trkpt>
      <trkpt lat="49.85575" lon="2.10242">
        <ele>127.8</ele>
        <time>2022-03-23T14:56:21Z</time>
      </trkpt>
      <trkpt lat="49.85576" lon="2.10243">
        <ele>127.8</ele>
        <time>2022-03-23T14:56:23Z</time>
      </trkpt>
      <trkpt lat="49.85577" lon="2.10243">
        <ele>127.8</ele>
        <time>2022-03-23T14:56:24Z</time>
      </trkpt>
      <trkpt lat="49.85578" lon="2.10244">
        <ele>127.8</ele>
        <time>2022-03-23T14:56:25Z</time>
      </trkpt>
      <trkpt lat="49.85579" lon="2.10244">
        <ele>127.8</ele>
        <time>2022-03-23T14:56:26Z</time>
      </trkpt>
      <trkpt lat="49.8558" lon="2.10245">
        <ele>127.8</ele>
        <time>2022-03-23T14:56:27Z</time>
      </trkpt>
      <trkpt lat="49.85581" lon="2.10246">
        <ele>127.8</ele>
        <time>2022-03-23T14:56:29Z</time>
      </trkpt>
      <trkpt lat="49.85581" lon="2.10247">
        <ele>127.8</ele>
        <time>2022-03-23T14:56:30Z</time>
      </trkpt>
      <trkpt lat="49.85582" lon="2.10247">
        <ele>127.8</ele>
        <time>2022-03-23T14:56:31Z</time>
      </trkpt>
      <trkpt lat="49.85583" lon="2.10247">
        <ele>127.7</ele>
        <time>2022-03-23T14:56:32Z</time>
      </trkpt>
      <trkpt lat="49.85584" lon="2.10248">
        <ele>127.7</ele>
        <time>2022-03-23T14:56:33Z</time>
      </trkpt>
      <trkpt lat="49.85586" lon="2.10249">
        <ele>127.7</ele>
        <time>2022-03-23T14:56:34Z</time>
      </trkpt>
      <trkpt lat="49.85587" lon="2.10249">
        <ele>127.7</ele>
        <time>2022-03-23T14:56:35Z</time>
      </trkpt>
      <trkpt lat="49.85589" lon="2.1025">
        <ele>127.7</ele>
        <time>2022-03-23T14:56:36Z</time>
      </trkpt>
      <trkpt lat="49.8559" lon="2.10251">
        <ele>127.7</ele>
        <time>2022-03-23T14:56:38Z</time>
      </trkpt>
      <trkpt lat="49.85591" lon="2.10251">
        <ele>127.7</ele>
        <time>2022-03-23T14:56:39Z</time>
      </trkpt>
      <trkpt lat="49.85593" lon="2.10251">
        <ele>127.7</ele>
        <time>2022-03-23T14:56:40Z</time>
      </trkpt>
      <trkpt lat="49.85594" lon="2.10251">
        <ele>127.7</ele>
        <time>2022-03-23T14:56:41Z</time>
      </trkpt>
      <trkpt lat="49.85595" lon="2.10252">
        <ele>127.7</ele>
        <time>2022-03-23T14:56:42Z</time>
      </trkpt>
      <trkpt lat="49.85596" lon="2.10252">
        <ele>127.7</ele>
        <time>2022-03-23T14:56:43Z</time>
      </trkpt>
      <trkpt lat="49.85598" lon="2.10252">
        <ele>127.7</ele>
        <time>2022-03-23T14:56:44Z</time>
      </trkpt>
      <trkpt lat="49.85599" lon="2.10253">
        <ele>127.7</ele>
        <time>2022-03-23T14:56:45Z</time>
      </trkpt>
      <trkpt lat="49.856" lon="2.10253">
        <ele>127.7</ele>
        <time>2022-03-23T14:56:47Z</time>
      </trkpt>
      <trkpt lat="49.85601" lon="2.10252">
        <ele>127.7</ele>
        <time>2022-03-23T14:56:48Z</time>
      </trkpt>
      <trkpt lat="49.85601" lon="2.1025">
        <ele>127.7</ele>
        <time>2022-03-23T14:56:49Z</time>
      </trkpt>
      <trkpt lat="49.856" lon="2.10249">
        <ele>127.7</ele>
        <time>2022-03-23T14:56:51Z</time>
      </trkpt>
      <trkpt lat="49.856" lon="2.10248">
        <ele>127.7</ele>
        <time>2022-03-23T14:56:52Z</time>
      </trkpt>
      <trkpt lat="49.856" lon="2.10247">
        <ele>127.7</ele>
        <time>2022-03-23T14:56:53Z</time>
      </trkpt>
      <trkpt lat="49.85599" lon="2.10246">
        <ele>127.7</ele>
        <time>2022-03-23T14:56:54Z</time>
      </trkpt>
      <trkpt lat="49.856" lon="2.10246">
        <ele>127.7</ele>
        <time>2022-03-23T14:56:55Z</time>
      </trkpt>
      <trkpt lat="49.856" lon="2.10246">
        <ele>127.7</ele>
        <time>2022-03-23T14:56:56Z</time>
      </trkpt>
      <trkpt lat="49.856" lon="2.10248">
        <ele>127.7</ele>
        <time>2022-03-23T14:56:57Z</time>
      </trkpt>
      <trkpt lat="49.85601" lon="2.10248">
        <ele>127.7</ele>
        <time>2022-03-23T14:56:58Z</time>
      </trkpt>
      <trkpt lat="49.85601" lon="2.10249">
        <ele>127.7</ele>
        <time>2022-03-23T14:57:00Z</time>
      </trkpt>
      <trkpt lat="49.85602" lon="2.1025">
        <ele>127.7</ele>
        <time>2022-03-23T14:57:01Z</time>
      </trkpt>
      <trkpt lat="49.85603" lon="2.10252">
        <ele>127.7</ele>
        <time>2022-03-23T14:57:02Z</time>
      </trkpt>
      <trkpt lat="49.85604" lon="2.10254">
        <ele>127.7</ele>
        <time>2022-03-23T14:57:03Z</time>
      </trkpt>
      <trkpt lat="49.85606" lon="2.10256">
        <ele>127.7</ele>
        <time>2022-03-23T14:57:04Z</time>
      </trkpt>
      <trkpt lat="49.85606" lon="2.10258">
        <ele>127.7</ele>
        <time>2022-03-23T14:57:05Z</time>
      </trkpt>
      <trkpt lat="49.85607" lon="2.10259">
        <ele>127.7</ele>
        <time>2022-03-23T14:57:06Z</time>
      </trkpt>
      <trkpt lat="49.85608" lon="2.10261">
        <ele>127.7</ele>
        <time>2022-03-23T14:57:07Z</time>
      </trkpt>
      <trkpt lat="49.85609" lon="2.10263">
        <ele>127.7</ele>
        <time>2022-03-23T14:57:09Z</time>
      </trkpt>
      <trkpt lat="49.8561" lon="2.10264">
        <ele>127.7</ele>
        <time>2022-03-23T14:57:10Z</time>
      </trkpt>
      <trkpt lat="49.85611" lon="2.10266">
        <ele>127.7</ele>
        <time>2022-03-23T14:57:11Z</time>
      </trkpt>
      <trkpt lat="49.85612" lon="2.10268">
        <ele>127.7</ele>
        <time>2022-03-23T14:57:12Z</time>
      </trkpt>
      <trkpt lat="49.85613" lon="2.10269">
        <ele>127.7</ele>
        <time>2022-03-23T14:57:13Z</time>
      </trkpt>
      <trkpt lat="49.85615" lon="2.10271">
        <ele>127.7</ele>
        <time>2022-03-23T14:57:14Z</time>
      </trkpt>
      <trkpt lat="49.85616" lon="2.10272">
        <ele>127.7</ele>
        <time>2022-03-23T14:57:15Z</time>
      </trkpt>
      <trkpt lat="49.85617" lon="2.10273">
        <ele>127.7</ele>
        <time>2022-03-23T14:57:17Z</time>
      </trkpt>
      <trkpt lat="49.85618" lon="2.10274">
        <ele>127.7</ele>
        <time>2022-03-23T14:57:18Z</time>
      </trkpt>
      <trkpt lat="49.8562" lon="2.10275">
        <ele>127.7</ele>
        <time>2022-03-23T14:57:19Z</time>
      </trkpt>
      <trkpt lat="49.85621" lon="2.10275">
        <ele>127.7</ele>
        <time>2022-03-23T14:57:20Z</time>
      </trkpt>
      <trkpt lat="49.85623" lon="2.10276">
        <ele>127.7</ele>
        <time>2022-03-23T14:57:21Z</time>
      </trkpt>
      <trkpt lat="49.85624" lon="2.10277">
        <ele>127.7</ele>
        <time>2022-03-23T14:57:22Z</time>
      </trkpt>
      <trkpt lat="49.85625" lon="2.10277">
        <ele>127.6</ele>
        <time>2022-03-23T14:57:23Z</time>
      </trkpt>
      <trkpt lat="49.85627" lon="2.10277">
        <ele>127.6</ele>
        <time>2022-03-23T14:57:25Z</time>
      </trkpt>
      <trkpt lat="49.85628" lon="2.10277">
        <ele>127.6</ele>
        <time>2022-03-23T14:57:26Z</time>
      </trkpt>
      <trkpt lat="49.85629" lon="2.10278">
        <ele>127.6</ele>
        <time>2022-03-23T14:57:27Z</time>
      </trkpt>
      <trkpt lat="49.85629" lon="2.10277">
        <ele>127.6</ele>
        <time>2022-03-23T14:57:28Z</time>
      </trkpt>
      <trkpt lat="49.8563" lon="2.10277">
        <ele>127.6</ele>
        <time>2022-03-23T14:57:29Z</time>
      </trkpt>
      <trkpt lat="49.8563" lon="2.10277">
        <ele>127.6</ele>
        <time>2022-03-23T14:57:30Z</time>
      </trkpt>
      <trkpt lat="49.8563" lon="2.10277">
        <ele>127.6</ele>
        <time>2022-03-23T14:57:31Z</time>
      </trkpt>
      <trkpt lat="49.8563" lon="2.10277">
        <ele>127.6</ele>
        <time>2022-03-23T14:57:32Z</time>
      </trkpt>
      <trkpt lat="49.8563" lon="2.10276">
        <ele>127.6</ele>
        <time>2022-03-23T14:57:33Z</time>
      </trkpt>
      <trkpt lat="49.8563" lon="2.10276">
        <ele>127.6</ele>
        <time>2022-03-23T14:57:34Z</time>
      </trkpt>
      <trkpt lat="49.8563" lon="2.10276">
        <ele>127.6</ele>
        <time>2022-03-23T14:57:35Z</time>
      </trkpt>
      <trkpt lat="49.85629" lon="2.10276">
        <ele>127.6</ele>
        <time>2022-03-23T14:57:36Z</time>
      </trkpt>
      <trkpt lat="49.8563" lon="2.10276">
        <ele>127.6</ele>
        <time>2022-03-23T14:57:37Z</time>
      </trkpt>
      <trkpt lat="49.8563" lon="2.10276">
        <ele>127.6</ele>
        <time>2022-03-23T14:57:38Z</time>
      </trkpt>
      <trkpt lat="49.8563" lon="2.10277">
        <ele>127.6</ele>
        <time>2022-03-23T14:57:39Z</time>
      </trkpt>
      <trkpt lat="49.85631" lon="2.10277">
        <ele>127.6</ele>
        <time>2022-03-23T14:57:40Z</time>
      </trkpt>
      <trkpt lat="49.85631" lon="2.10278">
        <ele>127.6</ele>
        <time>2022-03-23T14:57:41Z</time>
      </trkpt>
      <trkpt lat="49.85632" lon="2.10279">
        <ele>127.6</ele>
        <time>2022-03-23T14:57:42Z</time>
      </trkpt>
      <trkpt lat="49.85632" lon="2.1028">
        <ele>127.6</ele>
        <time>2022-03-23T14:57:44Z</time>
      </trkpt>
      <trkpt lat="49.85633" lon="2.1028">
        <ele>127.6</ele>
        <time>2022-03-23T14:57:45Z</time>
      </trkpt>
      <trkpt lat="49.85634" lon="2.10281">
        <ele>127.6</ele>
        <time>2022-03-23T14:57:46Z</time>
      </trkpt>
      <trkpt lat="49.85635" lon="2.10282">
        <ele>127.6</ele>
        <time>2022-03-23T14:57:47Z</time>
      </trkpt>
      <trkpt lat="49.85636" lon="2.10283">
        <ele>127.6</ele>
        <time>2022-03-23T14:57:49Z</time>
      </trkpt>
      <trkpt lat="49.85637" lon="2.10284">
        <ele>127.6</ele>
        <time>2022-03-23T14:57:50Z</time>
      </trkpt>
      <trkpt lat="49.85637" lon="2.10285">
        <ele>127.6</ele>
        <time>2022-03-23T14:57:51Z</time>
      </trkpt>
      <trkpt lat="49.85638" lon="2.10286">
        <ele>127.6</ele>
        <time>2022-03-23T14:57:52Z</time>
      </trkpt>
      <trkpt lat="49.85639" lon="2.10287">
        <ele>127.6</ele>
        <time>2022-03-23T14:57:53Z</time>
      </trkpt>
      <trkpt lat="49.8564" lon="2.10288">
        <ele>127.6</ele>
        <time>2022-03-23T14:57:54Z</time>
      </trkpt>
      <trkpt lat="49.85641" lon="2.10289">
        <ele>127.6</ele>
        <time>2022-03-23T14:57:55Z</time>
      </trkpt>
      <trkpt lat="49.85642" lon="2.10289">
        <ele>127.6</ele>
        <time>2022-03-23T14:57:57Z</time>
      </trkpt>
      <trkpt lat="49.85643" lon="2.1029">
        <ele>127.5</ele>
        <time>2022-03-23T14:57:58Z</time>
      </trkpt>
      <trkpt lat="49.85644" lon="2.1029">
        <ele>127.5</ele>
        <time>2022-03-23T14:57:59Z</time>
      </trkpt>
      <trkpt lat="49.85645" lon="2.1029">
        <ele>127.5</ele>
        <time>2022-03-23T14:58:00Z</time>
      </trkpt>
      <trkpt lat="49.85646" lon="2.10291">
        <ele>127.5</ele>
        <time>2022-03-23T14:58:01Z</time>
      </trkpt>
      <trkpt lat="49.85647" lon="2.10292">
        <ele>127.5</ele>
        <time>2022-03-23T14:58:03Z</time>
      </trkpt>
      <trkpt lat="49.85648" lon="2.10293">
        <ele>127.5</ele>
        <time>2022-03-23T14:58:04Z</time>
      </trkpt>
      <trkpt lat="49.85649" lon="2.10293">
        <ele>127.5</ele>
        <time>2022-03-23T14:58:05Z</time>
      </trkpt>
      <trkpt lat="49.8565" lon="2.10294">
        <ele>127.5</ele>
        <time>2022-03-23T14:58:06Z</time>
      </trkpt>
      <trkpt lat="49.85651" lon="2.10294">
        <ele>127.5</ele>
        <time>2022-03-23T14:58:07Z</time>
      </trkpt>
      <trkpt lat="49.85652" lon="2.10295">
        <ele>127.5</ele>
        <time>2022-03-23T14:58:08Z</time>
      </trkpt>
      <trkpt lat="49.85653" lon="2.10295">
        <ele>127.5</ele>
        <time>2022-03-23T14:58:09Z</time>
      </trkpt>
      <trkpt lat="49.85654" lon="2.10296">
        <ele>127.5</ele>
        <time>2022-03-23T14:58:10Z</time>
      </trkpt>
      <trkpt lat="49.85655" lon="2.10296">
        <ele>127.5</ele>
        <time>2022-03-23T14:58:11Z</time>
      </trkpt>
      <trkpt lat="49.85656" lon="2.10297">
        <ele>127.5</ele>
        <time>2022-03-23T14:58:13Z</time>
      </trkpt>
      <trkpt lat="49.85657" lon="2.10297">
        <ele>127.5</ele>
        <time>2022-03-23T14:58:14Z</time>
      </trkpt>
      <trkpt lat="49.85658" lon="2.10298">
        <ele>127.5</ele>
        <time>2022-03-23T14:58:15Z</time>
      </trkpt>
      <trkpt lat="49.85659" lon="2.10299">
        <ele>127.5</ele>
        <time>2022-03-23T14:58:16Z</time>
      </trkpt>
      <trkpt lat="49.8566" lon="2.10299">
        <ele>127.5</ele>
        <time>2022-03-23T14:58:17Z</time>
      </trkpt>
      <trkpt lat="49.85661" lon="2.103">
        <ele>127.5</ele>
        <time>2022-03-23T14:58:19Z</time>
      </trkpt>
      <trkpt lat="49.85662" lon="2.10301">
        <ele>127.5</ele>
        <time>2022-03-23T14:58:20Z</time>
      </trkpt>
      <trkpt lat="49.85663" lon="2.10302">
        <ele>127.5</ele>
        <time>2022-03-23T14:58:21Z</time>
      </trkpt>
      <trkpt lat="49.85664" lon="2.10303">
        <ele>127.4</ele>
        <time>2022-03-23T14:58:22Z</time>
      </trkpt>
      <trkpt lat="49.85665" lon="2.10304">
        <ele>127.4</ele>
        <time>2022-03-23T14:58:23Z</time>
      </trkpt>
      <trkpt lat="49.85666" lon="2.10305">
        <ele>127.4</ele>
        <time>2022-03-23T14:58:24Z</time>
      </trkpt>
      <trkpt lat="49.85666" lon="2.10306">
        <ele>127.4</ele>
        <time>2022-03-23T14:58:26Z</time>
      </trkpt>
      <trkpt lat="49.85667" lon="2.10306">
        <ele>127.4</ele>
        <time>2022-03-23T14:58:27Z</time>
      </trkpt>
      <trkpt lat="49.85668" lon="2.10306">
        <ele>127.4</ele>
        <time>2022-03-23T14:58:29Z</time>
      </trkpt>
      <trkpt lat="49.85669" lon="2.10305">
        <ele>127.4</ele>
        <time>2022-03-23T14:58:30Z</time>
      </trkpt>
      <trkpt lat="49.85669" lon="2.10305">
        <ele>127.5</ele>
        <time>2022-03-23T14:58:31Z</time>
      </trkpt>
      <trkpt lat="49.8567" lon="2.10305">
        <ele>127.5</ele>
        <time>2022-03-23T14:58:32Z</time>
      </trkpt>
      <trkpt lat="49.85671" lon="2.10305">
        <ele>127.5</ele>
        <time>2022-03-23T14:58:34Z</time>
      </trkpt>
      <trkpt lat="49.85672" lon="2.10305">
        <ele>127.5</ele>
        <time>2022-03-23T14:58:35Z</time>
      </trkpt>
      <trkpt lat="49.85672" lon="2.10306">
        <ele>127.5</ele>
        <time>2022-03-23T14:58:36Z</time>
      </trkpt>
      <trkpt lat="49.85674" lon="2.10308">
        <ele>127.4</ele>
        <time>2022-03-23T14:58:37Z</time>
      </trkpt>
      <trkpt lat="49.85675" lon="2.10308">
        <ele>127.4</ele>
        <time>2022-03-23T14:58:38Z</time>
      </trkpt>
      <trkpt lat="49.85676" lon="2.10309">
        <ele>127.4</ele>
        <time>2022-03-23T14:58:39Z</time>
      </trkpt>
      <trkpt lat="49.85677" lon="2.10311">
        <ele>127.4</ele>
        <time>2022-03-23T14:58:41Z</time>
      </trkpt>
      <trkpt lat="49.85678" lon="2.10312">
        <ele>127.4</ele>
        <time>2022-03-23T14:58:42Z</time>
      </trkpt>
      <trkpt lat="49.85679" lon="2.10312">
        <ele>127.4</ele>
        <time>2022-03-23T14:58:43Z</time>
      </trkpt>
      <trkpt lat="49.8568" lon="2.10313">
        <ele>127.4</ele>
        <time>2022-03-23T14:58:44Z</time>
      </trkpt>
      <trkpt lat="49.85681" lon="2.10314">
        <ele>127.4</ele>
        <time>2022-03-23T14:58:45Z</time>
      </trkpt>
      <trkpt lat="49.85682" lon="2.10315">
        <ele>127.4</ele>
        <time>2022-03-23T14:58:46Z</time>
      </trkpt>
      <trkpt lat="49.85684" lon="2.10316">
        <ele>127.3</ele>
        <time>2022-03-23T14:58:48Z</time>
      </trkpt>
      <trkpt lat="49.85685" lon="2.10317">
        <ele>127.3</ele>
        <time>2022-03-23T14:58:49Z</time>
      </trkpt>
      <trkpt lat="49.85685" lon="2.10318">
        <ele>127.3</ele>
        <time>2022-03-23T14:58:50Z</time>
      </trkpt>
      <trkpt lat="49.85687" lon="2.10319">
        <ele>127.3</ele>
        <time>2022-03-23T14:58:51Z</time>
      </trkpt>
      <trkpt lat="49.85688" lon="2.1032">
        <ele>127.3</ele>
        <time>2022-03-23T14:58:52Z</time>
      </trkpt>
      <trkpt lat="49.85689" lon="2.1032">
        <ele>127.3</ele>
        <time>2022-03-23T14:58:53Z</time>
      </trkpt>
      <trkpt lat="49.8569" lon="2.10322">
        <ele>127.3</ele>
        <time>2022-03-23T14:58:54Z</time>
      </trkpt>
      <trkpt lat="49.85691" lon="2.10322">
        <ele>127.3</ele>
        <time>2022-03-23T14:58:56Z</time>
      </trkpt>
      <trkpt lat="49.85692" lon="2.10323">
        <ele>127.3</ele>
        <time>2022-03-23T14:58:57Z</time>
      </trkpt>
      <trkpt lat="49.85694" lon="2.10324">
        <ele>127.2</ele>
        <time>2022-03-23T14:58:58Z</time>
      </trkpt>
      <trkpt lat="49.85695" lon="2.10325">
        <ele>127.2</ele>
        <time>2022-03-23T14:58:59Z</time>
      </trkpt>
      <trkpt lat="49.85695" lon="2.10325">
        <ele>127.2</ele>
        <time>2022-03-23T14:59:00Z</time>
      </trkpt>
      <trkpt lat="49.85697" lon="2.10326">
        <ele>127.3</ele>
        <time>2022-03-23T14:59:01Z</time>
      </trkpt>
      <trkpt lat="49.85698" lon="2.10327">
        <ele>127.3</ele>
        <time>2022-03-23T14:59:02Z</time>
      </trkpt>
      <trkpt lat="49.857" lon="2.10328">
        <ele>127.2</ele>
        <time>2022-03-23T14:59:03Z</time>
      </trkpt>
      <trkpt lat="49.85701" lon="2.10329">
        <ele>127.2</ele>
        <time>2022-03-23T14:59:05Z</time>
      </trkpt>
      <trkpt lat="49.85702" lon="2.10329">
        <ele>127.2</ele>
        <time>2022-03-23T14:59:06Z</time>
      </trkpt>
      <trkpt lat="49.85704" lon="2.1033">
        <ele>127.2</ele>
        <time>2022-03-23T14:59:07Z</time>
      </trkpt>
      <trkpt lat="49.85705" lon="2.1033">
        <ele>127.2</ele>
        <time>2022-03-23T14:59:08Z</time>
      </trkpt>
      <trkpt lat="49.85706" lon="2.10331">
        <ele>127.3</ele>
        <time>2022-03-23T14:59:09Z</time>
      </trkpt>
      <trkpt lat="49.85708" lon="2.10331">
        <ele>127.3</ele>
        <time>2022-03-23T14:59:10Z</time>
      </trkpt>
      <trkpt lat="49.85708" lon="2.10331">
        <ele>127.3</ele>
        <time>2022-03-23T14:59:11Z</time>
      </trkpt>
      <trkpt lat="49.85709" lon="2.10332">
        <ele>127.3</ele>
        <time>2022-03-23T14:59:12Z</time>
      </trkpt>
      <trkpt lat="49.85711" lon="2.10333">
        <ele>127.3</ele>
        <time>2022-03-23T14:59:13Z</time>
      </trkpt>
      <trkpt lat="49.85712" lon="2.10333">
        <ele>127.3</ele>
        <time>2022-03-23T14:59:15Z</time>
      </trkpt>
      <trkpt lat="49.85713" lon="2.10334">
        <ele>127.3</ele>
        <time>2022-03-23T14:59:16Z</time>
      </trkpt>
      <trkpt lat="49.85715" lon="2.10335">
        <ele>127.3</ele>
        <time>2022-03-23T14:59:17Z</time>
      </trkpt>
      <trkpt lat="49.85716" lon="2.10335">
        <ele>127.3</ele>
        <time>2022-03-23T14:59:18Z</time>
      </trkpt>
      <trkpt lat="49.85716" lon="2.10336">
        <ele>127.4</ele>
        <time>2022-03-23T14:59:19Z</time>
      </trkpt>
      <trkpt lat="49.85718" lon="2.10336">
        <ele>127.4</ele>
        <time>2022-03-23T14:59:20Z</time>
      </trkpt>
      <trkpt lat="49.85719" lon="2.10337">
        <ele>127.4</ele>
        <time>2022-03-23T14:59:21Z</time>
      </trkpt>
      <trkpt lat="49.8572" lon="2.10337">
        <ele>127.4</ele>
        <time>2022-03-23T14:59:22Z</time>
      </trkpt>
      <trkpt lat="49.85721" lon="2.10338">
        <ele>127.4</ele>
        <time>2022-03-23T14:59:24Z</time>
      </trkpt>
      <trkpt lat="49.85722" lon="2.10338">
        <ele>127.4</ele>
        <time>2022-03-23T14:59:25Z</time>
      </trkpt>
      <trkpt lat="49.85723" lon="2.10339">
        <ele>127.4</ele>
        <time>2022-03-23T14:59:26Z</time>
      </trkpt>
      <trkpt lat="49.85725" lon="2.1034">
        <ele>127.5</ele>
        <time>2022-03-23T14:59:27Z</time>
      </trkpt>
      <trkpt lat="49.85726" lon="2.1034">
        <ele>127.5</ele>
        <time>2022-03-23T14:59:28Z</time>
      </trkpt>
      <trkpt lat="49.85727" lon="2.10341">
        <ele>127.5</ele>
        <time>2022-03-23T14:59:29Z</time>
      </trkpt>
      <trkpt lat="49.85728" lon="2.10341">
        <ele>127.6</ele>
        <time>2022-03-23T14:59:30Z</time>
      </trkpt>
      <trkpt lat="49.85729" lon="2.10341">
        <ele>127.5</ele>
        <time>2022-03-23T14:59:31Z</time>
      </trkpt>
      <trkpt lat="49.8573" lon="2.10342">
        <ele>127.5</ele>
        <time>2022-03-23T14:59:32Z</time>
      </trkpt>
      <trkpt lat="49.85731" lon="2.10343">
        <ele>127.5</ele>
        <time>2022-03-23T14:59:33Z</time>
      </trkpt>
      <trkpt lat="49.85732" lon="2.10343">
        <ele>127.5</ele>
        <time>2022-03-23T14:59:34Z</time>
      </trkpt>
      <trkpt lat="49.85734" lon="2.10344">
        <ele>127.6</ele>
        <time>2022-03-23T14:59:35Z</time>
      </trkpt>
      <trkpt lat="49.85735" lon="2.10345">
        <ele>127.6</ele>
        <time>2022-03-23T14:59:36Z</time>
      </trkpt>
      <trkpt lat="49.85736" lon="2.10345">
        <ele>127.6</ele>
        <time>2022-03-23T14:59:38Z</time>
      </trkpt>
      <trkpt lat="49.85737" lon="2.10346">
        <ele>127.6</ele>
        <time>2022-03-23T14:59:39Z</time>
      </trkpt>
      <trkpt lat="49.85739" lon="2.10347">
        <ele>127.7</ele>
        <time>2022-03-23T14:59:40Z</time>
      </trkpt>
      <trkpt lat="49.85739" lon="2.10348">
        <ele>127.7</ele>
        <time>2022-03-23T14:59:41Z</time>
      </trkpt>
      <trkpt lat="49.85742" lon="2.10349">
        <ele>127.8</ele>
        <time>2022-03-23T14:59:43Z</time>
      </trkpt>
      <trkpt lat="49.85743" lon="2.1035">
        <ele>127.7</ele>
        <time>2022-03-23T14:59:44Z</time>
      </trkpt>
      <trkpt lat="49.85745" lon="2.10351">
        <ele>127.8</ele>
        <time>2022-03-23T14:59:45Z</time>
      </trkpt>
      <trkpt lat="49.85745" lon="2.10351">
        <ele>127.8</ele>
        <time>2022-03-23T14:59:46Z</time>
      </trkpt>
      <trkpt lat="49.85746" lon="2.10352">
        <ele>127.8</ele>
        <time>2022-03-23T14:59:47Z</time>
      </trkpt>
      <trkpt lat="49.85747" lon="2.10353">
        <ele>127.9</ele>
        <time>2022-03-23T14:59:49Z</time>
      </trkpt>
      <trkpt lat="49.85749" lon="2.10353">
        <ele>127.9</ele>
        <time>2022-03-23T14:59:50Z</time>
      </trkpt>
      <trkpt lat="49.85749" lon="2.10354">
        <ele>127.8</ele>
        <time>2022-03-23T14:59:51Z</time>
      </trkpt>
      <trkpt lat="49.85751" lon="2.10355">
        <ele>127.8</ele>
        <time>2022-03-23T14:59:52Z</time>
      </trkpt>
      <trkpt lat="49.85752" lon="2.10356">
        <ele>127.9</ele>
        <time>2022-03-23T14:59:53Z</time>
      </trkpt>
      <trkpt lat="49.85753" lon="2.10356">
        <ele>127.9</ele>
        <time>2022-03-23T14:59:54Z</time>
      </trkpt>
      <trkpt lat="49.85755" lon="2.10358">
        <ele>127.9</ele>
        <time>2022-03-23T14:59:55Z</time>
      </trkpt>
      <trkpt lat="49.85755" lon="2.10358">
        <ele>127.9</ele>
        <time>2022-03-23T14:59:56Z</time>
      </trkpt>
      <trkpt lat="49.85756" lon="2.10359">
        <ele>127.9</ele>
        <time>2022-03-23T14:59:57Z</time>
      </trkpt>
      <trkpt lat="49.85757" lon="2.1036">
        <ele>127.9</ele>
        <time>2022-03-23T14:59:59Z</time>
      </trkpt>
      <trkpt lat="49.85759" lon="2.10361">
        <ele>128</ele>
        <time>2022-03-23T15:00:00Z</time>
      </trkpt>
      <trkpt lat="49.85759" lon="2.10361">
        <ele>128</ele>
        <time>2022-03-23T15:00:01Z</time>
      </trkpt>
      <trkpt lat="49.8576" lon="2.10362">
        <ele>128</ele>
        <time>2022-03-23T15:00:02Z</time>
      </trkpt>
      <trkpt lat="49.85761" lon="2.10363">
        <ele>128</ele>
        <time>2022-03-23T15:00:03Z</time>
      </trkpt>
      <trkpt lat="49.85762" lon="2.10364">
        <ele>128</ele>
        <time>2022-03-23T15:00:04Z</time>
      </trkpt>
      <trkpt lat="49.85763" lon="2.10364">
        <ele>128.1</ele>
        <time>2022-03-23T15:00:05Z</time>
      </trkpt>
      <trkpt lat="49.85765" lon="2.10365">
        <ele>128.1</ele>
        <time>2022-03-23T15:00:06Z</time>
      </trkpt>
      <trkpt lat="49.85766" lon="2.10365">
        <ele>128.1</ele>
        <time>2022-03-23T15:00:07Z</time>
      </trkpt>
      <trkpt lat="49.85768" lon="2.10366">
        <ele>128.2</ele>
        <time>2022-03-23T15:00:09Z</time>
      </trkpt>
      <trkpt lat="49.85768" lon="2.10367">
        <ele>128.2</ele>
        <time>2022-03-23T15:00:10Z</time>
      </trkpt>
      <trkpt lat="49.85769" lon="2.10367">
        <ele>128.1</ele>
        <time>2022-03-23T15:00:11Z</time>
      </trkpt>
      <trkpt lat="49.85771" lon="2.10368">
        <ele>128.1</ele>
        <time>2022-03-23T15:00:12Z</time>
      </trkpt>
      <trkpt lat="49.85772" lon="2.10369">
        <ele>128.2</ele>
        <time>2022-03-23T15:00:13Z</time>
      </trkpt>
      <trkpt lat="49.85773" lon="2.10369">
        <ele>128.2</ele>
        <time>2022-03-23T15:00:14Z</time>
      </trkpt>
      <trkpt lat="49.85774" lon="2.1037">
        <ele>128.2</ele>
        <time>2022-03-23T15:00:15Z</time>
      </trkpt>
      <trkpt lat="49.85775" lon="2.10371">
        <ele>128.3</ele>
        <time>2022-03-23T15:00:16Z</time>
      </trkpt>
      <trkpt lat="49.85776" lon="2.10372">
        <ele>128.2</ele>
        <time>2022-03-23T15:00:18Z</time>
      </trkpt>
      <trkpt lat="49.85777" lon="2.10373">
        <ele>128.3</ele>
        <time>2022-03-23T15:00:19Z</time>
      </trkpt>
      <trkpt lat="49.85778" lon="2.10374">
        <ele>128.3</ele>
        <time>2022-03-23T15:00:20Z</time>
      </trkpt>
      <trkpt lat="49.85779" lon="2.10374">
        <ele>128.3</ele>
        <time>2022-03-23T15:00:21Z</time>
      </trkpt>
      <trkpt lat="49.8578" lon="2.10375">
        <ele>128.3</ele>
        <time>2022-03-23T15:00:22Z</time>
      </trkpt>
      <trkpt lat="49.85781" lon="2.10376">
        <ele>128.2</ele>
        <time>2022-03-23T15:00:23Z</time>
      </trkpt>
      <trkpt lat="49.85783" lon="2.10377">
        <ele>128.3</ele>
        <time>2022-03-23T15:00:24Z</time>
      </trkpt>
      <trkpt lat="49.85784" lon="2.10377">
        <ele>128.3</ele>
        <time>2022-03-23T15:00:25Z</time>
      </trkpt>
      <trkpt lat="49.85785" lon="2.10378">
        <ele>128.3</ele>
        <time>2022-03-23T15:00:26Z</time>
      </trkpt>
      <trkpt lat="49.85786" lon="2.10379">
        <ele>128.3</ele>
        <time>2022-03-23T15:00:28Z</time>
      </trkpt>
      <trkpt lat="49.85787" lon="2.1038">
        <ele>128.2</ele>
        <time>2022-03-23T15:00:29Z</time>
      </trkpt>
      <trkpt lat="49.85788" lon="2.10381">
        <ele>128.3</ele>
        <time>2022-03-23T15:00:30Z</time>
      </trkpt>
      <trkpt lat="49.85789" lon="2.10381">
        <ele>128.3</ele>
        <time>2022-03-23T15:00:31Z</time>
      </trkpt>
      <trkpt lat="49.85791" lon="2.10382">
        <ele>128.3</ele>
        <time>2022-03-23T15:00:32Z</time>
      </trkpt>
      <trkpt lat="49.85792" lon="2.10383">
        <ele>128.3</ele>
        <time>2022-03-23T15:00:33Z</time>
      </trkpt>
      <trkpt lat="49.85793" lon="2.10383">
        <ele>128.3</ele>
        <time>2022-03-23T15:00:34Z</time>
      </trkpt>
      <trkpt lat="49.85794" lon="2.10384">
        <ele>128.4</ele>
        <time>2022-03-23T15:00:35Z</time>
      </trkpt>
      <trkpt lat="49.85795" lon="2.10384">
        <ele>128.3</ele>
        <time>2022-03-23T15:00:36Z</time>
      </trkpt>
      <trkpt lat="49.85796" lon="2.10385">
        <ele>128.3</ele>
        <time>2022-03-23T15:00:38Z</time>
      </trkpt>
      <trkpt lat="49.85798" lon="2.10386">
        <ele>128.3</ele>
        <time>2022-03-23T15:00:39Z</time>
      </trkpt>
      <trkpt lat="49.85799" lon="2.10386">
        <ele>128.4</ele>
        <time>2022-03-23T15:00:40Z</time>
      </trkpt>
      <trkpt lat="49.858" lon="2.10386">
        <ele>128.4</ele>
        <time>2022-03-23T15:00:41Z</time>
      </trkpt>
      <trkpt lat="49.85802" lon="2.10388">
        <ele>128.4</ele>
        <time>2022-03-23T15:00:42Z</time>
      </trkpt>
      <trkpt lat="49.85803" lon="2.10388">
        <ele>128.3</ele>
        <time>2022-03-23T15:00:43Z</time>
      </trkpt>
      <trkpt lat="49.85804" lon="2.10389">
        <ele>128.3</ele>
        <time>2022-03-23T15:00:44Z</time>
      </trkpt>
      <trkpt lat="49.85805" lon="2.10389">
        <ele>128.3</ele>
        <time>2022-03-23T15:00:45Z</time>
      </trkpt>
      <trkpt lat="49.85806" lon="2.1039">
        <ele>128.3</ele>
        <time>2022-03-23T15:00:47Z</time>
      </trkpt>
      <trkpt lat="49.85807" lon="2.10391">
        <ele>128.3</ele>
        <time>2022-03-23T15:00:48Z</time>
      </trkpt>
      <trkpt lat="49.85807" lon="2.10392">
        <ele>128.3</ele>
        <time>2022-03-23T15:00:49Z</time>
      </trkpt>
      <trkpt lat="49.85808" lon="2.10393">
        <ele>128.2</ele>
        <time>2022-03-23T15:00:50Z</time>
      </trkpt>
      <trkpt lat="49.85807" lon="2.10394">
        <ele>128.2</ele>
        <time>2022-03-23T15:00:51Z</time>
      </trkpt>
      <trkpt lat="49.85807" lon="2.10395">
        <ele>128.2</ele>
        <time>2022-03-23T15:00:52Z</time>
      </trkpt>
      <trkpt lat="49.85806" lon="2.10396">
        <ele>128.2</ele>
        <time>2022-03-23T15:00:53Z</time>
      </trkpt>
      <trkpt lat="49.85805" lon="2.10397">
        <ele>128.1</ele>
        <time>2022-03-23T15:00:54Z</time>
      </trkpt>
      <trkpt lat="49.85804" lon="2.10398">
        <ele>128.1</ele>
        <time>2022-03-23T15:00:55Z</time>
      </trkpt>
      <trkpt lat="49.85804" lon="2.10398">
        <ele>128.1</ele>
        <time>2022-03-23T15:00:56Z</time>
      </trkpt>
      <trkpt lat="49.85803" lon="2.10399">
        <ele>128.1</ele>
        <time>2022-03-23T15:00:57Z</time>
      </trkpt>
      <trkpt lat="49.85804" lon="2.104">
        <ele>128.1</ele>
        <time>2022-03-23T15:00:58Z</time>
      </trkpt>
      <trkpt lat="49.85804" lon="2.104">
        <ele>128.1</ele>
        <time>2022-03-23T15:00:59Z</time>
      </trkpt>
      <trkpt lat="49.85805" lon="2.104">
        <ele>128.1</ele>
        <time>2022-03-23T15:01:00Z</time>
      </trkpt>
      <trkpt lat="49.85806" lon="2.10401">
        <ele>128.1</ele>
        <time>2022-03-23T15:01:01Z</time>
      </trkpt>
      <trkpt lat="49.85806" lon="2.10401">
        <ele>128</ele>
        <time>2022-03-23T15:01:02Z</time>
      </trkpt>
      <trkpt lat="49.85807" lon="2.10402">
        <ele>128</ele>
        <time>2022-03-23T15:01:03Z</time>
      </trkpt>
      <trkpt lat="49.85808" lon="2.10402">
        <ele>128</ele>
        <time>2022-03-23T15:01:05Z</time>
      </trkpt>
      <trkpt lat="49.85808" lon="2.10403">
        <ele>128</ele>
        <time>2022-03-23T15:01:06Z</time>
      </trkpt>
      <trkpt lat="49.85809" lon="2.10403">
        <ele>128</ele>
        <time>2022-03-23T15:01:07Z</time>
      </trkpt>
      <trkpt lat="49.8581" lon="2.10403">
        <ele>128</ele>
        <time>2022-03-23T15:01:08Z</time>
      </trkpt>
      <trkpt lat="49.85811" lon="2.10404">
        <ele>128.1</ele>
        <time>2022-03-23T15:01:09Z</time>
      </trkpt>
      <trkpt lat="49.85812" lon="2.10405">
        <ele>128.1</ele>
        <time>2022-03-23T15:01:10Z</time>
      </trkpt>
      <trkpt lat="49.85814" lon="2.10405">
        <ele>128.1</ele>
        <time>2022-03-23T15:01:12Z</time>
      </trkpt>
      <trkpt lat="49.85816" lon="2.10405">
        <ele>128.1</ele>
        <time>2022-03-23T15:01:13Z</time>
      </trkpt>
      <trkpt lat="49.85817" lon="2.10405">
        <ele>128.1</ele>
        <time>2022-03-23T15:01:14Z</time>
      </trkpt>
      <trkpt lat="49.85818" lon="2.10405">
        <ele>128.1</ele>
        <time>2022-03-23T15:01:15Z</time>
      </trkpt>
      <trkpt lat="49.85819" lon="2.10405">
        <ele>128.1</ele>
        <time>2022-03-23T15:01:16Z</time>
      </trkpt>
      <trkpt lat="49.85821" lon="2.10405">
        <ele>128.1</ele>
        <time>2022-03-23T15:01:17Z</time>
      </trkpt>
      <trkpt lat="49.85822" lon="2.10405">
        <ele>128.1</ele>
        <time>2022-03-23T15:01:18Z</time>
      </trkpt>
      <trkpt lat="49.85823" lon="2.10405">
        <ele>128</ele>
        <time>2022-03-23T15:01:19Z</time>
      </trkpt>
      <trkpt lat="49.85824" lon="2.10406">
        <ele>128</ele>
        <time>2022-03-23T15:01:21Z</time>
      </trkpt>
      <trkpt lat="49.85825" lon="2.10406">
        <ele>128</ele>
        <time>2022-03-23T15:01:22Z</time>
      </trkpt>
      <trkpt lat="49.85826" lon="2.10406">
        <ele>128</ele>
        <time>2022-03-23T15:01:23Z</time>
      </trkpt>
      <trkpt lat="49.85827" lon="2.10407">
        <ele>128</ele>
        <time>2022-03-23T15:01:24Z</time>
      </trkpt>
      <trkpt lat="49.85829" lon="2.10408">
        <ele>128</ele>
        <time>2022-03-23T15:01:25Z</time>
      </trkpt>
      <trkpt lat="49.8583" lon="2.10408">
        <ele>128</ele>
        <time>2022-03-23T15:01:26Z</time>
      </trkpt>
      <trkpt lat="49.85831" lon="2.10409">
        <ele>128</ele>
        <time>2022-03-23T15:01:27Z</time>
      </trkpt>
      <trkpt lat="49.85833" lon="2.1041">
        <ele>127.8</ele>
        <time>2022-03-23T15:01:28Z</time>
      </trkpt>
      <trkpt lat="49.85834" lon="2.10411">
        <ele>127.8</ele>
        <time>2022-03-23T15:01:29Z</time>
      </trkpt>
      <trkpt lat="49.85835" lon="2.10411">
        <ele>127.8</ele>
        <time>2022-03-23T15:01:30Z</time>
      </trkpt>
      <trkpt lat="49.85836" lon="2.10412">
        <ele>127.8</ele>
        <time>2022-03-23T15:01:32Z</time>
      </trkpt>
      <trkpt lat="49.85837" lon="2.10413">
        <ele>127.8</ele>
        <time>2022-03-23T15:01:33Z</time>
      </trkpt>
      <trkpt lat="49.85839" lon="2.10414">
        <ele>127.7</ele>
        <time>2022-03-23T15:01:34Z</time>
      </trkpt>
      <trkpt lat="49.8584" lon="2.10415">
        <ele>127.7</ele>
        <time>2022-03-23T15:01:35Z</time>
      </trkpt>
      <trkpt lat="49.85841" lon="2.10416">
        <ele>127.7</ele>
        <time>2022-03-23T15:01:36Z</time>
      </trkpt>
      <trkpt lat="49.85842" lon="2.10417">
        <ele>127.8</ele>
        <time>2022-03-23T15:01:37Z</time>
      </trkpt>
      <trkpt lat="49.85844" lon="2.10418">
        <ele>127.7</ele>
        <time>2022-03-23T15:01:38Z</time>
      </trkpt>
      <trkpt lat="49.85845" lon="2.10419">
        <ele>127.6</ele>
        <time>2022-03-23T15:01:39Z</time>
      </trkpt>
      <trkpt lat="49.85846" lon="2.1042">
        <ele>127.6</ele>
        <time>2022-03-23T15:01:41Z</time>
      </trkpt>
      <trkpt lat="49.85848" lon="2.10421">
        <ele>127.6</ele>
        <time>2022-03-23T15:01:42Z</time>
      </trkpt>
      <trkpt lat="49.85848" lon="2.10421">
        <ele>127.6</ele>
        <time>2022-03-23T15:01:43Z</time>
      </trkpt>
      <trkpt lat="49.85849" lon="2.10422">
        <ele>127.5</ele>
        <time>2022-03-23T15:01:44Z</time>
      </trkpt>
      <trkpt lat="49.85851" lon="2.10423">
        <ele>127.4</ele>
        <time>2022-03-23T15:01:45Z</time>
      </trkpt>
      <trkpt lat="49.85852" lon="2.10423">
        <ele>127.4</ele>
        <time>2022-03-23T15:01:46Z</time>
      </trkpt>
      <trkpt lat="49.85853" lon="2.10424">
        <ele>127.4</ele>
        <time>2022-03-23T15:01:47Z</time>
      </trkpt>
      <trkpt lat="49.85855" lon="2.10425">
        <ele>127.3</ele>
        <time>2022-03-23T15:01:48Z</time>
      </trkpt>
      <trkpt lat="49.85856" lon="2.10426">
        <ele>127.3</ele>
        <time>2022-03-23T15:01:49Z</time>
      </trkpt>
      <trkpt lat="49.85856" lon="2.10426">
        <ele>127.3</ele>
        <time>2022-03-23T15:01:50Z</time>
      </trkpt>
      <trkpt lat="49.85859" lon="2.10428">
        <ele>127.2</ele>
        <time>2022-03-23T15:01:52Z</time>
      </trkpt>
      <trkpt lat="49.85859" lon="2.10428">
        <ele>127.2</ele>
        <time>2022-03-23T15:01:53Z</time>
      </trkpt>
      <trkpt lat="49.8586" lon="2.10429">
        <ele>127.2</ele>
        <time>2022-03-23T15:01:54Z</time>
      </trkpt>
      <trkpt lat="49.85862" lon="2.10429">
        <ele>127.2</ele>
        <time>2022-03-23T15:01:55Z</time>
      </trkpt>
      <trkpt lat="49.85863" lon="2.1043">
        <ele>127.1</ele>
        <time>2022-03-23T15:01:56Z</time>
      </trkpt>
      <trkpt lat="49.85864" lon="2.1043">
        <ele>127.1</ele>
        <time>2022-03-23T15:01:57Z</time>
      </trkpt>
      <trkpt lat="49.85866" lon="2.1043">
        <ele>127</ele>
        <time>2022-03-23T15:01:58Z</time>
      </trkpt>
      <trkpt lat="49.85867" lon="2.10431">
        <ele>127</ele>
        <time>2022-03-23T15:01:59Z</time>
      </trkpt>
      <trkpt lat="49.85868" lon="2.10431">
        <ele>127</ele>
        <time>2022-03-23T15:02:00Z</time>
      </trkpt>
      <trkpt lat="49.8587" lon="2.10432">
        <ele>126.9</ele>
        <time>2022-03-23T15:02:02Z</time>
      </trkpt>
      <trkpt lat="49.8587" lon="2.10433">
        <ele>126.9</ele>
        <time>2022-03-23T15:02:03Z</time>
      </trkpt>
      <trkpt lat="49.85871" lon="2.10433">
        <ele>126.9</ele>
        <time>2022-03-23T15:02:04Z</time>
      </trkpt>
      <trkpt lat="49.85873" lon="2.10434">
        <ele>126.9</ele>
        <time>2022-03-23T15:02:05Z</time>
      </trkpt>
      <trkpt lat="49.85874" lon="2.10435">
        <ele>126.8</ele>
        <time>2022-03-23T15:02:06Z</time>
      </trkpt>
      <trkpt lat="49.85875" lon="2.10436">
        <ele>126.8</ele>
        <time>2022-03-23T15:02:07Z</time>
      </trkpt>
      <trkpt lat="49.85876" lon="2.10437">
        <ele>126.8</ele>
        <time>2022-03-23T15:02:08Z</time>
      </trkpt>
      <trkpt lat="49.85877" lon="2.10438">
        <ele>126.7</ele>
        <time>2022-03-23T15:02:09Z</time>
      </trkpt>
      <trkpt lat="49.85878" lon="2.10438">
        <ele>126.7</ele>
        <time>2022-03-23T15:02:10Z</time>
      </trkpt>
      <trkpt lat="49.8588" lon="2.1044">
        <ele>126.7</ele>
        <time>2022-03-23T15:02:12Z</time>
      </trkpt>
      <trkpt lat="49.8588" lon="2.1044">
        <ele>126.7</ele>
        <time>2022-03-23T15:02:13Z</time>
      </trkpt>
      <trkpt lat="49.85881" lon="2.10441">
        <ele>126.7</ele>
        <time>2022-03-23T15:02:14Z</time>
      </trkpt>
      <trkpt lat="49.85883" lon="2.10443">
        <ele>126.6</ele>
        <time>2022-03-23T15:02:15Z</time>
      </trkpt>
      <trkpt lat="49.85883" lon="2.10443">
        <ele>126.6</ele>
        <time>2022-03-23T15:02:16Z</time>
      </trkpt>
      <trkpt lat="49.85884" lon="2.10444">
        <ele>126.6</ele>
        <time>2022-03-23T15:02:17Z</time>
      </trkpt>
      <trkpt lat="49.85885" lon="2.10445">
        <ele>126.6</ele>
        <time>2022-03-23T15:02:18Z</time>
      </trkpt>
      <trkpt lat="49.85887" lon="2.10446">
        <ele>126.6</ele>
        <time>2022-03-23T15:02:19Z</time>
      </trkpt>
      <trkpt lat="49.85888" lon="2.10447">
        <ele>126.5</ele>
        <time>2022-03-23T15:02:20Z</time>
      </trkpt>
      <trkpt lat="49.85888" lon="2.10448">
        <ele>126.5</ele>
        <time>2022-03-23T15:02:21Z</time>
      </trkpt>
      <trkpt lat="49.85889" lon="2.10449">
        <ele>126.5</ele>
        <time>2022-03-23T15:02:22Z</time>
      </trkpt>
      <trkpt lat="49.85891" lon="2.1045">
        <ele>126.5</ele>
        <time>2022-03-23T15:02:24Z</time>
      </trkpt>
      <trkpt lat="49.85892" lon="2.10451">
        <ele>126.5</ele>
        <time>2022-03-23T15:02:25Z</time>
      </trkpt>
      <trkpt lat="49.85893" lon="2.10452">
        <ele>126.5</ele>
        <time>2022-03-23T15:02:26Z</time>
      </trkpt>
      <trkpt lat="49.85893" lon="2.10453">
        <ele>126.5</ele>
        <time>2022-03-23T15:02:27Z</time>
      </trkpt>
      <trkpt lat="49.85894" lon="2.10453">
        <ele>126.5</ele>
        <time>2022-03-23T15:02:28Z</time>
      </trkpt>
      <trkpt lat="49.85896" lon="2.10454">
        <ele>126.5</ele>
        <time>2022-03-23T15:02:29Z</time>
      </trkpt>
      <trkpt lat="49.85898" lon="2.10455">
        <ele>126.4</ele>
        <time>2022-03-23T15:02:30Z</time>
      </trkpt>
      <trkpt lat="49.85898" lon="2.10456">
        <ele>126.4</ele>
        <time>2022-03-23T15:02:31Z</time>
      </trkpt>
      <trkpt lat="49.85899" lon="2.10456">
        <ele>126.5</ele>
        <time>2022-03-23T15:02:32Z</time>
      </trkpt>
      <trkpt lat="49.85901" lon="2.10457">
        <ele>126.5</ele>
        <time>2022-03-23T15:02:33Z</time>
      </trkpt>
      <trkpt lat="49.85902" lon="2.10458">
        <ele>126.5</ele>
        <time>2022-03-23T15:02:35Z</time>
      </trkpt>
      <trkpt lat="49.85903" lon="2.10458">
        <ele>126.5</ele>
        <time>2022-03-23T15:02:36Z</time>
      </trkpt>
      <trkpt lat="49.85905" lon="2.10459">
        <ele>126.5</ele>
        <time>2022-03-23T15:02:37Z</time>
      </trkpt>
      <trkpt lat="49.85906" lon="2.10459">
        <ele>126.5</ele>
        <time>2022-03-23T15:02:38Z</time>
      </trkpt>
      <trkpt lat="49.85907" lon="2.10459">
        <ele>126.4</ele>
        <time>2022-03-23T15:02:39Z</time>
      </trkpt>
      <trkpt lat="49.85908" lon="2.1046">
        <ele>126.4</ele>
        <time>2022-03-23T15:02:40Z</time>
      </trkpt>
      <trkpt lat="49.8591" lon="2.1046">
        <ele>126.4</ele>
        <time>2022-03-23T15:02:41Z</time>
      </trkpt>
      <trkpt lat="49.85911" lon="2.10461">
        <ele>126.4</ele>
        <time>2022-03-23T15:02:42Z</time>
      </trkpt>
      <trkpt lat="49.85912" lon="2.10461">
        <ele>126.4</ele>
        <time>2022-03-23T15:02:43Z</time>
      </trkpt>
      <trkpt lat="49.85913" lon="2.10462">
        <ele>126.4</ele>
        <time>2022-03-23T15:02:45Z</time>
      </trkpt>
      <trkpt lat="49.85916" lon="2.10463">
        <ele>126.4</ele>
        <time>2022-03-23T15:02:46Z</time>
      </trkpt>
      <trkpt lat="49.85916" lon="2.10463">
        <ele>126.4</ele>
        <time>2022-03-23T15:02:47Z</time>
      </trkpt>
      <trkpt lat="49.85917" lon="2.10463">
        <ele>126.4</ele>
        <time>2022-03-23T15:02:48Z</time>
      </trkpt>
      <trkpt lat="49.85919" lon="2.10464">
        <ele>126.4</ele>
        <time>2022-03-23T15:02:49Z</time>
      </trkpt>
      <trkpt lat="49.8592" lon="2.10465">
        <ele>126.4</ele>
        <time>2022-03-23T15:02:50Z</time>
      </trkpt>
      <trkpt lat="49.85921" lon="2.10465">
        <ele>126.4</ele>
        <time>2022-03-23T15:02:51Z</time>
      </trkpt>
      <trkpt lat="49.85923" lon="2.10466">
        <ele>126.4</ele>
        <time>2022-03-23T15:02:52Z</time>
      </trkpt>
      <trkpt lat="49.85923" lon="2.10467">
        <ele>126.4</ele>
        <time>2022-03-23T15:02:54Z</time>
      </trkpt>
      <trkpt lat="49.85924" lon="2.10467">
        <ele>126.4</ele>
        <time>2022-03-23T15:02:55Z</time>
      </trkpt>
      <trkpt lat="49.85926" lon="2.10468">
        <ele>126.4</ele>
        <time>2022-03-23T15:02:56Z</time>
      </trkpt>
      <trkpt lat="49.85927" lon="2.10469">
        <ele>126.3</ele>
        <time>2022-03-23T15:02:57Z</time>
      </trkpt>
      <trkpt lat="49.85928" lon="2.10469">
        <ele>126.3</ele>
        <time>2022-03-23T15:02:58Z</time>
      </trkpt>
      <trkpt lat="49.8593" lon="2.1047">
        <ele>126.3</ele>
        <time>2022-03-23T15:02:59Z</time>
      </trkpt>
      <trkpt lat="49.85931" lon="2.10471">
        <ele>126.3</ele>
        <time>2022-03-23T15:03:00Z</time>
      </trkpt>
      <trkpt lat="49.85931" lon="2.10471">
        <ele>126.3</ele>
        <time>2022-03-23T15:03:01Z</time>
      </trkpt>
      <trkpt lat="49.85933" lon="2.10473">
        <ele>126.3</ele>
        <time>2022-03-23T15:03:02Z</time>
      </trkpt>
      <trkpt lat="49.85934" lon="2.10474">
        <ele>126.3</ele>
        <time>2022-03-23T15:03:03Z</time>
      </trkpt>
      <trkpt lat="49.85935" lon="2.10474">
        <ele>126.3</ele>
        <time>2022-03-23T15:03:05Z</time>
      </trkpt>
      <trkpt lat="49.85936" lon="2.10475">
        <ele>126.3</ele>
        <time>2022-03-23T15:03:06Z</time>
      </trkpt>
      <trkpt lat="49.85937" lon="2.10476">
        <ele>126.3</ele>
        <time>2022-03-23T15:03:07Z</time>
      </trkpt>
      <trkpt lat="49.85938" lon="2.10477">
        <ele>126.3</ele>
        <time>2022-03-23T15:03:08Z</time>
      </trkpt>
      <trkpt lat="49.8594" lon="2.10478">
        <ele>126.3</ele>
        <time>2022-03-23T15:03:09Z</time>
      </trkpt>
      <trkpt lat="49.85941" lon="2.10479">
        <ele>126.3</ele>
        <time>2022-03-23T15:03:10Z</time>
      </trkpt>
      <trkpt lat="49.85941" lon="2.10479">
        <ele>126.3</ele>
        <time>2022-03-23T15:03:11Z</time>
      </trkpt>
      <trkpt lat="49.85943" lon="2.1048">
        <ele>126.3</ele>
        <time>2022-03-23T15:03:12Z</time>
      </trkpt>
      <trkpt lat="49.85944" lon="2.10481">
        <ele>126.3</ele>
        <time>2022-03-23T15:03:14Z</time>
      </trkpt>
      <trkpt lat="49.85945" lon="2.10481">
        <ele>126.3</ele>
        <time>2022-03-23T15:03:15Z</time>
      </trkpt>
      <trkpt lat="49.85946" lon="2.10482">
        <ele>126.3</ele>
        <time>2022-03-23T15:03:16Z</time>
      </trkpt>
      <trkpt lat="49.85947" lon="2.10483">
        <ele>126.3</ele>
        <time>2022-03-23T15:03:17Z</time>
      </trkpt>
      <trkpt lat="49.85948" lon="2.10484">
        <ele>126.3</ele>
        <time>2022-03-23T15:03:18Z</time>
      </trkpt>
      <trkpt lat="49.85949" lon="2.10486">
        <ele>126.3</ele>
        <time>2022-03-23T15:03:19Z</time>
      </trkpt>
      <trkpt lat="49.8595" lon="2.10486">
        <ele>126.3</ele>
        <time>2022-03-23T15:03:20Z</time>
      </trkpt>
      <trkpt lat="49.85951" lon="2.10487">
        <ele>126.3</ele>
        <time>2022-03-23T15:03:21Z</time>
      </trkpt>
      <trkpt lat="49.85953" lon="2.10488">
        <ele>126.3</ele>
        <time>2022-03-23T15:03:23Z</time>
      </trkpt>
      <trkpt lat="49.85954" lon="2.10488">
        <ele>126.3</ele>
        <time>2022-03-23T15:03:24Z</time>
      </trkpt>
      <trkpt lat="49.85955" lon="2.10489">
        <ele>126.3</ele>
        <time>2022-03-23T15:03:25Z</time>
      </trkpt>
      <trkpt lat="49.85957" lon="2.10489">
        <ele>126.3</ele>
        <time>2022-03-23T15:03:26Z</time>
      </trkpt>
      <trkpt lat="49.85957" lon="2.10489">
        <ele>126.3</ele>
        <time>2022-03-23T15:03:27Z</time>
      </trkpt>
      <trkpt lat="49.85958" lon="2.1049">
        <ele>126.3</ele>
        <time>2022-03-23T15:03:28Z</time>
      </trkpt>
      <trkpt lat="49.85959" lon="2.1049">
        <ele>126.3</ele>
        <time>2022-03-23T15:03:29Z</time>
      </trkpt>
      <trkpt lat="49.85961" lon="2.10491">
        <ele>126.2</ele>
        <time>2022-03-23T15:03:30Z</time>
      </trkpt>
      <trkpt lat="49.85961" lon="2.10492">
        <ele>126.3</ele>
        <time>2022-03-23T15:03:31Z</time>
      </trkpt>
      <trkpt lat="49.85962" lon="2.10492">
        <ele>126.2</ele>
        <time>2022-03-23T15:03:33Z</time>
      </trkpt>
      <trkpt lat="49.85964" lon="2.10493">
        <ele>126.2</ele>
        <time>2022-03-23T15:03:34Z</time>
      </trkpt>
      <trkpt lat="49.85964" lon="2.10494">
        <ele>126.2</ele>
        <time>2022-03-23T15:03:35Z</time>
      </trkpt>
      <trkpt lat="49.85965" lon="2.10495">
        <ele>126.2</ele>
        <time>2022-03-23T15:03:36Z</time>
      </trkpt>
      <trkpt lat="49.85966" lon="2.10496">
        <ele>126.2</ele>
        <time>2022-03-23T15:03:37Z</time>
      </trkpt>
      <trkpt lat="49.85967" lon="2.10497">
        <ele>126.2</ele>
        <time>2022-03-23T15:03:39Z</time>
      </trkpt>
      <trkpt lat="49.85968" lon="2.10497">
        <ele>126.2</ele>
        <time>2022-03-23T15:03:40Z</time>
      </trkpt>
      <trkpt lat="49.85968" lon="2.10498">
        <ele>126.2</ele>
        <time>2022-03-23T15:03:41Z</time>
      </trkpt>
      <trkpt lat="49.85968" lon="2.10498">
        <ele>126.2</ele>
        <time>2022-03-23T15:03:42Z</time>
      </trkpt>
      <trkpt lat="49.85969" lon="2.10498">
        <ele>126.2</ele>
        <time>2022-03-23T15:03:43Z</time>
      </trkpt>
      <trkpt lat="49.85969" lon="2.10498">
        <ele>126.2</ele>
        <time>2022-03-23T15:03:44Z</time>
      </trkpt>
      <trkpt lat="49.85968" lon="2.10498">
        <ele>126.2</ele>
        <time>2022-03-23T15:03:45Z</time>
      </trkpt>
      <trkpt lat="49.85968" lon="2.10498">
        <ele>126.2</ele>
        <time>2022-03-23T15:03:46Z</time>
      </trkpt>
      <trkpt lat="49.85968" lon="2.10498">
        <ele>126.2</ele>
        <time>2022-03-23T15:03:47Z</time>
      </trkpt>
      <trkpt lat="49.85968" lon="2.10498">
        <ele>126.2</ele>
        <time>2022-03-23T15:03:48Z</time>
      </trkpt>
      <trkpt lat="49.85967" lon="2.10498">
        <ele>126.2</ele>
        <time>2022-03-23T15:03:49Z</time>
      </trkpt>
      <trkpt lat="49.85967" lon="2.10498">
        <ele>126.2</ele>
        <time>2022-03-23T15:03:50Z</time>
      </trkpt>
      <trkpt lat="49.85967" lon="2.10498">
        <ele>126.2</ele>
        <time>2022-03-23T15:03:51Z</time>
      </trkpt>
      <trkpt lat="49.85967" lon="2.10498">
        <ele>126.2</ele>
        <time>2022-03-23T15:03:52Z</time>
      </trkpt>
      <trkpt lat="49.85967" lon="2.10498">
        <ele>126.2</ele>
        <time>2022-03-23T15:03:53Z</time>
      </trkpt>
      <trkpt lat="49.85966" lon="2.10498">
        <ele>126.2</ele>
        <time>2022-03-23T15:03:54Z</time>
      </trkpt>
      <trkpt lat="49.85966" lon="2.10498">
        <ele>126.2</ele>
        <time>2022-03-23T15:03:55Z</time>
      </trkpt>
      <trkpt lat="49.85966" lon="2.10498">
        <ele>126.2</ele>
        <time>2022-03-23T15:03:56Z</time>
      </trkpt>
      <trkpt lat="49.85966" lon="2.10498">
        <ele>126.2</ele>
        <time>2022-03-23T15:03:57Z</time>
      </trkpt>
      <trkpt lat="49.85966" lon="2.10498">
        <ele>126.2</ele>
        <time>2022-03-23T15:03:58Z</time>
      </trkpt>
      <trkpt lat="49.85966" lon="2.10498">
        <ele>126.2</ele>
        <time>2022-03-23T15:03:59Z</time>
      </trkpt>
      <trkpt lat="49.85966" lon="2.10498">
        <ele>126.2</ele>
        <time>2022-03-23T15:04:00Z</time>
      </trkpt>
      <trkpt lat="49.85966" lon="2.10498">
        <ele>126.2</ele>
        <time>2022-03-23T15:04:01Z</time>
      </trkpt>
      <trkpt lat="49.85966" lon="2.10498">
        <ele>126.2</ele>
        <time>2022-03-23T15:04:02Z</time>
      </trkpt>
      <trkpt lat="49.85966" lon="2.10498">
        <ele>126.2</ele>
        <time>2022-03-23T15:04:03Z</time>
      </trkpt>
      <trkpt lat="49.85966" lon="2.10498">
        <ele>126.2</ele>
        <time>2022-03-23T15:04:04Z</time>
      </trkpt>
      <trkpt lat="49.85966" lon="2.10498">
        <ele>126.2</ele>
        <time>2022-03-23T15:04:05Z</time>
      </trkpt>
      <trkpt lat="49.85966" lon="2.10498">
        <ele>126.2</ele>
        <time>2022-03-23T15:04:06Z</time>
      </trkpt>
      <trkpt lat="49.85966" lon="2.10498">
        <ele>126.2</ele>
        <time>2022-03-23T15:04:07Z</time>
      </trkpt>
      <trkpt lat="49.85966" lon="2.10498">
        <ele>126.2</ele>
        <time>2022-03-23T15:04:08Z</time>
      </trkpt>
      <trkpt lat="49.85966" lon="2.10498">
        <ele>126.2</ele>
        <time>2022-03-23T15:04:09Z</time>
      </trkpt>
      <trkpt lat="49.85966" lon="2.10498">
        <ele>126.2</ele>
        <time>2022-03-23T15:04:10Z</time>
      </trkpt>
      <trkpt lat="49.85966" lon="2.10498">
        <ele>126.2</ele>
        <time>2022-03-23T15:04:11Z</time>
      </trkpt>
      <trkpt lat="49.85966" lon="2.10498">
        <ele>126.2</ele>
        <time>2022-03-23T15:04:12Z</time>
      </trkpt>
      <trkpt lat="49.85966" lon="2.10498">
        <ele>126.2</ele>
        <time>2022-03-23T15:04:13Z</time>
      </trkpt>
      <trkpt lat="49.85966" lon="2.10498">
        <ele>126.2</ele>
        <time>2022-03-23T15:04:14Z</time>
      </trkpt>
      <trkpt lat="49.85966" lon="2.10498">
        <ele>126.2</ele>
        <time>2022-03-23T15:04:15Z</time>
      </trkpt>
      <trkpt lat="49.85966" lon="2.10498">
        <ele>126.2</ele>
        <time>2022-03-23T15:04:16Z</time>
      </trkpt>
      <trkpt lat="49.85966" lon="2.10498">
        <ele>126.2</ele>
        <time>2022-03-23T15:04:17Z</time>
      </trkpt>
      <trkpt lat="49.85966" lon="2.10498">
        <ele>126.2</ele>
        <time>2022-03-23T15:04:18Z</time>
      </trkpt>
      <trkpt lat="49.85966" lon="2.10498">
        <ele>126.2</ele>
        <time>2022-03-23T15:04:19Z</time>
      </trkpt>
      <trkpt lat="49.85966" lon="2.10498">
        <ele>126.2</ele>
        <time>2022-03-23T15:04:20Z</time>
      </trkpt>
      <trkpt lat="49.85966" lon="2.10498">
        <ele>126.2</ele>
        <time>2022-03-23T15:04:21Z</time>
      </trkpt>
      <trkpt lat="49.85966" lon="2.10498">
        <ele>126.2</ele>
        <time>2022-03-23T15:04:22Z</time>
      </trkpt>
      <trkpt lat="49.85966" lon="2.10498">
        <ele>126.2</ele>
        <time>2022-03-23T15:04:23Z</time>
      </trkpt>
      <trkpt lat="49.85966" lon="2.10498">
        <ele>126.2</ele>
        <time>2022-03-23T15:04:24Z</time>
      </trkpt>
      <trkpt lat="49.85966" lon="2.10498">
        <ele>126.2</ele>
        <time>2022-03-23T15:04:25Z</time>
      </trkpt>
      <trkpt lat="49.85966" lon="2.10498">
        <ele>126.2</ele>
        <time>2022-03-23T15:04:26Z</time>
      </trkpt>
      <trkpt lat="49.85966" lon="2.10498">
        <ele>126.2</ele>
        <time>2022-03-23T15:04:27Z</time>
      </trkpt>
      <trkpt lat="49.85966" lon="2.10498">
        <ele>126.2</ele>
        <time>2022-03-23T15:04:28Z</time>
      </trkpt>
      <trkpt lat="49.85966" lon="2.10498">
        <ele>126.2</ele>
        <time>2022-03-23T15:04:29Z</time>
      </trkpt>
      <trkpt lat="49.85966" lon="2.10498">
        <ele>126.2</ele>
        <time>2022-03-23T15:04:30Z</time>
      </trkpt>
      <trkpt lat="49.85966" lon="2.10498">
        <ele>126.2</ele>
        <time>2022-03-23T15:04:31Z</time>
      </trkpt>
      <trkpt lat="49.85966" lon="2.10498">
        <ele>126.2</ele>
        <time>2022-03-23T15:04:32Z</time>
      </trkpt>
      <trkpt lat="49.85966" lon="2.10498">
        <ele>126.2</ele>
        <time>2022-03-23T15:04:33Z</time>
      </trkpt>
      <trkpt lat="49.85966" lon="2.10498">
        <ele>126.2</ele>
        <time>2022-03-23T15:04:34Z</time>
      </trkpt>
      <trkpt lat="49.85966" lon="2.10498">
        <ele>126.2</ele>
        <time>2022-03-23T15:04:35Z</time>
      </trkpt>
      <trkpt lat="49.85966" lon="2.10498">
        <ele>126.2</ele>
        <time>2022-03-23T15:04:36Z</time>
      </trkpt>
      <trkpt lat="49.85966" lon="2.10498">
        <ele>126.2</ele>
        <time>2022-03-23T15:04:37Z</time>
      </trkpt>
      <trkpt lat="49.85966" lon="2.10498">
        <ele>126.2</ele>
        <time>2022-03-23T15:04:38Z</time>
      </trkpt>
      <trkpt lat="49.85966" lon="2.10498">
        <ele>126.2</ele>
        <time>2022-03-23T15:04:39Z</time>
      </trkpt>
      <trkpt lat="49.85966" lon="2.10498">
        <ele>126.2</ele>
        <time>2022-03-23T15:04:40Z</time>
      </trkpt>
      <trkpt lat="49.85966" lon="2.10498">
        <ele>126.2</ele>
        <time>2022-03-23T15:04:41Z</time>
      </trkpt>
      <trkpt lat="49.85966" lon="2.10498">
        <ele>126.2</ele>
        <time>2022-03-23T15:04:42Z</time>
      </trkpt>
      <trkpt lat="49.85966" lon="2.10498">
        <ele>126.2</ele>
        <time>2022-03-23T15:04:43Z</time>
      </trkpt>
      <trkpt lat="49.85966" lon="2.10498">
        <ele>126.2</ele>
        <time>2022-03-23T15:04:44Z</time>
      </trkpt>
      <trkpt lat="49.85966" lon="2.10498">
        <ele>126.2</ele>
        <time>2022-03-23T15:04:45Z</time>
      </trkpt>
      <trkpt lat="49.85966" lon="2.10498">
        <ele>126.2</ele>
        <time>2022-03-23T15:04:46Z</time>
      </trkpt>
      <trkpt lat="49.85966" lon="2.10498">
        <ele>126.2</ele>
        <time>2022-03-23T15:04:47Z</time>
      </trkpt>
      <trkpt lat="49.85966" lon="2.10498">
        <ele>126.2</ele>
        <time>2022-03-23T15:04:48Z</time>
      </trkpt>
      <trkpt lat="49.85966" lon="2.10498">
        <ele>126.2</ele>
        <time>2022-03-23T15:04:49Z</time>
      </trkpt>
      <trkpt lat="49.85966" lon="2.10498">
        <ele>126.2</ele>
        <time>2022-03-23T15:04:50Z</time>
      </trkpt>
      <trkpt lat="49.85966" lon="2.10498">
        <ele>126.2</ele>
        <time>2022-03-23T15:04:51Z</time>
      </trkpt>
      <trkpt lat="49.85966" lon="2.10498">
        <ele>126.2</ele>
        <time>2022-03-23T15:04:52Z</time>
      </trkpt>
      <trkpt lat="49.85966" lon="2.10498">
        <ele>126.2</ele>
        <time>2022-03-23T15:04:53Z</time>
      </trkpt>
      <trkpt lat="49.85966" lon="2.10498">
        <ele>126.2</ele>
        <time>2022-03-23T15:04:54Z</time>
      </trkpt>
      <trkpt lat="49.85966" lon="2.10498">
        <ele>126.2</ele>
        <time>2022-03-23T15:04:55Z</time>
      </trkpt>
      <trkpt lat="49.85966" lon="2.10498">
        <ele>126.2</ele>
        <time>2022-03-23T15:04:56Z</time>
      </trkpt>
      <trkpt lat="49.85966" lon="2.10498">
        <ele>126.2</ele>
        <time>2022-03-23T15:04:57Z</time>
      </trkpt>
      <trkpt lat="49.85966" lon="2.10498">
        <ele>126.2</ele>
        <time>2022-03-23T15:04:58Z</time>
      </trkpt>
      <trkpt lat="49.85966" lon="2.10498">
        <ele>126.2</ele>
        <time>2022-03-23T15:04:59Z</time>
      </trkpt>
      <trkpt lat="49.85966" lon="2.10498">
        <ele>126.2</ele>
        <time>2022-03-23T15:05:00Z</time>
      </trkpt>
      <trkpt lat="49.85966" lon="2.10498">
        <ele>126.2</ele>
        <time>2022-03-23T15:05:01Z</time>
      </trkpt>
      <trkpt lat="49.85966" lon="2.10498">
        <ele>126.2</ele>
        <time>2022-03-23T15:05:02Z</time>
      </trkpt>
      <trkpt lat="49.85966" lon="2.10498">
        <ele>126.2</ele>
        <time>2022-03-23T15:05:03Z</time>
      </trkpt>
      <trkpt lat="49.85966" lon="2.10498">
        <ele>126.2</ele>
        <time>2022-03-23T15:05:04Z</time>
      </trkpt>
      <trkpt lat="49.85966" lon="2.10498">
        <ele>126.2</ele>
        <time>2022-03-23T15:05:05Z</time>
      </trkpt>
      <trkpt lat="49.85966" lon="2.10498">
        <ele>126.2</ele>
        <time>2022-03-23T15:05:06Z</time>
      </trkpt>
      <trkpt lat="49.85966" lon="2.10498">
        <ele>126.2</ele>
        <time>2022-03-23T15:05:07Z</time>
      </trkpt>
      <trkpt lat="49.85966" lon="2.10498">
        <ele>126.2</ele>
        <time>2022-03-23T15:05:08Z</time>
      </trkpt>
      <trkpt lat="49.85966" lon="2.10498">
        <ele>126.2</ele>
        <time>2022-03-23T15:05:09Z</time>
      </trkpt>
      <trkpt lat="49.85966" lon="2.10498">
        <ele>126.2</ele>
        <time>2022-03-23T15:05:10Z</time>
      </trkpt>
      <trkpt lat="49.85966" lon="2.10498">
        <ele>126.2</ele>
        <time>2022-03-23T15:05:11Z</time>
      </trkpt>
      <trkpt lat="49.85966" lon="2.10498">
        <ele>126.2</ele>
        <time>2022-03-23T15:05:12Z</time>
      </trkpt>
      <trkpt lat="49.85966" lon="2.10498">
        <ele>126.2</ele>
        <time>2022-03-23T15:05:13Z</time>
      </trkpt>
      <trkpt lat="49.85966" lon="2.10498">
        <ele>126.2</ele>
        <time>2022-03-23T15:05:14Z</time>
      </trkpt>
      <trkpt lat="49.85966" lon="2.10498">
        <ele>126.2</ele>
        <time>2022-03-23T15:05:15Z</time>
      </trkpt>
      <trkpt lat="49.85966" lon="2.10498">
        <ele>126.2</ele>
        <time>2022-03-23T15:05:16Z</time>
      </trkpt>
      <trkpt lat="49.85966" lon="2.10498">
        <ele>126.2</ele>
        <time>2022-03-23T15:05:17Z</time>
      </trkpt>
      <trkpt lat="49.85966" lon="2.10498">
        <ele>126.2</ele>
        <time>2022-03-23T15:05:18Z</time>
      </trkpt>
      <trkpt lat="49.85966" lon="2.10498">
        <ele>126.2</ele>
        <time>2022-03-23T15:05:19Z</time>
      </trkpt>
      <trkpt lat="49.85966" lon="2.10498">
        <ele>126.2</ele>
        <time>2022-03-23T15:05:20Z</time>
      </trkpt>
      <trkpt lat="49.85966" lon="2.10498">
        <ele>126.2</ele>
        <time>2022-03-23T15:05:21Z</time>
      </trkpt>
      <trkpt lat="49.85966" lon="2.10498">
        <ele>126.2</ele>
        <time>2022-03-23T15:05:22Z</time>
      </trkpt>
      <trkpt lat="49.85966" lon="2.10498">
        <ele>126.2</ele>
        <time>2022-03-23T15:05:23Z</time>
      </trkpt>
      <trkpt lat="49.85966" lon="2.10498">
        <ele>126.2</ele>
        <time>2022-03-23T15:05:24Z</time>
      </trkpt>
      <trkpt lat="49.85966" lon="2.10498">
        <ele>126.2</ele>
        <time>2022-03-23T15:05:25Z</time>
      </trkpt>
      <trkpt lat="49.85966" lon="2.10498">
        <ele>126.2</ele>
        <time>2022-03-23T15:05:26Z</time>
      </trkpt>
      <trkpt lat="49.85966" lon="2.10498">
        <ele>126.2</ele>
        <time>2022-03-23T15:05:27Z</time>
      </trkpt>
      <trkpt lat="49.85966" lon="2.10498">
        <ele>126.2</ele>
        <time>2022-03-23T15:05:28Z</time>
      </trkpt>
      <trkpt lat="49.85966" lon="2.10498">
        <ele>126.2</ele>
        <time>2022-03-23T15:05:29Z</time>
      </trkpt>
      <trkpt lat="49.85966" lon="2.10498">
        <ele>126.2</ele>
        <time>2022-03-23T15:05:30Z</time>
      </trkpt>
      <trkpt lat="49.85966" lon="2.10498">
        <ele>126.2</ele>
        <time>2022-03-23T15:05:31Z</time>
      </trkpt>
      <trkpt lat="49.85966" lon="2.10498">
        <ele>126.2</ele>
        <time>2022-03-23T15:05:32Z</time>
      </trkpt>
      <trkpt lat="49.85966" lon="2.10498">
        <ele>126.2</ele>
        <time>2022-03-23T15:05:33Z</time>
      </trkpt>
      <trkpt lat="49.85966" lon="2.10498">
        <ele>126.2</ele>
        <time>2022-03-23T15:05:34Z</time>
      </trkpt>
      <trkpt lat="49.85966" lon="2.10498">
        <ele>126.2</ele>
        <time>2022-03-23T15:05:35Z</time>
      </trkpt>
      <trkpt lat="49.85966" lon="2.10498">
        <ele>126.2</ele>
        <time>2022-03-23T15:05:36Z</time>
      </trkpt>
      <trkpt lat="49.85966" lon="2.10498">
        <ele>126.2</ele>
        <time>2022-03-23T15:05:37Z</time>
      </trkpt>
      <trkpt lat="49.85966" lon="2.10498">
        <ele>126.2</ele>
        <time>2022-03-23T15:05:38Z</time>
      </trkpt>
      <trkpt lat="49.85966" lon="2.10498">
        <ele>126.2</ele>
        <time>2022-03-23T15:05:39Z</time>
      </trkpt>
      <trkpt lat="49.85966" lon="2.10498">
        <ele>126.2</ele>
        <time>2022-03-23T15:05:40Z</time>
      </trkpt>
      <trkpt lat="49.85966" lon="2.10498">
        <ele>126.2</ele>
        <time>2022-03-23T15:05:41Z</time>
      </trkpt>
      <trkpt lat="49.85966" lon="2.10498">
        <ele>126.2</ele>
        <time>2022-03-23T15:05:42Z</time>
      </trkpt>
      <trkpt lat="49.85966" lon="2.10498">
        <ele>126.2</ele>
        <time>2022-03-23T15:05:43Z</time>
      </trkpt>
      <trkpt lat="49.85966" lon="2.10498">
        <ele>126.2</ele>
        <time>2022-03-23T15:05:44Z</time>
      </trkpt>
      <trkpt lat="49.85966" lon="2.10498">
        <ele>126.2</ele>
        <time>2022-03-23T15:05:45Z</time>
      </trkpt>
      <trkpt lat="49.85966" lon="2.10498">
        <ele>126.2</ele>
        <time>2022-03-23T15:05:46Z</time>
      </trkpt>
      <trkpt lat="49.85966" lon="2.10498">
        <ele>126.2</ele>
        <time>2022-03-23T15:05:47Z</time>
      </trkpt>
      <trkpt lat="49.85966" lon="2.10498">
        <ele>126.2</ele>
        <time>2022-03-23T15:05:48Z</time>
      </trkpt>
      <trkpt lat="49.85966" lon="2.10498">
        <ele>126.2</ele>
        <time>2022-03-23T15:05:49Z</time>
      </trkpt>
      <trkpt lat="49.85966" lon="2.10498">
        <ele>126.2</ele>
        <time>2022-03-23T15:05:50Z</time>
      </trkpt>
      <trkpt lat="49.85966" lon="2.10498">
        <ele>126.2</ele>
        <time>2022-03-23T15:05:51Z</time>
      </trkpt>
      <trkpt lat="49.85966" lon="2.10498">
        <ele>126.2</ele>
        <time>2022-03-23T15:05:52Z</time>
      </trkpt>
      <trkpt lat="49.85966" lon="2.10498">
        <ele>126.2</ele>
        <time>2022-03-23T15:05:53Z</time>
      </trkpt>
      <trkpt lat="49.85966" lon="2.10498">
        <ele>126.2</ele>
        <time>2022-03-23T15:05:54Z</time>
      </trkpt>
      <trkpt lat="49.85966" lon="2.10498">
        <ele>126.2</ele>
        <time>2022-03-23T15:05:55Z</time>
      </trkpt>
      <trkpt lat="49.85966" lon="2.10498">
        <ele>126.2</ele>
        <time>2022-03-23T15:05:56Z</time>
      </trkpt>
      <trkpt lat="49.85966" lon="2.10498">
        <ele>126.2</ele>
        <time>2022-03-23T15:05:57Z</time>
      </trkpt>
      <trkpt lat="49.85966" lon="2.10498">
        <ele>126.2</ele>
        <time>2022-03-23T15:05:58Z</time>
      </trkpt>
      <trkpt lat="49.85966" lon="2.10498">
        <ele>126.2</ele>
        <time>2022-03-23T15:05:59Z</time>
      </trkpt>
      <trkpt lat="49.85966" lon="2.10498">
        <ele>126.2</ele>
        <time>2022-03-23T15:06:00Z</time>
      </trkpt>
      <trkpt lat="49.85966" lon="2.10498">
        <ele>126.2</ele>
        <time>2022-03-23T15:06:01Z</time>
      </trkpt>
      <trkpt lat="49.85966" lon="2.10498">
        <ele>126.2</ele>
        <time>2022-03-23T15:06:02Z</time>
      </trkpt>
      <trkpt lat="49.85966" lon="2.10498">
        <ele>126.2</ele>
        <time>2022-03-23T15:06:03Z</time>
      </trkpt>
      <trkpt lat="49.85966" lon="2.10498">
        <ele>126.2</ele>
        <time>2022-03-23T15:06:04Z</time>
      </trkpt>
      <trkpt lat="49.85966" lon="2.10498">
        <ele>126.2</ele>
        <time>2022-03-23T15:06:05Z</time>
      </trkpt>
      <trkpt lat="49.85966" lon="2.10498">
        <ele>126.2</ele>
        <time>2022-03-23T15:06:06Z</time>
      </trkpt>
      <trkpt lat="49.85966" lon="2.10498">
        <ele>126.2</ele>
        <time>2022-03-23T15:06:07Z</time>
      </trkpt>
      <trkpt lat="49.85966" lon="2.10498">
        <ele>126.2</ele>
        <time>2022-03-23T15:06:08Z</time>
      </trkpt>
      <trkpt lat="49.85966" lon="2.10498">
        <ele>126.2</ele>
        <time>2022-03-23T15:06:09Z</time>
      </trkpt>
      <trkpt lat="49.85966" lon="2.10498">
        <ele>126.2</ele>
        <time>2022-03-23T15:06:10Z</time>
      </trkpt>
      <trkpt lat="49.85966" lon="2.10498">
        <ele>126.2</ele>
        <time>2022-03-23T15:06:11Z</time>
      </trkpt>
      <trkpt lat="49.85966" lon="2.10498">
        <ele>126.2</ele>
        <time>2022-03-23T15:06:12Z</time>
      </trkpt>
      <trkpt lat="49.85966" lon="2.10498">
        <ele>126.2</ele>
        <time>2022-03-23T15:06:13Z</time>
      </trkpt>
      <trkpt lat="49.85966" lon="2.10498">
        <ele>126.2</ele>
        <time>2022-03-23T15:06:14Z</time>
      </trkpt>
      <trkpt lat="49.85966" lon="2.10498">
        <ele>126.2</ele>
        <time>2022-03-23T15:06:15Z</time>
      </trkpt>
      <trkpt lat="49.85966" lon="2.10498">
        <ele>126.2</ele>
        <time>2022-03-23T15:06:16Z</time>
      </trkpt>
      <trkpt lat="49.85966" lon="2.10498">
        <ele>126.2</ele>
        <time>2022-03-23T15:06:17Z</time>
      </trkpt>
      <trkpt lat="49.85966" lon="2.10498">
        <ele>126.2</ele>
        <time>2022-03-23T15:06:18Z</time>
      </trkpt>
      <trkpt lat="49.85966" lon="2.10498">
        <ele>126.2</ele>
        <time>2022-03-23T15:06:19Z</time>
      </trkpt>
      <trkpt lat="49.85966" lon="2.10498">
        <ele>126.2</ele>
        <time>2022-03-23T15:06:20Z</time>
      </trkpt>
      <trkpt lat="49.85966" lon="2.10498">
        <ele>126.2</ele>
        <time>2022-03-23T15:06:21Z</time>
      </trkpt>
      <trkpt lat="49.85966" lon="2.10498">
        <ele>126.2</ele>
        <time>2022-03-23T15:06:22Z</time>
      </trkpt>
      <trkpt lat="49.85966" lon="2.10498">
        <ele>126.2</ele>
        <time>2022-03-23T15:06:23Z</time>
      </trkpt>
      <trkpt lat="49.85966" lon="2.10498">
        <ele>126.2</ele>
        <time>2022-03-23T15:06:24Z</time>
      </trkpt>
      <trkpt lat="49.85966" lon="2.10498">
        <ele>126.2</ele>
        <time>2022-03-23T15:06:25Z</time>
      </trkpt>
      <trkpt lat="49.85966" lon="2.10498">
        <ele>126.2</ele>
        <time>2022-03-23T15:06:26Z</time>
      </trkpt>
      <trkpt lat="49.85966" lon="2.10498">
        <ele>126.2</ele>
        <time>2022-03-23T15:06:27Z</time>
      </trkpt>
      <trkpt lat="49.85966" lon="2.10498">
        <ele>126.2</ele>
        <time>2022-03-23T15:06:28Z</time>
      </trkpt>
      <trkpt lat="49.85966" lon="2.10498">
        <ele>126.2</ele>
        <time>2022-03-23T15:06:29Z</time>
      </trkpt>
      <trkpt lat="49.85966" lon="2.10498">
        <ele>126.2</ele>
        <time>2022-03-23T15:06:30Z</time>
      </trkpt>
      <trkpt lat="49.85966" lon="2.10498">
        <ele>126.2</ele>
        <time>2022-03-23T15:06:31Z</time>
      </trkpt>
      <trkpt lat="49.85966" lon="2.10498">
        <ele>126.2</ele>
        <time>2022-03-23T15:06:32Z</time>
      </trkpt>
      <trkpt lat="49.85966" lon="2.10498">
        <ele>126.2</ele>
        <time>2022-03-23T15:06:33Z</time>
      </trkpt>
      <trkpt lat="49.85966" lon="2.10498">
        <ele>126.2</ele>
        <time>2022-03-23T15:06:34Z</time>
      </trkpt>
      <trkpt lat="49.85966" lon="2.10498">
        <ele>126.2</ele>
        <time>2022-03-23T15:06:35Z</time>
      </trkpt>
      <trkpt lat="49.85966" lon="2.10498">
        <ele>126.2</ele>
        <time>2022-03-23T15:06:36Z</time>
      </trkpt>
      <trkpt lat="49.85966" lon="2.10498">
        <ele>126.2</ele>
        <time>2022-03-23T15:06:37Z</time>
      </trkpt>
      <trkpt lat="49.85966" lon="2.10498">
        <ele>126.2</ele>
        <time>2022-03-23T15:06:38Z</time>
      </trkpt>
      <trkpt lat="49.85966" lon="2.10498">
        <ele>126.2</ele>
        <time>2022-03-23T15:06:39Z</time>
      </trkpt>
      <trkpt lat="49.85966" lon="2.10498">
        <ele>126.2</ele>
        <time>2022-03-23T15:06:40Z</time>
      </trkpt>
      <trkpt lat="49.85966" lon="2.10498">
        <ele>126.2</ele>
        <time>2022-03-23T15:06:41Z</time>
      </trkpt>
      <trkpt lat="49.85966" lon="2.10498">
        <ele>126.2</ele>
        <time>2022-03-23T15:06:42Z</time>
      </trkpt>
      <trkpt lat="49.85966" lon="2.10498">
        <ele>126.2</ele>
        <time>2022-03-23T15:06:43Z</time>
      </trkpt>
      <trkpt lat="49.85966" lon="2.10498">
        <ele>126.2</ele>
        <time>2022-03-23T15:06:44Z</time>
      </trkpt>
      <trkpt lat="49.85966" lon="2.10498">
        <ele>126.2</ele>
        <time>2022-03-23T15:06:45Z</time>
      </trkpt>
      <trkpt lat="49.85966" lon="2.10498">
        <ele>126.2</ele>
        <time>2022-03-23T15:06:46Z</time>
      </trkpt>
      <trkpt lat="49.85966" lon="2.10498">
        <ele>126.2</ele>
        <time>2022-03-23T15:06:47Z</time>
      </trkpt>
      <trkpt lat="49.85966" lon="2.10498">
        <ele>126.2</ele>
        <time>2022-03-23T15:06:48Z</time>
      </trkpt>
      <trkpt lat="49.85966" lon="2.10498">
        <ele>126.2</ele>
        <time>2022-03-23T15:06:49Z</time>
      </trkpt>
      <trkpt lat="49.85966" lon="2.10498">
        <ele>126.2</ele>
        <time>2022-03-23T15:06:50Z</time>
      </trkpt>
      <trkpt lat="49.85966" lon="2.10498">
        <ele>126.2</ele>
        <time>2022-03-23T15:06:51Z</time>
      </trkpt>
      <trkpt lat="49.85966" lon="2.10498">
        <ele>126.2</ele>
        <time>2022-03-23T15:06:52Z</time>
      </trkpt>
      <trkpt lat="49.85966" lon="2.10498">
        <ele>126.2</ele>
        <time>2022-03-23T15:06:53Z</time>
      </trkpt>
      <trkpt lat="49.85966" lon="2.10498">
        <ele>126.2</ele>
        <time>2022-03-23T15:06:54Z</time>
      </trkpt>
      <trkpt lat="49.85966" lon="2.10498">
        <ele>126.2</ele>
        <time>2022-03-23T15:06:55Z</time>
      </trkpt>
      <trkpt lat="49.85966" lon="2.10498">
        <ele>126.2</ele>
        <time>2022-03-23T15:06:56Z</time>
      </trkpt>
      <trkpt lat="49.85966" lon="2.10498">
        <ele>126.2</ele>
        <time>2022-03-23T15:06:57Z</time>
      </trkpt>
      <trkpt lat="49.85966" lon="2.10498">
        <ele>126.2</ele>
        <time>2022-03-23T15:06:58Z</time>
      </trkpt>
      <trkpt lat="49.85966" lon="2.10498">
        <ele>126.2</ele>
        <time>2022-03-23T15:06:59Z</time>
      </trkpt>
      <trkpt lat="49.85965" lon="2.10495">
        <ele>126.2</ele>
        <time>2022-03-23T15:07:00Z</time>
      </trkpt>
      <trkpt lat="49.85965" lon="2.10494">
        <ele>126.2</ele>
        <time>2022-03-23T15:07:01Z</time>
      </trkpt>
      <trkpt lat="49.85965" lon="2.10494">
        <ele>126.2</ele>
        <time>2022-03-23T15:07:02Z</time>
      </trkpt>
      <trkpt lat="49.85965" lon="2.10494">
        <ele>126.2</ele>
        <time>2022-03-23T15:07:03Z</time>
      </trkpt>
      <trkpt lat="49.85966" lon="2.10494">
        <ele>126.2</ele>
        <time>2022-03-23T15:07:04Z</time>
      </trkpt>
      <trkpt lat="49.85966" lon="2.10494">
        <ele>126.2</ele>
        <time>2022-03-23T15:07:05Z</time>
      </trkpt>
      <trkpt lat="49.85966" lon="2.10494">
        <ele>126.2</ele>
        <time>2022-03-23T15:07:06Z</time>
      </trkpt>
      <trkpt lat="49.85966" lon="2.10494">
        <ele>126.2</ele>
        <time>2022-03-23T15:07:07Z</time>
      </trkpt>
      <trkpt lat="49.85966" lon="2.10494">
        <ele>126.2</ele>
        <time>2022-03-23T15:07:08Z</time>
      </trkpt>
      <trkpt lat="49.85966" lon="2.10494">
        <ele>126.2</ele>
        <time>2022-03-23T15:07:09Z</time>
      </trkpt>
      <trkpt lat="49.85966" lon="2.10494">
        <ele>126.2</ele>
        <time>2022-03-23T15:07:10Z</time>
      </trkpt>
      <trkpt lat="49.85966" lon="2.10494">
        <ele>126.2</ele>
        <time>2022-03-23T15:07:11Z</time>
      </trkpt>
      <trkpt lat="49.85966" lon="2.10494">
        <ele>126.2</ele>
        <time>2022-03-23T15:07:12Z</time>
      </trkpt>
      <trkpt lat="49.85966" lon="2.10494">
        <ele>126.2</ele>
        <time>2022-03-23T15:07:13Z</time>
      </trkpt>
      <trkpt lat="49.85966" lon="2.10494">
        <ele>126.2</ele>
        <time>2022-03-23T15:07:14Z</time>
      </trkpt>
      <trkpt lat="49.85966" lon="2.10494">
        <ele>126.2</ele>
        <time>2022-03-23T15:07:15Z</time>
      </trkpt>
      <trkpt lat="49.85966" lon="2.10494">
        <ele>126.2</ele>
        <time>2022-03-23T15:07:16Z</time>
      </trkpt>
      <trkpt lat="49.85966" lon="2.10494">
        <ele>126.2</ele>
        <time>2022-03-23T15:07:17Z</time>
      </trkpt>
      <trkpt lat="49.85966" lon="2.10494">
        <ele>126.2</ele>
        <time>2022-03-23T15:07:18Z</time>
      </trkpt>
      <trkpt lat="49.85966" lon="2.10494">
        <ele>126.2</ele>
        <time>2022-03-23T15:07:19Z</time>
      </trkpt>
      <trkpt lat="49.85966" lon="2.10494">
        <ele>126.2</ele>
        <time>2022-03-23T15:07:20Z</time>
      </trkpt>
      <trkpt lat="49.85966" lon="2.10494">
        <ele>126.2</ele>
        <time>2022-03-23T15:07:21Z</time>
      </trkpt>
      <trkpt lat="49.85966" lon="2.10494">
        <ele>126.2</ele>
        <time>2022-03-23T15:07:22Z</time>
      </trkpt>
      <trkpt lat="49.85967" lon="2.10494">
        <ele>126.2</ele>
        <time>2022-03-23T15:07:23Z</time>
      </trkpt>
      <trkpt lat="49.85967" lon="2.10494">
        <ele>126.2</ele>
        <time>2022-03-23T15:07:24Z</time>
      </trkpt>
      <trkpt lat="49.85967" lon="2.10494">
        <ele>126.2</ele>
        <time>2022-03-23T15:07:25Z</time>
      </trkpt>
      <trkpt lat="49.85967" lon="2.10494">
        <ele>126.2</ele>
        <time>2022-03-23T15:07:26Z</time>
      </trkpt>
      <trkpt lat="49.85967" lon="2.10494">
        <ele>126.2</ele>
        <time>2022-03-23T15:07:27Z</time>
      </trkpt>
      <trkpt lat="49.85967" lon="2.10494">
        <ele>126.2</ele>
        <time>2022-03-23T15:07:28Z</time>
      </trkpt>
      <trkpt lat="49.85967" lon="2.10494">
        <ele>126.2</ele>
        <time>2022-03-23T15:07:29Z</time>
      </trkpt>
      <trkpt lat="49.85967" lon="2.10494">
        <ele>126.2</ele>
        <time>2022-03-23T15:07:30Z</time>
      </trkpt>
      <trkpt lat="49.85967" lon="2.10494">
        <ele>126.2</ele>
        <time>2022-03-23T15:07:31Z</time>
      </trkpt>
      <trkpt lat="49.85967" lon="2.10493">
        <ele>126.2</ele>
        <time>2022-03-23T15:07:32Z</time>
      </trkpt>
      <trkpt lat="49.85967" lon="2.10493">
        <ele>126.2</ele>
        <time>2022-03-23T15:07:33Z</time>
      </trkpt>
      <trkpt lat="49.85967" lon="2.10493">
        <ele>126.2</ele>
        <time>2022-03-23T15:07:34Z</time>
      </trkpt>
      <trkpt lat="49.85967" lon="2.10493">
        <ele>126.2</ele>
        <time>2022-03-23T15:07:35Z</time>
      </trkpt>
      <trkpt lat="49.85967" lon="2.10493">
        <ele>126.2</ele>
        <time>2022-03-23T15:07:36Z</time>
      </trkpt>
      <trkpt lat="49.85967" lon="2.10493">
        <ele>126.2</ele>
        <time>2022-03-23T15:07:37Z</time>
      </trkpt>
      <trkpt lat="49.85967" lon="2.10493">
        <ele>126.2</ele>
        <time>2022-03-23T15:07:38Z</time>
      </trkpt>
      <trkpt lat="49.85967" lon="2.10493">
        <ele>126.2</ele>
        <time>2022-03-23T15:07:39Z</time>
      </trkpt>
      <trkpt lat="49.85967" lon="2.10493">
        <ele>126.2</ele>
        <time>2022-03-23T15:07:40Z</time>
      </trkpt>
      <trkpt lat="49.85968" lon="2.10493">
        <ele>126.2</ele>
        <time>2022-03-23T15:07:41Z</time>
      </trkpt>
      <trkpt lat="49.85968" lon="2.10493">
        <ele>126.2</ele>
        <time>2022-03-23T15:07:42Z</time>
      </trkpt>
      <trkpt lat="49.85968" lon="2.10493">
        <ele>126.2</ele>
        <time>2022-03-23T15:07:43Z</time>
      </trkpt>
      <trkpt lat="49.85968" lon="2.10493">
        <ele>126.2</ele>
        <time>2022-03-23T15:07:44Z</time>
      </trkpt>
      <trkpt lat="49.85968" lon="2.10493">
        <ele>126.2</ele>
        <time>2022-03-23T15:07:45Z</time>
      </trkpt>
      <trkpt lat="49.85968" lon="2.10493">
        <ele>126.2</ele>
        <time>2022-03-23T15:07:46Z</time>
      </trkpt>
      <trkpt lat="49.85968" lon="2.10493">
        <ele>126.2</ele>
        <time>2022-03-23T15:07:47Z</time>
      </trkpt>
      <trkpt lat="49.85968" lon="2.10493">
        <ele>126.2</ele>
        <time>2022-03-23T15:07:48Z</time>
      </trkpt>
      <trkpt lat="49.85968" lon="2.10493">
        <ele>126.2</ele>
        <time>2022-03-23T15:07:49Z</time>
      </trkpt>
      <trkpt lat="49.85968" lon="2.10493">
        <ele>126.2</ele>
        <time>2022-03-23T15:07:50Z</time>
      </trkpt>
      <trkpt lat="49.85968" lon="2.10493">
        <ele>126.2</ele>
        <time>2022-03-23T15:07:51Z</time>
      </trkpt>
      <trkpt lat="49.85968" lon="2.10493">
        <ele>126.2</ele>
        <time>2022-03-23T15:07:52Z</time>
      </trkpt>
      <trkpt lat="49.85968" lon="2.10493">
        <ele>126.2</ele>
        <time>2022-03-23T15:07:53Z</time>
      </trkpt>
      <trkpt lat="49.85968" lon="2.10493">
        <ele>126.2</ele>
        <time>2022-03-23T15:07:54Z</time>
      </trkpt>
      <trkpt lat="49.85968" lon="2.10493">
        <ele>126.2</ele>
        <time>2022-03-23T15:07:55Z</time>
      </trkpt>
      <trkpt lat="49.85968" lon="2.10493">
        <ele>126.2</ele>
        <time>2022-03-23T15:07:56Z</time>
      </trkpt>
      <trkpt lat="49.85968" lon="2.10493">
        <ele>126.2</ele>
        <time>2022-03-23T15:07:57Z</time>
      </trkpt>
      <trkpt lat="49.85968" lon="2.10493">
        <ele>126.2</ele>
        <time>2022-03-23T15:07:58Z</time>
      </trkpt>
      <trkpt lat="49.85968" lon="2.10493">
        <ele>126.2</ele>
        <time>2022-03-23T15:07:59Z</time>
      </trkpt>
      <trkpt lat="49.85969" lon="2.10493">
        <ele>126.2</ele>
        <time>2022-03-23T15:08:00Z</time>
      </trkpt>
      <trkpt lat="49.85969" lon="2.10493">
        <ele>126.2</ele>
        <time>2022-03-23T15:08:01Z</time>
      </trkpt>
      <trkpt lat="49.85969" lon="2.10493">
        <ele>126.2</ele>
        <time>2022-03-23T15:08:02Z</time>
      </trkpt>
      <trkpt lat="49.85969" lon="2.10493">
        <ele>126.2</ele>
        <time>2022-03-23T15:08:03Z</time>
      </trkpt>
      <trkpt lat="49.85969" lon="2.10493">
        <ele>126.2</ele>
        <time>2022-03-23T15:08:04Z</time>
      </trkpt>
      <trkpt lat="49.85969" lon="2.10494">
        <ele>126.2</ele>
        <time>2022-03-23T15:08:05Z</time>
      </trkpt>
      <trkpt lat="49.8597" lon="2.10494">
        <ele>126.2</ele>
        <time>2022-03-23T15:08:06Z</time>
      </trkpt>
      <trkpt lat="49.85971" lon="2.10494">
        <ele>126.2</ele>
        <time>2022-03-23T15:08:07Z</time>
      </trkpt>
      <trkpt lat="49.85971" lon="2.10494">
        <ele>126.2</ele>
        <time>2022-03-23T15:08:08Z</time>
      </trkpt>
      <trkpt lat="49.85971" lon="2.10495">
        <ele>126.2</ele>
        <time>2022-03-23T15:08:09Z</time>
      </trkpt>
      <trkpt lat="49.85972" lon="2.10496">
        <ele>126.2</ele>
        <time>2022-03-23T15:08:11Z</time>
      </trkpt>
      <trkpt lat="49.85973" lon="2.10496">
        <ele>126.2</ele>
        <time>2022-03-23T15:08:12Z</time>
      </trkpt>
      <trkpt lat="49.85974" lon="2.10496">
        <ele>126.2</ele>
        <time>2022-03-23T15:08:14Z</time>
      </trkpt>
      <trkpt lat="49.85975" lon="2.10496">
        <ele>126.2</ele>
        <time>2022-03-23T15:08:15Z</time>
      </trkpt>
      <trkpt lat="49.85976" lon="2.10497">
        <ele>126.2</ele>
        <time>2022-03-23T15:08:16Z</time>
      </trkpt>
      <trkpt lat="49.85976" lon="2.10497">
        <ele>126.2</ele>
        <time>2022-03-23T15:08:17Z</time>
      </trkpt>
      <trkpt lat="49.85977" lon="2.10498">
        <ele>126.2</ele>
        <time>2022-03-23T15:08:18Z</time>
      </trkpt>
      <trkpt lat="49.85979" lon="2.10501">
        <ele>126.2</ele>
        <time>2022-03-23T15:08:19Z</time>
      </trkpt>
      <trkpt lat="49.8598" lon="2.10502">
        <ele>126.2</ele>
        <time>2022-03-23T15:08:21Z</time>
      </trkpt>
      <trkpt lat="49.85981" lon="2.10503">
        <ele>126.2</ele>
        <time>2022-03-23T15:08:22Z</time>
      </trkpt>
      <trkpt lat="49.85981" lon="2.10505">
        <ele>126.2</ele>
        <time>2022-03-23T15:08:23Z</time>
      </trkpt>
      <trkpt lat="49.85982" lon="2.10506">
        <ele>126.2</ele>
        <time>2022-03-23T15:08:24Z</time>
      </trkpt>
      <trkpt lat="49.85983" lon="2.10507">
        <ele>126.2</ele>
        <time>2022-03-23T15:08:25Z</time>
      </trkpt>
      <trkpt lat="49.85985" lon="2.10509">
        <ele>126.2</ele>
        <time>2022-03-23T15:08:26Z</time>
      </trkpt>
      <trkpt lat="49.85986" lon="2.10511">
        <ele>126.2</ele>
        <time>2022-03-23T15:08:27Z</time>
      </trkpt>
      <trkpt lat="49.85987" lon="2.10512">
        <ele>126.2</ele>
        <time>2022-03-23T15:08:29Z</time>
      </trkpt>
      <trkpt lat="49.85988" lon="2.10514">
        <ele>126.2</ele>
        <time>2022-03-23T15:08:30Z</time>
      </trkpt>
      <trkpt lat="49.85989" lon="2.10515">
        <ele>126.2</ele>
        <time>2022-03-23T15:08:31Z</time>
      </trkpt>
      <trkpt lat="49.8599" lon="2.10517">
        <ele>126.2</ele>
        <time>2022-03-23T15:08:32Z</time>
      </trkpt>
      <trkpt lat="49.85991" lon="2.10519">
        <ele>126.2</ele>
        <time>2022-03-23T15:08:33Z</time>
      </trkpt>
      <trkpt lat="49.85993" lon="2.10521">
        <ele>126.2</ele>
        <time>2022-03-23T15:08:34Z</time>
      </trkpt>
      <trkpt lat="49.85993" lon="2.10521">
        <ele>126.2</ele>
        <time>2022-03-23T15:08:36Z</time>
      </trkpt>
      <trkpt lat="49.85994" lon="2.10522">
        <ele>126.2</ele>
        <time>2022-03-23T15:08:37Z</time>
      </trkpt>
      <trkpt lat="49.85996" lon="2.10523">
        <ele>126.2</ele>
        <time>2022-03-23T15:08:38Z</time>
      </trkpt>
      <trkpt lat="49.85997" lon="2.10524">
        <ele>126.2</ele>
        <time>2022-03-23T15:08:40Z</time>
      </trkpt>
      <trkpt lat="49.85998" lon="2.10524">
        <ele>126.2</ele>
        <time>2022-03-23T15:08:41Z</time>
      </trkpt>
      <trkpt lat="49.86" lon="2.10525">
        <ele>126.2</ele>
        <time>2022-03-23T15:08:42Z</time>
      </trkpt>
      <trkpt lat="49.86001" lon="2.10526">
        <ele>126.2</ele>
        <time>2022-03-23T15:08:43Z</time>
      </trkpt>
      <trkpt lat="49.86002" lon="2.10526">
        <ele>126.2</ele>
        <time>2022-03-23T15:08:44Z</time>
      </trkpt>
      <trkpt lat="49.86003" lon="2.10527">
        <ele>126.2</ele>
        <time>2022-03-23T15:08:45Z</time>
      </trkpt>
      <trkpt lat="49.86004" lon="2.10528">
        <ele>126.2</ele>
        <time>2022-03-23T15:08:46Z</time>
      </trkpt>
      <trkpt lat="49.86005" lon="2.10529">
        <ele>126.2</ele>
        <time>2022-03-23T15:08:47Z</time>
      </trkpt>
      <trkpt lat="49.86006" lon="2.10531">
        <ele>126.2</ele>
        <time>2022-03-23T15:08:49Z</time>
      </trkpt>
      <trkpt lat="49.86007" lon="2.10532">
        <ele>126.2</ele>
        <time>2022-03-23T15:08:50Z</time>
      </trkpt>
      <trkpt lat="49.86008" lon="2.10532">
        <ele>126.2</ele>
        <time>2022-03-23T15:08:51Z</time>
      </trkpt>
      <trkpt lat="49.8601" lon="2.10533">
        <ele>126.2</ele>
        <time>2022-03-23T15:08:52Z</time>
      </trkpt>
      <trkpt lat="49.86011" lon="2.10533">
        <ele>126.2</ele>
        <time>2022-03-23T15:08:53Z</time>
      </trkpt>
      <trkpt lat="49.86012" lon="2.10533">
        <ele>126.2</ele>
        <time>2022-03-23T15:08:54Z</time>
      </trkpt>
      <trkpt lat="49.86013" lon="2.10534">
        <ele>126.2</ele>
        <time>2022-03-23T15:08:56Z</time>
      </trkpt>
      <trkpt lat="49.86014" lon="2.10534">
        <ele>126.2</ele>
        <time>2022-03-23T15:08:57Z</time>
      </trkpt>
      <trkpt lat="49.86015" lon="2.10534">
        <ele>126.2</ele>
        <time>2022-03-23T15:08:58Z</time>
      </trkpt>
      <trkpt lat="49.86017" lon="2.10534">
        <ele>126.2</ele>
        <time>2022-03-23T15:08:59Z</time>
      </trkpt>
      <trkpt lat="49.86018" lon="2.10535">
        <ele>126.2</ele>
        <time>2022-03-23T15:09:00Z</time>
      </trkpt>
      <trkpt lat="49.86019" lon="2.10535">
        <ele>126.2</ele>
        <time>2022-03-23T15:09:01Z</time>
      </trkpt>
      <trkpt lat="49.8602" lon="2.10535">
        <ele>126.2</ele>
        <time>2022-03-23T15:09:02Z</time>
      </trkpt>
      <trkpt lat="49.86021" lon="2.10535">
        <ele>126.2</ele>
        <time>2022-03-23T15:09:04Z</time>
      </trkpt>
      <trkpt lat="49.86022" lon="2.10535">
        <ele>126.2</ele>
        <time>2022-03-23T15:09:05Z</time>
      </trkpt>
      <trkpt lat="49.86023" lon="2.10535">
        <ele>126.2</ele>
        <time>2022-03-23T15:09:06Z</time>
      </trkpt>
      <trkpt lat="49.86024" lon="2.10536">
        <ele>126.2</ele>
        <time>2022-03-23T15:09:07Z</time>
      </trkpt>
      <trkpt lat="49.86025" lon="2.10536">
        <ele>126.2</ele>
        <time>2022-03-23T15:09:08Z</time>
      </trkpt>
      <trkpt lat="49.86026" lon="2.10536">
        <ele>126.1</ele>
        <time>2022-03-23T15:09:09Z</time>
      </trkpt>
      <trkpt lat="49.86028" lon="2.10536">
        <ele>126.1</ele>
        <time>2022-03-23T15:09:10Z</time>
      </trkpt>
      <trkpt lat="49.86029" lon="2.10536">
        <ele>126.1</ele>
        <time>2022-03-23T15:09:11Z</time>
      </trkpt>
      <trkpt lat="49.8603" lon="2.10536">
        <ele>126.1</ele>
        <time>2022-03-23T15:09:13Z</time>
      </trkpt>
      <trkpt lat="49.86031" lon="2.10536">
        <ele>126.1</ele>
        <time>2022-03-23T15:09:14Z</time>
      </trkpt>
      <trkpt lat="49.86032" lon="2.10535">
        <ele>126.1</ele>
        <time>2022-03-23T15:09:15Z</time>
      </trkpt>
      <trkpt lat="49.86034" lon="2.10535">
        <ele>126.1</ele>
        <time>2022-03-23T15:09:16Z</time>
      </trkpt>
      <trkpt lat="49.86035" lon="2.10535">
        <ele>126.1</ele>
        <time>2022-03-23T15:09:17Z</time>
      </trkpt>
      <trkpt lat="49.86036" lon="2.10534">
        <ele>126.1</ele>
        <time>2022-03-23T15:09:18Z</time>
      </trkpt>
      <trkpt lat="49.86037" lon="2.10534">
        <ele>126.1</ele>
        <time>2022-03-23T15:09:19Z</time>
      </trkpt>
      <trkpt lat="49.86038" lon="2.10534">
        <ele>126.1</ele>
        <time>2022-03-23T15:09:20Z</time>
      </trkpt>
      <trkpt lat="49.86039" lon="2.10534">
        <ele>126.1</ele>
        <time>2022-03-23T15:09:21Z</time>
      </trkpt>
      <trkpt lat="49.8604" lon="2.10534">
        <ele>126.1</ele>
        <time>2022-03-23T15:09:22Z</time>
      </trkpt>
      <trkpt lat="49.86041" lon="2.10534">
        <ele>126.1</ele>
        <time>2022-03-23T15:09:24Z</time>
      </trkpt>
      <trkpt lat="49.86043" lon="2.10533">
        <ele>126.1</ele>
        <time>2022-03-23T15:09:25Z</time>
      </trkpt>
      <trkpt lat="49.86044" lon="2.10533">
        <ele>126.1</ele>
        <time>2022-03-23T15:09:26Z</time>
      </trkpt>
      <trkpt lat="49.86045" lon="2.10533">
        <ele>126.1</ele>
        <time>2022-03-23T15:09:27Z</time>
      </trkpt>
      <trkpt lat="49.86046" lon="2.10534">
        <ele>126</ele>
        <time>2022-03-23T15:09:28Z</time>
      </trkpt>
      <trkpt lat="49.86046" lon="2.10534">
        <ele>126</ele>
        <time>2022-03-23T15:09:29Z</time>
      </trkpt>
      <trkpt lat="49.86047" lon="2.10534">
        <ele>126</ele>
        <time>2022-03-23T15:09:30Z</time>
      </trkpt>
      <trkpt lat="49.86048" lon="2.10534">
        <ele>126</ele>
        <time>2022-03-23T15:09:31Z</time>
      </trkpt>
      <trkpt lat="49.8605" lon="2.10534">
        <ele>126</ele>
        <time>2022-03-23T15:09:32Z</time>
      </trkpt>
      <trkpt lat="49.86051" lon="2.10534">
        <ele>126</ele>
        <time>2022-03-23T15:09:34Z</time>
      </trkpt>
      <trkpt lat="49.86053" lon="2.10534">
        <ele>126</ele>
        <time>2022-03-23T15:09:35Z</time>
      </trkpt>
      <trkpt lat="49.86054" lon="2.10534">
        <ele>126</ele>
        <time>2022-03-23T15:09:36Z</time>
      </trkpt>
      <trkpt lat="49.86055" lon="2.10534">
        <ele>126</ele>
        <time>2022-03-23T15:09:37Z</time>
      </trkpt>
      <trkpt lat="49.86056" lon="2.10534">
        <ele>126</ele>
        <time>2022-03-23T15:09:38Z</time>
      </trkpt>
      <trkpt lat="49.86057" lon="2.10533">
        <ele>126</ele>
        <time>2022-03-23T15:09:39Z</time>
      </trkpt>
      <trkpt lat="49.86059" lon="2.10533">
        <ele>126</ele>
        <time>2022-03-23T15:09:40Z</time>
      </trkpt>
      <trkpt lat="49.8606" lon="2.10533">
        <ele>126</ele>
        <time>2022-03-23T15:09:41Z</time>
      </trkpt>
      <trkpt lat="49.86061" lon="2.10532">
        <ele>126</ele>
        <time>2022-03-23T15:09:42Z</time>
      </trkpt>
      <trkpt lat="49.86063" lon="2.10532">
        <ele>126</ele>
        <time>2022-03-23T15:09:44Z</time>
      </trkpt>
      <trkpt lat="49.86064" lon="2.10532">
        <ele>126</ele>
        <time>2022-03-23T15:09:45Z</time>
      </trkpt>
      <trkpt lat="49.86064" lon="2.10531">
        <ele>126</ele>
        <time>2022-03-23T15:09:46Z</time>
      </trkpt>
      <trkpt lat="49.86064" lon="2.1053">
        <ele>126</ele>
        <time>2022-03-23T15:09:47Z</time>
      </trkpt>
      <trkpt lat="49.86065" lon="2.1053">
        <ele>125.9</ele>
        <time>2022-03-23T15:09:48Z</time>
      </trkpt>
      <trkpt lat="49.86068" lon="2.1053">
        <ele>125.9</ele>
        <time>2022-03-23T15:09:49Z</time>
      </trkpt>
      <trkpt lat="49.86069" lon="2.1053">
        <ele>125.9</ele>
        <time>2022-03-23T15:09:50Z</time>
      </trkpt>
      <trkpt lat="49.86069" lon="2.10529">
        <ele>125.9</ele>
        <time>2022-03-23T15:09:51Z</time>
      </trkpt>
      <trkpt lat="49.86072" lon="2.10529">
        <ele>125.9</ele>
        <time>2022-03-23T15:09:52Z</time>
      </trkpt>
      <trkpt lat="49.86072" lon="2.10529">
        <ele>125.9</ele>
        <time>2022-03-23T15:09:54Z</time>
      </trkpt>
      <trkpt lat="49.86073" lon="2.10529">
        <ele>125.9</ele>
        <time>2022-03-23T15:09:55Z</time>
      </trkpt>
      <trkpt lat="49.86075" lon="2.10529">
        <ele>125.9</ele>
        <time>2022-03-23T15:09:56Z</time>
      </trkpt>
      <trkpt lat="49.86076" lon="2.10529">
        <ele>125.8</ele>
        <time>2022-03-23T15:09:57Z</time>
      </trkpt>
      <trkpt lat="49.86077" lon="2.10529">
        <ele>125.8</ele>
        <time>2022-03-23T15:09:58Z</time>
      </trkpt>
      <trkpt lat="49.86079" lon="2.10529">
        <ele>125.8</ele>
        <time>2022-03-23T15:09:59Z</time>
      </trkpt>
      <trkpt lat="49.8608" lon="2.10529">
        <ele>125.8</ele>
        <time>2022-03-23T15:10:00Z</time>
      </trkpt>
      <trkpt lat="49.86081" lon="2.10529">
        <ele>125.8</ele>
        <time>2022-03-23T15:10:01Z</time>
      </trkpt>
      <trkpt lat="49.86083" lon="2.1053">
        <ele>125.8</ele>
        <time>2022-03-23T15:10:03Z</time>
      </trkpt>
      <trkpt lat="49.86083" lon="2.10529">
        <ele>125.8</ele>
        <time>2022-03-23T15:10:04Z</time>
      </trkpt>
      <trkpt lat="49.86084" lon="2.10529">
        <ele>125.8</ele>
        <time>2022-03-23T15:10:05Z</time>
      </trkpt>
      <trkpt lat="49.86085" lon="2.10529">
        <ele>125.8</ele>
        <time>2022-03-23T15:10:06Z</time>
      </trkpt>
      <trkpt lat="49.86086" lon="2.10529">
        <ele>125.8</ele>
        <time>2022-03-23T15:10:07Z</time>
      </trkpt>
      <trkpt lat="49.86088" lon="2.10529">
        <ele>125.8</ele>
        <time>2022-03-23T15:10:08Z</time>
      </trkpt>
      <trkpt lat="49.86089" lon="2.10529">
        <ele>125.8</ele>
        <time>2022-03-23T15:10:09Z</time>
      </trkpt>
      <trkpt lat="49.8609" lon="2.10528">
        <ele>125.7</ele>
        <time>2022-03-23T15:10:11Z</time>
      </trkpt>
      <trkpt lat="49.86091" lon="2.10528">
        <ele>125.7</ele>
        <time>2022-03-23T15:10:12Z</time>
      </trkpt>
      <trkpt lat="49.86092" lon="2.10528">
        <ele>125.7</ele>
        <time>2022-03-23T15:10:13Z</time>
      </trkpt>
      <trkpt lat="49.86093" lon="2.10528">
        <ele>125.7</ele>
        <time>2022-03-23T15:10:14Z</time>
      </trkpt>
      <trkpt lat="49.86095" lon="2.10528">
        <ele>125.7</ele>
        <time>2022-03-23T15:10:15Z</time>
      </trkpt>
      <trkpt lat="49.86096" lon="2.10528">
        <ele>125.7</ele>
        <time>2022-03-23T15:10:16Z</time>
      </trkpt>
      <trkpt lat="49.86097" lon="2.10528">
        <ele>125.7</ele>
        <time>2022-03-23T15:10:17Z</time>
      </trkpt>
      <trkpt lat="49.86099" lon="2.10528">
        <ele>125.7</ele>
        <time>2022-03-23T15:10:18Z</time>
      </trkpt>
      <trkpt lat="49.861" lon="2.10528">
        <ele>125.7</ele>
        <time>2022-03-23T15:10:19Z</time>
      </trkpt>
      <trkpt lat="49.86101" lon="2.10528">
        <ele>125.6</ele>
        <time>2022-03-23T15:10:20Z</time>
      </trkpt>
      <trkpt lat="49.86103" lon="2.10527">
        <ele>125.6</ele>
        <time>2022-03-23T15:10:22Z</time>
      </trkpt>
      <trkpt lat="49.86103" lon="2.10527">
        <ele>125.6</ele>
        <time>2022-03-23T15:10:23Z</time>
      </trkpt>
      <trkpt lat="49.86104" lon="2.10527">
        <ele>125.6</ele>
        <time>2022-03-23T15:10:24Z</time>
      </trkpt>
      <trkpt lat="49.86106" lon="2.10527">
        <ele>125.6</ele>
        <time>2022-03-23T15:10:25Z</time>
      </trkpt>
      <trkpt lat="49.86107" lon="2.10527">
        <ele>125.6</ele>
        <time>2022-03-23T15:10:26Z</time>
      </trkpt>
      <trkpt lat="49.86108" lon="2.10527">
        <ele>125.6</ele>
        <time>2022-03-23T15:10:27Z</time>
      </trkpt>
      <trkpt lat="49.86109" lon="2.10527">
        <ele>125.6</ele>
        <time>2022-03-23T15:10:28Z</time>
      </trkpt>
      <trkpt lat="49.86111" lon="2.10526">
        <ele>125.6</ele>
        <time>2022-03-23T15:10:29Z</time>
      </trkpt>
      <trkpt lat="49.86112" lon="2.10526">
        <ele>125.5</ele>
        <time>2022-03-23T15:10:30Z</time>
      </trkpt>
      <trkpt lat="49.86113" lon="2.10526">
        <ele>125.5</ele>
        <time>2022-03-23T15:10:31Z</time>
      </trkpt>
      <trkpt lat="49.86115" lon="2.10525">
        <ele>125.5</ele>
        <time>2022-03-23T15:10:33Z</time>
      </trkpt>
      <trkpt lat="49.86116" lon="2.10525">
        <ele>125.5</ele>
        <time>2022-03-23T15:10:34Z</time>
      </trkpt>
      <trkpt lat="49.86118" lon="2.10525">
        <ele>125.5</ele>
        <time>2022-03-23T15:10:35Z</time>
      </trkpt>
      <trkpt lat="49.8612" lon="2.10525">
        <ele>125.5</ele>
        <time>2022-03-23T15:10:36Z</time>
      </trkpt>
      <trkpt lat="49.86121" lon="2.10525">
        <ele>125.4</ele>
        <time>2022-03-23T15:10:37Z</time>
      </trkpt>
      <trkpt lat="49.86122" lon="2.10525">
        <ele>125.4</ele>
        <time>2022-03-23T15:10:38Z</time>
      </trkpt>
      <trkpt lat="49.86123" lon="2.10525">
        <ele>125.4</ele>
        <time>2022-03-23T15:10:39Z</time>
      </trkpt>
      <trkpt lat="49.86124" lon="2.10525">
        <ele>125.4</ele>
        <time>2022-03-23T15:10:40Z</time>
      </trkpt>
      <trkpt lat="49.86126" lon="2.10525">
        <ele>125.4</ele>
        <time>2022-03-23T15:10:41Z</time>
      </trkpt>
      <trkpt lat="49.86127" lon="2.10525">
        <ele>125.4</ele>
        <time>2022-03-23T15:10:43Z</time>
      </trkpt>
      <trkpt lat="49.86128" lon="2.10524">
        <ele>125.4</ele>
        <time>2022-03-23T15:10:44Z</time>
      </trkpt>
      <trkpt lat="49.86129" lon="2.10524">
        <ele>125.3</ele>
        <time>2022-03-23T15:10:45Z</time>
      </trkpt>
      <trkpt lat="49.8613" lon="2.10524">
        <ele>125.3</ele>
        <time>2022-03-23T15:10:46Z</time>
      </trkpt>
      <trkpt lat="49.86131" lon="2.10523">
        <ele>125.3</ele>
        <time>2022-03-23T15:10:47Z</time>
      </trkpt>
      <trkpt lat="49.86133" lon="2.10523">
        <ele>125.3</ele>
        <time>2022-03-23T15:10:48Z</time>
      </trkpt>
      <trkpt lat="49.86134" lon="2.10522">
        <ele>125.3</ele>
        <time>2022-03-23T15:10:49Z</time>
      </trkpt>
      <trkpt lat="49.86135" lon="2.10522">
        <ele>125.3</ele>
        <time>2022-03-23T15:10:50Z</time>
      </trkpt>
      <trkpt lat="49.86136" lon="2.10522">
        <ele>125.3</ele>
        <time>2022-03-23T15:10:51Z</time>
      </trkpt>
      <trkpt lat="49.86137" lon="2.10521">
        <ele>125.3</ele>
        <time>2022-03-23T15:10:53Z</time>
      </trkpt>
      <trkpt lat="49.86139" lon="2.10521">
        <ele>125.2</ele>
        <time>2022-03-23T15:10:54Z</time>
      </trkpt>
      <trkpt lat="49.8614" lon="2.10521">
        <ele>125.2</ele>
        <time>2022-03-23T15:10:55Z</time>
      </trkpt>
      <trkpt lat="49.86141" lon="2.10521">
        <ele>125.2</ele>
        <time>2022-03-23T15:10:56Z</time>
      </trkpt>
      <trkpt lat="49.86142" lon="2.1052">
        <ele>125.2</ele>
        <time>2022-03-23T15:10:57Z</time>
      </trkpt>
      <trkpt lat="49.86144" lon="2.1052">
        <ele>125.1</ele>
        <time>2022-03-23T15:10:58Z</time>
      </trkpt>
      <trkpt lat="49.86145" lon="2.1052">
        <ele>125.1</ele>
        <time>2022-03-23T15:10:59Z</time>
      </trkpt>
      <trkpt lat="49.86145" lon="2.10519">
        <ele>125.1</ele>
        <time>2022-03-23T15:11:00Z</time>
      </trkpt>
      <trkpt lat="49.86148" lon="2.10519">
        <ele>125.1</ele>
        <time>2022-03-23T15:11:01Z</time>
      </trkpt>
      <trkpt lat="49.86148" lon="2.10519">
        <ele>125.1</ele>
        <time>2022-03-23T15:11:03Z</time>
      </trkpt>
      <trkpt lat="49.86149" lon="2.10519">
        <ele>125.1</ele>
        <time>2022-03-23T15:11:04Z</time>
      </trkpt>
      <trkpt lat="49.86151" lon="2.10519">
        <ele>125.1</ele>
        <time>2022-03-23T15:11:05Z</time>
      </trkpt>
      <trkpt lat="49.86152" lon="2.10518">
        <ele>125.1</ele>
        <time>2022-03-23T15:11:06Z</time>
      </trkpt>
      <trkpt lat="49.86153" lon="2.10518">
        <ele>125.1</ele>
        <time>2022-03-23T15:11:07Z</time>
      </trkpt>
      <trkpt lat="49.86155" lon="2.10517">
        <ele>125</ele>
        <time>2022-03-23T15:11:08Z</time>
      </trkpt>
      <trkpt lat="49.86156" lon="2.10517">
        <ele>125</ele>
        <time>2022-03-23T15:11:09Z</time>
      </trkpt>
      <trkpt lat="49.86157" lon="2.10516">
        <ele>125</ele>
        <time>2022-03-23T15:11:10Z</time>
      </trkpt>
      <trkpt lat="49.86159" lon="2.10516">
        <ele>124.9</ele>
        <time>2022-03-23T15:11:11Z</time>
      </trkpt>
      <trkpt lat="49.8616" lon="2.10515">
        <ele>124.9</ele>
        <time>2022-03-23T15:11:12Z</time>
      </trkpt>
      <trkpt lat="49.86161" lon="2.10515">
        <ele>124.9</ele>
        <time>2022-03-23T15:11:13Z</time>
      </trkpt>
      <trkpt lat="49.86162" lon="2.10515">
        <ele>124.9</ele>
        <time>2022-03-23T15:11:15Z</time>
      </trkpt>
      <trkpt lat="49.86163" lon="2.10515">
        <ele>124.9</ele>
        <time>2022-03-23T15:11:16Z</time>
      </trkpt>
      <trkpt lat="49.86164" lon="2.10514">
        <ele>124.9</ele>
        <time>2022-03-23T15:11:17Z</time>
      </trkpt>
      <trkpt lat="49.86165" lon="2.10514">
        <ele>124.9</ele>
        <time>2022-03-23T15:11:18Z</time>
      </trkpt>
      <trkpt lat="49.86166" lon="2.10514">
        <ele>124.9</ele>
        <time>2022-03-23T15:11:19Z</time>
      </trkpt>
      <trkpt lat="49.86167" lon="2.10513">
        <ele>124.8</ele>
        <time>2022-03-23T15:11:20Z</time>
      </trkpt>
      <trkpt lat="49.86169" lon="2.10513">
        <ele>124.8</ele>
        <time>2022-03-23T15:11:21Z</time>
      </trkpt>
      <trkpt lat="49.8617" lon="2.10513">
        <ele>124.8</ele>
        <time>2022-03-23T15:11:22Z</time>
      </trkpt>
      <trkpt lat="49.86171" lon="2.10512">
        <ele>124.8</ele>
        <time>2022-03-23T15:11:23Z</time>
      </trkpt>
      <trkpt lat="49.86172" lon="2.10512">
        <ele>124.8</ele>
        <time>2022-03-23T15:11:25Z</time>
      </trkpt>
      <trkpt lat="49.86174" lon="2.10512">
        <ele>124.7</ele>
        <time>2022-03-23T15:11:26Z</time>
      </trkpt>
      <trkpt lat="49.86175" lon="2.10512">
        <ele>124.7</ele>
        <time>2022-03-23T15:11:27Z</time>
      </trkpt>
      <trkpt lat="49.86175" lon="2.10512">
        <ele>124.7</ele>
        <time>2022-03-23T15:11:28Z</time>
      </trkpt>
      <trkpt lat="49.86176" lon="2.10512">
        <ele>124.7</ele>
        <time>2022-03-23T15:11:29Z</time>
      </trkpt>
      <trkpt lat="49.86177" lon="2.10512">
        <ele>124.7</ele>
        <time>2022-03-23T15:11:30Z</time>
      </trkpt>
      <trkpt lat="49.86179" lon="2.10512">
        <ele>124.7</ele>
        <time>2022-03-23T15:11:31Z</time>
      </trkpt>
      <trkpt lat="49.8618" lon="2.10512">
        <ele>124.7</ele>
        <time>2022-03-23T15:11:32Z</time>
      </trkpt>
      <trkpt lat="49.86181" lon="2.10513">
        <ele>124.6</ele>
        <time>2022-03-23T15:11:33Z</time>
      </trkpt>
      <trkpt lat="49.86182" lon="2.10513">
        <ele>124.7</ele>
        <time>2022-03-23T15:11:34Z</time>
      </trkpt>
      <trkpt lat="49.86183" lon="2.10514">
        <ele>124.7</ele>
        <time>2022-03-23T15:11:36Z</time>
      </trkpt>
      <trkpt lat="49.86184" lon="2.10514">
        <ele>124.6</ele>
        <time>2022-03-23T15:11:37Z</time>
      </trkpt>
      <trkpt lat="49.86185" lon="2.10514">
        <ele>124.6</ele>
        <time>2022-03-23T15:11:38Z</time>
      </trkpt>
      <trkpt lat="49.86187" lon="2.10514">
        <ele>124.6</ele>
        <time>2022-03-23T15:11:39Z</time>
      </trkpt>
      <trkpt lat="49.86189" lon="2.10515">
        <ele>124.6</ele>
        <time>2022-03-23T15:11:40Z</time>
      </trkpt>
      <trkpt lat="49.8619" lon="2.10515">
        <ele>124.6</ele>
        <time>2022-03-23T15:11:41Z</time>
      </trkpt>
      <trkpt lat="49.8619" lon="2.10515">
        <ele>124.6</ele>
        <time>2022-03-23T15:11:42Z</time>
      </trkpt>
      <trkpt lat="49.86192" lon="2.10515">
        <ele>124.6</ele>
        <time>2022-03-23T15:11:43Z</time>
      </trkpt>
      <trkpt lat="49.86193" lon="2.10515">
        <ele>124.5</ele>
        <time>2022-03-23T15:11:44Z</time>
      </trkpt>
      <trkpt lat="49.86195" lon="2.10515">
        <ele>124.5</ele>
        <time>2022-03-23T15:11:45Z</time>
      </trkpt>
      <trkpt lat="49.86196" lon="2.10515">
        <ele>124.5</ele>
        <time>2022-03-23T15:11:47Z</time>
      </trkpt>
      <trkpt lat="49.86197" lon="2.10515">
        <ele>124.5</ele>
        <time>2022-03-23T15:11:48Z</time>
      </trkpt>
      <trkpt lat="49.86199" lon="2.10515">
        <ele>124.5</ele>
        <time>2022-03-23T15:11:49Z</time>
      </trkpt>
      <trkpt lat="49.862" lon="2.10514">
        <ele>124.5</ele>
        <time>2022-03-23T15:11:50Z</time>
      </trkpt>
      <trkpt lat="49.86201" lon="2.10514">
        <ele>124.4</ele>
        <time>2022-03-23T15:11:51Z</time>
      </trkpt>
      <trkpt lat="49.86203" lon="2.10514">
        <ele>124.4</ele>
        <time>2022-03-23T15:11:52Z</time>
      </trkpt>
      <trkpt lat="49.86204" lon="2.10514">
        <ele>124.4</ele>
        <time>2022-03-23T15:11:53Z</time>
      </trkpt>
      <trkpt lat="49.86205" lon="2.10514">
        <ele>124.4</ele>
        <time>2022-03-23T15:11:54Z</time>
      </trkpt>
      <trkpt lat="49.86206" lon="2.10514">
        <ele>124.4</ele>
        <time>2022-03-23T15:11:55Z</time>
      </trkpt>
      <trkpt lat="49.86208" lon="2.10513">
        <ele>124.4</ele>
        <time>2022-03-23T15:11:56Z</time>
      </trkpt>
      <trkpt lat="49.86209" lon="2.10513">
        <ele>124.3</ele>
        <time>2022-03-23T15:11:58Z</time>
      </trkpt>
      <trkpt lat="49.86211" lon="2.10513">
        <ele>124.3</ele>
        <time>2022-03-23T15:11:59Z</time>
      </trkpt>
      <trkpt lat="49.86212" lon="2.10512">
        <ele>124.3</ele>
        <time>2022-03-23T15:12:00Z</time>
      </trkpt>
      <trkpt lat="49.86213" lon="2.10511">
        <ele>124.3</ele>
        <time>2022-03-23T15:12:01Z</time>
      </trkpt>
      <trkpt lat="49.86215" lon="2.10511">
        <ele>124.3</ele>
        <time>2022-03-23T15:12:02Z</time>
      </trkpt>
      <trkpt lat="49.86216" lon="2.1051">
        <ele>124.3</ele>
        <time>2022-03-23T15:12:03Z</time>
      </trkpt>
      <trkpt lat="49.86218" lon="2.1051">
        <ele>124.2</ele>
        <time>2022-03-23T15:12:04Z</time>
      </trkpt>
      <trkpt lat="49.86219" lon="2.10509">
        <ele>124.2</ele>
        <time>2022-03-23T15:12:05Z</time>
      </trkpt>
      <trkpt lat="49.86221" lon="2.10508">
        <ele>124.2</ele>
        <time>2022-03-23T15:12:06Z</time>
      </trkpt>
      <trkpt lat="49.86222" lon="2.10508">
        <ele>124.2</ele>
        <time>2022-03-23T15:12:07Z</time>
      </trkpt>
      <trkpt lat="49.86223" lon="2.10507">
        <ele>124.2</ele>
        <time>2022-03-23T15:12:09Z</time>
      </trkpt>
      <trkpt lat="49.86225" lon="2.10507">
        <ele>124.2</ele>
        <time>2022-03-23T15:12:10Z</time>
      </trkpt>
      <trkpt lat="49.86225" lon="2.10507">
        <ele>124.2</ele>
        <time>2022-03-23T15:12:11Z</time>
      </trkpt>
      <trkpt lat="49.86227" lon="2.10507">
        <ele>124.2</ele>
        <time>2022-03-23T15:12:12Z</time>
      </trkpt>
      <trkpt lat="49.86228" lon="2.10507">
        <ele>124.2</ele>
        <time>2022-03-23T15:12:13Z</time>
      </trkpt>
      <trkpt lat="49.8623" lon="2.10506">
        <ele>124.2</ele>
        <time>2022-03-23T15:12:14Z</time>
      </trkpt>
      <trkpt lat="49.86231" lon="2.10506">
        <ele>124.1</ele>
        <time>2022-03-23T15:12:15Z</time>
      </trkpt>
      <trkpt lat="49.86231" lon="2.10506">
        <ele>124.1</ele>
        <time>2022-03-23T15:12:16Z</time>
      </trkpt>
      <trkpt lat="49.86233" lon="2.10505">
        <ele>124.1</ele>
        <time>2022-03-23T15:12:17Z</time>
      </trkpt>
      <trkpt lat="49.86234" lon="2.10505">
        <ele>124.1</ele>
        <time>2022-03-23T15:12:19Z</time>
      </trkpt>
      <trkpt lat="49.86235" lon="2.10505">
        <ele>124.1</ele>
        <time>2022-03-23T15:12:20Z</time>
      </trkpt>
      <trkpt lat="49.86236" lon="2.10505">
        <ele>124.1</ele>
        <time>2022-03-23T15:12:21Z</time>
      </trkpt>
      <trkpt lat="49.86237" lon="2.10505">
        <ele>124.1</ele>
        <time>2022-03-23T15:12:22Z</time>
      </trkpt>
      <trkpt lat="49.86238" lon="2.10505">
        <ele>124.1</ele>
        <time>2022-03-23T15:12:23Z</time>
      </trkpt>
      <trkpt lat="49.86239" lon="2.10505">
        <ele>124.1</ele>
        <time>2022-03-23T15:12:24Z</time>
      </trkpt>
      <trkpt lat="49.8624" lon="2.10505">
        <ele>124.1</ele>
        <time>2022-03-23T15:12:25Z</time>
      </trkpt>
      <trkpt lat="49.86241" lon="2.10505">
        <ele>124.1</ele>
        <time>2022-03-23T15:12:26Z</time>
      </trkpt>
      <trkpt lat="49.86242" lon="2.10505">
        <ele>124.1</ele>
        <time>2022-03-23T15:12:27Z</time>
      </trkpt>
      <trkpt lat="49.86244" lon="2.10505">
        <ele>124.1</ele>
        <time>2022-03-23T15:12:29Z</time>
      </trkpt>
      <trkpt lat="49.86245" lon="2.10505">
        <ele>124.1</ele>
        <time>2022-03-23T15:12:30Z</time>
      </trkpt>
      <trkpt lat="49.86246" lon="2.10505">
        <ele>124.1</ele>
        <time>2022-03-23T15:12:31Z</time>
      </trkpt>
      <trkpt lat="49.86247" lon="2.10505">
        <ele>124.1</ele>
        <time>2022-03-23T15:12:32Z</time>
      </trkpt>
      <trkpt lat="49.86248" lon="2.10505">
        <ele>124</ele>
        <time>2022-03-23T15:12:33Z</time>
      </trkpt>
      <trkpt lat="49.8625" lon="2.10505">
        <ele>124</ele>
        <time>2022-03-23T15:12:34Z</time>
      </trkpt>
      <trkpt lat="49.86251" lon="2.10505">
        <ele>124</ele>
        <time>2022-03-23T15:12:35Z</time>
      </trkpt>
      <trkpt lat="49.86252" lon="2.10505">
        <ele>124</ele>
        <time>2022-03-23T15:12:36Z</time>
      </trkpt>
      <trkpt lat="49.86253" lon="2.10505">
        <ele>124</ele>
        <time>2022-03-23T15:12:37Z</time>
      </trkpt>
      <trkpt lat="49.86254" lon="2.10504">
        <ele>124</ele>
        <time>2022-03-23T15:12:38Z</time>
      </trkpt>
      <trkpt lat="49.86256" lon="2.10504">
        <ele>124</ele>
        <time>2022-03-23T15:12:40Z</time>
      </trkpt>
      <trkpt lat="49.86258" lon="2.10504">
        <ele>124</ele>
        <time>2022-03-23T15:12:41Z</time>
      </trkpt>
      <trkpt lat="49.86258" lon="2.10504">
        <ele>124</ele>
        <time>2022-03-23T15:12:42Z</time>
      </trkpt>
      <trkpt lat="49.86259" lon="2.10504">
        <ele>124</ele>
        <time>2022-03-23T15:12:43Z</time>
      </trkpt>
      <trkpt lat="49.86261" lon="2.10504">
        <ele>124</ele>
        <time>2022-03-23T15:12:44Z</time>
      </trkpt>
      <trkpt lat="49.86262" lon="2.10504">
        <ele>124</ele>
        <time>2022-03-23T15:12:45Z</time>
      </trkpt>
      <trkpt lat="49.86263" lon="2.10504">
        <ele>124</ele>
        <time>2022-03-23T15:12:46Z</time>
      </trkpt>
      <trkpt lat="49.86264" lon="2.10504">
        <ele>124</ele>
        <time>2022-03-23T15:12:47Z</time>
      </trkpt>
      <trkpt lat="49.86266" lon="2.10504">
        <ele>124</ele>
        <time>2022-03-23T15:12:48Z</time>
      </trkpt>
      <trkpt lat="49.86267" lon="2.10503">
        <ele>124</ele>
        <time>2022-03-23T15:12:50Z</time>
      </trkpt>
      <trkpt lat="49.86269" lon="2.10503">
        <ele>124</ele>
        <time>2022-03-23T15:12:51Z</time>
      </trkpt>
      <trkpt lat="49.8627" lon="2.10502">
        <ele>124</ele>
        <time>2022-03-23T15:12:52Z</time>
      </trkpt>
      <trkpt lat="49.86271" lon="2.10502">
        <ele>124</ele>
        <time>2022-03-23T15:12:53Z</time>
      </trkpt>
      <trkpt lat="49.86273" lon="2.10502">
        <ele>124</ele>
        <time>2022-03-23T15:12:54Z</time>
      </trkpt>
      <trkpt lat="49.86274" lon="2.10502">
        <ele>124</ele>
        <time>2022-03-23T15:12:55Z</time>
      </trkpt>
      <trkpt lat="49.86274" lon="2.10501">
        <ele>124</ele>
        <time>2022-03-23T15:12:56Z</time>
      </trkpt>
      <trkpt lat="49.86276" lon="2.10501">
        <ele>124</ele>
        <time>2022-03-23T15:12:57Z</time>
      </trkpt>
      <trkpt lat="49.86277" lon="2.10501">
        <ele>124</ele>
        <time>2022-03-23T15:12:58Z</time>
      </trkpt>
      <trkpt lat="49.86278" lon="2.10501">
        <ele>124</ele>
        <time>2022-03-23T15:12:59Z</time>
      </trkpt>
      <trkpt lat="49.86279" lon="2.10501">
        <ele>124</ele>
        <time>2022-03-23T15:13:01Z</time>
      </trkpt>
      <trkpt lat="49.86281" lon="2.10501">
        <ele>124</ele>
        <time>2022-03-23T15:13:02Z</time>
      </trkpt>
      <trkpt lat="49.86283" lon="2.10501">
        <ele>124</ele>
        <time>2022-03-23T15:13:03Z</time>
      </trkpt>
      <trkpt lat="49.86284" lon="2.10501">
        <ele>124</ele>
        <time>2022-03-23T15:13:04Z</time>
      </trkpt>
      <trkpt lat="49.86284" lon="2.10501">
        <ele>124</ele>
        <time>2022-03-23T15:13:05Z</time>
      </trkpt>
      <trkpt lat="49.86287" lon="2.10501">
        <ele>124</ele>
        <time>2022-03-23T15:13:06Z</time>
      </trkpt>
      <trkpt lat="49.86287" lon="2.10501">
        <ele>124</ele>
        <time>2022-03-23T15:13:07Z</time>
      </trkpt>
      <trkpt lat="49.86288" lon="2.10501">
        <ele>124</ele>
        <time>2022-03-23T15:13:08Z</time>
      </trkpt>
      <trkpt lat="49.8629" lon="2.105">
        <ele>124</ele>
        <time>2022-03-23T15:13:10Z</time>
      </trkpt>
      <trkpt lat="49.86291" lon="2.105">
        <ele>124</ele>
        <time>2022-03-23T15:13:11Z</time>
      </trkpt>
      <trkpt lat="49.86292" lon="2.105">
        <ele>124</ele>
        <time>2022-03-23T15:13:12Z</time>
      </trkpt>
      <trkpt lat="49.86293" lon="2.10499">
        <ele>124</ele>
        <time>2022-03-23T15:13:13Z</time>
      </trkpt>
      <trkpt lat="49.86294" lon="2.10499">
        <ele>124</ele>
        <time>2022-03-23T15:13:14Z</time>
      </trkpt>
      <trkpt lat="49.86295" lon="2.10499">
        <ele>124</ele>
        <time>2022-03-23T15:13:15Z</time>
      </trkpt>
      <trkpt lat="49.86297" lon="2.10498">
        <ele>124</ele>
        <time>2022-03-23T15:13:16Z</time>
      </trkpt>
      <trkpt lat="49.86298" lon="2.10498">
        <ele>124</ele>
        <time>2022-03-23T15:13:17Z</time>
      </trkpt>
      <trkpt lat="49.86299" lon="2.10497">
        <ele>124</ele>
        <time>2022-03-23T15:13:18Z</time>
      </trkpt>
      <trkpt lat="49.86301" lon="2.10497">
        <ele>124</ele>
        <time>2022-03-23T15:13:19Z</time>
      </trkpt>
      <trkpt lat="49.86302" lon="2.10497">
        <ele>124</ele>
        <time>2022-03-23T15:13:21Z</time>
      </trkpt>
      <trkpt lat="49.86303" lon="2.10497">
        <ele>124</ele>
        <time>2022-03-23T15:13:22Z</time>
      </trkpt>
      <trkpt lat="49.86305" lon="2.10496">
        <ele>124</ele>
        <time>2022-03-23T15:13:23Z</time>
      </trkpt>
      <trkpt lat="49.86306" lon="2.10496">
        <ele>124</ele>
        <time>2022-03-23T15:13:24Z</time>
      </trkpt>
      <trkpt lat="49.86307" lon="2.10496">
        <ele>124</ele>
        <time>2022-03-23T15:13:25Z</time>
      </trkpt>
      <trkpt lat="49.86308" lon="2.10496">
        <ele>124</ele>
        <time>2022-03-23T15:13:26Z</time>
      </trkpt>
      <trkpt lat="49.86309" lon="2.10496">
        <ele>124</ele>
        <time>2022-03-23T15:13:27Z</time>
      </trkpt>
      <trkpt lat="49.86311" lon="2.10496">
        <ele>124</ele>
        <time>2022-03-23T15:13:28Z</time>
      </trkpt>
      <trkpt lat="49.86312" lon="2.10495">
        <ele>124</ele>
        <time>2022-03-23T15:13:29Z</time>
      </trkpt>
      <trkpt lat="49.86313" lon="2.10495">
        <ele>124</ele>
        <time>2022-03-23T15:13:31Z</time>
      </trkpt>
      <trkpt lat="49.86314" lon="2.10495">
        <ele>124</ele>
        <time>2022-03-23T15:13:32Z</time>
      </trkpt>
      <trkpt lat="49.86315" lon="2.10495">
        <ele>124</ele>
        <time>2022-03-23T15:13:33Z</time>
      </trkpt>
      <trkpt lat="49.86316" lon="2.10495">
        <ele>124</ele>
        <time>2022-03-23T15:13:34Z</time>
      </trkpt>
      <trkpt lat="49.86318" lon="2.10495">
        <ele>124</ele>
        <time>2022-03-23T15:13:35Z</time>
      </trkpt>
      <trkpt lat="49.86319" lon="2.10496">
        <ele>124</ele>
        <time>2022-03-23T15:13:36Z</time>
      </trkpt>
      <trkpt lat="49.8632" lon="2.10496">
        <ele>124</ele>
        <time>2022-03-23T15:13:37Z</time>
      </trkpt>
      <trkpt lat="49.86321" lon="2.10496">
        <ele>124</ele>
        <time>2022-03-23T15:13:38Z</time>
      </trkpt>
      <trkpt lat="49.86322" lon="2.10497">
        <ele>124</ele>
        <time>2022-03-23T15:13:40Z</time>
      </trkpt>
      <trkpt lat="49.86323" lon="2.10497">
        <ele>124</ele>
        <time>2022-03-23T15:13:41Z</time>
      </trkpt>
      <trkpt lat="49.86324" lon="2.10497">
        <ele>124</ele>
        <time>2022-03-23T15:13:42Z</time>
      </trkpt>
      <trkpt lat="49.86325" lon="2.10497">
        <ele>124</ele>
        <time>2022-03-23T15:13:43Z</time>
      </trkpt>
      <trkpt lat="49.86326" lon="2.10496">
        <ele>124</ele>
        <time>2022-03-23T15:13:44Z</time>
      </trkpt>
      <trkpt lat="49.86327" lon="2.10495">
        <ele>124</ele>
        <time>2022-03-23T15:13:46Z</time>
      </trkpt>
      <trkpt lat="49.86327" lon="2.10494">
        <ele>124</ele>
        <time>2022-03-23T15:13:47Z</time>
      </trkpt>
      <trkpt lat="49.86327" lon="2.10494">
        <ele>124</ele>
        <time>2022-03-23T15:13:48Z</time>
      </trkpt>
      <trkpt lat="49.86327" lon="2.10493">
        <ele>124</ele>
        <time>2022-03-23T15:13:49Z</time>
      </trkpt>
      <trkpt lat="49.86327" lon="2.10492">
        <ele>124</ele>
        <time>2022-03-23T15:13:50Z</time>
      </trkpt>
      <trkpt lat="49.86327" lon="2.10492">
        <ele>124</ele>
        <time>2022-03-23T15:13:51Z</time>
      </trkpt>
      <trkpt lat="49.86328" lon="2.10492">
        <ele>124</ele>
        <time>2022-03-23T15:13:52Z</time>
      </trkpt>
      <trkpt lat="49.86328" lon="2.10491">
        <ele>124</ele>
        <time>2022-03-23T15:13:53Z</time>
      </trkpt>
      <trkpt lat="49.86329" lon="2.10491">
        <ele>124.1</ele>
        <time>2022-03-23T15:13:55Z</time>
      </trkpt>
      <trkpt lat="49.8633" lon="2.10491">
        <ele>124.1</ele>
        <time>2022-03-23T15:13:56Z</time>
      </trkpt>
      <trkpt lat="49.86331" lon="2.1049">
        <ele>124.1</ele>
        <time>2022-03-23T15:13:57Z</time>
      </trkpt>
      <trkpt lat="49.86332" lon="2.1049">
        <ele>124.1</ele>
        <time>2022-03-23T15:13:59Z</time>
      </trkpt>
      <trkpt lat="49.86332" lon="2.10489">
        <ele>124.1</ele>
        <time>2022-03-23T15:14:00Z</time>
      </trkpt>
      <trkpt lat="49.86334" lon="2.10489">
        <ele>124.1</ele>
        <time>2022-03-23T15:14:02Z</time>
      </trkpt>
      <trkpt lat="49.86335" lon="2.10489">
        <ele>124.1</ele>
        <time>2022-03-23T15:14:03Z</time>
      </trkpt>
      <trkpt lat="49.86335" lon="2.10489">
        <ele>124.1</ele>
        <time>2022-03-23T15:14:04Z</time>
      </trkpt>
      <trkpt lat="49.86337" lon="2.10488">
        <ele>124.1</ele>
        <time>2022-03-23T15:14:05Z</time>
      </trkpt>
      <trkpt lat="49.86338" lon="2.10488">
        <ele>124.1</ele>
        <time>2022-03-23T15:14:07Z</time>
      </trkpt>
      <trkpt lat="49.86338" lon="2.10488">
        <ele>124.1</ele>
        <time>2022-03-23T15:14:08Z</time>
      </trkpt>
      <trkpt lat="49.86339" lon="2.10487">
        <ele>124.1</ele>
        <time>2022-03-23T15:14:10Z</time>
      </trkpt>
      <trkpt lat="49.86339" lon="2.10487">
        <ele>124.1</ele>
        <time>2022-03-23T15:14:11Z</time>
      </trkpt>
      <trkpt lat="49.86339" lon="2.10487">
        <ele>124.1</ele>
        <time>2022-03-23T15:14:12Z</time>
      </trkpt>
      <trkpt lat="49.86339" lon="2.10486">
        <ele>124.1</ele>
        <time>2022-03-23T15:14:13Z</time>
      </trkpt>
      <trkpt lat="49.86338" lon="2.10486">
        <ele>124.1</ele>
        <time>2022-03-23T15:14:14Z</time>
      </trkpt>
      <trkpt lat="49.86338" lon="2.10486">
        <ele>124.1</ele>
        <time>2022-03-23T15:14:15Z</time>
      </trkpt>
      <trkpt lat="49.86338" lon="2.10486">
        <ele>124.1</ele>
        <time>2022-03-23T15:14:16Z</time>
      </trkpt>
      <trkpt lat="49.86338" lon="2.10486">
        <ele>124.1</ele>
        <time>2022-03-23T15:14:17Z</time>
      </trkpt>
      <trkpt lat="49.86337" lon="2.10487">
        <ele>124.1</ele>
        <time>2022-03-23T15:14:18Z</time>
      </trkpt>
      <trkpt lat="49.86337" lon="2.10487">
        <ele>124.1</ele>
        <time>2022-03-23T15:14:19Z</time>
      </trkpt>
      <trkpt lat="49.86337" lon="2.10487">
        <ele>124.1</ele>
        <time>2022-03-23T15:14:20Z</time>
      </trkpt>
      <trkpt lat="49.86337" lon="2.10487">
        <ele>124.1</ele>
        <time>2022-03-23T15:14:21Z</time>
      </trkpt>
      <trkpt lat="49.86337" lon="2.10487">
        <ele>124.1</ele>
        <time>2022-03-23T15:14:22Z</time>
      </trkpt>
      <trkpt lat="49.86337" lon="2.10487">
        <ele>124.1</ele>
        <time>2022-03-23T15:14:23Z</time>
      </trkpt>
      <trkpt lat="49.86337" lon="2.10487">
        <ele>124.1</ele>
        <time>2022-03-23T15:14:24Z</time>
      </trkpt>
      <trkpt lat="49.86337" lon="2.10487">
        <ele>124.1</ele>
        <time>2022-03-23T15:14:25Z</time>
      </trkpt>
      <trkpt lat="49.86336" lon="2.10487">
        <ele>124.1</ele>
        <time>2022-03-23T15:14:26Z</time>
      </trkpt>
      <trkpt lat="49.86336" lon="2.10487">
        <ele>124.1</ele>
        <time>2022-03-23T15:14:27Z</time>
      </trkpt>
      <trkpt lat="49.86336" lon="2.10487">
        <ele>124.1</ele>
        <time>2022-03-23T15:14:28Z</time>
      </trkpt>
      <trkpt lat="49.86336" lon="2.10487">
        <ele>124.1</ele>
        <time>2022-03-23T15:14:29Z</time>
      </trkpt>
      <trkpt lat="49.86337" lon="2.10487">
        <ele>124.1</ele>
        <time>2022-03-23T15:14:30Z</time>
      </trkpt>
      <trkpt lat="49.86337" lon="2.10488">
        <ele>124.1</ele>
        <time>2022-03-23T15:14:31Z</time>
      </trkpt>
      <trkpt lat="49.86337" lon="2.10488">
        <ele>124.1</ele>
        <time>2022-03-23T15:14:32Z</time>
      </trkpt>
      <trkpt lat="49.86337" lon="2.10488">
        <ele>124.1</ele>
        <time>2022-03-23T15:14:33Z</time>
      </trkpt>
      <trkpt lat="49.86337" lon="2.10488">
        <ele>124.1</ele>
        <time>2022-03-23T15:14:34Z</time>
      </trkpt>
      <trkpt lat="49.86337" lon="2.10488">
        <ele>124.1</ele>
        <time>2022-03-23T15:14:35Z</time>
      </trkpt>
      <trkpt lat="49.86337" lon="2.10488">
        <ele>124.1</ele>
        <time>2022-03-23T15:14:36Z</time>
      </trkpt>
      <trkpt lat="49.86337" lon="2.10488">
        <ele>124.1</ele>
        <time>2022-03-23T15:14:37Z</time>
      </trkpt>
      <trkpt lat="49.86337" lon="2.10488">
        <ele>124.1</ele>
        <time>2022-03-23T15:14:38Z</time>
      </trkpt>
      <trkpt lat="49.86337" lon="2.10488">
        <ele>124.1</ele>
        <time>2022-03-23T15:14:39Z</time>
      </trkpt>
      <trkpt lat="49.86337" lon="2.10488">
        <ele>124.1</ele>
        <time>2022-03-23T15:14:40Z</time>
      </trkpt>
      <trkpt lat="49.86337" lon="2.10488">
        <ele>124.1</ele>
        <time>2022-03-23T15:14:41Z</time>
      </trkpt>
      <trkpt lat="49.86337" lon="2.10488">
        <ele>124.1</ele>
        <time>2022-03-23T15:14:42Z</time>
      </trkpt>
      <trkpt lat="49.86337" lon="2.10488">
        <ele>124.1</ele>
        <time>2022-03-23T15:14:43Z</time>
      </trkpt>
      <trkpt lat="49.86337" lon="2.10488">
        <ele>124.1</ele>
        <time>2022-03-23T15:14:44Z</time>
      </trkpt>
      <trkpt lat="49.86337" lon="2.10488">
        <ele>124.1</ele>
        <time>2022-03-23T15:14:45Z</time>
      </trkpt>
      <trkpt lat="49.86337" lon="2.10488">
        <ele>124.1</ele>
        <time>2022-03-23T15:14:46Z</time>
      </trkpt>
      <trkpt lat="49.86337" lon="2.10488">
        <ele>124.1</ele>
        <time>2022-03-23T15:14:47Z</time>
      </trkpt>
      <trkpt lat="49.86337" lon="2.10488">
        <ele>124.1</ele>
        <time>2022-03-23T15:14:48Z</time>
      </trkpt>
      <trkpt lat="49.86337" lon="2.10488">
        <ele>124.1</ele>
        <time>2022-03-23T15:14:49Z</time>
      </trkpt>
      <trkpt lat="49.86337" lon="2.10488">
        <ele>124.1</ele>
        <time>2022-03-23T15:14:50Z</time>
      </trkpt>
      <trkpt lat="49.86337" lon="2.10488">
        <ele>124.1</ele>
        <time>2022-03-23T15:14:51Z</time>
      </trkpt>
      <trkpt lat="49.86337" lon="2.10488">
        <ele>124.1</ele>
        <time>2022-03-23T15:14:52Z</time>
      </trkpt>
      <trkpt lat="49.86337" lon="2.10488">
        <ele>124.1</ele>
        <time>2022-03-23T15:14:53Z</time>
      </trkpt>
      <trkpt lat="49.86337" lon="2.10488">
        <ele>124.1</ele>
        <time>2022-03-23T15:14:54Z</time>
      </trkpt>
      <trkpt lat="49.86337" lon="2.10488">
        <ele>124.1</ele>
        <time>2022-03-23T15:14:55Z</time>
      </trkpt>
      <trkpt lat="49.86337" lon="2.10488">
        <ele>124.1</ele>
        <time>2022-03-23T15:14:56Z</time>
      </trkpt>
      <trkpt lat="49.86337" lon="2.10488">
        <ele>124.1</ele>
        <time>2022-03-23T15:14:57Z</time>
      </trkpt>
      <trkpt lat="49.86337" lon="2.10488">
        <ele>124.1</ele>
        <time>2022-03-23T15:14:58Z</time>
      </trkpt>
      <trkpt lat="49.86337" lon="2.10488">
        <ele>124.1</ele>
        <time>2022-03-23T15:14:59Z</time>
      </trkpt>
      <trkpt lat="49.86337" lon="2.10488">
        <ele>124.1</ele>
        <time>2022-03-23T15:15:00Z</time>
      </trkpt>
      <trkpt lat="49.86337" lon="2.10488">
        <ele>124.1</ele>
        <time>2022-03-23T15:15:01Z</time>
      </trkpt>
      <trkpt lat="49.86337" lon="2.10488">
        <ele>124.1</ele>
        <time>2022-03-23T15:15:02Z</time>
      </trkpt>
      <trkpt lat="49.86337" lon="2.10488">
        <ele>124.1</ele>
        <time>2022-03-23T15:15:03Z</time>
      </trkpt>
      <trkpt lat="49.86337" lon="2.10488">
        <ele>124.1</ele>
        <time>2022-03-23T15:15:04Z</time>
      </trkpt>
      <trkpt lat="49.86337" lon="2.10488">
        <ele>124.1</ele>
        <time>2022-03-23T15:15:05Z</time>
      </trkpt>
      <trkpt lat="49.86337" lon="2.10488">
        <ele>124.1</ele>
        <time>2022-03-23T15:15:06Z</time>
      </trkpt>
      <trkpt lat="49.86337" lon="2.10488">
        <ele>124.1</ele>
        <time>2022-03-23T15:15:07Z</time>
      </trkpt>
      <trkpt lat="49.86337" lon="2.10488">
        <ele>124.1</ele>
        <time>2022-03-23T15:15:08Z</time>
      </trkpt>
      <trkpt lat="49.86337" lon="2.10488">
        <ele>124.1</ele>
        <time>2022-03-23T15:15:09Z</time>
      </trkpt>
      <trkpt lat="49.86337" lon="2.10488">
        <ele>124.1</ele>
        <time>2022-03-23T15:15:10Z</time>
      </trkpt>
      <trkpt lat="49.86337" lon="2.10488">
        <ele>124.1</ele>
        <time>2022-03-23T15:15:11Z</time>
      </trkpt>
      <trkpt lat="49.86337" lon="2.10488">
        <ele>124.1</ele>
        <time>2022-03-23T15:15:12Z</time>
      </trkpt>
      <trkpt lat="49.86337" lon="2.10488">
        <ele>124.1</ele>
        <time>2022-03-23T15:15:13Z</time>
      </trkpt>
      <trkpt lat="49.86337" lon="2.10488">
        <ele>124.1</ele>
        <time>2022-03-23T15:15:14Z</time>
      </trkpt>
      <trkpt lat="49.86337" lon="2.10488">
        <ele>124.1</ele>
        <time>2022-03-23T15:15:15Z</time>
      </trkpt>
      <trkpt lat="49.86337" lon="2.10488">
        <ele>124.1</ele>
        <time>2022-03-23T15:15:16Z</time>
      </trkpt>
      <trkpt lat="49.86337" lon="2.10488">
        <ele>124.1</ele>
        <time>2022-03-23T15:15:17Z</time>
      </trkpt>
      <trkpt lat="49.86337" lon="2.10488">
        <ele>124.1</ele>
        <time>2022-03-23T15:15:18Z</time>
      </trkpt>
      <trkpt lat="49.86337" lon="2.10488">
        <ele>124.1</ele>
        <time>2022-03-23T15:15:19Z</time>
      </trkpt>
      <trkpt lat="49.86337" lon="2.10488">
        <ele>124.1</ele>
        <time>2022-03-23T15:15:20Z</time>
      </trkpt>
      <trkpt lat="49.86337" lon="2.10488">
        <ele>124.1</ele>
        <time>2022-03-23T15:15:21Z</time>
      </trkpt>
      <trkpt lat="49.86337" lon="2.10488">
        <ele>124.1</ele>
        <time>2022-03-23T15:15:22Z</time>
      </trkpt>
      <trkpt lat="49.86337" lon="2.10488">
        <ele>124.1</ele>
        <time>2022-03-23T15:15:23Z</time>
      </trkpt>
      <trkpt lat="49.86337" lon="2.10488">
        <ele>124.1</ele>
        <time>2022-03-23T15:15:24Z</time>
      </trkpt>
      <trkpt lat="49.86337" lon="2.10488">
        <ele>124.1</ele>
        <time>2022-03-23T15:15:25Z</time>
      </trkpt>
      <trkpt lat="49.86337" lon="2.10488">
        <ele>124.1</ele>
        <time>2022-03-23T15:15:26Z</time>
      </trkpt>
      <trkpt lat="49.86337" lon="2.10488">
        <ele>124.1</ele>
        <time>2022-03-23T15:15:27Z</time>
      </trkpt>
      <trkpt lat="49.86337" lon="2.10488">
        <ele>124.1</ele>
        <time>2022-03-23T15:15:28Z</time>
      </trkpt>
      <trkpt lat="49.86337" lon="2.10488">
        <ele>124.1</ele>
        <time>2022-03-23T15:15:29Z</time>
      </trkpt>
      <trkpt lat="49.86337" lon="2.10488">
        <ele>124.1</ele>
        <time>2022-03-23T15:15:30Z</time>
      </trkpt>
      <trkpt lat="49.86337" lon="2.10488">
        <ele>124.1</ele>
        <time>2022-03-23T15:15:31Z</time>
      </trkpt>
      <trkpt lat="49.86337" lon="2.10488">
        <ele>124.1</ele>
        <time>2022-03-23T15:15:32Z</time>
      </trkpt>
      <trkpt lat="49.86337" lon="2.10488">
        <ele>124.1</ele>
        <time>2022-03-23T15:15:33Z</time>
      </trkpt>
      <trkpt lat="49.86337" lon="2.10488">
        <ele>124.1</ele>
        <time>2022-03-23T15:15:34Z</time>
      </trkpt>
      <trkpt lat="49.86337" lon="2.10488">
        <ele>124.1</ele>
        <time>2022-03-23T15:15:35Z</time>
      </trkpt>
      <trkpt lat="49.86337" lon="2.10488">
        <ele>124.1</ele>
        <time>2022-03-23T15:15:36Z</time>
      </trkpt>
      <trkpt lat="49.86337" lon="2.10488">
        <ele>124.1</ele>
        <time>2022-03-23T15:15:37Z</time>
      </trkpt>
      <trkpt lat="49.86337" lon="2.10488">
        <ele>124.1</ele>
        <time>2022-03-23T15:15:38Z</time>
      </trkpt>
      <trkpt lat="49.86337" lon="2.10488">
        <ele>124.1</ele>
        <time>2022-03-23T15:15:39Z</time>
      </trkpt>
      <trkpt lat="49.86337" lon="2.10488">
        <ele>124.1</ele>
        <time>2022-03-23T15:15:40Z</time>
      </trkpt>
      <trkpt lat="49.86337" lon="2.10488">
        <ele>124.1</ele>
        <time>2022-03-23T15:15:41Z</time>
      </trkpt>
      <trkpt lat="49.86337" lon="2.10488">
        <ele>124.1</ele>
        <time>2022-03-23T15:15:42Z</time>
      </trkpt>
      <trkpt lat="49.86337" lon="2.10488">
        <ele>124.1</ele>
        <time>2022-03-23T15:15:43Z</time>
      </trkpt>
      <trkpt lat="49.86337" lon="2.10488">
        <ele>124.1</ele>
        <time>2022-03-23T15:15:44Z</time>
      </trkpt>
      <trkpt lat="49.86337" lon="2.10488">
        <ele>124.1</ele>
        <time>2022-03-23T15:15:45Z</time>
      </trkpt>
      <trkpt lat="49.86337" lon="2.10488">
        <ele>124.1</ele>
        <time>2022-03-23T15:15:46Z</time>
      </trkpt>
      <trkpt lat="49.86337" lon="2.10488">
        <ele>124.1</ele>
        <time>2022-03-23T15:15:47Z</time>
      </trkpt>
      <trkpt lat="49.86337" lon="2.10488">
        <ele>124.1</ele>
        <time>2022-03-23T15:15:48Z</time>
      </trkpt>
      <trkpt lat="49.86337" lon="2.10488">
        <ele>124.1</ele>
        <time>2022-03-23T15:15:49Z</time>
      </trkpt>
      <trkpt lat="49.86337" lon="2.10488">
        <ele>124.1</ele>
        <time>2022-03-23T15:15:50Z</time>
      </trkpt>
      <trkpt lat="49.86337" lon="2.10488">
        <ele>124.1</ele>
        <time>2022-03-23T15:15:51Z</time>
      </trkpt>
      <trkpt lat="49.86337" lon="2.10488">
        <ele>124.1</ele>
        <time>2022-03-23T15:15:52Z</time>
      </trkpt>
      <trkpt lat="49.86337" lon="2.10488">
        <ele>124.1</ele>
        <time>2022-03-23T15:15:53Z</time>
      </trkpt>
      <trkpt lat="49.86337" lon="2.10488">
        <ele>124.1</ele>
        <time>2022-03-23T15:15:54Z</time>
      </trkpt>
      <trkpt lat="49.86337" lon="2.10488">
        <ele>124.1</ele>
        <time>2022-03-23T15:15:55Z</time>
      </trkpt>
      <trkpt lat="49.86337" lon="2.10488">
        <ele>124.1</ele>
        <time>2022-03-23T15:15:56Z</time>
      </trkpt>
      <trkpt lat="49.86337" lon="2.10488">
        <ele>124.1</ele>
        <time>2022-03-23T15:15:57Z</time>
      </trkpt>
      <trkpt lat="49.86337" lon="2.10488">
        <ele>124.1</ele>
        <time>2022-03-23T15:15:58Z</time>
      </trkpt>
      <trkpt lat="49.86337" lon="2.10488">
        <ele>124.1</ele>
        <time>2022-03-23T15:15:59Z</time>
      </trkpt>
      <trkpt lat="49.86337" lon="2.10488">
        <ele>124.1</ele>
        <time>2022-03-23T15:16:00Z</time>
      </trkpt>
      <trkpt lat="49.86337" lon="2.10488">
        <ele>124.1</ele>
        <time>2022-03-23T15:16:01Z</time>
      </trkpt>
      <trkpt lat="49.86337" lon="2.10488">
        <ele>124.1</ele>
        <time>2022-03-23T15:16:02Z</time>
      </trkpt>
      <trkpt lat="49.86337" lon="2.10488">
        <ele>124.1</ele>
        <time>2022-03-23T15:16:03Z</time>
      </trkpt>
      <trkpt lat="49.86337" lon="2.10487">
        <ele>124.1</ele>
        <time>2022-03-23T15:16:04Z</time>
      </trkpt>
      <trkpt lat="49.86337" lon="2.10486">
        <ele>124.1</ele>
        <time>2022-03-23T15:16:05Z</time>
      </trkpt>
      <trkpt lat="49.86338" lon="2.10485">
        <ele>124.1</ele>
        <time>2022-03-23T15:16:06Z</time>
      </trkpt>
      <trkpt lat="49.86339" lon="2.10484">
        <ele>124.1</ele>
        <time>2022-03-23T15:16:07Z</time>
      </trkpt>
      <trkpt lat="49.8634" lon="2.10484">
        <ele>124.1</ele>
        <time>2022-03-23T15:16:08Z</time>
      </trkpt>
      <trkpt lat="49.86341" lon="2.10484">
        <ele>124.1</ele>
        <time>2022-03-23T15:16:09Z</time>
      </trkpt>
      <trkpt lat="49.86342" lon="2.10484">
        <ele>124.1</ele>
        <time>2022-03-23T15:16:10Z</time>
      </trkpt>
      <trkpt lat="49.86343" lon="2.10484">
        <ele>124.1</ele>
        <time>2022-03-23T15:16:11Z</time>
      </trkpt>
      <trkpt lat="49.86344" lon="2.10485">
        <ele>124.1</ele>
        <time>2022-03-23T15:16:12Z</time>
      </trkpt>
      <trkpt lat="49.86345" lon="2.10486">
        <ele>124.1</ele>
        <time>2022-03-23T15:16:13Z</time>
      </trkpt>
      <trkpt lat="49.86346" lon="2.10487">
        <ele>124.1</ele>
        <time>2022-03-23T15:16:14Z</time>
      </trkpt>
      <trkpt lat="49.86347" lon="2.10488">
        <ele>124.1</ele>
        <time>2022-03-23T15:16:15Z</time>
      </trkpt>
      <trkpt lat="49.86347" lon="2.10489">
        <ele>124.1</ele>
        <time>2022-03-23T15:16:16Z</time>
      </trkpt>
      <trkpt lat="49.86347" lon="2.1049">
        <ele>124.1</ele>
        <time>2022-03-23T15:16:17Z</time>
      </trkpt>
      <trkpt lat="49.86347" lon="2.10491">
        <ele>124.1</ele>
        <time>2022-03-23T15:16:18Z</time>
      </trkpt>
      <trkpt lat="49.86348" lon="2.10493">
        <ele>124.1</ele>
        <time>2022-03-23T15:16:19Z</time>
      </trkpt>
      <trkpt lat="49.86348" lon="2.10494">
        <ele>124.1</ele>
        <time>2022-03-23T15:16:20Z</time>
      </trkpt>
      <trkpt lat="49.86349" lon="2.10496">
        <ele>124.1</ele>
        <time>2022-03-23T15:16:21Z</time>
      </trkpt>
      <trkpt lat="49.86349" lon="2.10498">
        <ele>124.1</ele>
        <time>2022-03-23T15:16:22Z</time>
      </trkpt>
      <trkpt lat="49.8635" lon="2.10501">
        <ele>124</ele>
        <time>2022-03-23T15:16:23Z</time>
      </trkpt>
      <trkpt lat="49.8635" lon="2.10504">
        <ele>124</ele>
        <time>2022-03-23T15:16:24Z</time>
      </trkpt>
      <trkpt lat="49.86351" lon="2.10506">
        <ele>124</ele>
        <time>2022-03-23T15:16:25Z</time>
      </trkpt>
      <trkpt lat="49.86351" lon="2.10509">
        <ele>124</ele>
        <time>2022-03-23T15:16:27Z</time>
      </trkpt>
      <trkpt lat="49.86351" lon="2.10511">
        <ele>124</ele>
        <time>2022-03-23T15:16:28Z</time>
      </trkpt>
      <trkpt lat="49.86352" lon="2.10513">
        <ele>123.9</ele>
        <time>2022-03-23T15:16:29Z</time>
      </trkpt>
      <trkpt lat="49.86352" lon="2.10516">
        <ele>123.9</ele>
        <time>2022-03-23T15:16:30Z</time>
      </trkpt>
      <trkpt lat="49.86353" lon="2.10518">
        <ele>123.9</ele>
        <time>2022-03-23T15:16:31Z</time>
      </trkpt>
      <trkpt lat="49.86353" lon="2.1052">
        <ele>123.9</ele>
        <time>2022-03-23T15:16:32Z</time>
      </trkpt>
      <trkpt lat="49.86354" lon="2.10523">
        <ele>123.9</ele>
        <time>2022-03-23T15:16:33Z</time>
      </trkpt>
      <trkpt lat="49.86354" lon="2.10524">
        <ele>123.9</ele>
        <time>2022-03-23T15:16:34Z</time>
      </trkpt>
      <trkpt lat="49.86355" lon="2.10526">
        <ele>123.8</ele>
        <time>2022-03-23T15:16:36Z</time>
      </trkpt>
      <trkpt lat="49.86356" lon="2.10528">
        <ele>123.8</ele>
        <time>2022-03-23T15:16:37Z</time>
      </trkpt>
      <trkpt lat="49.86357" lon="2.10531">
        <ele>123.8</ele>
        <time>2022-03-23T15:16:38Z</time>
      </trkpt>
      <trkpt lat="49.86357" lon="2.10532">
        <ele>123.8</ele>
        <time>2022-03-23T15:16:39Z</time>
      </trkpt>
      <trkpt lat="49.86358" lon="2.10534">
        <ele>123.8</ele>
        <time>2022-03-23T15:16:40Z</time>
      </trkpt>
      <trkpt lat="49.86358" lon="2.10535">
        <ele>123.7</ele>
        <time>2022-03-23T15:16:41Z</time>
      </trkpt>
      <trkpt lat="49.86359" lon="2.10537">
        <ele>123.7</ele>
        <time>2022-03-23T15:16:42Z</time>
      </trkpt>
      <trkpt lat="49.86359" lon="2.10539">
        <ele>123.7</ele>
        <time>2022-03-23T15:16:43Z</time>
      </trkpt>
      <trkpt lat="49.86359" lon="2.10542">
        <ele>123.7</ele>
        <time>2022-03-23T15:16:44Z</time>
      </trkpt>
      <trkpt lat="49.8636" lon="2.10543">
        <ele>123.6</ele>
        <time>2022-03-23T15:16:46Z</time>
      </trkpt>
      <trkpt lat="49.8636" lon="2.10545">
        <ele>123.6</ele>
        <time>2022-03-23T15:16:47Z</time>
      </trkpt>
      <trkpt lat="49.8636" lon="2.10548">
        <ele>123.6</ele>
        <time>2022-03-23T15:16:48Z</time>
      </trkpt>
      <trkpt lat="49.8636" lon="2.10549">
        <ele>123.6</ele>
        <time>2022-03-23T15:16:49Z</time>
      </trkpt>
      <trkpt lat="49.86361" lon="2.1055">
        <ele>123.6</ele>
        <time>2022-03-23T15:16:50Z</time>
      </trkpt>
      <trkpt lat="49.86361" lon="2.10552">
        <ele>123.5</ele>
        <time>2022-03-23T15:16:51Z</time>
      </trkpt>
      <trkpt lat="49.86361" lon="2.10554">
        <ele>123.5</ele>
        <time>2022-03-23T15:16:52Z</time>
      </trkpt>
      <trkpt lat="49.86362" lon="2.10555">
        <ele>123.5</ele>
        <time>2022-03-23T15:16:54Z</time>
      </trkpt>
      <trkpt lat="49.86362" lon="2.10558">
        <ele>123.5</ele>
        <time>2022-03-23T15:16:55Z</time>
      </trkpt>
      <trkpt lat="49.86362" lon="2.1056">
        <ele>123.4</ele>
        <time>2022-03-23T15:16:56Z</time>
      </trkpt>
      <trkpt lat="49.86362" lon="2.10562">
        <ele>123.4</ele>
        <time>2022-03-23T15:16:57Z</time>
      </trkpt>
      <trkpt lat="49.86362" lon="2.10564">
        <ele>123.4</ele>
        <time>2022-03-23T15:16:58Z</time>
      </trkpt>
      <trkpt lat="49.86363" lon="2.10567">
        <ele>123.4</ele>
        <time>2022-03-23T15:17:00Z</time>
      </trkpt>
      <trkpt lat="49.86363" lon="2.10569">
        <ele>123.4</ele>
        <time>2022-03-23T15:17:01Z</time>
      </trkpt>
      <trkpt lat="49.86363" lon="2.10572">
        <ele>123.4</ele>
        <time>2022-03-23T15:17:02Z</time>
      </trkpt>
      <trkpt lat="49.86363" lon="2.10574">
        <ele>123.3</ele>
        <time>2022-03-23T15:17:03Z</time>
      </trkpt>
      <trkpt lat="49.86363" lon="2.10575">
        <ele>123.3</ele>
        <time>2022-03-23T15:17:04Z</time>
      </trkpt>
      <trkpt lat="49.86363" lon="2.10579">
        <ele>123.3</ele>
        <time>2022-03-23T15:17:05Z</time>
      </trkpt>
      <trkpt lat="49.86364" lon="2.10581">
        <ele>123.3</ele>
        <time>2022-03-23T15:17:07Z</time>
      </trkpt>
      <trkpt lat="49.86364" lon="2.10582">
        <ele>123.2</ele>
        <time>2022-03-23T15:17:08Z</time>
      </trkpt>
      <trkpt lat="49.86364" lon="2.10584">
        <ele>123.2</ele>
        <time>2022-03-23T15:17:09Z</time>
      </trkpt>
      <trkpt lat="49.86364" lon="2.10586">
        <ele>123.2</ele>
        <time>2022-03-23T15:17:10Z</time>
      </trkpt>
      <trkpt lat="49.86365" lon="2.1059">
        <ele>123.2</ele>
        <time>2022-03-23T15:17:11Z</time>
      </trkpt>
      <trkpt lat="49.86365" lon="2.10591">
        <ele>123.2</ele>
        <time>2022-03-23T15:17:12Z</time>
      </trkpt>
      <trkpt lat="49.86365" lon="2.10594">
        <ele>123.2</ele>
        <time>2022-03-23T15:17:13Z</time>
      </trkpt>
      <trkpt lat="49.86365" lon="2.10596">
        <ele>123.1</ele>
        <time>2022-03-23T15:17:14Z</time>
      </trkpt>
      <trkpt lat="49.86366" lon="2.10599">
        <ele>123.1</ele>
        <time>2022-03-23T15:17:16Z</time>
      </trkpt>
      <trkpt lat="49.86366" lon="2.106">
        <ele>123.1</ele>
        <time>2022-03-23T15:17:17Z</time>
      </trkpt>
      <trkpt lat="49.86366" lon="2.10602">
        <ele>123.1</ele>
        <time>2022-03-23T15:17:18Z</time>
      </trkpt>
      <trkpt lat="49.86366" lon="2.10605">
        <ele>123.1</ele>
        <time>2022-03-23T15:17:19Z</time>
      </trkpt>
      <trkpt lat="49.86367" lon="2.10606">
        <ele>123.1</ele>
        <time>2022-03-23T15:17:20Z</time>
      </trkpt>
      <trkpt lat="49.86367" lon="2.10608">
        <ele>123.1</ele>
        <time>2022-03-23T15:17:21Z</time>
      </trkpt>
      <trkpt lat="49.86367" lon="2.1061">
        <ele>123.1</ele>
        <time>2022-03-23T15:17:22Z</time>
      </trkpt>
      <trkpt lat="49.86368" lon="2.10612">
        <ele>123.1</ele>
        <time>2022-03-23T15:17:23Z</time>
      </trkpt>
      <trkpt lat="49.86368" lon="2.10614">
        <ele>123.1</ele>
        <time>2022-03-23T15:17:24Z</time>
      </trkpt>
      <trkpt lat="49.86369" lon="2.10615">
        <ele>123.1</ele>
        <time>2022-03-23T15:17:25Z</time>
      </trkpt>
      <trkpt lat="49.8637" lon="2.10617">
        <ele>123</ele>
        <time>2022-03-23T15:17:27Z</time>
      </trkpt>
      <trkpt lat="49.8637" lon="2.10619">
        <ele>123</ele>
        <time>2022-03-23T15:17:28Z</time>
      </trkpt>
      <trkpt lat="49.86371" lon="2.1062">
        <ele>123</ele>
        <time>2022-03-23T15:17:29Z</time>
      </trkpt>
      <trkpt lat="49.86371" lon="2.10622">
        <ele>123</ele>
        <time>2022-03-23T15:17:30Z</time>
      </trkpt>
      <trkpt lat="49.86372" lon="2.10625">
        <ele>123</ele>
        <time>2022-03-23T15:17:31Z</time>
      </trkpt>
      <trkpt lat="49.86372" lon="2.10626">
        <ele>123</ele>
        <time>2022-03-23T15:17:32Z</time>
      </trkpt>
      <trkpt lat="49.86372" lon="2.10627">
        <ele>123</ele>
        <time>2022-03-23T15:17:33Z</time>
      </trkpt>
      <trkpt lat="49.86373" lon="2.10629">
        <ele>123</ele>
        <time>2022-03-23T15:17:34Z</time>
      </trkpt>
      <trkpt lat="49.86373" lon="2.10632">
        <ele>123</ele>
        <time>2022-03-23T15:17:36Z</time>
      </trkpt>
      <trkpt lat="49.86374" lon="2.10634">
        <ele>123</ele>
        <time>2022-03-23T15:17:37Z</time>
      </trkpt>
      <trkpt lat="49.86374" lon="2.10635">
        <ele>123</ele>
        <time>2022-03-23T15:17:38Z</time>
      </trkpt>
      <trkpt lat="49.86375" lon="2.10637">
        <ele>123</ele>
        <time>2022-03-23T15:17:39Z</time>
      </trkpt>
      <trkpt lat="49.86375" lon="2.10639">
        <ele>123</ele>
        <time>2022-03-23T15:17:40Z</time>
      </trkpt>
      <trkpt lat="49.86376" lon="2.10641">
        <ele>123</ele>
        <time>2022-03-23T15:17:41Z</time>
      </trkpt>
      <trkpt lat="49.86377" lon="2.10643">
        <ele>123</ele>
        <time>2022-03-23T15:17:42Z</time>
      </trkpt>
      <trkpt lat="49.86377" lon="2.10645">
        <ele>123</ele>
        <time>2022-03-23T15:17:43Z</time>
      </trkpt>
      <trkpt lat="49.86378" lon="2.10647">
        <ele>123</ele>
        <time>2022-03-23T15:17:44Z</time>
      </trkpt>
      <trkpt lat="49.86378" lon="2.10649">
        <ele>123</ele>
        <time>2022-03-23T15:17:45Z</time>
      </trkpt>
      <trkpt lat="49.86379" lon="2.10651">
        <ele>123</ele>
        <time>2022-03-23T15:17:47Z</time>
      </trkpt>
      <trkpt lat="49.8638" lon="2.10654">
        <ele>123</ele>
        <time>2022-03-23T15:17:48Z</time>
      </trkpt>
      <trkpt lat="49.8638" lon="2.10655">
        <ele>123</ele>
        <time>2022-03-23T15:17:49Z</time>
      </trkpt>
      <trkpt lat="49.8638" lon="2.10656">
        <ele>123</ele>
        <time>2022-03-23T15:17:50Z</time>
      </trkpt>
      <trkpt lat="49.86381" lon="2.10658">
        <ele>123</ele>
        <time>2022-03-23T15:17:51Z</time>
      </trkpt>
      <trkpt lat="49.86381" lon="2.1066">
        <ele>123</ele>
        <time>2022-03-23T15:17:52Z</time>
      </trkpt>
      <trkpt lat="49.86382" lon="2.10662">
        <ele>123</ele>
        <time>2022-03-23T15:17:53Z</time>
      </trkpt>
      <trkpt lat="49.86382" lon="2.10665">
        <ele>123</ele>
        <time>2022-03-23T15:17:55Z</time>
      </trkpt>
      <trkpt lat="49.86383" lon="2.10666">
        <ele>123</ele>
        <time>2022-03-23T15:17:56Z</time>
      </trkpt>
      <trkpt lat="49.86383" lon="2.10667">
        <ele>123</ele>
        <time>2022-03-23T15:17:57Z</time>
      </trkpt>
      <trkpt lat="49.86384" lon="2.1067">
        <ele>123</ele>
        <time>2022-03-23T15:17:58Z</time>
      </trkpt>
      <trkpt lat="49.86384" lon="2.10672">
        <ele>123</ele>
        <time>2022-03-23T15:17:59Z</time>
      </trkpt>
      <trkpt lat="49.86384" lon="2.10673">
        <ele>123</ele>
        <time>2022-03-23T15:18:00Z</time>
      </trkpt>
      <trkpt lat="49.86385" lon="2.10675">
        <ele>123</ele>
        <time>2022-03-23T15:18:01Z</time>
      </trkpt>
      <trkpt lat="49.86385" lon="2.10676">
        <ele>122.9</ele>
        <time>2022-03-23T15:18:02Z</time>
      </trkpt>
      <trkpt lat="49.86385" lon="2.10678">
        <ele>122.9</ele>
        <time>2022-03-23T15:18:03Z</time>
      </trkpt>
      <trkpt lat="49.86385" lon="2.1068">
        <ele>122.9</ele>
        <time>2022-03-23T15:18:05Z</time>
      </trkpt>
      <trkpt lat="49.86386" lon="2.10682">
        <ele>122.9</ele>
        <time>2022-03-23T15:18:06Z</time>
      </trkpt>
      <trkpt lat="49.86386" lon="2.10684">
        <ele>122.9</ele>
        <time>2022-03-23T15:18:07Z</time>
      </trkpt>
      <trkpt lat="49.86386" lon="2.10685">
        <ele>122.9</ele>
        <time>2022-03-23T15:18:08Z</time>
      </trkpt>
      <trkpt lat="49.86386" lon="2.10687">
        <ele>122.9</ele>
        <time>2022-03-23T15:18:09Z</time>
      </trkpt>
      <trkpt lat="49.86386" lon="2.10689">
        <ele>122.9</ele>
        <time>2022-03-23T15:18:10Z</time>
      </trkpt>
      <trkpt lat="49.86386" lon="2.10691">
        <ele>122.9</ele>
        <time>2022-03-23T15:18:11Z</time>
      </trkpt>
      <trkpt lat="49.86386" lon="2.10693">
        <ele>122.9</ele>
        <time>2022-03-23T15:18:12Z</time>
      </trkpt>
      <trkpt lat="49.86386" lon="2.10694">
        <ele>122.9</ele>
        <time>2022-03-23T15:18:13Z</time>
      </trkpt>
      <trkpt lat="49.86386" lon="2.10698">
        <ele>122.8</ele>
        <time>2022-03-23T15:18:14Z</time>
      </trkpt>
      <trkpt lat="49.86386" lon="2.10699">
        <ele>122.8</ele>
        <time>2022-03-23T15:18:16Z</time>
      </trkpt>
      <trkpt lat="49.86386" lon="2.10701">
        <ele>122.8</ele>
        <time>2022-03-23T15:18:17Z</time>
      </trkpt>
      <trkpt lat="49.86387" lon="2.10704">
        <ele>122.8</ele>
        <time>2022-03-23T15:18:18Z</time>
      </trkpt>
      <trkpt lat="49.86387" lon="2.10705">
        <ele>122.8</ele>
        <time>2022-03-23T15:18:19Z</time>
      </trkpt>
      <trkpt lat="49.86387" lon="2.10707">
        <ele>122.8</ele>
        <time>2022-03-23T15:18:20Z</time>
      </trkpt>
      <trkpt lat="49.86388" lon="2.1071">
        <ele>122.8</ele>
        <time>2022-03-23T15:18:22Z</time>
      </trkpt>
      <trkpt lat="49.86388" lon="2.10712">
        <ele>122.7</ele>
        <time>2022-03-23T15:18:23Z</time>
      </trkpt>
      <trkpt lat="49.86389" lon="2.10713">
        <ele>122.7</ele>
        <time>2022-03-23T15:18:24Z</time>
      </trkpt>
      <trkpt lat="49.86389" lon="2.10716">
        <ele>122.7</ele>
        <time>2022-03-23T15:18:25Z</time>
      </trkpt>
      <trkpt lat="49.8639" lon="2.10719">
        <ele>122.7</ele>
        <time>2022-03-23T15:18:27Z</time>
      </trkpt>
      <trkpt lat="49.8639" lon="2.1072">
        <ele>122.7</ele>
        <time>2022-03-23T15:18:28Z</time>
      </trkpt>
      <trkpt lat="49.8639" lon="2.10721">
        <ele>122.7</ele>
        <time>2022-03-23T15:18:29Z</time>
      </trkpt>
      <trkpt lat="49.86391" lon="2.10723">
        <ele>122.6</ele>
        <time>2022-03-23T15:18:30Z</time>
      </trkpt>
      <trkpt lat="49.86391" lon="2.10726">
        <ele>122.6</ele>
        <time>2022-03-23T15:18:31Z</time>
      </trkpt>
      <trkpt lat="49.86391" lon="2.10729">
        <ele>122.6</ele>
        <time>2022-03-23T15:18:32Z</time>
      </trkpt>
      <trkpt lat="49.86391" lon="2.1073">
        <ele>122.6</ele>
        <time>2022-03-23T15:18:33Z</time>
      </trkpt>
      <trkpt lat="49.86391" lon="2.10732">
        <ele>122.5</ele>
        <time>2022-03-23T15:18:34Z</time>
      </trkpt>
      <trkpt lat="49.86391" lon="2.10735">
        <ele>122.5</ele>
        <time>2022-03-23T15:18:35Z</time>
      </trkpt>
      <trkpt lat="49.86392" lon="2.10737">
        <ele>122.5</ele>
        <time>2022-03-23T15:18:36Z</time>
      </trkpt>
      <trkpt lat="49.86392" lon="2.10738">
        <ele>122.5</ele>
        <time>2022-03-23T15:18:38Z</time>
      </trkpt>
      <trkpt lat="49.86392" lon="2.1074">
        <ele>122.5</ele>
        <time>2022-03-23T15:18:39Z</time>
      </trkpt>
      <trkpt lat="49.86392" lon="2.10742">
        <ele>122.5</ele>
        <time>2022-03-23T15:18:40Z</time>
      </trkpt>
      <trkpt lat="49.86392" lon="2.10743">
        <ele>122.5</ele>
        <time>2022-03-23T15:18:41Z</time>
      </trkpt>
      <trkpt lat="49.86393" lon="2.10745">
        <ele>122.4</ele>
        <time>2022-03-23T15:18:42Z</time>
      </trkpt>
      <trkpt lat="49.86393" lon="2.10748">
        <ele>122.4</ele>
        <time>2022-03-23T15:18:43Z</time>
      </trkpt>
      <trkpt lat="49.86393" lon="2.10751">
        <ele>122.4</ele>
        <time>2022-03-23T15:18:44Z</time>
      </trkpt>
      <trkpt lat="49.86393" lon="2.10752">
        <ele>122.4</ele>
        <time>2022-03-23T15:18:46Z</time>
      </trkpt>
      <trkpt lat="49.86393" lon="2.10754">
        <ele>122.3</ele>
        <time>2022-03-23T15:18:47Z</time>
      </trkpt>
      <trkpt lat="49.86394" lon="2.10756">
        <ele>122.3</ele>
        <time>2022-03-23T15:18:48Z</time>
      </trkpt>
      <trkpt lat="49.86394" lon="2.10757">
        <ele>122.3</ele>
        <time>2022-03-23T15:18:49Z</time>
      </trkpt>
      <trkpt lat="49.86395" lon="2.10759">
        <ele>122.3</ele>
        <time>2022-03-23T15:18:50Z</time>
      </trkpt>
      <trkpt lat="49.86396" lon="2.10762">
        <ele>122.2</ele>
        <time>2022-03-23T15:18:51Z</time>
      </trkpt>
      <trkpt lat="49.86396" lon="2.10763">
        <ele>122.2</ele>
        <time>2022-03-23T15:18:52Z</time>
      </trkpt>
      <trkpt lat="49.86397" lon="2.10765">
        <ele>122.2</ele>
        <time>2022-03-23T15:18:53Z</time>
      </trkpt>
      <trkpt lat="49.86397" lon="2.10766">
        <ele>122.2</ele>
        <time>2022-03-23T15:18:54Z</time>
      </trkpt>
      <trkpt lat="49.86398" lon="2.10768">
        <ele>122.2</ele>
        <time>2022-03-23T15:18:55Z</time>
      </trkpt>
      <trkpt lat="49.86399" lon="2.1077">
        <ele>122.2</ele>
        <time>2022-03-23T15:18:56Z</time>
      </trkpt>
      <trkpt lat="49.86399" lon="2.10772">
        <ele>122.1</ele>
        <time>2022-03-23T15:18:57Z</time>
      </trkpt>
      <trkpt lat="49.864" lon="2.10774">
        <ele>122.1</ele>
        <time>2022-03-23T15:18:59Z</time>
      </trkpt>
      <trkpt lat="49.86401" lon="2.10776">
        <ele>122.1</ele>
        <time>2022-03-23T15:19:00Z</time>
      </trkpt>
      <trkpt lat="49.86401" lon="2.10777">
        <ele>122.1</ele>
        <time>2022-03-23T15:19:01Z</time>
      </trkpt>
      <trkpt lat="49.86401" lon="2.10779">
        <ele>122</ele>
        <time>2022-03-23T15:19:02Z</time>
      </trkpt>
      <trkpt lat="49.86402" lon="2.10781">
        <ele>122</ele>
        <time>2022-03-23T15:19:03Z</time>
      </trkpt>
      <trkpt lat="49.86402" lon="2.10785">
        <ele>122</ele>
        <time>2022-03-23T15:19:04Z</time>
      </trkpt>
      <trkpt lat="49.86402" lon="2.10786">
        <ele>122</ele>
        <time>2022-03-23T15:19:05Z</time>
      </trkpt>
      <trkpt lat="49.86402" lon="2.10787">
        <ele>121.9</ele>
        <time>2022-03-23T15:19:06Z</time>
      </trkpt>
      <trkpt lat="49.86402" lon="2.10789">
        <ele>121.9</ele>
        <time>2022-03-23T15:19:07Z</time>
      </trkpt>
      <trkpt lat="49.86402" lon="2.10791">
        <ele>121.9</ele>
        <time>2022-03-23T15:19:08Z</time>
      </trkpt>
      <trkpt lat="49.86403" lon="2.10793">
        <ele>121.9</ele>
        <time>2022-03-23T15:19:09Z</time>
      </trkpt>
      <trkpt lat="49.86403" lon="2.10796">
        <ele>121.8</ele>
        <time>2022-03-23T15:19:11Z</time>
      </trkpt>
      <trkpt lat="49.86403" lon="2.10797">
        <ele>121.8</ele>
        <time>2022-03-23T15:19:12Z</time>
      </trkpt>
      <trkpt lat="49.86403" lon="2.10799">
        <ele>121.8</ele>
        <time>2022-03-23T15:19:13Z</time>
      </trkpt>
      <trkpt lat="49.86404" lon="2.10802">
        <ele>121.8</ele>
        <time>2022-03-23T15:19:14Z</time>
      </trkpt>
      <trkpt lat="49.86404" lon="2.10803">
        <ele>121.8</ele>
        <time>2022-03-23T15:19:15Z</time>
      </trkpt>
      <trkpt lat="49.86404" lon="2.10804">
        <ele>121.8</ele>
        <time>2022-03-23T15:19:16Z</time>
      </trkpt>
      <trkpt lat="49.86404" lon="2.10807">
        <ele>121.7</ele>
        <time>2022-03-23T15:19:17Z</time>
      </trkpt>
      <trkpt lat="49.86404" lon="2.10809">
        <ele>121.7</ele>
        <time>2022-03-23T15:19:18Z</time>
      </trkpt>
      <trkpt lat="49.86404" lon="2.10811">
        <ele>121.7</ele>
        <time>2022-03-23T15:19:19Z</time>
      </trkpt>
      <trkpt lat="49.86405" lon="2.10813">
        <ele>121.7</ele>
        <time>2022-03-23T15:19:20Z</time>
      </trkpt>
      <trkpt lat="49.86405" lon="2.10816">
        <ele>121.7</ele>
        <time>2022-03-23T15:19:22Z</time>
      </trkpt>
      <trkpt lat="49.86405" lon="2.10818">
        <ele>121.6</ele>
        <time>2022-03-23T15:19:23Z</time>
      </trkpt>
      <trkpt lat="49.86405" lon="2.10819">
        <ele>121.6</ele>
        <time>2022-03-23T15:19:24Z</time>
      </trkpt>
      <trkpt lat="49.86405" lon="2.1082">
        <ele>121.6</ele>
        <time>2022-03-23T15:19:25Z</time>
      </trkpt>
      <trkpt lat="49.86405" lon="2.10822">
        <ele>121.6</ele>
        <time>2022-03-23T15:19:26Z</time>
      </trkpt>
      <trkpt lat="49.86405" lon="2.10824">
        <ele>121.6</ele>
        <time>2022-03-23T15:19:27Z</time>
      </trkpt>
      <trkpt lat="49.86406" lon="2.10826">
        <ele>121.6</ele>
        <time>2022-03-23T15:19:28Z</time>
      </trkpt>
      <trkpt lat="49.86406" lon="2.10828">
        <ele>121.5</ele>
        <time>2022-03-23T15:19:29Z</time>
      </trkpt>
      <trkpt lat="49.86407" lon="2.1083">
        <ele>121.5</ele>
        <time>2022-03-23T15:19:30Z</time>
      </trkpt>
      <trkpt lat="49.86407" lon="2.10832">
        <ele>121.5</ele>
        <time>2022-03-23T15:19:31Z</time>
      </trkpt>
      <trkpt lat="49.86408" lon="2.10836">
        <ele>121.5</ele>
        <time>2022-03-23T15:19:32Z</time>
      </trkpt>
      <trkpt lat="49.86408" lon="2.10838">
        <ele>121.5</ele>
        <time>2022-03-23T15:19:34Z</time>
      </trkpt>
      <trkpt lat="49.86408" lon="2.10839">
        <ele>121.4</ele>
        <time>2022-03-23T15:19:35Z</time>
      </trkpt>
      <trkpt lat="49.86408" lon="2.10841">
        <ele>121.4</ele>
        <time>2022-03-23T15:19:36Z</time>
      </trkpt>
      <trkpt lat="49.86408" lon="2.10843">
        <ele>121.4</ele>
        <time>2022-03-23T15:19:37Z</time>
      </trkpt>
      <trkpt lat="49.86408" lon="2.10846">
        <ele>121.4</ele>
        <time>2022-03-23T15:19:38Z</time>
      </trkpt>
      <trkpt lat="49.86408" lon="2.10847">
        <ele>121.4</ele>
        <time>2022-03-23T15:19:39Z</time>
      </trkpt>
      <trkpt lat="49.86408" lon="2.10849">
        <ele>121.4</ele>
        <time>2022-03-23T15:19:40Z</time>
      </trkpt>
      <trkpt lat="49.86408" lon="2.10852">
        <ele>121.4</ele>
        <time>2022-03-23T15:19:41Z</time>
      </trkpt>
      <trkpt lat="49.86409" lon="2.10853">
        <ele>121.4</ele>
        <time>2022-03-23T15:19:42Z</time>
      </trkpt>
      <trkpt lat="49.86409" lon="2.10854">
        <ele>121.4</ele>
        <time>2022-03-23T15:19:43Z</time>
      </trkpt>
      <trkpt lat="49.86409" lon="2.10858">
        <ele>121.3</ele>
        <time>2022-03-23T15:19:44Z</time>
      </trkpt>
      <trkpt lat="49.86409" lon="2.10859">
        <ele>121.3</ele>
        <time>2022-03-23T15:19:46Z</time>
      </trkpt>
      <trkpt lat="49.8641" lon="2.1086">
        <ele>121.3</ele>
        <time>2022-03-23T15:19:47Z</time>
      </trkpt>
      <trkpt lat="49.8641" lon="2.10862">
        <ele>121.3</ele>
        <time>2022-03-23T15:19:48Z</time>
      </trkpt>
      <trkpt lat="49.86411" lon="2.10863">
        <ele>121.3</ele>
        <time>2022-03-23T15:19:49Z</time>
      </trkpt>
      <trkpt lat="49.86411" lon="2.10865">
        <ele>121.3</ele>
        <time>2022-03-23T15:19:50Z</time>
      </trkpt>
      <trkpt lat="49.86412" lon="2.10868">
        <ele>121.3</ele>
        <time>2022-03-23T15:19:51Z</time>
      </trkpt>
      <trkpt lat="49.86412" lon="2.10869">
        <ele>121.3</ele>
        <time>2022-03-23T15:19:52Z</time>
      </trkpt>
      <trkpt lat="49.86413" lon="2.1087">
        <ele>121.3</ele>
        <time>2022-03-23T15:19:53Z</time>
      </trkpt>
      <trkpt lat="49.86413" lon="2.10872">
        <ele>121.2</ele>
        <time>2022-03-23T15:19:54Z</time>
      </trkpt>
      <trkpt lat="49.86413" lon="2.10873">
        <ele>121.2</ele>
        <time>2022-03-23T15:19:55Z</time>
      </trkpt>
      <trkpt lat="49.86414" lon="2.10875">
        <ele>121.2</ele>
        <time>2022-03-23T15:19:57Z</time>
      </trkpt>
      <trkpt lat="49.86415" lon="2.10877">
        <ele>121.2</ele>
        <time>2022-03-23T15:19:58Z</time>
      </trkpt>
      <trkpt lat="49.86415" lon="2.10878">
        <ele>121.2</ele>
        <time>2022-03-23T15:19:59Z</time>
      </trkpt>
      <trkpt lat="49.86416" lon="2.1088">
        <ele>121.2</ele>
        <time>2022-03-23T15:20:00Z</time>
      </trkpt>
      <trkpt lat="49.86417" lon="2.10883">
        <ele>121.2</ele>
        <time>2022-03-23T15:20:01Z</time>
      </trkpt>
      <trkpt lat="49.86417" lon="2.10884">
        <ele>121.2</ele>
        <time>2022-03-23T15:20:02Z</time>
      </trkpt>
      <trkpt lat="49.86418" lon="2.10885">
        <ele>121.2</ele>
        <time>2022-03-23T15:20:03Z</time>
      </trkpt>
      <trkpt lat="49.86419" lon="2.10888">
        <ele>121.2</ele>
        <time>2022-03-23T15:20:04Z</time>
      </trkpt>
      <trkpt lat="49.86419" lon="2.10889">
        <ele>121.2</ele>
        <time>2022-03-23T15:20:05Z</time>
      </trkpt>
      <trkpt lat="49.8642" lon="2.10891">
        <ele>121.2</ele>
        <time>2022-03-23T15:20:06Z</time>
      </trkpt>
      <trkpt lat="49.8642" lon="2.10893">
        <ele>121.2</ele>
        <time>2022-03-23T15:20:08Z</time>
      </trkpt>
      <trkpt lat="49.86421" lon="2.10895">
        <ele>121.2</ele>
        <time>2022-03-23T15:20:09Z</time>
      </trkpt>
      <trkpt lat="49.86421" lon="2.10897">
        <ele>121.2</ele>
        <time>2022-03-23T15:20:10Z</time>
      </trkpt>
      <trkpt lat="49.86421" lon="2.10898">
        <ele>121.2</ele>
        <time>2022-03-23T15:20:11Z</time>
      </trkpt>
      <trkpt lat="49.86422" lon="2.109">
        <ele>121.2</ele>
        <time>2022-03-23T15:20:12Z</time>
      </trkpt>
      <trkpt lat="49.86422" lon="2.10902">
        <ele>121.2</ele>
        <time>2022-03-23T15:20:14Z</time>
      </trkpt>
      <trkpt lat="49.86422" lon="2.10904">
        <ele>121.1</ele>
        <time>2022-03-23T15:20:15Z</time>
      </trkpt>
      <trkpt lat="49.86423" lon="2.10907">
        <ele>121.1</ele>
        <time>2022-03-23T15:20:16Z</time>
      </trkpt>
      <trkpt lat="49.86423" lon="2.10909">
        <ele>121.1</ele>
        <time>2022-03-23T15:20:17Z</time>
      </trkpt>
      <trkpt lat="49.86423" lon="2.1091">
        <ele>121.1</ele>
        <time>2022-03-23T15:20:18Z</time>
      </trkpt>
      <trkpt lat="49.86423" lon="2.10912">
        <ele>121.1</ele>
        <time>2022-03-23T15:20:19Z</time>
      </trkpt>
      <trkpt lat="49.86424" lon="2.10914">
        <ele>121.1</ele>
        <time>2022-03-23T15:20:20Z</time>
      </trkpt>
      <trkpt lat="49.86424" lon="2.10916">
        <ele>121.1</ele>
        <time>2022-03-23T15:20:21Z</time>
      </trkpt>
      <trkpt lat="49.86425" lon="2.10918">
        <ele>121.1</ele>
        <time>2022-03-23T15:20:22Z</time>
      </trkpt>
      <trkpt lat="49.86425" lon="2.1092">
        <ele>121.1</ele>
        <time>2022-03-23T15:20:24Z</time>
      </trkpt>
      <trkpt lat="49.86425" lon="2.10922">
        <ele>121.1</ele>
        <time>2022-03-23T15:20:25Z</time>
      </trkpt>
    </trkseg>
  </trk>
</gpx>